<?xml version="1.0" encoding="UTF-8" standalone="no" ?>
<gpx xmlns="http://www.topografix.com/GPX/1/1" xmlns:xsi="http://www.w3.org/2001/XMLSchema-instance" xsi:schemaLocation="http://www.topografix.com/GPX/1/1 http://www.topografix.com/GPX/1/1/gpx.xsd" version="1.1" creator="VisuGPX - https://www.visugpx.com">
  <metadata>
    <name>Sortie Chalo Saint Mars</name>
    <desc><![CDATA[Sortie longue à Chalo Saint Mars.]]></desc>
  </metadata>
  <trk>
    <name><![CDATA[Sortie Chalo Saint Mars_1]]></name>
    <trkseg>
      <trkpt lat="48.42803" lon="2.11746">
        <ele>84</ele>
        <time>2011-04-30T06:48:21Z</time>
      </trkpt>
      <trkpt lat="48.428" lon="2.11741">
        <ele>84</ele>
        <time>2011-04-30T06:48:25Z</time>
      </trkpt>
      <trkpt lat="48.42765" lon="2.1162">
        <ele>84</ele>
        <time>2011-04-30T06:49:19Z</time>
      </trkpt>
      <trkpt lat="48.42765" lon="2.11617">
        <ele>84</ele>
        <time>2011-04-30T06:49:20Z</time>
      </trkpt>
      <trkpt lat="48.42661" lon="2.11563">
        <ele>82</ele>
        <time>2011-04-30T06:50:12Z</time>
      </trkpt>
      <trkpt lat="48.42659" lon="2.11562">
        <ele>82</ele>
        <time>2011-04-30T06:50:13Z</time>
      </trkpt>
      <trkpt lat="48.42658" lon="2.11562">
        <ele>82</ele>
        <time>2011-04-30T06:50:14Z</time>
      </trkpt>
      <trkpt lat="48.42555" lon="2.11537">
        <ele>88</ele>
        <time>2011-04-30T06:51:06Z</time>
      </trkpt>
      <trkpt lat="48.42553" lon="2.11537">
        <ele>88</ele>
        <time>2011-04-30T06:51:07Z</time>
      </trkpt>
      <trkpt lat="48.42551" lon="2.11537">
        <ele>88</ele>
        <time>2011-04-30T06:51:08Z</time>
      </trkpt>
      <trkpt lat="48.42493" lon="2.11616">
        <ele>92</ele>
        <time>2011-04-30T06:52:04Z</time>
      </trkpt>
      <trkpt lat="48.4249" lon="2.11618">
        <ele>92</ele>
        <time>2011-04-30T06:52:05Z</time>
      </trkpt>
      <trkpt lat="48.42489" lon="2.1162">
        <ele>92</ele>
        <time>2011-04-30T06:52:06Z</time>
      </trkpt>
      <trkpt lat="48.42487" lon="2.11622">
        <ele>92</ele>
        <time>2011-04-30T06:52:07Z</time>
      </trkpt>
      <trkpt lat="48.42486" lon="2.11624">
        <ele>92</ele>
        <time>2011-04-30T06:52:08Z</time>
      </trkpt>
      <trkpt lat="48.42485" lon="2.11626">
        <ele>91</ele>
        <time>2011-04-30T06:52:09Z</time>
      </trkpt>
      <trkpt lat="48.42484" lon="2.11627">
        <ele>91</ele>
        <time>2011-04-30T06:52:10Z</time>
      </trkpt>
      <trkpt lat="48.42458" lon="2.11701">
        <ele>87</ele>
        <time>2011-04-30T06:52:37Z</time>
      </trkpt>
      <trkpt lat="48.42455" lon="2.11704">
        <ele>87</ele>
        <time>2011-04-30T06:52:38Z</time>
      </trkpt>
      <trkpt lat="48.42452" lon="2.11708">
        <ele>87</ele>
        <time>2011-04-30T06:52:39Z</time>
      </trkpt>
      <trkpt lat="48.42449" lon="2.11711">
        <ele>87</ele>
        <time>2011-04-30T06:52:40Z</time>
      </trkpt>
      <trkpt lat="48.42447" lon="2.11714">
        <ele>87</ele>
        <time>2011-04-30T06:52:41Z</time>
      </trkpt>
      <trkpt lat="48.42352" lon="2.1164">
        <ele>109</ele>
        <time>2011-04-30T06:53:48Z</time>
      </trkpt>
      <trkpt lat="48.42351" lon="2.11639">
        <ele>109</ele>
        <time>2011-04-30T06:53:49Z</time>
      </trkpt>
      <trkpt lat="48.4235" lon="2.11638">
        <ele>109</ele>
        <time>2011-04-30T06:53:50Z</time>
      </trkpt>
      <trkpt lat="48.4235" lon="2.11637">
        <ele>109</ele>
        <time>2011-04-30T06:53:51Z</time>
      </trkpt>
      <trkpt lat="48.42349" lon="2.11636">
        <ele>109</ele>
        <time>2011-04-30T06:53:52Z</time>
      </trkpt>
      <trkpt lat="48.42213" lon="2.11543">
        <ele>121</ele>
        <time>2011-04-30T06:55:37Z</time>
      </trkpt>
      <trkpt lat="48.42211" lon="2.11542">
        <ele>121</ele>
        <time>2011-04-30T06:55:38Z</time>
      </trkpt>
      <trkpt lat="48.42209" lon="2.11541">
        <ele>121</ele>
        <time>2011-04-30T06:55:39Z</time>
      </trkpt>
      <trkpt lat="48.42207" lon="2.1154">
        <ele>122</ele>
        <time>2011-04-30T06:55:40Z</time>
      </trkpt>
      <trkpt lat="48.42205" lon="2.11539">
        <ele>122</ele>
        <time>2011-04-30T06:55:41Z</time>
      </trkpt>
      <trkpt lat="48.42203" lon="2.11538">
        <ele>122</ele>
        <time>2011-04-30T06:55:42Z</time>
      </trkpt>
      <trkpt lat="48.42116" lon="2.11473">
        <ele>125</ele>
        <time>2011-04-30T06:56:23Z</time>
      </trkpt>
      <trkpt lat="48.42116" lon="2.11471">
        <ele>125</ele>
        <time>2011-04-30T06:56:24Z</time>
      </trkpt>
      <trkpt lat="48.42135" lon="2.11381">
        <ele>127</ele>
        <time>2011-04-30T06:56:55Z</time>
      </trkpt>
      <trkpt lat="48.42135" lon="2.11378">
        <ele>127</ele>
        <time>2011-04-30T06:56:56Z</time>
      </trkpt>
      <trkpt lat="48.42157" lon="2.11268">
        <ele>130</ele>
        <time>2011-04-30T06:57:32Z</time>
      </trkpt>
      <trkpt lat="48.42158" lon="2.11265">
        <ele>130</ele>
        <time>2011-04-30T06:57:33Z</time>
      </trkpt>
      <trkpt lat="48.42158" lon="2.11261">
        <ele>131</ele>
        <time>2011-04-30T06:57:34Z</time>
      </trkpt>
      <trkpt lat="48.42159" lon="2.11258">
        <ele>131</ele>
        <time>2011-04-30T06:57:35Z</time>
      </trkpt>
      <trkpt lat="48.42177" lon="2.1115">
        <ele>132</ele>
        <time>2011-04-30T06:58:08Z</time>
      </trkpt>
      <trkpt lat="48.42178" lon="2.11147">
        <ele>132</ele>
        <time>2011-04-30T06:58:09Z</time>
      </trkpt>
      <trkpt lat="48.42179" lon="2.11144">
        <ele>132</ele>
        <time>2011-04-30T06:58:10Z</time>
      </trkpt>
      <trkpt lat="48.42179" lon="2.11141">
        <ele>132</ele>
        <time>2011-04-30T06:58:11Z</time>
      </trkpt>
      <trkpt lat="48.42198" lon="2.11028">
        <ele>135</ele>
        <time>2011-04-30T06:58:49Z</time>
      </trkpt>
      <trkpt lat="48.42198" lon="2.11025">
        <ele>135</ele>
        <time>2011-04-30T06:58:50Z</time>
      </trkpt>
      <trkpt lat="48.42198" lon="2.11022">
        <ele>135</ele>
        <time>2011-04-30T06:58:51Z</time>
      </trkpt>
      <trkpt lat="48.42198" lon="2.11019">
        <ele>135</ele>
        <time>2011-04-30T06:58:52Z</time>
      </trkpt>
      <trkpt lat="48.42201" lon="2.10798">
        <ele>131</ele>
        <time>2011-04-30T07:00:04Z</time>
      </trkpt>
      <trkpt lat="48.422" lon="2.10794">
        <ele>131</ele>
        <time>2011-04-30T07:00:05Z</time>
      </trkpt>
      <trkpt lat="48.422" lon="2.10791">
        <ele>131</ele>
        <time>2011-04-30T07:00:06Z</time>
      </trkpt>
      <trkpt lat="48.422" lon="2.10788">
        <ele>131</ele>
        <time>2011-04-30T07:00:07Z</time>
      </trkpt>
      <trkpt lat="48.422" lon="2.10784">
        <ele>131</ele>
        <time>2011-04-30T07:00:08Z</time>
      </trkpt>
      <trkpt lat="48.42199" lon="2.1078">
        <ele>131</ele>
        <time>2011-04-30T07:00:09Z</time>
      </trkpt>
      <trkpt lat="48.42223" lon="2.10464">
        <ele>132</ele>
        <time>2011-04-30T07:01:42Z</time>
      </trkpt>
      <trkpt lat="48.42223" lon="2.10461">
        <ele>132</ele>
        <time>2011-04-30T07:01:43Z</time>
      </trkpt>
      <trkpt lat="48.42223" lon="2.10458">
        <ele>132</ele>
        <time>2011-04-30T07:01:44Z</time>
      </trkpt>
      <trkpt lat="48.42223" lon="2.10454">
        <ele>132</ele>
        <time>2011-04-30T07:01:45Z</time>
      </trkpt>
      <trkpt lat="48.42223" lon="2.10451">
        <ele>132</ele>
        <time>2011-04-30T07:01:46Z</time>
      </trkpt>
      <trkpt lat="48.42223" lon="2.10448">
        <ele>132</ele>
        <time>2011-04-30T07:01:47Z</time>
      </trkpt>
      <trkpt lat="48.42223" lon="2.10445">
        <ele>132</ele>
        <time>2011-04-30T07:01:48Z</time>
      </trkpt>
      <trkpt lat="48.42223" lon="2.10441">
        <ele>132</ele>
        <time>2011-04-30T07:01:49Z</time>
      </trkpt>
      <trkpt lat="48.42222" lon="2.10438">
        <ele>132</ele>
        <time>2011-04-30T07:01:50Z</time>
      </trkpt>
      <trkpt lat="48.42222" lon="2.10435">
        <ele>132</ele>
        <time>2011-04-30T07:01:51Z</time>
      </trkpt>
      <trkpt lat="48.42282" lon="2.10257">
        <ele>124</ele>
        <time>2011-04-30T07:03:17Z</time>
      </trkpt>
      <trkpt lat="48.42282" lon="2.10257">
        <ele>124</ele>
        <time>2011-04-30T07:03:18Z</time>
      </trkpt>
      <trkpt lat="48.42282" lon="2.10257">
        <ele>124</ele>
        <time>2011-04-30T07:03:19Z</time>
      </trkpt>
      <trkpt lat="48.42283" lon="2.10257">
        <ele>124</ele>
        <time>2011-04-30T07:03:20Z</time>
      </trkpt>
      <trkpt lat="48.42283" lon="2.10257">
        <ele>124</ele>
        <time>2011-04-30T07:03:21Z</time>
      </trkpt>
      <trkpt lat="48.42283" lon="2.10257">
        <ele>124</ele>
        <time>2011-04-30T07:03:22Z</time>
      </trkpt>
      <trkpt lat="48.42283" lon="2.10258">
        <ele>124</ele>
        <time>2011-04-30T07:03:23Z</time>
      </trkpt>
      <trkpt lat="48.42283" lon="2.10259">
        <ele>124</ele>
        <time>2011-04-30T07:03:24Z</time>
      </trkpt>
      <trkpt lat="48.42283" lon="2.1026">
        <ele>124</ele>
        <time>2011-04-30T07:03:25Z</time>
      </trkpt>
      <trkpt lat="48.42282" lon="2.10261">
        <ele>124</ele>
        <time>2011-04-30T07:03:26Z</time>
      </trkpt>
      <trkpt lat="48.42281" lon="2.10262">
        <ele>124</ele>
        <time>2011-04-30T07:03:27Z</time>
      </trkpt>
      <trkpt lat="48.4228" lon="2.10262">
        <ele>124</ele>
        <time>2011-04-30T07:03:28Z</time>
      </trkpt>
      <trkpt lat="48.42278" lon="2.10262">
        <ele>124</ele>
        <time>2011-04-30T07:03:29Z</time>
      </trkpt>
      <trkpt lat="48.42276" lon="2.10262">
        <ele>124</ele>
        <time>2011-04-30T07:03:30Z</time>
      </trkpt>
      <trkpt lat="48.42274" lon="2.10262">
        <ele>124</ele>
        <time>2011-04-30T07:03:31Z</time>
      </trkpt>
      <trkpt lat="48.42272" lon="2.10262">
        <ele>124</ele>
        <time>2011-04-30T07:03:32Z</time>
      </trkpt>
      <trkpt lat="48.42271" lon="2.10261">
        <ele>124</ele>
        <time>2011-04-30T07:03:33Z</time>
      </trkpt>
      <trkpt lat="48.42269" lon="2.10261">
        <ele>124</ele>
        <time>2011-04-30T07:03:34Z</time>
      </trkpt>
      <trkpt lat="48.42221" lon="2.10079">
        <ele>121</ele>
        <time>2011-04-30T07:04:51Z</time>
      </trkpt>
      <trkpt lat="48.4222" lon="2.10075">
        <ele>121</ele>
        <time>2011-04-30T07:04:52Z</time>
      </trkpt>
      <trkpt lat="48.4222" lon="2.10071">
        <ele>120</ele>
        <time>2011-04-30T07:04:53Z</time>
      </trkpt>
      <trkpt lat="48.4222" lon="2.10067">
        <ele>120</ele>
        <time>2011-04-30T07:04:54Z</time>
      </trkpt>
      <trkpt lat="48.42219" lon="2.10063">
        <ele>120</ele>
        <time>2011-04-30T07:04:55Z</time>
      </trkpt>
      <trkpt lat="48.42219" lon="2.10059">
        <ele>120</ele>
        <time>2011-04-30T07:04:56Z</time>
      </trkpt>
      <trkpt lat="48.42243" lon="2.09839">
        <ele>121</ele>
        <time>2011-04-30T07:06:33Z</time>
      </trkpt>
      <trkpt lat="48.42244" lon="2.09837">
        <ele>121</ele>
        <time>2011-04-30T07:06:34Z</time>
      </trkpt>
      <trkpt lat="48.42245" lon="2.09836">
        <ele>121</ele>
        <time>2011-04-30T07:06:35Z</time>
      </trkpt>
      <trkpt lat="48.42246" lon="2.09834">
        <ele>121</ele>
        <time>2011-04-30T07:06:36Z</time>
      </trkpt>
      <trkpt lat="48.42247" lon="2.09832">
        <ele>122</ele>
        <time>2011-04-30T07:06:37Z</time>
      </trkpt>
      <trkpt lat="48.42248" lon="2.0983">
        <ele>122</ele>
        <time>2011-04-30T07:06:38Z</time>
      </trkpt>
      <trkpt lat="48.42249" lon="2.09828">
        <ele>122</ele>
        <time>2011-04-30T07:06:39Z</time>
      </trkpt>
      <trkpt lat="48.423" lon="2.09672">
        <ele>134</ele>
        <time>2011-04-30T07:07:42Z</time>
      </trkpt>
      <trkpt lat="48.423" lon="2.09668">
        <ele>134</ele>
        <time>2011-04-30T07:07:43Z</time>
      </trkpt>
      <trkpt lat="48.423" lon="2.09665">
        <ele>134</ele>
        <time>2011-04-30T07:07:44Z</time>
      </trkpt>
      <trkpt lat="48.42301" lon="2.09662">
        <ele>134</ele>
        <time>2011-04-30T07:07:45Z</time>
      </trkpt>
      <trkpt lat="48.42321" lon="2.09524">
        <ele>134</ele>
        <time>2011-04-30T07:08:28Z</time>
      </trkpt>
      <trkpt lat="48.42321" lon="2.0952">
        <ele>134</ele>
        <time>2011-04-30T07:08:29Z</time>
      </trkpt>
      <trkpt lat="48.42322" lon="2.09517">
        <ele>134</ele>
        <time>2011-04-30T07:08:30Z</time>
      </trkpt>
      <trkpt lat="48.42322" lon="2.09513">
        <ele>134</ele>
        <time>2011-04-30T07:08:31Z</time>
      </trkpt>
      <trkpt lat="48.42322" lon="2.09509">
        <ele>134</ele>
        <time>2011-04-30T07:08:32Z</time>
      </trkpt>
      <trkpt lat="48.42323" lon="2.09506">
        <ele>134</ele>
        <time>2011-04-30T07:08:33Z</time>
      </trkpt>
      <trkpt lat="48.42323" lon="2.09502">
        <ele>134</ele>
        <time>2011-04-30T07:08:34Z</time>
      </trkpt>
      <trkpt lat="48.42323" lon="2.09498">
        <ele>135</ele>
        <time>2011-04-30T07:08:35Z</time>
      </trkpt>
      <trkpt lat="48.42323" lon="2.09495">
        <ele>135</ele>
        <time>2011-04-30T07:08:36Z</time>
      </trkpt>
      <trkpt lat="48.42339" lon="2.09315">
        <ele>135</ele>
        <time>2011-04-30T07:09:29Z</time>
      </trkpt>
      <trkpt lat="48.42339" lon="2.09312">
        <ele>135</ele>
        <time>2011-04-30T07:09:30Z</time>
      </trkpt>
      <trkpt lat="48.4234" lon="2.09308">
        <ele>135</ele>
        <time>2011-04-30T07:09:31Z</time>
      </trkpt>
      <trkpt lat="48.4234" lon="2.09305">
        <ele>135</ele>
        <time>2011-04-30T07:09:32Z</time>
      </trkpt>
      <trkpt lat="48.42341" lon="2.09302">
        <ele>135</ele>
        <time>2011-04-30T07:09:33Z</time>
      </trkpt>
      <trkpt lat="48.42379" lon="2.09061">
        <ele>133</ele>
        <time>2011-04-30T07:10:44Z</time>
      </trkpt>
      <trkpt lat="48.4238" lon="2.09057">
        <ele>133</ele>
        <time>2011-04-30T07:10:45Z</time>
      </trkpt>
      <trkpt lat="48.4238" lon="2.09053">
        <ele>133</ele>
        <time>2011-04-30T07:10:46Z</time>
      </trkpt>
      <trkpt lat="48.42381" lon="2.09049">
        <ele>133</ele>
        <time>2011-04-30T07:10:47Z</time>
      </trkpt>
      <trkpt lat="48.42382" lon="2.09045">
        <ele>133</ele>
        <time>2011-04-30T07:10:48Z</time>
      </trkpt>
      <trkpt lat="48.42407" lon="2.08911">
        <ele>130</ele>
        <time>2011-04-30T07:11:32Z</time>
      </trkpt>
      <trkpt lat="48.42408" lon="2.08908">
        <ele>129</ele>
        <time>2011-04-30T07:11:33Z</time>
      </trkpt>
      <trkpt lat="48.42408" lon="2.08905">
        <ele>129</ele>
        <time>2011-04-30T07:11:34Z</time>
      </trkpt>
      <trkpt lat="48.42409" lon="2.08902">
        <ele>129</ele>
        <time>2011-04-30T07:11:35Z</time>
      </trkpt>
      <trkpt lat="48.42409" lon="2.08899">
        <ele>129</ele>
        <time>2011-04-30T07:11:36Z</time>
      </trkpt>
      <trkpt lat="48.42427" lon="2.08796">
        <ele>124</ele>
        <time>2011-04-30T07:12:14Z</time>
      </trkpt>
      <trkpt lat="48.42427" lon="2.08795">
        <ele>124</ele>
        <time>2011-04-30T07:12:15Z</time>
      </trkpt>
      <trkpt lat="48.42428" lon="2.08793">
        <ele>124</ele>
        <time>2011-04-30T07:12:16Z</time>
      </trkpt>
      <trkpt lat="48.42428" lon="2.08791">
        <ele>124</ele>
        <time>2011-04-30T07:12:17Z</time>
      </trkpt>
      <trkpt lat="48.42432" lon="2.08784">
        <ele>124</ele>
        <time>2011-04-30T07:13:07Z</time>
      </trkpt>
      <trkpt lat="48.42433" lon="2.08783">
        <ele>124</ele>
        <time>2011-04-30T07:13:08Z</time>
      </trkpt>
      <trkpt lat="48.42433" lon="2.08781">
        <ele>124</ele>
        <time>2011-04-30T07:13:09Z</time>
      </trkpt>
      <trkpt lat="48.42434" lon="2.0878">
        <ele>124</ele>
        <time>2011-04-30T07:13:10Z</time>
      </trkpt>
      <trkpt lat="48.42473" lon="2.08687">
        <ele>127</ele>
        <time>2011-04-30T07:13:58Z</time>
      </trkpt>
      <trkpt lat="48.42474" lon="2.08684">
        <ele>127</ele>
        <time>2011-04-30T07:13:59Z</time>
      </trkpt>
      <trkpt lat="48.42475" lon="2.08681">
        <ele>128</ele>
        <time>2011-04-30T07:14:00Z</time>
      </trkpt>
      <trkpt lat="48.42476" lon="2.08678">
        <ele>128</ele>
        <time>2011-04-30T07:14:01Z</time>
      </trkpt>
      <trkpt lat="48.42477" lon="2.08676">
        <ele>128</ele>
        <time>2011-04-30T07:14:02Z</time>
      </trkpt>
      <trkpt lat="48.42478" lon="2.08673">
        <ele>128</ele>
        <time>2011-04-30T07:14:03Z</time>
      </trkpt>
      <trkpt lat="48.42538" lon="2.08514">
        <ele>133</ele>
        <time>2011-04-30T07:14:54Z</time>
      </trkpt>
      <trkpt lat="48.42539" lon="2.08511">
        <ele>133</ele>
        <time>2011-04-30T07:14:55Z</time>
      </trkpt>
      <trkpt lat="48.42541" lon="2.08508">
        <ele>133</ele>
        <time>2011-04-30T07:14:56Z</time>
      </trkpt>
      <trkpt lat="48.42542" lon="2.08505">
        <ele>133</ele>
        <time>2011-04-30T07:14:57Z</time>
      </trkpt>
      <trkpt lat="48.42544" lon="2.08501">
        <ele>133</ele>
        <time>2011-04-30T07:14:58Z</time>
      </trkpt>
      <trkpt lat="48.42577" lon="2.08306">
        <ele>129</ele>
        <time>2011-04-30T07:15:46Z</time>
      </trkpt>
      <trkpt lat="48.42577" lon="2.08301">
        <ele>130</ele>
        <time>2011-04-30T07:15:47Z</time>
      </trkpt>
      <trkpt lat="48.42578" lon="2.08296">
        <ele>130</ele>
        <time>2011-04-30T07:15:48Z</time>
      </trkpt>
      <trkpt lat="48.42578" lon="2.08292">
        <ele>130</ele>
        <time>2011-04-30T07:15:49Z</time>
      </trkpt>
      <trkpt lat="48.42578" lon="2.08287">
        <ele>130</ele>
        <time>2011-04-30T07:15:50Z</time>
      </trkpt>
      <trkpt lat="48.42578" lon="2.08283">
        <ele>130</ele>
        <time>2011-04-30T07:15:51Z</time>
      </trkpt>
      <trkpt lat="48.42579" lon="2.08279">
        <ele>130</ele>
        <time>2011-04-30T07:15:52Z</time>
      </trkpt>
      <trkpt lat="48.42578" lon="2.08093">
        <ele>132</ele>
        <time>2011-04-30T07:16:49Z</time>
      </trkpt>
      <trkpt lat="48.42578" lon="2.0809">
        <ele>132</ele>
        <time>2011-04-30T07:16:50Z</time>
      </trkpt>
      <trkpt lat="48.42578" lon="2.08087">
        <ele>131</ele>
        <time>2011-04-30T07:16:51Z</time>
      </trkpt>
      <trkpt lat="48.42578" lon="2.08084">
        <ele>131</ele>
        <time>2011-04-30T07:16:52Z</time>
      </trkpt>
      <trkpt lat="48.42579" lon="2.08081">
        <ele>132</ele>
        <time>2011-04-30T07:16:53Z</time>
      </trkpt>
      <trkpt lat="48.42579" lon="2.08011">
        <ele>132</ele>
        <time>2011-04-30T07:17:17Z</time>
      </trkpt>
      <trkpt lat="48.42579" lon="2.08009">
        <ele>132</ele>
        <time>2011-04-30T07:17:18Z</time>
      </trkpt>
      <trkpt lat="48.42579" lon="2.08006">
        <ele>132</ele>
        <time>2011-04-30T07:17:19Z</time>
      </trkpt>
      <trkpt lat="48.42606" lon="2.0786">
        <ele>124</ele>
        <time>2011-04-30T07:17:54Z</time>
      </trkpt>
      <trkpt lat="48.42607" lon="2.07857">
        <ele>124</ele>
        <time>2011-04-30T07:17:55Z</time>
      </trkpt>
      <trkpt lat="48.42607" lon="2.07855">
        <ele>124</ele>
        <time>2011-04-30T07:17:56Z</time>
      </trkpt>
      <trkpt lat="48.42607" lon="2.07853">
        <ele>124</ele>
        <time>2011-04-30T07:17:57Z</time>
      </trkpt>
      <trkpt lat="48.42608" lon="2.07851">
        <ele>124</ele>
        <time>2011-04-30T07:17:58Z</time>
      </trkpt>
      <trkpt lat="48.42606" lon="2.07767">
        <ele>124</ele>
        <time>2011-04-30T07:18:52Z</time>
      </trkpt>
      <trkpt lat="48.42605" lon="2.07767">
        <ele>124</ele>
        <time>2011-04-30T07:18:53Z</time>
      </trkpt>
      <trkpt lat="48.42603" lon="2.07768">
        <ele>124</ele>
        <time>2011-04-30T07:18:54Z</time>
      </trkpt>
      <trkpt lat="48.42601" lon="2.07769">
        <ele>124</ele>
        <time>2011-04-30T07:18:55Z</time>
      </trkpt>
      <trkpt lat="48.4252" lon="2.07729">
        <ele>131</ele>
        <time>2011-04-30T07:19:37Z</time>
      </trkpt>
      <trkpt lat="48.42518" lon="2.07727">
        <ele>132</ele>
        <time>2011-04-30T07:19:38Z</time>
      </trkpt>
      <trkpt lat="48.42516" lon="2.07725">
        <ele>132</ele>
        <time>2011-04-30T07:19:39Z</time>
      </trkpt>
      <trkpt lat="48.42514" lon="2.07724">
        <ele>132</ele>
        <time>2011-04-30T07:19:40Z</time>
      </trkpt>
      <trkpt lat="48.42512" lon="2.07722">
        <ele>132</ele>
        <time>2011-04-30T07:19:41Z</time>
      </trkpt>
      <trkpt lat="48.4251" lon="2.07721">
        <ele>132</ele>
        <time>2011-04-30T07:19:42Z</time>
      </trkpt>
      <trkpt lat="48.42432" lon="2.0764">
        <ele>136</ele>
        <time>2011-04-30T07:20:26Z</time>
      </trkpt>
      <trkpt lat="48.4243" lon="2.07638">
        <ele>136</ele>
        <time>2011-04-30T07:20:27Z</time>
      </trkpt>
      <trkpt lat="48.42428" lon="2.07636">
        <ele>136</ele>
        <time>2011-04-30T07:20:28Z</time>
      </trkpt>
      <trkpt lat="48.42426" lon="2.07634">
        <ele>136</ele>
        <time>2011-04-30T07:20:29Z</time>
      </trkpt>
      <trkpt lat="48.42424" lon="2.07633">
        <ele>136</ele>
        <time>2011-04-30T07:20:30Z</time>
      </trkpt>
      <trkpt lat="48.42423" lon="2.0763">
        <ele>136</ele>
        <time>2011-04-30T07:20:31Z</time>
      </trkpt>
      <trkpt lat="48.42421" lon="2.07629">
        <ele>136</ele>
        <time>2011-04-30T07:20:32Z</time>
      </trkpt>
      <trkpt lat="48.42347" lon="2.07546">
        <ele>138</ele>
        <time>2011-04-30T07:21:16Z</time>
      </trkpt>
      <trkpt lat="48.42345" lon="2.07544">
        <ele>138</ele>
        <time>2011-04-30T07:21:17Z</time>
      </trkpt>
      <trkpt lat="48.42343" lon="2.07543">
        <ele>138</ele>
        <time>2011-04-30T07:21:18Z</time>
      </trkpt>
      <trkpt lat="48.42277" lon="2.07467">
        <ele>138</ele>
        <time>2011-04-30T07:21:56Z</time>
      </trkpt>
      <trkpt lat="48.42275" lon="2.07465">
        <ele>138</ele>
        <time>2011-04-30T07:21:57Z</time>
      </trkpt>
      <trkpt lat="48.42273" lon="2.07463">
        <ele>138</ele>
        <time>2011-04-30T07:21:58Z</time>
      </trkpt>
      <trkpt lat="48.42271" lon="2.07461">
        <ele>138</ele>
        <time>2011-04-30T07:21:59Z</time>
      </trkpt>
      <trkpt lat="48.42269" lon="2.07459">
        <ele>138</ele>
        <time>2011-04-30T07:22:00Z</time>
      </trkpt>
      <trkpt lat="48.42204" lon="2.07403">
        <ele>137</ele>
        <time>2011-04-30T07:22:34Z</time>
      </trkpt>
      <trkpt lat="48.42204" lon="2.074">
        <ele>137</ele>
        <time>2011-04-30T07:22:35Z</time>
      </trkpt>
      <trkpt lat="48.42205" lon="2.07397">
        <ele>137</ele>
        <time>2011-04-30T07:22:36Z</time>
      </trkpt>
      <trkpt lat="48.42206" lon="2.07393">
        <ele>137</ele>
        <time>2011-04-30T07:22:37Z</time>
      </trkpt>
      <trkpt lat="48.42208" lon="2.0739">
        <ele>137</ele>
        <time>2011-04-30T07:22:38Z</time>
      </trkpt>
      <trkpt lat="48.42209" lon="2.07387">
        <ele>137</ele>
        <time>2011-04-30T07:22:39Z</time>
      </trkpt>
      <trkpt lat="48.4221" lon="2.07383">
        <ele>137</ele>
        <time>2011-04-30T07:22:40Z</time>
      </trkpt>
      <trkpt lat="48.42212" lon="2.0738">
        <ele>137</ele>
        <time>2011-04-30T07:22:41Z</time>
      </trkpt>
      <trkpt lat="48.42286" lon="2.07163">
        <ele>130</ele>
        <time>2011-04-30T07:23:53Z</time>
      </trkpt>
      <trkpt lat="48.42287" lon="2.07161">
        <ele>130</ele>
        <time>2011-04-30T07:23:54Z</time>
      </trkpt>
      <trkpt lat="48.42287" lon="2.07158">
        <ele>130</ele>
        <time>2011-04-30T07:23:55Z</time>
      </trkpt>
      <trkpt lat="48.42288" lon="2.07156">
        <ele>130</ele>
        <time>2011-04-30T07:23:56Z</time>
      </trkpt>
      <trkpt lat="48.42288" lon="2.07154">
        <ele>130</ele>
        <time>2011-04-30T07:23:57Z</time>
      </trkpt>
      <trkpt lat="48.42288" lon="2.07152">
        <ele>129</ele>
        <time>2011-04-30T07:23:58Z</time>
      </trkpt>
      <trkpt lat="48.42292" lon="2.07082">
        <ele>123</ele>
        <time>2011-04-30T07:24:58Z</time>
      </trkpt>
      <trkpt lat="48.42292" lon="2.07082">
        <ele>123</ele>
        <time>2011-04-30T07:24:59Z</time>
      </trkpt>
      <trkpt lat="48.42292" lon="2.07082">
        <ele>123</ele>
        <time>2011-04-30T07:25:00Z</time>
      </trkpt>
      <trkpt lat="48.42292" lon="2.07082">
        <ele>123</ele>
        <time>2011-04-30T07:25:01Z</time>
      </trkpt>
      <trkpt lat="48.42292" lon="2.07082">
        <ele>123</ele>
        <time>2011-04-30T07:25:02Z</time>
      </trkpt>
      <trkpt lat="48.42292" lon="2.07082">
        <ele>123</ele>
        <time>2011-04-30T07:25:03Z</time>
      </trkpt>
      <trkpt lat="48.42292" lon="2.07082">
        <ele>123</ele>
        <time>2011-04-30T07:25:04Z</time>
      </trkpt>
      <trkpt lat="48.42293" lon="2.07082">
        <ele>123</ele>
        <time>2011-04-30T07:25:05Z</time>
      </trkpt>
      <trkpt lat="48.42293" lon="2.07082">
        <ele>123</ele>
        <time>2011-04-30T07:25:06Z</time>
      </trkpt>
      <trkpt lat="48.42271" lon="2.06997">
        <ele>114</ele>
        <time>2011-04-30T07:26:40Z</time>
      </trkpt>
      <trkpt lat="48.4227" lon="2.06996">
        <ele>114</ele>
        <time>2011-04-30T07:26:41Z</time>
      </trkpt>
      <trkpt lat="48.42268" lon="2.06996">
        <ele>115</ele>
        <time>2011-04-30T07:26:42Z</time>
      </trkpt>
      <trkpt lat="48.42267" lon="2.06995">
        <ele>115</ele>
        <time>2011-04-30T07:26:43Z</time>
      </trkpt>
      <trkpt lat="48.42266" lon="2.06995">
        <ele>115</ele>
        <time>2011-04-30T07:26:44Z</time>
      </trkpt>
      <trkpt lat="48.42264" lon="2.06994">
        <ele>116</ele>
        <time>2011-04-30T07:26:45Z</time>
      </trkpt>
      <trkpt lat="48.42066" lon="2.06992">
        <ele>135</ele>
        <time>2011-04-30T07:28:23Z</time>
      </trkpt>
      <trkpt lat="48.42065" lon="2.06993">
        <ele>135</ele>
        <time>2011-04-30T07:28:24Z</time>
      </trkpt>
      <trkpt lat="48.42063" lon="2.06994">
        <ele>135</ele>
        <time>2011-04-30T07:28:25Z</time>
      </trkpt>
      <trkpt lat="48.42061" lon="2.06994">
        <ele>135</ele>
        <time>2011-04-30T07:28:26Z</time>
      </trkpt>
      <trkpt lat="48.42059" lon="2.06994">
        <ele>135</ele>
        <time>2011-04-30T07:28:27Z</time>
      </trkpt>
      <trkpt lat="48.42057" lon="2.06994">
        <ele>135</ele>
        <time>2011-04-30T07:28:28Z</time>
      </trkpt>
      <trkpt lat="48.42054" lon="2.06993">
        <ele>135</ele>
        <time>2011-04-30T07:28:29Z</time>
      </trkpt>
      <trkpt lat="48.42052" lon="2.06992">
        <ele>135</ele>
        <time>2011-04-30T07:28:30Z</time>
      </trkpt>
      <trkpt lat="48.4205" lon="2.06992">
        <ele>135</ele>
        <time>2011-04-30T07:28:31Z</time>
      </trkpt>
      <trkpt lat="48.42048" lon="2.06992">
        <ele>135</ele>
        <time>2011-04-30T07:28:32Z</time>
      </trkpt>
      <trkpt lat="48.42047" lon="2.06992">
        <ele>135</ele>
        <time>2011-04-30T07:28:33Z</time>
      </trkpt>
      <trkpt lat="48.42045" lon="2.06992">
        <ele>135</ele>
        <time>2011-04-30T07:28:34Z</time>
      </trkpt>
      <trkpt lat="48.42043" lon="2.06992">
        <ele>135</ele>
        <time>2011-04-30T07:28:35Z</time>
      </trkpt>
      <trkpt lat="48.4204" lon="2.06992">
        <ele>135</ele>
        <time>2011-04-30T07:28:36Z</time>
      </trkpt>
      <trkpt lat="48.42038" lon="2.06992">
        <ele>135</ele>
        <time>2011-04-30T07:28:37Z</time>
      </trkpt>
      <trkpt lat="48.42036" lon="2.06992">
        <ele>135</ele>
        <time>2011-04-30T07:28:38Z</time>
      </trkpt>
      <trkpt lat="48.42033" lon="2.06993">
        <ele>135</ele>
        <time>2011-04-30T07:28:39Z</time>
      </trkpt>
      <trkpt lat="48.42031" lon="2.06992">
        <ele>135</ele>
        <time>2011-04-30T07:28:40Z</time>
      </trkpt>
      <trkpt lat="48.42029" lon="2.06992">
        <ele>135</ele>
        <time>2011-04-30T07:28:41Z</time>
      </trkpt>
      <trkpt lat="48.42028" lon="2.06992">
        <ele>135</ele>
        <time>2011-04-30T07:28:42Z</time>
      </trkpt>
      <trkpt lat="48.42026" lon="2.06991">
        <ele>135</ele>
        <time>2011-04-30T07:28:43Z</time>
      </trkpt>
      <trkpt lat="48.42024" lon="2.06991">
        <ele>135</ele>
        <time>2011-04-30T07:28:44Z</time>
      </trkpt>
      <trkpt lat="48.42022" lon="2.0699">
        <ele>135</ele>
        <time>2011-04-30T07:28:45Z</time>
      </trkpt>
      <trkpt lat="48.4202" lon="2.0699">
        <ele>135</ele>
        <time>2011-04-30T07:28:46Z</time>
      </trkpt>
      <trkpt lat="48.42018" lon="2.06989">
        <ele>135</ele>
        <time>2011-04-30T07:28:47Z</time>
      </trkpt>
      <trkpt lat="48.42016" lon="2.06989">
        <ele>135</ele>
        <time>2011-04-30T07:28:48Z</time>
      </trkpt>
      <trkpt lat="48.42014" lon="2.06989">
        <ele>135</ele>
        <time>2011-04-30T07:28:49Z</time>
      </trkpt>
      <trkpt lat="48.42012" lon="2.06988">
        <ele>136</ele>
        <time>2011-04-30T07:28:50Z</time>
      </trkpt>
      <trkpt lat="48.4201" lon="2.06988">
        <ele>136</ele>
        <time>2011-04-30T07:28:51Z</time>
      </trkpt>
      <trkpt lat="48.42008" lon="2.06987">
        <ele>136</ele>
        <time>2011-04-30T07:28:52Z</time>
      </trkpt>
      <trkpt lat="48.42006" lon="2.06986">
        <ele>136</ele>
        <time>2011-04-30T07:28:53Z</time>
      </trkpt>
      <trkpt lat="48.42004" lon="2.06985">
        <ele>136</ele>
        <time>2011-04-30T07:28:54Z</time>
      </trkpt>
      <trkpt lat="48.42002" lon="2.06985">
        <ele>136</ele>
        <time>2011-04-30T07:28:55Z</time>
      </trkpt>
      <trkpt lat="48.42" lon="2.06984">
        <ele>137</ele>
        <time>2011-04-30T07:28:56Z</time>
      </trkpt>
      <trkpt lat="48.41998" lon="2.06984">
        <ele>137</ele>
        <time>2011-04-30T07:28:57Z</time>
      </trkpt>
      <trkpt lat="48.41996" lon="2.06983">
        <ele>137</ele>
        <time>2011-04-30T07:28:58Z</time>
      </trkpt>
      <trkpt lat="48.41994" lon="2.06983">
        <ele>137</ele>
        <time>2011-04-30T07:28:59Z</time>
      </trkpt>
      <trkpt lat="48.41992" lon="2.06982">
        <ele>137</ele>
        <time>2011-04-30T07:29:00Z</time>
      </trkpt>
      <trkpt lat="48.4199" lon="2.06981">
        <ele>137</ele>
        <time>2011-04-30T07:29:01Z</time>
      </trkpt>
      <trkpt lat="48.41988" lon="2.06981">
        <ele>137</ele>
        <time>2011-04-30T07:29:02Z</time>
      </trkpt>
      <trkpt lat="48.41986" lon="2.0698">
        <ele>137</ele>
        <time>2011-04-30T07:29:03Z</time>
      </trkpt>
      <trkpt lat="48.41984" lon="2.0698">
        <ele>137</ele>
        <time>2011-04-30T07:29:04Z</time>
      </trkpt>
      <trkpt lat="48.41982" lon="2.06979">
        <ele>137</ele>
        <time>2011-04-30T07:29:05Z</time>
      </trkpt>
      <trkpt lat="48.4198" lon="2.06979">
        <ele>137</ele>
        <time>2011-04-30T07:29:06Z</time>
      </trkpt>
      <trkpt lat="48.41978" lon="2.06978">
        <ele>137</ele>
        <time>2011-04-30T07:29:07Z</time>
      </trkpt>
      <trkpt lat="48.41976" lon="2.06978">
        <ele>137</ele>
        <time>2011-04-30T07:29:08Z</time>
      </trkpt>
      <trkpt lat="48.41974" lon="2.06977">
        <ele>137</ele>
        <time>2011-04-30T07:29:09Z</time>
      </trkpt>
      <trkpt lat="48.41972" lon="2.06976">
        <ele>137</ele>
        <time>2011-04-30T07:29:10Z</time>
      </trkpt>
      <trkpt lat="48.4197" lon="2.06976">
        <ele>137</ele>
        <time>2011-04-30T07:29:11Z</time>
      </trkpt>
      <trkpt lat="48.41968" lon="2.06975">
        <ele>137</ele>
        <time>2011-04-30T07:29:12Z</time>
      </trkpt>
      <trkpt lat="48.41967" lon="2.06975">
        <ele>137</ele>
        <time>2011-04-30T07:29:13Z</time>
      </trkpt>
      <trkpt lat="48.41965" lon="2.06974">
        <ele>137</ele>
        <time>2011-04-30T07:29:14Z</time>
      </trkpt>
      <trkpt lat="48.41963" lon="2.06974">
        <ele>137</ele>
        <time>2011-04-30T07:29:15Z</time>
      </trkpt>
      <trkpt lat="48.41961" lon="2.06973">
        <ele>137</ele>
        <time>2011-04-30T07:29:16Z</time>
      </trkpt>
      <trkpt lat="48.41959" lon="2.06973">
        <ele>137</ele>
        <time>2011-04-30T07:29:17Z</time>
      </trkpt>
      <trkpt lat="48.41957" lon="2.06972">
        <ele>137</ele>
        <time>2011-04-30T07:29:18Z</time>
      </trkpt>
      <trkpt lat="48.41954" lon="2.06971">
        <ele>137</ele>
        <time>2011-04-30T07:29:19Z</time>
      </trkpt>
      <trkpt lat="48.41952" lon="2.06971">
        <ele>137</ele>
        <time>2011-04-30T07:29:20Z</time>
      </trkpt>
      <trkpt lat="48.4195" lon="2.0697">
        <ele>137</ele>
        <time>2011-04-30T07:29:21Z</time>
      </trkpt>
      <trkpt lat="48.41948" lon="2.06969">
        <ele>137</ele>
        <time>2011-04-30T07:29:22Z</time>
      </trkpt>
      <trkpt lat="48.41946" lon="2.06968">
        <ele>137</ele>
        <time>2011-04-30T07:29:23Z</time>
      </trkpt>
      <trkpt lat="48.41944" lon="2.06967">
        <ele>137</ele>
        <time>2011-04-30T07:29:24Z</time>
      </trkpt>
      <trkpt lat="48.41942" lon="2.06966">
        <ele>137</ele>
        <time>2011-04-30T07:29:25Z</time>
      </trkpt>
      <trkpt lat="48.4194" lon="2.06964">
        <ele>137</ele>
        <time>2011-04-30T07:29:26Z</time>
      </trkpt>
      <trkpt lat="48.41938" lon="2.06963">
        <ele>137</ele>
        <time>2011-04-30T07:29:27Z</time>
      </trkpt>
      <trkpt lat="48.41936" lon="2.06962">
        <ele>137</ele>
        <time>2011-04-30T07:29:28Z</time>
      </trkpt>
      <trkpt lat="48.41934" lon="2.06961">
        <ele>137</ele>
        <time>2011-04-30T07:29:29Z</time>
      </trkpt>
      <trkpt lat="48.41932" lon="2.0696">
        <ele>137</ele>
        <time>2011-04-30T07:29:30Z</time>
      </trkpt>
      <trkpt lat="48.4193" lon="2.06959">
        <ele>137</ele>
        <time>2011-04-30T07:29:31Z</time>
      </trkpt>
      <trkpt lat="48.41928" lon="2.06958">
        <ele>137</ele>
        <time>2011-04-30T07:29:32Z</time>
      </trkpt>
      <trkpt lat="48.41926" lon="2.06957">
        <ele>137</ele>
        <time>2011-04-30T07:29:33Z</time>
      </trkpt>
      <trkpt lat="48.41924" lon="2.06956">
        <ele>137</ele>
        <time>2011-04-30T07:29:34Z</time>
      </trkpt>
      <trkpt lat="48.41922" lon="2.06955">
        <ele>137</ele>
        <time>2011-04-30T07:29:35Z</time>
      </trkpt>
      <trkpt lat="48.4192" lon="2.06954">
        <ele>137</ele>
        <time>2011-04-30T07:29:36Z</time>
      </trkpt>
      <trkpt lat="48.41918" lon="2.06953">
        <ele>137</ele>
        <time>2011-04-30T07:29:37Z</time>
      </trkpt>
      <trkpt lat="48.41916" lon="2.06952">
        <ele>139</ele>
        <time>2011-04-30T07:29:38Z</time>
      </trkpt>
      <trkpt lat="48.41914" lon="2.0695">
        <ele>139</ele>
        <time>2011-04-30T07:29:39Z</time>
      </trkpt>
      <trkpt lat="48.41912" lon="2.06949">
        <ele>139</ele>
        <time>2011-04-30T07:29:40Z</time>
      </trkpt>
      <trkpt lat="48.4191" lon="2.06948">
        <ele>139</ele>
        <time>2011-04-30T07:29:41Z</time>
      </trkpt>
      <trkpt lat="48.41908" lon="2.06947">
        <ele>139</ele>
        <time>2011-04-30T07:29:42Z</time>
      </trkpt>
      <trkpt lat="48.41906" lon="2.06946">
        <ele>139</ele>
        <time>2011-04-30T07:29:43Z</time>
      </trkpt>
      <trkpt lat="48.41904" lon="2.06945">
        <ele>139</ele>
        <time>2011-04-30T07:29:44Z</time>
      </trkpt>
      <trkpt lat="48.41902" lon="2.06944">
        <ele>139</ele>
        <time>2011-04-30T07:29:45Z</time>
      </trkpt>
      <trkpt lat="48.419" lon="2.06943">
        <ele>139</ele>
        <time>2011-04-30T07:29:46Z</time>
      </trkpt>
      <trkpt lat="48.41898" lon="2.06942">
        <ele>139</ele>
        <time>2011-04-30T07:29:47Z</time>
      </trkpt>
      <trkpt lat="48.41896" lon="2.06941">
        <ele>139</ele>
        <time>2011-04-30T07:29:48Z</time>
      </trkpt>
      <trkpt lat="48.41894" lon="2.06939">
        <ele>139</ele>
        <time>2011-04-30T07:29:49Z</time>
      </trkpt>
      <trkpt lat="48.41892" lon="2.06938">
        <ele>140</ele>
        <time>2011-04-30T07:29:50Z</time>
      </trkpt>
      <trkpt lat="48.4189" lon="2.06937">
        <ele>140</ele>
        <time>2011-04-30T07:29:51Z</time>
      </trkpt>
      <trkpt lat="48.41888" lon="2.06935">
        <ele>140</ele>
        <time>2011-04-30T07:29:52Z</time>
      </trkpt>
      <trkpt lat="48.41886" lon="2.06934">
        <ele>140</ele>
        <time>2011-04-30T07:29:53Z</time>
      </trkpt>
      <trkpt lat="48.41884" lon="2.06932">
        <ele>140</ele>
        <time>2011-04-30T07:29:54Z</time>
      </trkpt>
      <trkpt lat="48.41882" lon="2.0693">
        <ele>140</ele>
        <time>2011-04-30T07:29:55Z</time>
      </trkpt>
      <trkpt lat="48.4188" lon="2.06929">
        <ele>140</ele>
        <time>2011-04-30T07:29:56Z</time>
      </trkpt>
      <trkpt lat="48.41878" lon="2.06927">
        <ele>140</ele>
        <time>2011-04-30T07:29:57Z</time>
      </trkpt>
      <trkpt lat="48.41876" lon="2.06926">
        <ele>140</ele>
        <time>2011-04-30T07:29:58Z</time>
      </trkpt>
      <trkpt lat="48.41874" lon="2.06924">
        <ele>140</ele>
        <time>2011-04-30T07:29:59Z</time>
      </trkpt>
      <trkpt lat="48.41872" lon="2.06922">
        <ele>140</ele>
        <time>2011-04-30T07:30:00Z</time>
      </trkpt>
      <trkpt lat="48.4187" lon="2.06921">
        <ele>140</ele>
        <time>2011-04-30T07:30:01Z</time>
      </trkpt>
      <trkpt lat="48.41868" lon="2.06919">
        <ele>140</ele>
        <time>2011-04-30T07:30:02Z</time>
      </trkpt>
      <trkpt lat="48.41866" lon="2.06917">
        <ele>140</ele>
        <time>2011-04-30T07:30:03Z</time>
      </trkpt>
      <trkpt lat="48.41863" lon="2.06915">
        <ele>139</ele>
        <time>2011-04-30T07:30:04Z</time>
      </trkpt>
      <trkpt lat="48.41861" lon="2.06914">
        <ele>140</ele>
        <time>2011-04-30T07:30:05Z</time>
      </trkpt>
      <trkpt lat="48.41859" lon="2.06912">
        <ele>140</ele>
        <time>2011-04-30T07:30:06Z</time>
      </trkpt>
      <trkpt lat="48.41857" lon="2.0691">
        <ele>140</ele>
        <time>2011-04-30T07:30:07Z</time>
      </trkpt>
      <trkpt lat="48.41855" lon="2.06908">
        <ele>140</ele>
        <time>2011-04-30T07:30:08Z</time>
      </trkpt>
      <trkpt lat="48.41852" lon="2.06906">
        <ele>140</ele>
        <time>2011-04-30T07:30:09Z</time>
      </trkpt>
      <trkpt lat="48.4185" lon="2.06904">
        <ele>140</ele>
        <time>2011-04-30T07:30:10Z</time>
      </trkpt>
      <trkpt lat="48.41848" lon="2.06902">
        <ele>140</ele>
        <time>2011-04-30T07:30:11Z</time>
      </trkpt>
      <trkpt lat="48.41846" lon="2.069">
        <ele>140</ele>
        <time>2011-04-30T07:30:12Z</time>
      </trkpt>
      <trkpt lat="48.41844" lon="2.06898">
        <ele>140</ele>
        <time>2011-04-30T07:30:13Z</time>
      </trkpt>
      <trkpt lat="48.41842" lon="2.06897">
        <ele>140</ele>
        <time>2011-04-30T07:30:14Z</time>
      </trkpt>
      <trkpt lat="48.4184" lon="2.06895">
        <ele>140</ele>
        <time>2011-04-30T07:30:15Z</time>
      </trkpt>
      <trkpt lat="48.41839" lon="2.06893">
        <ele>140</ele>
        <time>2011-04-30T07:30:16Z</time>
      </trkpt>
      <trkpt lat="48.41837" lon="2.06892">
        <ele>140</ele>
        <time>2011-04-30T07:30:17Z</time>
      </trkpt>
      <trkpt lat="48.41835" lon="2.0689">
        <ele>140</ele>
        <time>2011-04-30T07:30:18Z</time>
      </trkpt>
      <trkpt lat="48.41834" lon="2.06888">
        <ele>140</ele>
        <time>2011-04-30T07:30:19Z</time>
      </trkpt>
      <trkpt lat="48.41832" lon="2.06887">
        <ele>141</ele>
        <time>2011-04-30T07:30:20Z</time>
      </trkpt>
      <trkpt lat="48.4183" lon="2.06885">
        <ele>141</ele>
        <time>2011-04-30T07:30:21Z</time>
      </trkpt>
      <trkpt lat="48.41829" lon="2.06883">
        <ele>141</ele>
        <time>2011-04-30T07:30:22Z</time>
      </trkpt>
      <trkpt lat="48.41827" lon="2.06881">
        <ele>141</ele>
        <time>2011-04-30T07:30:23Z</time>
      </trkpt>
      <trkpt lat="48.41826" lon="2.06879">
        <ele>141</ele>
        <time>2011-04-30T07:30:24Z</time>
      </trkpt>
      <trkpt lat="48.41824" lon="2.06877">
        <ele>141</ele>
        <time>2011-04-30T07:30:25Z</time>
      </trkpt>
      <trkpt lat="48.41822" lon="2.06875">
        <ele>141</ele>
        <time>2011-04-30T07:30:26Z</time>
      </trkpt>
      <trkpt lat="48.41821" lon="2.06873">
        <ele>141</ele>
        <time>2011-04-30T07:30:27Z</time>
      </trkpt>
      <trkpt lat="48.41819" lon="2.06871">
        <ele>141</ele>
        <time>2011-04-30T07:30:28Z</time>
      </trkpt>
      <trkpt lat="48.41817" lon="2.06869">
        <ele>141</ele>
        <time>2011-04-30T07:30:29Z</time>
      </trkpt>
      <trkpt lat="48.41816" lon="2.06867">
        <ele>141</ele>
        <time>2011-04-30T07:30:30Z</time>
      </trkpt>
      <trkpt lat="48.41814" lon="2.06865">
        <ele>141</ele>
        <time>2011-04-30T07:30:31Z</time>
      </trkpt>
      <trkpt lat="48.41813" lon="2.06863">
        <ele>141</ele>
        <time>2011-04-30T07:30:32Z</time>
      </trkpt>
      <trkpt lat="48.41811" lon="2.06861">
        <ele>141</ele>
        <time>2011-04-30T07:30:33Z</time>
      </trkpt>
      <trkpt lat="48.4181" lon="2.06859">
        <ele>141</ele>
        <time>2011-04-30T07:30:34Z</time>
      </trkpt>
      <trkpt lat="48.41808" lon="2.06857">
        <ele>141</ele>
        <time>2011-04-30T07:30:35Z</time>
      </trkpt>
      <trkpt lat="48.41806" lon="2.06854">
        <ele>141</ele>
        <time>2011-04-30T07:30:36Z</time>
      </trkpt>
      <trkpt lat="48.41805" lon="2.06852">
        <ele>141</ele>
        <time>2011-04-30T07:30:37Z</time>
      </trkpt>
      <trkpt lat="48.41803" lon="2.0685">
        <ele>141</ele>
        <time>2011-04-30T07:30:38Z</time>
      </trkpt>
      <trkpt lat="48.41802" lon="2.06847">
        <ele>141</ele>
        <time>2011-04-30T07:30:39Z</time>
      </trkpt>
      <trkpt lat="48.418" lon="2.06845">
        <ele>141</ele>
        <time>2011-04-30T07:30:40Z</time>
      </trkpt>
      <trkpt lat="48.41798" lon="2.06843">
        <ele>141</ele>
        <time>2011-04-30T07:30:41Z</time>
      </trkpt>
      <trkpt lat="48.41797" lon="2.0684">
        <ele>141</ele>
        <time>2011-04-30T07:30:42Z</time>
      </trkpt>
      <trkpt lat="48.41795" lon="2.06838">
        <ele>141</ele>
        <time>2011-04-30T07:30:43Z</time>
      </trkpt>
      <trkpt lat="48.41793" lon="2.06835">
        <ele>141</ele>
        <time>2011-04-30T07:30:44Z</time>
      </trkpt>
      <trkpt lat="48.41791" lon="2.06833">
        <ele>140</ele>
        <time>2011-04-30T07:30:45Z</time>
      </trkpt>
      <trkpt lat="48.41789" lon="2.0683">
        <ele>140</ele>
        <time>2011-04-30T07:30:46Z</time>
      </trkpt>
      <trkpt lat="48.41788" lon="2.06828">
        <ele>140</ele>
        <time>2011-04-30T07:30:47Z</time>
      </trkpt>
      <trkpt lat="48.41786" lon="2.06825">
        <ele>140</ele>
        <time>2011-04-30T07:30:48Z</time>
      </trkpt>
      <trkpt lat="48.41784" lon="2.06823">
        <ele>140</ele>
        <time>2011-04-30T07:30:49Z</time>
      </trkpt>
      <trkpt lat="48.41782" lon="2.0682">
        <ele>140</ele>
        <time>2011-04-30T07:30:50Z</time>
      </trkpt>
      <trkpt lat="48.4178" lon="2.06818">
        <ele>141</ele>
        <time>2011-04-30T07:30:51Z</time>
      </trkpt>
      <trkpt lat="48.41779" lon="2.06816">
        <ele>141</ele>
        <time>2011-04-30T07:30:52Z</time>
      </trkpt>
      <trkpt lat="48.41777" lon="2.06814">
        <ele>141</ele>
        <time>2011-04-30T07:30:53Z</time>
      </trkpt>
      <trkpt lat="48.41775" lon="2.06811">
        <ele>141</ele>
        <time>2011-04-30T07:30:54Z</time>
      </trkpt>
      <trkpt lat="48.41773" lon="2.06809">
        <ele>141</ele>
        <time>2011-04-30T07:30:55Z</time>
      </trkpt>
      <trkpt lat="48.41772" lon="2.06807">
        <ele>141</ele>
        <time>2011-04-30T07:30:56Z</time>
      </trkpt>
      <trkpt lat="48.4177" lon="2.06805">
        <ele>141</ele>
        <time>2011-04-30T07:30:57Z</time>
      </trkpt>
      <trkpt lat="48.41768" lon="2.06802">
        <ele>141</ele>
        <time>2011-04-30T07:30:58Z</time>
      </trkpt>
      <trkpt lat="48.41767" lon="2.068">
        <ele>141</ele>
        <time>2011-04-30T07:30:59Z</time>
      </trkpt>
      <trkpt lat="48.41765" lon="2.06798">
        <ele>141</ele>
        <time>2011-04-30T07:31:00Z</time>
      </trkpt>
      <trkpt lat="48.41763" lon="2.06796">
        <ele>140</ele>
        <time>2011-04-30T07:31:01Z</time>
      </trkpt>
      <trkpt lat="48.41762" lon="2.06794">
        <ele>140</ele>
        <time>2011-04-30T07:31:02Z</time>
      </trkpt>
      <trkpt lat="48.4176" lon="2.06792">
        <ele>140</ele>
        <time>2011-04-30T07:31:03Z</time>
      </trkpt>
      <trkpt lat="48.41758" lon="2.06789">
        <ele>140</ele>
        <time>2011-04-30T07:31:04Z</time>
      </trkpt>
      <trkpt lat="48.41757" lon="2.06787">
        <ele>140</ele>
        <time>2011-04-30T07:31:05Z</time>
      </trkpt>
      <trkpt lat="48.41755" lon="2.06785">
        <ele>140</ele>
        <time>2011-04-30T07:31:06Z</time>
      </trkpt>
      <trkpt lat="48.41753" lon="2.06783">
        <ele>140</ele>
        <time>2011-04-30T07:31:07Z</time>
      </trkpt>
      <trkpt lat="48.41752" lon="2.06781">
        <ele>140</ele>
        <time>2011-04-30T07:31:08Z</time>
      </trkpt>
      <trkpt lat="48.4175" lon="2.06778">
        <ele>142</ele>
        <time>2011-04-30T07:31:09Z</time>
      </trkpt>
      <trkpt lat="48.41748" lon="2.06776">
        <ele>142</ele>
        <time>2011-04-30T07:31:10Z</time>
      </trkpt>
      <trkpt lat="48.41746" lon="2.06774">
        <ele>142</ele>
        <time>2011-04-30T07:31:11Z</time>
      </trkpt>
      <trkpt lat="48.41744" lon="2.06772">
        <ele>142</ele>
        <time>2011-04-30T07:31:12Z</time>
      </trkpt>
      <trkpt lat="48.41742" lon="2.0677">
        <ele>142</ele>
        <time>2011-04-30T07:31:13Z</time>
      </trkpt>
      <trkpt lat="48.4174" lon="2.06768">
        <ele>142</ele>
        <time>2011-04-30T07:31:14Z</time>
      </trkpt>
      <trkpt lat="48.41739" lon="2.06766">
        <ele>142</ele>
        <time>2011-04-30T07:31:15Z</time>
      </trkpt>
      <trkpt lat="48.41737" lon="2.06764">
        <ele>142</ele>
        <time>2011-04-30T07:31:16Z</time>
      </trkpt>
      <trkpt lat="48.41735" lon="2.06762">
        <ele>142</ele>
        <time>2011-04-30T07:31:17Z</time>
      </trkpt>
      <trkpt lat="48.41733" lon="2.06759">
        <ele>142</ele>
        <time>2011-04-30T07:31:18Z</time>
      </trkpt>
      <trkpt lat="48.41731" lon="2.06757">
        <ele>142</ele>
        <time>2011-04-30T07:31:19Z</time>
      </trkpt>
      <trkpt lat="48.41729" lon="2.06755">
        <ele>142</ele>
        <time>2011-04-30T07:31:20Z</time>
      </trkpt>
      <trkpt lat="48.41727" lon="2.06753">
        <ele>142</ele>
        <time>2011-04-30T07:31:21Z</time>
      </trkpt>
      <trkpt lat="48.41725" lon="2.06751">
        <ele>142</ele>
        <time>2011-04-30T07:31:22Z</time>
      </trkpt>
      <trkpt lat="48.41724" lon="2.0675">
        <ele>141</ele>
        <time>2011-04-30T07:31:23Z</time>
      </trkpt>
      <trkpt lat="48.41722" lon="2.06748">
        <ele>141</ele>
        <time>2011-04-30T07:31:24Z</time>
      </trkpt>
      <trkpt lat="48.4172" lon="2.06746">
        <ele>141</ele>
        <time>2011-04-30T07:31:25Z</time>
      </trkpt>
      <trkpt lat="48.41718" lon="2.06744">
        <ele>141</ele>
        <time>2011-04-30T07:31:26Z</time>
      </trkpt>
      <trkpt lat="48.41716" lon="2.06742">
        <ele>141</ele>
        <time>2011-04-30T07:31:27Z</time>
      </trkpt>
      <trkpt lat="48.41715" lon="2.0674">
        <ele>141</ele>
        <time>2011-04-30T07:31:28Z</time>
      </trkpt>
      <trkpt lat="48.41713" lon="2.06739">
        <ele>141</ele>
        <time>2011-04-30T07:31:29Z</time>
      </trkpt>
      <trkpt lat="48.41711" lon="2.06737">
        <ele>141</ele>
        <time>2011-04-30T07:31:30Z</time>
      </trkpt>
      <trkpt lat="48.41709" lon="2.06735">
        <ele>141</ele>
        <time>2011-04-30T07:31:31Z</time>
      </trkpt>
      <trkpt lat="48.41708" lon="2.06733">
        <ele>141</ele>
        <time>2011-04-30T07:31:32Z</time>
      </trkpt>
      <trkpt lat="48.41706" lon="2.06731">
        <ele>141</ele>
        <time>2011-04-30T07:31:33Z</time>
      </trkpt>
      <trkpt lat="48.41704" lon="2.06729">
        <ele>141</ele>
        <time>2011-04-30T07:31:34Z</time>
      </trkpt>
      <trkpt lat="48.41702" lon="2.06728">
        <ele>141</ele>
        <time>2011-04-30T07:31:35Z</time>
      </trkpt>
      <trkpt lat="48.417" lon="2.06726">
        <ele>142</ele>
        <time>2011-04-30T07:31:36Z</time>
      </trkpt>
      <trkpt lat="48.41698" lon="2.06724">
        <ele>142</ele>
        <time>2011-04-30T07:31:37Z</time>
      </trkpt>
      <trkpt lat="48.41696" lon="2.06722">
        <ele>142</ele>
        <time>2011-04-30T07:31:38Z</time>
      </trkpt>
      <trkpt lat="48.41695" lon="2.0672">
        <ele>142</ele>
        <time>2011-04-30T07:31:39Z</time>
      </trkpt>
      <trkpt lat="48.41693" lon="2.06719">
        <ele>142</ele>
        <time>2011-04-30T07:31:40Z</time>
      </trkpt>
      <trkpt lat="48.41691" lon="2.06717">
        <ele>142</ele>
        <time>2011-04-30T07:31:41Z</time>
      </trkpt>
      <trkpt lat="48.41689" lon="2.06715">
        <ele>142</ele>
        <time>2011-04-30T07:31:42Z</time>
      </trkpt>
      <trkpt lat="48.41687" lon="2.06713">
        <ele>141</ele>
        <time>2011-04-30T07:31:43Z</time>
      </trkpt>
      <trkpt lat="48.41685" lon="2.06711">
        <ele>141</ele>
        <time>2011-04-30T07:31:44Z</time>
      </trkpt>
      <trkpt lat="48.41683" lon="2.06709">
        <ele>141</ele>
        <time>2011-04-30T07:31:45Z</time>
      </trkpt>
      <trkpt lat="48.41681" lon="2.06708">
        <ele>141</ele>
        <time>2011-04-30T07:31:46Z</time>
      </trkpt>
      <trkpt lat="48.41679" lon="2.06706">
        <ele>141</ele>
        <time>2011-04-30T07:31:47Z</time>
      </trkpt>
      <trkpt lat="48.41677" lon="2.06704">
        <ele>141</ele>
        <time>2011-04-30T07:31:48Z</time>
      </trkpt>
      <trkpt lat="48.41675" lon="2.06702">
        <ele>141</ele>
        <time>2011-04-30T07:31:49Z</time>
      </trkpt>
      <trkpt lat="48.41673" lon="2.06701">
        <ele>141</ele>
        <time>2011-04-30T07:31:50Z</time>
      </trkpt>
      <trkpt lat="48.41671" lon="2.06699">
        <ele>141</ele>
        <time>2011-04-30T07:31:51Z</time>
      </trkpt>
      <trkpt lat="48.41669" lon="2.06697">
        <ele>141</ele>
        <time>2011-04-30T07:31:52Z</time>
      </trkpt>
      <trkpt lat="48.41667" lon="2.06695">
        <ele>141</ele>
        <time>2011-04-30T07:31:53Z</time>
      </trkpt>
      <trkpt lat="48.41665" lon="2.06694">
        <ele>142</ele>
        <time>2011-04-30T07:31:54Z</time>
      </trkpt>
      <trkpt lat="48.41663" lon="2.06692">
        <ele>142</ele>
        <time>2011-04-30T07:31:55Z</time>
      </trkpt>
      <trkpt lat="48.41661" lon="2.06691">
        <ele>142</ele>
        <time>2011-04-30T07:31:56Z</time>
      </trkpt>
      <trkpt lat="48.41659" lon="2.06689">
        <ele>142</ele>
        <time>2011-04-30T07:31:57Z</time>
      </trkpt>
      <trkpt lat="48.41657" lon="2.06688">
        <ele>142</ele>
        <time>2011-04-30T07:31:58Z</time>
      </trkpt>
      <trkpt lat="48.41655" lon="2.06686">
        <ele>142</ele>
        <time>2011-04-30T07:31:59Z</time>
      </trkpt>
      <trkpt lat="48.41653" lon="2.06685">
        <ele>142</ele>
        <time>2011-04-30T07:32:00Z</time>
      </trkpt>
      <trkpt lat="48.41651" lon="2.06684">
        <ele>142</ele>
        <time>2011-04-30T07:32:01Z</time>
      </trkpt>
      <trkpt lat="48.41649" lon="2.06682">
        <ele>142</ele>
        <time>2011-04-30T07:32:02Z</time>
      </trkpt>
      <trkpt lat="48.41647" lon="2.0668">
        <ele>142</ele>
        <time>2011-04-30T07:32:03Z</time>
      </trkpt>
      <trkpt lat="48.41644" lon="2.06679">
        <ele>142</ele>
        <time>2011-04-30T07:32:04Z</time>
      </trkpt>
      <trkpt lat="48.41642" lon="2.06677">
        <ele>142</ele>
        <time>2011-04-30T07:32:05Z</time>
      </trkpt>
      <trkpt lat="48.4164" lon="2.06676">
        <ele>142</ele>
        <time>2011-04-30T07:32:06Z</time>
      </trkpt>
      <trkpt lat="48.41638" lon="2.06675">
        <ele>142</ele>
        <time>2011-04-30T07:32:07Z</time>
      </trkpt>
      <trkpt lat="48.41636" lon="2.06673">
        <ele>142</ele>
        <time>2011-04-30T07:32:08Z</time>
      </trkpt>
      <trkpt lat="48.41634" lon="2.06672">
        <ele>142</ele>
        <time>2011-04-30T07:32:09Z</time>
      </trkpt>
      <trkpt lat="48.41632" lon="2.06671">
        <ele>142</ele>
        <time>2011-04-30T07:32:10Z</time>
      </trkpt>
      <trkpt lat="48.41629" lon="2.0667">
        <ele>142</ele>
        <time>2011-04-30T07:32:11Z</time>
      </trkpt>
      <trkpt lat="48.41627" lon="2.06669">
        <ele>142</ele>
        <time>2011-04-30T07:32:12Z</time>
      </trkpt>
      <trkpt lat="48.41625" lon="2.06668">
        <ele>142</ele>
        <time>2011-04-30T07:32:13Z</time>
      </trkpt>
      <trkpt lat="48.41623" lon="2.06667">
        <ele>142</ele>
        <time>2011-04-30T07:32:14Z</time>
      </trkpt>
      <trkpt lat="48.4162" lon="2.06667">
        <ele>142</ele>
        <time>2011-04-30T07:32:15Z</time>
      </trkpt>
      <trkpt lat="48.41618" lon="2.06666">
        <ele>142</ele>
        <time>2011-04-30T07:32:16Z</time>
      </trkpt>
      <trkpt lat="48.41616" lon="2.06665">
        <ele>142</ele>
        <time>2011-04-30T07:32:17Z</time>
      </trkpt>
      <trkpt lat="48.41613" lon="2.06664">
        <ele>142</ele>
        <time>2011-04-30T07:32:18Z</time>
      </trkpt>
      <trkpt lat="48.41611" lon="2.06663">
        <ele>142</ele>
        <time>2011-04-30T07:32:19Z</time>
      </trkpt>
      <trkpt lat="48.41609" lon="2.06663">
        <ele>142</ele>
        <time>2011-04-30T07:32:20Z</time>
      </trkpt>
      <trkpt lat="48.41606" lon="2.06662">
        <ele>142</ele>
        <time>2011-04-30T07:32:21Z</time>
      </trkpt>
      <trkpt lat="48.41604" lon="2.06661">
        <ele>142</ele>
        <time>2011-04-30T07:32:22Z</time>
      </trkpt>
      <trkpt lat="48.41602" lon="2.0666">
        <ele>142</ele>
        <time>2011-04-30T07:32:23Z</time>
      </trkpt>
      <trkpt lat="48.41599" lon="2.0666">
        <ele>142</ele>
        <time>2011-04-30T07:32:24Z</time>
      </trkpt>
      <trkpt lat="48.41597" lon="2.06659">
        <ele>142</ele>
        <time>2011-04-30T07:32:25Z</time>
      </trkpt>
      <trkpt lat="48.41594" lon="2.06658">
        <ele>142</ele>
        <time>2011-04-30T07:32:26Z</time>
      </trkpt>
      <trkpt lat="48.41592" lon="2.06658">
        <ele>142</ele>
        <time>2011-04-30T07:32:27Z</time>
      </trkpt>
      <trkpt lat="48.41589" lon="2.06657">
        <ele>142</ele>
        <time>2011-04-30T07:32:28Z</time>
      </trkpt>
      <trkpt lat="48.41587" lon="2.06657">
        <ele>142</ele>
        <time>2011-04-30T07:32:29Z</time>
      </trkpt>
      <trkpt lat="48.41585" lon="2.06657">
        <ele>142</ele>
        <time>2011-04-30T07:32:30Z</time>
      </trkpt>
      <trkpt lat="48.41582" lon="2.06657">
        <ele>143</ele>
        <time>2011-04-30T07:32:31Z</time>
      </trkpt>
      <trkpt lat="48.4158" lon="2.06656">
        <ele>143</ele>
        <time>2011-04-30T07:32:32Z</time>
      </trkpt>
      <trkpt lat="48.41578" lon="2.06656">
        <ele>143</ele>
        <time>2011-04-30T07:32:33Z</time>
      </trkpt>
      <trkpt lat="48.41576" lon="2.06656">
        <ele>142</ele>
        <time>2011-04-30T07:32:34Z</time>
      </trkpt>
      <trkpt lat="48.41573" lon="2.06656">
        <ele>142</ele>
        <time>2011-04-30T07:32:35Z</time>
      </trkpt>
      <trkpt lat="48.41571" lon="2.06655">
        <ele>142</ele>
        <time>2011-04-30T07:32:36Z</time>
      </trkpt>
      <trkpt lat="48.41569" lon="2.06655">
        <ele>142</ele>
        <time>2011-04-30T07:32:37Z</time>
      </trkpt>
      <trkpt lat="48.41567" lon="2.06654">
        <ele>142</ele>
        <time>2011-04-30T07:32:38Z</time>
      </trkpt>
      <trkpt lat="48.41564" lon="2.06654">
        <ele>142</ele>
        <time>2011-04-30T07:32:39Z</time>
      </trkpt>
      <trkpt lat="48.41562" lon="2.06653">
        <ele>142</ele>
        <time>2011-04-30T07:32:40Z</time>
      </trkpt>
      <trkpt lat="48.4156" lon="2.06653">
        <ele>142</ele>
        <time>2011-04-30T07:32:41Z</time>
      </trkpt>
      <trkpt lat="48.41558" lon="2.06653">
        <ele>142</ele>
        <time>2011-04-30T07:32:42Z</time>
      </trkpt>
      <trkpt lat="48.41555" lon="2.06652">
        <ele>142</ele>
        <time>2011-04-30T07:32:43Z</time>
      </trkpt>
      <trkpt lat="48.41553" lon="2.06652">
        <ele>142</ele>
        <time>2011-04-30T07:32:44Z</time>
      </trkpt>
      <trkpt lat="48.41551" lon="2.06651">
        <ele>142</ele>
        <time>2011-04-30T07:32:45Z</time>
      </trkpt>
      <trkpt lat="48.41548" lon="2.06651">
        <ele>142</ele>
        <time>2011-04-30T07:32:46Z</time>
      </trkpt>
      <trkpt lat="48.41546" lon="2.0665">
        <ele>142</ele>
        <time>2011-04-30T07:32:47Z</time>
      </trkpt>
      <trkpt lat="48.41544" lon="2.0665">
        <ele>142</ele>
        <time>2011-04-30T07:32:48Z</time>
      </trkpt>
      <trkpt lat="48.41542" lon="2.06649">
        <ele>142</ele>
        <time>2011-04-30T07:32:49Z</time>
      </trkpt>
      <trkpt lat="48.4154" lon="2.06648">
        <ele>142</ele>
        <time>2011-04-30T07:32:50Z</time>
      </trkpt>
      <trkpt lat="48.41537" lon="2.06648">
        <ele>142</ele>
        <time>2011-04-30T07:32:51Z</time>
      </trkpt>
      <trkpt lat="48.41535" lon="2.06647">
        <ele>142</ele>
        <time>2011-04-30T07:32:52Z</time>
      </trkpt>
      <trkpt lat="48.41533" lon="2.06646">
        <ele>142</ele>
        <time>2011-04-30T07:32:53Z</time>
      </trkpt>
      <trkpt lat="48.41531" lon="2.06646">
        <ele>142</ele>
        <time>2011-04-30T07:32:54Z</time>
      </trkpt>
      <trkpt lat="48.41529" lon="2.06645">
        <ele>142</ele>
        <time>2011-04-30T07:32:55Z</time>
      </trkpt>
      <trkpt lat="48.41526" lon="2.06644">
        <ele>142</ele>
        <time>2011-04-30T07:32:56Z</time>
      </trkpt>
      <trkpt lat="48.41524" lon="2.06644">
        <ele>142</ele>
        <time>2011-04-30T07:32:57Z</time>
      </trkpt>
      <trkpt lat="48.41522" lon="2.06643">
        <ele>142</ele>
        <time>2011-04-30T07:32:58Z</time>
      </trkpt>
      <trkpt lat="48.4152" lon="2.06642">
        <ele>142</ele>
        <time>2011-04-30T07:32:59Z</time>
      </trkpt>
      <trkpt lat="48.41518" lon="2.06641">
        <ele>142</ele>
        <time>2011-04-30T07:33:00Z</time>
      </trkpt>
      <trkpt lat="48.41515" lon="2.06641">
        <ele>142</ele>
        <time>2011-04-30T07:33:01Z</time>
      </trkpt>
      <trkpt lat="48.41513" lon="2.0664">
        <ele>142</ele>
        <time>2011-04-30T07:33:02Z</time>
      </trkpt>
      <trkpt lat="48.41511" lon="2.06639">
        <ele>142</ele>
        <time>2011-04-30T07:33:03Z</time>
      </trkpt>
      <trkpt lat="48.41509" lon="2.06638">
        <ele>142</ele>
        <time>2011-04-30T07:33:04Z</time>
      </trkpt>
      <trkpt lat="48.41507" lon="2.06637">
        <ele>142</ele>
        <time>2011-04-30T07:33:05Z</time>
      </trkpt>
      <trkpt lat="48.41504" lon="2.06637">
        <ele>142</ele>
        <time>2011-04-30T07:33:06Z</time>
      </trkpt>
      <trkpt lat="48.41502" lon="2.06636">
        <ele>142</ele>
        <time>2011-04-30T07:33:07Z</time>
      </trkpt>
      <trkpt lat="48.415" lon="2.06635">
        <ele>142</ele>
        <time>2011-04-30T07:33:08Z</time>
      </trkpt>
      <trkpt lat="48.41498" lon="2.06634">
        <ele>142</ele>
        <time>2011-04-30T07:33:09Z</time>
      </trkpt>
      <trkpt lat="48.41496" lon="2.06634">
        <ele>142</ele>
        <time>2011-04-30T07:33:10Z</time>
      </trkpt>
      <trkpt lat="48.41494" lon="2.06633">
        <ele>142</ele>
        <time>2011-04-30T07:33:11Z</time>
      </trkpt>
      <trkpt lat="48.41492" lon="2.06632">
        <ele>142</ele>
        <time>2011-04-30T07:33:12Z</time>
      </trkpt>
      <trkpt lat="48.4149" lon="2.06631">
        <ele>142</ele>
        <time>2011-04-30T07:33:13Z</time>
      </trkpt>
      <trkpt lat="48.41488" lon="2.0663">
        <ele>142</ele>
        <time>2011-04-30T07:33:14Z</time>
      </trkpt>
      <trkpt lat="48.41486" lon="2.06629">
        <ele>142</ele>
        <time>2011-04-30T07:33:15Z</time>
      </trkpt>
      <trkpt lat="48.41483" lon="2.06628">
        <ele>142</ele>
        <time>2011-04-30T07:33:16Z</time>
      </trkpt>
      <trkpt lat="48.41481" lon="2.06627">
        <ele>142</ele>
        <time>2011-04-30T07:33:17Z</time>
      </trkpt>
      <trkpt lat="48.41479" lon="2.06626">
        <ele>142</ele>
        <time>2011-04-30T07:33:18Z</time>
      </trkpt>
      <trkpt lat="48.41477" lon="2.06625">
        <ele>142</ele>
        <time>2011-04-30T07:33:19Z</time>
      </trkpt>
      <trkpt lat="48.41475" lon="2.06624">
        <ele>142</ele>
        <time>2011-04-30T07:33:20Z</time>
      </trkpt>
      <trkpt lat="48.41473" lon="2.06623">
        <ele>142</ele>
        <time>2011-04-30T07:33:21Z</time>
      </trkpt>
      <trkpt lat="48.41471" lon="2.06622">
        <ele>142</ele>
        <time>2011-04-30T07:33:22Z</time>
      </trkpt>
      <trkpt lat="48.41468" lon="2.06621">
        <ele>142</ele>
        <time>2011-04-30T07:33:23Z</time>
      </trkpt>
      <trkpt lat="48.41466" lon="2.0662">
        <ele>142</ele>
        <time>2011-04-30T07:33:24Z</time>
      </trkpt>
      <trkpt lat="48.41464" lon="2.06619">
        <ele>142</ele>
        <time>2011-04-30T07:33:25Z</time>
      </trkpt>
      <trkpt lat="48.41462" lon="2.06618">
        <ele>142</ele>
        <time>2011-04-30T07:33:26Z</time>
      </trkpt>
      <trkpt lat="48.4146" lon="2.06617">
        <ele>142</ele>
        <time>2011-04-30T07:33:27Z</time>
      </trkpt>
      <trkpt lat="48.41458" lon="2.06616">
        <ele>142</ele>
        <time>2011-04-30T07:33:28Z</time>
      </trkpt>
      <trkpt lat="48.41456" lon="2.06615">
        <ele>142</ele>
        <time>2011-04-30T07:33:29Z</time>
      </trkpt>
      <trkpt lat="48.41454" lon="2.06614">
        <ele>142</ele>
        <time>2011-04-30T07:33:30Z</time>
      </trkpt>
      <trkpt lat="48.41452" lon="2.06613">
        <ele>142</ele>
        <time>2011-04-30T07:33:31Z</time>
      </trkpt>
      <trkpt lat="48.4145" lon="2.06611">
        <ele>142</ele>
        <time>2011-04-30T07:33:32Z</time>
      </trkpt>
      <trkpt lat="48.41448" lon="2.0661">
        <ele>142</ele>
        <time>2011-04-30T07:33:33Z</time>
      </trkpt>
      <trkpt lat="48.41445" lon="2.06609">
        <ele>142</ele>
        <time>2011-04-30T07:33:34Z</time>
      </trkpt>
      <trkpt lat="48.41443" lon="2.06608">
        <ele>142</ele>
        <time>2011-04-30T07:33:35Z</time>
      </trkpt>
      <trkpt lat="48.41441" lon="2.06607">
        <ele>142</ele>
        <time>2011-04-30T07:33:36Z</time>
      </trkpt>
      <trkpt lat="48.41439" lon="2.06606">
        <ele>142</ele>
        <time>2011-04-30T07:33:37Z</time>
      </trkpt>
      <trkpt lat="48.41437" lon="2.06604">
        <ele>142</ele>
        <time>2011-04-30T07:33:38Z</time>
      </trkpt>
      <trkpt lat="48.41435" lon="2.06603">
        <ele>142</ele>
        <time>2011-04-30T07:33:39Z</time>
      </trkpt>
      <trkpt lat="48.41432" lon="2.06602">
        <ele>142</ele>
        <time>2011-04-30T07:33:40Z</time>
      </trkpt>
      <trkpt lat="48.4143" lon="2.06601">
        <ele>142</ele>
        <time>2011-04-30T07:33:41Z</time>
      </trkpt>
      <trkpt lat="48.41428" lon="2.066">
        <ele>142</ele>
        <time>2011-04-30T07:33:42Z</time>
      </trkpt>
      <trkpt lat="48.41426" lon="2.06598">
        <ele>142</ele>
        <time>2011-04-30T07:33:43Z</time>
      </trkpt>
      <trkpt lat="48.41424" lon="2.06597">
        <ele>142</ele>
        <time>2011-04-30T07:33:44Z</time>
      </trkpt>
      <trkpt lat="48.41422" lon="2.06596">
        <ele>142</ele>
        <time>2011-04-30T07:33:45Z</time>
      </trkpt>
      <trkpt lat="48.4142" lon="2.06594">
        <ele>142</ele>
        <time>2011-04-30T07:33:46Z</time>
      </trkpt>
      <trkpt lat="48.41418" lon="2.06593">
        <ele>142</ele>
        <time>2011-04-30T07:33:47Z</time>
      </trkpt>
      <trkpt lat="48.41416" lon="2.06592">
        <ele>142</ele>
        <time>2011-04-30T07:33:48Z</time>
      </trkpt>
      <trkpt lat="48.41415" lon="2.0659">
        <ele>142</ele>
        <time>2011-04-30T07:33:49Z</time>
      </trkpt>
      <trkpt lat="48.41413" lon="2.06589">
        <ele>142</ele>
        <time>2011-04-30T07:33:50Z</time>
      </trkpt>
      <trkpt lat="48.41411" lon="2.06587">
        <ele>142</ele>
        <time>2011-04-30T07:33:51Z</time>
      </trkpt>
      <trkpt lat="48.41409" lon="2.06586">
        <ele>142</ele>
        <time>2011-04-30T07:33:52Z</time>
      </trkpt>
      <trkpt lat="48.41407" lon="2.06585">
        <ele>142</ele>
        <time>2011-04-30T07:33:53Z</time>
      </trkpt>
      <trkpt lat="48.41405" lon="2.06583">
        <ele>142</ele>
        <time>2011-04-30T07:33:54Z</time>
      </trkpt>
      <trkpt lat="48.41403" lon="2.06582">
        <ele>142</ele>
        <time>2011-04-30T07:33:55Z</time>
      </trkpt>
      <trkpt lat="48.414" lon="2.06581">
        <ele>142</ele>
        <time>2011-04-30T07:33:56Z</time>
      </trkpt>
      <trkpt lat="48.41398" lon="2.06579">
        <ele>142</ele>
        <time>2011-04-30T07:33:57Z</time>
      </trkpt>
      <trkpt lat="48.41396" lon="2.06578">
        <ele>142</ele>
        <time>2011-04-30T07:33:58Z</time>
      </trkpt>
      <trkpt lat="48.41394" lon="2.06576">
        <ele>142</ele>
        <time>2011-04-30T07:33:59Z</time>
      </trkpt>
      <trkpt lat="48.41392" lon="2.06575">
        <ele>142</ele>
        <time>2011-04-30T07:34:00Z</time>
      </trkpt>
      <trkpt lat="48.4139" lon="2.06573">
        <ele>142</ele>
        <time>2011-04-30T07:34:01Z</time>
      </trkpt>
      <trkpt lat="48.41388" lon="2.06572">
        <ele>142</ele>
        <time>2011-04-30T07:34:02Z</time>
      </trkpt>
      <trkpt lat="48.41386" lon="2.0657">
        <ele>142</ele>
        <time>2011-04-30T07:34:03Z</time>
      </trkpt>
      <trkpt lat="48.41384" lon="2.06569">
        <ele>142</ele>
        <time>2011-04-30T07:34:04Z</time>
      </trkpt>
      <trkpt lat="48.41382" lon="2.06568">
        <ele>142</ele>
        <time>2011-04-30T07:34:05Z</time>
      </trkpt>
      <trkpt lat="48.4138" lon="2.06566">
        <ele>142</ele>
        <time>2011-04-30T07:34:06Z</time>
      </trkpt>
      <trkpt lat="48.41378" lon="2.06565">
        <ele>142</ele>
        <time>2011-04-30T07:34:07Z</time>
      </trkpt>
      <trkpt lat="48.41376" lon="2.06563">
        <ele>142</ele>
        <time>2011-04-30T07:34:08Z</time>
      </trkpt>
      <trkpt lat="48.41374" lon="2.06562">
        <ele>142</ele>
        <time>2011-04-30T07:34:09Z</time>
      </trkpt>
      <trkpt lat="48.41372" lon="2.0656">
        <ele>142</ele>
        <time>2011-04-30T07:34:10Z</time>
      </trkpt>
      <trkpt lat="48.4137" lon="2.06558">
        <ele>142</ele>
        <time>2011-04-30T07:34:11Z</time>
      </trkpt>
      <trkpt lat="48.41368" lon="2.06557">
        <ele>142</ele>
        <time>2011-04-30T07:34:12Z</time>
      </trkpt>
      <trkpt lat="48.41366" lon="2.06555">
        <ele>142</ele>
        <time>2011-04-30T07:34:13Z</time>
      </trkpt>
      <trkpt lat="48.41364" lon="2.06554">
        <ele>142</ele>
        <time>2011-04-30T07:34:14Z</time>
      </trkpt>
      <trkpt lat="48.41362" lon="2.06552">
        <ele>142</ele>
        <time>2011-04-30T07:34:15Z</time>
      </trkpt>
      <trkpt lat="48.4136" lon="2.0655">
        <ele>142</ele>
        <time>2011-04-30T07:34:16Z</time>
      </trkpt>
      <trkpt lat="48.41358" lon="2.06548">
        <ele>142</ele>
        <time>2011-04-30T07:34:17Z</time>
      </trkpt>
      <trkpt lat="48.41356" lon="2.06546">
        <ele>142</ele>
        <time>2011-04-30T07:34:18Z</time>
      </trkpt>
      <trkpt lat="48.41354" lon="2.06544">
        <ele>142</ele>
        <time>2011-04-30T07:34:19Z</time>
      </trkpt>
      <trkpt lat="48.41351" lon="2.06542">
        <ele>142</ele>
        <time>2011-04-30T07:34:20Z</time>
      </trkpt>
      <trkpt lat="48.41349" lon="2.06541">
        <ele>142</ele>
        <time>2011-04-30T07:34:21Z</time>
      </trkpt>
      <trkpt lat="48.41347" lon="2.06539">
        <ele>142</ele>
        <time>2011-04-30T07:34:22Z</time>
      </trkpt>
      <trkpt lat="48.41345" lon="2.06537">
        <ele>142</ele>
        <time>2011-04-30T07:34:23Z</time>
      </trkpt>
      <trkpt lat="48.41343" lon="2.06535">
        <ele>142</ele>
        <time>2011-04-30T07:34:24Z</time>
      </trkpt>
      <trkpt lat="48.41341" lon="2.06533">
        <ele>142</ele>
        <time>2011-04-30T07:34:25Z</time>
      </trkpt>
      <trkpt lat="48.41339" lon="2.0653">
        <ele>142</ele>
        <time>2011-04-30T07:34:26Z</time>
      </trkpt>
      <trkpt lat="48.41337" lon="2.06527">
        <ele>142</ele>
        <time>2011-04-30T07:34:27Z</time>
      </trkpt>
      <trkpt lat="48.41336" lon="2.06524">
        <ele>142</ele>
        <time>2011-04-30T07:34:28Z</time>
      </trkpt>
      <trkpt lat="48.41335" lon="2.0652">
        <ele>141</ele>
        <time>2011-04-30T07:34:29Z</time>
      </trkpt>
      <trkpt lat="48.41335" lon="2.06516">
        <ele>141</ele>
        <time>2011-04-30T07:34:30Z</time>
      </trkpt>
      <trkpt lat="48.41335" lon="2.06513">
        <ele>141</ele>
        <time>2011-04-30T07:34:31Z</time>
      </trkpt>
      <trkpt lat="48.41335" lon="2.06509">
        <ele>141</ele>
        <time>2011-04-30T07:34:32Z</time>
      </trkpt>
      <trkpt lat="48.41335" lon="2.06505">
        <ele>141</ele>
        <time>2011-04-30T07:34:33Z</time>
      </trkpt>
      <trkpt lat="48.41335" lon="2.06501">
        <ele>141</ele>
        <time>2011-04-30T07:34:34Z</time>
      </trkpt>
      <trkpt lat="48.41335" lon="2.06498">
        <ele>141</ele>
        <time>2011-04-30T07:34:35Z</time>
      </trkpt>
      <trkpt lat="48.41335" lon="2.06494">
        <ele>141</ele>
        <time>2011-04-30T07:34:36Z</time>
      </trkpt>
      <trkpt lat="48.41335" lon="2.0649">
        <ele>141</ele>
        <time>2011-04-30T07:34:37Z</time>
      </trkpt>
      <trkpt lat="48.41335" lon="2.06487">
        <ele>141</ele>
        <time>2011-04-30T07:34:38Z</time>
      </trkpt>
      <trkpt lat="48.41335" lon="2.06483">
        <ele>141</ele>
        <time>2011-04-30T07:34:39Z</time>
      </trkpt>
      <trkpt lat="48.41336" lon="2.06479">
        <ele>141</ele>
        <time>2011-04-30T07:34:40Z</time>
      </trkpt>
      <trkpt lat="48.41336" lon="2.06476">
        <ele>140</ele>
        <time>2011-04-30T07:34:41Z</time>
      </trkpt>
      <trkpt lat="48.41336" lon="2.06472">
        <ele>140</ele>
        <time>2011-04-30T07:34:42Z</time>
      </trkpt>
      <trkpt lat="48.41336" lon="2.06469">
        <ele>140</ele>
        <time>2011-04-30T07:34:43Z</time>
      </trkpt>
      <trkpt lat="48.41336" lon="2.06466">
        <ele>140</ele>
        <time>2011-04-30T07:34:44Z</time>
      </trkpt>
      <trkpt lat="48.41336" lon="2.06462">
        <ele>140</ele>
        <time>2011-04-30T07:34:45Z</time>
      </trkpt>
      <trkpt lat="48.41336" lon="2.06459">
        <ele>140</ele>
        <time>2011-04-30T07:34:46Z</time>
      </trkpt>
      <trkpt lat="48.41336" lon="2.06455">
        <ele>140</ele>
        <time>2011-04-30T07:34:47Z</time>
      </trkpt>
      <trkpt lat="48.41336" lon="2.06452">
        <ele>140</ele>
        <time>2011-04-30T07:34:48Z</time>
      </trkpt>
      <trkpt lat="48.41336" lon="2.06448">
        <ele>140</ele>
        <time>2011-04-30T07:34:49Z</time>
      </trkpt>
      <trkpt lat="48.41336" lon="2.06445">
        <ele>140</ele>
        <time>2011-04-30T07:34:50Z</time>
      </trkpt>
      <trkpt lat="48.41336" lon="2.06444">
        <ele>140</ele>
        <time>2011-04-30T07:34:51Z</time>
      </trkpt>
      <trkpt lat="48.41336" lon="2.06443">
        <ele>140</ele>
        <time>2011-04-30T07:34:52Z</time>
      </trkpt>
      <trkpt lat="48.41335" lon="2.06442">
        <ele>140</ele>
        <time>2011-04-30T07:34:53Z</time>
      </trkpt>
      <trkpt lat="48.41335" lon="2.06443">
        <ele>140</ele>
        <time>2011-04-30T07:34:54Z</time>
      </trkpt>
      <trkpt lat="48.41335" lon="2.06443">
        <ele>140</ele>
        <time>2011-04-30T07:34:55Z</time>
      </trkpt>
      <trkpt lat="48.41335" lon="2.06444">
        <ele>140</ele>
        <time>2011-04-30T07:34:56Z</time>
      </trkpt>
      <trkpt lat="48.41334" lon="2.06444">
        <ele>140</ele>
        <time>2011-04-30T07:34:57Z</time>
      </trkpt>
      <trkpt lat="48.41334" lon="2.06445">
        <ele>140</ele>
        <time>2011-04-30T07:34:58Z</time>
      </trkpt>
      <trkpt lat="48.41334" lon="2.06445">
        <ele>140</ele>
        <time>2011-04-30T07:34:59Z</time>
      </trkpt>
      <trkpt lat="48.41334" lon="2.06445">
        <ele>140</ele>
        <time>2011-04-30T07:35:00Z</time>
      </trkpt>
      <trkpt lat="48.41334" lon="2.06445">
        <ele>140</ele>
        <time>2011-04-30T07:35:01Z</time>
      </trkpt>
      <trkpt lat="48.41333" lon="2.06445">
        <ele>140</ele>
        <time>2011-04-30T07:35:02Z</time>
      </trkpt>
      <trkpt lat="48.41333" lon="2.06446">
        <ele>140</ele>
        <time>2011-04-30T07:35:03Z</time>
      </trkpt>
      <trkpt lat="48.41333" lon="2.06446">
        <ele>140</ele>
        <time>2011-04-30T07:35:04Z</time>
      </trkpt>
      <trkpt lat="48.41333" lon="2.06446">
        <ele>140</ele>
        <time>2011-04-30T07:35:05Z</time>
      </trkpt>
      <trkpt lat="48.41332" lon="2.06446">
        <ele>140</ele>
        <time>2011-04-30T07:35:06Z</time>
      </trkpt>
      <trkpt lat="48.41332" lon="2.06446">
        <ele>140</ele>
        <time>2011-04-30T07:35:07Z</time>
      </trkpt>
      <trkpt lat="48.41332" lon="2.06446">
        <ele>140</ele>
        <time>2011-04-30T07:35:08Z</time>
      </trkpt>
      <trkpt lat="48.41332" lon="2.06445">
        <ele>140</ele>
        <time>2011-04-30T07:35:09Z</time>
      </trkpt>
      <trkpt lat="48.41332" lon="2.06445">
        <ele>140</ele>
        <time>2011-04-30T07:35:10Z</time>
      </trkpt>
      <trkpt lat="48.41332" lon="2.06445">
        <ele>140</ele>
        <time>2011-04-30T07:35:11Z</time>
      </trkpt>
      <trkpt lat="48.41332" lon="2.06446">
        <ele>140</ele>
        <time>2011-04-30T07:35:12Z</time>
      </trkpt>
      <trkpt lat="48.41332" lon="2.06446">
        <ele>140</ele>
        <time>2011-04-30T07:35:13Z</time>
      </trkpt>
      <trkpt lat="48.41331" lon="2.06446">
        <ele>140</ele>
        <time>2011-04-30T07:35:14Z</time>
      </trkpt>
      <trkpt lat="48.41331" lon="2.06446">
        <ele>140</ele>
        <time>2011-04-30T07:35:15Z</time>
      </trkpt>
      <trkpt lat="48.41331" lon="2.06446">
        <ele>140</ele>
        <time>2011-04-30T07:35:16Z</time>
      </trkpt>
      <trkpt lat="48.41331" lon="2.06446">
        <ele>140</ele>
        <time>2011-04-30T07:35:17Z</time>
      </trkpt>
      <trkpt lat="48.41331" lon="2.06446">
        <ele>140</ele>
        <time>2011-04-30T07:35:18Z</time>
      </trkpt>
      <trkpt lat="48.41331" lon="2.06446">
        <ele>140</ele>
        <time>2011-04-30T07:35:19Z</time>
      </trkpt>
      <trkpt lat="48.41331" lon="2.06446">
        <ele>140</ele>
        <time>2011-04-30T07:35:20Z</time>
      </trkpt>
      <trkpt lat="48.41331" lon="2.06446">
        <ele>140</ele>
        <time>2011-04-30T07:35:21Z</time>
      </trkpt>
      <trkpt lat="48.41331" lon="2.06447">
        <ele>140</ele>
        <time>2011-04-30T07:35:22Z</time>
      </trkpt>
      <trkpt lat="48.41331" lon="2.06447">
        <ele>140</ele>
        <time>2011-04-30T07:35:23Z</time>
      </trkpt>
      <trkpt lat="48.41331" lon="2.06447">
        <ele>140</ele>
        <time>2011-04-30T07:35:24Z</time>
      </trkpt>
      <trkpt lat="48.41331" lon="2.06447">
        <ele>140</ele>
        <time>2011-04-30T07:35:25Z</time>
      </trkpt>
      <trkpt lat="48.41331" lon="2.06447">
        <ele>140</ele>
        <time>2011-04-30T07:35:26Z</time>
      </trkpt>
      <trkpt lat="48.41331" lon="2.06447">
        <ele>140</ele>
        <time>2011-04-30T07:35:27Z</time>
      </trkpt>
      <trkpt lat="48.41331" lon="2.06447">
        <ele>140</ele>
        <time>2011-04-30T07:35:28Z</time>
      </trkpt>
      <trkpt lat="48.41331" lon="2.06448">
        <ele>140</ele>
        <time>2011-04-30T07:35:29Z</time>
      </trkpt>
      <trkpt lat="48.41331" lon="2.06447">
        <ele>140</ele>
        <time>2011-04-30T07:35:30Z</time>
      </trkpt>
      <trkpt lat="48.41331" lon="2.06446">
        <ele>140</ele>
        <time>2011-04-30T07:35:31Z</time>
      </trkpt>
      <trkpt lat="48.41331" lon="2.06445">
        <ele>140</ele>
        <time>2011-04-30T07:35:32Z</time>
      </trkpt>
      <trkpt lat="48.41332" lon="2.06441">
        <ele>140</ele>
        <time>2011-04-30T07:35:33Z</time>
      </trkpt>
      <trkpt lat="48.41333" lon="2.06437">
        <ele>140</ele>
        <time>2011-04-30T07:35:34Z</time>
      </trkpt>
      <trkpt lat="48.41333" lon="2.06433">
        <ele>140</ele>
        <time>2011-04-30T07:35:35Z</time>
      </trkpt>
      <trkpt lat="48.41334" lon="2.06429">
        <ele>139</ele>
        <time>2011-04-30T07:35:36Z</time>
      </trkpt>
      <trkpt lat="48.41334" lon="2.06424">
        <ele>139</ele>
        <time>2011-04-30T07:35:37Z</time>
      </trkpt>
      <trkpt lat="48.41334" lon="2.0642">
        <ele>139</ele>
        <time>2011-04-30T07:35:38Z</time>
      </trkpt>
      <trkpt lat="48.41334" lon="2.06416">
        <ele>139</ele>
        <time>2011-04-30T07:35:39Z</time>
      </trkpt>
      <trkpt lat="48.41334" lon="2.06412">
        <ele>139</ele>
        <time>2011-04-30T07:35:40Z</time>
      </trkpt>
      <trkpt lat="48.41334" lon="2.06408">
        <ele>139</ele>
        <time>2011-04-30T07:35:41Z</time>
      </trkpt>
      <trkpt lat="48.41334" lon="2.06405">
        <ele>139</ele>
        <time>2011-04-30T07:35:42Z</time>
      </trkpt>
      <trkpt lat="48.41334" lon="2.06401">
        <ele>139</ele>
        <time>2011-04-30T07:35:43Z</time>
      </trkpt>
      <trkpt lat="48.41334" lon="2.06397">
        <ele>139</ele>
        <time>2011-04-30T07:35:44Z</time>
      </trkpt>
      <trkpt lat="48.41334" lon="2.06393">
        <ele>139</ele>
        <time>2011-04-30T07:35:45Z</time>
      </trkpt>
      <trkpt lat="48.41334" lon="2.06389">
        <ele>139</ele>
        <time>2011-04-30T07:35:46Z</time>
      </trkpt>
      <trkpt lat="48.41334" lon="2.06385">
        <ele>139</ele>
        <time>2011-04-30T07:35:47Z</time>
      </trkpt>
      <trkpt lat="48.41334" lon="2.06381">
        <ele>139</ele>
        <time>2011-04-30T07:35:48Z</time>
      </trkpt>
      <trkpt lat="48.41334" lon="2.06377">
        <ele>139</ele>
        <time>2011-04-30T07:35:49Z</time>
      </trkpt>
      <trkpt lat="48.41335" lon="2.06373">
        <ele>139</ele>
        <time>2011-04-30T07:35:50Z</time>
      </trkpt>
      <trkpt lat="48.41335" lon="2.06369">
        <ele>139</ele>
        <time>2011-04-30T07:35:51Z</time>
      </trkpt>
      <trkpt lat="48.41335" lon="2.06365">
        <ele>139</ele>
        <time>2011-04-30T07:35:52Z</time>
      </trkpt>
      <trkpt lat="48.41335" lon="2.0636">
        <ele>139</ele>
        <time>2011-04-30T07:35:53Z</time>
      </trkpt>
      <trkpt lat="48.41335" lon="2.06356">
        <ele>139</ele>
        <time>2011-04-30T07:35:54Z</time>
      </trkpt>
      <trkpt lat="48.41335" lon="2.06352">
        <ele>139</ele>
        <time>2011-04-30T07:35:55Z</time>
      </trkpt>
      <trkpt lat="48.41335" lon="2.06348">
        <ele>138</ele>
        <time>2011-04-30T07:35:56Z</time>
      </trkpt>
      <trkpt lat="48.41335" lon="2.06344">
        <ele>138</ele>
        <time>2011-04-30T07:35:57Z</time>
      </trkpt>
      <trkpt lat="48.41335" lon="2.0634">
        <ele>138</ele>
        <time>2011-04-30T07:35:58Z</time>
      </trkpt>
      <trkpt lat="48.41336" lon="2.06336">
        <ele>138</ele>
        <time>2011-04-30T07:35:59Z</time>
      </trkpt>
      <trkpt lat="48.41336" lon="2.06331">
        <ele>138</ele>
        <time>2011-04-30T07:36:00Z</time>
      </trkpt>
      <trkpt lat="48.41336" lon="2.06327">
        <ele>138</ele>
        <time>2011-04-30T07:36:01Z</time>
      </trkpt>
      <trkpt lat="48.41336" lon="2.06323">
        <ele>138</ele>
        <time>2011-04-30T07:36:02Z</time>
      </trkpt>
      <trkpt lat="48.41336" lon="2.06319">
        <ele>138</ele>
        <time>2011-04-30T07:36:03Z</time>
      </trkpt>
      <trkpt lat="48.41336" lon="2.06315">
        <ele>138</ele>
        <time>2011-04-30T07:36:04Z</time>
      </trkpt>
      <trkpt lat="48.41336" lon="2.06311">
        <ele>138</ele>
        <time>2011-04-30T07:36:05Z</time>
      </trkpt>
      <trkpt lat="48.41336" lon="2.06307">
        <ele>138</ele>
        <time>2011-04-30T07:36:06Z</time>
      </trkpt>
      <trkpt lat="48.41336" lon="2.06303">
        <ele>138</ele>
        <time>2011-04-30T07:36:07Z</time>
      </trkpt>
      <trkpt lat="48.41336" lon="2.06299">
        <ele>138</ele>
        <time>2011-04-30T07:36:08Z</time>
      </trkpt>
      <trkpt lat="48.41336" lon="2.06295">
        <ele>138</ele>
        <time>2011-04-30T07:36:09Z</time>
      </trkpt>
      <trkpt lat="48.41336" lon="2.06292">
        <ele>138</ele>
        <time>2011-04-30T07:36:10Z</time>
      </trkpt>
      <trkpt lat="48.41336" lon="2.06288">
        <ele>138</ele>
        <time>2011-04-30T07:36:11Z</time>
      </trkpt>
      <trkpt lat="48.41336" lon="2.06284">
        <ele>138</ele>
        <time>2011-04-30T07:36:12Z</time>
      </trkpt>
      <trkpt lat="48.41336" lon="2.0628">
        <ele>138</ele>
        <time>2011-04-30T07:36:13Z</time>
      </trkpt>
      <trkpt lat="48.41336" lon="2.06276">
        <ele>138</ele>
        <time>2011-04-30T07:36:14Z</time>
      </trkpt>
      <trkpt lat="48.41336" lon="2.06272">
        <ele>138</ele>
        <time>2011-04-30T07:36:15Z</time>
      </trkpt>
      <trkpt lat="48.41336" lon="2.06268">
        <ele>138</ele>
        <time>2011-04-30T07:36:16Z</time>
      </trkpt>
      <trkpt lat="48.41336" lon="2.06264">
        <ele>138</ele>
        <time>2011-04-30T07:36:17Z</time>
      </trkpt>
      <trkpt lat="48.41336" lon="2.0626">
        <ele>138</ele>
        <time>2011-04-30T07:36:18Z</time>
      </trkpt>
      <trkpt lat="48.41336" lon="2.06256">
        <ele>138</ele>
        <time>2011-04-30T07:36:19Z</time>
      </trkpt>
      <trkpt lat="48.41336" lon="2.06252">
        <ele>138</ele>
        <time>2011-04-30T07:36:20Z</time>
      </trkpt>
      <trkpt lat="48.41336" lon="2.06248">
        <ele>138</ele>
        <time>2011-04-30T07:36:21Z</time>
      </trkpt>
      <trkpt lat="48.41336" lon="2.06244">
        <ele>138</ele>
        <time>2011-04-30T07:36:22Z</time>
      </trkpt>
      <trkpt lat="48.41336" lon="2.0624">
        <ele>138</ele>
        <time>2011-04-30T07:36:23Z</time>
      </trkpt>
      <trkpt lat="48.41337" lon="2.06236">
        <ele>137</ele>
        <time>2011-04-30T07:36:24Z</time>
      </trkpt>
      <trkpt lat="48.41337" lon="2.06232">
        <ele>137</ele>
        <time>2011-04-30T07:36:25Z</time>
      </trkpt>
      <trkpt lat="48.41337" lon="2.06228">
        <ele>137</ele>
        <time>2011-04-30T07:36:26Z</time>
      </trkpt>
      <trkpt lat="48.41337" lon="2.06224">
        <ele>137</ele>
        <time>2011-04-30T07:36:27Z</time>
      </trkpt>
      <trkpt lat="48.41337" lon="2.0622">
        <ele>137</ele>
        <time>2011-04-30T07:36:28Z</time>
      </trkpt>
      <trkpt lat="48.41337" lon="2.06215">
        <ele>137</ele>
        <time>2011-04-30T07:36:29Z</time>
      </trkpt>
      <trkpt lat="48.41337" lon="2.06211">
        <ele>137</ele>
        <time>2011-04-30T07:36:30Z</time>
      </trkpt>
      <trkpt lat="48.41337" lon="2.06207">
        <ele>137</ele>
        <time>2011-04-30T07:36:31Z</time>
      </trkpt>
      <trkpt lat="48.41336" lon="2.06203">
        <ele>137</ele>
        <time>2011-04-30T07:36:32Z</time>
      </trkpt>
      <trkpt lat="48.41336" lon="2.06199">
        <ele>137</ele>
        <time>2011-04-30T07:36:33Z</time>
      </trkpt>
      <trkpt lat="48.41336" lon="2.06195">
        <ele>137</ele>
        <time>2011-04-30T07:36:34Z</time>
      </trkpt>
      <trkpt lat="48.41336" lon="2.06191">
        <ele>137</ele>
        <time>2011-04-30T07:36:35Z</time>
      </trkpt>
      <trkpt lat="48.41336" lon="2.06187">
        <ele>136</ele>
        <time>2011-04-30T07:36:36Z</time>
      </trkpt>
      <trkpt lat="48.41336" lon="2.06183">
        <ele>136</ele>
        <time>2011-04-30T07:36:37Z</time>
      </trkpt>
      <trkpt lat="48.41335" lon="2.06179">
        <ele>136</ele>
        <time>2011-04-30T07:36:38Z</time>
      </trkpt>
      <trkpt lat="48.41335" lon="2.06175">
        <ele>136</ele>
        <time>2011-04-30T07:36:39Z</time>
      </trkpt>
      <trkpt lat="48.41335" lon="2.06171">
        <ele>136</ele>
        <time>2011-04-30T07:36:40Z</time>
      </trkpt>
      <trkpt lat="48.41335" lon="2.06167">
        <ele>136</ele>
        <time>2011-04-30T07:36:41Z</time>
      </trkpt>
      <trkpt lat="48.41335" lon="2.06163">
        <ele>136</ele>
        <time>2011-04-30T07:36:42Z</time>
      </trkpt>
      <trkpt lat="48.41334" lon="2.06159">
        <ele>136</ele>
        <time>2011-04-30T07:36:43Z</time>
      </trkpt>
      <trkpt lat="48.41334" lon="2.06155">
        <ele>136</ele>
        <time>2011-04-30T07:36:44Z</time>
      </trkpt>
      <trkpt lat="48.41334" lon="2.06151">
        <ele>136</ele>
        <time>2011-04-30T07:36:45Z</time>
      </trkpt>
      <trkpt lat="48.41333" lon="2.06147">
        <ele>136</ele>
        <time>2011-04-30T07:36:46Z</time>
      </trkpt>
      <trkpt lat="48.41333" lon="2.06142">
        <ele>136</ele>
        <time>2011-04-30T07:36:47Z</time>
      </trkpt>
      <trkpt lat="48.41333" lon="2.06138">
        <ele>136</ele>
        <time>2011-04-30T07:36:48Z</time>
      </trkpt>
      <trkpt lat="48.41332" lon="2.06134">
        <ele>136</ele>
        <time>2011-04-30T07:36:49Z</time>
      </trkpt>
      <trkpt lat="48.41332" lon="2.0613">
        <ele>136</ele>
        <time>2011-04-30T07:36:50Z</time>
      </trkpt>
      <trkpt lat="48.41332" lon="2.06126">
        <ele>136</ele>
        <time>2011-04-30T07:36:51Z</time>
      </trkpt>
      <trkpt lat="48.41331" lon="2.06122">
        <ele>136</ele>
        <time>2011-04-30T07:36:52Z</time>
      </trkpt>
      <trkpt lat="48.41331" lon="2.06118">
        <ele>136</ele>
        <time>2011-04-30T07:36:53Z</time>
      </trkpt>
      <trkpt lat="48.41331" lon="2.06114">
        <ele>136</ele>
        <time>2011-04-30T07:36:54Z</time>
      </trkpt>
      <trkpt lat="48.41331" lon="2.06109">
        <ele>136</ele>
        <time>2011-04-30T07:36:55Z</time>
      </trkpt>
      <trkpt lat="48.41331" lon="2.06105">
        <ele>135</ele>
        <time>2011-04-30T07:36:56Z</time>
      </trkpt>
      <trkpt lat="48.41331" lon="2.06101">
        <ele>135</ele>
        <time>2011-04-30T07:36:57Z</time>
      </trkpt>
      <trkpt lat="48.41331" lon="2.06097">
        <ele>135</ele>
        <time>2011-04-30T07:36:58Z</time>
      </trkpt>
      <trkpt lat="48.41331" lon="2.06093">
        <ele>135</ele>
        <time>2011-04-30T07:36:59Z</time>
      </trkpt>
      <trkpt lat="48.41332" lon="2.06089">
        <ele>135</ele>
        <time>2011-04-30T07:37:00Z</time>
      </trkpt>
      <trkpt lat="48.41332" lon="2.06085">
        <ele>135</ele>
        <time>2011-04-30T07:37:01Z</time>
      </trkpt>
      <trkpt lat="48.41332" lon="2.06081">
        <ele>135</ele>
        <time>2011-04-30T07:37:02Z</time>
      </trkpt>
      <trkpt lat="48.41332" lon="2.06078">
        <ele>135</ele>
        <time>2011-04-30T07:37:03Z</time>
      </trkpt>
      <trkpt lat="48.41332" lon="2.06074">
        <ele>135</ele>
        <time>2011-04-30T07:37:04Z</time>
      </trkpt>
      <trkpt lat="48.41332" lon="2.06071">
        <ele>135</ele>
        <time>2011-04-30T07:37:05Z</time>
      </trkpt>
      <trkpt lat="48.41332" lon="2.06067">
        <ele>135</ele>
        <time>2011-04-30T07:37:06Z</time>
      </trkpt>
      <trkpt lat="48.41332" lon="2.06063">
        <ele>135</ele>
        <time>2011-04-30T07:37:07Z</time>
      </trkpt>
      <trkpt lat="48.41333" lon="2.0606">
        <ele>135</ele>
        <time>2011-04-30T07:37:08Z</time>
      </trkpt>
      <trkpt lat="48.41333" lon="2.06056">
        <ele>135</ele>
        <time>2011-04-30T07:37:09Z</time>
      </trkpt>
      <trkpt lat="48.41333" lon="2.06052">
        <ele>135</ele>
        <time>2011-04-30T07:37:10Z</time>
      </trkpt>
      <trkpt lat="48.41334" lon="2.06048">
        <ele>135</ele>
        <time>2011-04-30T07:37:11Z</time>
      </trkpt>
      <trkpt lat="48.41334" lon="2.06044">
        <ele>135</ele>
        <time>2011-04-30T07:37:12Z</time>
      </trkpt>
      <trkpt lat="48.41334" lon="2.0604">
        <ele>135</ele>
        <time>2011-04-30T07:37:13Z</time>
      </trkpt>
      <trkpt lat="48.41335" lon="2.06036">
        <ele>135</ele>
        <time>2011-04-30T07:37:14Z</time>
      </trkpt>
      <trkpt lat="48.41336" lon="2.06032">
        <ele>135</ele>
        <time>2011-04-30T07:37:15Z</time>
      </trkpt>
      <trkpt lat="48.41337" lon="2.06028">
        <ele>135</ele>
        <time>2011-04-30T07:37:16Z</time>
      </trkpt>
      <trkpt lat="48.41337" lon="2.06024">
        <ele>135</ele>
        <time>2011-04-30T07:37:17Z</time>
      </trkpt>
      <trkpt lat="48.41338" lon="2.0602">
        <ele>135</ele>
        <time>2011-04-30T07:37:18Z</time>
      </trkpt>
      <trkpt lat="48.41339" lon="2.06016">
        <ele>135</ele>
        <time>2011-04-30T07:37:19Z</time>
      </trkpt>
      <trkpt lat="48.41339" lon="2.06012">
        <ele>134</ele>
        <time>2011-04-30T07:37:20Z</time>
      </trkpt>
      <trkpt lat="48.4134" lon="2.06008">
        <ele>134</ele>
        <time>2011-04-30T07:37:21Z</time>
      </trkpt>
      <trkpt lat="48.4134" lon="2.06003">
        <ele>134</ele>
        <time>2011-04-30T07:37:22Z</time>
      </trkpt>
      <trkpt lat="48.41341" lon="2.05999">
        <ele>134</ele>
        <time>2011-04-30T07:37:23Z</time>
      </trkpt>
      <trkpt lat="48.41341" lon="2.05995">
        <ele>134</ele>
        <time>2011-04-30T07:37:24Z</time>
      </trkpt>
      <trkpt lat="48.41341" lon="2.05991">
        <ele>134</ele>
        <time>2011-04-30T07:37:25Z</time>
      </trkpt>
      <trkpt lat="48.41341" lon="2.05987">
        <ele>134</ele>
        <time>2011-04-30T07:37:26Z</time>
      </trkpt>
      <trkpt lat="48.41342" lon="2.05982">
        <ele>134</ele>
        <time>2011-04-30T07:37:27Z</time>
      </trkpt>
      <trkpt lat="48.41342" lon="2.05978">
        <ele>134</ele>
        <time>2011-04-30T07:37:28Z</time>
      </trkpt>
      <trkpt lat="48.41342" lon="2.05974">
        <ele>134</ele>
        <time>2011-04-30T07:37:29Z</time>
      </trkpt>
      <trkpt lat="48.41342" lon="2.05969">
        <ele>134</ele>
        <time>2011-04-30T07:37:30Z</time>
      </trkpt>
      <trkpt lat="48.41343" lon="2.05965">
        <ele>133</ele>
        <time>2011-04-30T07:37:31Z</time>
      </trkpt>
      <trkpt lat="48.41343" lon="2.05961">
        <ele>133</ele>
        <time>2011-04-30T07:37:32Z</time>
      </trkpt>
      <trkpt lat="48.41343" lon="2.05956">
        <ele>133</ele>
        <time>2011-04-30T07:37:33Z</time>
      </trkpt>
      <trkpt lat="48.41344" lon="2.05952">
        <ele>133</ele>
        <time>2011-04-30T07:37:34Z</time>
      </trkpt>
      <trkpt lat="48.41344" lon="2.05947">
        <ele>133</ele>
        <time>2011-04-30T07:37:35Z</time>
      </trkpt>
      <trkpt lat="48.41344" lon="2.05942">
        <ele>133</ele>
        <time>2011-04-30T07:37:36Z</time>
      </trkpt>
      <trkpt lat="48.41345" lon="2.05938">
        <ele>133</ele>
        <time>2011-04-30T07:37:37Z</time>
      </trkpt>
      <trkpt lat="48.41345" lon="2.05933">
        <ele>133</ele>
        <time>2011-04-30T07:37:38Z</time>
      </trkpt>
      <trkpt lat="48.41346" lon="2.05929">
        <ele>132</ele>
        <time>2011-04-30T07:37:39Z</time>
      </trkpt>
      <trkpt lat="48.41346" lon="2.05924">
        <ele>132</ele>
        <time>2011-04-30T07:37:40Z</time>
      </trkpt>
      <trkpt lat="48.41347" lon="2.0592">
        <ele>132</ele>
        <time>2011-04-30T07:37:41Z</time>
      </trkpt>
      <trkpt lat="48.41347" lon="2.05916">
        <ele>131</ele>
        <time>2011-04-30T07:37:42Z</time>
      </trkpt>
      <trkpt lat="48.41348" lon="2.05911">
        <ele>131</ele>
        <time>2011-04-30T07:37:43Z</time>
      </trkpt>
      <trkpt lat="48.41348" lon="2.05907">
        <ele>131</ele>
        <time>2011-04-30T07:37:44Z</time>
      </trkpt>
      <trkpt lat="48.41348" lon="2.05903">
        <ele>131</ele>
        <time>2011-04-30T07:37:45Z</time>
      </trkpt>
      <trkpt lat="48.41348" lon="2.05898">
        <ele>131</ele>
        <time>2011-04-30T07:37:46Z</time>
      </trkpt>
      <trkpt lat="48.41348" lon="2.05894">
        <ele>131</ele>
        <time>2011-04-30T07:37:47Z</time>
      </trkpt>
      <trkpt lat="48.41347" lon="2.05889">
        <ele>131</ele>
        <time>2011-04-30T07:37:48Z</time>
      </trkpt>
      <trkpt lat="48.41347" lon="2.05885">
        <ele>131</ele>
        <time>2011-04-30T07:37:49Z</time>
      </trkpt>
      <trkpt lat="48.41347" lon="2.0588">
        <ele>131</ele>
        <time>2011-04-30T07:37:50Z</time>
      </trkpt>
      <trkpt lat="48.41347" lon="2.05876">
        <ele>130</ele>
        <time>2011-04-30T07:37:51Z</time>
      </trkpt>
      <trkpt lat="48.41347" lon="2.05871">
        <ele>130</ele>
        <time>2011-04-30T07:37:52Z</time>
      </trkpt>
      <trkpt lat="48.41347" lon="2.05867">
        <ele>130</ele>
        <time>2011-04-30T07:37:53Z</time>
      </trkpt>
      <trkpt lat="48.41347" lon="2.05862">
        <ele>130</ele>
        <time>2011-04-30T07:37:54Z</time>
      </trkpt>
      <trkpt lat="48.41346" lon="2.0586">
        <ele>130</ele>
        <time>2011-04-30T07:37:55Z</time>
      </trkpt>
      <trkpt lat="48.41345" lon="2.05857">
        <ele>130</ele>
        <time>2011-04-30T07:37:56Z</time>
      </trkpt>
      <trkpt lat="48.41343" lon="2.05855">
        <ele>130</ele>
        <time>2011-04-30T07:37:57Z</time>
      </trkpt>
      <trkpt lat="48.41341" lon="2.05854">
        <ele>129</ele>
        <time>2011-04-30T07:37:58Z</time>
      </trkpt>
      <trkpt lat="48.41339" lon="2.05853">
        <ele>129</ele>
        <time>2011-04-30T07:37:59Z</time>
      </trkpt>
      <trkpt lat="48.41337" lon="2.05852">
        <ele>129</ele>
        <time>2011-04-30T07:38:00Z</time>
      </trkpt>
      <trkpt lat="48.41334" lon="2.05852">
        <ele>129</ele>
        <time>2011-04-30T07:38:01Z</time>
      </trkpt>
      <trkpt lat="48.41331" lon="2.05853">
        <ele>130</ele>
        <time>2011-04-30T07:38:02Z</time>
      </trkpt>
      <trkpt lat="48.41328" lon="2.05854">
        <ele>130</ele>
        <time>2011-04-30T07:38:03Z</time>
      </trkpt>
      <trkpt lat="48.41326" lon="2.05854">
        <ele>130</ele>
        <time>2011-04-30T07:38:04Z</time>
      </trkpt>
      <trkpt lat="48.41323" lon="2.05855">
        <ele>130</ele>
        <time>2011-04-30T07:38:05Z</time>
      </trkpt>
      <trkpt lat="48.4132" lon="2.05856">
        <ele>130</ele>
        <time>2011-04-30T07:38:06Z</time>
      </trkpt>
      <trkpt lat="48.41318" lon="2.05857">
        <ele>130</ele>
        <time>2011-04-30T07:38:07Z</time>
      </trkpt>
      <trkpt lat="48.41316" lon="2.05858">
        <ele>130</ele>
        <time>2011-04-30T07:38:08Z</time>
      </trkpt>
      <trkpt lat="48.41313" lon="2.05859">
        <ele>131</ele>
        <time>2011-04-30T07:38:09Z</time>
      </trkpt>
      <trkpt lat="48.41311" lon="2.0586">
        <ele>131</ele>
        <time>2011-04-30T07:38:10Z</time>
      </trkpt>
      <trkpt lat="48.41308" lon="2.05861">
        <ele>131</ele>
        <time>2011-04-30T07:38:11Z</time>
      </trkpt>
      <trkpt lat="48.41305" lon="2.05862">
        <ele>131</ele>
        <time>2011-04-30T07:38:12Z</time>
      </trkpt>
      <trkpt lat="48.41303" lon="2.05863">
        <ele>131</ele>
        <time>2011-04-30T07:38:13Z</time>
      </trkpt>
      <trkpt lat="48.413" lon="2.05863">
        <ele>131</ele>
        <time>2011-04-30T07:38:14Z</time>
      </trkpt>
      <trkpt lat="48.41298" lon="2.05864">
        <ele>131</ele>
        <time>2011-04-30T07:38:15Z</time>
      </trkpt>
      <trkpt lat="48.41295" lon="2.05865">
        <ele>132</ele>
        <time>2011-04-30T07:38:16Z</time>
      </trkpt>
      <trkpt lat="48.41293" lon="2.05866">
        <ele>132</ele>
        <time>2011-04-30T07:38:17Z</time>
      </trkpt>
      <trkpt lat="48.4129" lon="2.05867">
        <ele>132</ele>
        <time>2011-04-30T07:38:18Z</time>
      </trkpt>
      <trkpt lat="48.41288" lon="2.05868">
        <ele>132</ele>
        <time>2011-04-30T07:38:19Z</time>
      </trkpt>
      <trkpt lat="48.41286" lon="2.05869">
        <ele>132</ele>
        <time>2011-04-30T07:38:20Z</time>
      </trkpt>
      <trkpt lat="48.41283" lon="2.0587">
        <ele>132</ele>
        <time>2011-04-30T07:38:21Z</time>
      </trkpt>
      <trkpt lat="48.41281" lon="2.05871">
        <ele>132</ele>
        <time>2011-04-30T07:38:22Z</time>
      </trkpt>
      <trkpt lat="48.41279" lon="2.05872">
        <ele>132</ele>
        <time>2011-04-30T07:38:23Z</time>
      </trkpt>
      <trkpt lat="48.41276" lon="2.05873">
        <ele>132</ele>
        <time>2011-04-30T07:38:24Z</time>
      </trkpt>
      <trkpt lat="48.41274" lon="2.05874">
        <ele>132</ele>
        <time>2011-04-30T07:38:25Z</time>
      </trkpt>
      <trkpt lat="48.41271" lon="2.05875">
        <ele>132</ele>
        <time>2011-04-30T07:38:26Z</time>
      </trkpt>
      <trkpt lat="48.41269" lon="2.05875">
        <ele>132</ele>
        <time>2011-04-30T07:38:27Z</time>
      </trkpt>
      <trkpt lat="48.41267" lon="2.05877">
        <ele>132</ele>
        <time>2011-04-30T07:38:28Z</time>
      </trkpt>
      <trkpt lat="48.41265" lon="2.05878">
        <ele>133</ele>
        <time>2011-04-30T07:38:29Z</time>
      </trkpt>
      <trkpt lat="48.41263" lon="2.05879">
        <ele>133</ele>
        <time>2011-04-30T07:38:30Z</time>
      </trkpt>
      <trkpt lat="48.41261" lon="2.05879">
        <ele>133</ele>
        <time>2011-04-30T07:38:31Z</time>
      </trkpt>
      <trkpt lat="48.41258" lon="2.0588">
        <ele>133</ele>
        <time>2011-04-30T07:38:32Z</time>
      </trkpt>
      <trkpt lat="48.41256" lon="2.05881">
        <ele>133</ele>
        <time>2011-04-30T07:38:33Z</time>
      </trkpt>
      <trkpt lat="48.41254" lon="2.05882">
        <ele>133</ele>
        <time>2011-04-30T07:38:34Z</time>
      </trkpt>
      <trkpt lat="48.41252" lon="2.05882">
        <ele>133</ele>
        <time>2011-04-30T07:38:35Z</time>
      </trkpt>
      <trkpt lat="48.4125" lon="2.05883">
        <ele>136</ele>
        <time>2011-04-30T07:38:36Z</time>
      </trkpt>
      <trkpt lat="48.41247" lon="2.05883">
        <ele>136</ele>
        <time>2011-04-30T07:38:37Z</time>
      </trkpt>
      <trkpt lat="48.41245" lon="2.05884">
        <ele>136</ele>
        <time>2011-04-30T07:38:38Z</time>
      </trkpt>
      <trkpt lat="48.41243" lon="2.05885">
        <ele>136</ele>
        <time>2011-04-30T07:38:39Z</time>
      </trkpt>
      <trkpt lat="48.41241" lon="2.05885">
        <ele>136</ele>
        <time>2011-04-30T07:38:40Z</time>
      </trkpt>
      <trkpt lat="48.41239" lon="2.05886">
        <ele>136</ele>
        <time>2011-04-30T07:38:41Z</time>
      </trkpt>
      <trkpt lat="48.41236" lon="2.05886">
        <ele>136</ele>
        <time>2011-04-30T07:38:42Z</time>
      </trkpt>
      <trkpt lat="48.41234" lon="2.05886">
        <ele>136</ele>
        <time>2011-04-30T07:38:43Z</time>
      </trkpt>
      <trkpt lat="48.41232" lon="2.05887">
        <ele>136</ele>
        <time>2011-04-30T07:38:44Z</time>
      </trkpt>
      <trkpt lat="48.4123" lon="2.05887">
        <ele>136</ele>
        <time>2011-04-30T07:38:45Z</time>
      </trkpt>
      <trkpt lat="48.41227" lon="2.05888">
        <ele>136</ele>
        <time>2011-04-30T07:38:46Z</time>
      </trkpt>
      <trkpt lat="48.41225" lon="2.05888">
        <ele>136</ele>
        <time>2011-04-30T07:38:47Z</time>
      </trkpt>
      <trkpt lat="48.41223" lon="2.05889">
        <ele>136</ele>
        <time>2011-04-30T07:38:48Z</time>
      </trkpt>
      <trkpt lat="48.41221" lon="2.05889">
        <ele>136</ele>
        <time>2011-04-30T07:38:49Z</time>
      </trkpt>
      <trkpt lat="48.41219" lon="2.0589">
        <ele>136</ele>
        <time>2011-04-30T07:38:50Z</time>
      </trkpt>
      <trkpt lat="48.41216" lon="2.0589">
        <ele>136</ele>
        <time>2011-04-30T07:38:51Z</time>
      </trkpt>
      <trkpt lat="48.41214" lon="2.05891">
        <ele>136</ele>
        <time>2011-04-30T07:38:52Z</time>
      </trkpt>
      <trkpt lat="48.41212" lon="2.05891">
        <ele>136</ele>
        <time>2011-04-30T07:38:53Z</time>
      </trkpt>
      <trkpt lat="48.4121" lon="2.05891">
        <ele>136</ele>
        <time>2011-04-30T07:38:54Z</time>
      </trkpt>
      <trkpt lat="48.41207" lon="2.05892">
        <ele>136</ele>
        <time>2011-04-30T07:38:55Z</time>
      </trkpt>
      <trkpt lat="48.41205" lon="2.05892">
        <ele>136</ele>
        <time>2011-04-30T07:38:56Z</time>
      </trkpt>
      <trkpt lat="48.41203" lon="2.05893">
        <ele>137</ele>
        <time>2011-04-30T07:38:57Z</time>
      </trkpt>
      <trkpt lat="48.41201" lon="2.05893">
        <ele>137</ele>
        <time>2011-04-30T07:38:58Z</time>
      </trkpt>
      <trkpt lat="48.41199" lon="2.05893">
        <ele>137</ele>
        <time>2011-04-30T07:38:59Z</time>
      </trkpt>
      <trkpt lat="48.41196" lon="2.05894">
        <ele>137</ele>
        <time>2011-04-30T07:39:00Z</time>
      </trkpt>
      <trkpt lat="48.41194" lon="2.05894">
        <ele>137</ele>
        <time>2011-04-30T07:39:01Z</time>
      </trkpt>
      <trkpt lat="48.41192" lon="2.05894">
        <ele>137</ele>
        <time>2011-04-30T07:39:02Z</time>
      </trkpt>
      <trkpt lat="48.4119" lon="2.05894">
        <ele>137</ele>
        <time>2011-04-30T07:39:03Z</time>
      </trkpt>
      <trkpt lat="48.41188" lon="2.05894">
        <ele>137</ele>
        <time>2011-04-30T07:39:04Z</time>
      </trkpt>
      <trkpt lat="48.41185" lon="2.05894">
        <ele>137</ele>
        <time>2011-04-30T07:39:05Z</time>
      </trkpt>
      <trkpt lat="48.41183" lon="2.05894">
        <ele>137</ele>
        <time>2011-04-30T07:39:06Z</time>
      </trkpt>
      <trkpt lat="48.41181" lon="2.05894">
        <ele>137</ele>
        <time>2011-04-30T07:39:07Z</time>
      </trkpt>
      <trkpt lat="48.41178" lon="2.05894">
        <ele>137</ele>
        <time>2011-04-30T07:39:08Z</time>
      </trkpt>
      <trkpt lat="48.41176" lon="2.05894">
        <ele>137</ele>
        <time>2011-04-30T07:39:09Z</time>
      </trkpt>
      <trkpt lat="48.41174" lon="2.05894">
        <ele>137</ele>
        <time>2011-04-30T07:39:10Z</time>
      </trkpt>
      <trkpt lat="48.41172" lon="2.05894">
        <ele>137</ele>
        <time>2011-04-30T07:39:11Z</time>
      </trkpt>
      <trkpt lat="48.41169" lon="2.05893">
        <ele>137</ele>
        <time>2011-04-30T07:39:12Z</time>
      </trkpt>
      <trkpt lat="48.41167" lon="2.05893">
        <ele>137</ele>
        <time>2011-04-30T07:39:13Z</time>
      </trkpt>
      <trkpt lat="48.41165" lon="2.05893">
        <ele>139</ele>
        <time>2011-04-30T07:39:14Z</time>
      </trkpt>
      <trkpt lat="48.41163" lon="2.05893">
        <ele>139</ele>
        <time>2011-04-30T07:39:15Z</time>
      </trkpt>
      <trkpt lat="48.41161" lon="2.05893">
        <ele>139</ele>
        <time>2011-04-30T07:39:16Z</time>
      </trkpt>
      <trkpt lat="48.41158" lon="2.05893">
        <ele>139</ele>
        <time>2011-04-30T07:39:17Z</time>
      </trkpt>
      <trkpt lat="48.41156" lon="2.05893">
        <ele>139</ele>
        <time>2011-04-30T07:39:18Z</time>
      </trkpt>
      <trkpt lat="48.41154" lon="2.05893">
        <ele>139</ele>
        <time>2011-04-30T07:39:19Z</time>
      </trkpt>
      <trkpt lat="48.41152" lon="2.05893">
        <ele>139</ele>
        <time>2011-04-30T07:39:20Z</time>
      </trkpt>
      <trkpt lat="48.4115" lon="2.05893">
        <ele>139</ele>
        <time>2011-04-30T07:39:21Z</time>
      </trkpt>
      <trkpt lat="48.41148" lon="2.05893">
        <ele>139</ele>
        <time>2011-04-30T07:39:22Z</time>
      </trkpt>
      <trkpt lat="48.41146" lon="2.05892">
        <ele>139</ele>
        <time>2011-04-30T07:39:23Z</time>
      </trkpt>
      <trkpt lat="48.41143" lon="2.05892">
        <ele>139</ele>
        <time>2011-04-30T07:39:24Z</time>
      </trkpt>
      <trkpt lat="48.41141" lon="2.05892">
        <ele>139</ele>
        <time>2011-04-30T07:39:25Z</time>
      </trkpt>
      <trkpt lat="48.41139" lon="2.05891">
        <ele>139</ele>
        <time>2011-04-30T07:39:26Z</time>
      </trkpt>
      <trkpt lat="48.41137" lon="2.0589">
        <ele>139</ele>
        <time>2011-04-30T07:39:27Z</time>
      </trkpt>
      <trkpt lat="48.41135" lon="2.0589">
        <ele>140</ele>
        <time>2011-04-30T07:39:28Z</time>
      </trkpt>
      <trkpt lat="48.41133" lon="2.05889">
        <ele>140</ele>
        <time>2011-04-30T07:39:29Z</time>
      </trkpt>
      <trkpt lat="48.41131" lon="2.05888">
        <ele>140</ele>
        <time>2011-04-30T07:39:30Z</time>
      </trkpt>
      <trkpt lat="48.41128" lon="2.05887">
        <ele>140</ele>
        <time>2011-04-30T07:39:31Z</time>
      </trkpt>
      <trkpt lat="48.41126" lon="2.05887">
        <ele>140</ele>
        <time>2011-04-30T07:39:32Z</time>
      </trkpt>
      <trkpt lat="48.41124" lon="2.05886">
        <ele>140</ele>
        <time>2011-04-30T07:39:33Z</time>
      </trkpt>
      <trkpt lat="48.41122" lon="2.05885">
        <ele>140</ele>
        <time>2011-04-30T07:39:34Z</time>
      </trkpt>
      <trkpt lat="48.4112" lon="2.05884">
        <ele>140</ele>
        <time>2011-04-30T07:39:35Z</time>
      </trkpt>
      <trkpt lat="48.41117" lon="2.05884">
        <ele>140</ele>
        <time>2011-04-30T07:39:36Z</time>
      </trkpt>
      <trkpt lat="48.41115" lon="2.05883">
        <ele>140</ele>
        <time>2011-04-30T07:39:37Z</time>
      </trkpt>
      <trkpt lat="48.41113" lon="2.05882">
        <ele>140</ele>
        <time>2011-04-30T07:39:38Z</time>
      </trkpt>
      <trkpt lat="48.41111" lon="2.05881">
        <ele>140</ele>
        <time>2011-04-30T07:39:39Z</time>
      </trkpt>
      <trkpt lat="48.41109" lon="2.05881">
        <ele>140</ele>
        <time>2011-04-30T07:39:40Z</time>
      </trkpt>
      <trkpt lat="48.41107" lon="2.0588">
        <ele>140</ele>
        <time>2011-04-30T07:39:41Z</time>
      </trkpt>
      <trkpt lat="48.41105" lon="2.05879">
        <ele>140</ele>
        <time>2011-04-30T07:39:42Z</time>
      </trkpt>
      <trkpt lat="48.41103" lon="2.05879">
        <ele>140</ele>
        <time>2011-04-30T07:39:43Z</time>
      </trkpt>
      <trkpt lat="48.411" lon="2.05878">
        <ele>140</ele>
        <time>2011-04-30T07:39:44Z</time>
      </trkpt>
      <trkpt lat="48.41098" lon="2.05877">
        <ele>140</ele>
        <time>2011-04-30T07:39:45Z</time>
      </trkpt>
      <trkpt lat="48.41096" lon="2.05877">
        <ele>140</ele>
        <time>2011-04-30T07:39:46Z</time>
      </trkpt>
      <trkpt lat="48.41094" lon="2.05876">
        <ele>140</ele>
        <time>2011-04-30T07:39:47Z</time>
      </trkpt>
      <trkpt lat="48.41092" lon="2.05875">
        <ele>140</ele>
        <time>2011-04-30T07:39:48Z</time>
      </trkpt>
      <trkpt lat="48.41089" lon="2.05875">
        <ele>140</ele>
        <time>2011-04-30T07:39:49Z</time>
      </trkpt>
      <trkpt lat="48.41087" lon="2.05874">
        <ele>140</ele>
        <time>2011-04-30T07:39:50Z</time>
      </trkpt>
      <trkpt lat="48.41085" lon="2.05874">
        <ele>140</ele>
        <time>2011-04-30T07:39:51Z</time>
      </trkpt>
      <trkpt lat="48.41083" lon="2.05873">
        <ele>141</ele>
        <time>2011-04-30T07:39:52Z</time>
      </trkpt>
      <trkpt lat="48.41081" lon="2.05872">
        <ele>141</ele>
        <time>2011-04-30T07:39:53Z</time>
      </trkpt>
      <trkpt lat="48.41079" lon="2.05872">
        <ele>141</ele>
        <time>2011-04-30T07:39:54Z</time>
      </trkpt>
      <trkpt lat="48.41076" lon="2.05871">
        <ele>141</ele>
        <time>2011-04-30T07:39:55Z</time>
      </trkpt>
      <trkpt lat="48.41074" lon="2.05871">
        <ele>141</ele>
        <time>2011-04-30T07:39:56Z</time>
      </trkpt>
      <trkpt lat="48.41072" lon="2.0587">
        <ele>141</ele>
        <time>2011-04-30T07:39:57Z</time>
      </trkpt>
      <trkpt lat="48.4107" lon="2.05869">
        <ele>141</ele>
        <time>2011-04-30T07:39:58Z</time>
      </trkpt>
      <trkpt lat="48.41068" lon="2.05869">
        <ele>141</ele>
        <time>2011-04-30T07:39:59Z</time>
      </trkpt>
      <trkpt lat="48.41066" lon="2.05868">
        <ele>141</ele>
        <time>2011-04-30T07:40:00Z</time>
      </trkpt>
      <trkpt lat="48.41064" lon="2.05867">
        <ele>141</ele>
        <time>2011-04-30T07:40:01Z</time>
      </trkpt>
      <trkpt lat="48.41062" lon="2.05866">
        <ele>141</ele>
        <time>2011-04-30T07:40:02Z</time>
      </trkpt>
      <trkpt lat="48.4106" lon="2.05865">
        <ele>141</ele>
        <time>2011-04-30T07:40:03Z</time>
      </trkpt>
      <trkpt lat="48.41058" lon="2.05865">
        <ele>141</ele>
        <time>2011-04-30T07:40:04Z</time>
      </trkpt>
      <trkpt lat="48.41056" lon="2.05864">
        <ele>141</ele>
        <time>2011-04-30T07:40:05Z</time>
      </trkpt>
      <trkpt lat="48.41054" lon="2.05863">
        <ele>141</ele>
        <time>2011-04-30T07:40:06Z</time>
      </trkpt>
      <trkpt lat="48.41052" lon="2.05863">
        <ele>141</ele>
        <time>2011-04-30T07:40:07Z</time>
      </trkpt>
      <trkpt lat="48.4105" lon="2.05862">
        <ele>141</ele>
        <time>2011-04-30T07:40:08Z</time>
      </trkpt>
      <trkpt lat="48.41048" lon="2.05862">
        <ele>141</ele>
        <time>2011-04-30T07:40:09Z</time>
      </trkpt>
      <trkpt lat="48.41046" lon="2.05861">
        <ele>141</ele>
        <time>2011-04-30T07:40:10Z</time>
      </trkpt>
      <trkpt lat="48.41044" lon="2.05861">
        <ele>141</ele>
        <time>2011-04-30T07:40:11Z</time>
      </trkpt>
      <trkpt lat="48.41042" lon="2.0586">
        <ele>141</ele>
        <time>2011-04-30T07:40:12Z</time>
      </trkpt>
      <trkpt lat="48.4104" lon="2.05859">
        <ele>141</ele>
        <time>2011-04-30T07:40:13Z</time>
      </trkpt>
      <trkpt lat="48.41038" lon="2.05859">
        <ele>141</ele>
        <time>2011-04-30T07:40:14Z</time>
      </trkpt>
      <trkpt lat="48.41036" lon="2.05858">
        <ele>141</ele>
        <time>2011-04-30T07:40:15Z</time>
      </trkpt>
      <trkpt lat="48.41034" lon="2.05858">
        <ele>141</ele>
        <time>2011-04-30T07:40:16Z</time>
      </trkpt>
      <trkpt lat="48.41032" lon="2.05857">
        <ele>141</ele>
        <time>2011-04-30T07:40:17Z</time>
      </trkpt>
      <trkpt lat="48.4103" lon="2.05856">
        <ele>141</ele>
        <time>2011-04-30T07:40:18Z</time>
      </trkpt>
      <trkpt lat="48.41028" lon="2.05854">
        <ele>141</ele>
        <time>2011-04-30T07:40:19Z</time>
      </trkpt>
      <trkpt lat="48.41026" lon="2.05853">
        <ele>141</ele>
        <time>2011-04-30T07:40:20Z</time>
      </trkpt>
      <trkpt lat="48.41024" lon="2.05852">
        <ele>141</ele>
        <time>2011-04-30T07:40:21Z</time>
      </trkpt>
      <trkpt lat="48.41021" lon="2.05851">
        <ele>141</ele>
        <time>2011-04-30T07:40:22Z</time>
      </trkpt>
      <trkpt lat="48.41019" lon="2.0585">
        <ele>141</ele>
        <time>2011-04-30T07:40:23Z</time>
      </trkpt>
      <trkpt lat="48.41017" lon="2.05849">
        <ele>141</ele>
        <time>2011-04-30T07:40:24Z</time>
      </trkpt>
      <trkpt lat="48.41014" lon="2.05848">
        <ele>141</ele>
        <time>2011-04-30T07:40:25Z</time>
      </trkpt>
      <trkpt lat="48.41012" lon="2.05847">
        <ele>141</ele>
        <time>2011-04-30T07:40:26Z</time>
      </trkpt>
      <trkpt lat="48.41009" lon="2.05846">
        <ele>141</ele>
        <time>2011-04-30T07:40:27Z</time>
      </trkpt>
      <trkpt lat="48.41007" lon="2.05845">
        <ele>141</ele>
        <time>2011-04-30T07:40:28Z</time>
      </trkpt>
      <trkpt lat="48.41004" lon="2.05844">
        <ele>141</ele>
        <time>2011-04-30T07:40:29Z</time>
      </trkpt>
      <trkpt lat="48.41002" lon="2.05843">
        <ele>141</ele>
        <time>2011-04-30T07:40:30Z</time>
      </trkpt>
      <trkpt lat="48.40999" lon="2.05842">
        <ele>141</ele>
        <time>2011-04-30T07:40:31Z</time>
      </trkpt>
      <trkpt lat="48.40997" lon="2.05842">
        <ele>141</ele>
        <time>2011-04-30T07:40:32Z</time>
      </trkpt>
      <trkpt lat="48.40994" lon="2.0584">
        <ele>141</ele>
        <time>2011-04-30T07:40:33Z</time>
      </trkpt>
      <trkpt lat="48.40992" lon="2.05839">
        <ele>141</ele>
        <time>2011-04-30T07:40:34Z</time>
      </trkpt>
      <trkpt lat="48.4099" lon="2.05838">
        <ele>141</ele>
        <time>2011-04-30T07:40:35Z</time>
      </trkpt>
      <trkpt lat="48.40987" lon="2.05837">
        <ele>141</ele>
        <time>2011-04-30T07:40:36Z</time>
      </trkpt>
      <trkpt lat="48.40985" lon="2.05836">
        <ele>141</ele>
        <time>2011-04-30T07:40:37Z</time>
      </trkpt>
      <trkpt lat="48.40983" lon="2.05835">
        <ele>141</ele>
        <time>2011-04-30T07:40:38Z</time>
      </trkpt>
      <trkpt lat="48.40981" lon="2.05834">
        <ele>141</ele>
        <time>2011-04-30T07:40:39Z</time>
      </trkpt>
      <trkpt lat="48.40978" lon="2.05833">
        <ele>139</ele>
        <time>2011-04-30T07:40:40Z</time>
      </trkpt>
      <trkpt lat="48.40976" lon="2.05832">
        <ele>139</ele>
        <time>2011-04-30T07:40:41Z</time>
      </trkpt>
      <trkpt lat="48.40974" lon="2.05832">
        <ele>139</ele>
        <time>2011-04-30T07:40:42Z</time>
      </trkpt>
      <trkpt lat="48.40971" lon="2.05831">
        <ele>139</ele>
        <time>2011-04-30T07:40:43Z</time>
      </trkpt>
      <trkpt lat="48.40969" lon="2.05829">
        <ele>139</ele>
        <time>2011-04-30T07:40:44Z</time>
      </trkpt>
      <trkpt lat="48.40967" lon="2.05828">
        <ele>139</ele>
        <time>2011-04-30T07:40:45Z</time>
      </trkpt>
      <trkpt lat="48.40964" lon="2.05826">
        <ele>139</ele>
        <time>2011-04-30T07:40:46Z</time>
      </trkpt>
      <trkpt lat="48.40961" lon="2.05824">
        <ele>139</ele>
        <time>2011-04-30T07:40:47Z</time>
      </trkpt>
      <trkpt lat="48.40959" lon="2.05822">
        <ele>139</ele>
        <time>2011-04-30T07:40:48Z</time>
      </trkpt>
      <trkpt lat="48.40956" lon="2.05819">
        <ele>139</ele>
        <time>2011-04-30T07:40:49Z</time>
      </trkpt>
      <trkpt lat="48.40954" lon="2.05817">
        <ele>138</ele>
        <time>2011-04-30T07:40:50Z</time>
      </trkpt>
      <trkpt lat="48.40951" lon="2.05815">
        <ele>138</ele>
        <time>2011-04-30T07:40:51Z</time>
      </trkpt>
      <trkpt lat="48.40949" lon="2.05813">
        <ele>138</ele>
        <time>2011-04-30T07:40:52Z</time>
      </trkpt>
      <trkpt lat="48.40947" lon="2.05811">
        <ele>138</ele>
        <time>2011-04-30T07:40:53Z</time>
      </trkpt>
      <trkpt lat="48.40944" lon="2.05809">
        <ele>138</ele>
        <time>2011-04-30T07:40:54Z</time>
      </trkpt>
      <trkpt lat="48.40942" lon="2.05808">
        <ele>138</ele>
        <time>2011-04-30T07:40:55Z</time>
      </trkpt>
      <trkpt lat="48.4094" lon="2.05806">
        <ele>138</ele>
        <time>2011-04-30T07:40:56Z</time>
      </trkpt>
      <trkpt lat="48.40938" lon="2.05804">
        <ele>138</ele>
        <time>2011-04-30T07:40:57Z</time>
      </trkpt>
      <trkpt lat="48.40936" lon="2.05803">
        <ele>138</ele>
        <time>2011-04-30T07:40:58Z</time>
      </trkpt>
      <trkpt lat="48.40934" lon="2.05801">
        <ele>138</ele>
        <time>2011-04-30T07:40:59Z</time>
      </trkpt>
      <trkpt lat="48.40931" lon="2.05799">
        <ele>138</ele>
        <time>2011-04-30T07:41:00Z</time>
      </trkpt>
      <trkpt lat="48.40929" lon="2.05798">
        <ele>138</ele>
        <time>2011-04-30T07:41:01Z</time>
      </trkpt>
      <trkpt lat="48.40927" lon="2.05796">
        <ele>138</ele>
        <time>2011-04-30T07:41:02Z</time>
      </trkpt>
      <trkpt lat="48.40925" lon="2.05795">
        <ele>138</ele>
        <time>2011-04-30T07:41:03Z</time>
      </trkpt>
      <trkpt lat="48.40923" lon="2.05794">
        <ele>138</ele>
        <time>2011-04-30T07:41:04Z</time>
      </trkpt>
      <trkpt lat="48.4092" lon="2.05792">
        <ele>138</ele>
        <time>2011-04-30T07:41:05Z</time>
      </trkpt>
      <trkpt lat="48.40918" lon="2.05791">
        <ele>138</ele>
        <time>2011-04-30T07:41:06Z</time>
      </trkpt>
      <trkpt lat="48.40916" lon="2.05789">
        <ele>137</ele>
        <time>2011-04-30T07:41:07Z</time>
      </trkpt>
      <trkpt lat="48.40914" lon="2.05787">
        <ele>137</ele>
        <time>2011-04-30T07:41:08Z</time>
      </trkpt>
      <trkpt lat="48.40912" lon="2.05785">
        <ele>137</ele>
        <time>2011-04-30T07:41:09Z</time>
      </trkpt>
      <trkpt lat="48.4091" lon="2.05783">
        <ele>137</ele>
        <time>2011-04-30T07:41:10Z</time>
      </trkpt>
      <trkpt lat="48.40908" lon="2.0578">
        <ele>137</ele>
        <time>2011-04-30T07:41:11Z</time>
      </trkpt>
      <trkpt lat="48.40906" lon="2.05778">
        <ele>137</ele>
        <time>2011-04-30T07:41:12Z</time>
      </trkpt>
      <trkpt lat="48.40904" lon="2.05776">
        <ele>137</ele>
        <time>2011-04-30T07:41:13Z</time>
      </trkpt>
      <trkpt lat="48.40902" lon="2.05774">
        <ele>137</ele>
        <time>2011-04-30T07:41:14Z</time>
      </trkpt>
      <trkpt lat="48.409" lon="2.05772">
        <ele>136</ele>
        <time>2011-04-30T07:41:15Z</time>
      </trkpt>
      <trkpt lat="48.40898" lon="2.05769">
        <ele>136</ele>
        <time>2011-04-30T07:41:16Z</time>
      </trkpt>
      <trkpt lat="48.40896" lon="2.05767">
        <ele>136</ele>
        <time>2011-04-30T07:41:17Z</time>
      </trkpt>
      <trkpt lat="48.40894" lon="2.05765">
        <ele>136</ele>
        <time>2011-04-30T07:41:18Z</time>
      </trkpt>
      <trkpt lat="48.40892" lon="2.05763">
        <ele>136</ele>
        <time>2011-04-30T07:41:19Z</time>
      </trkpt>
      <trkpt lat="48.40889" lon="2.05762">
        <ele>136</ele>
        <time>2011-04-30T07:41:20Z</time>
      </trkpt>
      <trkpt lat="48.40887" lon="2.0576">
        <ele>136</ele>
        <time>2011-04-30T07:41:21Z</time>
      </trkpt>
      <trkpt lat="48.40885" lon="2.05759">
        <ele>136</ele>
        <time>2011-04-30T07:41:22Z</time>
      </trkpt>
      <trkpt lat="48.40883" lon="2.05758">
        <ele>136</ele>
        <time>2011-04-30T07:41:23Z</time>
      </trkpt>
      <trkpt lat="48.4088" lon="2.05757">
        <ele>136</ele>
        <time>2011-04-30T07:41:24Z</time>
      </trkpt>
      <trkpt lat="48.40878" lon="2.05756">
        <ele>136</ele>
        <time>2011-04-30T07:41:25Z</time>
      </trkpt>
      <trkpt lat="48.40876" lon="2.05755">
        <ele>136</ele>
        <time>2011-04-30T07:41:26Z</time>
      </trkpt>
      <trkpt lat="48.40874" lon="2.05755">
        <ele>136</ele>
        <time>2011-04-30T07:41:27Z</time>
      </trkpt>
      <trkpt lat="48.40872" lon="2.05755">
        <ele>136</ele>
        <time>2011-04-30T07:41:28Z</time>
      </trkpt>
      <trkpt lat="48.4087" lon="2.05755">
        <ele>136</ele>
        <time>2011-04-30T07:41:29Z</time>
      </trkpt>
      <trkpt lat="48.40868" lon="2.05755">
        <ele>136</ele>
        <time>2011-04-30T07:41:30Z</time>
      </trkpt>
      <trkpt lat="48.40866" lon="2.05754">
        <ele>136</ele>
        <time>2011-04-30T07:41:31Z</time>
      </trkpt>
      <trkpt lat="48.40865" lon="2.05754">
        <ele>136</ele>
        <time>2011-04-30T07:41:32Z</time>
      </trkpt>
      <trkpt lat="48.40864" lon="2.05753">
        <ele>136</ele>
        <time>2011-04-30T07:41:33Z</time>
      </trkpt>
      <trkpt lat="48.40863" lon="2.05752">
        <ele>136</ele>
        <time>2011-04-30T07:41:34Z</time>
      </trkpt>
      <trkpt lat="48.40862" lon="2.0575">
        <ele>134</ele>
        <time>2011-04-30T07:41:35Z</time>
      </trkpt>
      <trkpt lat="48.40862" lon="2.05747">
        <ele>134</ele>
        <time>2011-04-30T07:41:36Z</time>
      </trkpt>
      <trkpt lat="48.40862" lon="2.05745">
        <ele>133</ele>
        <time>2011-04-30T07:41:37Z</time>
      </trkpt>
      <trkpt lat="48.40863" lon="2.05742">
        <ele>133</ele>
        <time>2011-04-30T07:41:38Z</time>
      </trkpt>
      <trkpt lat="48.40864" lon="2.05739">
        <ele>133</ele>
        <time>2011-04-30T07:41:39Z</time>
      </trkpt>
      <trkpt lat="48.40865" lon="2.05735">
        <ele>133</ele>
        <time>2011-04-30T07:41:40Z</time>
      </trkpt>
      <trkpt lat="48.40866" lon="2.05733">
        <ele>133</ele>
        <time>2011-04-30T07:41:41Z</time>
      </trkpt>
      <trkpt lat="48.40867" lon="2.0573">
        <ele>133</ele>
        <time>2011-04-30T07:41:42Z</time>
      </trkpt>
      <trkpt lat="48.40868" lon="2.05727">
        <ele>133</ele>
        <time>2011-04-30T07:41:43Z</time>
      </trkpt>
      <trkpt lat="48.4087" lon="2.05725">
        <ele>133</ele>
        <time>2011-04-30T07:41:44Z</time>
      </trkpt>
      <trkpt lat="48.40871" lon="2.05722">
        <ele>133</ele>
        <time>2011-04-30T07:41:45Z</time>
      </trkpt>
      <trkpt lat="48.40872" lon="2.05719">
        <ele>133</ele>
        <time>2011-04-30T07:41:46Z</time>
      </trkpt>
      <trkpt lat="48.40873" lon="2.05717">
        <ele>133</ele>
        <time>2011-04-30T07:41:47Z</time>
      </trkpt>
      <trkpt lat="48.40874" lon="2.05714">
        <ele>133</ele>
        <time>2011-04-30T07:41:48Z</time>
      </trkpt>
      <trkpt lat="48.40876" lon="2.05712">
        <ele>133</ele>
        <time>2011-04-30T07:41:49Z</time>
      </trkpt>
      <trkpt lat="48.40877" lon="2.05709">
        <ele>133</ele>
        <time>2011-04-30T07:41:50Z</time>
      </trkpt>
      <trkpt lat="48.40878" lon="2.05706">
        <ele>133</ele>
        <time>2011-04-30T07:41:51Z</time>
      </trkpt>
      <trkpt lat="48.40879" lon="2.05704">
        <ele>133</ele>
        <time>2011-04-30T07:41:52Z</time>
      </trkpt>
      <trkpt lat="48.4088" lon="2.05701">
        <ele>133</ele>
        <time>2011-04-30T07:41:53Z</time>
      </trkpt>
      <trkpt lat="48.40882" lon="2.05699">
        <ele>133</ele>
        <time>2011-04-30T07:41:54Z</time>
      </trkpt>
      <trkpt lat="48.40883" lon="2.05697">
        <ele>133</ele>
        <time>2011-04-30T07:41:55Z</time>
      </trkpt>
      <trkpt lat="48.40885" lon="2.05694">
        <ele>133</ele>
        <time>2011-04-30T07:41:56Z</time>
      </trkpt>
      <trkpt lat="48.40886" lon="2.05692">
        <ele>133</ele>
        <time>2011-04-30T07:41:57Z</time>
      </trkpt>
      <trkpt lat="48.40888" lon="2.05689">
        <ele>133</ele>
        <time>2011-04-30T07:41:58Z</time>
      </trkpt>
      <trkpt lat="48.4089" lon="2.05687">
        <ele>133</ele>
        <time>2011-04-30T07:41:59Z</time>
      </trkpt>
      <trkpt lat="48.40892" lon="2.05685">
        <ele>133</ele>
        <time>2011-04-30T07:42:00Z</time>
      </trkpt>
      <trkpt lat="48.40893" lon="2.05682">
        <ele>133</ele>
        <time>2011-04-30T07:42:01Z</time>
      </trkpt>
      <trkpt lat="48.40895" lon="2.0568">
        <ele>133</ele>
        <time>2011-04-30T07:42:02Z</time>
      </trkpt>
      <trkpt lat="48.40897" lon="2.05678">
        <ele>133</ele>
        <time>2011-04-30T07:42:03Z</time>
      </trkpt>
      <trkpt lat="48.40899" lon="2.05676">
        <ele>133</ele>
        <time>2011-04-30T07:42:04Z</time>
      </trkpt>
      <trkpt lat="48.409" lon="2.05673">
        <ele>132</ele>
        <time>2011-04-30T07:42:05Z</time>
      </trkpt>
      <trkpt lat="48.40902" lon="2.05671">
        <ele>132</ele>
        <time>2011-04-30T07:42:06Z</time>
      </trkpt>
      <trkpt lat="48.40904" lon="2.05669">
        <ele>132</ele>
        <time>2011-04-30T07:42:07Z</time>
      </trkpt>
      <trkpt lat="48.40905" lon="2.05667">
        <ele>132</ele>
        <time>2011-04-30T07:42:08Z</time>
      </trkpt>
      <trkpt lat="48.40907" lon="2.05665">
        <ele>132</ele>
        <time>2011-04-30T07:42:09Z</time>
      </trkpt>
      <trkpt lat="48.40909" lon="2.05663">
        <ele>132</ele>
        <time>2011-04-30T07:42:10Z</time>
      </trkpt>
      <trkpt lat="48.4091" lon="2.05661">
        <ele>132</ele>
        <time>2011-04-30T07:42:11Z</time>
      </trkpt>
      <trkpt lat="48.40911" lon="2.05659">
        <ele>132</ele>
        <time>2011-04-30T07:42:12Z</time>
      </trkpt>
      <trkpt lat="48.40913" lon="2.05657">
        <ele>132</ele>
        <time>2011-04-30T07:42:13Z</time>
      </trkpt>
      <trkpt lat="48.40914" lon="2.05655">
        <ele>132</ele>
        <time>2011-04-30T07:42:14Z</time>
      </trkpt>
      <trkpt lat="48.40916" lon="2.05652">
        <ele>132</ele>
        <time>2011-04-30T07:42:15Z</time>
      </trkpt>
      <trkpt lat="48.40918" lon="2.0565">
        <ele>133</ele>
        <time>2011-04-30T07:42:16Z</time>
      </trkpt>
      <trkpt lat="48.40919" lon="2.05648">
        <ele>133</ele>
        <time>2011-04-30T07:42:17Z</time>
      </trkpt>
      <trkpt lat="48.4092" lon="2.05646">
        <ele>133</ele>
        <time>2011-04-30T07:42:18Z</time>
      </trkpt>
      <trkpt lat="48.40922" lon="2.05644">
        <ele>133</ele>
        <time>2011-04-30T07:42:19Z</time>
      </trkpt>
      <trkpt lat="48.40923" lon="2.05641">
        <ele>133</ele>
        <time>2011-04-30T07:42:20Z</time>
      </trkpt>
      <trkpt lat="48.40924" lon="2.05639">
        <ele>133</ele>
        <time>2011-04-30T07:42:21Z</time>
      </trkpt>
      <trkpt lat="48.40926" lon="2.05637">
        <ele>133</ele>
        <time>2011-04-30T07:42:22Z</time>
      </trkpt>
      <trkpt lat="48.40927" lon="2.05635">
        <ele>133</ele>
        <time>2011-04-30T07:42:23Z</time>
      </trkpt>
      <trkpt lat="48.40929" lon="2.05632">
        <ele>133</ele>
        <time>2011-04-30T07:42:24Z</time>
      </trkpt>
      <trkpt lat="48.4093" lon="2.0563">
        <ele>133</ele>
        <time>2011-04-30T07:42:25Z</time>
      </trkpt>
      <trkpt lat="48.40931" lon="2.05628">
        <ele>133</ele>
        <time>2011-04-30T07:42:26Z</time>
      </trkpt>
      <trkpt lat="48.40932" lon="2.05625">
        <ele>133</ele>
        <time>2011-04-30T07:42:27Z</time>
      </trkpt>
      <trkpt lat="48.40934" lon="2.05623">
        <ele>133</ele>
        <time>2011-04-30T07:42:28Z</time>
      </trkpt>
      <trkpt lat="48.40935" lon="2.0562">
        <ele>133</ele>
        <time>2011-04-30T07:42:29Z</time>
      </trkpt>
      <trkpt lat="48.40936" lon="2.05618">
        <ele>133</ele>
        <time>2011-04-30T07:42:30Z</time>
      </trkpt>
      <trkpt lat="48.40937" lon="2.05615">
        <ele>133</ele>
        <time>2011-04-30T07:42:31Z</time>
      </trkpt>
      <trkpt lat="48.40938" lon="2.05612">
        <ele>133</ele>
        <time>2011-04-30T07:42:32Z</time>
      </trkpt>
      <trkpt lat="48.40939" lon="2.05609">
        <ele>133</ele>
        <time>2011-04-30T07:42:33Z</time>
      </trkpt>
      <trkpt lat="48.4094" lon="2.05607">
        <ele>133</ele>
        <time>2011-04-30T07:42:34Z</time>
      </trkpt>
      <trkpt lat="48.40942" lon="2.05604">
        <ele>133</ele>
        <time>2011-04-30T07:42:35Z</time>
      </trkpt>
      <trkpt lat="48.40943" lon="2.05601">
        <ele>133</ele>
        <time>2011-04-30T07:42:36Z</time>
      </trkpt>
      <trkpt lat="48.40944" lon="2.05598">
        <ele>133</ele>
        <time>2011-04-30T07:42:37Z</time>
      </trkpt>
      <trkpt lat="48.40945" lon="2.05595">
        <ele>133</ele>
        <time>2011-04-30T07:42:38Z</time>
      </trkpt>
      <trkpt lat="48.40946" lon="2.05593">
        <ele>133</ele>
        <time>2011-04-30T07:42:39Z</time>
      </trkpt>
      <trkpt lat="48.40947" lon="2.0559">
        <ele>133</ele>
        <time>2011-04-30T07:42:40Z</time>
      </trkpt>
      <trkpt lat="48.40948" lon="2.05587">
        <ele>133</ele>
        <time>2011-04-30T07:42:41Z</time>
      </trkpt>
      <trkpt lat="48.40949" lon="2.05584">
        <ele>133</ele>
        <time>2011-04-30T07:42:42Z</time>
      </trkpt>
      <trkpt lat="48.4095" lon="2.05581">
        <ele>132</ele>
        <time>2011-04-30T07:42:43Z</time>
      </trkpt>
      <trkpt lat="48.40952" lon="2.05578">
        <ele>132</ele>
        <time>2011-04-30T07:42:44Z</time>
      </trkpt>
      <trkpt lat="48.40952" lon="2.05575">
        <ele>133</ele>
        <time>2011-04-30T07:42:45Z</time>
      </trkpt>
      <trkpt lat="48.40953" lon="2.05572">
        <ele>133</ele>
        <time>2011-04-30T07:42:46Z</time>
      </trkpt>
      <trkpt lat="48.40954" lon="2.05568">
        <ele>133</ele>
        <time>2011-04-30T07:42:47Z</time>
      </trkpt>
      <trkpt lat="48.40954" lon="2.05565">
        <ele>133</ele>
        <time>2011-04-30T07:42:48Z</time>
      </trkpt>
      <trkpt lat="48.40955" lon="2.05561">
        <ele>133</ele>
        <time>2011-04-30T07:42:49Z</time>
      </trkpt>
      <trkpt lat="48.40955" lon="2.05558">
        <ele>133</ele>
        <time>2011-04-30T07:42:50Z</time>
      </trkpt>
      <trkpt lat="48.40956" lon="2.05554">
        <ele>133</ele>
        <time>2011-04-30T07:42:51Z</time>
      </trkpt>
      <trkpt lat="48.40956" lon="2.0555">
        <ele>133</ele>
        <time>2011-04-30T07:42:52Z</time>
      </trkpt>
      <trkpt lat="48.40956" lon="2.05546">
        <ele>133</ele>
        <time>2011-04-30T07:42:53Z</time>
      </trkpt>
      <trkpt lat="48.40956" lon="2.05543">
        <ele>133</ele>
        <time>2011-04-30T07:42:54Z</time>
      </trkpt>
      <trkpt lat="48.40955" lon="2.05539">
        <ele>133</ele>
        <time>2011-04-30T07:42:55Z</time>
      </trkpt>
      <trkpt lat="48.40955" lon="2.05535">
        <ele>133</ele>
        <time>2011-04-30T07:42:56Z</time>
      </trkpt>
      <trkpt lat="48.40955" lon="2.05531">
        <ele>133</ele>
        <time>2011-04-30T07:42:57Z</time>
      </trkpt>
      <trkpt lat="48.40954" lon="2.05528">
        <ele>133</ele>
        <time>2011-04-30T07:42:58Z</time>
      </trkpt>
      <trkpt lat="48.40954" lon="2.05525">
        <ele>133</ele>
        <time>2011-04-30T07:42:59Z</time>
      </trkpt>
      <trkpt lat="48.40953" lon="2.05522">
        <ele>133</ele>
        <time>2011-04-30T07:43:00Z</time>
      </trkpt>
      <trkpt lat="48.40953" lon="2.05518">
        <ele>132</ele>
        <time>2011-04-30T07:43:01Z</time>
      </trkpt>
      <trkpt lat="48.40952" lon="2.05515">
        <ele>132</ele>
        <time>2011-04-30T07:43:02Z</time>
      </trkpt>
      <trkpt lat="48.40951" lon="2.05512">
        <ele>132</ele>
        <time>2011-04-30T07:43:03Z</time>
      </trkpt>
      <trkpt lat="48.4095" lon="2.05509">
        <ele>132</ele>
        <time>2011-04-30T07:43:04Z</time>
      </trkpt>
      <trkpt lat="48.40949" lon="2.05506">
        <ele>132</ele>
        <time>2011-04-30T07:43:05Z</time>
      </trkpt>
      <trkpt lat="48.40948" lon="2.05504">
        <ele>132</ele>
        <time>2011-04-30T07:43:06Z</time>
      </trkpt>
      <trkpt lat="48.40947" lon="2.05501">
        <ele>132</ele>
        <time>2011-04-30T07:43:07Z</time>
      </trkpt>
      <trkpt lat="48.40946" lon="2.05498">
        <ele>131</ele>
        <time>2011-04-30T07:43:08Z</time>
      </trkpt>
      <trkpt lat="48.40946" lon="2.05495">
        <ele>131</ele>
        <time>2011-04-30T07:43:09Z</time>
      </trkpt>
      <trkpt lat="48.40945" lon="2.05492">
        <ele>131</ele>
        <time>2011-04-30T07:43:10Z</time>
      </trkpt>
      <trkpt lat="48.40944" lon="2.05489">
        <ele>131</ele>
        <time>2011-04-30T07:43:11Z</time>
      </trkpt>
      <trkpt lat="48.40943" lon="2.05486">
        <ele>131</ele>
        <time>2011-04-30T07:43:12Z</time>
      </trkpt>
      <trkpt lat="48.40942" lon="2.05483">
        <ele>131</ele>
        <time>2011-04-30T07:43:13Z</time>
      </trkpt>
      <trkpt lat="48.40941" lon="2.0548">
        <ele>131</ele>
        <time>2011-04-30T07:43:14Z</time>
      </trkpt>
      <trkpt lat="48.4094" lon="2.05478">
        <ele>131</ele>
        <time>2011-04-30T07:43:15Z</time>
      </trkpt>
      <trkpt lat="48.40939" lon="2.05475">
        <ele>131</ele>
        <time>2011-04-30T07:43:16Z</time>
      </trkpt>
      <trkpt lat="48.40938" lon="2.05472">
        <ele>131</ele>
        <time>2011-04-30T07:43:17Z</time>
      </trkpt>
      <trkpt lat="48.40937" lon="2.0547">
        <ele>131</ele>
        <time>2011-04-30T07:43:18Z</time>
      </trkpt>
      <trkpt lat="48.40936" lon="2.05467">
        <ele>131</ele>
        <time>2011-04-30T07:43:19Z</time>
      </trkpt>
      <trkpt lat="48.40935" lon="2.05464">
        <ele>131</ele>
        <time>2011-04-30T07:43:20Z</time>
      </trkpt>
      <trkpt lat="48.40934" lon="2.05461">
        <ele>131</ele>
        <time>2011-04-30T07:43:21Z</time>
      </trkpt>
      <trkpt lat="48.40934" lon="2.05457">
        <ele>131</ele>
        <time>2011-04-30T07:43:22Z</time>
      </trkpt>
      <trkpt lat="48.40933" lon="2.05454">
        <ele>131</ele>
        <time>2011-04-30T07:43:23Z</time>
      </trkpt>
      <trkpt lat="48.40933" lon="2.0545">
        <ele>131</ele>
        <time>2011-04-30T07:43:24Z</time>
      </trkpt>
      <trkpt lat="48.40932" lon="2.05447">
        <ele>131</ele>
        <time>2011-04-30T07:43:25Z</time>
      </trkpt>
      <trkpt lat="48.40931" lon="2.05443">
        <ele>130</ele>
        <time>2011-04-30T07:43:26Z</time>
      </trkpt>
      <trkpt lat="48.40931" lon="2.0544">
        <ele>130</ele>
        <time>2011-04-30T07:43:27Z</time>
      </trkpt>
      <trkpt lat="48.4093" lon="2.05437">
        <ele>130</ele>
        <time>2011-04-30T07:43:28Z</time>
      </trkpt>
      <trkpt lat="48.40929" lon="2.05433">
        <ele>130</ele>
        <time>2011-04-30T07:43:29Z</time>
      </trkpt>
      <trkpt lat="48.40928" lon="2.0543">
        <ele>129</ele>
        <time>2011-04-30T07:43:30Z</time>
      </trkpt>
      <trkpt lat="48.40927" lon="2.05427">
        <ele>129</ele>
        <time>2011-04-30T07:43:31Z</time>
      </trkpt>
      <trkpt lat="48.40927" lon="2.05423">
        <ele>129</ele>
        <time>2011-04-30T07:43:32Z</time>
      </trkpt>
      <trkpt lat="48.40926" lon="2.0542">
        <ele>129</ele>
        <time>2011-04-30T07:43:33Z</time>
      </trkpt>
      <trkpt lat="48.40925" lon="2.05416">
        <ele>128</ele>
        <time>2011-04-30T07:43:34Z</time>
      </trkpt>
      <trkpt lat="48.40924" lon="2.05413">
        <ele>128</ele>
        <time>2011-04-30T07:43:35Z</time>
      </trkpt>
      <trkpt lat="48.40923" lon="2.05409">
        <ele>128</ele>
        <time>2011-04-30T07:43:36Z</time>
      </trkpt>
      <trkpt lat="48.40923" lon="2.05406">
        <ele>128</ele>
        <time>2011-04-30T07:43:37Z</time>
      </trkpt>
      <trkpt lat="48.40922" lon="2.05402">
        <ele>128</ele>
        <time>2011-04-30T07:43:38Z</time>
      </trkpt>
      <trkpt lat="48.40921" lon="2.05399">
        <ele>128</ele>
        <time>2011-04-30T07:43:39Z</time>
      </trkpt>
      <trkpt lat="48.4092" lon="2.05395">
        <ele>128</ele>
        <time>2011-04-30T07:43:40Z</time>
      </trkpt>
      <trkpt lat="48.40919" lon="2.05392">
        <ele>128</ele>
        <time>2011-04-30T07:43:41Z</time>
      </trkpt>
      <trkpt lat="48.40918" lon="2.05388">
        <ele>128</ele>
        <time>2011-04-30T07:43:42Z</time>
      </trkpt>
      <trkpt lat="48.40918" lon="2.05385">
        <ele>128</ele>
        <time>2011-04-30T07:43:43Z</time>
      </trkpt>
      <trkpt lat="48.40917" lon="2.05382">
        <ele>128</ele>
        <time>2011-04-30T07:43:44Z</time>
      </trkpt>
      <trkpt lat="48.40916" lon="2.05378">
        <ele>127</ele>
        <time>2011-04-30T07:43:45Z</time>
      </trkpt>
      <trkpt lat="48.40916" lon="2.05375">
        <ele>127</ele>
        <time>2011-04-30T07:43:46Z</time>
      </trkpt>
      <trkpt lat="48.40915" lon="2.05371">
        <ele>127</ele>
        <time>2011-04-30T07:43:47Z</time>
      </trkpt>
      <trkpt lat="48.40914" lon="2.05368">
        <ele>126</ele>
        <time>2011-04-30T07:43:48Z</time>
      </trkpt>
      <trkpt lat="48.40914" lon="2.05365">
        <ele>126</ele>
        <time>2011-04-30T07:43:49Z</time>
      </trkpt>
      <trkpt lat="48.40913" lon="2.05361">
        <ele>126</ele>
        <time>2011-04-30T07:43:50Z</time>
      </trkpt>
      <trkpt lat="48.40912" lon="2.05358">
        <ele>126</ele>
        <time>2011-04-30T07:43:51Z</time>
      </trkpt>
      <trkpt lat="48.40912" lon="2.05355">
        <ele>125</ele>
        <time>2011-04-30T07:43:52Z</time>
      </trkpt>
      <trkpt lat="48.40911" lon="2.05352">
        <ele>125</ele>
        <time>2011-04-30T07:43:53Z</time>
      </trkpt>
      <trkpt lat="48.4091" lon="2.05349">
        <ele>125</ele>
        <time>2011-04-30T07:43:54Z</time>
      </trkpt>
      <trkpt lat="48.40909" lon="2.05346">
        <ele>125</ele>
        <time>2011-04-30T07:43:55Z</time>
      </trkpt>
      <trkpt lat="48.40909" lon="2.05343">
        <ele>124</ele>
        <time>2011-04-30T07:43:56Z</time>
      </trkpt>
      <trkpt lat="48.40908" lon="2.0534">
        <ele>124</ele>
        <time>2011-04-30T07:43:57Z</time>
      </trkpt>
      <trkpt lat="48.40907" lon="2.05337">
        <ele>124</ele>
        <time>2011-04-30T07:43:58Z</time>
      </trkpt>
      <trkpt lat="48.40906" lon="2.05333">
        <ele>124</ele>
        <time>2011-04-30T07:43:59Z</time>
      </trkpt>
      <trkpt lat="48.40905" lon="2.0533">
        <ele>123</ele>
        <time>2011-04-30T07:44:00Z</time>
      </trkpt>
      <trkpt lat="48.40904" lon="2.05327">
        <ele>123</ele>
        <time>2011-04-30T07:44:01Z</time>
      </trkpt>
      <trkpt lat="48.40903" lon="2.05324">
        <ele>123</ele>
        <time>2011-04-30T07:44:02Z</time>
      </trkpt>
      <trkpt lat="48.40902" lon="2.05321">
        <ele>123</ele>
        <time>2011-04-30T07:44:03Z</time>
      </trkpt>
      <trkpt lat="48.40901" lon="2.05317">
        <ele>123</ele>
        <time>2011-04-30T07:44:04Z</time>
      </trkpt>
      <trkpt lat="48.409" lon="2.05314">
        <ele>123</ele>
        <time>2011-04-30T07:44:05Z</time>
      </trkpt>
      <trkpt lat="48.40899" lon="2.0531">
        <ele>123</ele>
        <time>2011-04-30T07:44:06Z</time>
      </trkpt>
      <trkpt lat="48.40898" lon="2.05306">
        <ele>123</ele>
        <time>2011-04-30T07:44:07Z</time>
      </trkpt>
      <trkpt lat="48.40897" lon="2.05302">
        <ele>123</ele>
        <time>2011-04-30T07:44:08Z</time>
      </trkpt>
      <trkpt lat="48.40896" lon="2.05298">
        <ele>123</ele>
        <time>2011-04-30T07:44:09Z</time>
      </trkpt>
      <trkpt lat="48.40895" lon="2.05295">
        <ele>123</ele>
        <time>2011-04-30T07:44:10Z</time>
      </trkpt>
      <trkpt lat="48.40894" lon="2.05291">
        <ele>123</ele>
        <time>2011-04-30T07:44:11Z</time>
      </trkpt>
      <trkpt lat="48.40893" lon="2.05287">
        <ele>123</ele>
        <time>2011-04-30T07:44:12Z</time>
      </trkpt>
      <trkpt lat="48.40893" lon="2.05284">
        <ele>123</ele>
        <time>2011-04-30T07:44:13Z</time>
      </trkpt>
      <trkpt lat="48.40892" lon="2.0528">
        <ele>123</ele>
        <time>2011-04-30T07:44:14Z</time>
      </trkpt>
      <trkpt lat="48.40891" lon="2.05276">
        <ele>123</ele>
        <time>2011-04-30T07:44:15Z</time>
      </trkpt>
      <trkpt lat="48.4089" lon="2.05272">
        <ele>123</ele>
        <time>2011-04-30T07:44:16Z</time>
      </trkpt>
      <trkpt lat="48.40889" lon="2.05269">
        <ele>123</ele>
        <time>2011-04-30T07:44:17Z</time>
      </trkpt>
      <trkpt lat="48.40888" lon="2.05265">
        <ele>123</ele>
        <time>2011-04-30T07:44:18Z</time>
      </trkpt>
      <trkpt lat="48.40886" lon="2.05262">
        <ele>123</ele>
        <time>2011-04-30T07:44:19Z</time>
      </trkpt>
      <trkpt lat="48.40885" lon="2.05259">
        <ele>123</ele>
        <time>2011-04-30T07:44:20Z</time>
      </trkpt>
      <trkpt lat="48.40884" lon="2.05256">
        <ele>123</ele>
        <time>2011-04-30T07:44:21Z</time>
      </trkpt>
      <trkpt lat="48.40882" lon="2.05253">
        <ele>123</ele>
        <time>2011-04-30T07:44:22Z</time>
      </trkpt>
      <trkpt lat="48.40881" lon="2.0525">
        <ele>123</ele>
        <time>2011-04-30T07:44:23Z</time>
      </trkpt>
      <trkpt lat="48.40879" lon="2.05247">
        <ele>123</ele>
        <time>2011-04-30T07:44:24Z</time>
      </trkpt>
      <trkpt lat="48.40878" lon="2.05244">
        <ele>122</ele>
        <time>2011-04-30T07:44:25Z</time>
      </trkpt>
      <trkpt lat="48.40876" lon="2.05242">
        <ele>122</ele>
        <time>2011-04-30T07:44:26Z</time>
      </trkpt>
      <trkpt lat="48.40875" lon="2.05239">
        <ele>122</ele>
        <time>2011-04-30T07:44:27Z</time>
      </trkpt>
      <trkpt lat="48.40873" lon="2.05237">
        <ele>122</ele>
        <time>2011-04-30T07:44:28Z</time>
      </trkpt>
      <trkpt lat="48.40871" lon="2.05234">
        <ele>122</ele>
        <time>2011-04-30T07:44:29Z</time>
      </trkpt>
      <trkpt lat="48.4087" lon="2.05232">
        <ele>122</ele>
        <time>2011-04-30T07:44:30Z</time>
      </trkpt>
      <trkpt lat="48.40868" lon="2.05229">
        <ele>122</ele>
        <time>2011-04-30T07:44:31Z</time>
      </trkpt>
      <trkpt lat="48.40866" lon="2.05227">
        <ele>122</ele>
        <time>2011-04-30T07:44:32Z</time>
      </trkpt>
      <trkpt lat="48.40865" lon="2.05224">
        <ele>122</ele>
        <time>2011-04-30T07:44:33Z</time>
      </trkpt>
      <trkpt lat="48.40863" lon="2.05221">
        <ele>122</ele>
        <time>2011-04-30T07:44:34Z</time>
      </trkpt>
      <trkpt lat="48.40862" lon="2.05219">
        <ele>122</ele>
        <time>2011-04-30T07:44:35Z</time>
      </trkpt>
      <trkpt lat="48.4086" lon="2.05216">
        <ele>122</ele>
        <time>2011-04-30T07:44:36Z</time>
      </trkpt>
      <trkpt lat="48.40858" lon="2.05214">
        <ele>122</ele>
        <time>2011-04-30T07:44:37Z</time>
      </trkpt>
      <trkpt lat="48.40856" lon="2.05212">
        <ele>122</ele>
        <time>2011-04-30T07:44:38Z</time>
      </trkpt>
      <trkpt lat="48.40855" lon="2.05209">
        <ele>122</ele>
        <time>2011-04-30T07:44:39Z</time>
      </trkpt>
      <trkpt lat="48.40853" lon="2.05207">
        <ele>122</ele>
        <time>2011-04-30T07:44:40Z</time>
      </trkpt>
      <trkpt lat="48.40851" lon="2.05204">
        <ele>121</ele>
        <time>2011-04-30T07:44:41Z</time>
      </trkpt>
      <trkpt lat="48.40849" lon="2.05201">
        <ele>121</ele>
        <time>2011-04-30T07:44:42Z</time>
      </trkpt>
      <trkpt lat="48.40847" lon="2.05198">
        <ele>121</ele>
        <time>2011-04-30T07:44:43Z</time>
      </trkpt>
      <trkpt lat="48.40845" lon="2.05195">
        <ele>121</ele>
        <time>2011-04-30T07:44:44Z</time>
      </trkpt>
      <trkpt lat="48.40844" lon="2.05193">
        <ele>121</ele>
        <time>2011-04-30T07:44:45Z</time>
      </trkpt>
      <trkpt lat="48.40842" lon="2.0519">
        <ele>121</ele>
        <time>2011-04-30T07:44:46Z</time>
      </trkpt>
      <trkpt lat="48.4084" lon="2.05187">
        <ele>120</ele>
        <time>2011-04-30T07:44:47Z</time>
      </trkpt>
      <trkpt lat="48.40838" lon="2.05185">
        <ele>120</ele>
        <time>2011-04-30T07:44:48Z</time>
      </trkpt>
      <trkpt lat="48.40837" lon="2.05182">
        <ele>120</ele>
        <time>2011-04-30T07:44:49Z</time>
      </trkpt>
      <trkpt lat="48.40835" lon="2.0518">
        <ele>119</ele>
        <time>2011-04-30T07:44:50Z</time>
      </trkpt>
      <trkpt lat="48.40833" lon="2.05178">
        <ele>118</ele>
        <time>2011-04-30T07:44:51Z</time>
      </trkpt>
      <trkpt lat="48.40832" lon="2.05175">
        <ele>118</ele>
        <time>2011-04-30T07:44:52Z</time>
      </trkpt>
      <trkpt lat="48.40831" lon="2.05173">
        <ele>118</ele>
        <time>2011-04-30T07:44:53Z</time>
      </trkpt>
      <trkpt lat="48.40829" lon="2.05171">
        <ele>118</ele>
        <time>2011-04-30T07:44:54Z</time>
      </trkpt>
      <trkpt lat="48.40828" lon="2.05169">
        <ele>118</ele>
        <time>2011-04-30T07:44:55Z</time>
      </trkpt>
      <trkpt lat="48.40827" lon="2.05168">
        <ele>118</ele>
        <time>2011-04-30T07:44:56Z</time>
      </trkpt>
      <trkpt lat="48.40825" lon="2.05166">
        <ele>117</ele>
        <time>2011-04-30T07:44:57Z</time>
      </trkpt>
      <trkpt lat="48.40824" lon="2.05164">
        <ele>117</ele>
        <time>2011-04-30T07:44:58Z</time>
      </trkpt>
      <trkpt lat="48.40822" lon="2.05161">
        <ele>117</ele>
        <time>2011-04-30T07:44:59Z</time>
      </trkpt>
      <trkpt lat="48.40821" lon="2.05158">
        <ele>117</ele>
        <time>2011-04-30T07:45:00Z</time>
      </trkpt>
      <trkpt lat="48.4082" lon="2.05154">
        <ele>116</ele>
        <time>2011-04-30T07:45:01Z</time>
      </trkpt>
      <trkpt lat="48.40818" lon="2.05151">
        <ele>116</ele>
        <time>2011-04-30T07:45:02Z</time>
      </trkpt>
      <trkpt lat="48.40817" lon="2.05148">
        <ele>116</ele>
        <time>2011-04-30T07:45:03Z</time>
      </trkpt>
      <trkpt lat="48.40816" lon="2.05145">
        <ele>116</ele>
        <time>2011-04-30T07:45:04Z</time>
      </trkpt>
      <trkpt lat="48.40815" lon="2.05142">
        <ele>116</ele>
        <time>2011-04-30T07:45:05Z</time>
      </trkpt>
      <trkpt lat="48.40813" lon="2.05139">
        <ele>116</ele>
        <time>2011-04-30T07:45:06Z</time>
      </trkpt>
      <trkpt lat="48.40812" lon="2.05136">
        <ele>116</ele>
        <time>2011-04-30T07:45:07Z</time>
      </trkpt>
      <trkpt lat="48.40811" lon="2.05133">
        <ele>116</ele>
        <time>2011-04-30T07:45:08Z</time>
      </trkpt>
      <trkpt lat="48.4081" lon="2.05129">
        <ele>116</ele>
        <time>2011-04-30T07:45:09Z</time>
      </trkpt>
      <trkpt lat="48.40809" lon="2.05125">
        <ele>116</ele>
        <time>2011-04-30T07:45:10Z</time>
      </trkpt>
      <trkpt lat="48.40808" lon="2.05121">
        <ele>116</ele>
        <time>2011-04-30T07:45:11Z</time>
      </trkpt>
      <trkpt lat="48.40807" lon="2.05116">
        <ele>116</ele>
        <time>2011-04-30T07:45:12Z</time>
      </trkpt>
      <trkpt lat="48.40806" lon="2.05112">
        <ele>115</ele>
        <time>2011-04-30T07:45:13Z</time>
      </trkpt>
      <trkpt lat="48.40805" lon="2.05107">
        <ele>115</ele>
        <time>2011-04-30T07:45:14Z</time>
      </trkpt>
      <trkpt lat="48.40804" lon="2.05102">
        <ele>115</ele>
        <time>2011-04-30T07:45:15Z</time>
      </trkpt>
      <trkpt lat="48.40803" lon="2.05098">
        <ele>115</ele>
        <time>2011-04-30T07:45:16Z</time>
      </trkpt>
      <trkpt lat="48.40802" lon="2.05093">
        <ele>115</ele>
        <time>2011-04-30T07:45:17Z</time>
      </trkpt>
      <trkpt lat="48.40802" lon="2.05088">
        <ele>115</ele>
        <time>2011-04-30T07:45:18Z</time>
      </trkpt>
      <trkpt lat="48.40801" lon="2.05084">
        <ele>115</ele>
        <time>2011-04-30T07:45:19Z</time>
      </trkpt>
      <trkpt lat="48.40801" lon="2.05079">
        <ele>112</ele>
        <time>2011-04-30T07:45:20Z</time>
      </trkpt>
      <trkpt lat="48.408" lon="2.05075">
        <ele>111</ele>
        <time>2011-04-30T07:45:21Z</time>
      </trkpt>
      <trkpt lat="48.408" lon="2.05071">
        <ele>111</ele>
        <time>2011-04-30T07:45:22Z</time>
      </trkpt>
      <trkpt lat="48.408" lon="2.05067">
        <ele>111</ele>
        <time>2011-04-30T07:45:23Z</time>
      </trkpt>
      <trkpt lat="48.40799" lon="2.05063">
        <ele>111</ele>
        <time>2011-04-30T07:45:24Z</time>
      </trkpt>
      <trkpt lat="48.40799" lon="2.0506">
        <ele>111</ele>
        <time>2011-04-30T07:45:25Z</time>
      </trkpt>
      <trkpt lat="48.40798" lon="2.05057">
        <ele>111</ele>
        <time>2011-04-30T07:45:26Z</time>
      </trkpt>
      <trkpt lat="48.40798" lon="2.05053">
        <ele>110</ele>
        <time>2011-04-30T07:45:27Z</time>
      </trkpt>
      <trkpt lat="48.40798" lon="2.0505">
        <ele>110</ele>
        <time>2011-04-30T07:45:28Z</time>
      </trkpt>
      <trkpt lat="48.40798" lon="2.05047">
        <ele>110</ele>
        <time>2011-04-30T07:45:29Z</time>
      </trkpt>
      <trkpt lat="48.40797" lon="2.05044">
        <ele>110</ele>
        <time>2011-04-30T07:45:30Z</time>
      </trkpt>
      <trkpt lat="48.40797" lon="2.05041">
        <ele>110</ele>
        <time>2011-04-30T07:45:31Z</time>
      </trkpt>
      <trkpt lat="48.40797" lon="2.05038">
        <ele>110</ele>
        <time>2011-04-30T07:45:32Z</time>
      </trkpt>
      <trkpt lat="48.40796" lon="2.05036">
        <ele>110</ele>
        <time>2011-04-30T07:45:33Z</time>
      </trkpt>
      <trkpt lat="48.40796" lon="2.05033">
        <ele>110</ele>
        <time>2011-04-30T07:45:34Z</time>
      </trkpt>
      <trkpt lat="48.40795" lon="2.0503">
        <ele>110</ele>
        <time>2011-04-30T07:45:35Z</time>
      </trkpt>
      <trkpt lat="48.40794" lon="2.05027">
        <ele>109</ele>
        <time>2011-04-30T07:45:36Z</time>
      </trkpt>
      <trkpt lat="48.40793" lon="2.05024">
        <ele>109</ele>
        <time>2011-04-30T07:45:37Z</time>
      </trkpt>
      <trkpt lat="48.40792" lon="2.0502">
        <ele>109</ele>
        <time>2011-04-30T07:45:38Z</time>
      </trkpt>
      <trkpt lat="48.40791" lon="2.05017">
        <ele>109</ele>
        <time>2011-04-30T07:45:39Z</time>
      </trkpt>
      <trkpt lat="48.4079" lon="2.05014">
        <ele>109</ele>
        <time>2011-04-30T07:45:40Z</time>
      </trkpt>
      <trkpt lat="48.40788" lon="2.05011">
        <ele>109</ele>
        <time>2011-04-30T07:45:41Z</time>
      </trkpt>
      <trkpt lat="48.40787" lon="2.05007">
        <ele>109</ele>
        <time>2011-04-30T07:45:42Z</time>
      </trkpt>
      <trkpt lat="48.40786" lon="2.05004">
        <ele>108</ele>
        <time>2011-04-30T07:45:43Z</time>
      </trkpt>
      <trkpt lat="48.40785" lon="2.05001">
        <ele>108</ele>
        <time>2011-04-30T07:45:44Z</time>
      </trkpt>
      <trkpt lat="48.40784" lon="2.04997">
        <ele>104</ele>
        <time>2011-04-30T07:45:45Z</time>
      </trkpt>
      <trkpt lat="48.40783" lon="2.04994">
        <ele>104</ele>
        <time>2011-04-30T07:45:46Z</time>
      </trkpt>
      <trkpt lat="48.40782" lon="2.0499">
        <ele>104</ele>
        <time>2011-04-30T07:45:47Z</time>
      </trkpt>
      <trkpt lat="48.40781" lon="2.04986">
        <ele>104</ele>
        <time>2011-04-30T07:45:48Z</time>
      </trkpt>
      <trkpt lat="48.40781" lon="2.04983">
        <ele>104</ele>
        <time>2011-04-30T07:45:49Z</time>
      </trkpt>
      <trkpt lat="48.4078" lon="2.0498">
        <ele>104</ele>
        <time>2011-04-30T07:45:50Z</time>
      </trkpt>
      <trkpt lat="48.40779" lon="2.04977">
        <ele>104</ele>
        <time>2011-04-30T07:45:51Z</time>
      </trkpt>
      <trkpt lat="48.40779" lon="2.04975">
        <ele>104</ele>
        <time>2011-04-30T07:45:52Z</time>
      </trkpt>
      <trkpt lat="48.40778" lon="2.04972">
        <ele>103</ele>
        <time>2011-04-30T07:45:53Z</time>
      </trkpt>
      <trkpt lat="48.40777" lon="2.0497">
        <ele>103</ele>
        <time>2011-04-30T07:45:54Z</time>
      </trkpt>
      <trkpt lat="48.40776" lon="2.04968">
        <ele>103</ele>
        <time>2011-04-30T07:45:55Z</time>
      </trkpt>
      <trkpt lat="48.40775" lon="2.04965">
        <ele>103</ele>
        <time>2011-04-30T07:45:56Z</time>
      </trkpt>
      <trkpt lat="48.40775" lon="2.04962">
        <ele>103</ele>
        <time>2011-04-30T07:45:57Z</time>
      </trkpt>
      <trkpt lat="48.40775" lon="2.04959">
        <ele>103</ele>
        <time>2011-04-30T07:45:58Z</time>
      </trkpt>
      <trkpt lat="48.40775" lon="2.04957">
        <ele>103</ele>
        <time>2011-04-30T07:45:59Z</time>
      </trkpt>
      <trkpt lat="48.40776" lon="2.04955">
        <ele>103</ele>
        <time>2011-04-30T07:46:00Z</time>
      </trkpt>
      <trkpt lat="48.40776" lon="2.04952">
        <ele>103</ele>
        <time>2011-04-30T07:46:01Z</time>
      </trkpt>
      <trkpt lat="48.40777" lon="2.04949">
        <ele>103</ele>
        <time>2011-04-30T07:46:02Z</time>
      </trkpt>
      <trkpt lat="48.40777" lon="2.04946">
        <ele>102</ele>
        <time>2011-04-30T07:46:03Z</time>
      </trkpt>
      <trkpt lat="48.40777" lon="2.04943">
        <ele>102</ele>
        <time>2011-04-30T07:46:04Z</time>
      </trkpt>
      <trkpt lat="48.40777" lon="2.0494">
        <ele>102</ele>
        <time>2011-04-30T07:46:05Z</time>
      </trkpt>
      <trkpt lat="48.40777" lon="2.04938">
        <ele>102</ele>
        <time>2011-04-30T07:46:06Z</time>
      </trkpt>
      <trkpt lat="48.40776" lon="2.04935">
        <ele>102</ele>
        <time>2011-04-30T07:46:07Z</time>
      </trkpt>
      <trkpt lat="48.40776" lon="2.04932">
        <ele>102</ele>
        <time>2011-04-30T07:46:08Z</time>
      </trkpt>
      <trkpt lat="48.40775" lon="2.04929">
        <ele>102</ele>
        <time>2011-04-30T07:46:09Z</time>
      </trkpt>
      <trkpt lat="48.40775" lon="2.04926">
        <ele>102</ele>
        <time>2011-04-30T07:46:10Z</time>
      </trkpt>
      <trkpt lat="48.40775" lon="2.04923">
        <ele>102</ele>
        <time>2011-04-30T07:46:11Z</time>
      </trkpt>
      <trkpt lat="48.40774" lon="2.0492">
        <ele>102</ele>
        <time>2011-04-30T07:46:12Z</time>
      </trkpt>
      <trkpt lat="48.40774" lon="2.04917">
        <ele>102</ele>
        <time>2011-04-30T07:46:13Z</time>
      </trkpt>
      <trkpt lat="48.40774" lon="2.04914">
        <ele>100</ele>
        <time>2011-04-30T07:46:14Z</time>
      </trkpt>
      <trkpt lat="48.40774" lon="2.04911">
        <ele>100</ele>
        <time>2011-04-30T07:46:15Z</time>
      </trkpt>
      <trkpt lat="48.40775" lon="2.04907">
        <ele>100</ele>
        <time>2011-04-30T07:46:16Z</time>
      </trkpt>
      <trkpt lat="48.40776" lon="2.04904">
        <ele>100</ele>
        <time>2011-04-30T07:46:17Z</time>
      </trkpt>
      <trkpt lat="48.40776" lon="2.049">
        <ele>100</ele>
        <time>2011-04-30T07:46:18Z</time>
      </trkpt>
      <trkpt lat="48.40777" lon="2.04897">
        <ele>100</ele>
        <time>2011-04-30T07:46:19Z</time>
      </trkpt>
      <trkpt lat="48.40778" lon="2.04894">
        <ele>100</ele>
        <time>2011-04-30T07:46:20Z</time>
      </trkpt>
      <trkpt lat="48.40779" lon="2.04892">
        <ele>100</ele>
        <time>2011-04-30T07:46:21Z</time>
      </trkpt>
      <trkpt lat="48.4078" lon="2.04889">
        <ele>100</ele>
        <time>2011-04-30T07:46:22Z</time>
      </trkpt>
      <trkpt lat="48.40781" lon="2.04886">
        <ele>100</ele>
        <time>2011-04-30T07:46:23Z</time>
      </trkpt>
      <trkpt lat="48.40782" lon="2.04884">
        <ele>100</ele>
        <time>2011-04-30T07:46:24Z</time>
      </trkpt>
      <trkpt lat="48.40783" lon="2.04881">
        <ele>100</ele>
        <time>2011-04-30T07:46:25Z</time>
      </trkpt>
      <trkpt lat="48.40784" lon="2.04879">
        <ele>100</ele>
        <time>2011-04-30T07:46:26Z</time>
      </trkpt>
      <trkpt lat="48.40785" lon="2.04877">
        <ele>100</ele>
        <time>2011-04-30T07:46:27Z</time>
      </trkpt>
      <trkpt lat="48.40787" lon="2.04875">
        <ele>100</ele>
        <time>2011-04-30T07:46:28Z</time>
      </trkpt>
      <trkpt lat="48.40788" lon="2.04873">
        <ele>100</ele>
        <time>2011-04-30T07:46:29Z</time>
      </trkpt>
      <trkpt lat="48.40789" lon="2.04871">
        <ele>100</ele>
        <time>2011-04-30T07:46:30Z</time>
      </trkpt>
      <trkpt lat="48.4079" lon="2.04868">
        <ele>100</ele>
        <time>2011-04-30T07:46:31Z</time>
      </trkpt>
      <trkpt lat="48.40791" lon="2.04866">
        <ele>100</ele>
        <time>2011-04-30T07:46:32Z</time>
      </trkpt>
      <trkpt lat="48.40792" lon="2.04863">
        <ele>100</ele>
        <time>2011-04-30T07:46:33Z</time>
      </trkpt>
      <trkpt lat="48.40793" lon="2.0486">
        <ele>100</ele>
        <time>2011-04-30T07:46:34Z</time>
      </trkpt>
      <trkpt lat="48.40794" lon="2.04858">
        <ele>100</ele>
        <time>2011-04-30T07:46:35Z</time>
      </trkpt>
      <trkpt lat="48.40795" lon="2.04855">
        <ele>100</ele>
        <time>2011-04-30T07:46:36Z</time>
      </trkpt>
      <trkpt lat="48.40796" lon="2.04853">
        <ele>100</ele>
        <time>2011-04-30T07:46:37Z</time>
      </trkpt>
      <trkpt lat="48.40797" lon="2.04851">
        <ele>100</ele>
        <time>2011-04-30T07:46:38Z</time>
      </trkpt>
      <trkpt lat="48.40798" lon="2.04849">
        <ele>100</ele>
        <time>2011-04-30T07:46:39Z</time>
      </trkpt>
      <trkpt lat="48.408" lon="2.04846">
        <ele>100</ele>
        <time>2011-04-30T07:46:40Z</time>
      </trkpt>
      <trkpt lat="48.40801" lon="2.04844">
        <ele>99</ele>
        <time>2011-04-30T07:46:41Z</time>
      </trkpt>
      <trkpt lat="48.40802" lon="2.04842">
        <ele>99</ele>
        <time>2011-04-30T07:46:42Z</time>
      </trkpt>
      <trkpt lat="48.40803" lon="2.04841">
        <ele>99</ele>
        <time>2011-04-30T07:46:43Z</time>
      </trkpt>
      <trkpt lat="48.40804" lon="2.04838">
        <ele>99</ele>
        <time>2011-04-30T07:46:44Z</time>
      </trkpt>
      <trkpt lat="48.40806" lon="2.04836">
        <ele>99</ele>
        <time>2011-04-30T07:46:45Z</time>
      </trkpt>
      <trkpt lat="48.40808" lon="2.04834">
        <ele>99</ele>
        <time>2011-04-30T07:46:46Z</time>
      </trkpt>
      <trkpt lat="48.40809" lon="2.04832">
        <ele>100</ele>
        <time>2011-04-30T07:46:47Z</time>
      </trkpt>
      <trkpt lat="48.40811" lon="2.0483">
        <ele>100</ele>
        <time>2011-04-30T07:46:48Z</time>
      </trkpt>
      <trkpt lat="48.40812" lon="2.04828">
        <ele>100</ele>
        <time>2011-04-30T07:46:49Z</time>
      </trkpt>
      <trkpt lat="48.40814" lon="2.04826">
        <ele>100</ele>
        <time>2011-04-30T07:46:50Z</time>
      </trkpt>
      <trkpt lat="48.40815" lon="2.04823">
        <ele>99</ele>
        <time>2011-04-30T07:46:51Z</time>
      </trkpt>
      <trkpt lat="48.40816" lon="2.04821">
        <ele>99</ele>
        <time>2011-04-30T07:46:52Z</time>
      </trkpt>
      <trkpt lat="48.40817" lon="2.04819">
        <ele>99</ele>
        <time>2011-04-30T07:46:53Z</time>
      </trkpt>
      <trkpt lat="48.40818" lon="2.04817">
        <ele>100</ele>
        <time>2011-04-30T07:46:54Z</time>
      </trkpt>
      <trkpt lat="48.40819" lon="2.04815">
        <ele>100</ele>
        <time>2011-04-30T07:46:55Z</time>
      </trkpt>
      <trkpt lat="48.4082" lon="2.04813">
        <ele>100</ele>
        <time>2011-04-30T07:46:56Z</time>
      </trkpt>
      <trkpt lat="48.40821" lon="2.0481">
        <ele>100</ele>
        <time>2011-04-30T07:46:57Z</time>
      </trkpt>
      <trkpt lat="48.40821" lon="2.04808">
        <ele>100</ele>
        <time>2011-04-30T07:46:58Z</time>
      </trkpt>
      <trkpt lat="48.40822" lon="2.04805">
        <ele>100</ele>
        <time>2011-04-30T07:46:59Z</time>
      </trkpt>
      <trkpt lat="48.40823" lon="2.04802">
        <ele>100</ele>
        <time>2011-04-30T07:47:00Z</time>
      </trkpt>
      <trkpt lat="48.40823" lon="2.04799">
        <ele>100</ele>
        <time>2011-04-30T07:47:01Z</time>
      </trkpt>
      <trkpt lat="48.40823" lon="2.04796">
        <ele>100</ele>
        <time>2011-04-30T07:47:02Z</time>
      </trkpt>
      <trkpt lat="48.40823" lon="2.04793">
        <ele>101</ele>
        <time>2011-04-30T07:47:03Z</time>
      </trkpt>
      <trkpt lat="48.40823" lon="2.04789">
        <ele>101</ele>
        <time>2011-04-30T07:47:04Z</time>
      </trkpt>
      <trkpt lat="48.40823" lon="2.04786">
        <ele>101</ele>
        <time>2011-04-30T07:47:05Z</time>
      </trkpt>
      <trkpt lat="48.40823" lon="2.04783">
        <ele>101</ele>
        <time>2011-04-30T07:47:06Z</time>
      </trkpt>
      <trkpt lat="48.40823" lon="2.0478">
        <ele>101</ele>
        <time>2011-04-30T07:47:07Z</time>
      </trkpt>
      <trkpt lat="48.40822" lon="2.04777">
        <ele>100</ele>
        <time>2011-04-30T07:47:08Z</time>
      </trkpt>
      <trkpt lat="48.40822" lon="2.04774">
        <ele>100</ele>
        <time>2011-04-30T07:47:09Z</time>
      </trkpt>
      <trkpt lat="48.40821" lon="2.0477">
        <ele>100</ele>
        <time>2011-04-30T07:47:10Z</time>
      </trkpt>
      <trkpt lat="48.4082" lon="2.04767">
        <ele>100</ele>
        <time>2011-04-30T07:47:11Z</time>
      </trkpt>
      <trkpt lat="48.40819" lon="2.04764">
        <ele>100</ele>
        <time>2011-04-30T07:47:12Z</time>
      </trkpt>
      <trkpt lat="48.40819" lon="2.0476">
        <ele>100</ele>
        <time>2011-04-30T07:47:13Z</time>
      </trkpt>
      <trkpt lat="48.40818" lon="2.04757">
        <ele>100</ele>
        <time>2011-04-30T07:47:14Z</time>
      </trkpt>
      <trkpt lat="48.40817" lon="2.04753">
        <ele>100</ele>
        <time>2011-04-30T07:47:15Z</time>
      </trkpt>
      <trkpt lat="48.40816" lon="2.04749">
        <ele>101</ele>
        <time>2011-04-30T07:47:16Z</time>
      </trkpt>
      <trkpt lat="48.40815" lon="2.04745">
        <ele>101</ele>
        <time>2011-04-30T07:47:17Z</time>
      </trkpt>
      <trkpt lat="48.40814" lon="2.04742">
        <ele>101</ele>
        <time>2011-04-30T07:47:18Z</time>
      </trkpt>
      <trkpt lat="48.40813" lon="2.04738">
        <ele>102</ele>
        <time>2011-04-30T07:47:19Z</time>
      </trkpt>
      <trkpt lat="48.40812" lon="2.04735">
        <ele>102</ele>
        <time>2011-04-30T07:47:20Z</time>
      </trkpt>
      <trkpt lat="48.40811" lon="2.04732">
        <ele>102</ele>
        <time>2011-04-30T07:47:21Z</time>
      </trkpt>
      <trkpt lat="48.4081" lon="2.04729">
        <ele>102</ele>
        <time>2011-04-30T07:47:22Z</time>
      </trkpt>
      <trkpt lat="48.40809" lon="2.04726">
        <ele>103</ele>
        <time>2011-04-30T07:47:23Z</time>
      </trkpt>
      <trkpt lat="48.40807" lon="2.04723">
        <ele>103</ele>
        <time>2011-04-30T07:47:24Z</time>
      </trkpt>
      <trkpt lat="48.40806" lon="2.0472">
        <ele>103</ele>
        <time>2011-04-30T07:47:25Z</time>
      </trkpt>
      <trkpt lat="48.40805" lon="2.04717">
        <ele>103</ele>
        <time>2011-04-30T07:47:26Z</time>
      </trkpt>
      <trkpt lat="48.40804" lon="2.04714">
        <ele>103</ele>
        <time>2011-04-30T07:47:27Z</time>
      </trkpt>
      <trkpt lat="48.40803" lon="2.04711">
        <ele>103</ele>
        <time>2011-04-30T07:47:28Z</time>
      </trkpt>
      <trkpt lat="48.40802" lon="2.04708">
        <ele>104</ele>
        <time>2011-04-30T07:47:29Z</time>
      </trkpt>
      <trkpt lat="48.40801" lon="2.04705">
        <ele>104</ele>
        <time>2011-04-30T07:47:30Z</time>
      </trkpt>
      <trkpt lat="48.408" lon="2.04702">
        <ele>104</ele>
        <time>2011-04-30T07:47:31Z</time>
      </trkpt>
      <trkpt lat="48.408" lon="2.04699">
        <ele>104</ele>
        <time>2011-04-30T07:47:32Z</time>
      </trkpt>
      <trkpt lat="48.40799" lon="2.04696">
        <ele>104</ele>
        <time>2011-04-30T07:47:33Z</time>
      </trkpt>
      <trkpt lat="48.40798" lon="2.04693">
        <ele>104</ele>
        <time>2011-04-30T07:47:34Z</time>
      </trkpt>
      <trkpt lat="48.40798" lon="2.04689">
        <ele>104</ele>
        <time>2011-04-30T07:47:35Z</time>
      </trkpt>
      <trkpt lat="48.40798" lon="2.04686">
        <ele>104</ele>
        <time>2011-04-30T07:47:36Z</time>
      </trkpt>
      <trkpt lat="48.40797" lon="2.04683">
        <ele>104</ele>
        <time>2011-04-30T07:47:37Z</time>
      </trkpt>
      <trkpt lat="48.40796" lon="2.0468">
        <ele>104</ele>
        <time>2011-04-30T07:47:38Z</time>
      </trkpt>
      <trkpt lat="48.40796" lon="2.04676">
        <ele>104</ele>
        <time>2011-04-30T07:47:39Z</time>
      </trkpt>
      <trkpt lat="48.40795" lon="2.04673">
        <ele>104</ele>
        <time>2011-04-30T07:47:40Z</time>
      </trkpt>
      <trkpt lat="48.40794" lon="2.0467">
        <ele>104</ele>
        <time>2011-04-30T07:47:41Z</time>
      </trkpt>
      <trkpt lat="48.40794" lon="2.04667">
        <ele>104</ele>
        <time>2011-04-30T07:47:42Z</time>
      </trkpt>
      <trkpt lat="48.40793" lon="2.04664">
        <ele>104</ele>
        <time>2011-04-30T07:47:43Z</time>
      </trkpt>
      <trkpt lat="48.40792" lon="2.04661">
        <ele>104</ele>
        <time>2011-04-30T07:47:44Z</time>
      </trkpt>
      <trkpt lat="48.40791" lon="2.04658">
        <ele>104</ele>
        <time>2011-04-30T07:47:45Z</time>
      </trkpt>
      <trkpt lat="48.40791" lon="2.04655">
        <ele>104</ele>
        <time>2011-04-30T07:47:46Z</time>
      </trkpt>
      <trkpt lat="48.4079" lon="2.04652">
        <ele>104</ele>
        <time>2011-04-30T07:47:47Z</time>
      </trkpt>
      <trkpt lat="48.40789" lon="2.0465">
        <ele>104</ele>
        <time>2011-04-30T07:47:48Z</time>
      </trkpt>
      <trkpt lat="48.40788" lon="2.04647">
        <ele>104</ele>
        <time>2011-04-30T07:47:49Z</time>
      </trkpt>
      <trkpt lat="48.40787" lon="2.04644">
        <ele>104</ele>
        <time>2011-04-30T07:47:50Z</time>
      </trkpt>
      <trkpt lat="48.40786" lon="2.04642">
        <ele>104</ele>
        <time>2011-04-30T07:47:51Z</time>
      </trkpt>
      <trkpt lat="48.40785" lon="2.04641">
        <ele>104</ele>
        <time>2011-04-30T07:47:52Z</time>
      </trkpt>
      <trkpt lat="48.40784" lon="2.04639">
        <ele>104</ele>
        <time>2011-04-30T07:47:53Z</time>
      </trkpt>
      <trkpt lat="48.40783" lon="2.04637">
        <ele>104</ele>
        <time>2011-04-30T07:47:54Z</time>
      </trkpt>
      <trkpt lat="48.40782" lon="2.04635">
        <ele>104</ele>
        <time>2011-04-30T07:47:55Z</time>
      </trkpt>
      <trkpt lat="48.40782" lon="2.04632">
        <ele>104</ele>
        <time>2011-04-30T07:47:56Z</time>
      </trkpt>
      <trkpt lat="48.40781" lon="2.0463">
        <ele>104</ele>
        <time>2011-04-30T07:47:57Z</time>
      </trkpt>
      <trkpt lat="48.4078" lon="2.04627">
        <ele>104</ele>
        <time>2011-04-30T07:47:58Z</time>
      </trkpt>
      <trkpt lat="48.4078" lon="2.04625">
        <ele>104</ele>
        <time>2011-04-30T07:47:59Z</time>
      </trkpt>
      <trkpt lat="48.40779" lon="2.04623">
        <ele>104</ele>
        <time>2011-04-30T07:48:00Z</time>
      </trkpt>
      <trkpt lat="48.40778" lon="2.0462">
        <ele>104</ele>
        <time>2011-04-30T07:48:01Z</time>
      </trkpt>
      <trkpt lat="48.40777" lon="2.04618">
        <ele>105</ele>
        <time>2011-04-30T07:48:02Z</time>
      </trkpt>
      <trkpt lat="48.40776" lon="2.04616">
        <ele>105</ele>
        <time>2011-04-30T07:48:03Z</time>
      </trkpt>
      <trkpt lat="48.40775" lon="2.04613">
        <ele>105</ele>
        <time>2011-04-30T07:48:04Z</time>
      </trkpt>
      <trkpt lat="48.40774" lon="2.04611">
        <ele>105</ele>
        <time>2011-04-30T07:48:05Z</time>
      </trkpt>
      <trkpt lat="48.40773" lon="2.04608">
        <ele>105</ele>
        <time>2011-04-30T07:48:06Z</time>
      </trkpt>
      <trkpt lat="48.40772" lon="2.04606">
        <ele>105</ele>
        <time>2011-04-30T07:48:07Z</time>
      </trkpt>
      <trkpt lat="48.4077" lon="2.04603">
        <ele>105</ele>
        <time>2011-04-30T07:48:08Z</time>
      </trkpt>
      <trkpt lat="48.40769" lon="2.04601">
        <ele>105</ele>
        <time>2011-04-30T07:48:09Z</time>
      </trkpt>
      <trkpt lat="48.40768" lon="2.04598">
        <ele>106</ele>
        <time>2011-04-30T07:48:10Z</time>
      </trkpt>
      <trkpt lat="48.40766" lon="2.04596">
        <ele>106</ele>
        <time>2011-04-30T07:48:11Z</time>
      </trkpt>
      <trkpt lat="48.40764" lon="2.04594">
        <ele>106</ele>
        <time>2011-04-30T07:48:12Z</time>
      </trkpt>
      <trkpt lat="48.40762" lon="2.04591">
        <ele>106</ele>
        <time>2011-04-30T07:48:13Z</time>
      </trkpt>
      <trkpt lat="48.40761" lon="2.04589">
        <ele>107</ele>
        <time>2011-04-30T07:48:14Z</time>
      </trkpt>
      <trkpt lat="48.40759" lon="2.04587">
        <ele>107</ele>
        <time>2011-04-30T07:48:15Z</time>
      </trkpt>
      <trkpt lat="48.40757" lon="2.04585">
        <ele>107</ele>
        <time>2011-04-30T07:48:16Z</time>
      </trkpt>
      <trkpt lat="48.40756" lon="2.04584">
        <ele>108</ele>
        <time>2011-04-30T07:48:17Z</time>
      </trkpt>
      <trkpt lat="48.40755" lon="2.04582">
        <ele>107</ele>
        <time>2011-04-30T07:48:18Z</time>
      </trkpt>
      <trkpt lat="48.40754" lon="2.0458">
        <ele>107</ele>
        <time>2011-04-30T07:48:19Z</time>
      </trkpt>
      <trkpt lat="48.40752" lon="2.04578">
        <ele>107</ele>
        <time>2011-04-30T07:48:20Z</time>
      </trkpt>
      <trkpt lat="48.40751" lon="2.04575">
        <ele>107</ele>
        <time>2011-04-30T07:48:21Z</time>
      </trkpt>
      <trkpt lat="48.4075" lon="2.04572">
        <ele>111</ele>
        <time>2011-04-30T07:48:22Z</time>
      </trkpt>
      <trkpt lat="48.40748" lon="2.0457">
        <ele>111</ele>
        <time>2011-04-30T07:48:23Z</time>
      </trkpt>
      <trkpt lat="48.40747" lon="2.04566">
        <ele>111</ele>
        <time>2011-04-30T07:48:24Z</time>
      </trkpt>
      <trkpt lat="48.40746" lon="2.04563">
        <ele>112</ele>
        <time>2011-04-30T07:48:25Z</time>
      </trkpt>
      <trkpt lat="48.40745" lon="2.04559">
        <ele>112</ele>
        <time>2011-04-30T07:48:26Z</time>
      </trkpt>
      <trkpt lat="48.40744" lon="2.04556">
        <ele>112</ele>
        <time>2011-04-30T07:48:27Z</time>
      </trkpt>
      <trkpt lat="48.40743" lon="2.04552">
        <ele>112</ele>
        <time>2011-04-30T07:48:28Z</time>
      </trkpt>
      <trkpt lat="48.40742" lon="2.04549">
        <ele>112</ele>
        <time>2011-04-30T07:48:29Z</time>
      </trkpt>
      <trkpt lat="48.40741" lon="2.04545">
        <ele>112</ele>
        <time>2011-04-30T07:48:30Z</time>
      </trkpt>
      <trkpt lat="48.4074" lon="2.04542">
        <ele>112</ele>
        <time>2011-04-30T07:48:31Z</time>
      </trkpt>
      <trkpt lat="48.40739" lon="2.04539">
        <ele>112</ele>
        <time>2011-04-30T07:48:32Z</time>
      </trkpt>
      <trkpt lat="48.40738" lon="2.04536">
        <ele>111</ele>
        <time>2011-04-30T07:48:33Z</time>
      </trkpt>
      <trkpt lat="48.40737" lon="2.04533">
        <ele>111</ele>
        <time>2011-04-30T07:48:34Z</time>
      </trkpt>
      <trkpt lat="48.40736" lon="2.04531">
        <ele>111</ele>
        <time>2011-04-30T07:48:35Z</time>
      </trkpt>
      <trkpt lat="48.40735" lon="2.04528">
        <ele>111</ele>
        <time>2011-04-30T07:48:36Z</time>
      </trkpt>
      <trkpt lat="48.40733" lon="2.04525">
        <ele>111</ele>
        <time>2011-04-30T07:48:37Z</time>
      </trkpt>
      <trkpt lat="48.40732" lon="2.04521">
        <ele>111</ele>
        <time>2011-04-30T07:48:38Z</time>
      </trkpt>
      <trkpt lat="48.40731" lon="2.04518">
        <ele>110</ele>
        <time>2011-04-30T07:48:39Z</time>
      </trkpt>
      <trkpt lat="48.4073" lon="2.04515">
        <ele>110</ele>
        <time>2011-04-30T07:48:40Z</time>
      </trkpt>
      <trkpt lat="48.40728" lon="2.04512">
        <ele>110</ele>
        <time>2011-04-30T07:48:41Z</time>
      </trkpt>
      <trkpt lat="48.40727" lon="2.04509">
        <ele>110</ele>
        <time>2011-04-30T07:48:42Z</time>
      </trkpt>
      <trkpt lat="48.40726" lon="2.04506">
        <ele>110</ele>
        <time>2011-04-30T07:48:43Z</time>
      </trkpt>
      <trkpt lat="48.40725" lon="2.04503">
        <ele>110</ele>
        <time>2011-04-30T07:48:44Z</time>
      </trkpt>
      <trkpt lat="48.40723" lon="2.04501">
        <ele>111</ele>
        <time>2011-04-30T07:48:45Z</time>
      </trkpt>
      <trkpt lat="48.40722" lon="2.04498">
        <ele>106</ele>
        <time>2011-04-30T07:48:46Z</time>
      </trkpt>
      <trkpt lat="48.40721" lon="2.04494">
        <ele>106</ele>
        <time>2011-04-30T07:48:47Z</time>
      </trkpt>
      <trkpt lat="48.4072" lon="2.04491">
        <ele>106</ele>
        <time>2011-04-30T07:48:48Z</time>
      </trkpt>
      <trkpt lat="48.40718" lon="2.04487">
        <ele>107</ele>
        <time>2011-04-30T07:48:49Z</time>
      </trkpt>
      <trkpt lat="48.40717" lon="2.04484">
        <ele>107</ele>
        <time>2011-04-30T07:48:50Z</time>
      </trkpt>
      <trkpt lat="48.40716" lon="2.04482">
        <ele>107</ele>
        <time>2011-04-30T07:48:51Z</time>
      </trkpt>
      <trkpt lat="48.40714" lon="2.04479">
        <ele>107</ele>
        <time>2011-04-30T07:48:52Z</time>
      </trkpt>
      <trkpt lat="48.40713" lon="2.04476">
        <ele>107</ele>
        <time>2011-04-30T07:48:53Z</time>
      </trkpt>
      <trkpt lat="48.40711" lon="2.04474">
        <ele>107</ele>
        <time>2011-04-30T07:48:54Z</time>
      </trkpt>
      <trkpt lat="48.4071" lon="2.04472">
        <ele>107</ele>
        <time>2011-04-30T07:48:55Z</time>
      </trkpt>
      <trkpt lat="48.40708" lon="2.04469">
        <ele>107</ele>
        <time>2011-04-30T07:48:56Z</time>
      </trkpt>
      <trkpt lat="48.40706" lon="2.04467">
        <ele>107</ele>
        <time>2011-04-30T07:48:57Z</time>
      </trkpt>
      <trkpt lat="48.40705" lon="2.04464">
        <ele>107</ele>
        <time>2011-04-30T07:48:58Z</time>
      </trkpt>
      <trkpt lat="48.40704" lon="2.04462">
        <ele>107</ele>
        <time>2011-04-30T07:48:59Z</time>
      </trkpt>
      <trkpt lat="48.40702" lon="2.0446">
        <ele>107</ele>
        <time>2011-04-30T07:49:00Z</time>
      </trkpt>
      <trkpt lat="48.40701" lon="2.04457">
        <ele>107</ele>
        <time>2011-04-30T07:49:01Z</time>
      </trkpt>
      <trkpt lat="48.40699" lon="2.04455">
        <ele>107</ele>
        <time>2011-04-30T07:49:02Z</time>
      </trkpt>
      <trkpt lat="48.40698" lon="2.04453">
        <ele>107</ele>
        <time>2011-04-30T07:49:03Z</time>
      </trkpt>
      <trkpt lat="48.40696" lon="2.04451">
        <ele>107</ele>
        <time>2011-04-30T07:49:04Z</time>
      </trkpt>
      <trkpt lat="48.40695" lon="2.04448">
        <ele>107</ele>
        <time>2011-04-30T07:49:05Z</time>
      </trkpt>
      <trkpt lat="48.40693" lon="2.04445">
        <ele>107</ele>
        <time>2011-04-30T07:49:06Z</time>
      </trkpt>
      <trkpt lat="48.40691" lon="2.04442">
        <ele>107</ele>
        <time>2011-04-30T07:49:07Z</time>
      </trkpt>
      <trkpt lat="48.40689" lon="2.04438">
        <ele>107</ele>
        <time>2011-04-30T07:49:08Z</time>
      </trkpt>
      <trkpt lat="48.40688" lon="2.04435">
        <ele>107</ele>
        <time>2011-04-30T07:49:09Z</time>
      </trkpt>
      <trkpt lat="48.40686" lon="2.04431">
        <ele>107</ele>
        <time>2011-04-30T07:49:10Z</time>
      </trkpt>
      <trkpt lat="48.40684" lon="2.04428">
        <ele>107</ele>
        <time>2011-04-30T07:49:11Z</time>
      </trkpt>
      <trkpt lat="48.40683" lon="2.04425">
        <ele>107</ele>
        <time>2011-04-30T07:49:12Z</time>
      </trkpt>
      <trkpt lat="48.40681" lon="2.04422">
        <ele>107</ele>
        <time>2011-04-30T07:49:13Z</time>
      </trkpt>
      <trkpt lat="48.4068" lon="2.04419">
        <ele>107</ele>
        <time>2011-04-30T07:49:14Z</time>
      </trkpt>
      <trkpt lat="48.40679" lon="2.04416">
        <ele>104</ele>
        <time>2011-04-30T07:49:15Z</time>
      </trkpt>
      <trkpt lat="48.40678" lon="2.04413">
        <ele>104</ele>
        <time>2011-04-30T07:49:16Z</time>
      </trkpt>
      <trkpt lat="48.40677" lon="2.04411">
        <ele>104</ele>
        <time>2011-04-30T07:49:17Z</time>
      </trkpt>
      <trkpt lat="48.40676" lon="2.04408">
        <ele>104</ele>
        <time>2011-04-30T07:49:18Z</time>
      </trkpt>
      <trkpt lat="48.40675" lon="2.04406">
        <ele>104</ele>
        <time>2011-04-30T07:49:19Z</time>
      </trkpt>
      <trkpt lat="48.40675" lon="2.04404">
        <ele>104</ele>
        <time>2011-04-30T07:49:20Z</time>
      </trkpt>
      <trkpt lat="48.40674" lon="2.04401">
        <ele>103</ele>
        <time>2011-04-30T07:49:21Z</time>
      </trkpt>
      <trkpt lat="48.40673" lon="2.04398">
        <ele>103</ele>
        <time>2011-04-30T07:49:22Z</time>
      </trkpt>
      <trkpt lat="48.40673" lon="2.04396">
        <ele>103</ele>
        <time>2011-04-30T07:49:23Z</time>
      </trkpt>
      <trkpt lat="48.40672" lon="2.04393">
        <ele>103</ele>
        <time>2011-04-30T07:49:24Z</time>
      </trkpt>
      <trkpt lat="48.40672" lon="2.0439">
        <ele>102</ele>
        <time>2011-04-30T07:49:25Z</time>
      </trkpt>
      <trkpt lat="48.40671" lon="2.04388">
        <ele>102</ele>
        <time>2011-04-30T07:49:26Z</time>
      </trkpt>
      <trkpt lat="48.40671" lon="2.04385">
        <ele>102</ele>
        <time>2011-04-30T07:49:27Z</time>
      </trkpt>
      <trkpt lat="48.4067" lon="2.04382">
        <ele>102</ele>
        <time>2011-04-30T07:49:28Z</time>
      </trkpt>
      <trkpt lat="48.4067" lon="2.04379">
        <ele>102</ele>
        <time>2011-04-30T07:49:29Z</time>
      </trkpt>
      <trkpt lat="48.40669" lon="2.04376">
        <ele>102</ele>
        <time>2011-04-30T07:49:30Z</time>
      </trkpt>
      <trkpt lat="48.40668" lon="2.04373">
        <ele>101</ele>
        <time>2011-04-30T07:49:31Z</time>
      </trkpt>
      <trkpt lat="48.40668" lon="2.0437">
        <ele>101</ele>
        <time>2011-04-30T07:49:32Z</time>
      </trkpt>
      <trkpt lat="48.40667" lon="2.04367">
        <ele>101</ele>
        <time>2011-04-30T07:49:33Z</time>
      </trkpt>
      <trkpt lat="48.40667" lon="2.04364">
        <ele>111</ele>
        <time>2011-04-30T07:49:34Z</time>
      </trkpt>
      <trkpt lat="48.40665" lon="2.04361">
        <ele>110</ele>
        <time>2011-04-30T07:49:35Z</time>
      </trkpt>
      <trkpt lat="48.40665" lon="2.04357">
        <ele>110</ele>
        <time>2011-04-30T07:49:36Z</time>
      </trkpt>
      <trkpt lat="48.40664" lon="2.04354">
        <ele>109</ele>
        <time>2011-04-30T07:49:37Z</time>
      </trkpt>
      <trkpt lat="48.40663" lon="2.0435">
        <ele>108</ele>
        <time>2011-04-30T07:49:38Z</time>
      </trkpt>
      <trkpt lat="48.40662" lon="2.04346">
        <ele>107</ele>
        <time>2011-04-30T07:49:39Z</time>
      </trkpt>
      <trkpt lat="48.40661" lon="2.04342">
        <ele>106</ele>
        <time>2011-04-30T07:49:40Z</time>
      </trkpt>
      <trkpt lat="48.4066" lon="2.04338">
        <ele>106</ele>
        <time>2011-04-30T07:49:41Z</time>
      </trkpt>
      <trkpt lat="48.40658" lon="2.04334">
        <ele>105</ele>
        <time>2011-04-30T07:49:42Z</time>
      </trkpt>
      <trkpt lat="48.40657" lon="2.0433">
        <ele>104</ele>
        <time>2011-04-30T07:49:43Z</time>
      </trkpt>
      <trkpt lat="48.40657" lon="2.04327">
        <ele>105</ele>
        <time>2011-04-30T07:49:44Z</time>
      </trkpt>
      <trkpt lat="48.40656" lon="2.04323">
        <ele>105</ele>
        <time>2011-04-30T07:49:45Z</time>
      </trkpt>
      <trkpt lat="48.40655" lon="2.04319">
        <ele>106</ele>
        <time>2011-04-30T07:49:46Z</time>
      </trkpt>
      <trkpt lat="48.40654" lon="2.04314">
        <ele>106</ele>
        <time>2011-04-30T07:49:47Z</time>
      </trkpt>
      <trkpt lat="48.40653" lon="2.0431">
        <ele>107</ele>
        <time>2011-04-30T07:49:48Z</time>
      </trkpt>
      <trkpt lat="48.40652" lon="2.04306">
        <ele>107</ele>
        <time>2011-04-30T07:49:49Z</time>
      </trkpt>
      <trkpt lat="48.40651" lon="2.04302">
        <ele>107</ele>
        <time>2011-04-30T07:49:50Z</time>
      </trkpt>
      <trkpt lat="48.4065" lon="2.04299">
        <ele>107</ele>
        <time>2011-04-30T07:49:51Z</time>
      </trkpt>
      <trkpt lat="48.40648" lon="2.04295">
        <ele>107</ele>
        <time>2011-04-30T07:49:52Z</time>
      </trkpt>
      <trkpt lat="48.40647" lon="2.04292">
        <ele>107</ele>
        <time>2011-04-30T07:49:53Z</time>
      </trkpt>
      <trkpt lat="48.40646" lon="2.04289">
        <ele>107</ele>
        <time>2011-04-30T07:49:54Z</time>
      </trkpt>
      <trkpt lat="48.40645" lon="2.04286">
        <ele>107</ele>
        <time>2011-04-30T07:49:55Z</time>
      </trkpt>
      <trkpt lat="48.40643" lon="2.04283">
        <ele>107</ele>
        <time>2011-04-30T07:49:56Z</time>
      </trkpt>
      <trkpt lat="48.40642" lon="2.0428">
        <ele>107</ele>
        <time>2011-04-30T07:49:57Z</time>
      </trkpt>
      <trkpt lat="48.4064" lon="2.04276">
        <ele>107</ele>
        <time>2011-04-30T07:49:58Z</time>
      </trkpt>
      <trkpt lat="48.40638" lon="2.04273">
        <ele>107</ele>
        <time>2011-04-30T07:49:59Z</time>
      </trkpt>
      <trkpt lat="48.40637" lon="2.0427">
        <ele>107</ele>
        <time>2011-04-30T07:50:00Z</time>
      </trkpt>
      <trkpt lat="48.40636" lon="2.04268">
        <ele>107</ele>
        <time>2011-04-30T07:50:01Z</time>
      </trkpt>
      <trkpt lat="48.40634" lon="2.04265">
        <ele>108</ele>
        <time>2011-04-30T07:50:02Z</time>
      </trkpt>
      <trkpt lat="48.40633" lon="2.04263">
        <ele>108</ele>
        <time>2011-04-30T07:50:03Z</time>
      </trkpt>
      <trkpt lat="48.40631" lon="2.0426">
        <ele>108</ele>
        <time>2011-04-30T07:50:04Z</time>
      </trkpt>
      <trkpt lat="48.4063" lon="2.04257">
        <ele>108</ele>
        <time>2011-04-30T07:50:05Z</time>
      </trkpt>
      <trkpt lat="48.40628" lon="2.04253">
        <ele>108</ele>
        <time>2011-04-30T07:50:06Z</time>
      </trkpt>
      <trkpt lat="48.40627" lon="2.0425">
        <ele>108</ele>
        <time>2011-04-30T07:50:07Z</time>
      </trkpt>
      <trkpt lat="48.40625" lon="2.04247">
        <ele>105</ele>
        <time>2011-04-30T07:50:08Z</time>
      </trkpt>
      <trkpt lat="48.40624" lon="2.04243">
        <ele>105</ele>
        <time>2011-04-30T07:50:09Z</time>
      </trkpt>
      <trkpt lat="48.40623" lon="2.0424">
        <ele>105</ele>
        <time>2011-04-30T07:50:10Z</time>
      </trkpt>
      <trkpt lat="48.40622" lon="2.04236">
        <ele>105</ele>
        <time>2011-04-30T07:50:11Z</time>
      </trkpt>
      <trkpt lat="48.40621" lon="2.04233">
        <ele>105</ele>
        <time>2011-04-30T07:50:12Z</time>
      </trkpt>
      <trkpt lat="48.4062" lon="2.0423">
        <ele>105</ele>
        <time>2011-04-30T07:50:13Z</time>
      </trkpt>
      <trkpt lat="48.40619" lon="2.04227">
        <ele>105</ele>
        <time>2011-04-30T07:50:14Z</time>
      </trkpt>
      <trkpt lat="48.40618" lon="2.04223">
        <ele>105</ele>
        <time>2011-04-30T07:50:15Z</time>
      </trkpt>
      <trkpt lat="48.40618" lon="2.04219">
        <ele>104</ele>
        <time>2011-04-30T07:50:16Z</time>
      </trkpt>
      <trkpt lat="48.40617" lon="2.04216">
        <ele>104</ele>
        <time>2011-04-30T07:50:17Z</time>
      </trkpt>
      <trkpt lat="48.40616" lon="2.04213">
        <ele>104</ele>
        <time>2011-04-30T07:50:18Z</time>
      </trkpt>
      <trkpt lat="48.40615" lon="2.0421">
        <ele>104</ele>
        <time>2011-04-30T07:50:19Z</time>
      </trkpt>
      <trkpt lat="48.40614" lon="2.04208">
        <ele>104</ele>
        <time>2011-04-30T07:50:20Z</time>
      </trkpt>
      <trkpt lat="48.40613" lon="2.04205">
        <ele>104</ele>
        <time>2011-04-30T07:50:21Z</time>
      </trkpt>
      <trkpt lat="48.40611" lon="2.04203">
        <ele>104</ele>
        <time>2011-04-30T07:50:22Z</time>
      </trkpt>
      <trkpt lat="48.4061" lon="2.04201">
        <ele>104</ele>
        <time>2011-04-30T07:50:23Z</time>
      </trkpt>
      <trkpt lat="48.40609" lon="2.04198">
        <ele>104</ele>
        <time>2011-04-30T07:50:24Z</time>
      </trkpt>
      <trkpt lat="48.40608" lon="2.04196">
        <ele>104</ele>
        <time>2011-04-30T07:50:25Z</time>
      </trkpt>
      <trkpt lat="48.40606" lon="2.04193">
        <ele>104</ele>
        <time>2011-04-30T07:50:26Z</time>
      </trkpt>
      <trkpt lat="48.40605" lon="2.04191">
        <ele>104</ele>
        <time>2011-04-30T07:50:27Z</time>
      </trkpt>
      <trkpt lat="48.40604" lon="2.04188">
        <ele>104</ele>
        <time>2011-04-30T07:50:28Z</time>
      </trkpt>
      <trkpt lat="48.40603" lon="2.04185">
        <ele>104</ele>
        <time>2011-04-30T07:50:29Z</time>
      </trkpt>
      <trkpt lat="48.40602" lon="2.04182">
        <ele>104</ele>
        <time>2011-04-30T07:50:30Z</time>
      </trkpt>
      <trkpt lat="48.406" lon="2.0418">
        <ele>104</ele>
        <time>2011-04-30T07:50:31Z</time>
      </trkpt>
      <trkpt lat="48.40599" lon="2.04177">
        <ele>104</ele>
        <time>2011-04-30T07:50:32Z</time>
      </trkpt>
      <trkpt lat="48.40597" lon="2.04174">
        <ele>104</ele>
        <time>2011-04-30T07:50:33Z</time>
      </trkpt>
      <trkpt lat="48.40595" lon="2.04171">
        <ele>104</ele>
        <time>2011-04-30T07:50:34Z</time>
      </trkpt>
      <trkpt lat="48.40593" lon="2.04168">
        <ele>104</ele>
        <time>2011-04-30T07:50:35Z</time>
      </trkpt>
      <trkpt lat="48.40592" lon="2.04165">
        <ele>102</ele>
        <time>2011-04-30T07:50:36Z</time>
      </trkpt>
      <trkpt lat="48.4059" lon="2.04162">
        <ele>102</ele>
        <time>2011-04-30T07:50:37Z</time>
      </trkpt>
      <trkpt lat="48.40588" lon="2.0416">
        <ele>102</ele>
        <time>2011-04-30T07:50:38Z</time>
      </trkpt>
      <trkpt lat="48.40586" lon="2.04158">
        <ele>102</ele>
        <time>2011-04-30T07:50:39Z</time>
      </trkpt>
      <trkpt lat="48.40585" lon="2.04156">
        <ele>102</ele>
        <time>2011-04-30T07:50:40Z</time>
      </trkpt>
      <trkpt lat="48.40583" lon="2.04154">
        <ele>106</ele>
        <time>2011-04-30T07:50:41Z</time>
      </trkpt>
      <trkpt lat="48.40582" lon="2.04152">
        <ele>106</ele>
        <time>2011-04-30T07:50:42Z</time>
      </trkpt>
      <trkpt lat="48.4058" lon="2.0415">
        <ele>106</ele>
        <time>2011-04-30T07:50:43Z</time>
      </trkpt>
      <trkpt lat="48.40579" lon="2.04147">
        <ele>106</ele>
        <time>2011-04-30T07:50:44Z</time>
      </trkpt>
      <trkpt lat="48.40577" lon="2.04145">
        <ele>106</ele>
        <time>2011-04-30T07:50:45Z</time>
      </trkpt>
      <trkpt lat="48.40575" lon="2.04142">
        <ele>107</ele>
        <time>2011-04-30T07:50:46Z</time>
      </trkpt>
      <trkpt lat="48.40573" lon="2.04139">
        <ele>107</ele>
        <time>2011-04-30T07:50:47Z</time>
      </trkpt>
      <trkpt lat="48.4057" lon="2.04136">
        <ele>107</ele>
        <time>2011-04-30T07:50:48Z</time>
      </trkpt>
      <trkpt lat="48.40568" lon="2.04133">
        <ele>107</ele>
        <time>2011-04-30T07:50:49Z</time>
      </trkpt>
      <trkpt lat="48.40566" lon="2.04131">
        <ele>107</ele>
        <time>2011-04-30T07:50:50Z</time>
      </trkpt>
      <trkpt lat="48.40564" lon="2.04129">
        <ele>107</ele>
        <time>2011-04-30T07:50:51Z</time>
      </trkpt>
      <trkpt lat="48.40562" lon="2.04127">
        <ele>107</ele>
        <time>2011-04-30T07:50:52Z</time>
      </trkpt>
      <trkpt lat="48.4056" lon="2.04125">
        <ele>107</ele>
        <time>2011-04-30T07:50:53Z</time>
      </trkpt>
      <trkpt lat="48.40559" lon="2.04123">
        <ele>107</ele>
        <time>2011-04-30T07:50:54Z</time>
      </trkpt>
      <trkpt lat="48.40557" lon="2.04121">
        <ele>107</ele>
        <time>2011-04-30T07:50:55Z</time>
      </trkpt>
      <trkpt lat="48.40554" lon="2.0412">
        <ele>107</ele>
        <time>2011-04-30T07:50:56Z</time>
      </trkpt>
      <trkpt lat="48.40553" lon="2.04118">
        <ele>107</ele>
        <time>2011-04-30T07:50:57Z</time>
      </trkpt>
      <trkpt lat="48.40551" lon="2.04116">
        <ele>107</ele>
        <time>2011-04-30T07:50:58Z</time>
      </trkpt>
      <trkpt lat="48.40549" lon="2.04115">
        <ele>107</ele>
        <time>2011-04-30T07:50:59Z</time>
      </trkpt>
      <trkpt lat="48.40546" lon="2.04113">
        <ele>108</ele>
        <time>2011-04-30T07:51:00Z</time>
      </trkpt>
      <trkpt lat="48.40544" lon="2.04112">
        <ele>108</ele>
        <time>2011-04-30T07:51:01Z</time>
      </trkpt>
      <trkpt lat="48.40543" lon="2.0411">
        <ele>108</ele>
        <time>2011-04-30T07:51:02Z</time>
      </trkpt>
      <trkpt lat="48.40541" lon="2.04108">
        <ele>108</ele>
        <time>2011-04-30T07:51:03Z</time>
      </trkpt>
      <trkpt lat="48.40539" lon="2.04107">
        <ele>108</ele>
        <time>2011-04-30T07:51:04Z</time>
      </trkpt>
      <trkpt lat="48.40537" lon="2.04106">
        <ele>108</ele>
        <time>2011-04-30T07:51:05Z</time>
      </trkpt>
      <trkpt lat="48.40535" lon="2.04104">
        <ele>108</ele>
        <time>2011-04-30T07:51:06Z</time>
      </trkpt>
      <trkpt lat="48.40533" lon="2.04103">
        <ele>108</ele>
        <time>2011-04-30T07:51:07Z</time>
      </trkpt>
      <trkpt lat="48.40531" lon="2.04101">
        <ele>108</ele>
        <time>2011-04-30T07:51:08Z</time>
      </trkpt>
      <trkpt lat="48.40529" lon="2.041">
        <ele>108</ele>
        <time>2011-04-30T07:51:09Z</time>
      </trkpt>
      <trkpt lat="48.40527" lon="2.04098">
        <ele>108</ele>
        <time>2011-04-30T07:51:10Z</time>
      </trkpt>
      <trkpt lat="48.40525" lon="2.04097">
        <ele>108</ele>
        <time>2011-04-30T07:51:11Z</time>
      </trkpt>
      <trkpt lat="48.40523" lon="2.04096">
        <ele>108</ele>
        <time>2011-04-30T07:51:12Z</time>
      </trkpt>
      <trkpt lat="48.40522" lon="2.04094">
        <ele>108</ele>
        <time>2011-04-30T07:51:13Z</time>
      </trkpt>
      <trkpt lat="48.4052" lon="2.04093">
        <ele>108</ele>
        <time>2011-04-30T07:51:14Z</time>
      </trkpt>
      <trkpt lat="48.40518" lon="2.04091">
        <ele>108</ele>
        <time>2011-04-30T07:51:15Z</time>
      </trkpt>
      <trkpt lat="48.40517" lon="2.0409">
        <ele>108</ele>
        <time>2011-04-30T07:51:16Z</time>
      </trkpt>
      <trkpt lat="48.40515" lon="2.04088">
        <ele>108</ele>
        <time>2011-04-30T07:51:17Z</time>
      </trkpt>
      <trkpt lat="48.40514" lon="2.04087">
        <ele>108</ele>
        <time>2011-04-30T07:51:18Z</time>
      </trkpt>
      <trkpt lat="48.40513" lon="2.04085">
        <ele>108</ele>
        <time>2011-04-30T07:51:19Z</time>
      </trkpt>
      <trkpt lat="48.40511" lon="2.04083">
        <ele>106</ele>
        <time>2011-04-30T07:51:20Z</time>
      </trkpt>
      <trkpt lat="48.40509" lon="2.0408">
        <ele>106</ele>
        <time>2011-04-30T07:51:21Z</time>
      </trkpt>
      <trkpt lat="48.40507" lon="2.04076">
        <ele>106</ele>
        <time>2011-04-30T07:51:22Z</time>
      </trkpt>
      <trkpt lat="48.40505" lon="2.04072">
        <ele>105</ele>
        <time>2011-04-30T07:51:23Z</time>
      </trkpt>
      <trkpt lat="48.40503" lon="2.04067">
        <ele>105</ele>
        <time>2011-04-30T07:51:24Z</time>
      </trkpt>
      <trkpt lat="48.40501" lon="2.04062">
        <ele>104</ele>
        <time>2011-04-30T07:51:25Z</time>
      </trkpt>
      <trkpt lat="48.40499" lon="2.04057">
        <ele>109</ele>
        <time>2011-04-30T07:51:26Z</time>
      </trkpt>
      <trkpt lat="48.40497" lon="2.04052">
        <ele>109</ele>
        <time>2011-04-30T07:51:27Z</time>
      </trkpt>
      <trkpt lat="48.40495" lon="2.04048">
        <ele>109</ele>
        <time>2011-04-30T07:51:28Z</time>
      </trkpt>
      <trkpt lat="48.40494" lon="2.04044">
        <ele>108</ele>
        <time>2011-04-30T07:51:29Z</time>
      </trkpt>
      <trkpt lat="48.40492" lon="2.04041">
        <ele>108</ele>
        <time>2011-04-30T07:51:30Z</time>
      </trkpt>
      <trkpt lat="48.40491" lon="2.04038">
        <ele>108</ele>
        <time>2011-04-30T07:51:31Z</time>
      </trkpt>
      <trkpt lat="48.4049" lon="2.04036">
        <ele>108</ele>
        <time>2011-04-30T07:51:32Z</time>
      </trkpt>
      <trkpt lat="48.40489" lon="2.04033">
        <ele>108</ele>
        <time>2011-04-30T07:51:33Z</time>
      </trkpt>
      <trkpt lat="48.40488" lon="2.04031">
        <ele>107</ele>
        <time>2011-04-30T07:51:34Z</time>
      </trkpt>
      <trkpt lat="48.40487" lon="2.04029">
        <ele>107</ele>
        <time>2011-04-30T07:51:35Z</time>
      </trkpt>
      <trkpt lat="48.40486" lon="2.04027">
        <ele>107</ele>
        <time>2011-04-30T07:51:36Z</time>
      </trkpt>
      <trkpt lat="48.40485" lon="2.04025">
        <ele>107</ele>
        <time>2011-04-30T07:51:37Z</time>
      </trkpt>
      <trkpt lat="48.40484" lon="2.04023">
        <ele>107</ele>
        <time>2011-04-30T07:51:38Z</time>
      </trkpt>
      <trkpt lat="48.40483" lon="2.04021">
        <ele>107</ele>
        <time>2011-04-30T07:51:39Z</time>
      </trkpt>
      <trkpt lat="48.40482" lon="2.04019">
        <ele>107</ele>
        <time>2011-04-30T07:51:40Z</time>
      </trkpt>
      <trkpt lat="48.40481" lon="2.04017">
        <ele>107</ele>
        <time>2011-04-30T07:51:41Z</time>
      </trkpt>
      <trkpt lat="48.40479" lon="2.04015">
        <ele>107</ele>
        <time>2011-04-30T07:51:42Z</time>
      </trkpt>
      <trkpt lat="48.40478" lon="2.04013">
        <ele>107</ele>
        <time>2011-04-30T07:51:43Z</time>
      </trkpt>
      <trkpt lat="48.40476" lon="2.04011">
        <ele>107</ele>
        <time>2011-04-30T07:51:44Z</time>
      </trkpt>
      <trkpt lat="48.40475" lon="2.04009">
        <ele>107</ele>
        <time>2011-04-30T07:51:45Z</time>
      </trkpt>
      <trkpt lat="48.40473" lon="2.04007">
        <ele>107</ele>
        <time>2011-04-30T07:51:46Z</time>
      </trkpt>
      <trkpt lat="48.40472" lon="2.04005">
        <ele>107</ele>
        <time>2011-04-30T07:51:47Z</time>
      </trkpt>
      <trkpt lat="48.4047" lon="2.04002">
        <ele>107</ele>
        <time>2011-04-30T07:51:48Z</time>
      </trkpt>
      <trkpt lat="48.40469" lon="2.04">
        <ele>107</ele>
        <time>2011-04-30T07:51:49Z</time>
      </trkpt>
      <trkpt lat="48.40468" lon="2.03997">
        <ele>103</ele>
        <time>2011-04-30T07:51:50Z</time>
      </trkpt>
      <trkpt lat="48.40466" lon="2.03994">
        <ele>103</ele>
        <time>2011-04-30T07:51:51Z</time>
      </trkpt>
      <trkpt lat="48.40465" lon="2.03992">
        <ele>103</ele>
        <time>2011-04-30T07:51:52Z</time>
      </trkpt>
      <trkpt lat="48.40464" lon="2.03989">
        <ele>103</ele>
        <time>2011-04-30T07:51:53Z</time>
      </trkpt>
      <trkpt lat="48.40463" lon="2.03986">
        <ele>103</ele>
        <time>2011-04-30T07:51:54Z</time>
      </trkpt>
      <trkpt lat="48.40462" lon="2.03983">
        <ele>103</ele>
        <time>2011-04-30T07:51:55Z</time>
      </trkpt>
      <trkpt lat="48.40461" lon="2.03981">
        <ele>103</ele>
        <time>2011-04-30T07:51:56Z</time>
      </trkpt>
      <trkpt lat="48.4046" lon="2.03979">
        <ele>103</ele>
        <time>2011-04-30T07:51:57Z</time>
      </trkpt>
      <trkpt lat="48.40458" lon="2.03977">
        <ele>103</ele>
        <time>2011-04-30T07:51:58Z</time>
      </trkpt>
      <trkpt lat="48.40457" lon="2.03974">
        <ele>103</ele>
        <time>2011-04-30T07:51:59Z</time>
      </trkpt>
      <trkpt lat="48.40456" lon="2.03971">
        <ele>103</ele>
        <time>2011-04-30T07:52:00Z</time>
      </trkpt>
      <trkpt lat="48.40455" lon="2.03968">
        <ele>103</ele>
        <time>2011-04-30T07:52:01Z</time>
      </trkpt>
      <trkpt lat="48.40454" lon="2.03966">
        <ele>103</ele>
        <time>2011-04-30T07:52:02Z</time>
      </trkpt>
      <trkpt lat="48.40453" lon="2.03964">
        <ele>103</ele>
        <time>2011-04-30T07:52:03Z</time>
      </trkpt>
      <trkpt lat="48.40452" lon="2.03962">
        <ele>103</ele>
        <time>2011-04-30T07:52:04Z</time>
      </trkpt>
      <trkpt lat="48.40451" lon="2.0396">
        <ele>103</ele>
        <time>2011-04-30T07:52:05Z</time>
      </trkpt>
      <trkpt lat="48.4045" lon="2.03958">
        <ele>103</ele>
        <time>2011-04-30T07:52:06Z</time>
      </trkpt>
      <trkpt lat="48.40448" lon="2.03956">
        <ele>103</ele>
        <time>2011-04-30T07:52:07Z</time>
      </trkpt>
      <trkpt lat="48.40447" lon="2.03954">
        <ele>103</ele>
        <time>2011-04-30T07:52:08Z</time>
      </trkpt>
      <trkpt lat="48.40445" lon="2.03951">
        <ele>103</ele>
        <time>2011-04-30T07:52:09Z</time>
      </trkpt>
      <trkpt lat="48.40444" lon="2.03948">
        <ele>102</ele>
        <time>2011-04-30T07:52:10Z</time>
      </trkpt>
      <trkpt lat="48.40442" lon="2.03945">
        <ele>102</ele>
        <time>2011-04-30T07:52:11Z</time>
      </trkpt>
      <trkpt lat="48.4044" lon="2.03943">
        <ele>102</ele>
        <time>2011-04-30T07:52:12Z</time>
      </trkpt>
      <trkpt lat="48.40438" lon="2.0394">
        <ele>102</ele>
        <time>2011-04-30T07:52:13Z</time>
      </trkpt>
      <trkpt lat="48.40436" lon="2.03938">
        <ele>102</ele>
        <time>2011-04-30T07:52:14Z</time>
      </trkpt>
      <trkpt lat="48.40434" lon="2.03935">
        <ele>102</ele>
        <time>2011-04-30T07:52:15Z</time>
      </trkpt>
      <trkpt lat="48.40432" lon="2.03934">
        <ele>102</ele>
        <time>2011-04-30T07:52:16Z</time>
      </trkpt>
      <trkpt lat="48.40431" lon="2.03931">
        <ele>102</ele>
        <time>2011-04-30T07:52:17Z</time>
      </trkpt>
      <trkpt lat="48.4043" lon="2.03929">
        <ele>102</ele>
        <time>2011-04-30T07:52:18Z</time>
      </trkpt>
      <trkpt lat="48.40428" lon="2.03927">
        <ele>102</ele>
        <time>2011-04-30T07:52:19Z</time>
      </trkpt>
      <trkpt lat="48.40427" lon="2.03925">
        <ele>102</ele>
        <time>2011-04-30T07:52:20Z</time>
      </trkpt>
      <trkpt lat="48.40425" lon="2.03923">
        <ele>102</ele>
        <time>2011-04-30T07:52:21Z</time>
      </trkpt>
      <trkpt lat="48.40424" lon="2.03921">
        <ele>101</ele>
        <time>2011-04-30T07:52:22Z</time>
      </trkpt>
      <trkpt lat="48.40423" lon="2.03919">
        <ele>101</ele>
        <time>2011-04-30T07:52:23Z</time>
      </trkpt>
      <trkpt lat="48.40422" lon="2.03917">
        <ele>101</ele>
        <time>2011-04-30T07:52:24Z</time>
      </trkpt>
      <trkpt lat="48.4042" lon="2.03915">
        <ele>101</ele>
        <time>2011-04-30T07:52:25Z</time>
      </trkpt>
      <trkpt lat="48.40418" lon="2.03914">
        <ele>101</ele>
        <time>2011-04-30T07:52:26Z</time>
      </trkpt>
      <trkpt lat="48.40416" lon="2.03912">
        <ele>102</ele>
        <time>2011-04-30T07:52:27Z</time>
      </trkpt>
      <trkpt lat="48.40414" lon="2.0391">
        <ele>102</ele>
        <time>2011-04-30T07:52:28Z</time>
      </trkpt>
      <trkpt lat="48.40412" lon="2.03909">
        <ele>102</ele>
        <time>2011-04-30T07:52:29Z</time>
      </trkpt>
      <trkpt lat="48.4041" lon="2.03907">
        <ele>102</ele>
        <time>2011-04-30T07:52:30Z</time>
      </trkpt>
      <trkpt lat="48.40408" lon="2.03905">
        <ele>103</ele>
        <time>2011-04-30T07:52:31Z</time>
      </trkpt>
      <trkpt lat="48.40406" lon="2.03902">
        <ele>103</ele>
        <time>2011-04-30T07:52:32Z</time>
      </trkpt>
      <trkpt lat="48.40404" lon="2.039">
        <ele>103</ele>
        <time>2011-04-30T07:52:33Z</time>
      </trkpt>
      <trkpt lat="48.40401" lon="2.03898">
        <ele>103</ele>
        <time>2011-04-30T07:52:34Z</time>
      </trkpt>
      <trkpt lat="48.40399" lon="2.03896">
        <ele>104</ele>
        <time>2011-04-30T07:52:35Z</time>
      </trkpt>
      <trkpt lat="48.40397" lon="2.03895">
        <ele>104</ele>
        <time>2011-04-30T07:52:36Z</time>
      </trkpt>
      <trkpt lat="48.40395" lon="2.03893">
        <ele>104</ele>
        <time>2011-04-30T07:52:37Z</time>
      </trkpt>
      <trkpt lat="48.40394" lon="2.03892">
        <ele>104</ele>
        <time>2011-04-30T07:52:38Z</time>
      </trkpt>
      <trkpt lat="48.40392" lon="2.0389">
        <ele>104</ele>
        <time>2011-04-30T07:52:39Z</time>
      </trkpt>
      <trkpt lat="48.40391" lon="2.03888">
        <ele>104</ele>
        <time>2011-04-30T07:52:40Z</time>
      </trkpt>
      <trkpt lat="48.4039" lon="2.03885">
        <ele>104</ele>
        <time>2011-04-30T07:52:41Z</time>
      </trkpt>
      <trkpt lat="48.40389" lon="2.03883">
        <ele>104</ele>
        <time>2011-04-30T07:52:42Z</time>
      </trkpt>
      <trkpt lat="48.40388" lon="2.03882">
        <ele>104</ele>
        <time>2011-04-30T07:52:43Z</time>
      </trkpt>
      <trkpt lat="48.40387" lon="2.03879">
        <ele>104</ele>
        <time>2011-04-30T07:52:44Z</time>
      </trkpt>
      <trkpt lat="48.40387" lon="2.03877">
        <ele>104</ele>
        <time>2011-04-30T07:52:45Z</time>
      </trkpt>
      <trkpt lat="48.40387" lon="2.03875">
        <ele>104</ele>
        <time>2011-04-30T07:52:46Z</time>
      </trkpt>
      <trkpt lat="48.40386" lon="2.03872">
        <ele>104</ele>
        <time>2011-04-30T07:52:47Z</time>
      </trkpt>
      <trkpt lat="48.40386" lon="2.03869">
        <ele>104</ele>
        <time>2011-04-30T07:52:48Z</time>
      </trkpt>
      <trkpt lat="48.40385" lon="2.03865">
        <ele>104</ele>
        <time>2011-04-30T07:52:49Z</time>
      </trkpt>
      <trkpt lat="48.40384" lon="2.03862">
        <ele>104</ele>
        <time>2011-04-30T07:52:50Z</time>
      </trkpt>
      <trkpt lat="48.40383" lon="2.03858">
        <ele>103</ele>
        <time>2011-04-30T07:52:51Z</time>
      </trkpt>
      <trkpt lat="48.40382" lon="2.03855">
        <ele>103</ele>
        <time>2011-04-30T07:52:52Z</time>
      </trkpt>
      <trkpt lat="48.40381" lon="2.03851">
        <ele>103</ele>
        <time>2011-04-30T07:52:53Z</time>
      </trkpt>
      <trkpt lat="48.4038" lon="2.03847">
        <ele>103</ele>
        <time>2011-04-30T07:52:54Z</time>
      </trkpt>
      <trkpt lat="48.40379" lon="2.03843">
        <ele>103</ele>
        <time>2011-04-30T07:52:55Z</time>
      </trkpt>
      <trkpt lat="48.40378" lon="2.03839">
        <ele>103</ele>
        <time>2011-04-30T07:52:56Z</time>
      </trkpt>
      <trkpt lat="48.40377" lon="2.03836">
        <ele>103</ele>
        <time>2011-04-30T07:52:57Z</time>
      </trkpt>
      <trkpt lat="48.40376" lon="2.03832">
        <ele>100</ele>
        <time>2011-04-30T07:52:58Z</time>
      </trkpt>
      <trkpt lat="48.40375" lon="2.03827">
        <ele>100</ele>
        <time>2011-04-30T07:52:59Z</time>
      </trkpt>
      <trkpt lat="48.40374" lon="2.03824">
        <ele>100</ele>
        <time>2011-04-30T07:53:00Z</time>
      </trkpt>
      <trkpt lat="48.40373" lon="2.0382">
        <ele>100</ele>
        <time>2011-04-30T07:53:01Z</time>
      </trkpt>
      <trkpt lat="48.40372" lon="2.03817">
        <ele>100</ele>
        <time>2011-04-30T07:53:02Z</time>
      </trkpt>
      <trkpt lat="48.40371" lon="2.03814">
        <ele>100</ele>
        <time>2011-04-30T07:53:03Z</time>
      </trkpt>
      <trkpt lat="48.4037" lon="2.03812">
        <ele>100</ele>
        <time>2011-04-30T07:53:04Z</time>
      </trkpt>
      <trkpt lat="48.40368" lon="2.03809">
        <ele>100</ele>
        <time>2011-04-30T07:53:05Z</time>
      </trkpt>
      <trkpt lat="48.40366" lon="2.03807">
        <ele>101</ele>
        <time>2011-04-30T07:53:06Z</time>
      </trkpt>
      <trkpt lat="48.40363" lon="2.03804">
        <ele>101</ele>
        <time>2011-04-30T07:53:07Z</time>
      </trkpt>
      <trkpt lat="48.40362" lon="2.03802">
        <ele>101</ele>
        <time>2011-04-30T07:53:08Z</time>
      </trkpt>
      <trkpt lat="48.4036" lon="2.038">
        <ele>101</ele>
        <time>2011-04-30T07:53:09Z</time>
      </trkpt>
      <trkpt lat="48.40359" lon="2.03798">
        <ele>101</ele>
        <time>2011-04-30T07:53:10Z</time>
      </trkpt>
      <trkpt lat="48.40357" lon="2.03795">
        <ele>100</ele>
        <time>2011-04-30T07:53:11Z</time>
      </trkpt>
      <trkpt lat="48.40356" lon="2.03792">
        <ele>100</ele>
        <time>2011-04-30T07:53:12Z</time>
      </trkpt>
      <trkpt lat="48.40354" lon="2.0379">
        <ele>100</ele>
        <time>2011-04-30T07:53:13Z</time>
      </trkpt>
      <trkpt lat="48.40353" lon="2.03787">
        <ele>100</ele>
        <time>2011-04-30T07:53:14Z</time>
      </trkpt>
      <trkpt lat="48.40351" lon="2.03785">
        <ele>100</ele>
        <time>2011-04-30T07:53:15Z</time>
      </trkpt>
      <trkpt lat="48.4035" lon="2.03783">
        <ele>100</ele>
        <time>2011-04-30T07:53:16Z</time>
      </trkpt>
      <trkpt lat="48.40348" lon="2.0378">
        <ele>100</ele>
        <time>2011-04-30T07:53:17Z</time>
      </trkpt>
      <trkpt lat="48.40347" lon="2.03778">
        <ele>100</ele>
        <time>2011-04-30T07:53:18Z</time>
      </trkpt>
      <trkpt lat="48.40346" lon="2.03776">
        <ele>100</ele>
        <time>2011-04-30T07:53:19Z</time>
      </trkpt>
      <trkpt lat="48.40344" lon="2.03773">
        <ele>100</ele>
        <time>2011-04-30T07:53:20Z</time>
      </trkpt>
      <trkpt lat="48.40343" lon="2.03771">
        <ele>100</ele>
        <time>2011-04-30T07:53:21Z</time>
      </trkpt>
      <trkpt lat="48.40341" lon="2.03769">
        <ele>100</ele>
        <time>2011-04-30T07:53:22Z</time>
      </trkpt>
      <trkpt lat="48.40339" lon="2.03766">
        <ele>100</ele>
        <time>2011-04-30T07:53:23Z</time>
      </trkpt>
      <trkpt lat="48.40338" lon="2.03764">
        <ele>100</ele>
        <time>2011-04-30T07:53:24Z</time>
      </trkpt>
      <trkpt lat="48.40336" lon="2.03762">
        <ele>99</ele>
        <time>2011-04-30T07:53:25Z</time>
      </trkpt>
      <trkpt lat="48.40334" lon="2.03759">
        <ele>99</ele>
        <time>2011-04-30T07:53:26Z</time>
      </trkpt>
      <trkpt lat="48.40332" lon="2.03757">
        <ele>102</ele>
        <time>2011-04-30T07:53:27Z</time>
      </trkpt>
      <trkpt lat="48.4033" lon="2.03755">
        <ele>101</ele>
        <time>2011-04-30T07:53:28Z</time>
      </trkpt>
      <trkpt lat="48.40327" lon="2.03751">
        <ele>101</ele>
        <time>2011-04-30T07:53:29Z</time>
      </trkpt>
      <trkpt lat="48.40325" lon="2.03747">
        <ele>100</ele>
        <time>2011-04-30T07:53:30Z</time>
      </trkpt>
      <trkpt lat="48.40323" lon="2.03743">
        <ele>101</ele>
        <time>2011-04-30T07:53:31Z</time>
      </trkpt>
      <trkpt lat="48.4032" lon="2.03739">
        <ele>101</ele>
        <time>2011-04-30T07:53:32Z</time>
      </trkpt>
      <trkpt lat="48.40318" lon="2.03734">
        <ele>102</ele>
        <time>2011-04-30T07:53:33Z</time>
      </trkpt>
      <trkpt lat="48.40315" lon="2.0373">
        <ele>102</ele>
        <time>2011-04-30T07:53:34Z</time>
      </trkpt>
      <trkpt lat="48.40313" lon="2.03727">
        <ele>102</ele>
        <time>2011-04-30T07:53:35Z</time>
      </trkpt>
      <trkpt lat="48.40311" lon="2.03725">
        <ele>102</ele>
        <time>2011-04-30T07:53:36Z</time>
      </trkpt>
      <trkpt lat="48.40309" lon="2.03722">
        <ele>102</ele>
        <time>2011-04-30T07:53:37Z</time>
      </trkpt>
      <trkpt lat="48.40306" lon="2.0372">
        <ele>103</ele>
        <time>2011-04-30T07:53:38Z</time>
      </trkpt>
      <trkpt lat="48.40304" lon="2.03718">
        <ele>103</ele>
        <time>2011-04-30T07:53:39Z</time>
      </trkpt>
      <trkpt lat="48.40302" lon="2.03716">
        <ele>103</ele>
        <time>2011-04-30T07:53:40Z</time>
      </trkpt>
      <trkpt lat="48.40299" lon="2.03714">
        <ele>103</ele>
        <time>2011-04-30T07:53:41Z</time>
      </trkpt>
      <trkpt lat="48.40297" lon="2.03712">
        <ele>103</ele>
        <time>2011-04-30T07:53:42Z</time>
      </trkpt>
      <trkpt lat="48.40294" lon="2.03709">
        <ele>103</ele>
        <time>2011-04-30T07:53:43Z</time>
      </trkpt>
      <trkpt lat="48.40291" lon="2.03706">
        <ele>103</ele>
        <time>2011-04-30T07:53:44Z</time>
      </trkpt>
      <trkpt lat="48.40288" lon="2.03704">
        <ele>103</ele>
        <time>2011-04-30T07:53:45Z</time>
      </trkpt>
      <trkpt lat="48.40286" lon="2.03702">
        <ele>103</ele>
        <time>2011-04-30T07:53:46Z</time>
      </trkpt>
      <trkpt lat="48.40283" lon="2.03699">
        <ele>103</ele>
        <time>2011-04-30T07:53:47Z</time>
      </trkpt>
      <trkpt lat="48.4028" lon="2.03696">
        <ele>103</ele>
        <time>2011-04-30T07:53:48Z</time>
      </trkpt>
      <trkpt lat="48.40278" lon="2.03693">
        <ele>104</ele>
        <time>2011-04-30T07:53:49Z</time>
      </trkpt>
      <trkpt lat="48.40275" lon="2.0369">
        <ele>104</ele>
        <time>2011-04-30T07:53:50Z</time>
      </trkpt>
      <trkpt lat="48.40273" lon="2.03687">
        <ele>104</ele>
        <time>2011-04-30T07:53:51Z</time>
      </trkpt>
      <trkpt lat="48.40271" lon="2.03684">
        <ele>104</ele>
        <time>2011-04-30T07:53:52Z</time>
      </trkpt>
      <trkpt lat="48.40269" lon="2.03681">
        <ele>104</ele>
        <time>2011-04-30T07:53:53Z</time>
      </trkpt>
      <trkpt lat="48.40267" lon="2.03678">
        <ele>104</ele>
        <time>2011-04-30T07:53:54Z</time>
      </trkpt>
      <trkpt lat="48.40264" lon="2.03675">
        <ele>104</ele>
        <time>2011-04-30T07:53:55Z</time>
      </trkpt>
      <trkpt lat="48.40262" lon="2.0367">
        <ele>104</ele>
        <time>2011-04-30T07:53:56Z</time>
      </trkpt>
      <trkpt lat="48.4026" lon="2.03665">
        <ele>103</ele>
        <time>2011-04-30T07:53:57Z</time>
      </trkpt>
      <trkpt lat="48.40258" lon="2.03661">
        <ele>103</ele>
        <time>2011-04-30T07:53:58Z</time>
      </trkpt>
      <trkpt lat="48.40257" lon="2.03656">
        <ele>102</ele>
        <time>2011-04-30T07:53:59Z</time>
      </trkpt>
      <trkpt lat="48.40255" lon="2.03652">
        <ele>102</ele>
        <time>2011-04-30T07:54:00Z</time>
      </trkpt>
      <trkpt lat="48.40254" lon="2.03647">
        <ele>102</ele>
        <time>2011-04-30T07:54:01Z</time>
      </trkpt>
      <trkpt lat="48.40252" lon="2.03643">
        <ele>102</ele>
        <time>2011-04-30T07:54:02Z</time>
      </trkpt>
      <trkpt lat="48.40251" lon="2.03639">
        <ele>101</ele>
        <time>2011-04-30T07:54:03Z</time>
      </trkpt>
      <trkpt lat="48.40249" lon="2.03635">
        <ele>108</ele>
        <time>2011-04-30T07:54:04Z</time>
      </trkpt>
      <trkpt lat="48.40247" lon="2.03631">
        <ele>108</ele>
        <time>2011-04-30T07:54:05Z</time>
      </trkpt>
      <trkpt lat="48.40246" lon="2.03628">
        <ele>108</ele>
        <time>2011-04-30T07:54:06Z</time>
      </trkpt>
      <trkpt lat="48.40244" lon="2.03624">
        <ele>108</ele>
        <time>2011-04-30T07:54:07Z</time>
      </trkpt>
      <trkpt lat="48.40243" lon="2.03621">
        <ele>108</ele>
        <time>2011-04-30T07:54:08Z</time>
      </trkpt>
      <trkpt lat="48.40242" lon="2.03618">
        <ele>108</ele>
        <time>2011-04-30T07:54:09Z</time>
      </trkpt>
      <trkpt lat="48.40241" lon="2.03615">
        <ele>108</ele>
        <time>2011-04-30T07:54:10Z</time>
      </trkpt>
      <trkpt lat="48.4024" lon="2.03612">
        <ele>108</ele>
        <time>2011-04-30T07:54:11Z</time>
      </trkpt>
      <trkpt lat="48.40239" lon="2.03609">
        <ele>107</ele>
        <time>2011-04-30T07:54:12Z</time>
      </trkpt>
      <trkpt lat="48.40238" lon="2.03606">
        <ele>107</ele>
        <time>2011-04-30T07:54:13Z</time>
      </trkpt>
      <trkpt lat="48.40236" lon="2.03603">
        <ele>107</ele>
        <time>2011-04-30T07:54:14Z</time>
      </trkpt>
      <trkpt lat="48.40235" lon="2.036">
        <ele>107</ele>
        <time>2011-04-30T07:54:15Z</time>
      </trkpt>
      <trkpt lat="48.40234" lon="2.03597">
        <ele>107</ele>
        <time>2011-04-30T07:54:16Z</time>
      </trkpt>
      <trkpt lat="48.40233" lon="2.03594">
        <ele>106</ele>
        <time>2011-04-30T07:54:17Z</time>
      </trkpt>
      <trkpt lat="48.40232" lon="2.0359">
        <ele>106</ele>
        <time>2011-04-30T07:54:18Z</time>
      </trkpt>
      <trkpt lat="48.4023" lon="2.03586">
        <ele>106</ele>
        <time>2011-04-30T07:54:19Z</time>
      </trkpt>
      <trkpt lat="48.40229" lon="2.03583">
        <ele>104</ele>
        <time>2011-04-30T07:54:20Z</time>
      </trkpt>
      <trkpt lat="48.40228" lon="2.0358">
        <ele>104</ele>
        <time>2011-04-30T07:54:21Z</time>
      </trkpt>
      <trkpt lat="48.40227" lon="2.03576">
        <ele>104</ele>
        <time>2011-04-30T07:54:22Z</time>
      </trkpt>
      <trkpt lat="48.40226" lon="2.03574">
        <ele>104</ele>
        <time>2011-04-30T07:54:23Z</time>
      </trkpt>
      <trkpt lat="48.40225" lon="2.03571">
        <ele>105</ele>
        <time>2011-04-30T07:54:24Z</time>
      </trkpt>
      <trkpt lat="48.40224" lon="2.03568">
        <ele>105</ele>
        <time>2011-04-30T07:54:25Z</time>
      </trkpt>
      <trkpt lat="48.40223" lon="2.03566">
        <ele>105</ele>
        <time>2011-04-30T07:54:26Z</time>
      </trkpt>
      <trkpt lat="48.40222" lon="2.03563">
        <ele>105</ele>
        <time>2011-04-30T07:54:27Z</time>
      </trkpt>
      <trkpt lat="48.40221" lon="2.0356">
        <ele>105</ele>
        <time>2011-04-30T07:54:28Z</time>
      </trkpt>
      <trkpt lat="48.4022" lon="2.03558">
        <ele>105</ele>
        <time>2011-04-30T07:54:29Z</time>
      </trkpt>
      <trkpt lat="48.40218" lon="2.03555">
        <ele>105</ele>
        <time>2011-04-30T07:54:30Z</time>
      </trkpt>
      <trkpt lat="48.40217" lon="2.03551">
        <ele>105</ele>
        <time>2011-04-30T07:54:31Z</time>
      </trkpt>
      <trkpt lat="48.40216" lon="2.03548">
        <ele>105</ele>
        <time>2011-04-30T07:54:32Z</time>
      </trkpt>
      <trkpt lat="48.40214" lon="2.03544">
        <ele>105</ele>
        <time>2011-04-30T07:54:33Z</time>
      </trkpt>
      <trkpt lat="48.40212" lon="2.03539">
        <ele>105</ele>
        <time>2011-04-30T07:54:34Z</time>
      </trkpt>
      <trkpt lat="48.40211" lon="2.03536">
        <ele>105</ele>
        <time>2011-04-30T07:54:35Z</time>
      </trkpt>
      <trkpt lat="48.4021" lon="2.03532">
        <ele>105</ele>
        <time>2011-04-30T07:54:36Z</time>
      </trkpt>
      <trkpt lat="48.40208" lon="2.0353">
        <ele>105</ele>
        <time>2011-04-30T07:54:37Z</time>
      </trkpt>
      <trkpt lat="48.40207" lon="2.03527">
        <ele>105</ele>
        <time>2011-04-30T07:54:38Z</time>
      </trkpt>
      <trkpt lat="48.40206" lon="2.03524">
        <ele>105</ele>
        <time>2011-04-30T07:54:39Z</time>
      </trkpt>
      <trkpt lat="48.40205" lon="2.03522">
        <ele>105</ele>
        <time>2011-04-30T07:54:40Z</time>
      </trkpt>
      <trkpt lat="48.40204" lon="2.03518">
        <ele>105</ele>
        <time>2011-04-30T07:54:41Z</time>
      </trkpt>
      <trkpt lat="48.40203" lon="2.03514">
        <ele>105</ele>
        <time>2011-04-30T07:54:42Z</time>
      </trkpt>
      <trkpt lat="48.40202" lon="2.0351">
        <ele>105</ele>
        <time>2011-04-30T07:54:43Z</time>
      </trkpt>
      <trkpt lat="48.40201" lon="2.03505">
        <ele>105</ele>
        <time>2011-04-30T07:54:44Z</time>
      </trkpt>
      <trkpt lat="48.402" lon="2.03501">
        <ele>105</ele>
        <time>2011-04-30T07:54:45Z</time>
      </trkpt>
      <trkpt lat="48.40199" lon="2.03497">
        <ele>102</ele>
        <time>2011-04-30T07:54:46Z</time>
      </trkpt>
      <trkpt lat="48.40197" lon="2.03494">
        <ele>102</ele>
        <time>2011-04-30T07:54:47Z</time>
      </trkpt>
      <trkpt lat="48.40196" lon="2.03491">
        <ele>102</ele>
        <time>2011-04-30T07:54:48Z</time>
      </trkpt>
      <trkpt lat="48.40194" lon="2.03489">
        <ele>103</ele>
        <time>2011-04-30T07:54:49Z</time>
      </trkpt>
      <trkpt lat="48.40192" lon="2.03487">
        <ele>103</ele>
        <time>2011-04-30T07:54:50Z</time>
      </trkpt>
      <trkpt lat="48.4019" lon="2.03484">
        <ele>103</ele>
        <time>2011-04-30T07:54:51Z</time>
      </trkpt>
      <trkpt lat="48.40188" lon="2.03482">
        <ele>103</ele>
        <time>2011-04-30T07:54:52Z</time>
      </trkpt>
      <trkpt lat="48.40186" lon="2.0348">
        <ele>103</ele>
        <time>2011-04-30T07:54:53Z</time>
      </trkpt>
      <trkpt lat="48.40185" lon="2.03478">
        <ele>103</ele>
        <time>2011-04-30T07:54:54Z</time>
      </trkpt>
      <trkpt lat="48.40183" lon="2.03475">
        <ele>103</ele>
        <time>2011-04-30T07:54:55Z</time>
      </trkpt>
      <trkpt lat="48.40181" lon="2.03473">
        <ele>103</ele>
        <time>2011-04-30T07:54:56Z</time>
      </trkpt>
      <trkpt lat="48.4018" lon="2.03471">
        <ele>103</ele>
        <time>2011-04-30T07:54:57Z</time>
      </trkpt>
      <trkpt lat="48.40178" lon="2.03468">
        <ele>102</ele>
        <time>2011-04-30T07:54:58Z</time>
      </trkpt>
      <trkpt lat="48.40176" lon="2.03465">
        <ele>102</ele>
        <time>2011-04-30T07:54:59Z</time>
      </trkpt>
      <trkpt lat="48.40174" lon="2.03462">
        <ele>102</ele>
        <time>2011-04-30T07:55:00Z</time>
      </trkpt>
      <trkpt lat="48.40173" lon="2.0346">
        <ele>102</ele>
        <time>2011-04-30T07:55:01Z</time>
      </trkpt>
      <trkpt lat="48.40171" lon="2.03458">
        <ele>102</ele>
        <time>2011-04-30T07:55:02Z</time>
      </trkpt>
      <trkpt lat="48.40169" lon="2.03456">
        <ele>102</ele>
        <time>2011-04-30T07:55:03Z</time>
      </trkpt>
      <trkpt lat="48.40168" lon="2.03454">
        <ele>102</ele>
        <time>2011-04-30T07:55:04Z</time>
      </trkpt>
      <trkpt lat="48.40166" lon="2.03452">
        <ele>107</ele>
        <time>2011-04-30T07:55:05Z</time>
      </trkpt>
      <trkpt lat="48.40164" lon="2.0345">
        <ele>107</ele>
        <time>2011-04-30T07:55:06Z</time>
      </trkpt>
      <trkpt lat="48.40163" lon="2.03448">
        <ele>107</ele>
        <time>2011-04-30T07:55:07Z</time>
      </trkpt>
      <trkpt lat="48.40161" lon="2.03446">
        <ele>107</ele>
        <time>2011-04-30T07:55:08Z</time>
      </trkpt>
      <trkpt lat="48.4016" lon="2.03444">
        <ele>107</ele>
        <time>2011-04-30T07:55:09Z</time>
      </trkpt>
      <trkpt lat="48.40158" lon="2.03441">
        <ele>107</ele>
        <time>2011-04-30T07:55:10Z</time>
      </trkpt>
      <trkpt lat="48.40157" lon="2.03439">
        <ele>107</ele>
        <time>2011-04-30T07:55:11Z</time>
      </trkpt>
      <trkpt lat="48.40156" lon="2.03437">
        <ele>106</ele>
        <time>2011-04-30T07:55:12Z</time>
      </trkpt>
      <trkpt lat="48.40155" lon="2.03434">
        <ele>106</ele>
        <time>2011-04-30T07:55:13Z</time>
      </trkpt>
      <trkpt lat="48.40153" lon="2.0343">
        <ele>106</ele>
        <time>2011-04-30T07:55:14Z</time>
      </trkpt>
      <trkpt lat="48.40152" lon="2.03427">
        <ele>106</ele>
        <time>2011-04-30T07:55:15Z</time>
      </trkpt>
      <trkpt lat="48.40151" lon="2.03424">
        <ele>106</ele>
        <time>2011-04-30T07:55:16Z</time>
      </trkpt>
      <trkpt lat="48.4015" lon="2.03422">
        <ele>106</ele>
        <time>2011-04-30T07:55:17Z</time>
      </trkpt>
      <trkpt lat="48.40149" lon="2.03419">
        <ele>106</ele>
        <time>2011-04-30T07:55:18Z</time>
      </trkpt>
      <trkpt lat="48.40148" lon="2.03416">
        <ele>102</ele>
        <time>2011-04-30T07:55:19Z</time>
      </trkpt>
      <trkpt lat="48.40147" lon="2.03414">
        <ele>102</ele>
        <time>2011-04-30T07:55:20Z</time>
      </trkpt>
      <trkpt lat="48.40145" lon="2.03411">
        <ele>102</ele>
        <time>2011-04-30T07:55:21Z</time>
      </trkpt>
      <trkpt lat="48.40143" lon="2.03408">
        <ele>103</ele>
        <time>2011-04-30T07:55:22Z</time>
      </trkpt>
      <trkpt lat="48.40142" lon="2.03405">
        <ele>103</ele>
        <time>2011-04-30T07:55:23Z</time>
      </trkpt>
      <trkpt lat="48.4014" lon="2.03402">
        <ele>103</ele>
        <time>2011-04-30T07:55:24Z</time>
      </trkpt>
      <trkpt lat="48.40139" lon="2.03399">
        <ele>103</ele>
        <time>2011-04-30T07:55:25Z</time>
      </trkpt>
      <trkpt lat="48.40137" lon="2.03397">
        <ele>103</ele>
        <time>2011-04-30T07:55:26Z</time>
      </trkpt>
      <trkpt lat="48.40136" lon="2.03394">
        <ele>103</ele>
        <time>2011-04-30T07:55:27Z</time>
      </trkpt>
      <trkpt lat="48.40134" lon="2.03392">
        <ele>103</ele>
        <time>2011-04-30T07:55:28Z</time>
      </trkpt>
      <trkpt lat="48.40132" lon="2.03389">
        <ele>103</ele>
        <time>2011-04-30T07:55:29Z</time>
      </trkpt>
      <trkpt lat="48.40129" lon="2.03386">
        <ele>103</ele>
        <time>2011-04-30T07:55:30Z</time>
      </trkpt>
      <trkpt lat="48.40127" lon="2.03383">
        <ele>103</ele>
        <time>2011-04-30T07:55:31Z</time>
      </trkpt>
      <trkpt lat="48.40125" lon="2.03382">
        <ele>103</ele>
        <time>2011-04-30T07:55:32Z</time>
      </trkpt>
      <trkpt lat="48.40122" lon="2.0338">
        <ele>103</ele>
        <time>2011-04-30T07:55:33Z</time>
      </trkpt>
      <trkpt lat="48.4012" lon="2.03378">
        <ele>103</ele>
        <time>2011-04-30T07:55:34Z</time>
      </trkpt>
      <trkpt lat="48.40118" lon="2.03376">
        <ele>103</ele>
        <time>2011-04-30T07:55:35Z</time>
      </trkpt>
      <trkpt lat="48.40116" lon="2.03374">
        <ele>103</ele>
        <time>2011-04-30T07:55:36Z</time>
      </trkpt>
      <trkpt lat="48.40113" lon="2.03372">
        <ele>103</ele>
        <time>2011-04-30T07:55:37Z</time>
      </trkpt>
      <trkpt lat="48.40111" lon="2.03371">
        <ele>103</ele>
        <time>2011-04-30T07:55:38Z</time>
      </trkpt>
      <trkpt lat="48.40109" lon="2.03369">
        <ele>103</ele>
        <time>2011-04-30T07:55:39Z</time>
      </trkpt>
      <trkpt lat="48.40106" lon="2.03367">
        <ele>103</ele>
        <time>2011-04-30T07:55:40Z</time>
      </trkpt>
      <trkpt lat="48.40104" lon="2.03366">
        <ele>103</ele>
        <time>2011-04-30T07:55:41Z</time>
      </trkpt>
      <trkpt lat="48.40102" lon="2.03365">
        <ele>103</ele>
        <time>2011-04-30T07:55:42Z</time>
      </trkpt>
      <trkpt lat="48.401" lon="2.03364">
        <ele>103</ele>
        <time>2011-04-30T07:55:43Z</time>
      </trkpt>
      <trkpt lat="48.40098" lon="2.03363">
        <ele>103</ele>
        <time>2011-04-30T07:55:44Z</time>
      </trkpt>
      <trkpt lat="48.40096" lon="2.03363">
        <ele>103</ele>
        <time>2011-04-30T07:55:45Z</time>
      </trkpt>
      <trkpt lat="48.40095" lon="2.03362">
        <ele>103</ele>
        <time>2011-04-30T07:55:46Z</time>
      </trkpt>
      <trkpt lat="48.40093" lon="2.03361">
        <ele>103</ele>
        <time>2011-04-30T07:55:47Z</time>
      </trkpt>
      <trkpt lat="48.40091" lon="2.0336">
        <ele>103</ele>
        <time>2011-04-30T07:55:48Z</time>
      </trkpt>
      <trkpt lat="48.4009" lon="2.03359">
        <ele>103</ele>
        <time>2011-04-30T07:55:49Z</time>
      </trkpt>
      <trkpt lat="48.40088" lon="2.03358">
        <ele>103</ele>
        <time>2011-04-30T07:55:50Z</time>
      </trkpt>
      <trkpt lat="48.40086" lon="2.03357">
        <ele>103</ele>
        <time>2011-04-30T07:55:51Z</time>
      </trkpt>
      <trkpt lat="48.40084" lon="2.03356">
        <ele>103</ele>
        <time>2011-04-30T07:55:52Z</time>
      </trkpt>
      <trkpt lat="48.40082" lon="2.03354">
        <ele>106</ele>
        <time>2011-04-30T07:55:53Z</time>
      </trkpt>
      <trkpt lat="48.4008" lon="2.03353">
        <ele>105</ele>
        <time>2011-04-30T07:55:54Z</time>
      </trkpt>
      <trkpt lat="48.40079" lon="2.03352">
        <ele>105</ele>
        <time>2011-04-30T07:55:55Z</time>
      </trkpt>
      <trkpt lat="48.40077" lon="2.0335">
        <ele>105</ele>
        <time>2011-04-30T07:55:56Z</time>
      </trkpt>
      <trkpt lat="48.40075" lon="2.03349">
        <ele>105</ele>
        <time>2011-04-30T07:55:57Z</time>
      </trkpt>
      <trkpt lat="48.40073" lon="2.03347">
        <ele>105</ele>
        <time>2011-04-30T07:55:58Z</time>
      </trkpt>
      <trkpt lat="48.40071" lon="2.03346">
        <ele>105</ele>
        <time>2011-04-30T07:55:59Z</time>
      </trkpt>
      <trkpt lat="48.40068" lon="2.03345">
        <ele>105</ele>
        <time>2011-04-30T07:56:00Z</time>
      </trkpt>
      <trkpt lat="48.40065" lon="2.03343">
        <ele>105</ele>
        <time>2011-04-30T07:56:01Z</time>
      </trkpt>
      <trkpt lat="48.40062" lon="2.03342">
        <ele>105</ele>
        <time>2011-04-30T07:56:02Z</time>
      </trkpt>
      <trkpt lat="48.4006" lon="2.0334">
        <ele>105</ele>
        <time>2011-04-30T07:56:03Z</time>
      </trkpt>
      <trkpt lat="48.40057" lon="2.03339">
        <ele>106</ele>
        <time>2011-04-30T07:56:04Z</time>
      </trkpt>
      <trkpt lat="48.40055" lon="2.03338">
        <ele>106</ele>
        <time>2011-04-30T07:56:05Z</time>
      </trkpt>
      <trkpt lat="48.40052" lon="2.03337">
        <ele>106</ele>
        <time>2011-04-30T07:56:06Z</time>
      </trkpt>
      <trkpt lat="48.4005" lon="2.03337">
        <ele>106</ele>
        <time>2011-04-30T07:56:07Z</time>
      </trkpt>
      <trkpt lat="48.40048" lon="2.03336">
        <ele>106</ele>
        <time>2011-04-30T07:56:08Z</time>
      </trkpt>
      <trkpt lat="48.40046" lon="2.03336">
        <ele>106</ele>
        <time>2011-04-30T07:56:09Z</time>
      </trkpt>
      <trkpt lat="48.40044" lon="2.03335">
        <ele>106</ele>
        <time>2011-04-30T07:56:10Z</time>
      </trkpt>
      <trkpt lat="48.40042" lon="2.03334">
        <ele>106</ele>
        <time>2011-04-30T07:56:11Z</time>
      </trkpt>
      <trkpt lat="48.4004" lon="2.03334">
        <ele>106</ele>
        <time>2011-04-30T07:56:12Z</time>
      </trkpt>
      <trkpt lat="48.40038" lon="2.03333">
        <ele>100</ele>
        <time>2011-04-30T07:56:13Z</time>
      </trkpt>
      <trkpt lat="48.40036" lon="2.03333">
        <ele>100</ele>
        <time>2011-04-30T07:56:14Z</time>
      </trkpt>
      <trkpt lat="48.40033" lon="2.03332">
        <ele>100</ele>
        <time>2011-04-30T07:56:15Z</time>
      </trkpt>
      <trkpt lat="48.40031" lon="2.03331">
        <ele>100</ele>
        <time>2011-04-30T07:56:16Z</time>
      </trkpt>
      <trkpt lat="48.40029" lon="2.03331">
        <ele>100</ele>
        <time>2011-04-30T07:56:17Z</time>
      </trkpt>
      <trkpt lat="48.40027" lon="2.0333">
        <ele>100</ele>
        <time>2011-04-30T07:56:18Z</time>
      </trkpt>
      <trkpt lat="48.40025" lon="2.03329">
        <ele>100</ele>
        <time>2011-04-30T07:56:19Z</time>
      </trkpt>
      <trkpt lat="48.40023" lon="2.03328">
        <ele>100</ele>
        <time>2011-04-30T07:56:20Z</time>
      </trkpt>
      <trkpt lat="48.40022" lon="2.03327">
        <ele>100</ele>
        <time>2011-04-30T07:56:21Z</time>
      </trkpt>
      <trkpt lat="48.4002" lon="2.03326">
        <ele>101</ele>
        <time>2011-04-30T07:56:22Z</time>
      </trkpt>
      <trkpt lat="48.40019" lon="2.03325">
        <ele>101</ele>
        <time>2011-04-30T07:56:23Z</time>
      </trkpt>
      <trkpt lat="48.40017" lon="2.03324">
        <ele>101</ele>
        <time>2011-04-30T07:56:24Z</time>
      </trkpt>
      <trkpt lat="48.40015" lon="2.03321">
        <ele>101</ele>
        <time>2011-04-30T07:56:25Z</time>
      </trkpt>
      <trkpt lat="48.40012" lon="2.03319">
        <ele>101</ele>
        <time>2011-04-30T07:56:26Z</time>
      </trkpt>
      <trkpt lat="48.4001" lon="2.03317">
        <ele>100</ele>
        <time>2011-04-30T07:56:27Z</time>
      </trkpt>
      <trkpt lat="48.40008" lon="2.03316">
        <ele>100</ele>
        <time>2011-04-30T07:56:28Z</time>
      </trkpt>
      <trkpt lat="48.40005" lon="2.03313">
        <ele>100</ele>
        <time>2011-04-30T07:56:29Z</time>
      </trkpt>
      <trkpt lat="48.40002" lon="2.03312">
        <ele>100</ele>
        <time>2011-04-30T07:56:30Z</time>
      </trkpt>
      <trkpt lat="48.39999" lon="2.0331">
        <ele>101</ele>
        <time>2011-04-30T07:56:31Z</time>
      </trkpt>
      <trkpt lat="48.39995" lon="2.03308">
        <ele>100</ele>
        <time>2011-04-30T07:56:32Z</time>
      </trkpt>
      <trkpt lat="48.39991" lon="2.03307">
        <ele>100</ele>
        <time>2011-04-30T07:56:33Z</time>
      </trkpt>
      <trkpt lat="48.39987" lon="2.03305">
        <ele>100</ele>
        <time>2011-04-30T07:56:34Z</time>
      </trkpt>
      <trkpt lat="48.39984" lon="2.03304">
        <ele>100</ele>
        <time>2011-04-30T07:56:35Z</time>
      </trkpt>
      <trkpt lat="48.39981" lon="2.03302">
        <ele>100</ele>
        <time>2011-04-30T07:56:36Z</time>
      </trkpt>
      <trkpt lat="48.39979" lon="2.03301">
        <ele>100</ele>
        <time>2011-04-30T07:56:37Z</time>
      </trkpt>
      <trkpt lat="48.39977" lon="2.03299">
        <ele>100</ele>
        <time>2011-04-30T07:56:38Z</time>
      </trkpt>
      <trkpt lat="48.39976" lon="2.03299">
        <ele>100</ele>
        <time>2011-04-30T07:56:39Z</time>
      </trkpt>
      <trkpt lat="48.39975" lon="2.03298">
        <ele>100</ele>
        <time>2011-04-30T07:56:40Z</time>
      </trkpt>
      <trkpt lat="48.39974" lon="2.03297">
        <ele>100</ele>
        <time>2011-04-30T07:56:41Z</time>
      </trkpt>
      <trkpt lat="48.39973" lon="2.03297">
        <ele>100</ele>
        <time>2011-04-30T07:56:42Z</time>
      </trkpt>
      <trkpt lat="48.39972" lon="2.03296">
        <ele>100</ele>
        <time>2011-04-30T07:56:43Z</time>
      </trkpt>
      <trkpt lat="48.39971" lon="2.03296">
        <ele>100</ele>
        <time>2011-04-30T07:56:44Z</time>
      </trkpt>
      <trkpt lat="48.3997" lon="2.03296">
        <ele>100</ele>
        <time>2011-04-30T07:56:45Z</time>
      </trkpt>
      <trkpt lat="48.39969" lon="2.03297">
        <ele>100</ele>
        <time>2011-04-30T07:56:46Z</time>
      </trkpt>
      <trkpt lat="48.39968" lon="2.03297">
        <ele>100</ele>
        <time>2011-04-30T07:56:47Z</time>
      </trkpt>
      <trkpt lat="48.39968" lon="2.03298">
        <ele>100</ele>
        <time>2011-04-30T07:56:48Z</time>
      </trkpt>
      <trkpt lat="48.39967" lon="2.03298">
        <ele>100</ele>
        <time>2011-04-30T07:56:49Z</time>
      </trkpt>
      <trkpt lat="48.39966" lon="2.03299">
        <ele>100</ele>
        <time>2011-04-30T07:56:50Z</time>
      </trkpt>
      <trkpt lat="48.39966" lon="2.03299">
        <ele>100</ele>
        <time>2011-04-30T07:56:51Z</time>
      </trkpt>
      <trkpt lat="48.39965" lon="2.03299">
        <ele>100</ele>
        <time>2011-04-30T07:56:52Z</time>
      </trkpt>
      <trkpt lat="48.39965" lon="2.03299">
        <ele>100</ele>
        <time>2011-04-30T07:56:53Z</time>
      </trkpt>
      <trkpt lat="48.39965" lon="2.03299">
        <ele>100</ele>
        <time>2011-04-30T07:56:54Z</time>
      </trkpt>
      <trkpt lat="48.39965" lon="2.03299">
        <ele>100</ele>
        <time>2011-04-30T07:56:55Z</time>
      </trkpt>
      <trkpt lat="48.39964" lon="2.03299">
        <ele>100</ele>
        <time>2011-04-30T07:56:56Z</time>
      </trkpt>
      <trkpt lat="48.39964" lon="2.03299">
        <ele>100</ele>
        <time>2011-04-30T07:56:57Z</time>
      </trkpt>
      <trkpt lat="48.39964" lon="2.03299">
        <ele>100</ele>
        <time>2011-04-30T07:56:58Z</time>
      </trkpt>
      <trkpt lat="48.39964" lon="2.03299">
        <ele>100</ele>
        <time>2011-04-30T07:56:59Z</time>
      </trkpt>
      <trkpt lat="48.39963" lon="2.03299">
        <ele>100</ele>
        <time>2011-04-30T07:57:00Z</time>
      </trkpt>
      <trkpt lat="48.39962" lon="2.03299">
        <ele>100</ele>
        <time>2011-04-30T07:57:01Z</time>
      </trkpt>
      <trkpt lat="48.39961" lon="2.03299">
        <ele>100</ele>
        <time>2011-04-30T07:57:02Z</time>
      </trkpt>
      <trkpt lat="48.3996" lon="2.03299">
        <ele>100</ele>
        <time>2011-04-30T07:57:03Z</time>
      </trkpt>
      <trkpt lat="48.39959" lon="2.033">
        <ele>100</ele>
        <time>2011-04-30T07:57:04Z</time>
      </trkpt>
      <trkpt lat="48.39958" lon="2.033">
        <ele>100</ele>
        <time>2011-04-30T07:57:05Z</time>
      </trkpt>
      <trkpt lat="48.39957" lon="2.033">
        <ele>100</ele>
        <time>2011-04-30T07:57:06Z</time>
      </trkpt>
      <trkpt lat="48.39956" lon="2.03301">
        <ele>100</ele>
        <time>2011-04-30T07:57:07Z</time>
      </trkpt>
      <trkpt lat="48.39956" lon="2.03301">
        <ele>100</ele>
        <time>2011-04-30T07:57:08Z</time>
      </trkpt>
      <trkpt lat="48.39955" lon="2.03302">
        <ele>100</ele>
        <time>2011-04-30T07:57:09Z</time>
      </trkpt>
      <trkpt lat="48.39955" lon="2.03303">
        <ele>100</ele>
        <time>2011-04-30T07:57:10Z</time>
      </trkpt>
      <trkpt lat="48.39954" lon="2.03303">
        <ele>100</ele>
        <time>2011-04-30T07:57:11Z</time>
      </trkpt>
      <trkpt lat="48.39953" lon="2.03304">
        <ele>100</ele>
        <time>2011-04-30T07:57:12Z</time>
      </trkpt>
      <trkpt lat="48.39953" lon="2.03305">
        <ele>100</ele>
        <time>2011-04-30T07:57:13Z</time>
      </trkpt>
      <trkpt lat="48.39952" lon="2.03306">
        <ele>100</ele>
        <time>2011-04-30T07:57:14Z</time>
      </trkpt>
      <trkpt lat="48.39951" lon="2.03307">
        <ele>100</ele>
        <time>2011-04-30T07:57:15Z</time>
      </trkpt>
      <trkpt lat="48.39951" lon="2.03308">
        <ele>100</ele>
        <time>2011-04-30T07:57:16Z</time>
      </trkpt>
      <trkpt lat="48.3995" lon="2.03309">
        <ele>100</ele>
        <time>2011-04-30T07:57:17Z</time>
      </trkpt>
      <trkpt lat="48.3995" lon="2.0331">
        <ele>100</ele>
        <time>2011-04-30T07:57:18Z</time>
      </trkpt>
      <trkpt lat="48.39949" lon="2.03311">
        <ele>101</ele>
        <time>2011-04-30T07:57:19Z</time>
      </trkpt>
      <trkpt lat="48.39948" lon="2.03312">
        <ele>101</ele>
        <time>2011-04-30T07:57:20Z</time>
      </trkpt>
      <trkpt lat="48.39948" lon="2.03313">
        <ele>101</ele>
        <time>2011-04-30T07:57:21Z</time>
      </trkpt>
      <trkpt lat="48.39947" lon="2.03314">
        <ele>101</ele>
        <time>2011-04-30T07:57:22Z</time>
      </trkpt>
      <trkpt lat="48.39947" lon="2.03314">
        <ele>101</ele>
        <time>2011-04-30T07:57:23Z</time>
      </trkpt>
      <trkpt lat="48.39946" lon="2.03315">
        <ele>101</ele>
        <time>2011-04-30T07:57:24Z</time>
      </trkpt>
      <trkpt lat="48.39945" lon="2.03316">
        <ele>101</ele>
        <time>2011-04-30T07:57:25Z</time>
      </trkpt>
      <trkpt lat="48.39944" lon="2.03317">
        <ele>101</ele>
        <time>2011-04-30T07:57:26Z</time>
      </trkpt>
      <trkpt lat="48.39944" lon="2.03318">
        <ele>101</ele>
        <time>2011-04-30T07:57:27Z</time>
      </trkpt>
      <trkpt lat="48.39943" lon="2.03319">
        <ele>101</ele>
        <time>2011-04-30T07:57:28Z</time>
      </trkpt>
      <trkpt lat="48.39942" lon="2.03319">
        <ele>101</ele>
        <time>2011-04-30T07:57:29Z</time>
      </trkpt>
      <trkpt lat="48.39941" lon="2.0332">
        <ele>101</ele>
        <time>2011-04-30T07:57:30Z</time>
      </trkpt>
      <trkpt lat="48.3994" lon="2.03321">
        <ele>101</ele>
        <time>2011-04-30T07:57:31Z</time>
      </trkpt>
      <trkpt lat="48.3994" lon="2.03322">
        <ele>101</ele>
        <time>2011-04-30T07:57:32Z</time>
      </trkpt>
      <trkpt lat="48.39939" lon="2.03323">
        <ele>101</ele>
        <time>2011-04-30T07:57:33Z</time>
      </trkpt>
      <trkpt lat="48.39938" lon="2.03324">
        <ele>101</ele>
        <time>2011-04-30T07:57:34Z</time>
      </trkpt>
      <trkpt lat="48.39937" lon="2.03325">
        <ele>101</ele>
        <time>2011-04-30T07:57:35Z</time>
      </trkpt>
      <trkpt lat="48.39936" lon="2.03326">
        <ele>101</ele>
        <time>2011-04-30T07:57:36Z</time>
      </trkpt>
      <trkpt lat="48.39935" lon="2.03327">
        <ele>101</ele>
        <time>2011-04-30T07:57:37Z</time>
      </trkpt>
      <trkpt lat="48.39934" lon="2.03327">
        <ele>101</ele>
        <time>2011-04-30T07:57:38Z</time>
      </trkpt>
      <trkpt lat="48.39933" lon="2.03328">
        <ele>101</ele>
        <time>2011-04-30T07:57:39Z</time>
      </trkpt>
      <trkpt lat="48.39931" lon="2.03328">
        <ele>101</ele>
        <time>2011-04-30T07:57:40Z</time>
      </trkpt>
      <trkpt lat="48.3993" lon="2.03328">
        <ele>101</ele>
        <time>2011-04-30T07:57:41Z</time>
      </trkpt>
      <trkpt lat="48.39928" lon="2.03329">
        <ele>101</ele>
        <time>2011-04-30T07:57:42Z</time>
      </trkpt>
      <trkpt lat="48.39927" lon="2.03329">
        <ele>101</ele>
        <time>2011-04-30T07:57:43Z</time>
      </trkpt>
      <trkpt lat="48.39926" lon="2.03329">
        <ele>101</ele>
        <time>2011-04-30T07:57:44Z</time>
      </trkpt>
      <trkpt lat="48.39926" lon="2.03329">
        <ele>101</ele>
        <time>2011-04-30T07:57:45Z</time>
      </trkpt>
      <trkpt lat="48.39925" lon="2.03329">
        <ele>101</ele>
        <time>2011-04-30T07:57:46Z</time>
      </trkpt>
      <trkpt lat="48.39924" lon="2.03328">
        <ele>101</ele>
        <time>2011-04-30T07:57:47Z</time>
      </trkpt>
      <trkpt lat="48.39923" lon="2.03328">
        <ele>101</ele>
        <time>2011-04-30T07:57:48Z</time>
      </trkpt>
      <trkpt lat="48.39922" lon="2.03328">
        <ele>102</ele>
        <time>2011-04-30T07:57:49Z</time>
      </trkpt>
      <trkpt lat="48.39922" lon="2.03328">
        <ele>102</ele>
        <time>2011-04-30T07:57:50Z</time>
      </trkpt>
      <trkpt lat="48.39921" lon="2.03329">
        <ele>102</ele>
        <time>2011-04-30T07:57:51Z</time>
      </trkpt>
      <trkpt lat="48.3992" lon="2.03329">
        <ele>102</ele>
        <time>2011-04-30T07:57:52Z</time>
      </trkpt>
      <trkpt lat="48.39919" lon="2.0333">
        <ele>102</ele>
        <time>2011-04-30T07:57:53Z</time>
      </trkpt>
      <trkpt lat="48.39918" lon="2.03331">
        <ele>102</ele>
        <time>2011-04-30T07:57:54Z</time>
      </trkpt>
      <trkpt lat="48.39917" lon="2.03332">
        <ele>102</ele>
        <time>2011-04-30T07:57:55Z</time>
      </trkpt>
      <trkpt lat="48.39916" lon="2.03332">
        <ele>102</ele>
        <time>2011-04-30T07:57:56Z</time>
      </trkpt>
      <trkpt lat="48.39915" lon="2.03333">
        <ele>102</ele>
        <time>2011-04-30T07:57:57Z</time>
      </trkpt>
      <trkpt lat="48.39914" lon="2.03333">
        <ele>102</ele>
        <time>2011-04-30T07:57:58Z</time>
      </trkpt>
      <trkpt lat="48.39913" lon="2.03333">
        <ele>102</ele>
        <time>2011-04-30T07:57:59Z</time>
      </trkpt>
      <trkpt lat="48.39912" lon="2.03333">
        <ele>102</ele>
        <time>2011-04-30T07:58:00Z</time>
      </trkpt>
      <trkpt lat="48.39911" lon="2.03332">
        <ele>102</ele>
        <time>2011-04-30T07:58:01Z</time>
      </trkpt>
      <trkpt lat="48.3991" lon="2.03332">
        <ele>102</ele>
        <time>2011-04-30T07:58:02Z</time>
      </trkpt>
      <trkpt lat="48.39908" lon="2.03332">
        <ele>102</ele>
        <time>2011-04-30T07:58:03Z</time>
      </trkpt>
      <trkpt lat="48.39907" lon="2.03332">
        <ele>102</ele>
        <time>2011-04-30T07:58:04Z</time>
      </trkpt>
      <trkpt lat="48.39906" lon="2.03332">
        <ele>102</ele>
        <time>2011-04-30T07:58:05Z</time>
      </trkpt>
      <trkpt lat="48.39904" lon="2.03332">
        <ele>102</ele>
        <time>2011-04-30T07:58:06Z</time>
      </trkpt>
      <trkpt lat="48.39903" lon="2.03333">
        <ele>102</ele>
        <time>2011-04-30T07:58:07Z</time>
      </trkpt>
      <trkpt lat="48.39901" lon="2.03333">
        <ele>106</ele>
        <time>2011-04-30T07:58:08Z</time>
      </trkpt>
      <trkpt lat="48.39899" lon="2.03334">
        <ele>106</ele>
        <time>2011-04-30T07:58:09Z</time>
      </trkpt>
      <trkpt lat="48.39897" lon="2.03335">
        <ele>107</ele>
        <time>2011-04-30T07:58:10Z</time>
      </trkpt>
      <trkpt lat="48.39896" lon="2.03335">
        <ele>107</ele>
        <time>2011-04-30T07:58:11Z</time>
      </trkpt>
      <trkpt lat="48.39894" lon="2.03336">
        <ele>107</ele>
        <time>2011-04-30T07:58:12Z</time>
      </trkpt>
      <trkpt lat="48.39893" lon="2.03337">
        <ele>107</ele>
        <time>2011-04-30T07:58:13Z</time>
      </trkpt>
      <trkpt lat="48.39892" lon="2.03338">
        <ele>108</ele>
        <time>2011-04-30T07:58:14Z</time>
      </trkpt>
      <trkpt lat="48.3989" lon="2.03339">
        <ele>108</ele>
        <time>2011-04-30T07:58:15Z</time>
      </trkpt>
      <trkpt lat="48.39889" lon="2.0334">
        <ele>108</ele>
        <time>2011-04-30T07:58:16Z</time>
      </trkpt>
      <trkpt lat="48.39888" lon="2.03341">
        <ele>108</ele>
        <time>2011-04-30T07:58:17Z</time>
      </trkpt>
      <trkpt lat="48.39887" lon="2.03342">
        <ele>108</ele>
        <time>2011-04-30T07:58:18Z</time>
      </trkpt>
      <trkpt lat="48.39886" lon="2.03343">
        <ele>108</ele>
        <time>2011-04-30T07:58:19Z</time>
      </trkpt>
      <trkpt lat="48.39885" lon="2.03343">
        <ele>108</ele>
        <time>2011-04-30T07:58:20Z</time>
      </trkpt>
      <trkpt lat="48.39884" lon="2.03344">
        <ele>108</ele>
        <time>2011-04-30T07:58:21Z</time>
      </trkpt>
      <trkpt lat="48.39883" lon="2.03345">
        <ele>109</ele>
        <time>2011-04-30T07:58:22Z</time>
      </trkpt>
      <trkpt lat="48.39882" lon="2.03345">
        <ele>109</ele>
        <time>2011-04-30T07:58:23Z</time>
      </trkpt>
      <trkpt lat="48.39881" lon="2.03346">
        <ele>109</ele>
        <time>2011-04-30T07:58:24Z</time>
      </trkpt>
      <trkpt lat="48.39879" lon="2.03346">
        <ele>109</ele>
        <time>2011-04-30T07:58:25Z</time>
      </trkpt>
      <trkpt lat="48.39878" lon="2.03346">
        <ele>109</ele>
        <time>2011-04-30T07:58:26Z</time>
      </trkpt>
      <trkpt lat="48.39877" lon="2.03345">
        <ele>109</ele>
        <time>2011-04-30T07:58:27Z</time>
      </trkpt>
      <trkpt lat="48.39876" lon="2.03345">
        <ele>109</ele>
        <time>2011-04-30T07:58:28Z</time>
      </trkpt>
      <trkpt lat="48.39875" lon="2.03345">
        <ele>109</ele>
        <time>2011-04-30T07:58:29Z</time>
      </trkpt>
      <trkpt lat="48.39874" lon="2.03345">
        <ele>109</ele>
        <time>2011-04-30T07:58:30Z</time>
      </trkpt>
      <trkpt lat="48.39874" lon="2.03344">
        <ele>109</ele>
        <time>2011-04-30T07:58:31Z</time>
      </trkpt>
      <trkpt lat="48.39873" lon="2.03344">
        <ele>109</ele>
        <time>2011-04-30T07:58:32Z</time>
      </trkpt>
      <trkpt lat="48.39873" lon="2.03344">
        <ele>109</ele>
        <time>2011-04-30T07:58:33Z</time>
      </trkpt>
      <trkpt lat="48.39872" lon="2.03344">
        <ele>109</ele>
        <time>2011-04-30T07:58:34Z</time>
      </trkpt>
      <trkpt lat="48.39872" lon="2.03344">
        <ele>109</ele>
        <time>2011-04-30T07:58:35Z</time>
      </trkpt>
      <trkpt lat="48.39871" lon="2.03345">
        <ele>109</ele>
        <time>2011-04-30T07:58:36Z</time>
      </trkpt>
      <trkpt lat="48.3987" lon="2.03345">
        <ele>109</ele>
        <time>2011-04-30T07:58:37Z</time>
      </trkpt>
      <trkpt lat="48.39869" lon="2.03346">
        <ele>109</ele>
        <time>2011-04-30T07:58:38Z</time>
      </trkpt>
      <trkpt lat="48.39868" lon="2.03347">
        <ele>109</ele>
        <time>2011-04-30T07:58:39Z</time>
      </trkpt>
      <trkpt lat="48.39867" lon="2.03347">
        <ele>109</ele>
        <time>2011-04-30T07:58:40Z</time>
      </trkpt>
      <trkpt lat="48.39866" lon="2.03348">
        <ele>109</ele>
        <time>2011-04-30T07:58:41Z</time>
      </trkpt>
      <trkpt lat="48.39865" lon="2.03348">
        <ele>109</ele>
        <time>2011-04-30T07:58:42Z</time>
      </trkpt>
      <trkpt lat="48.39864" lon="2.03348">
        <ele>109</ele>
        <time>2011-04-30T07:58:43Z</time>
      </trkpt>
      <trkpt lat="48.39863" lon="2.03349">
        <ele>109</ele>
        <time>2011-04-30T07:58:44Z</time>
      </trkpt>
      <trkpt lat="48.39863" lon="2.03349">
        <ele>109</ele>
        <time>2011-04-30T07:58:45Z</time>
      </trkpt>
      <trkpt lat="48.39862" lon="2.03349">
        <ele>109</ele>
        <time>2011-04-30T07:58:46Z</time>
      </trkpt>
      <trkpt lat="48.39861" lon="2.0335">
        <ele>109</ele>
        <time>2011-04-30T07:58:47Z</time>
      </trkpt>
      <trkpt lat="48.3986" lon="2.0335">
        <ele>109</ele>
        <time>2011-04-30T07:58:48Z</time>
      </trkpt>
      <trkpt lat="48.39859" lon="2.0335">
        <ele>109</ele>
        <time>2011-04-30T07:58:49Z</time>
      </trkpt>
      <trkpt lat="48.39858" lon="2.0335">
        <ele>109</ele>
        <time>2011-04-30T07:58:50Z</time>
      </trkpt>
      <trkpt lat="48.39857" lon="2.0335">
        <ele>109</ele>
        <time>2011-04-30T07:58:51Z</time>
      </trkpt>
      <trkpt lat="48.39856" lon="2.0335">
        <ele>109</ele>
        <time>2011-04-30T07:58:52Z</time>
      </trkpt>
      <trkpt lat="48.39855" lon="2.0335">
        <ele>109</ele>
        <time>2011-04-30T07:58:53Z</time>
      </trkpt>
      <trkpt lat="48.39854" lon="2.0335">
        <ele>109</ele>
        <time>2011-04-30T07:58:54Z</time>
      </trkpt>
      <trkpt lat="48.39853" lon="2.0335">
        <ele>109</ele>
        <time>2011-04-30T07:58:55Z</time>
      </trkpt>
      <trkpt lat="48.39853" lon="2.0335">
        <ele>109</ele>
        <time>2011-04-30T07:58:56Z</time>
      </trkpt>
      <trkpt lat="48.39852" lon="2.0335">
        <ele>109</ele>
        <time>2011-04-30T07:58:57Z</time>
      </trkpt>
      <trkpt lat="48.39851" lon="2.0335">
        <ele>109</ele>
        <time>2011-04-30T07:58:58Z</time>
      </trkpt>
      <trkpt lat="48.3985" lon="2.0335">
        <ele>109</ele>
        <time>2011-04-30T07:58:59Z</time>
      </trkpt>
      <trkpt lat="48.39849" lon="2.0335">
        <ele>109</ele>
        <time>2011-04-30T07:59:00Z</time>
      </trkpt>
      <trkpt lat="48.39848" lon="2.0335">
        <ele>109</ele>
        <time>2011-04-30T07:59:01Z</time>
      </trkpt>
      <trkpt lat="48.39847" lon="2.03349">
        <ele>109</ele>
        <time>2011-04-30T07:59:02Z</time>
      </trkpt>
      <trkpt lat="48.39846" lon="2.03349">
        <ele>108</ele>
        <time>2011-04-30T07:59:03Z</time>
      </trkpt>
      <trkpt lat="48.39845" lon="2.03349">
        <ele>108</ele>
        <time>2011-04-30T07:59:04Z</time>
      </trkpt>
      <trkpt lat="48.39844" lon="2.03349">
        <ele>108</ele>
        <time>2011-04-30T07:59:05Z</time>
      </trkpt>
      <trkpt lat="48.39842" lon="2.03349">
        <ele>108</ele>
        <time>2011-04-30T07:59:06Z</time>
      </trkpt>
      <trkpt lat="48.39839" lon="2.03349">
        <ele>108</ele>
        <time>2011-04-30T07:59:07Z</time>
      </trkpt>
      <trkpt lat="48.39837" lon="2.03348">
        <ele>108</ele>
        <time>2011-04-30T07:59:08Z</time>
      </trkpt>
      <trkpt lat="48.39835" lon="2.03348">
        <ele>108</ele>
        <time>2011-04-30T07:59:09Z</time>
      </trkpt>
      <trkpt lat="48.39833" lon="2.03348">
        <ele>108</ele>
        <time>2011-04-30T07:59:10Z</time>
      </trkpt>
      <trkpt lat="48.39831" lon="2.03347">
        <ele>108</ele>
        <time>2011-04-30T07:59:11Z</time>
      </trkpt>
      <trkpt lat="48.3983" lon="2.03347">
        <ele>108</ele>
        <time>2011-04-30T07:59:12Z</time>
      </trkpt>
      <trkpt lat="48.39828" lon="2.03347">
        <ele>108</ele>
        <time>2011-04-30T07:59:13Z</time>
      </trkpt>
      <trkpt lat="48.39826" lon="2.03346">
        <ele>108</ele>
        <time>2011-04-30T07:59:14Z</time>
      </trkpt>
      <trkpt lat="48.39825" lon="2.03346">
        <ele>108</ele>
        <time>2011-04-30T07:59:15Z</time>
      </trkpt>
      <trkpt lat="48.39823" lon="2.03345">
        <ele>108</ele>
        <time>2011-04-30T07:59:16Z</time>
      </trkpt>
      <trkpt lat="48.39822" lon="2.03345">
        <ele>109</ele>
        <time>2011-04-30T07:59:17Z</time>
      </trkpt>
      <trkpt lat="48.3982" lon="2.03345">
        <ele>109</ele>
        <time>2011-04-30T07:59:18Z</time>
      </trkpt>
      <trkpt lat="48.39819" lon="2.03346">
        <ele>109</ele>
        <time>2011-04-30T07:59:19Z</time>
      </trkpt>
      <trkpt lat="48.39818" lon="2.03346">
        <ele>109</ele>
        <time>2011-04-30T07:59:20Z</time>
      </trkpt>
      <trkpt lat="48.39816" lon="2.03345">
        <ele>109</ele>
        <time>2011-04-30T07:59:21Z</time>
      </trkpt>
      <trkpt lat="48.39814" lon="2.03345">
        <ele>109</ele>
        <time>2011-04-30T07:59:22Z</time>
      </trkpt>
      <trkpt lat="48.39812" lon="2.03345">
        <ele>109</ele>
        <time>2011-04-30T07:59:23Z</time>
      </trkpt>
      <trkpt lat="48.3981" lon="2.03345">
        <ele>109</ele>
        <time>2011-04-30T07:59:24Z</time>
      </trkpt>
      <trkpt lat="48.39808" lon="2.03344">
        <ele>109</ele>
        <time>2011-04-30T07:59:25Z</time>
      </trkpt>
      <trkpt lat="48.39806" lon="2.03344">
        <ele>110</ele>
        <time>2011-04-30T07:59:26Z</time>
      </trkpt>
      <trkpt lat="48.39804" lon="2.03343">
        <ele>110</ele>
        <time>2011-04-30T07:59:27Z</time>
      </trkpt>
      <trkpt lat="48.39801" lon="2.03342">
        <ele>110</ele>
        <time>2011-04-30T07:59:28Z</time>
      </trkpt>
      <trkpt lat="48.39799" lon="2.03341">
        <ele>110</ele>
        <time>2011-04-30T07:59:29Z</time>
      </trkpt>
      <trkpt lat="48.39797" lon="2.03341">
        <ele>110</ele>
        <time>2011-04-30T07:59:30Z</time>
      </trkpt>
      <trkpt lat="48.39794" lon="2.0334">
        <ele>110</ele>
        <time>2011-04-30T07:59:31Z</time>
      </trkpt>
      <trkpt lat="48.39792" lon="2.0334">
        <ele>110</ele>
        <time>2011-04-30T07:59:32Z</time>
      </trkpt>
      <trkpt lat="48.39789" lon="2.03339">
        <ele>110</ele>
        <time>2011-04-30T07:59:33Z</time>
      </trkpt>
      <trkpt lat="48.39787" lon="2.03339">
        <ele>110</ele>
        <time>2011-04-30T07:59:34Z</time>
      </trkpt>
      <trkpt lat="48.39784" lon="2.03339">
        <ele>110</ele>
        <time>2011-04-30T07:59:35Z</time>
      </trkpt>
      <trkpt lat="48.39782" lon="2.03338">
        <ele>110</ele>
        <time>2011-04-30T07:59:36Z</time>
      </trkpt>
      <trkpt lat="48.39779" lon="2.03337">
        <ele>110</ele>
        <time>2011-04-30T07:59:37Z</time>
      </trkpt>
      <trkpt lat="48.39776" lon="2.03337">
        <ele>110</ele>
        <time>2011-04-30T07:59:38Z</time>
      </trkpt>
      <trkpt lat="48.39773" lon="2.03336">
        <ele>109</ele>
        <time>2011-04-30T07:59:39Z</time>
      </trkpt>
      <trkpt lat="48.39771" lon="2.03336">
        <ele>109</ele>
        <time>2011-04-30T07:59:40Z</time>
      </trkpt>
      <trkpt lat="48.39769" lon="2.03336">
        <ele>109</ele>
        <time>2011-04-30T07:59:41Z</time>
      </trkpt>
      <trkpt lat="48.39767" lon="2.03335">
        <ele>109</ele>
        <time>2011-04-30T07:59:42Z</time>
      </trkpt>
      <trkpt lat="48.39765" lon="2.03335">
        <ele>109</ele>
        <time>2011-04-30T07:59:43Z</time>
      </trkpt>
      <trkpt lat="48.39763" lon="2.03335">
        <ele>108</ele>
        <time>2011-04-30T07:59:44Z</time>
      </trkpt>
      <trkpt lat="48.39761" lon="2.03335">
        <ele>108</ele>
        <time>2011-04-30T07:59:45Z</time>
      </trkpt>
      <trkpt lat="48.39759" lon="2.03335">
        <ele>108</ele>
        <time>2011-04-30T07:59:46Z</time>
      </trkpt>
      <trkpt lat="48.39757" lon="2.03335">
        <ele>108</ele>
        <time>2011-04-30T07:59:47Z</time>
      </trkpt>
      <trkpt lat="48.39755" lon="2.03335">
        <ele>107</ele>
        <time>2011-04-30T07:59:48Z</time>
      </trkpt>
      <trkpt lat="48.39753" lon="2.03335">
        <ele>107</ele>
        <time>2011-04-30T07:59:49Z</time>
      </trkpt>
      <trkpt lat="48.3975" lon="2.03335">
        <ele>106</ele>
        <time>2011-04-30T07:59:50Z</time>
      </trkpt>
      <trkpt lat="48.39747" lon="2.03334">
        <ele>107</ele>
        <time>2011-04-30T07:59:51Z</time>
      </trkpt>
      <trkpt lat="48.39745" lon="2.03334">
        <ele>108</ele>
        <time>2011-04-30T07:59:52Z</time>
      </trkpt>
      <trkpt lat="48.39742" lon="2.03333">
        <ele>106</ele>
        <time>2011-04-30T07:59:53Z</time>
      </trkpt>
      <trkpt lat="48.3974" lon="2.03332">
        <ele>106</ele>
        <time>2011-04-30T07:59:54Z</time>
      </trkpt>
      <trkpt lat="48.39738" lon="2.03332">
        <ele>106</ele>
        <time>2011-04-30T07:59:55Z</time>
      </trkpt>
      <trkpt lat="48.39736" lon="2.03331">
        <ele>106</ele>
        <time>2011-04-30T07:59:56Z</time>
      </trkpt>
      <trkpt lat="48.39734" lon="2.0333">
        <ele>106</ele>
        <time>2011-04-30T07:59:57Z</time>
      </trkpt>
      <trkpt lat="48.39732" lon="2.03329">
        <ele>106</ele>
        <time>2011-04-30T07:59:58Z</time>
      </trkpt>
      <trkpt lat="48.39731" lon="2.03329">
        <ele>106</ele>
        <time>2011-04-30T07:59:59Z</time>
      </trkpt>
      <trkpt lat="48.3973" lon="2.03329">
        <ele>106</ele>
        <time>2011-04-30T08:00:00Z</time>
      </trkpt>
      <trkpt lat="48.39728" lon="2.03328">
        <ele>106</ele>
        <time>2011-04-30T08:00:01Z</time>
      </trkpt>
      <trkpt lat="48.39727" lon="2.03328">
        <ele>106</ele>
        <time>2011-04-30T08:00:02Z</time>
      </trkpt>
      <trkpt lat="48.39725" lon="2.03328">
        <ele>106</ele>
        <time>2011-04-30T08:00:03Z</time>
      </trkpt>
      <trkpt lat="48.39724" lon="2.03328">
        <ele>106</ele>
        <time>2011-04-30T08:00:04Z</time>
      </trkpt>
      <trkpt lat="48.39722" lon="2.03328">
        <ele>106</ele>
        <time>2011-04-30T08:00:05Z</time>
      </trkpt>
      <trkpt lat="48.3972" lon="2.03328">
        <ele>106</ele>
        <time>2011-04-30T08:00:06Z</time>
      </trkpt>
      <trkpt lat="48.39718" lon="2.03328">
        <ele>106</ele>
        <time>2011-04-30T08:00:07Z</time>
      </trkpt>
      <trkpt lat="48.39716" lon="2.03328">
        <ele>106</ele>
        <time>2011-04-30T08:00:08Z</time>
      </trkpt>
      <trkpt lat="48.39713" lon="2.03327">
        <ele>106</ele>
        <time>2011-04-30T08:00:09Z</time>
      </trkpt>
      <trkpt lat="48.3971" lon="2.03327">
        <ele>106</ele>
        <time>2011-04-30T08:00:10Z</time>
      </trkpt>
      <trkpt lat="48.39706" lon="2.03327">
        <ele>106</ele>
        <time>2011-04-30T08:00:11Z</time>
      </trkpt>
      <trkpt lat="48.39703" lon="2.03326">
        <ele>106</ele>
        <time>2011-04-30T08:00:12Z</time>
      </trkpt>
      <trkpt lat="48.397" lon="2.03326">
        <ele>106</ele>
        <time>2011-04-30T08:00:13Z</time>
      </trkpt>
      <trkpt lat="48.39698" lon="2.03326">
        <ele>106</ele>
        <time>2011-04-30T08:00:14Z</time>
      </trkpt>
      <trkpt lat="48.39695" lon="2.03325">
        <ele>106</ele>
        <time>2011-04-30T08:00:15Z</time>
      </trkpt>
      <trkpt lat="48.39692" lon="2.03324">
        <ele>106</ele>
        <time>2011-04-30T08:00:16Z</time>
      </trkpt>
      <trkpt lat="48.39689" lon="2.03324">
        <ele>106</ele>
        <time>2011-04-30T08:00:17Z</time>
      </trkpt>
      <trkpt lat="48.39686" lon="2.03323">
        <ele>106</ele>
        <time>2011-04-30T08:00:18Z</time>
      </trkpt>
      <trkpt lat="48.39683" lon="2.03323">
        <ele>106</ele>
        <time>2011-04-30T08:00:19Z</time>
      </trkpt>
      <trkpt lat="48.3968" lon="2.03322">
        <ele>106</ele>
        <time>2011-04-30T08:00:20Z</time>
      </trkpt>
      <trkpt lat="48.39678" lon="2.03322">
        <ele>107</ele>
        <time>2011-04-30T08:00:21Z</time>
      </trkpt>
      <trkpt lat="48.39675" lon="2.03322">
        <ele>107</ele>
        <time>2011-04-30T08:00:22Z</time>
      </trkpt>
      <trkpt lat="48.39673" lon="2.03321">
        <ele>107</ele>
        <time>2011-04-30T08:00:23Z</time>
      </trkpt>
      <trkpt lat="48.3967" lon="2.03321">
        <ele>107</ele>
        <time>2011-04-30T08:00:24Z</time>
      </trkpt>
      <trkpt lat="48.39668" lon="2.0332">
        <ele>107</ele>
        <time>2011-04-30T08:00:25Z</time>
      </trkpt>
      <trkpt lat="48.39666" lon="2.03319">
        <ele>107</ele>
        <time>2011-04-30T08:00:26Z</time>
      </trkpt>
      <trkpt lat="48.39664" lon="2.03318">
        <ele>107</ele>
        <time>2011-04-30T08:00:27Z</time>
      </trkpt>
      <trkpt lat="48.39662" lon="2.03317">
        <ele>107</ele>
        <time>2011-04-30T08:00:28Z</time>
      </trkpt>
      <trkpt lat="48.3966" lon="2.03316">
        <ele>107</ele>
        <time>2011-04-30T08:00:29Z</time>
      </trkpt>
      <trkpt lat="48.39657" lon="2.03314">
        <ele>107</ele>
        <time>2011-04-30T08:00:30Z</time>
      </trkpt>
      <trkpt lat="48.39655" lon="2.03312">
        <ele>107</ele>
        <time>2011-04-30T08:00:31Z</time>
      </trkpt>
      <trkpt lat="48.39653" lon="2.0331">
        <ele>107</ele>
        <time>2011-04-30T08:00:32Z</time>
      </trkpt>
      <trkpt lat="48.39651" lon="2.03309">
        <ele>107</ele>
        <time>2011-04-30T08:00:33Z</time>
      </trkpt>
      <trkpt lat="48.39649" lon="2.03307">
        <ele>107</ele>
        <time>2011-04-30T08:00:34Z</time>
      </trkpt>
      <trkpt lat="48.39647" lon="2.03305">
        <ele>107</ele>
        <time>2011-04-30T08:00:35Z</time>
      </trkpt>
      <trkpt lat="48.39645" lon="2.03304">
        <ele>107</ele>
        <time>2011-04-30T08:00:36Z</time>
      </trkpt>
      <trkpt lat="48.39643" lon="2.03303">
        <ele>106</ele>
        <time>2011-04-30T08:00:37Z</time>
      </trkpt>
      <trkpt lat="48.39641" lon="2.03301">
        <ele>106</ele>
        <time>2011-04-30T08:00:38Z</time>
      </trkpt>
      <trkpt lat="48.39639" lon="2.033">
        <ele>106</ele>
        <time>2011-04-30T08:00:39Z</time>
      </trkpt>
      <trkpt lat="48.39637" lon="2.03299">
        <ele>106</ele>
        <time>2011-04-30T08:00:40Z</time>
      </trkpt>
      <trkpt lat="48.39635" lon="2.03297">
        <ele>106</ele>
        <time>2011-04-30T08:00:41Z</time>
      </trkpt>
      <trkpt lat="48.39633" lon="2.03296">
        <ele>106</ele>
        <time>2011-04-30T08:00:42Z</time>
      </trkpt>
      <trkpt lat="48.39631" lon="2.03295">
        <ele>106</ele>
        <time>2011-04-30T08:00:43Z</time>
      </trkpt>
      <trkpt lat="48.3963" lon="2.03294">
        <ele>106</ele>
        <time>2011-04-30T08:00:44Z</time>
      </trkpt>
      <trkpt lat="48.39628" lon="2.03293">
        <ele>106</ele>
        <time>2011-04-30T08:00:45Z</time>
      </trkpt>
      <trkpt lat="48.39627" lon="2.03292">
        <ele>106</ele>
        <time>2011-04-30T08:00:46Z</time>
      </trkpt>
      <trkpt lat="48.39625" lon="2.03291">
        <ele>106</ele>
        <time>2011-04-30T08:00:47Z</time>
      </trkpt>
      <trkpt lat="48.39624" lon="2.03289">
        <ele>106</ele>
        <time>2011-04-30T08:00:48Z</time>
      </trkpt>
      <trkpt lat="48.39623" lon="2.03288">
        <ele>106</ele>
        <time>2011-04-30T08:00:49Z</time>
      </trkpt>
      <trkpt lat="48.39622" lon="2.03287">
        <ele>106</ele>
        <time>2011-04-30T08:00:50Z</time>
      </trkpt>
      <trkpt lat="48.3962" lon="2.03286">
        <ele>106</ele>
        <time>2011-04-30T08:00:51Z</time>
      </trkpt>
      <trkpt lat="48.39618" lon="2.03285">
        <ele>106</ele>
        <time>2011-04-30T08:00:52Z</time>
      </trkpt>
      <trkpt lat="48.39617" lon="2.03283">
        <ele>106</ele>
        <time>2011-04-30T08:00:53Z</time>
      </trkpt>
      <trkpt lat="48.39615" lon="2.03281">
        <ele>106</ele>
        <time>2011-04-30T08:00:54Z</time>
      </trkpt>
      <trkpt lat="48.39612" lon="2.03279">
        <ele>106</ele>
        <time>2011-04-30T08:00:55Z</time>
      </trkpt>
      <trkpt lat="48.39609" lon="2.03276">
        <ele>106</ele>
        <time>2011-04-30T08:00:56Z</time>
      </trkpt>
      <trkpt lat="48.39607" lon="2.03274">
        <ele>106</ele>
        <time>2011-04-30T08:00:57Z</time>
      </trkpt>
      <trkpt lat="48.39604" lon="2.03271">
        <ele>105</ele>
        <time>2011-04-30T08:00:58Z</time>
      </trkpt>
      <trkpt lat="48.39601" lon="2.03269">
        <ele>105</ele>
        <time>2011-04-30T08:00:59Z</time>
      </trkpt>
      <trkpt lat="48.39598" lon="2.03267">
        <ele>105</ele>
        <time>2011-04-30T08:01:00Z</time>
      </trkpt>
      <trkpt lat="48.39596" lon="2.03265">
        <ele>105</ele>
        <time>2011-04-30T08:01:01Z</time>
      </trkpt>
      <trkpt lat="48.39594" lon="2.03263">
        <ele>105</ele>
        <time>2011-04-30T08:01:02Z</time>
      </trkpt>
      <trkpt lat="48.39592" lon="2.03262">
        <ele>104</ele>
        <time>2011-04-30T08:01:03Z</time>
      </trkpt>
      <trkpt lat="48.39589" lon="2.0326">
        <ele>104</ele>
        <time>2011-04-30T08:01:04Z</time>
      </trkpt>
      <trkpt lat="48.39587" lon="2.03257">
        <ele>104</ele>
        <time>2011-04-30T08:01:05Z</time>
      </trkpt>
      <trkpt lat="48.39584" lon="2.03255">
        <ele>104</ele>
        <time>2011-04-30T08:01:06Z</time>
      </trkpt>
      <trkpt lat="48.39581" lon="2.03252">
        <ele>104</ele>
        <time>2011-04-30T08:01:07Z</time>
      </trkpt>
      <trkpt lat="48.39579" lon="2.03249">
        <ele>104</ele>
        <time>2011-04-30T08:01:08Z</time>
      </trkpt>
      <trkpt lat="48.39577" lon="2.03246">
        <ele>104</ele>
        <time>2011-04-30T08:01:09Z</time>
      </trkpt>
      <trkpt lat="48.39575" lon="2.03243">
        <ele>105</ele>
        <time>2011-04-30T08:01:10Z</time>
      </trkpt>
      <trkpt lat="48.39573" lon="2.0324">
        <ele>105</ele>
        <time>2011-04-30T08:01:11Z</time>
      </trkpt>
      <trkpt lat="48.39571" lon="2.03238">
        <ele>105</ele>
        <time>2011-04-30T08:01:12Z</time>
      </trkpt>
      <trkpt lat="48.39569" lon="2.03236">
        <ele>105</ele>
        <time>2011-04-30T08:01:13Z</time>
      </trkpt>
      <trkpt lat="48.39568" lon="2.03234">
        <ele>105</ele>
        <time>2011-04-30T08:01:14Z</time>
      </trkpt>
      <trkpt lat="48.39567" lon="2.03232">
        <ele>106</ele>
        <time>2011-04-30T08:01:15Z</time>
      </trkpt>
      <trkpt lat="48.39566" lon="2.0323">
        <ele>106</ele>
        <time>2011-04-30T08:01:16Z</time>
      </trkpt>
      <trkpt lat="48.39564" lon="2.03227">
        <ele>106</ele>
        <time>2011-04-30T08:01:17Z</time>
      </trkpt>
      <trkpt lat="48.39563" lon="2.03225">
        <ele>106</ele>
        <time>2011-04-30T08:01:18Z</time>
      </trkpt>
      <trkpt lat="48.39561" lon="2.03222">
        <ele>106</ele>
        <time>2011-04-30T08:01:19Z</time>
      </trkpt>
      <trkpt lat="48.3956" lon="2.0322">
        <ele>106</ele>
        <time>2011-04-30T08:01:20Z</time>
      </trkpt>
      <trkpt lat="48.39558" lon="2.03217">
        <ele>106</ele>
        <time>2011-04-30T08:01:21Z</time>
      </trkpt>
      <trkpt lat="48.39557" lon="2.03215">
        <ele>106</ele>
        <time>2011-04-30T08:01:22Z</time>
      </trkpt>
      <trkpt lat="48.39555" lon="2.03213">
        <ele>106</ele>
        <time>2011-04-30T08:01:23Z</time>
      </trkpt>
      <trkpt lat="48.39554" lon="2.03211">
        <ele>106</ele>
        <time>2011-04-30T08:01:24Z</time>
      </trkpt>
      <trkpt lat="48.39553" lon="2.03209">
        <ele>106</ele>
        <time>2011-04-30T08:01:25Z</time>
      </trkpt>
      <trkpt lat="48.39551" lon="2.03207">
        <ele>106</ele>
        <time>2011-04-30T08:01:26Z</time>
      </trkpt>
      <trkpt lat="48.39549" lon="2.03205">
        <ele>106</ele>
        <time>2011-04-30T08:01:27Z</time>
      </trkpt>
      <trkpt lat="48.39548" lon="2.03203">
        <ele>106</ele>
        <time>2011-04-30T08:01:28Z</time>
      </trkpt>
      <trkpt lat="48.39545" lon="2.03201">
        <ele>106</ele>
        <time>2011-04-30T08:01:29Z</time>
      </trkpt>
      <trkpt lat="48.39543" lon="2.03199">
        <ele>106</ele>
        <time>2011-04-30T08:01:30Z</time>
      </trkpt>
      <trkpt lat="48.39541" lon="2.03196">
        <ele>106</ele>
        <time>2011-04-30T08:01:31Z</time>
      </trkpt>
      <trkpt lat="48.39539" lon="2.03193">
        <ele>106</ele>
        <time>2011-04-30T08:01:32Z</time>
      </trkpt>
      <trkpt lat="48.39536" lon="2.0319">
        <ele>106</ele>
        <time>2011-04-30T08:01:33Z</time>
      </trkpt>
      <trkpt lat="48.39534" lon="2.03187">
        <ele>106</ele>
        <time>2011-04-30T08:01:34Z</time>
      </trkpt>
      <trkpt lat="48.39531" lon="2.03184">
        <ele>106</ele>
        <time>2011-04-30T08:01:35Z</time>
      </trkpt>
      <trkpt lat="48.39529" lon="2.03181">
        <ele>106</ele>
        <time>2011-04-30T08:01:36Z</time>
      </trkpt>
      <trkpt lat="48.39526" lon="2.03178">
        <ele>106</ele>
        <time>2011-04-30T08:01:37Z</time>
      </trkpt>
      <trkpt lat="48.39525" lon="2.03176">
        <ele>106</ele>
        <time>2011-04-30T08:01:38Z</time>
      </trkpt>
      <trkpt lat="48.39523" lon="2.03174">
        <ele>106</ele>
        <time>2011-04-30T08:01:39Z</time>
      </trkpt>
      <trkpt lat="48.39521" lon="2.03172">
        <ele>106</ele>
        <time>2011-04-30T08:01:40Z</time>
      </trkpt>
      <trkpt lat="48.39518" lon="2.03171">
        <ele>106</ele>
        <time>2011-04-30T08:01:41Z</time>
      </trkpt>
      <trkpt lat="48.39516" lon="2.03169">
        <ele>106</ele>
        <time>2011-04-30T08:01:42Z</time>
      </trkpt>
      <trkpt lat="48.39514" lon="2.03168">
        <ele>106</ele>
        <time>2011-04-30T08:01:43Z</time>
      </trkpt>
      <trkpt lat="48.39512" lon="2.03167">
        <ele>106</ele>
        <time>2011-04-30T08:01:44Z</time>
      </trkpt>
      <trkpt lat="48.3951" lon="2.03166">
        <ele>105</ele>
        <time>2011-04-30T08:01:45Z</time>
      </trkpt>
      <trkpt lat="48.39508" lon="2.03164">
        <ele>105</ele>
        <time>2011-04-30T08:01:46Z</time>
      </trkpt>
      <trkpt lat="48.39506" lon="2.03163">
        <ele>105</ele>
        <time>2011-04-30T08:01:47Z</time>
      </trkpt>
      <trkpt lat="48.39504" lon="2.03161">
        <ele>105</ele>
        <time>2011-04-30T08:01:48Z</time>
      </trkpt>
      <trkpt lat="48.39502" lon="2.0316">
        <ele>105</ele>
        <time>2011-04-30T08:01:49Z</time>
      </trkpt>
      <trkpt lat="48.39501" lon="2.03158">
        <ele>105</ele>
        <time>2011-04-30T08:01:50Z</time>
      </trkpt>
      <trkpt lat="48.39499" lon="2.03156">
        <ele>107</ele>
        <time>2011-04-30T08:01:51Z</time>
      </trkpt>
      <trkpt lat="48.39498" lon="2.03154">
        <ele>108</ele>
        <time>2011-04-30T08:01:52Z</time>
      </trkpt>
      <trkpt lat="48.39496" lon="2.03152">
        <ele>108</ele>
        <time>2011-04-30T08:01:53Z</time>
      </trkpt>
      <trkpt lat="48.39495" lon="2.0315">
        <ele>108</ele>
        <time>2011-04-30T08:01:54Z</time>
      </trkpt>
      <trkpt lat="48.39493" lon="2.03149">
        <ele>108</ele>
        <time>2011-04-30T08:01:55Z</time>
      </trkpt>
      <trkpt lat="48.39492" lon="2.03147">
        <ele>108</ele>
        <time>2011-04-30T08:01:56Z</time>
      </trkpt>
      <trkpt lat="48.3949" lon="2.03145">
        <ele>109</ele>
        <time>2011-04-30T08:01:57Z</time>
      </trkpt>
      <trkpt lat="48.39489" lon="2.03142">
        <ele>109</ele>
        <time>2011-04-30T08:01:58Z</time>
      </trkpt>
      <trkpt lat="48.39487" lon="2.03139">
        <ele>109</ele>
        <time>2011-04-30T08:01:59Z</time>
      </trkpt>
      <trkpt lat="48.39485" lon="2.03136">
        <ele>109</ele>
        <time>2011-04-30T08:02:00Z</time>
      </trkpt>
      <trkpt lat="48.39483" lon="2.03133">
        <ele>109</ele>
        <time>2011-04-30T08:02:01Z</time>
      </trkpt>
      <trkpt lat="48.39481" lon="2.03129">
        <ele>109</ele>
        <time>2011-04-30T08:02:02Z</time>
      </trkpt>
      <trkpt lat="48.39479" lon="2.03125">
        <ele>109</ele>
        <time>2011-04-30T08:02:03Z</time>
      </trkpt>
      <trkpt lat="48.39477" lon="2.03122">
        <ele>109</ele>
        <time>2011-04-30T08:02:04Z</time>
      </trkpt>
      <trkpt lat="48.39476" lon="2.03119">
        <ele>109</ele>
        <time>2011-04-30T08:02:05Z</time>
      </trkpt>
      <trkpt lat="48.39474" lon="2.03116">
        <ele>109</ele>
        <time>2011-04-30T08:02:06Z</time>
      </trkpt>
      <trkpt lat="48.39473" lon="2.03114">
        <ele>109</ele>
        <time>2011-04-30T08:02:07Z</time>
      </trkpt>
      <trkpt lat="48.39471" lon="2.03111">
        <ele>109</ele>
        <time>2011-04-30T08:02:08Z</time>
      </trkpt>
      <trkpt lat="48.3947" lon="2.03109">
        <ele>109</ele>
        <time>2011-04-30T08:02:09Z</time>
      </trkpt>
      <trkpt lat="48.39468" lon="2.03106">
        <ele>109</ele>
        <time>2011-04-30T08:02:10Z</time>
      </trkpt>
      <trkpt lat="48.39466" lon="2.03104">
        <ele>109</ele>
        <time>2011-04-30T08:02:11Z</time>
      </trkpt>
      <trkpt lat="48.39463" lon="2.03101">
        <ele>109</ele>
        <time>2011-04-30T08:02:12Z</time>
      </trkpt>
      <trkpt lat="48.39461" lon="2.03098">
        <ele>110</ele>
        <time>2011-04-30T08:02:13Z</time>
      </trkpt>
      <trkpt lat="48.39459" lon="2.03095">
        <ele>110</ele>
        <time>2011-04-30T08:02:14Z</time>
      </trkpt>
      <trkpt lat="48.39457" lon="2.03092">
        <ele>110</ele>
        <time>2011-04-30T08:02:15Z</time>
      </trkpt>
      <trkpt lat="48.39455" lon="2.03089">
        <ele>110</ele>
        <time>2011-04-30T08:02:16Z</time>
      </trkpt>
      <trkpt lat="48.39454" lon="2.03087">
        <ele>110</ele>
        <time>2011-04-30T08:02:17Z</time>
      </trkpt>
      <trkpt lat="48.39452" lon="2.03084">
        <ele>110</ele>
        <time>2011-04-30T08:02:18Z</time>
      </trkpt>
      <trkpt lat="48.39451" lon="2.03082">
        <ele>107</ele>
        <time>2011-04-30T08:02:19Z</time>
      </trkpt>
      <trkpt lat="48.39449" lon="2.03079">
        <ele>107</ele>
        <time>2011-04-30T08:02:20Z</time>
      </trkpt>
      <trkpt lat="48.39447" lon="2.03077">
        <ele>108</ele>
        <time>2011-04-30T08:02:21Z</time>
      </trkpt>
      <trkpt lat="48.39446" lon="2.03074">
        <ele>108</ele>
        <time>2011-04-30T08:02:22Z</time>
      </trkpt>
      <trkpt lat="48.39444" lon="2.03072">
        <ele>108</ele>
        <time>2011-04-30T08:02:23Z</time>
      </trkpt>
      <trkpt lat="48.39443" lon="2.03069">
        <ele>108</ele>
        <time>2011-04-30T08:02:24Z</time>
      </trkpt>
      <trkpt lat="48.39441" lon="2.03066">
        <ele>108</ele>
        <time>2011-04-30T08:02:25Z</time>
      </trkpt>
      <trkpt lat="48.39439" lon="2.03063">
        <ele>108</ele>
        <time>2011-04-30T08:02:26Z</time>
      </trkpt>
      <trkpt lat="48.39437" lon="2.0306">
        <ele>108</ele>
        <time>2011-04-30T08:02:27Z</time>
      </trkpt>
      <trkpt lat="48.39435" lon="2.03058">
        <ele>108</ele>
        <time>2011-04-30T08:02:28Z</time>
      </trkpt>
      <trkpt lat="48.39433" lon="2.03056">
        <ele>108</ele>
        <time>2011-04-30T08:02:29Z</time>
      </trkpt>
      <trkpt lat="48.39431" lon="2.03054">
        <ele>107</ele>
        <time>2011-04-30T08:02:30Z</time>
      </trkpt>
      <trkpt lat="48.39429" lon="2.03051">
        <ele>107</ele>
        <time>2011-04-30T08:02:31Z</time>
      </trkpt>
      <trkpt lat="48.39428" lon="2.03049">
        <ele>107</ele>
        <time>2011-04-30T08:02:32Z</time>
      </trkpt>
      <trkpt lat="48.39426" lon="2.03047">
        <ele>107</ele>
        <time>2011-04-30T08:02:33Z</time>
      </trkpt>
      <trkpt lat="48.39425" lon="2.03044">
        <ele>107</ele>
        <time>2011-04-30T08:02:34Z</time>
      </trkpt>
      <trkpt lat="48.39423" lon="2.03042">
        <ele>107</ele>
        <time>2011-04-30T08:02:35Z</time>
      </trkpt>
      <trkpt lat="48.39421" lon="2.03039">
        <ele>107</ele>
        <time>2011-04-30T08:02:36Z</time>
      </trkpt>
      <trkpt lat="48.39419" lon="2.03036">
        <ele>107</ele>
        <time>2011-04-30T08:02:37Z</time>
      </trkpt>
      <trkpt lat="48.39418" lon="2.03033">
        <ele>106</ele>
        <time>2011-04-30T08:02:38Z</time>
      </trkpt>
      <trkpt lat="48.39416" lon="2.0303">
        <ele>112</ele>
        <time>2011-04-30T08:02:39Z</time>
      </trkpt>
      <trkpt lat="48.39415" lon="2.03028">
        <ele>112</ele>
        <time>2011-04-30T08:02:40Z</time>
      </trkpt>
      <trkpt lat="48.39414" lon="2.03026">
        <ele>111</ele>
        <time>2011-04-30T08:02:41Z</time>
      </trkpt>
      <trkpt lat="48.39413" lon="2.03024">
        <ele>111</ele>
        <time>2011-04-30T08:02:42Z</time>
      </trkpt>
      <trkpt lat="48.39411" lon="2.03021">
        <ele>111</ele>
        <time>2011-04-30T08:02:43Z</time>
      </trkpt>
      <trkpt lat="48.3941" lon="2.03019">
        <ele>111</ele>
        <time>2011-04-30T08:02:44Z</time>
      </trkpt>
      <trkpt lat="48.39409" lon="2.03016">
        <ele>110</ele>
        <time>2011-04-30T08:02:45Z</time>
      </trkpt>
      <trkpt lat="48.39408" lon="2.03014">
        <ele>110</ele>
        <time>2011-04-30T08:02:46Z</time>
      </trkpt>
      <trkpt lat="48.39407" lon="2.03011">
        <ele>110</ele>
        <time>2011-04-30T08:02:47Z</time>
      </trkpt>
      <trkpt lat="48.39405" lon="2.03009">
        <ele>109</ele>
        <time>2011-04-30T08:02:48Z</time>
      </trkpt>
      <trkpt lat="48.39404" lon="2.03006">
        <ele>109</ele>
        <time>2011-04-30T08:02:49Z</time>
      </trkpt>
      <trkpt lat="48.39403" lon="2.03003">
        <ele>109</ele>
        <time>2011-04-30T08:02:50Z</time>
      </trkpt>
      <trkpt lat="48.39402" lon="2.03">
        <ele>110</ele>
        <time>2011-04-30T08:02:51Z</time>
      </trkpt>
      <trkpt lat="48.394" lon="2.02997">
        <ele>106</ele>
        <time>2011-04-30T08:02:52Z</time>
      </trkpt>
      <trkpt lat="48.39398" lon="2.02994">
        <ele>106</ele>
        <time>2011-04-30T08:02:53Z</time>
      </trkpt>
      <trkpt lat="48.39397" lon="2.02991">
        <ele>107</ele>
        <time>2011-04-30T08:02:54Z</time>
      </trkpt>
      <trkpt lat="48.39395" lon="2.02987">
        <ele>107</ele>
        <time>2011-04-30T08:02:55Z</time>
      </trkpt>
      <trkpt lat="48.39393" lon="2.02982">
        <ele>107</ele>
        <time>2011-04-30T08:02:56Z</time>
      </trkpt>
      <trkpt lat="48.3939" lon="2.02978">
        <ele>107</ele>
        <time>2011-04-30T08:02:57Z</time>
      </trkpt>
      <trkpt lat="48.39389" lon="2.02973">
        <ele>107</ele>
        <time>2011-04-30T08:02:58Z</time>
      </trkpt>
      <trkpt lat="48.39387" lon="2.02968">
        <ele>107</ele>
        <time>2011-04-30T08:02:59Z</time>
      </trkpt>
      <trkpt lat="48.39386" lon="2.02964">
        <ele>107</ele>
        <time>2011-04-30T08:03:00Z</time>
      </trkpt>
      <trkpt lat="48.39385" lon="2.0296">
        <ele>106</ele>
        <time>2011-04-30T08:03:01Z</time>
      </trkpt>
      <trkpt lat="48.39384" lon="2.02957">
        <ele>106</ele>
        <time>2011-04-30T08:03:02Z</time>
      </trkpt>
      <trkpt lat="48.39383" lon="2.02953">
        <ele>106</ele>
        <time>2011-04-30T08:03:03Z</time>
      </trkpt>
      <trkpt lat="48.39382" lon="2.02949">
        <ele>106</ele>
        <time>2011-04-30T08:03:04Z</time>
      </trkpt>
      <trkpt lat="48.39381" lon="2.02946">
        <ele>106</ele>
        <time>2011-04-30T08:03:05Z</time>
      </trkpt>
      <trkpt lat="48.39381" lon="2.02943">
        <ele>106</ele>
        <time>2011-04-30T08:03:06Z</time>
      </trkpt>
      <trkpt lat="48.3938" lon="2.02941">
        <ele>106</ele>
        <time>2011-04-30T08:03:07Z</time>
      </trkpt>
      <trkpt lat="48.39379" lon="2.02939">
        <ele>106</ele>
        <time>2011-04-30T08:03:08Z</time>
      </trkpt>
      <trkpt lat="48.39379" lon="2.02937">
        <ele>106</ele>
        <time>2011-04-30T08:03:09Z</time>
      </trkpt>
      <trkpt lat="48.39378" lon="2.02935">
        <ele>106</ele>
        <time>2011-04-30T08:03:10Z</time>
      </trkpt>
      <trkpt lat="48.39376" lon="2.02933">
        <ele>106</ele>
        <time>2011-04-30T08:03:11Z</time>
      </trkpt>
      <trkpt lat="48.39375" lon="2.02931">
        <ele>105</ele>
        <time>2011-04-30T08:03:12Z</time>
      </trkpt>
      <trkpt lat="48.39373" lon="2.02929">
        <ele>105</ele>
        <time>2011-04-30T08:03:13Z</time>
      </trkpt>
      <trkpt lat="48.39371" lon="2.02927">
        <ele>105</ele>
        <time>2011-04-30T08:03:14Z</time>
      </trkpt>
      <trkpt lat="48.3937" lon="2.02925">
        <ele>105</ele>
        <time>2011-04-30T08:03:15Z</time>
      </trkpt>
      <trkpt lat="48.39368" lon="2.02924">
        <ele>105</ele>
        <time>2011-04-30T08:03:16Z</time>
      </trkpt>
      <trkpt lat="48.39366" lon="2.02923">
        <ele>105</ele>
        <time>2011-04-30T08:03:17Z</time>
      </trkpt>
      <trkpt lat="48.39364" lon="2.02923">
        <ele>105</ele>
        <time>2011-04-30T08:03:18Z</time>
      </trkpt>
      <trkpt lat="48.39362" lon="2.02922">
        <ele>105</ele>
        <time>2011-04-30T08:03:19Z</time>
      </trkpt>
      <trkpt lat="48.3936" lon="2.02922">
        <ele>105</ele>
        <time>2011-04-30T08:03:20Z</time>
      </trkpt>
      <trkpt lat="48.39357" lon="2.02922">
        <ele>105</ele>
        <time>2011-04-30T08:03:21Z</time>
      </trkpt>
      <trkpt lat="48.39354" lon="2.02921">
        <ele>105</ele>
        <time>2011-04-30T08:03:22Z</time>
      </trkpt>
      <trkpt lat="48.39352" lon="2.0292">
        <ele>105</ele>
        <time>2011-04-30T08:03:23Z</time>
      </trkpt>
      <trkpt lat="48.39349" lon="2.02919">
        <ele>105</ele>
        <time>2011-04-30T08:03:24Z</time>
      </trkpt>
      <trkpt lat="48.39345" lon="2.02918">
        <ele>104</ele>
        <time>2011-04-30T08:03:25Z</time>
      </trkpt>
      <trkpt lat="48.39342" lon="2.02916">
        <ele>103</ele>
        <time>2011-04-30T08:03:26Z</time>
      </trkpt>
      <trkpt lat="48.39338" lon="2.02914">
        <ele>103</ele>
        <time>2011-04-30T08:03:27Z</time>
      </trkpt>
      <trkpt lat="48.39335" lon="2.02913">
        <ele>103</ele>
        <time>2011-04-30T08:03:28Z</time>
      </trkpt>
      <trkpt lat="48.39331" lon="2.02912">
        <ele>102</ele>
        <time>2011-04-30T08:03:29Z</time>
      </trkpt>
      <trkpt lat="48.39327" lon="2.02911">
        <ele>102</ele>
        <time>2011-04-30T08:03:30Z</time>
      </trkpt>
      <trkpt lat="48.39323" lon="2.0291">
        <ele>102</ele>
        <time>2011-04-30T08:03:31Z</time>
      </trkpt>
      <trkpt lat="48.3932" lon="2.0291">
        <ele>102</ele>
        <time>2011-04-30T08:03:32Z</time>
      </trkpt>
      <trkpt lat="48.39316" lon="2.0291">
        <ele>102</ele>
        <time>2011-04-30T08:03:33Z</time>
      </trkpt>
      <trkpt lat="48.39313" lon="2.0291">
        <ele>101</ele>
        <time>2011-04-30T08:03:34Z</time>
      </trkpt>
      <trkpt lat="48.3931" lon="2.02911">
        <ele>101</ele>
        <time>2011-04-30T08:03:35Z</time>
      </trkpt>
      <trkpt lat="48.39307" lon="2.02911">
        <ele>101</ele>
        <time>2011-04-30T08:03:36Z</time>
      </trkpt>
      <trkpt lat="48.39303" lon="2.02912">
        <ele>101</ele>
        <time>2011-04-30T08:03:37Z</time>
      </trkpt>
      <trkpt lat="48.393" lon="2.02913">
        <ele>101</ele>
        <time>2011-04-30T08:03:38Z</time>
      </trkpt>
      <trkpt lat="48.39296" lon="2.02914">
        <ele>101</ele>
        <time>2011-04-30T08:03:39Z</time>
      </trkpt>
      <trkpt lat="48.39293" lon="2.02914">
        <ele>101</ele>
        <time>2011-04-30T08:03:40Z</time>
      </trkpt>
      <trkpt lat="48.39289" lon="2.02914">
        <ele>101</ele>
        <time>2011-04-30T08:03:41Z</time>
      </trkpt>
      <trkpt lat="48.39285" lon="2.02913">
        <ele>101</ele>
        <time>2011-04-30T08:03:42Z</time>
      </trkpt>
      <trkpt lat="48.39281" lon="2.02913">
        <ele>101</ele>
        <time>2011-04-30T08:03:43Z</time>
      </trkpt>
      <trkpt lat="48.39277" lon="2.02914">
        <ele>101</ele>
        <time>2011-04-30T08:03:44Z</time>
      </trkpt>
      <trkpt lat="48.39273" lon="2.02914">
        <ele>101</ele>
        <time>2011-04-30T08:03:45Z</time>
      </trkpt>
      <trkpt lat="48.3927" lon="2.02914">
        <ele>101</ele>
        <time>2011-04-30T08:03:46Z</time>
      </trkpt>
      <trkpt lat="48.39267" lon="2.02915">
        <ele>101</ele>
        <time>2011-04-30T08:03:47Z</time>
      </trkpt>
      <trkpt lat="48.39264" lon="2.02916">
        <ele>101</ele>
        <time>2011-04-30T08:03:48Z</time>
      </trkpt>
      <trkpt lat="48.3926" lon="2.02917">
        <ele>101</ele>
        <time>2011-04-30T08:03:49Z</time>
      </trkpt>
      <trkpt lat="48.39257" lon="2.02918">
        <ele>103</ele>
        <time>2011-04-30T08:03:50Z</time>
      </trkpt>
      <trkpt lat="48.39254" lon="2.02919">
        <ele>102</ele>
        <time>2011-04-30T08:03:51Z</time>
      </trkpt>
      <trkpt lat="48.39251" lon="2.0292">
        <ele>102</ele>
        <time>2011-04-30T08:03:52Z</time>
      </trkpt>
      <trkpt lat="48.39249" lon="2.02922">
        <ele>102</ele>
        <time>2011-04-30T08:03:53Z</time>
      </trkpt>
      <trkpt lat="48.39246" lon="2.02923">
        <ele>102</ele>
        <time>2011-04-30T08:03:54Z</time>
      </trkpt>
      <trkpt lat="48.39244" lon="2.02924">
        <ele>102</ele>
        <time>2011-04-30T08:03:55Z</time>
      </trkpt>
      <trkpt lat="48.39242" lon="2.02925">
        <ele>103</ele>
        <time>2011-04-30T08:03:56Z</time>
      </trkpt>
      <trkpt lat="48.3924" lon="2.02926">
        <ele>103</ele>
        <time>2011-04-30T08:03:57Z</time>
      </trkpt>
      <trkpt lat="48.39239" lon="2.02926">
        <ele>103</ele>
        <time>2011-04-30T08:03:58Z</time>
      </trkpt>
      <trkpt lat="48.39238" lon="2.02927">
        <ele>103</ele>
        <time>2011-04-30T08:03:59Z</time>
      </trkpt>
      <trkpt lat="48.39237" lon="2.02927">
        <ele>103</ele>
        <time>2011-04-30T08:04:00Z</time>
      </trkpt>
      <trkpt lat="48.39236" lon="2.02927">
        <ele>103</ele>
        <time>2011-04-30T08:04:01Z</time>
      </trkpt>
      <trkpt lat="48.39235" lon="2.02926">
        <ele>103</ele>
        <time>2011-04-30T08:04:02Z</time>
      </trkpt>
      <trkpt lat="48.39234" lon="2.02926">
        <ele>103</ele>
        <time>2011-04-30T08:04:03Z</time>
      </trkpt>
      <trkpt lat="48.39233" lon="2.02925">
        <ele>103</ele>
        <time>2011-04-30T08:04:04Z</time>
      </trkpt>
      <trkpt lat="48.39232" lon="2.02924">
        <ele>103</ele>
        <time>2011-04-30T08:04:05Z</time>
      </trkpt>
      <trkpt lat="48.39231" lon="2.02923">
        <ele>103</ele>
        <time>2011-04-30T08:04:06Z</time>
      </trkpt>
      <trkpt lat="48.39231" lon="2.02922">
        <ele>103</ele>
        <time>2011-04-30T08:04:07Z</time>
      </trkpt>
      <trkpt lat="48.3923" lon="2.02921">
        <ele>103</ele>
        <time>2011-04-30T08:04:08Z</time>
      </trkpt>
      <trkpt lat="48.39229" lon="2.0292">
        <ele>103</ele>
        <time>2011-04-30T08:04:09Z</time>
      </trkpt>
      <trkpt lat="48.39228" lon="2.02918">
        <ele>103</ele>
        <time>2011-04-30T08:04:10Z</time>
      </trkpt>
      <trkpt lat="48.39228" lon="2.02917">
        <ele>103</ele>
        <time>2011-04-30T08:04:11Z</time>
      </trkpt>
      <trkpt lat="48.39227" lon="2.02916">
        <ele>100</ele>
        <time>2011-04-30T08:04:12Z</time>
      </trkpt>
      <trkpt lat="48.39227" lon="2.02914">
        <ele>100</ele>
        <time>2011-04-30T08:04:13Z</time>
      </trkpt>
      <trkpt lat="48.39226" lon="2.02913">
        <ele>100</ele>
        <time>2011-04-30T08:04:14Z</time>
      </trkpt>
      <trkpt lat="48.39226" lon="2.02912">
        <ele>100</ele>
        <time>2011-04-30T08:04:15Z</time>
      </trkpt>
      <trkpt lat="48.39225" lon="2.0291">
        <ele>100</ele>
        <time>2011-04-30T08:04:16Z</time>
      </trkpt>
      <trkpt lat="48.39225" lon="2.02909">
        <ele>100</ele>
        <time>2011-04-30T08:04:17Z</time>
      </trkpt>
      <trkpt lat="48.39224" lon="2.02907">
        <ele>100</ele>
        <time>2011-04-30T08:04:18Z</time>
      </trkpt>
      <trkpt lat="48.39223" lon="2.02906">
        <ele>100</ele>
        <time>2011-04-30T08:04:19Z</time>
      </trkpt>
      <trkpt lat="48.39222" lon="2.02905">
        <ele>100</ele>
        <time>2011-04-30T08:04:20Z</time>
      </trkpt>
      <trkpt lat="48.39221" lon="2.02903">
        <ele>100</ele>
        <time>2011-04-30T08:04:21Z</time>
      </trkpt>
      <trkpt lat="48.3922" lon="2.02902">
        <ele>100</ele>
        <time>2011-04-30T08:04:22Z</time>
      </trkpt>
      <trkpt lat="48.39218" lon="2.029">
        <ele>99</ele>
        <time>2011-04-30T08:04:23Z</time>
      </trkpt>
      <trkpt lat="48.39217" lon="2.02898">
        <ele>99</ele>
        <time>2011-04-30T08:04:24Z</time>
      </trkpt>
      <trkpt lat="48.39216" lon="2.02897">
        <ele>99</ele>
        <time>2011-04-30T08:04:25Z</time>
      </trkpt>
      <trkpt lat="48.39215" lon="2.02895">
        <ele>99</ele>
        <time>2011-04-30T08:04:26Z</time>
      </trkpt>
      <trkpt lat="48.39214" lon="2.02894">
        <ele>99</ele>
        <time>2011-04-30T08:04:27Z</time>
      </trkpt>
      <trkpt lat="48.39213" lon="2.02892">
        <ele>99</ele>
        <time>2011-04-30T08:04:28Z</time>
      </trkpt>
      <trkpt lat="48.39212" lon="2.02891">
        <ele>99</ele>
        <time>2011-04-30T08:04:29Z</time>
      </trkpt>
      <trkpt lat="48.39211" lon="2.02889">
        <ele>99</ele>
        <time>2011-04-30T08:04:30Z</time>
      </trkpt>
      <trkpt lat="48.3921" lon="2.02888">
        <ele>99</ele>
        <time>2011-04-30T08:04:31Z</time>
      </trkpt>
      <trkpt lat="48.39209" lon="2.02886">
        <ele>99</ele>
        <time>2011-04-30T08:04:32Z</time>
      </trkpt>
      <trkpt lat="48.39208" lon="2.02885">
        <ele>99</ele>
        <time>2011-04-30T08:04:33Z</time>
      </trkpt>
      <trkpt lat="48.39207" lon="2.02883">
        <ele>99</ele>
        <time>2011-04-30T08:04:34Z</time>
      </trkpt>
      <trkpt lat="48.39206" lon="2.02882">
        <ele>99</ele>
        <time>2011-04-30T08:04:35Z</time>
      </trkpt>
      <trkpt lat="48.39205" lon="2.0288">
        <ele>99</ele>
        <time>2011-04-30T08:04:36Z</time>
      </trkpt>
      <trkpt lat="48.39204" lon="2.02878">
        <ele>99</ele>
        <time>2011-04-30T08:04:37Z</time>
      </trkpt>
      <trkpt lat="48.39204" lon="2.02877">
        <ele>99</ele>
        <time>2011-04-30T08:04:38Z</time>
      </trkpt>
      <trkpt lat="48.39203" lon="2.02875">
        <ele>99</ele>
        <time>2011-04-30T08:04:39Z</time>
      </trkpt>
      <trkpt lat="48.39202" lon="2.02873">
        <ele>99</ele>
        <time>2011-04-30T08:04:40Z</time>
      </trkpt>
      <trkpt lat="48.39202" lon="2.02871">
        <ele>99</ele>
        <time>2011-04-30T08:04:41Z</time>
      </trkpt>
      <trkpt lat="48.39201" lon="2.02869">
        <ele>99</ele>
        <time>2011-04-30T08:04:42Z</time>
      </trkpt>
      <trkpt lat="48.392" lon="2.02867">
        <ele>99</ele>
        <time>2011-04-30T08:04:43Z</time>
      </trkpt>
      <trkpt lat="48.392" lon="2.02865">
        <ele>99</ele>
        <time>2011-04-30T08:04:44Z</time>
      </trkpt>
      <trkpt lat="48.39199" lon="2.02863">
        <ele>99</ele>
        <time>2011-04-30T08:04:45Z</time>
      </trkpt>
      <trkpt lat="48.39198" lon="2.02861">
        <ele>99</ele>
        <time>2011-04-30T08:04:46Z</time>
      </trkpt>
      <trkpt lat="48.39198" lon="2.02859">
        <ele>99</ele>
        <time>2011-04-30T08:04:47Z</time>
      </trkpt>
      <trkpt lat="48.39197" lon="2.02856">
        <ele>99</ele>
        <time>2011-04-30T08:04:48Z</time>
      </trkpt>
      <trkpt lat="48.39197" lon="2.02854">
        <ele>99</ele>
        <time>2011-04-30T08:04:49Z</time>
      </trkpt>
      <trkpt lat="48.39197" lon="2.02851">
        <ele>99</ele>
        <time>2011-04-30T08:04:50Z</time>
      </trkpt>
      <trkpt lat="48.39197" lon="2.02849">
        <ele>99</ele>
        <time>2011-04-30T08:04:51Z</time>
      </trkpt>
      <trkpt lat="48.39197" lon="2.02846">
        <ele>99</ele>
        <time>2011-04-30T08:04:52Z</time>
      </trkpt>
      <trkpt lat="48.39197" lon="2.02844">
        <ele>99</ele>
        <time>2011-04-30T08:04:53Z</time>
      </trkpt>
      <trkpt lat="48.39197" lon="2.02842">
        <ele>99</ele>
        <time>2011-04-30T08:04:54Z</time>
      </trkpt>
      <trkpt lat="48.39197" lon="2.0284">
        <ele>99</ele>
        <time>2011-04-30T08:04:55Z</time>
      </trkpt>
      <trkpt lat="48.39197" lon="2.02837">
        <ele>98</ele>
        <time>2011-04-30T08:04:56Z</time>
      </trkpt>
      <trkpt lat="48.39196" lon="2.02835">
        <ele>98</ele>
        <time>2011-04-30T08:04:57Z</time>
      </trkpt>
      <trkpt lat="48.39196" lon="2.02834">
        <ele>98</ele>
        <time>2011-04-30T08:04:58Z</time>
      </trkpt>
      <trkpt lat="48.39196" lon="2.02832">
        <ele>98</ele>
        <time>2011-04-30T08:04:59Z</time>
      </trkpt>
      <trkpt lat="48.39195" lon="2.0283">
        <ele>98</ele>
        <time>2011-04-30T08:05:00Z</time>
      </trkpt>
      <trkpt lat="48.39195" lon="2.02828">
        <ele>98</ele>
        <time>2011-04-30T08:05:01Z</time>
      </trkpt>
      <trkpt lat="48.39195" lon="2.02827">
        <ele>98</ele>
        <time>2011-04-30T08:05:02Z</time>
      </trkpt>
      <trkpt lat="48.39194" lon="2.02825">
        <ele>98</ele>
        <time>2011-04-30T08:05:03Z</time>
      </trkpt>
      <trkpt lat="48.39194" lon="2.02824">
        <ele>98</ele>
        <time>2011-04-30T08:05:04Z</time>
      </trkpt>
      <trkpt lat="48.39194" lon="2.02822">
        <ele>98</ele>
        <time>2011-04-30T08:05:05Z</time>
      </trkpt>
      <trkpt lat="48.39193" lon="2.02821">
        <ele>98</ele>
        <time>2011-04-30T08:05:06Z</time>
      </trkpt>
      <trkpt lat="48.39193" lon="2.02819">
        <ele>98</ele>
        <time>2011-04-30T08:05:07Z</time>
      </trkpt>
      <trkpt lat="48.39192" lon="2.02818">
        <ele>98</ele>
        <time>2011-04-30T08:05:08Z</time>
      </trkpt>
      <trkpt lat="48.39192" lon="2.02816">
        <ele>98</ele>
        <time>2011-04-30T08:05:09Z</time>
      </trkpt>
      <trkpt lat="48.39191" lon="2.02814">
        <ele>98</ele>
        <time>2011-04-30T08:05:10Z</time>
      </trkpt>
      <trkpt lat="48.39191" lon="2.02813">
        <ele>98</ele>
        <time>2011-04-30T08:05:11Z</time>
      </trkpt>
      <trkpt lat="48.39191" lon="2.02812">
        <ele>98</ele>
        <time>2011-04-30T08:05:12Z</time>
      </trkpt>
      <trkpt lat="48.3919" lon="2.0281">
        <ele>98</ele>
        <time>2011-04-30T08:05:13Z</time>
      </trkpt>
      <trkpt lat="48.3919" lon="2.02808">
        <ele>98</ele>
        <time>2011-04-30T08:05:14Z</time>
      </trkpt>
      <trkpt lat="48.39189" lon="2.02807">
        <ele>98</ele>
        <time>2011-04-30T08:05:15Z</time>
      </trkpt>
      <trkpt lat="48.39189" lon="2.02805">
        <ele>98</ele>
        <time>2011-04-30T08:05:16Z</time>
      </trkpt>
      <trkpt lat="48.39188" lon="2.02804">
        <ele>98</ele>
        <time>2011-04-30T08:05:17Z</time>
      </trkpt>
      <trkpt lat="48.39188" lon="2.02803">
        <ele>98</ele>
        <time>2011-04-30T08:05:18Z</time>
      </trkpt>
      <trkpt lat="48.39188" lon="2.02801">
        <ele>98</ele>
        <time>2011-04-30T08:05:19Z</time>
      </trkpt>
      <trkpt lat="48.39187" lon="2.028">
        <ele>98</ele>
        <time>2011-04-30T08:05:20Z</time>
      </trkpt>
      <trkpt lat="48.39187" lon="2.02798">
        <ele>98</ele>
        <time>2011-04-30T08:05:21Z</time>
      </trkpt>
      <trkpt lat="48.39187" lon="2.02796">
        <ele>98</ele>
        <time>2011-04-30T08:05:22Z</time>
      </trkpt>
      <trkpt lat="48.39186" lon="2.02795">
        <ele>98</ele>
        <time>2011-04-30T08:05:23Z</time>
      </trkpt>
      <trkpt lat="48.39186" lon="2.02793">
        <ele>98</ele>
        <time>2011-04-30T08:05:24Z</time>
      </trkpt>
      <trkpt lat="48.39185" lon="2.02791">
        <ele>98</ele>
        <time>2011-04-30T08:05:25Z</time>
      </trkpt>
      <trkpt lat="48.39185" lon="2.02789">
        <ele>98</ele>
        <time>2011-04-30T08:05:26Z</time>
      </trkpt>
      <trkpt lat="48.39185" lon="2.02787">
        <ele>98</ele>
        <time>2011-04-30T08:05:27Z</time>
      </trkpt>
      <trkpt lat="48.39184" lon="2.02785">
        <ele>98</ele>
        <time>2011-04-30T08:05:28Z</time>
      </trkpt>
      <trkpt lat="48.39184" lon="2.02783">
        <ele>98</ele>
        <time>2011-04-30T08:05:29Z</time>
      </trkpt>
      <trkpt lat="48.39184" lon="2.02782">
        <ele>98</ele>
        <time>2011-04-30T08:05:30Z</time>
      </trkpt>
      <trkpt lat="48.39183" lon="2.0278">
        <ele>98</ele>
        <time>2011-04-30T08:05:31Z</time>
      </trkpt>
      <trkpt lat="48.39183" lon="2.02778">
        <ele>98</ele>
        <time>2011-04-30T08:05:32Z</time>
      </trkpt>
      <trkpt lat="48.39183" lon="2.02776">
        <ele>98</ele>
        <time>2011-04-30T08:05:33Z</time>
      </trkpt>
      <trkpt lat="48.39182" lon="2.02775">
        <ele>98</ele>
        <time>2011-04-30T08:05:34Z</time>
      </trkpt>
      <trkpt lat="48.39182" lon="2.02773">
        <ele>98</ele>
        <time>2011-04-30T08:05:35Z</time>
      </trkpt>
      <trkpt lat="48.39182" lon="2.02771">
        <ele>98</ele>
        <time>2011-04-30T08:05:36Z</time>
      </trkpt>
      <trkpt lat="48.39181" lon="2.02769">
        <ele>98</ele>
        <time>2011-04-30T08:05:37Z</time>
      </trkpt>
      <trkpt lat="48.39181" lon="2.02768">
        <ele>98</ele>
        <time>2011-04-30T08:05:38Z</time>
      </trkpt>
      <trkpt lat="48.3918" lon="2.02766">
        <ele>98</ele>
        <time>2011-04-30T08:05:39Z</time>
      </trkpt>
      <trkpt lat="48.3918" lon="2.02764">
        <ele>98</ele>
        <time>2011-04-30T08:05:40Z</time>
      </trkpt>
      <trkpt lat="48.39179" lon="2.02762">
        <ele>98</ele>
        <time>2011-04-30T08:05:41Z</time>
      </trkpt>
      <trkpt lat="48.39179" lon="2.0276">
        <ele>99</ele>
        <time>2011-04-30T08:05:42Z</time>
      </trkpt>
      <trkpt lat="48.39178" lon="2.02758">
        <ele>99</ele>
        <time>2011-04-30T08:05:43Z</time>
      </trkpt>
      <trkpt lat="48.39177" lon="2.02754">
        <ele>99</ele>
        <time>2011-04-30T08:05:44Z</time>
      </trkpt>
      <trkpt lat="48.39176" lon="2.02751">
        <ele>99</ele>
        <time>2011-04-30T08:05:45Z</time>
      </trkpt>
      <trkpt lat="48.39175" lon="2.02748">
        <ele>99</ele>
        <time>2011-04-30T08:05:46Z</time>
      </trkpt>
      <trkpt lat="48.39174" lon="2.02744">
        <ele>99</ele>
        <time>2011-04-30T08:05:47Z</time>
      </trkpt>
      <trkpt lat="48.39174" lon="2.02741">
        <ele>99</ele>
        <time>2011-04-30T08:05:48Z</time>
      </trkpt>
      <trkpt lat="48.39173" lon="2.02737">
        <ele>99</ele>
        <time>2011-04-30T08:05:49Z</time>
      </trkpt>
      <trkpt lat="48.39172" lon="2.02734">
        <ele>99</ele>
        <time>2011-04-30T08:05:50Z</time>
      </trkpt>
      <trkpt lat="48.39172" lon="2.0273">
        <ele>99</ele>
        <time>2011-04-30T08:05:51Z</time>
      </trkpt>
      <trkpt lat="48.39171" lon="2.02727">
        <ele>99</ele>
        <time>2011-04-30T08:05:52Z</time>
      </trkpt>
      <trkpt lat="48.3917" lon="2.02723">
        <ele>99</ele>
        <time>2011-04-30T08:05:53Z</time>
      </trkpt>
      <trkpt lat="48.3917" lon="2.0272">
        <ele>100</ele>
        <time>2011-04-30T08:05:54Z</time>
      </trkpt>
      <trkpt lat="48.39169" lon="2.02717">
        <ele>100</ele>
        <time>2011-04-30T08:05:55Z</time>
      </trkpt>
      <trkpt lat="48.39169" lon="2.02715">
        <ele>100</ele>
        <time>2011-04-30T08:05:56Z</time>
      </trkpt>
      <trkpt lat="48.39169" lon="2.02712">
        <ele>100</ele>
        <time>2011-04-30T08:05:57Z</time>
      </trkpt>
      <trkpt lat="48.3917" lon="2.0271">
        <ele>100</ele>
        <time>2011-04-30T08:05:58Z</time>
      </trkpt>
      <trkpt lat="48.39171" lon="2.02708">
        <ele>100</ele>
        <time>2011-04-30T08:05:59Z</time>
      </trkpt>
      <trkpt lat="48.39172" lon="2.02706">
        <ele>100</ele>
        <time>2011-04-30T08:06:00Z</time>
      </trkpt>
      <trkpt lat="48.39174" lon="2.02704">
        <ele>100</ele>
        <time>2011-04-30T08:06:01Z</time>
      </trkpt>
      <trkpt lat="48.39175" lon="2.02703">
        <ele>100</ele>
        <time>2011-04-30T08:06:02Z</time>
      </trkpt>
      <trkpt lat="48.39177" lon="2.02701">
        <ele>100</ele>
        <time>2011-04-30T08:06:03Z</time>
      </trkpt>
      <trkpt lat="48.39181" lon="2.02699">
        <ele>100</ele>
        <time>2011-04-30T08:06:04Z</time>
      </trkpt>
      <trkpt lat="48.39182" lon="2.02698">
        <ele>100</ele>
        <time>2011-04-30T08:06:05Z</time>
      </trkpt>
      <trkpt lat="48.39184" lon="2.02696">
        <ele>100</ele>
        <time>2011-04-30T08:06:06Z</time>
      </trkpt>
      <trkpt lat="48.39186" lon="2.02695">
        <ele>100</ele>
        <time>2011-04-30T08:06:07Z</time>
      </trkpt>
      <trkpt lat="48.39188" lon="2.02694">
        <ele>100</ele>
        <time>2011-04-30T08:06:08Z</time>
      </trkpt>
      <trkpt lat="48.39189" lon="2.02693">
        <ele>100</ele>
        <time>2011-04-30T08:06:09Z</time>
      </trkpt>
      <trkpt lat="48.39191" lon="2.02691">
        <ele>100</ele>
        <time>2011-04-30T08:06:10Z</time>
      </trkpt>
      <trkpt lat="48.39193" lon="2.0269">
        <ele>100</ele>
        <time>2011-04-30T08:06:11Z</time>
      </trkpt>
      <trkpt lat="48.39195" lon="2.02689">
        <ele>100</ele>
        <time>2011-04-30T08:06:12Z</time>
      </trkpt>
      <trkpt lat="48.39197" lon="2.02688">
        <ele>100</ele>
        <time>2011-04-30T08:06:13Z</time>
      </trkpt>
      <trkpt lat="48.39199" lon="2.02687">
        <ele>100</ele>
        <time>2011-04-30T08:06:14Z</time>
      </trkpt>
      <trkpt lat="48.392" lon="2.02686">
        <ele>100</ele>
        <time>2011-04-30T08:06:15Z</time>
      </trkpt>
      <trkpt lat="48.39202" lon="2.02685">
        <ele>100</ele>
        <time>2011-04-30T08:06:16Z</time>
      </trkpt>
      <trkpt lat="48.39204" lon="2.02685">
        <ele>100</ele>
        <time>2011-04-30T08:06:17Z</time>
      </trkpt>
      <trkpt lat="48.39206" lon="2.02684">
        <ele>100</ele>
        <time>2011-04-30T08:06:18Z</time>
      </trkpt>
      <trkpt lat="48.39207" lon="2.02683">
        <ele>100</ele>
        <time>2011-04-30T08:06:19Z</time>
      </trkpt>
      <trkpt lat="48.39208" lon="2.02682">
        <ele>99</ele>
        <time>2011-04-30T08:06:20Z</time>
      </trkpt>
      <trkpt lat="48.39208" lon="2.0268">
        <ele>99</ele>
        <time>2011-04-30T08:06:21Z</time>
      </trkpt>
      <trkpt lat="48.39209" lon="2.02679">
        <ele>99</ele>
        <time>2011-04-30T08:06:22Z</time>
      </trkpt>
      <trkpt lat="48.3921" lon="2.02678">
        <ele>99</ele>
        <time>2011-04-30T08:06:23Z</time>
      </trkpt>
      <trkpt lat="48.3921" lon="2.02678">
        <ele>99</ele>
        <time>2011-04-30T08:06:24Z</time>
      </trkpt>
      <trkpt lat="48.3921" lon="2.02677">
        <ele>99</ele>
        <time>2011-04-30T08:06:25Z</time>
      </trkpt>
      <trkpt lat="48.3921" lon="2.02677">
        <ele>99</ele>
        <time>2011-04-30T08:06:26Z</time>
      </trkpt>
      <trkpt lat="48.3921" lon="2.02677">
        <ele>99</ele>
        <time>2011-04-30T08:06:27Z</time>
      </trkpt>
      <trkpt lat="48.39211" lon="2.02677">
        <ele>99</ele>
        <time>2011-04-30T08:06:28Z</time>
      </trkpt>
      <trkpt lat="48.39211" lon="2.02676">
        <ele>99</ele>
        <time>2011-04-30T08:06:29Z</time>
      </trkpt>
      <trkpt lat="48.39211" lon="2.02676">
        <ele>99</ele>
        <time>2011-04-30T08:06:30Z</time>
      </trkpt>
      <trkpt lat="48.39211" lon="2.02675">
        <ele>99</ele>
        <time>2011-04-30T08:06:31Z</time>
      </trkpt>
      <trkpt lat="48.39212" lon="2.02674">
        <ele>99</ele>
        <time>2011-04-30T08:06:32Z</time>
      </trkpt>
      <trkpt lat="48.39212" lon="2.02673">
        <ele>99</ele>
        <time>2011-04-30T08:06:33Z</time>
      </trkpt>
      <trkpt lat="48.39212" lon="2.02672">
        <ele>99</ele>
        <time>2011-04-30T08:06:34Z</time>
      </trkpt>
      <trkpt lat="48.39213" lon="2.02671">
        <ele>99</ele>
        <time>2011-04-30T08:06:35Z</time>
      </trkpt>
      <trkpt lat="48.39213" lon="2.0267">
        <ele>99</ele>
        <time>2011-04-30T08:06:36Z</time>
      </trkpt>
      <trkpt lat="48.39215" lon="2.02669">
        <ele>99</ele>
        <time>2011-04-30T08:06:37Z</time>
      </trkpt>
      <trkpt lat="48.39217" lon="2.02667">
        <ele>99</ele>
        <time>2011-04-30T08:06:38Z</time>
      </trkpt>
      <trkpt lat="48.39219" lon="2.02665">
        <ele>102</ele>
        <time>2011-04-30T08:06:39Z</time>
      </trkpt>
      <trkpt lat="48.39221" lon="2.02663">
        <ele>102</ele>
        <time>2011-04-30T08:06:40Z</time>
      </trkpt>
      <trkpt lat="48.39223" lon="2.0266">
        <ele>102</ele>
        <time>2011-04-30T08:06:41Z</time>
      </trkpt>
      <trkpt lat="48.39225" lon="2.02658">
        <ele>102</ele>
        <time>2011-04-30T08:06:42Z</time>
      </trkpt>
      <trkpt lat="48.39227" lon="2.02657">
        <ele>102</ele>
        <time>2011-04-30T08:06:43Z</time>
      </trkpt>
      <trkpt lat="48.39228" lon="2.02654">
        <ele>102</ele>
        <time>2011-04-30T08:06:44Z</time>
      </trkpt>
      <trkpt lat="48.3923" lon="2.02652">
        <ele>102</ele>
        <time>2011-04-30T08:06:45Z</time>
      </trkpt>
      <trkpt lat="48.39232" lon="2.0265">
        <ele>102</ele>
        <time>2011-04-30T08:06:46Z</time>
      </trkpt>
      <trkpt lat="48.39234" lon="2.02647">
        <ele>102</ele>
        <time>2011-04-30T08:06:47Z</time>
      </trkpt>
      <trkpt lat="48.39235" lon="2.02644">
        <ele>102</ele>
        <time>2011-04-30T08:06:48Z</time>
      </trkpt>
      <trkpt lat="48.39237" lon="2.02642">
        <ele>102</ele>
        <time>2011-04-30T08:06:49Z</time>
      </trkpt>
      <trkpt lat="48.39238" lon="2.0264">
        <ele>102</ele>
        <time>2011-04-30T08:06:50Z</time>
      </trkpt>
      <trkpt lat="48.3924" lon="2.02637">
        <ele>102</ele>
        <time>2011-04-30T08:06:51Z</time>
      </trkpt>
      <trkpt lat="48.39241" lon="2.02635">
        <ele>103</ele>
        <time>2011-04-30T08:06:52Z</time>
      </trkpt>
      <trkpt lat="48.39243" lon="2.02633">
        <ele>103</ele>
        <time>2011-04-30T08:06:53Z</time>
      </trkpt>
      <trkpt lat="48.39244" lon="2.02631">
        <ele>103</ele>
        <time>2011-04-30T08:06:54Z</time>
      </trkpt>
      <trkpt lat="48.39245" lon="2.02629">
        <ele>103</ele>
        <time>2011-04-30T08:06:55Z</time>
      </trkpt>
      <trkpt lat="48.39246" lon="2.02627">
        <ele>103</ele>
        <time>2011-04-30T08:06:56Z</time>
      </trkpt>
      <trkpt lat="48.39247" lon="2.02625">
        <ele>103</ele>
        <time>2011-04-30T08:06:57Z</time>
      </trkpt>
      <trkpt lat="48.39247" lon="2.02623">
        <ele>103</ele>
        <time>2011-04-30T08:06:58Z</time>
      </trkpt>
      <trkpt lat="48.39248" lon="2.02621">
        <ele>103</ele>
        <time>2011-04-30T08:06:59Z</time>
      </trkpt>
      <trkpt lat="48.39249" lon="2.02619">
        <ele>104</ele>
        <time>2011-04-30T08:07:00Z</time>
      </trkpt>
      <trkpt lat="48.3925" lon="2.02617">
        <ele>104</ele>
        <time>2011-04-30T08:07:01Z</time>
      </trkpt>
      <trkpt lat="48.39251" lon="2.02615">
        <ele>101</ele>
        <time>2011-04-30T08:07:02Z</time>
      </trkpt>
      <trkpt lat="48.39253" lon="2.02613">
        <ele>101</ele>
        <time>2011-04-30T08:07:03Z</time>
      </trkpt>
      <trkpt lat="48.39254" lon="2.02612">
        <ele>101</ele>
        <time>2011-04-30T08:07:04Z</time>
      </trkpt>
      <trkpt lat="48.39256" lon="2.0261">
        <ele>102</ele>
        <time>2011-04-30T08:07:05Z</time>
      </trkpt>
      <trkpt lat="48.39257" lon="2.02608">
        <ele>102</ele>
        <time>2011-04-30T08:07:06Z</time>
      </trkpt>
      <trkpt lat="48.39259" lon="2.02606">
        <ele>102</ele>
        <time>2011-04-30T08:07:07Z</time>
      </trkpt>
      <trkpt lat="48.39261" lon="2.02604">
        <ele>102</ele>
        <time>2011-04-30T08:07:08Z</time>
      </trkpt>
      <trkpt lat="48.39262" lon="2.02603">
        <ele>102</ele>
        <time>2011-04-30T08:07:09Z</time>
      </trkpt>
      <trkpt lat="48.39264" lon="2.02601">
        <ele>102</ele>
        <time>2011-04-30T08:07:10Z</time>
      </trkpt>
      <trkpt lat="48.39266" lon="2.02599">
        <ele>102</ele>
        <time>2011-04-30T08:07:11Z</time>
      </trkpt>
      <trkpt lat="48.39268" lon="2.02598">
        <ele>102</ele>
        <time>2011-04-30T08:07:12Z</time>
      </trkpt>
      <trkpt lat="48.39269" lon="2.02596">
        <ele>102</ele>
        <time>2011-04-30T08:07:13Z</time>
      </trkpt>
      <trkpt lat="48.39271" lon="2.02595">
        <ele>102</ele>
        <time>2011-04-30T08:07:14Z</time>
      </trkpt>
      <trkpt lat="48.39273" lon="2.02593">
        <ele>102</ele>
        <time>2011-04-30T08:07:15Z</time>
      </trkpt>
      <trkpt lat="48.39275" lon="2.02591">
        <ele>102</ele>
        <time>2011-04-30T08:07:16Z</time>
      </trkpt>
      <trkpt lat="48.39277" lon="2.0259">
        <ele>102</ele>
        <time>2011-04-30T08:07:17Z</time>
      </trkpt>
      <trkpt lat="48.39279" lon="2.02588">
        <ele>102</ele>
        <time>2011-04-30T08:07:18Z</time>
      </trkpt>
      <trkpt lat="48.3928" lon="2.02586">
        <ele>102</ele>
        <time>2011-04-30T08:07:19Z</time>
      </trkpt>
      <trkpt lat="48.39282" lon="2.02584">
        <ele>102</ele>
        <time>2011-04-30T08:07:20Z</time>
      </trkpt>
      <trkpt lat="48.39283" lon="2.02582">
        <ele>108</ele>
        <time>2011-04-30T08:07:21Z</time>
      </trkpt>
      <trkpt lat="48.39284" lon="2.02579">
        <ele>108</ele>
        <time>2011-04-30T08:07:22Z</time>
      </trkpt>
      <trkpt lat="48.39285" lon="2.02577">
        <ele>109</ele>
        <time>2011-04-30T08:07:23Z</time>
      </trkpt>
      <trkpt lat="48.39286" lon="2.02575">
        <ele>109</ele>
        <time>2011-04-30T08:07:24Z</time>
      </trkpt>
      <trkpt lat="48.39287" lon="2.02572">
        <ele>109</ele>
        <time>2011-04-30T08:07:25Z</time>
      </trkpt>
      <trkpt lat="48.39288" lon="2.0257">
        <ele>109</ele>
        <time>2011-04-30T08:07:26Z</time>
      </trkpt>
      <trkpt lat="48.3929" lon="2.02568">
        <ele>109</ele>
        <time>2011-04-30T08:07:27Z</time>
      </trkpt>
      <trkpt lat="48.39291" lon="2.02565">
        <ele>109</ele>
        <time>2011-04-30T08:07:28Z</time>
      </trkpt>
      <trkpt lat="48.39293" lon="2.02563">
        <ele>109</ele>
        <time>2011-04-30T08:07:29Z</time>
      </trkpt>
      <trkpt lat="48.39294" lon="2.02561">
        <ele>109</ele>
        <time>2011-04-30T08:07:30Z</time>
      </trkpt>
      <trkpt lat="48.39295" lon="2.02559">
        <ele>110</ele>
        <time>2011-04-30T08:07:31Z</time>
      </trkpt>
      <trkpt lat="48.39296" lon="2.02558">
        <ele>110</ele>
        <time>2011-04-30T08:07:32Z</time>
      </trkpt>
      <trkpt lat="48.39296" lon="2.02556">
        <ele>110</ele>
        <time>2011-04-30T08:07:33Z</time>
      </trkpt>
      <trkpt lat="48.39298" lon="2.02554">
        <ele>110</ele>
        <time>2011-04-30T08:07:34Z</time>
      </trkpt>
      <trkpt lat="48.39299" lon="2.02552">
        <ele>110</ele>
        <time>2011-04-30T08:07:35Z</time>
      </trkpt>
      <trkpt lat="48.393" lon="2.02549">
        <ele>110</ele>
        <time>2011-04-30T08:07:36Z</time>
      </trkpt>
      <trkpt lat="48.39301" lon="2.02547">
        <ele>110</ele>
        <time>2011-04-30T08:07:37Z</time>
      </trkpt>
      <trkpt lat="48.39302" lon="2.02545">
        <ele>111</ele>
        <time>2011-04-30T08:07:38Z</time>
      </trkpt>
      <trkpt lat="48.39304" lon="2.02542">
        <ele>111</ele>
        <time>2011-04-30T08:07:39Z</time>
      </trkpt>
      <trkpt lat="48.39306" lon="2.0254">
        <ele>111</ele>
        <time>2011-04-30T08:07:40Z</time>
      </trkpt>
      <trkpt lat="48.39308" lon="2.02537">
        <ele>111</ele>
        <time>2011-04-30T08:07:41Z</time>
      </trkpt>
      <trkpt lat="48.39309" lon="2.02535">
        <ele>111</ele>
        <time>2011-04-30T08:07:42Z</time>
      </trkpt>
      <trkpt lat="48.39311" lon="2.02533">
        <ele>111</ele>
        <time>2011-04-30T08:07:43Z</time>
      </trkpt>
      <trkpt lat="48.39312" lon="2.02531">
        <ele>112</ele>
        <time>2011-04-30T08:07:44Z</time>
      </trkpt>
      <trkpt lat="48.39314" lon="2.02529">
        <ele>112</ele>
        <time>2011-04-30T08:07:45Z</time>
      </trkpt>
      <trkpt lat="48.39315" lon="2.02527">
        <ele>112</ele>
        <time>2011-04-30T08:07:46Z</time>
      </trkpt>
      <trkpt lat="48.39317" lon="2.02525">
        <ele>112</ele>
        <time>2011-04-30T08:07:47Z</time>
      </trkpt>
      <trkpt lat="48.39318" lon="2.02523">
        <ele>112</ele>
        <time>2011-04-30T08:07:48Z</time>
      </trkpt>
      <trkpt lat="48.3932" lon="2.02521">
        <ele>112</ele>
        <time>2011-04-30T08:07:49Z</time>
      </trkpt>
      <trkpt lat="48.39321" lon="2.02519">
        <ele>112</ele>
        <time>2011-04-30T08:07:50Z</time>
      </trkpt>
      <trkpt lat="48.39322" lon="2.02517">
        <ele>113</ele>
        <time>2011-04-30T08:07:51Z</time>
      </trkpt>
      <trkpt lat="48.39324" lon="2.02515">
        <ele>113</ele>
        <time>2011-04-30T08:07:52Z</time>
      </trkpt>
      <trkpt lat="48.39325" lon="2.02513">
        <ele>113</ele>
        <time>2011-04-30T08:07:53Z</time>
      </trkpt>
      <trkpt lat="48.39327" lon="2.02511">
        <ele>113</ele>
        <time>2011-04-30T08:07:54Z</time>
      </trkpt>
      <trkpt lat="48.39328" lon="2.02509">
        <ele>113</ele>
        <time>2011-04-30T08:07:55Z</time>
      </trkpt>
      <trkpt lat="48.39329" lon="2.02508">
        <ele>113</ele>
        <time>2011-04-30T08:07:56Z</time>
      </trkpt>
      <trkpt lat="48.39331" lon="2.02506">
        <ele>113</ele>
        <time>2011-04-30T08:07:57Z</time>
      </trkpt>
      <trkpt lat="48.39332" lon="2.02504">
        <ele>114</ele>
        <time>2011-04-30T08:07:58Z</time>
      </trkpt>
      <trkpt lat="48.39333" lon="2.02502">
        <ele>114</ele>
        <time>2011-04-30T08:07:59Z</time>
      </trkpt>
      <trkpt lat="48.39334" lon="2.025">
        <ele>114</ele>
        <time>2011-04-30T08:08:00Z</time>
      </trkpt>
      <trkpt lat="48.39336" lon="2.02498">
        <ele>115</ele>
        <time>2011-04-30T08:08:01Z</time>
      </trkpt>
      <trkpt lat="48.39337" lon="2.02497">
        <ele>115</ele>
        <time>2011-04-30T08:08:02Z</time>
      </trkpt>
      <trkpt lat="48.39338" lon="2.02495">
        <ele>116</ele>
        <time>2011-04-30T08:08:03Z</time>
      </trkpt>
      <trkpt lat="48.39339" lon="2.02494">
        <ele>116</ele>
        <time>2011-04-30T08:08:04Z</time>
      </trkpt>
      <trkpt lat="48.39341" lon="2.02492">
        <ele>117</ele>
        <time>2011-04-30T08:08:05Z</time>
      </trkpt>
      <trkpt lat="48.39342" lon="2.0249">
        <ele>117</ele>
        <time>2011-04-30T08:08:06Z</time>
      </trkpt>
      <trkpt lat="48.39343" lon="2.02489">
        <ele>118</ele>
        <time>2011-04-30T08:08:07Z</time>
      </trkpt>
      <trkpt lat="48.39344" lon="2.02487">
        <ele>118</ele>
        <time>2011-04-30T08:08:08Z</time>
      </trkpt>
      <trkpt lat="48.39346" lon="2.02486">
        <ele>118</ele>
        <time>2011-04-30T08:08:09Z</time>
      </trkpt>
      <trkpt lat="48.39347" lon="2.02485">
        <ele>119</ele>
        <time>2011-04-30T08:08:10Z</time>
      </trkpt>
      <trkpt lat="48.39348" lon="2.02483">
        <ele>119</ele>
        <time>2011-04-30T08:08:11Z</time>
      </trkpt>
      <trkpt lat="48.39349" lon="2.02482">
        <ele>119</ele>
        <time>2011-04-30T08:08:12Z</time>
      </trkpt>
      <trkpt lat="48.39351" lon="2.02481">
        <ele>119</ele>
        <time>2011-04-30T08:08:13Z</time>
      </trkpt>
      <trkpt lat="48.39352" lon="2.0248">
        <ele>119</ele>
        <time>2011-04-30T08:08:14Z</time>
      </trkpt>
      <trkpt lat="48.39353" lon="2.02479">
        <ele>120</ele>
        <time>2011-04-30T08:08:15Z</time>
      </trkpt>
      <trkpt lat="48.39354" lon="2.02479">
        <ele>120</ele>
        <time>2011-04-30T08:08:16Z</time>
      </trkpt>
      <trkpt lat="48.39356" lon="2.02478">
        <ele>120</ele>
        <time>2011-04-30T08:08:17Z</time>
      </trkpt>
      <trkpt lat="48.39357" lon="2.02478">
        <ele>120</ele>
        <time>2011-04-30T08:08:18Z</time>
      </trkpt>
      <trkpt lat="48.39358" lon="2.02478">
        <ele>120</ele>
        <time>2011-04-30T08:08:19Z</time>
      </trkpt>
      <trkpt lat="48.3936" lon="2.02477">
        <ele>120</ele>
        <time>2011-04-30T08:08:20Z</time>
      </trkpt>
      <trkpt lat="48.39362" lon="2.02477">
        <ele>120</ele>
        <time>2011-04-30T08:08:21Z</time>
      </trkpt>
      <trkpt lat="48.39363" lon="2.02477">
        <ele>120</ele>
        <time>2011-04-30T08:08:22Z</time>
      </trkpt>
      <trkpt lat="48.39365" lon="2.02476">
        <ele>120</ele>
        <time>2011-04-30T08:08:23Z</time>
      </trkpt>
      <trkpt lat="48.39366" lon="2.02476">
        <ele>121</ele>
        <time>2011-04-30T08:08:24Z</time>
      </trkpt>
      <trkpt lat="48.39368" lon="2.02476">
        <ele>121</ele>
        <time>2011-04-30T08:08:25Z</time>
      </trkpt>
      <trkpt lat="48.39369" lon="2.02475">
        <ele>121</ele>
        <time>2011-04-30T08:08:26Z</time>
      </trkpt>
      <trkpt lat="48.39371" lon="2.02475">
        <ele>121</ele>
        <time>2011-04-30T08:08:27Z</time>
      </trkpt>
      <trkpt lat="48.39373" lon="2.02475">
        <ele>121</ele>
        <time>2011-04-30T08:08:28Z</time>
      </trkpt>
      <trkpt lat="48.39376" lon="2.02475">
        <ele>121</ele>
        <time>2011-04-30T08:08:29Z</time>
      </trkpt>
      <trkpt lat="48.39379" lon="2.02474">
        <ele>121</ele>
        <time>2011-04-30T08:08:30Z</time>
      </trkpt>
      <trkpt lat="48.39382" lon="2.02473">
        <ele>121</ele>
        <time>2011-04-30T08:08:31Z</time>
      </trkpt>
      <trkpt lat="48.39386" lon="2.02473">
        <ele>121</ele>
        <time>2011-04-30T08:08:32Z</time>
      </trkpt>
      <trkpt lat="48.39388" lon="2.02473">
        <ele>121</ele>
        <time>2011-04-30T08:08:33Z</time>
      </trkpt>
      <trkpt lat="48.39391" lon="2.02474">
        <ele>121</ele>
        <time>2011-04-30T08:08:34Z</time>
      </trkpt>
      <trkpt lat="48.39394" lon="2.02474">
        <ele>121</ele>
        <time>2011-04-30T08:08:35Z</time>
      </trkpt>
      <trkpt lat="48.39397" lon="2.02475">
        <ele>121</ele>
        <time>2011-04-30T08:08:36Z</time>
      </trkpt>
      <trkpt lat="48.39399" lon="2.02475">
        <ele>121</ele>
        <time>2011-04-30T08:08:37Z</time>
      </trkpt>
      <trkpt lat="48.39402" lon="2.02476">
        <ele>121</ele>
        <time>2011-04-30T08:08:38Z</time>
      </trkpt>
      <trkpt lat="48.39404" lon="2.02476">
        <ele>120</ele>
        <time>2011-04-30T08:08:39Z</time>
      </trkpt>
      <trkpt lat="48.39407" lon="2.02477">
        <ele>120</ele>
        <time>2011-04-30T08:08:40Z</time>
      </trkpt>
      <trkpt lat="48.39409" lon="2.02477">
        <ele>120</ele>
        <time>2011-04-30T08:08:41Z</time>
      </trkpt>
      <trkpt lat="48.39411" lon="2.02478">
        <ele>120</ele>
        <time>2011-04-30T08:08:42Z</time>
      </trkpt>
      <trkpt lat="48.39413" lon="2.02479">
        <ele>120</ele>
        <time>2011-04-30T08:08:43Z</time>
      </trkpt>
      <trkpt lat="48.39415" lon="2.02479">
        <ele>120</ele>
        <time>2011-04-30T08:08:44Z</time>
      </trkpt>
      <trkpt lat="48.39418" lon="2.0248">
        <ele>123</ele>
        <time>2011-04-30T08:08:45Z</time>
      </trkpt>
      <trkpt lat="48.3942" lon="2.0248">
        <ele>123</ele>
        <time>2011-04-30T08:08:46Z</time>
      </trkpt>
      <trkpt lat="48.39422" lon="2.0248">
        <ele>123</ele>
        <time>2011-04-30T08:08:47Z</time>
      </trkpt>
      <trkpt lat="48.39425" lon="2.02481">
        <ele>123</ele>
        <time>2011-04-30T08:08:48Z</time>
      </trkpt>
      <trkpt lat="48.39427" lon="2.02481">
        <ele>123</ele>
        <time>2011-04-30T08:08:49Z</time>
      </trkpt>
      <trkpt lat="48.39429" lon="2.02481">
        <ele>123</ele>
        <time>2011-04-30T08:08:50Z</time>
      </trkpt>
      <trkpt lat="48.39431" lon="2.02481">
        <ele>123</ele>
        <time>2011-04-30T08:08:51Z</time>
      </trkpt>
      <trkpt lat="48.39433" lon="2.02481">
        <ele>124</ele>
        <time>2011-04-30T08:08:52Z</time>
      </trkpt>
      <trkpt lat="48.39435" lon="2.02481">
        <ele>124</ele>
        <time>2011-04-30T08:08:53Z</time>
      </trkpt>
      <trkpt lat="48.39437" lon="2.02481">
        <ele>124</ele>
        <time>2011-04-30T08:08:54Z</time>
      </trkpt>
      <trkpt lat="48.39439" lon="2.02481">
        <ele>124</ele>
        <time>2011-04-30T08:08:55Z</time>
      </trkpt>
      <trkpt lat="48.39442" lon="2.02481">
        <ele>124</ele>
        <time>2011-04-30T08:08:56Z</time>
      </trkpt>
      <trkpt lat="48.39444" lon="2.02481">
        <ele>125</ele>
        <time>2011-04-30T08:08:57Z</time>
      </trkpt>
      <trkpt lat="48.39446" lon="2.02481">
        <ele>125</ele>
        <time>2011-04-30T08:08:58Z</time>
      </trkpt>
      <trkpt lat="48.39448" lon="2.02481">
        <ele>125</ele>
        <time>2011-04-30T08:08:59Z</time>
      </trkpt>
      <trkpt lat="48.3945" lon="2.02481">
        <ele>125</ele>
        <time>2011-04-30T08:09:00Z</time>
      </trkpt>
      <trkpt lat="48.39452" lon="2.0248">
        <ele>126</ele>
        <time>2011-04-30T08:09:01Z</time>
      </trkpt>
      <trkpt lat="48.39454" lon="2.02479">
        <ele>126</ele>
        <time>2011-04-30T08:09:02Z</time>
      </trkpt>
      <trkpt lat="48.39456" lon="2.02479">
        <ele>126</ele>
        <time>2011-04-30T08:09:03Z</time>
      </trkpt>
      <trkpt lat="48.39458" lon="2.02478">
        <ele>126</ele>
        <time>2011-04-30T08:09:04Z</time>
      </trkpt>
      <trkpt lat="48.3946" lon="2.02477">
        <ele>126</ele>
        <time>2011-04-30T08:09:05Z</time>
      </trkpt>
      <trkpt lat="48.39462" lon="2.02476">
        <ele>127</ele>
        <time>2011-04-30T08:09:06Z</time>
      </trkpt>
      <trkpt lat="48.39464" lon="2.02475">
        <ele>127</ele>
        <time>2011-04-30T08:09:07Z</time>
      </trkpt>
      <trkpt lat="48.39466" lon="2.02473">
        <ele>127</ele>
        <time>2011-04-30T08:09:08Z</time>
      </trkpt>
      <trkpt lat="48.39467" lon="2.02472">
        <ele>127</ele>
        <time>2011-04-30T08:09:09Z</time>
      </trkpt>
      <trkpt lat="48.39469" lon="2.0247">
        <ele>127</ele>
        <time>2011-04-30T08:09:10Z</time>
      </trkpt>
      <trkpt lat="48.39471" lon="2.02468">
        <ele>127</ele>
        <time>2011-04-30T08:09:11Z</time>
      </trkpt>
      <trkpt lat="48.39472" lon="2.02466">
        <ele>127</ele>
        <time>2011-04-30T08:09:12Z</time>
      </trkpt>
      <trkpt lat="48.39473" lon="2.02464">
        <ele>128</ele>
        <time>2011-04-30T08:09:13Z</time>
      </trkpt>
      <trkpt lat="48.39474" lon="2.02462">
        <ele>128</ele>
        <time>2011-04-30T08:09:14Z</time>
      </trkpt>
      <trkpt lat="48.39475" lon="2.02459">
        <ele>128</ele>
        <time>2011-04-30T08:09:15Z</time>
      </trkpt>
      <trkpt lat="48.39476" lon="2.02457">
        <ele>128</ele>
        <time>2011-04-30T08:09:16Z</time>
      </trkpt>
      <trkpt lat="48.39477" lon="2.02455">
        <ele>128</ele>
        <time>2011-04-30T08:09:17Z</time>
      </trkpt>
      <trkpt lat="48.39478" lon="2.02453">
        <ele>128</ele>
        <time>2011-04-30T08:09:18Z</time>
      </trkpt>
      <trkpt lat="48.3948" lon="2.0245">
        <ele>128</ele>
        <time>2011-04-30T08:09:19Z</time>
      </trkpt>
      <trkpt lat="48.39481" lon="2.02447">
        <ele>129</ele>
        <time>2011-04-30T08:09:20Z</time>
      </trkpt>
      <trkpt lat="48.39482" lon="2.02444">
        <ele>129</ele>
        <time>2011-04-30T08:09:21Z</time>
      </trkpt>
      <trkpt lat="48.39483" lon="2.02441">
        <ele>129</ele>
        <time>2011-04-30T08:09:22Z</time>
      </trkpt>
      <trkpt lat="48.39485" lon="2.02438">
        <ele>129</ele>
        <time>2011-04-30T08:09:23Z</time>
      </trkpt>
      <trkpt lat="48.39486" lon="2.02435">
        <ele>130</ele>
        <time>2011-04-30T08:09:24Z</time>
      </trkpt>
      <trkpt lat="48.39488" lon="2.02432">
        <ele>130</ele>
        <time>2011-04-30T08:09:25Z</time>
      </trkpt>
      <trkpt lat="48.3949" lon="2.02428">
        <ele>130</ele>
        <time>2011-04-30T08:09:26Z</time>
      </trkpt>
      <trkpt lat="48.39491" lon="2.02425">
        <ele>131</ele>
        <time>2011-04-30T08:09:27Z</time>
      </trkpt>
      <trkpt lat="48.39493" lon="2.02422">
        <ele>131</ele>
        <time>2011-04-30T08:09:28Z</time>
      </trkpt>
      <trkpt lat="48.39495" lon="2.02419">
        <ele>132</ele>
        <time>2011-04-30T08:09:29Z</time>
      </trkpt>
      <trkpt lat="48.39497" lon="2.02416">
        <ele>133</ele>
        <time>2011-04-30T08:09:30Z</time>
      </trkpt>
      <trkpt lat="48.39499" lon="2.02413">
        <ele>133</ele>
        <time>2011-04-30T08:09:31Z</time>
      </trkpt>
      <trkpt lat="48.395" lon="2.0241">
        <ele>133</ele>
        <time>2011-04-30T08:09:32Z</time>
      </trkpt>
      <trkpt lat="48.39502" lon="2.02408">
        <ele>134</ele>
        <time>2011-04-30T08:09:33Z</time>
      </trkpt>
      <trkpt lat="48.39504" lon="2.02405">
        <ele>134</ele>
        <time>2011-04-30T08:09:34Z</time>
      </trkpt>
      <trkpt lat="48.39506" lon="2.02402">
        <ele>134</ele>
        <time>2011-04-30T08:09:35Z</time>
      </trkpt>
      <trkpt lat="48.39507" lon="2.024">
        <ele>134</ele>
        <time>2011-04-30T08:09:36Z</time>
      </trkpt>
      <trkpt lat="48.39509" lon="2.02397">
        <ele>134</ele>
        <time>2011-04-30T08:09:37Z</time>
      </trkpt>
      <trkpt lat="48.3951" lon="2.02394">
        <ele>134</ele>
        <time>2011-04-30T08:09:38Z</time>
      </trkpt>
      <trkpt lat="48.39512" lon="2.02391">
        <ele>134</ele>
        <time>2011-04-30T08:09:39Z</time>
      </trkpt>
      <trkpt lat="48.39513" lon="2.02388">
        <ele>134</ele>
        <time>2011-04-30T08:09:40Z</time>
      </trkpt>
      <trkpt lat="48.39514" lon="2.02385">
        <ele>134</ele>
        <time>2011-04-30T08:09:41Z</time>
      </trkpt>
      <trkpt lat="48.39516" lon="2.02383">
        <ele>135</ele>
        <time>2011-04-30T08:09:42Z</time>
      </trkpt>
      <trkpt lat="48.39517" lon="2.0238">
        <ele>135</ele>
        <time>2011-04-30T08:09:43Z</time>
      </trkpt>
      <trkpt lat="48.39519" lon="2.02377">
        <ele>135</ele>
        <time>2011-04-30T08:09:44Z</time>
      </trkpt>
      <trkpt lat="48.3952" lon="2.02374">
        <ele>135</ele>
        <time>2011-04-30T08:09:45Z</time>
      </trkpt>
      <trkpt lat="48.39522" lon="2.02371">
        <ele>135</ele>
        <time>2011-04-30T08:09:46Z</time>
      </trkpt>
      <trkpt lat="48.39523" lon="2.02368">
        <ele>135</ele>
        <time>2011-04-30T08:09:47Z</time>
      </trkpt>
      <trkpt lat="48.39525" lon="2.02366">
        <ele>135</ele>
        <time>2011-04-30T08:09:48Z</time>
      </trkpt>
      <trkpt lat="48.39526" lon="2.02363">
        <ele>135</ele>
        <time>2011-04-30T08:09:49Z</time>
      </trkpt>
      <trkpt lat="48.39528" lon="2.0236">
        <ele>135</ele>
        <time>2011-04-30T08:09:50Z</time>
      </trkpt>
      <trkpt lat="48.3953" lon="2.02357">
        <ele>135</ele>
        <time>2011-04-30T08:09:51Z</time>
      </trkpt>
      <trkpt lat="48.39531" lon="2.02353">
        <ele>135</ele>
        <time>2011-04-30T08:09:52Z</time>
      </trkpt>
      <trkpt lat="48.39533" lon="2.0235">
        <ele>135</ele>
        <time>2011-04-30T08:09:53Z</time>
      </trkpt>
      <trkpt lat="48.39535" lon="2.02347">
        <ele>135</ele>
        <time>2011-04-30T08:09:54Z</time>
      </trkpt>
      <trkpt lat="48.39537" lon="2.02344">
        <ele>135</ele>
        <time>2011-04-30T08:09:55Z</time>
      </trkpt>
      <trkpt lat="48.39539" lon="2.0234">
        <ele>135</ele>
        <time>2011-04-30T08:09:56Z</time>
      </trkpt>
      <trkpt lat="48.39541" lon="2.02337">
        <ele>135</ele>
        <time>2011-04-30T08:09:57Z</time>
      </trkpt>
      <trkpt lat="48.39543" lon="2.02334">
        <ele>135</ele>
        <time>2011-04-30T08:09:58Z</time>
      </trkpt>
      <trkpt lat="48.39544" lon="2.02331">
        <ele>136</ele>
        <time>2011-04-30T08:09:59Z</time>
      </trkpt>
      <trkpt lat="48.39546" lon="2.02328">
        <ele>136</ele>
        <time>2011-04-30T08:10:00Z</time>
      </trkpt>
      <trkpt lat="48.39548" lon="2.02325">
        <ele>136</ele>
        <time>2011-04-30T08:10:01Z</time>
      </trkpt>
      <trkpt lat="48.3955" lon="2.02322">
        <ele>136</ele>
        <time>2011-04-30T08:10:02Z</time>
      </trkpt>
      <trkpt lat="48.39552" lon="2.02319">
        <ele>136</ele>
        <time>2011-04-30T08:10:03Z</time>
      </trkpt>
      <trkpt lat="48.39554" lon="2.02316">
        <ele>136</ele>
        <time>2011-04-30T08:10:04Z</time>
      </trkpt>
      <trkpt lat="48.39555" lon="2.02313">
        <ele>136</ele>
        <time>2011-04-30T08:10:05Z</time>
      </trkpt>
      <trkpt lat="48.39557" lon="2.02311">
        <ele>136</ele>
        <time>2011-04-30T08:10:06Z</time>
      </trkpt>
      <trkpt lat="48.39558" lon="2.02308">
        <ele>136</ele>
        <time>2011-04-30T08:10:07Z</time>
      </trkpt>
      <trkpt lat="48.3956" lon="2.02306">
        <ele>136</ele>
        <time>2011-04-30T08:10:08Z</time>
      </trkpt>
      <trkpt lat="48.39561" lon="2.02303">
        <ele>136</ele>
        <time>2011-04-30T08:10:09Z</time>
      </trkpt>
      <trkpt lat="48.39562" lon="2.02301">
        <ele>136</ele>
        <time>2011-04-30T08:10:10Z</time>
      </trkpt>
      <trkpt lat="48.39563" lon="2.02298">
        <ele>136</ele>
        <time>2011-04-30T08:10:11Z</time>
      </trkpt>
      <trkpt lat="48.39565" lon="2.02295">
        <ele>136</ele>
        <time>2011-04-30T08:10:12Z</time>
      </trkpt>
      <trkpt lat="48.39566" lon="2.02292">
        <ele>136</ele>
        <time>2011-04-30T08:10:13Z</time>
      </trkpt>
      <trkpt lat="48.39567" lon="2.02289">
        <ele>136</ele>
        <time>2011-04-30T08:10:14Z</time>
      </trkpt>
      <trkpt lat="48.39568" lon="2.02287">
        <ele>136</ele>
        <time>2011-04-30T08:10:15Z</time>
      </trkpt>
      <trkpt lat="48.39568" lon="2.02284">
        <ele>136</ele>
        <time>2011-04-30T08:10:16Z</time>
      </trkpt>
      <trkpt lat="48.39569" lon="2.02282">
        <ele>136</ele>
        <time>2011-04-30T08:10:17Z</time>
      </trkpt>
      <trkpt lat="48.3957" lon="2.02279">
        <ele>136</ele>
        <time>2011-04-30T08:10:18Z</time>
      </trkpt>
      <trkpt lat="48.39571" lon="2.02278">
        <ele>136</ele>
        <time>2011-04-30T08:10:19Z</time>
      </trkpt>
      <trkpt lat="48.39572" lon="2.02277">
        <ele>136</ele>
        <time>2011-04-30T08:10:20Z</time>
      </trkpt>
      <trkpt lat="48.39573" lon="2.02276">
        <ele>136</ele>
        <time>2011-04-30T08:10:21Z</time>
      </trkpt>
      <trkpt lat="48.39574" lon="2.02276">
        <ele>136</ele>
        <time>2011-04-30T08:10:22Z</time>
      </trkpt>
      <trkpt lat="48.39575" lon="2.02276">
        <ele>136</ele>
        <time>2011-04-30T08:10:23Z</time>
      </trkpt>
      <trkpt lat="48.39575" lon="2.02276">
        <ele>136</ele>
        <time>2011-04-30T08:10:24Z</time>
      </trkpt>
      <trkpt lat="48.39576" lon="2.02277">
        <ele>136</ele>
        <time>2011-04-30T08:10:25Z</time>
      </trkpt>
      <trkpt lat="48.39576" lon="2.02277">
        <ele>136</ele>
        <time>2011-04-30T08:10:26Z</time>
      </trkpt>
      <trkpt lat="48.39576" lon="2.02277">
        <ele>136</ele>
        <time>2011-04-30T08:10:27Z</time>
      </trkpt>
      <trkpt lat="48.39576" lon="2.02277">
        <ele>136</ele>
        <time>2011-04-30T08:10:28Z</time>
      </trkpt>
      <trkpt lat="48.39576" lon="2.02277">
        <ele>136</ele>
        <time>2011-04-30T08:10:29Z</time>
      </trkpt>
      <trkpt lat="48.39576" lon="2.02277">
        <ele>136</ele>
        <time>2011-04-30T08:10:30Z</time>
      </trkpt>
      <trkpt lat="48.39576" lon="2.02277">
        <ele>136</ele>
        <time>2011-04-30T08:10:31Z</time>
      </trkpt>
      <trkpt lat="48.39576" lon="2.02277">
        <ele>136</ele>
        <time>2011-04-30T08:10:32Z</time>
      </trkpt>
      <trkpt lat="48.39577" lon="2.02276">
        <ele>136</ele>
        <time>2011-04-30T08:10:33Z</time>
      </trkpt>
      <trkpt lat="48.39577" lon="2.02275">
        <ele>136</ele>
        <time>2011-04-30T08:10:34Z</time>
      </trkpt>
      <trkpt lat="48.39576" lon="2.02274">
        <ele>136</ele>
        <time>2011-04-30T08:10:35Z</time>
      </trkpt>
      <trkpt lat="48.39576" lon="2.02274">
        <ele>136</ele>
        <time>2011-04-30T08:10:36Z</time>
      </trkpt>
      <trkpt lat="48.39576" lon="2.02274">
        <ele>136</ele>
        <time>2011-04-30T08:10:37Z</time>
      </trkpt>
      <trkpt lat="48.39576" lon="2.02273">
        <ele>136</ele>
        <time>2011-04-30T08:10:38Z</time>
      </trkpt>
      <trkpt lat="48.39576" lon="2.02273">
        <ele>136</ele>
        <time>2011-04-30T08:10:39Z</time>
      </trkpt>
      <trkpt lat="48.39576" lon="2.02273">
        <ele>136</ele>
        <time>2011-04-30T08:10:40Z</time>
      </trkpt>
      <trkpt lat="48.39576" lon="2.02273">
        <ele>136</ele>
        <time>2011-04-30T08:10:41Z</time>
      </trkpt>
      <trkpt lat="48.39576" lon="2.02273">
        <ele>136</ele>
        <time>2011-04-30T08:10:42Z</time>
      </trkpt>
      <trkpt lat="48.39575" lon="2.02274">
        <ele>136</ele>
        <time>2011-04-30T08:10:43Z</time>
      </trkpt>
      <trkpt lat="48.39575" lon="2.02274">
        <ele>136</ele>
        <time>2011-04-30T08:10:44Z</time>
      </trkpt>
      <trkpt lat="48.39575" lon="2.02274">
        <ele>136</ele>
        <time>2011-04-30T08:10:45Z</time>
      </trkpt>
      <trkpt lat="48.39575" lon="2.02274">
        <ele>136</ele>
        <time>2011-04-30T08:10:46Z</time>
      </trkpt>
      <trkpt lat="48.39575" lon="2.02273">
        <ele>136</ele>
        <time>2011-04-30T08:10:47Z</time>
      </trkpt>
      <trkpt lat="48.39575" lon="2.02273">
        <ele>136</ele>
        <time>2011-04-30T08:10:48Z</time>
      </trkpt>
      <trkpt lat="48.39575" lon="2.02273">
        <ele>136</ele>
        <time>2011-04-30T08:10:49Z</time>
      </trkpt>
      <trkpt lat="48.39575" lon="2.02273">
        <ele>136</ele>
        <time>2011-04-30T08:10:50Z</time>
      </trkpt>
      <trkpt lat="48.39576" lon="2.02273">
        <ele>136</ele>
        <time>2011-04-30T08:10:51Z</time>
      </trkpt>
      <trkpt lat="48.39575" lon="2.02273">
        <ele>136</ele>
        <time>2011-04-30T08:10:52Z</time>
      </trkpt>
      <trkpt lat="48.39575" lon="2.02273">
        <ele>136</ele>
        <time>2011-04-30T08:10:53Z</time>
      </trkpt>
      <trkpt lat="48.39575" lon="2.02273">
        <ele>136</ele>
        <time>2011-04-30T08:10:54Z</time>
      </trkpt>
      <trkpt lat="48.39576" lon="2.02273">
        <ele>136</ele>
        <time>2011-04-30T08:10:55Z</time>
      </trkpt>
      <trkpt lat="48.39576" lon="2.02273">
        <ele>136</ele>
        <time>2011-04-30T08:10:56Z</time>
      </trkpt>
      <trkpt lat="48.39576" lon="2.02273">
        <ele>136</ele>
        <time>2011-04-30T08:10:57Z</time>
      </trkpt>
      <trkpt lat="48.39576" lon="2.02273">
        <ele>136</ele>
        <time>2011-04-30T08:10:58Z</time>
      </trkpt>
      <trkpt lat="48.39576" lon="2.02273">
        <ele>136</ele>
        <time>2011-04-30T08:10:59Z</time>
      </trkpt>
      <trkpt lat="48.39576" lon="2.02273">
        <ele>136</ele>
        <time>2011-04-30T08:11:00Z</time>
      </trkpt>
      <trkpt lat="48.39576" lon="2.02274">
        <ele>136</ele>
        <time>2011-04-30T08:11:01Z</time>
      </trkpt>
      <trkpt lat="48.39576" lon="2.02274">
        <ele>136</ele>
        <time>2011-04-30T08:11:02Z</time>
      </trkpt>
      <trkpt lat="48.39576" lon="2.02274">
        <ele>136</ele>
        <time>2011-04-30T08:11:03Z</time>
      </trkpt>
      <trkpt lat="48.39576" lon="2.02274">
        <ele>136</ele>
        <time>2011-04-30T08:11:04Z</time>
      </trkpt>
      <trkpt lat="48.39576" lon="2.02274">
        <ele>136</ele>
        <time>2011-04-30T08:11:05Z</time>
      </trkpt>
      <trkpt lat="48.39576" lon="2.02274">
        <ele>136</ele>
        <time>2011-04-30T08:11:06Z</time>
      </trkpt>
      <trkpt lat="48.39576" lon="2.02274">
        <ele>136</ele>
        <time>2011-04-30T08:11:07Z</time>
      </trkpt>
      <trkpt lat="48.39576" lon="2.02274">
        <ele>136</ele>
        <time>2011-04-30T08:11:08Z</time>
      </trkpt>
      <trkpt lat="48.39576" lon="2.02274">
        <ele>136</ele>
        <time>2011-04-30T08:11:09Z</time>
      </trkpt>
      <trkpt lat="48.39577" lon="2.02275">
        <ele>136</ele>
        <time>2011-04-30T08:11:10Z</time>
      </trkpt>
      <trkpt lat="48.39577" lon="2.02275">
        <ele>136</ele>
        <time>2011-04-30T08:11:11Z</time>
      </trkpt>
      <trkpt lat="48.39578" lon="2.02275">
        <ele>136</ele>
        <time>2011-04-30T08:11:12Z</time>
      </trkpt>
      <trkpt lat="48.39579" lon="2.02276">
        <ele>136</ele>
        <time>2011-04-30T08:11:13Z</time>
      </trkpt>
      <trkpt lat="48.39579" lon="2.02277">
        <ele>136</ele>
        <time>2011-04-30T08:11:14Z</time>
      </trkpt>
      <trkpt lat="48.3958" lon="2.02279">
        <ele>136</ele>
        <time>2011-04-30T08:11:15Z</time>
      </trkpt>
      <trkpt lat="48.3958" lon="2.0228">
        <ele>136</ele>
        <time>2011-04-30T08:11:16Z</time>
      </trkpt>
      <trkpt lat="48.3958" lon="2.02282">
        <ele>136</ele>
        <time>2011-04-30T08:11:17Z</time>
      </trkpt>
      <trkpt lat="48.3958" lon="2.02283">
        <ele>136</ele>
        <time>2011-04-30T08:11:18Z</time>
      </trkpt>
      <trkpt lat="48.39581" lon="2.02285">
        <ele>136</ele>
        <time>2011-04-30T08:11:19Z</time>
      </trkpt>
      <trkpt lat="48.39581" lon="2.02286">
        <ele>136</ele>
        <time>2011-04-30T08:11:20Z</time>
      </trkpt>
      <trkpt lat="48.39581" lon="2.02288">
        <ele>136</ele>
        <time>2011-04-30T08:11:21Z</time>
      </trkpt>
      <trkpt lat="48.39581" lon="2.0229">
        <ele>136</ele>
        <time>2011-04-30T08:11:22Z</time>
      </trkpt>
      <trkpt lat="48.39581" lon="2.02291">
        <ele>136</ele>
        <time>2011-04-30T08:11:23Z</time>
      </trkpt>
      <trkpt lat="48.39581" lon="2.02293">
        <ele>136</ele>
        <time>2011-04-30T08:11:24Z</time>
      </trkpt>
      <trkpt lat="48.39582" lon="2.02294">
        <ele>136</ele>
        <time>2011-04-30T08:11:25Z</time>
      </trkpt>
      <trkpt lat="48.39582" lon="2.02296">
        <ele>136</ele>
        <time>2011-04-30T08:11:26Z</time>
      </trkpt>
      <trkpt lat="48.39582" lon="2.02297">
        <ele>136</ele>
        <time>2011-04-30T08:11:27Z</time>
      </trkpt>
      <trkpt lat="48.39583" lon="2.02299">
        <ele>136</ele>
        <time>2011-04-30T08:11:28Z</time>
      </trkpt>
      <trkpt lat="48.39583" lon="2.02302">
        <ele>136</ele>
        <time>2011-04-30T08:11:29Z</time>
      </trkpt>
      <trkpt lat="48.39583" lon="2.02305">
        <ele>136</ele>
        <time>2011-04-30T08:11:30Z</time>
      </trkpt>
      <trkpt lat="48.39584" lon="2.02308">
        <ele>137</ele>
        <time>2011-04-30T08:11:31Z</time>
      </trkpt>
      <trkpt lat="48.39584" lon="2.02311">
        <ele>137</ele>
        <time>2011-04-30T08:11:32Z</time>
      </trkpt>
      <trkpt lat="48.39584" lon="2.02314">
        <ele>137</ele>
        <time>2011-04-30T08:11:33Z</time>
      </trkpt>
      <trkpt lat="48.39585" lon="2.02317">
        <ele>137</ele>
        <time>2011-04-30T08:11:34Z</time>
      </trkpt>
      <trkpt lat="48.39585" lon="2.02321">
        <ele>137</ele>
        <time>2011-04-30T08:11:35Z</time>
      </trkpt>
      <trkpt lat="48.39585" lon="2.02324">
        <ele>136</ele>
        <time>2011-04-30T08:11:36Z</time>
      </trkpt>
      <trkpt lat="48.39586" lon="2.02327">
        <ele>136</ele>
        <time>2011-04-30T08:11:37Z</time>
      </trkpt>
      <trkpt lat="48.39586" lon="2.0233">
        <ele>136</ele>
        <time>2011-04-30T08:11:38Z</time>
      </trkpt>
      <trkpt lat="48.39586" lon="2.02333">
        <ele>136</ele>
        <time>2011-04-30T08:11:39Z</time>
      </trkpt>
      <trkpt lat="48.39587" lon="2.02336">
        <ele>136</ele>
        <time>2011-04-30T08:11:40Z</time>
      </trkpt>
      <trkpt lat="48.39587" lon="2.02339">
        <ele>136</ele>
        <time>2011-04-30T08:11:41Z</time>
      </trkpt>
      <trkpt lat="48.39587" lon="2.02343">
        <ele>137</ele>
        <time>2011-04-30T08:11:42Z</time>
      </trkpt>
      <trkpt lat="48.39588" lon="2.02346">
        <ele>137</ele>
        <time>2011-04-30T08:11:43Z</time>
      </trkpt>
      <trkpt lat="48.39588" lon="2.02349">
        <ele>137</ele>
        <time>2011-04-30T08:11:44Z</time>
      </trkpt>
      <trkpt lat="48.39589" lon="2.02352">
        <ele>137</ele>
        <time>2011-04-30T08:11:45Z</time>
      </trkpt>
      <trkpt lat="48.39589" lon="2.02355">
        <ele>137</ele>
        <time>2011-04-30T08:11:46Z</time>
      </trkpt>
      <trkpt lat="48.3959" lon="2.02359">
        <ele>137</ele>
        <time>2011-04-30T08:11:47Z</time>
      </trkpt>
      <trkpt lat="48.3959" lon="2.02362">
        <ele>137</ele>
        <time>2011-04-30T08:11:48Z</time>
      </trkpt>
      <trkpt lat="48.39591" lon="2.02365">
        <ele>137</ele>
        <time>2011-04-30T08:11:49Z</time>
      </trkpt>
      <trkpt lat="48.39591" lon="2.02368">
        <ele>137</ele>
        <time>2011-04-30T08:11:50Z</time>
      </trkpt>
      <trkpt lat="48.39592" lon="2.02372">
        <ele>137</ele>
        <time>2011-04-30T08:11:51Z</time>
      </trkpt>
      <trkpt lat="48.39592" lon="2.02375">
        <ele>137</ele>
        <time>2011-04-30T08:11:52Z</time>
      </trkpt>
      <trkpt lat="48.39593" lon="2.02378">
        <ele>137</ele>
        <time>2011-04-30T08:11:53Z</time>
      </trkpt>
      <trkpt lat="48.39593" lon="2.02381">
        <ele>137</ele>
        <time>2011-04-30T08:11:54Z</time>
      </trkpt>
      <trkpt lat="48.39594" lon="2.02384">
        <ele>137</ele>
        <time>2011-04-30T08:11:55Z</time>
      </trkpt>
      <trkpt lat="48.39594" lon="2.02388">
        <ele>137</ele>
        <time>2011-04-30T08:11:56Z</time>
      </trkpt>
      <trkpt lat="48.39595" lon="2.02391">
        <ele>137</ele>
        <time>2011-04-30T08:11:57Z</time>
      </trkpt>
      <trkpt lat="48.39595" lon="2.02394">
        <ele>137</ele>
        <time>2011-04-30T08:11:58Z</time>
      </trkpt>
      <trkpt lat="48.39595" lon="2.02398">
        <ele>137</ele>
        <time>2011-04-30T08:11:59Z</time>
      </trkpt>
      <trkpt lat="48.39596" lon="2.02401">
        <ele>137</ele>
        <time>2011-04-30T08:12:00Z</time>
      </trkpt>
      <trkpt lat="48.39597" lon="2.02404">
        <ele>137</ele>
        <time>2011-04-30T08:12:01Z</time>
      </trkpt>
      <trkpt lat="48.39597" lon="2.02408">
        <ele>137</ele>
        <time>2011-04-30T08:12:02Z</time>
      </trkpt>
      <trkpt lat="48.39597" lon="2.02411">
        <ele>137</ele>
        <time>2011-04-30T08:12:03Z</time>
      </trkpt>
      <trkpt lat="48.39598" lon="2.02415">
        <ele>137</ele>
        <time>2011-04-30T08:12:04Z</time>
      </trkpt>
      <trkpt lat="48.39598" lon="2.02418">
        <ele>138</ele>
        <time>2011-04-30T08:12:05Z</time>
      </trkpt>
      <trkpt lat="48.39599" lon="2.02421">
        <ele>138</ele>
        <time>2011-04-30T08:12:06Z</time>
      </trkpt>
      <trkpt lat="48.39599" lon="2.02425">
        <ele>138</ele>
        <time>2011-04-30T08:12:07Z</time>
      </trkpt>
      <trkpt lat="48.396" lon="2.02428">
        <ele>138</ele>
        <time>2011-04-30T08:12:08Z</time>
      </trkpt>
      <trkpt lat="48.39601" lon="2.02432">
        <ele>138</ele>
        <time>2011-04-30T08:12:09Z</time>
      </trkpt>
      <trkpt lat="48.39601" lon="2.02435">
        <ele>138</ele>
        <time>2011-04-30T08:12:10Z</time>
      </trkpt>
      <trkpt lat="48.39602" lon="2.02439">
        <ele>138</ele>
        <time>2011-04-30T08:12:11Z</time>
      </trkpt>
      <trkpt lat="48.39602" lon="2.02443">
        <ele>138</ele>
        <time>2011-04-30T08:12:12Z</time>
      </trkpt>
      <trkpt lat="48.39603" lon="2.02446">
        <ele>138</ele>
        <time>2011-04-30T08:12:13Z</time>
      </trkpt>
      <trkpt lat="48.39603" lon="2.0245">
        <ele>138</ele>
        <time>2011-04-30T08:12:14Z</time>
      </trkpt>
      <trkpt lat="48.39604" lon="2.02453">
        <ele>139</ele>
        <time>2011-04-30T08:12:15Z</time>
      </trkpt>
      <trkpt lat="48.39605" lon="2.02456">
        <ele>139</ele>
        <time>2011-04-30T08:12:16Z</time>
      </trkpt>
      <trkpt lat="48.39605" lon="2.0246">
        <ele>139</ele>
        <time>2011-04-30T08:12:17Z</time>
      </trkpt>
      <trkpt lat="48.39606" lon="2.02463">
        <ele>139</ele>
        <time>2011-04-30T08:12:18Z</time>
      </trkpt>
      <trkpt lat="48.39607" lon="2.02466">
        <ele>139</ele>
        <time>2011-04-30T08:12:19Z</time>
      </trkpt>
      <trkpt lat="48.39607" lon="2.02469">
        <ele>139</ele>
        <time>2011-04-30T08:12:20Z</time>
      </trkpt>
      <trkpt lat="48.39608" lon="2.02472">
        <ele>139</ele>
        <time>2011-04-30T08:12:21Z</time>
      </trkpt>
      <trkpt lat="48.39609" lon="2.02475">
        <ele>139</ele>
        <time>2011-04-30T08:12:22Z</time>
      </trkpt>
      <trkpt lat="48.39609" lon="2.02478">
        <ele>139</ele>
        <time>2011-04-30T08:12:23Z</time>
      </trkpt>
      <trkpt lat="48.3961" lon="2.02481">
        <ele>139</ele>
        <time>2011-04-30T08:12:24Z</time>
      </trkpt>
      <trkpt lat="48.39611" lon="2.02483">
        <ele>139</ele>
        <time>2011-04-30T08:12:25Z</time>
      </trkpt>
      <trkpt lat="48.39611" lon="2.02486">
        <ele>139</ele>
        <time>2011-04-30T08:12:26Z</time>
      </trkpt>
      <trkpt lat="48.39612" lon="2.02489">
        <ele>139</ele>
        <time>2011-04-30T08:12:27Z</time>
      </trkpt>
      <trkpt lat="48.39613" lon="2.02492">
        <ele>139</ele>
        <time>2011-04-30T08:12:28Z</time>
      </trkpt>
      <trkpt lat="48.39613" lon="2.02495">
        <ele>139</ele>
        <time>2011-04-30T08:12:29Z</time>
      </trkpt>
      <trkpt lat="48.39614" lon="2.02499">
        <ele>139</ele>
        <time>2011-04-30T08:12:30Z</time>
      </trkpt>
      <trkpt lat="48.39614" lon="2.02502">
        <ele>139</ele>
        <time>2011-04-30T08:12:31Z</time>
      </trkpt>
      <trkpt lat="48.39615" lon="2.02505">
        <ele>139</ele>
        <time>2011-04-30T08:12:32Z</time>
      </trkpt>
      <trkpt lat="48.39615" lon="2.02508">
        <ele>139</ele>
        <time>2011-04-30T08:12:33Z</time>
      </trkpt>
      <trkpt lat="48.39615" lon="2.02511">
        <ele>139</ele>
        <time>2011-04-30T08:12:34Z</time>
      </trkpt>
      <trkpt lat="48.39616" lon="2.02513">
        <ele>139</ele>
        <time>2011-04-30T08:12:35Z</time>
      </trkpt>
      <trkpt lat="48.39616" lon="2.02516">
        <ele>139</ele>
        <time>2011-04-30T08:12:36Z</time>
      </trkpt>
      <trkpt lat="48.39617" lon="2.02519">
        <ele>139</ele>
        <time>2011-04-30T08:12:37Z</time>
      </trkpt>
      <trkpt lat="48.39617" lon="2.02522">
        <ele>139</ele>
        <time>2011-04-30T08:12:38Z</time>
      </trkpt>
      <trkpt lat="48.39618" lon="2.02525">
        <ele>139</ele>
        <time>2011-04-30T08:12:39Z</time>
      </trkpt>
      <trkpt lat="48.39618" lon="2.02527">
        <ele>139</ele>
        <time>2011-04-30T08:12:40Z</time>
      </trkpt>
      <trkpt lat="48.39618" lon="2.0253">
        <ele>139</ele>
        <time>2011-04-30T08:12:41Z</time>
      </trkpt>
      <trkpt lat="48.39619" lon="2.02533">
        <ele>139</ele>
        <time>2011-04-30T08:12:42Z</time>
      </trkpt>
      <trkpt lat="48.39619" lon="2.02536">
        <ele>139</ele>
        <time>2011-04-30T08:12:43Z</time>
      </trkpt>
      <trkpt lat="48.39619" lon="2.02539">
        <ele>139</ele>
        <time>2011-04-30T08:12:44Z</time>
      </trkpt>
      <trkpt lat="48.3962" lon="2.02541">
        <ele>139</ele>
        <time>2011-04-30T08:12:45Z</time>
      </trkpt>
      <trkpt lat="48.39621" lon="2.02544">
        <ele>139</ele>
        <time>2011-04-30T08:12:46Z</time>
      </trkpt>
      <trkpt lat="48.39621" lon="2.02547">
        <ele>139</ele>
        <time>2011-04-30T08:12:47Z</time>
      </trkpt>
      <trkpt lat="48.39622" lon="2.02551">
        <ele>139</ele>
        <time>2011-04-30T08:12:48Z</time>
      </trkpt>
      <trkpt lat="48.39622" lon="2.02555">
        <ele>139</ele>
        <time>2011-04-30T08:12:49Z</time>
      </trkpt>
      <trkpt lat="48.39623" lon="2.0256">
        <ele>139</ele>
        <time>2011-04-30T08:12:50Z</time>
      </trkpt>
      <trkpt lat="48.39623" lon="2.02565">
        <ele>139</ele>
        <time>2011-04-30T08:12:51Z</time>
      </trkpt>
      <trkpt lat="48.39624" lon="2.02569">
        <ele>139</ele>
        <time>2011-04-30T08:12:52Z</time>
      </trkpt>
      <trkpt lat="48.39625" lon="2.02574">
        <ele>139</ele>
        <time>2011-04-30T08:12:53Z</time>
      </trkpt>
      <trkpt lat="48.39625" lon="2.02578">
        <ele>139</ele>
        <time>2011-04-30T08:12:54Z</time>
      </trkpt>
      <trkpt lat="48.39626" lon="2.02582">
        <ele>139</ele>
        <time>2011-04-30T08:12:55Z</time>
      </trkpt>
      <trkpt lat="48.39627" lon="2.02586">
        <ele>138</ele>
        <time>2011-04-30T08:12:56Z</time>
      </trkpt>
      <trkpt lat="48.39628" lon="2.0259">
        <ele>138</ele>
        <time>2011-04-30T08:12:57Z</time>
      </trkpt>
      <trkpt lat="48.39629" lon="2.02594">
        <ele>138</ele>
        <time>2011-04-30T08:12:58Z</time>
      </trkpt>
      <trkpt lat="48.3963" lon="2.02597">
        <ele>138</ele>
        <time>2011-04-30T08:12:59Z</time>
      </trkpt>
      <trkpt lat="48.39631" lon="2.02601">
        <ele>138</ele>
        <time>2011-04-30T08:13:00Z</time>
      </trkpt>
      <trkpt lat="48.39632" lon="2.02605">
        <ele>138</ele>
        <time>2011-04-30T08:13:01Z</time>
      </trkpt>
      <trkpt lat="48.39633" lon="2.02609">
        <ele>138</ele>
        <time>2011-04-30T08:13:02Z</time>
      </trkpt>
      <trkpt lat="48.39634" lon="2.02613">
        <ele>138</ele>
        <time>2011-04-30T08:13:03Z</time>
      </trkpt>
      <trkpt lat="48.39635" lon="2.02617">
        <ele>137</ele>
        <time>2011-04-30T08:13:04Z</time>
      </trkpt>
      <trkpt lat="48.39635" lon="2.02621">
        <ele>137</ele>
        <time>2011-04-30T08:13:05Z</time>
      </trkpt>
      <trkpt lat="48.39636" lon="2.02625">
        <ele>137</ele>
        <time>2011-04-30T08:13:06Z</time>
      </trkpt>
      <trkpt lat="48.39637" lon="2.02629">
        <ele>137</ele>
        <time>2011-04-30T08:13:07Z</time>
      </trkpt>
      <trkpt lat="48.39638" lon="2.02633">
        <ele>137</ele>
        <time>2011-04-30T08:13:08Z</time>
      </trkpt>
      <trkpt lat="48.39639" lon="2.02637">
        <ele>137</ele>
        <time>2011-04-30T08:13:09Z</time>
      </trkpt>
      <trkpt lat="48.3964" lon="2.02641">
        <ele>137</ele>
        <time>2011-04-30T08:13:10Z</time>
      </trkpt>
      <trkpt lat="48.39641" lon="2.02645">
        <ele>137</ele>
        <time>2011-04-30T08:13:11Z</time>
      </trkpt>
      <trkpt lat="48.39641" lon="2.02648">
        <ele>137</ele>
        <time>2011-04-30T08:13:12Z</time>
      </trkpt>
      <trkpt lat="48.39642" lon="2.02652">
        <ele>137</ele>
        <time>2011-04-30T08:13:13Z</time>
      </trkpt>
      <trkpt lat="48.39643" lon="2.02656">
        <ele>137</ele>
        <time>2011-04-30T08:13:14Z</time>
      </trkpt>
      <trkpt lat="48.39644" lon="2.0266">
        <ele>137</ele>
        <time>2011-04-30T08:13:15Z</time>
      </trkpt>
      <trkpt lat="48.39645" lon="2.02664">
        <ele>137</ele>
        <time>2011-04-30T08:13:16Z</time>
      </trkpt>
      <trkpt lat="48.39646" lon="2.02667">
        <ele>136</ele>
        <time>2011-04-30T08:13:17Z</time>
      </trkpt>
      <trkpt lat="48.39647" lon="2.02671">
        <ele>136</ele>
        <time>2011-04-30T08:13:18Z</time>
      </trkpt>
      <trkpt lat="48.39648" lon="2.02675">
        <ele>136</ele>
        <time>2011-04-30T08:13:19Z</time>
      </trkpt>
      <trkpt lat="48.39649" lon="2.02678">
        <ele>136</ele>
        <time>2011-04-30T08:13:20Z</time>
      </trkpt>
      <trkpt lat="48.3965" lon="2.02682">
        <ele>136</ele>
        <time>2011-04-30T08:13:21Z</time>
      </trkpt>
      <trkpt lat="48.39651" lon="2.02686">
        <ele>135</ele>
        <time>2011-04-30T08:13:22Z</time>
      </trkpt>
      <trkpt lat="48.39652" lon="2.02689">
        <ele>135</ele>
        <time>2011-04-30T08:13:23Z</time>
      </trkpt>
      <trkpt lat="48.39653" lon="2.02693">
        <ele>135</ele>
        <time>2011-04-30T08:13:24Z</time>
      </trkpt>
      <trkpt lat="48.39654" lon="2.02696">
        <ele>135</ele>
        <time>2011-04-30T08:13:25Z</time>
      </trkpt>
      <trkpt lat="48.39655" lon="2.02699">
        <ele>135</ele>
        <time>2011-04-30T08:13:26Z</time>
      </trkpt>
      <trkpt lat="48.39656" lon="2.02703">
        <ele>135</ele>
        <time>2011-04-30T08:13:27Z</time>
      </trkpt>
      <trkpt lat="48.39657" lon="2.02706">
        <ele>135</ele>
        <time>2011-04-30T08:13:28Z</time>
      </trkpt>
      <trkpt lat="48.39658" lon="2.0271">
        <ele>135</ele>
        <time>2011-04-30T08:13:29Z</time>
      </trkpt>
      <trkpt lat="48.39659" lon="2.02713">
        <ele>135</ele>
        <time>2011-04-30T08:13:30Z</time>
      </trkpt>
      <trkpt lat="48.3966" lon="2.02717">
        <ele>135</ele>
        <time>2011-04-30T08:13:31Z</time>
      </trkpt>
      <trkpt lat="48.39661" lon="2.0272">
        <ele>135</ele>
        <time>2011-04-30T08:13:32Z</time>
      </trkpt>
      <trkpt lat="48.39662" lon="2.02724">
        <ele>135</ele>
        <time>2011-04-30T08:13:33Z</time>
      </trkpt>
      <trkpt lat="48.39664" lon="2.02727">
        <ele>135</ele>
        <time>2011-04-30T08:13:34Z</time>
      </trkpt>
      <trkpt lat="48.39665" lon="2.0273">
        <ele>135</ele>
        <time>2011-04-30T08:13:35Z</time>
      </trkpt>
      <trkpt lat="48.39666" lon="2.02734">
        <ele>135</ele>
        <time>2011-04-30T08:13:36Z</time>
      </trkpt>
      <trkpt lat="48.39667" lon="2.02737">
        <ele>136</ele>
        <time>2011-04-30T08:13:37Z</time>
      </trkpt>
      <trkpt lat="48.39668" lon="2.0274">
        <ele>136</ele>
        <time>2011-04-30T08:13:38Z</time>
      </trkpt>
      <trkpt lat="48.3967" lon="2.02744">
        <ele>136</ele>
        <time>2011-04-30T08:13:39Z</time>
      </trkpt>
      <trkpt lat="48.39671" lon="2.02747">
        <ele>135</ele>
        <time>2011-04-30T08:13:40Z</time>
      </trkpt>
      <trkpt lat="48.39672" lon="2.02751">
        <ele>135</ele>
        <time>2011-04-30T08:13:41Z</time>
      </trkpt>
      <trkpt lat="48.39674" lon="2.02754">
        <ele>135</ele>
        <time>2011-04-30T08:13:42Z</time>
      </trkpt>
      <trkpt lat="48.39675" lon="2.02757">
        <ele>135</ele>
        <time>2011-04-30T08:13:43Z</time>
      </trkpt>
      <trkpt lat="48.39676" lon="2.02761">
        <ele>135</ele>
        <time>2011-04-30T08:13:44Z</time>
      </trkpt>
      <trkpt lat="48.39678" lon="2.02764">
        <ele>135</ele>
        <time>2011-04-30T08:13:45Z</time>
      </trkpt>
      <trkpt lat="48.39679" lon="2.02767">
        <ele>135</ele>
        <time>2011-04-30T08:13:46Z</time>
      </trkpt>
      <trkpt lat="48.3968" lon="2.0277">
        <ele>135</ele>
        <time>2011-04-30T08:13:47Z</time>
      </trkpt>
      <trkpt lat="48.39681" lon="2.02772">
        <ele>135</ele>
        <time>2011-04-30T08:13:48Z</time>
      </trkpt>
      <trkpt lat="48.39682" lon="2.02775">
        <ele>135</ele>
        <time>2011-04-30T08:13:49Z</time>
      </trkpt>
      <trkpt lat="48.39683" lon="2.02778">
        <ele>135</ele>
        <time>2011-04-30T08:13:50Z</time>
      </trkpt>
      <trkpt lat="48.39684" lon="2.0278">
        <ele>135</ele>
        <time>2011-04-30T08:13:51Z</time>
      </trkpt>
      <trkpt lat="48.39685" lon="2.02783">
        <ele>135</ele>
        <time>2011-04-30T08:13:52Z</time>
      </trkpt>
      <trkpt lat="48.39686" lon="2.02786">
        <ele>135</ele>
        <time>2011-04-30T08:13:53Z</time>
      </trkpt>
      <trkpt lat="48.39687" lon="2.02789">
        <ele>135</ele>
        <time>2011-04-30T08:13:54Z</time>
      </trkpt>
      <trkpt lat="48.39688" lon="2.02792">
        <ele>135</ele>
        <time>2011-04-30T08:13:55Z</time>
      </trkpt>
      <trkpt lat="48.3969" lon="2.02795">
        <ele>135</ele>
        <time>2011-04-30T08:13:56Z</time>
      </trkpt>
      <trkpt lat="48.39691" lon="2.02798">
        <ele>135</ele>
        <time>2011-04-30T08:13:57Z</time>
      </trkpt>
      <trkpt lat="48.39692" lon="2.02802">
        <ele>135</ele>
        <time>2011-04-30T08:13:58Z</time>
      </trkpt>
      <trkpt lat="48.39694" lon="2.02805">
        <ele>135</ele>
        <time>2011-04-30T08:13:59Z</time>
      </trkpt>
      <trkpt lat="48.39695" lon="2.02808">
        <ele>135</ele>
        <time>2011-04-30T08:14:00Z</time>
      </trkpt>
      <trkpt lat="48.39697" lon="2.02811">
        <ele>135</ele>
        <time>2011-04-30T08:14:01Z</time>
      </trkpt>
      <trkpt lat="48.39698" lon="2.02814">
        <ele>135</ele>
        <time>2011-04-30T08:14:02Z</time>
      </trkpt>
      <trkpt lat="48.397" lon="2.02817">
        <ele>135</ele>
        <time>2011-04-30T08:14:03Z</time>
      </trkpt>
      <trkpt lat="48.39701" lon="2.0282">
        <ele>135</ele>
        <time>2011-04-30T08:14:04Z</time>
      </trkpt>
      <trkpt lat="48.39703" lon="2.02823">
        <ele>135</ele>
        <time>2011-04-30T08:14:05Z</time>
      </trkpt>
      <trkpt lat="48.39704" lon="2.02826">
        <ele>135</ele>
        <time>2011-04-30T08:14:06Z</time>
      </trkpt>
      <trkpt lat="48.39706" lon="2.02829">
        <ele>135</ele>
        <time>2011-04-30T08:14:07Z</time>
      </trkpt>
      <trkpt lat="48.39707" lon="2.02832">
        <ele>135</ele>
        <time>2011-04-30T08:14:08Z</time>
      </trkpt>
      <trkpt lat="48.39709" lon="2.02835">
        <ele>134</ele>
        <time>2011-04-30T08:14:09Z</time>
      </trkpt>
      <trkpt lat="48.3971" lon="2.02838">
        <ele>134</ele>
        <time>2011-04-30T08:14:10Z</time>
      </trkpt>
      <trkpt lat="48.39712" lon="2.02841">
        <ele>134</ele>
        <time>2011-04-30T08:14:11Z</time>
      </trkpt>
      <trkpt lat="48.39714" lon="2.02844">
        <ele>134</ele>
        <time>2011-04-30T08:14:12Z</time>
      </trkpt>
      <trkpt lat="48.39715" lon="2.02847">
        <ele>134</ele>
        <time>2011-04-30T08:14:13Z</time>
      </trkpt>
      <trkpt lat="48.39717" lon="2.02849">
        <ele>134</ele>
        <time>2011-04-30T08:14:14Z</time>
      </trkpt>
      <trkpt lat="48.39718" lon="2.02852">
        <ele>134</ele>
        <time>2011-04-30T08:14:15Z</time>
      </trkpt>
      <trkpt lat="48.3972" lon="2.02855">
        <ele>134</ele>
        <time>2011-04-30T08:14:16Z</time>
      </trkpt>
      <trkpt lat="48.39721" lon="2.02858">
        <ele>134</ele>
        <time>2011-04-30T08:14:17Z</time>
      </trkpt>
      <trkpt lat="48.39723" lon="2.02861">
        <ele>134</ele>
        <time>2011-04-30T08:14:18Z</time>
      </trkpt>
      <trkpt lat="48.39724" lon="2.02864">
        <ele>134</ele>
        <time>2011-04-30T08:14:19Z</time>
      </trkpt>
      <trkpt lat="48.39726" lon="2.02867">
        <ele>134</ele>
        <time>2011-04-30T08:14:20Z</time>
      </trkpt>
      <trkpt lat="48.39727" lon="2.0287">
        <ele>134</ele>
        <time>2011-04-30T08:14:21Z</time>
      </trkpt>
      <trkpt lat="48.39728" lon="2.02873">
        <ele>134</ele>
        <time>2011-04-30T08:14:22Z</time>
      </trkpt>
      <trkpt lat="48.39729" lon="2.02876">
        <ele>134</ele>
        <time>2011-04-30T08:14:23Z</time>
      </trkpt>
      <trkpt lat="48.3973" lon="2.0288">
        <ele>134</ele>
        <time>2011-04-30T08:14:24Z</time>
      </trkpt>
      <trkpt lat="48.39732" lon="2.02883">
        <ele>134</ele>
        <time>2011-04-30T08:14:25Z</time>
      </trkpt>
      <trkpt lat="48.39733" lon="2.02886">
        <ele>133</ele>
        <time>2011-04-30T08:14:26Z</time>
      </trkpt>
      <trkpt lat="48.39734" lon="2.0289">
        <ele>133</ele>
        <time>2011-04-30T08:14:27Z</time>
      </trkpt>
      <trkpt lat="48.39735" lon="2.02893">
        <ele>133</ele>
        <time>2011-04-30T08:14:28Z</time>
      </trkpt>
      <trkpt lat="48.39737" lon="2.02896">
        <ele>133</ele>
        <time>2011-04-30T08:14:29Z</time>
      </trkpt>
      <trkpt lat="48.39738" lon="2.02899">
        <ele>133</ele>
        <time>2011-04-30T08:14:30Z</time>
      </trkpt>
      <trkpt lat="48.3974" lon="2.02902">
        <ele>133</ele>
        <time>2011-04-30T08:14:31Z</time>
      </trkpt>
      <trkpt lat="48.39741" lon="2.02905">
        <ele>133</ele>
        <time>2011-04-30T08:14:32Z</time>
      </trkpt>
      <trkpt lat="48.39743" lon="2.02908">
        <ele>133</ele>
        <time>2011-04-30T08:14:33Z</time>
      </trkpt>
      <trkpt lat="48.39745" lon="2.02911">
        <ele>133</ele>
        <time>2011-04-30T08:14:34Z</time>
      </trkpt>
      <trkpt lat="48.39747" lon="2.02914">
        <ele>133</ele>
        <time>2011-04-30T08:14:35Z</time>
      </trkpt>
      <trkpt lat="48.39748" lon="2.02917">
        <ele>133</ele>
        <time>2011-04-30T08:14:36Z</time>
      </trkpt>
      <trkpt lat="48.3975" lon="2.02919">
        <ele>133</ele>
        <time>2011-04-30T08:14:37Z</time>
      </trkpt>
      <trkpt lat="48.39752" lon="2.02922">
        <ele>132</ele>
        <time>2011-04-30T08:14:38Z</time>
      </trkpt>
      <trkpt lat="48.39753" lon="2.02924">
        <ele>132</ele>
        <time>2011-04-30T08:14:39Z</time>
      </trkpt>
      <trkpt lat="48.39755" lon="2.02926">
        <ele>132</ele>
        <time>2011-04-30T08:14:40Z</time>
      </trkpt>
      <trkpt lat="48.39757" lon="2.02928">
        <ele>132</ele>
        <time>2011-04-30T08:14:41Z</time>
      </trkpt>
      <trkpt lat="48.39759" lon="2.02929">
        <ele>132</ele>
        <time>2011-04-30T08:14:42Z</time>
      </trkpt>
      <trkpt lat="48.39761" lon="2.02931">
        <ele>132</ele>
        <time>2011-04-30T08:14:43Z</time>
      </trkpt>
      <trkpt lat="48.39762" lon="2.02933">
        <ele>131</ele>
        <time>2011-04-30T08:14:44Z</time>
      </trkpt>
      <trkpt lat="48.39764" lon="2.02935">
        <ele>131</ele>
        <time>2011-04-30T08:14:45Z</time>
      </trkpt>
      <trkpt lat="48.39766" lon="2.02937">
        <ele>131</ele>
        <time>2011-04-30T08:14:46Z</time>
      </trkpt>
      <trkpt lat="48.39768" lon="2.02938">
        <ele>131</ele>
        <time>2011-04-30T08:14:47Z</time>
      </trkpt>
      <trkpt lat="48.39769" lon="2.0294">
        <ele>131</ele>
        <time>2011-04-30T08:14:48Z</time>
      </trkpt>
      <trkpt lat="48.39771" lon="2.02942">
        <ele>131</ele>
        <time>2011-04-30T08:14:49Z</time>
      </trkpt>
      <trkpt lat="48.39773" lon="2.02944">
        <ele>131</ele>
        <time>2011-04-30T08:14:50Z</time>
      </trkpt>
      <trkpt lat="48.39775" lon="2.02945">
        <ele>131</ele>
        <time>2011-04-30T08:14:51Z</time>
      </trkpt>
      <trkpt lat="48.39777" lon="2.02947">
        <ele>131</ele>
        <time>2011-04-30T08:14:52Z</time>
      </trkpt>
      <trkpt lat="48.39778" lon="2.02948">
        <ele>131</ele>
        <time>2011-04-30T08:14:53Z</time>
      </trkpt>
      <trkpt lat="48.3978" lon="2.02949">
        <ele>131</ele>
        <time>2011-04-30T08:14:54Z</time>
      </trkpt>
      <trkpt lat="48.39782" lon="2.02951">
        <ele>131</ele>
        <time>2011-04-30T08:14:55Z</time>
      </trkpt>
      <trkpt lat="48.39784" lon="2.02952">
        <ele>130</ele>
        <time>2011-04-30T08:14:56Z</time>
      </trkpt>
      <trkpt lat="48.39786" lon="2.02953">
        <ele>130</ele>
        <time>2011-04-30T08:14:57Z</time>
      </trkpt>
      <trkpt lat="48.39788" lon="2.02955">
        <ele>130</ele>
        <time>2011-04-30T08:14:58Z</time>
      </trkpt>
      <trkpt lat="48.3979" lon="2.02956">
        <ele>130</ele>
        <time>2011-04-30T08:14:59Z</time>
      </trkpt>
      <trkpt lat="48.39791" lon="2.02957">
        <ele>130</ele>
        <time>2011-04-30T08:15:00Z</time>
      </trkpt>
      <trkpt lat="48.39793" lon="2.02958">
        <ele>130</ele>
        <time>2011-04-30T08:15:01Z</time>
      </trkpt>
      <trkpt lat="48.39795" lon="2.0296">
        <ele>130</ele>
        <time>2011-04-30T08:15:02Z</time>
      </trkpt>
      <trkpt lat="48.39797" lon="2.0296">
        <ele>130</ele>
        <time>2011-04-30T08:15:03Z</time>
      </trkpt>
      <trkpt lat="48.39799" lon="2.02961">
        <ele>130</ele>
        <time>2011-04-30T08:15:04Z</time>
      </trkpt>
      <trkpt lat="48.39801" lon="2.02962">
        <ele>130</ele>
        <time>2011-04-30T08:15:05Z</time>
      </trkpt>
      <trkpt lat="48.39803" lon="2.02963">
        <ele>130</ele>
        <time>2011-04-30T08:15:06Z</time>
      </trkpt>
      <trkpt lat="48.39805" lon="2.02964">
        <ele>130</ele>
        <time>2011-04-30T08:15:07Z</time>
      </trkpt>
      <trkpt lat="48.39807" lon="2.02965">
        <ele>130</ele>
        <time>2011-04-30T08:15:08Z</time>
      </trkpt>
      <trkpt lat="48.39809" lon="2.02965">
        <ele>130</ele>
        <time>2011-04-30T08:15:09Z</time>
      </trkpt>
      <trkpt lat="48.39811" lon="2.02966">
        <ele>130</ele>
        <time>2011-04-30T08:15:10Z</time>
      </trkpt>
      <trkpt lat="48.39812" lon="2.02967">
        <ele>130</ele>
        <time>2011-04-30T08:15:11Z</time>
      </trkpt>
      <trkpt lat="48.39814" lon="2.02968">
        <ele>130</ele>
        <time>2011-04-30T08:15:12Z</time>
      </trkpt>
      <trkpt lat="48.39816" lon="2.02969">
        <ele>130</ele>
        <time>2011-04-30T08:15:13Z</time>
      </trkpt>
      <trkpt lat="48.39818" lon="2.0297">
        <ele>130</ele>
        <time>2011-04-30T08:15:14Z</time>
      </trkpt>
      <trkpt lat="48.3982" lon="2.0297">
        <ele>130</ele>
        <time>2011-04-30T08:15:15Z</time>
      </trkpt>
      <trkpt lat="48.39822" lon="2.02971">
        <ele>130</ele>
        <time>2011-04-30T08:15:16Z</time>
      </trkpt>
      <trkpt lat="48.39824" lon="2.02972">
        <ele>130</ele>
        <time>2011-04-30T08:15:17Z</time>
      </trkpt>
      <trkpt lat="48.39826" lon="2.02973">
        <ele>130</ele>
        <time>2011-04-30T08:15:18Z</time>
      </trkpt>
      <trkpt lat="48.39828" lon="2.02973">
        <ele>130</ele>
        <time>2011-04-30T08:15:19Z</time>
      </trkpt>
      <trkpt lat="48.3983" lon="2.02974">
        <ele>130</ele>
        <time>2011-04-30T08:15:20Z</time>
      </trkpt>
      <trkpt lat="48.39832" lon="2.02975">
        <ele>130</ele>
        <time>2011-04-30T08:15:21Z</time>
      </trkpt>
      <trkpt lat="48.39834" lon="2.02975">
        <ele>128</ele>
        <time>2011-04-30T08:15:22Z</time>
      </trkpt>
      <trkpt lat="48.39837" lon="2.02976">
        <ele>127</ele>
        <time>2011-04-30T08:15:23Z</time>
      </trkpt>
      <trkpt lat="48.39839" lon="2.02976">
        <ele>127</ele>
        <time>2011-04-30T08:15:24Z</time>
      </trkpt>
      <trkpt lat="48.39841" lon="2.02977">
        <ele>127</ele>
        <time>2011-04-30T08:15:25Z</time>
      </trkpt>
      <trkpt lat="48.39843" lon="2.02977">
        <ele>127</ele>
        <time>2011-04-30T08:15:26Z</time>
      </trkpt>
      <trkpt lat="48.39845" lon="2.02978">
        <ele>127</ele>
        <time>2011-04-30T08:15:27Z</time>
      </trkpt>
      <trkpt lat="48.39848" lon="2.02978">
        <ele>127</ele>
        <time>2011-04-30T08:15:28Z</time>
      </trkpt>
      <trkpt lat="48.3985" lon="2.02978">
        <ele>127</ele>
        <time>2011-04-30T08:15:29Z</time>
      </trkpt>
      <trkpt lat="48.39852" lon="2.02978">
        <ele>127</ele>
        <time>2011-04-30T08:15:30Z</time>
      </trkpt>
      <trkpt lat="48.39854" lon="2.02979">
        <ele>127</ele>
        <time>2011-04-30T08:15:31Z</time>
      </trkpt>
      <trkpt lat="48.39857" lon="2.02979">
        <ele>127</ele>
        <time>2011-04-30T08:15:32Z</time>
      </trkpt>
      <trkpt lat="48.39859" lon="2.02979">
        <ele>127</ele>
        <time>2011-04-30T08:15:33Z</time>
      </trkpt>
      <trkpt lat="48.39861" lon="2.02979">
        <ele>127</ele>
        <time>2011-04-30T08:15:34Z</time>
      </trkpt>
      <trkpt lat="48.39863" lon="2.0298">
        <ele>127</ele>
        <time>2011-04-30T08:15:35Z</time>
      </trkpt>
      <trkpt lat="48.39864" lon="2.0298">
        <ele>126</ele>
        <time>2011-04-30T08:15:36Z</time>
      </trkpt>
      <trkpt lat="48.39866" lon="2.0298">
        <ele>126</ele>
        <time>2011-04-30T08:15:37Z</time>
      </trkpt>
      <trkpt lat="48.39867" lon="2.0298">
        <ele>126</ele>
        <time>2011-04-30T08:15:38Z</time>
      </trkpt>
      <trkpt lat="48.39869" lon="2.02981">
        <ele>126</ele>
        <time>2011-04-30T08:15:39Z</time>
      </trkpt>
      <trkpt lat="48.3987" lon="2.02981">
        <ele>126</ele>
        <time>2011-04-30T08:15:40Z</time>
      </trkpt>
      <trkpt lat="48.39872" lon="2.02982">
        <ele>126</ele>
        <time>2011-04-30T08:15:41Z</time>
      </trkpt>
      <trkpt lat="48.39874" lon="2.02983">
        <ele>126</ele>
        <time>2011-04-30T08:15:42Z</time>
      </trkpt>
      <trkpt lat="48.39876" lon="2.02983">
        <ele>126</ele>
        <time>2011-04-30T08:15:43Z</time>
      </trkpt>
      <trkpt lat="48.39878" lon="2.02983">
        <ele>126</ele>
        <time>2011-04-30T08:15:44Z</time>
      </trkpt>
      <trkpt lat="48.3988" lon="2.02984">
        <ele>125</ele>
        <time>2011-04-30T08:15:45Z</time>
      </trkpt>
      <trkpt lat="48.39881" lon="2.02984">
        <ele>125</ele>
        <time>2011-04-30T08:15:46Z</time>
      </trkpt>
      <trkpt lat="48.39883" lon="2.02985">
        <ele>125</ele>
        <time>2011-04-30T08:15:47Z</time>
      </trkpt>
      <trkpt lat="48.39884" lon="2.02986">
        <ele>125</ele>
        <time>2011-04-30T08:15:48Z</time>
      </trkpt>
      <trkpt lat="48.39886" lon="2.02986">
        <ele>125</ele>
        <time>2011-04-30T08:15:49Z</time>
      </trkpt>
      <trkpt lat="48.39888" lon="2.02987">
        <ele>125</ele>
        <time>2011-04-30T08:15:50Z</time>
      </trkpt>
      <trkpt lat="48.3989" lon="2.02987">
        <ele>124</ele>
        <time>2011-04-30T08:15:51Z</time>
      </trkpt>
      <trkpt lat="48.39892" lon="2.02987">
        <ele>124</ele>
        <time>2011-04-30T08:15:52Z</time>
      </trkpt>
      <trkpt lat="48.39894" lon="2.02986">
        <ele>124</ele>
        <time>2011-04-30T08:15:53Z</time>
      </trkpt>
      <trkpt lat="48.39896" lon="2.02986">
        <ele>124</ele>
        <time>2011-04-30T08:15:54Z</time>
      </trkpt>
      <trkpt lat="48.39898" lon="2.02985">
        <ele>124</ele>
        <time>2011-04-30T08:15:55Z</time>
      </trkpt>
      <trkpt lat="48.399" lon="2.02985">
        <ele>123</ele>
        <time>2011-04-30T08:15:56Z</time>
      </trkpt>
      <trkpt lat="48.39903" lon="2.02984">
        <ele>123</ele>
        <time>2011-04-30T08:15:57Z</time>
      </trkpt>
      <trkpt lat="48.39905" lon="2.02984">
        <ele>123</ele>
        <time>2011-04-30T08:15:58Z</time>
      </trkpt>
      <trkpt lat="48.39907" lon="2.02983">
        <ele>123</ele>
        <time>2011-04-30T08:15:59Z</time>
      </trkpt>
      <trkpt lat="48.39909" lon="2.02983">
        <ele>123</ele>
        <time>2011-04-30T08:16:00Z</time>
      </trkpt>
      <trkpt lat="48.39911" lon="2.02983">
        <ele>123</ele>
        <time>2011-04-30T08:16:01Z</time>
      </trkpt>
      <trkpt lat="48.39913" lon="2.02982">
        <ele>123</ele>
        <time>2011-04-30T08:16:02Z</time>
      </trkpt>
      <trkpt lat="48.39916" lon="2.02982">
        <ele>123</ele>
        <time>2011-04-30T08:16:03Z</time>
      </trkpt>
      <trkpt lat="48.39919" lon="2.02982">
        <ele>120</ele>
        <time>2011-04-30T08:16:04Z</time>
      </trkpt>
      <trkpt lat="48.39921" lon="2.02982">
        <ele>120</ele>
        <time>2011-04-30T08:16:05Z</time>
      </trkpt>
      <trkpt lat="48.39924" lon="2.02981">
        <ele>120</ele>
        <time>2011-04-30T08:16:06Z</time>
      </trkpt>
      <trkpt lat="48.39927" lon="2.02981">
        <ele>120</ele>
        <time>2011-04-30T08:16:07Z</time>
      </trkpt>
      <trkpt lat="48.3993" lon="2.0298">
        <ele>120</ele>
        <time>2011-04-30T08:16:08Z</time>
      </trkpt>
      <trkpt lat="48.39934" lon="2.02979">
        <ele>120</ele>
        <time>2011-04-30T08:16:09Z</time>
      </trkpt>
      <trkpt lat="48.39937" lon="2.02979">
        <ele>120</ele>
        <time>2011-04-30T08:16:10Z</time>
      </trkpt>
      <trkpt lat="48.3994" lon="2.02978">
        <ele>120</ele>
        <time>2011-04-30T08:16:11Z</time>
      </trkpt>
      <trkpt lat="48.39943" lon="2.02978">
        <ele>120</ele>
        <time>2011-04-30T08:16:12Z</time>
      </trkpt>
      <trkpt lat="48.39946" lon="2.02978">
        <ele>120</ele>
        <time>2011-04-30T08:16:13Z</time>
      </trkpt>
      <trkpt lat="48.39948" lon="2.02977">
        <ele>120</ele>
        <time>2011-04-30T08:16:14Z</time>
      </trkpt>
      <trkpt lat="48.39951" lon="2.02978">
        <ele>120</ele>
        <time>2011-04-30T08:16:15Z</time>
      </trkpt>
      <trkpt lat="48.39953" lon="2.02978">
        <ele>120</ele>
        <time>2011-04-30T08:16:16Z</time>
      </trkpt>
      <trkpt lat="48.39955" lon="2.02978">
        <ele>120</ele>
        <time>2011-04-30T08:16:17Z</time>
      </trkpt>
      <trkpt lat="48.39957" lon="2.02978">
        <ele>120</ele>
        <time>2011-04-30T08:16:18Z</time>
      </trkpt>
      <trkpt lat="48.3996" lon="2.02979">
        <ele>119</ele>
        <time>2011-04-30T08:16:19Z</time>
      </trkpt>
      <trkpt lat="48.39962" lon="2.02979">
        <ele>119</ele>
        <time>2011-04-30T08:16:20Z</time>
      </trkpt>
      <trkpt lat="48.39964" lon="2.0298">
        <ele>119</ele>
        <time>2011-04-30T08:16:21Z</time>
      </trkpt>
      <trkpt lat="48.39966" lon="2.02981">
        <ele>119</ele>
        <time>2011-04-30T08:16:22Z</time>
      </trkpt>
      <trkpt lat="48.39969" lon="2.02982">
        <ele>119</ele>
        <time>2011-04-30T08:16:23Z</time>
      </trkpt>
      <trkpt lat="48.39971" lon="2.02983">
        <ele>118</ele>
        <time>2011-04-30T08:16:24Z</time>
      </trkpt>
      <trkpt lat="48.39973" lon="2.02983">
        <ele>118</ele>
        <time>2011-04-30T08:16:25Z</time>
      </trkpt>
      <trkpt lat="48.39975" lon="2.02984">
        <ele>118</ele>
        <time>2011-04-30T08:16:26Z</time>
      </trkpt>
      <trkpt lat="48.39978" lon="2.02985">
        <ele>118</ele>
        <time>2011-04-30T08:16:27Z</time>
      </trkpt>
      <trkpt lat="48.3998" lon="2.02985">
        <ele>117</ele>
        <time>2011-04-30T08:16:28Z</time>
      </trkpt>
      <trkpt lat="48.39983" lon="2.02986">
        <ele>117</ele>
        <time>2011-04-30T08:16:29Z</time>
      </trkpt>
      <trkpt lat="48.39985" lon="2.02987">
        <ele>116</ele>
        <time>2011-04-30T08:16:30Z</time>
      </trkpt>
      <trkpt lat="48.39988" lon="2.02988">
        <ele>116</ele>
        <time>2011-04-30T08:16:31Z</time>
      </trkpt>
      <trkpt lat="48.3999" lon="2.0299">
        <ele>115</ele>
        <time>2011-04-30T08:16:32Z</time>
      </trkpt>
      <trkpt lat="48.39993" lon="2.02991">
        <ele>115</ele>
        <time>2011-04-30T08:16:33Z</time>
      </trkpt>
      <trkpt lat="48.39995" lon="2.02992">
        <ele>114</ele>
        <time>2011-04-30T08:16:34Z</time>
      </trkpt>
      <trkpt lat="48.39998" lon="2.02994">
        <ele>113</ele>
        <time>2011-04-30T08:16:35Z</time>
      </trkpt>
      <trkpt lat="48.40001" lon="2.02995">
        <ele>113</ele>
        <time>2011-04-30T08:16:36Z</time>
      </trkpt>
      <trkpt lat="48.40003" lon="2.02996">
        <ele>113</ele>
        <time>2011-04-30T08:16:37Z</time>
      </trkpt>
      <trkpt lat="48.40006" lon="2.02996">
        <ele>114</ele>
        <time>2011-04-30T08:16:38Z</time>
      </trkpt>
      <trkpt lat="48.4001" lon="2.02995">
        <ele>115</ele>
        <time>2011-04-30T08:16:39Z</time>
      </trkpt>
      <trkpt lat="48.40013" lon="2.02995">
        <ele>115</ele>
        <time>2011-04-30T08:16:40Z</time>
      </trkpt>
      <trkpt lat="48.40016" lon="2.02995">
        <ele>116</ele>
        <time>2011-04-30T08:16:41Z</time>
      </trkpt>
      <trkpt lat="48.40019" lon="2.02995">
        <ele>116</ele>
        <time>2011-04-30T08:16:42Z</time>
      </trkpt>
      <trkpt lat="48.40022" lon="2.02996">
        <ele>117</ele>
        <time>2011-04-30T08:16:43Z</time>
      </trkpt>
      <trkpt lat="48.40024" lon="2.02996">
        <ele>117</ele>
        <time>2011-04-30T08:16:44Z</time>
      </trkpt>
      <trkpt lat="48.40027" lon="2.02997">
        <ele>117</ele>
        <time>2011-04-30T08:16:45Z</time>
      </trkpt>
      <trkpt lat="48.4003" lon="2.02998">
        <ele>118</ele>
        <time>2011-04-30T08:16:46Z</time>
      </trkpt>
      <trkpt lat="48.40032" lon="2.02999">
        <ele>118</ele>
        <time>2011-04-30T08:16:47Z</time>
      </trkpt>
      <trkpt lat="48.40035" lon="2.03">
        <ele>110</ele>
        <time>2011-04-30T08:16:48Z</time>
      </trkpt>
      <trkpt lat="48.40037" lon="2.03002">
        <ele>110</ele>
        <time>2011-04-30T08:16:49Z</time>
      </trkpt>
      <trkpt lat="48.40039" lon="2.03003">
        <ele>110</ele>
        <time>2011-04-30T08:16:50Z</time>
      </trkpt>
      <trkpt lat="48.40041" lon="2.03004">
        <ele>110</ele>
        <time>2011-04-30T08:16:51Z</time>
      </trkpt>
      <trkpt lat="48.40044" lon="2.03005">
        <ele>110</ele>
        <time>2011-04-30T08:16:52Z</time>
      </trkpt>
      <trkpt lat="48.40046" lon="2.03007">
        <ele>110</ele>
        <time>2011-04-30T08:16:53Z</time>
      </trkpt>
      <trkpt lat="48.40048" lon="2.03008">
        <ele>110</ele>
        <time>2011-04-30T08:16:54Z</time>
      </trkpt>
      <trkpt lat="48.4005" lon="2.0301">
        <ele>110</ele>
        <time>2011-04-30T08:16:55Z</time>
      </trkpt>
      <trkpt lat="48.40051" lon="2.03011">
        <ele>110</ele>
        <time>2011-04-30T08:16:56Z</time>
      </trkpt>
      <trkpt lat="48.40054" lon="2.03013">
        <ele>111</ele>
        <time>2011-04-30T08:16:57Z</time>
      </trkpt>
      <trkpt lat="48.40056" lon="2.03014">
        <ele>111</ele>
        <time>2011-04-30T08:16:58Z</time>
      </trkpt>
      <trkpt lat="48.40058" lon="2.03016">
        <ele>111</ele>
        <time>2011-04-30T08:16:59Z</time>
      </trkpt>
      <trkpt lat="48.4006" lon="2.03018">
        <ele>111</ele>
        <time>2011-04-30T08:17:00Z</time>
      </trkpt>
      <trkpt lat="48.40062" lon="2.0302">
        <ele>111</ele>
        <time>2011-04-30T08:17:01Z</time>
      </trkpt>
      <trkpt lat="48.40064" lon="2.03022">
        <ele>111</ele>
        <time>2011-04-30T08:17:02Z</time>
      </trkpt>
      <trkpt lat="48.40066" lon="2.03024">
        <ele>110</ele>
        <time>2011-04-30T08:17:03Z</time>
      </trkpt>
      <trkpt lat="48.40068" lon="2.03027">
        <ele>110</ele>
        <time>2011-04-30T08:17:04Z</time>
      </trkpt>
      <trkpt lat="48.4007" lon="2.03029">
        <ele>110</ele>
        <time>2011-04-30T08:17:05Z</time>
      </trkpt>
      <trkpt lat="48.40072" lon="2.03031">
        <ele>110</ele>
        <time>2011-04-30T08:17:06Z</time>
      </trkpt>
      <trkpt lat="48.40074" lon="2.03033">
        <ele>110</ele>
        <time>2011-04-30T08:17:07Z</time>
      </trkpt>
      <trkpt lat="48.40076" lon="2.03035">
        <ele>109</ele>
        <time>2011-04-30T08:17:08Z</time>
      </trkpt>
      <trkpt lat="48.40077" lon="2.03037">
        <ele>109</ele>
        <time>2011-04-30T08:17:09Z</time>
      </trkpt>
      <trkpt lat="48.40079" lon="2.03039">
        <ele>109</ele>
        <time>2011-04-30T08:17:10Z</time>
      </trkpt>
      <trkpt lat="48.40081" lon="2.03041">
        <ele>108</ele>
        <time>2011-04-30T08:17:11Z</time>
      </trkpt>
      <trkpt lat="48.40083" lon="2.03044">
        <ele>108</ele>
        <time>2011-04-30T08:17:12Z</time>
      </trkpt>
      <trkpt lat="48.40085" lon="2.03046">
        <ele>113</ele>
        <time>2011-04-30T08:17:13Z</time>
      </trkpt>
      <trkpt lat="48.40087" lon="2.03049">
        <ele>112</ele>
        <time>2011-04-30T08:17:14Z</time>
      </trkpt>
      <trkpt lat="48.40089" lon="2.03052">
        <ele>112</ele>
        <time>2011-04-30T08:17:15Z</time>
      </trkpt>
      <trkpt lat="48.40091" lon="2.03054">
        <ele>112</ele>
        <time>2011-04-30T08:17:16Z</time>
      </trkpt>
      <trkpt lat="48.40093" lon="2.03057">
        <ele>111</ele>
        <time>2011-04-30T08:17:17Z</time>
      </trkpt>
      <trkpt lat="48.40096" lon="2.03059">
        <ele>111</ele>
        <time>2011-04-30T08:17:18Z</time>
      </trkpt>
      <trkpt lat="48.40098" lon="2.03062">
        <ele>111</ele>
        <time>2011-04-30T08:17:19Z</time>
      </trkpt>
      <trkpt lat="48.401" lon="2.03064">
        <ele>111</ele>
        <time>2011-04-30T08:17:20Z</time>
      </trkpt>
      <trkpt lat="48.40102" lon="2.03066">
        <ele>111</ele>
        <time>2011-04-30T08:17:21Z</time>
      </trkpt>
      <trkpt lat="48.40103" lon="2.03069">
        <ele>110</ele>
        <time>2011-04-30T08:17:22Z</time>
      </trkpt>
      <trkpt lat="48.40105" lon="2.03071">
        <ele>110</ele>
        <time>2011-04-30T08:17:23Z</time>
      </trkpt>
      <trkpt lat="48.40106" lon="2.03073">
        <ele>110</ele>
        <time>2011-04-30T08:17:24Z</time>
      </trkpt>
      <trkpt lat="48.40108" lon="2.03075">
        <ele>111</ele>
        <time>2011-04-30T08:17:25Z</time>
      </trkpt>
      <trkpt lat="48.4011" lon="2.03077">
        <ele>111</ele>
        <time>2011-04-30T08:17:26Z</time>
      </trkpt>
      <trkpt lat="48.40113" lon="2.03078">
        <ele>111</ele>
        <time>2011-04-30T08:17:27Z</time>
      </trkpt>
      <trkpt lat="48.40117" lon="2.03079">
        <ele>112</ele>
        <time>2011-04-30T08:17:28Z</time>
      </trkpt>
      <trkpt lat="48.40121" lon="2.03081">
        <ele>112</ele>
        <time>2011-04-30T08:17:29Z</time>
      </trkpt>
      <trkpt lat="48.40124" lon="2.03082">
        <ele>112</ele>
        <time>2011-04-30T08:17:30Z</time>
      </trkpt>
      <trkpt lat="48.40128" lon="2.03084">
        <ele>104</ele>
        <time>2011-04-30T08:17:31Z</time>
      </trkpt>
      <trkpt lat="48.40131" lon="2.03086">
        <ele>105</ele>
        <time>2011-04-30T08:17:32Z</time>
      </trkpt>
      <trkpt lat="48.40134" lon="2.03087">
        <ele>105</ele>
        <time>2011-04-30T08:17:33Z</time>
      </trkpt>
      <trkpt lat="48.40137" lon="2.03091">
        <ele>105</ele>
        <time>2011-04-30T08:17:34Z</time>
      </trkpt>
      <trkpt lat="48.40138" lon="2.03092">
        <ele>105</ele>
        <time>2011-04-30T08:17:35Z</time>
      </trkpt>
      <trkpt lat="48.4014" lon="2.03093">
        <ele>105</ele>
        <time>2011-04-30T08:17:36Z</time>
      </trkpt>
      <trkpt lat="48.40141" lon="2.03094">
        <ele>105</ele>
        <time>2011-04-30T08:17:37Z</time>
      </trkpt>
      <trkpt lat="48.40142" lon="2.03095">
        <ele>105</ele>
        <time>2011-04-30T08:17:38Z</time>
      </trkpt>
      <trkpt lat="48.40142" lon="2.03096">
        <ele>105</ele>
        <time>2011-04-30T08:17:39Z</time>
      </trkpt>
      <trkpt lat="48.40143" lon="2.03096">
        <ele>105</ele>
        <time>2011-04-30T08:17:40Z</time>
      </trkpt>
      <trkpt lat="48.40143" lon="2.03097">
        <ele>105</ele>
        <time>2011-04-30T08:17:41Z</time>
      </trkpt>
      <trkpt lat="48.40144" lon="2.03098">
        <ele>105</ele>
        <time>2011-04-30T08:17:42Z</time>
      </trkpt>
      <trkpt lat="48.40145" lon="2.03099">
        <ele>105</ele>
        <time>2011-04-30T08:17:43Z</time>
      </trkpt>
      <trkpt lat="48.40146" lon="2.031">
        <ele>105</ele>
        <time>2011-04-30T08:17:44Z</time>
      </trkpt>
      <trkpt lat="48.40147" lon="2.03101">
        <ele>105</ele>
        <time>2011-04-30T08:17:45Z</time>
      </trkpt>
      <trkpt lat="48.40148" lon="2.03102">
        <ele>105</ele>
        <time>2011-04-30T08:17:46Z</time>
      </trkpt>
      <trkpt lat="48.40148" lon="2.03103">
        <ele>105</ele>
        <time>2011-04-30T08:17:47Z</time>
      </trkpt>
      <trkpt lat="48.40149" lon="2.03104">
        <ele>105</ele>
        <time>2011-04-30T08:17:48Z</time>
      </trkpt>
      <trkpt lat="48.4015" lon="2.03104">
        <ele>105</ele>
        <time>2011-04-30T08:17:49Z</time>
      </trkpt>
      <trkpt lat="48.40151" lon="2.03105">
        <ele>105</ele>
        <time>2011-04-30T08:17:50Z</time>
      </trkpt>
      <trkpt lat="48.40152" lon="2.03105">
        <ele>105</ele>
        <time>2011-04-30T08:17:51Z</time>
      </trkpt>
      <trkpt lat="48.40153" lon="2.03106">
        <ele>105</ele>
        <time>2011-04-30T08:17:52Z</time>
      </trkpt>
      <trkpt lat="48.40154" lon="2.03106">
        <ele>105</ele>
        <time>2011-04-30T08:17:53Z</time>
      </trkpt>
      <trkpt lat="48.40154" lon="2.03107">
        <ele>105</ele>
        <time>2011-04-30T08:17:54Z</time>
      </trkpt>
      <trkpt lat="48.40155" lon="2.03108">
        <ele>105</ele>
        <time>2011-04-30T08:17:55Z</time>
      </trkpt>
      <trkpt lat="48.40156" lon="2.03109">
        <ele>105</ele>
        <time>2011-04-30T08:17:56Z</time>
      </trkpt>
      <trkpt lat="48.40157" lon="2.0311">
        <ele>105</ele>
        <time>2011-04-30T08:17:57Z</time>
      </trkpt>
      <trkpt lat="48.40157" lon="2.0311">
        <ele>105</ele>
        <time>2011-04-30T08:17:58Z</time>
      </trkpt>
      <trkpt lat="48.40158" lon="2.03111">
        <ele>105</ele>
        <time>2011-04-30T08:17:59Z</time>
      </trkpt>
      <trkpt lat="48.40159" lon="2.03112">
        <ele>105</ele>
        <time>2011-04-30T08:18:00Z</time>
      </trkpt>
      <trkpt lat="48.4016" lon="2.03112">
        <ele>105</ele>
        <time>2011-04-30T08:18:01Z</time>
      </trkpt>
      <trkpt lat="48.4016" lon="2.03113">
        <ele>105</ele>
        <time>2011-04-30T08:18:02Z</time>
      </trkpt>
      <trkpt lat="48.40161" lon="2.03114">
        <ele>105</ele>
        <time>2011-04-30T08:18:03Z</time>
      </trkpt>
      <trkpt lat="48.40162" lon="2.03114">
        <ele>105</ele>
        <time>2011-04-30T08:18:04Z</time>
      </trkpt>
      <trkpt lat="48.40163" lon="2.03115">
        <ele>104</ele>
        <time>2011-04-30T08:18:05Z</time>
      </trkpt>
      <trkpt lat="48.40163" lon="2.03116">
        <ele>104</ele>
        <time>2011-04-30T08:18:06Z</time>
      </trkpt>
      <trkpt lat="48.40164" lon="2.03117">
        <ele>104</ele>
        <time>2011-04-30T08:18:07Z</time>
      </trkpt>
      <trkpt lat="48.40165" lon="2.03118">
        <ele>104</ele>
        <time>2011-04-30T08:18:08Z</time>
      </trkpt>
      <trkpt lat="48.40166" lon="2.03119">
        <ele>104</ele>
        <time>2011-04-30T08:18:09Z</time>
      </trkpt>
      <trkpt lat="48.40168" lon="2.03121">
        <ele>110</ele>
        <time>2011-04-30T08:18:10Z</time>
      </trkpt>
      <trkpt lat="48.4017" lon="2.03123">
        <ele>110</ele>
        <time>2011-04-30T08:18:11Z</time>
      </trkpt>
      <trkpt lat="48.40171" lon="2.03125">
        <ele>110</ele>
        <time>2011-04-30T08:18:12Z</time>
      </trkpt>
      <trkpt lat="48.40173" lon="2.03127">
        <ele>110</ele>
        <time>2011-04-30T08:18:13Z</time>
      </trkpt>
      <trkpt lat="48.40175" lon="2.03129">
        <ele>109</ele>
        <time>2011-04-30T08:18:14Z</time>
      </trkpt>
      <trkpt lat="48.40176" lon="2.0313">
        <ele>109</ele>
        <time>2011-04-30T08:18:15Z</time>
      </trkpt>
      <trkpt lat="48.40178" lon="2.03132">
        <ele>109</ele>
        <time>2011-04-30T08:18:16Z</time>
      </trkpt>
      <trkpt lat="48.40179" lon="2.03134">
        <ele>109</ele>
        <time>2011-04-30T08:18:17Z</time>
      </trkpt>
      <trkpt lat="48.40181" lon="2.03136">
        <ele>109</ele>
        <time>2011-04-30T08:18:18Z</time>
      </trkpt>
      <trkpt lat="48.40182" lon="2.03137">
        <ele>109</ele>
        <time>2011-04-30T08:18:19Z</time>
      </trkpt>
      <trkpt lat="48.40184" lon="2.03139">
        <ele>109</ele>
        <time>2011-04-30T08:18:20Z</time>
      </trkpt>
      <trkpt lat="48.40186" lon="2.0314">
        <ele>109</ele>
        <time>2011-04-30T08:18:21Z</time>
      </trkpt>
      <trkpt lat="48.40188" lon="2.03142">
        <ele>109</ele>
        <time>2011-04-30T08:18:22Z</time>
      </trkpt>
      <trkpt lat="48.40189" lon="2.03144">
        <ele>109</ele>
        <time>2011-04-30T08:18:23Z</time>
      </trkpt>
      <trkpt lat="48.40191" lon="2.03146">
        <ele>109</ele>
        <time>2011-04-30T08:18:24Z</time>
      </trkpt>
      <trkpt lat="48.40193" lon="2.03147">
        <ele>109</ele>
        <time>2011-04-30T08:18:25Z</time>
      </trkpt>
      <trkpt lat="48.40195" lon="2.03149">
        <ele>109</ele>
        <time>2011-04-30T08:18:26Z</time>
      </trkpt>
      <trkpt lat="48.40198" lon="2.03151">
        <ele>109</ele>
        <time>2011-04-30T08:18:27Z</time>
      </trkpt>
      <trkpt lat="48.402" lon="2.03153">
        <ele>109</ele>
        <time>2011-04-30T08:18:28Z</time>
      </trkpt>
      <trkpt lat="48.40201" lon="2.03155">
        <ele>109</ele>
        <time>2011-04-30T08:18:29Z</time>
      </trkpt>
      <trkpt lat="48.40203" lon="2.03158">
        <ele>109</ele>
        <time>2011-04-30T08:18:30Z</time>
      </trkpt>
      <trkpt lat="48.40205" lon="2.0316">
        <ele>109</ele>
        <time>2011-04-30T08:18:31Z</time>
      </trkpt>
      <trkpt lat="48.40207" lon="2.03163">
        <ele>109</ele>
        <time>2011-04-30T08:18:32Z</time>
      </trkpt>
      <trkpt lat="48.40209" lon="2.03165">
        <ele>110</ele>
        <time>2011-04-30T08:18:33Z</time>
      </trkpt>
      <trkpt lat="48.40211" lon="2.03167">
        <ele>103</ele>
        <time>2011-04-30T08:18:34Z</time>
      </trkpt>
      <trkpt lat="48.40213" lon="2.03169">
        <ele>103</ele>
        <time>2011-04-30T08:18:35Z</time>
      </trkpt>
      <trkpt lat="48.40214" lon="2.03172">
        <ele>103</ele>
        <time>2011-04-30T08:18:36Z</time>
      </trkpt>
      <trkpt lat="48.40216" lon="2.03174">
        <ele>104</ele>
        <time>2011-04-30T08:18:37Z</time>
      </trkpt>
      <trkpt lat="48.40218" lon="2.03176">
        <ele>104</ele>
        <time>2011-04-30T08:18:38Z</time>
      </trkpt>
      <trkpt lat="48.4022" lon="2.03178">
        <ele>104</ele>
        <time>2011-04-30T08:18:39Z</time>
      </trkpt>
      <trkpt lat="48.40221" lon="2.0318">
        <ele>104</ele>
        <time>2011-04-30T08:18:40Z</time>
      </trkpt>
      <trkpt lat="48.40223" lon="2.03182">
        <ele>104</ele>
        <time>2011-04-30T08:18:41Z</time>
      </trkpt>
      <trkpt lat="48.40225" lon="2.03184">
        <ele>104</ele>
        <time>2011-04-30T08:18:42Z</time>
      </trkpt>
      <trkpt lat="48.40227" lon="2.03186">
        <ele>104</ele>
        <time>2011-04-30T08:18:43Z</time>
      </trkpt>
      <trkpt lat="48.40229" lon="2.03188">
        <ele>104</ele>
        <time>2011-04-30T08:18:44Z</time>
      </trkpt>
      <trkpt lat="48.4023" lon="2.03191">
        <ele>104</ele>
        <time>2011-04-30T08:18:45Z</time>
      </trkpt>
      <trkpt lat="48.40232" lon="2.03193">
        <ele>104</ele>
        <time>2011-04-30T08:18:46Z</time>
      </trkpt>
      <trkpt lat="48.40234" lon="2.03196">
        <ele>104</ele>
        <time>2011-04-30T08:18:47Z</time>
      </trkpt>
      <trkpt lat="48.40236" lon="2.03198">
        <ele>104</ele>
        <time>2011-04-30T08:18:48Z</time>
      </trkpt>
      <trkpt lat="48.40238" lon="2.032">
        <ele>104</ele>
        <time>2011-04-30T08:18:49Z</time>
      </trkpt>
      <trkpt lat="48.4024" lon="2.03203">
        <ele>104</ele>
        <time>2011-04-30T08:18:50Z</time>
      </trkpt>
      <trkpt lat="48.40241" lon="2.03205">
        <ele>104</ele>
        <time>2011-04-30T08:18:51Z</time>
      </trkpt>
      <trkpt lat="48.40243" lon="2.03208">
        <ele>103</ele>
        <time>2011-04-30T08:18:52Z</time>
      </trkpt>
      <trkpt lat="48.40245" lon="2.0321">
        <ele>103</ele>
        <time>2011-04-30T08:18:53Z</time>
      </trkpt>
      <trkpt lat="48.40247" lon="2.03212">
        <ele>103</ele>
        <time>2011-04-30T08:18:54Z</time>
      </trkpt>
      <trkpt lat="48.40249" lon="2.03214">
        <ele>103</ele>
        <time>2011-04-30T08:18:55Z</time>
      </trkpt>
      <trkpt lat="48.40252" lon="2.03217">
        <ele>112</ele>
        <time>2011-04-30T08:18:56Z</time>
      </trkpt>
      <trkpt lat="48.40254" lon="2.03219">
        <ele>112</ele>
        <time>2011-04-30T08:18:57Z</time>
      </trkpt>
      <trkpt lat="48.40256" lon="2.03221">
        <ele>112</ele>
        <time>2011-04-30T08:18:58Z</time>
      </trkpt>
      <trkpt lat="48.40258" lon="2.03223">
        <ele>112</ele>
        <time>2011-04-30T08:18:59Z</time>
      </trkpt>
      <trkpt lat="48.4026" lon="2.03225">
        <ele>112</ele>
        <time>2011-04-30T08:19:00Z</time>
      </trkpt>
      <trkpt lat="48.40262" lon="2.03227">
        <ele>111</ele>
        <time>2011-04-30T08:19:01Z</time>
      </trkpt>
      <trkpt lat="48.40263" lon="2.03229">
        <ele>111</ele>
        <time>2011-04-30T08:19:02Z</time>
      </trkpt>
      <trkpt lat="48.40265" lon="2.0323">
        <ele>111</ele>
        <time>2011-04-30T08:19:03Z</time>
      </trkpt>
      <trkpt lat="48.40267" lon="2.03232">
        <ele>112</ele>
        <time>2011-04-30T08:19:04Z</time>
      </trkpt>
      <trkpt lat="48.40269" lon="2.03234">
        <ele>112</ele>
        <time>2011-04-30T08:19:05Z</time>
      </trkpt>
      <trkpt lat="48.40271" lon="2.03235">
        <ele>112</ele>
        <time>2011-04-30T08:19:06Z</time>
      </trkpt>
      <trkpt lat="48.40272" lon="2.03237">
        <ele>112</ele>
        <time>2011-04-30T08:19:07Z</time>
      </trkpt>
      <trkpt lat="48.40274" lon="2.03239">
        <ele>112</ele>
        <time>2011-04-30T08:19:08Z</time>
      </trkpt>
      <trkpt lat="48.40276" lon="2.0324">
        <ele>112</ele>
        <time>2011-04-30T08:19:09Z</time>
      </trkpt>
      <trkpt lat="48.40278" lon="2.03242">
        <ele>113</ele>
        <time>2011-04-30T08:19:10Z</time>
      </trkpt>
      <trkpt lat="48.40279" lon="2.03243">
        <ele>113</ele>
        <time>2011-04-30T08:19:11Z</time>
      </trkpt>
      <trkpt lat="48.40281" lon="2.03245">
        <ele>113</ele>
        <time>2011-04-30T08:19:12Z</time>
      </trkpt>
      <trkpt lat="48.40283" lon="2.03247">
        <ele>114</ele>
        <time>2011-04-30T08:19:13Z</time>
      </trkpt>
      <trkpt lat="48.40285" lon="2.03249">
        <ele>114</ele>
        <time>2011-04-30T08:19:14Z</time>
      </trkpt>
      <trkpt lat="48.40287" lon="2.03251">
        <ele>109</ele>
        <time>2011-04-30T08:19:15Z</time>
      </trkpt>
      <trkpt lat="48.40288" lon="2.03253">
        <ele>110</ele>
        <time>2011-04-30T08:19:16Z</time>
      </trkpt>
      <trkpt lat="48.4029" lon="2.03256">
        <ele>110</ele>
        <time>2011-04-30T08:19:17Z</time>
      </trkpt>
      <trkpt lat="48.40292" lon="2.03259">
        <ele>110</ele>
        <time>2011-04-30T08:19:18Z</time>
      </trkpt>
      <trkpt lat="48.40294" lon="2.03262">
        <ele>110</ele>
        <time>2011-04-30T08:19:19Z</time>
      </trkpt>
      <trkpt lat="48.40296" lon="2.03266">
        <ele>110</ele>
        <time>2011-04-30T08:19:20Z</time>
      </trkpt>
      <trkpt lat="48.40298" lon="2.03269">
        <ele>111</ele>
        <time>2011-04-30T08:19:21Z</time>
      </trkpt>
      <trkpt lat="48.40299" lon="2.03273">
        <ele>111</ele>
        <time>2011-04-30T08:19:22Z</time>
      </trkpt>
      <trkpt lat="48.403" lon="2.03277">
        <ele>110</ele>
        <time>2011-04-30T08:19:23Z</time>
      </trkpt>
      <trkpt lat="48.40301" lon="2.03281">
        <ele>110</ele>
        <time>2011-04-30T08:19:24Z</time>
      </trkpt>
      <trkpt lat="48.40302" lon="2.03284">
        <ele>110</ele>
        <time>2011-04-30T08:19:25Z</time>
      </trkpt>
      <trkpt lat="48.40303" lon="2.03287">
        <ele>110</ele>
        <time>2011-04-30T08:19:26Z</time>
      </trkpt>
      <trkpt lat="48.40304" lon="2.0329">
        <ele>110</ele>
        <time>2011-04-30T08:19:27Z</time>
      </trkpt>
      <trkpt lat="48.40305" lon="2.03292">
        <ele>110</ele>
        <time>2011-04-30T08:19:28Z</time>
      </trkpt>
      <trkpt lat="48.40306" lon="2.03295">
        <ele>110</ele>
        <time>2011-04-30T08:19:29Z</time>
      </trkpt>
      <trkpt lat="48.40308" lon="2.03298">
        <ele>110</ele>
        <time>2011-04-30T08:19:30Z</time>
      </trkpt>
      <trkpt lat="48.40309" lon="2.03301">
        <ele>110</ele>
        <time>2011-04-30T08:19:31Z</time>
      </trkpt>
      <trkpt lat="48.4031" lon="2.03303">
        <ele>110</ele>
        <time>2011-04-30T08:19:32Z</time>
      </trkpt>
      <trkpt lat="48.40311" lon="2.03306">
        <ele>110</ele>
        <time>2011-04-30T08:19:33Z</time>
      </trkpt>
      <trkpt lat="48.40312" lon="2.03309">
        <ele>110</ele>
        <time>2011-04-30T08:19:34Z</time>
      </trkpt>
      <trkpt lat="48.40313" lon="2.03313">
        <ele>109</ele>
        <time>2011-04-30T08:19:35Z</time>
      </trkpt>
      <trkpt lat="48.40314" lon="2.03315">
        <ele>109</ele>
        <time>2011-04-30T08:19:36Z</time>
      </trkpt>
      <trkpt lat="48.40315" lon="2.03318">
        <ele>109</ele>
        <time>2011-04-30T08:19:37Z</time>
      </trkpt>
      <trkpt lat="48.40316" lon="2.03321">
        <ele>109</ele>
        <time>2011-04-30T08:19:38Z</time>
      </trkpt>
      <trkpt lat="48.40317" lon="2.03324">
        <ele>109</ele>
        <time>2011-04-30T08:19:39Z</time>
      </trkpt>
      <trkpt lat="48.40318" lon="2.03327">
        <ele>109</ele>
        <time>2011-04-30T08:19:40Z</time>
      </trkpt>
      <trkpt lat="48.40319" lon="2.0333">
        <ele>109</ele>
        <time>2011-04-30T08:19:41Z</time>
      </trkpt>
      <trkpt lat="48.4032" lon="2.03333">
        <ele>109</ele>
        <time>2011-04-30T08:19:42Z</time>
      </trkpt>
      <trkpt lat="48.40321" lon="2.03336">
        <ele>107</ele>
        <time>2011-04-30T08:19:43Z</time>
      </trkpt>
      <trkpt lat="48.40323" lon="2.03339">
        <ele>107</ele>
        <time>2011-04-30T08:19:44Z</time>
      </trkpt>
      <trkpt lat="48.40325" lon="2.03342">
        <ele>107</ele>
        <time>2011-04-30T08:19:45Z</time>
      </trkpt>
      <trkpt lat="48.40327" lon="2.03345">
        <ele>107</ele>
        <time>2011-04-30T08:19:46Z</time>
      </trkpt>
      <trkpt lat="48.40329" lon="2.03348">
        <ele>106</ele>
        <time>2011-04-30T08:19:47Z</time>
      </trkpt>
      <trkpt lat="48.40332" lon="2.03351">
        <ele>106</ele>
        <time>2011-04-30T08:19:48Z</time>
      </trkpt>
      <trkpt lat="48.40334" lon="2.03354">
        <ele>112</ele>
        <time>2011-04-30T08:19:49Z</time>
      </trkpt>
      <trkpt lat="48.40337" lon="2.03357">
        <ele>112</ele>
        <time>2011-04-30T08:19:50Z</time>
      </trkpt>
      <trkpt lat="48.40339" lon="2.0336">
        <ele>112</ele>
        <time>2011-04-30T08:19:51Z</time>
      </trkpt>
      <trkpt lat="48.40342" lon="2.03364">
        <ele>112</ele>
        <time>2011-04-30T08:19:52Z</time>
      </trkpt>
      <trkpt lat="48.40344" lon="2.03367">
        <ele>112</ele>
        <time>2011-04-30T08:19:53Z</time>
      </trkpt>
      <trkpt lat="48.40346" lon="2.0337">
        <ele>112</ele>
        <time>2011-04-30T08:19:54Z</time>
      </trkpt>
      <trkpt lat="48.40348" lon="2.03373">
        <ele>112</ele>
        <time>2011-04-30T08:19:55Z</time>
      </trkpt>
      <trkpt lat="48.4035" lon="2.03376">
        <ele>112</ele>
        <time>2011-04-30T08:19:56Z</time>
      </trkpt>
      <trkpt lat="48.40352" lon="2.03379">
        <ele>112</ele>
        <time>2011-04-30T08:19:57Z</time>
      </trkpt>
      <trkpt lat="48.40354" lon="2.03382">
        <ele>112</ele>
        <time>2011-04-30T08:19:58Z</time>
      </trkpt>
      <trkpt lat="48.40355" lon="2.03385">
        <ele>111</ele>
        <time>2011-04-30T08:19:59Z</time>
      </trkpt>
      <trkpt lat="48.40357" lon="2.03388">
        <ele>111</ele>
        <time>2011-04-30T08:20:00Z</time>
      </trkpt>
      <trkpt lat="48.40359" lon="2.03391">
        <ele>111</ele>
        <time>2011-04-30T08:20:01Z</time>
      </trkpt>
      <trkpt lat="48.40361" lon="2.03394">
        <ele>111</ele>
        <time>2011-04-30T08:20:02Z</time>
      </trkpt>
      <trkpt lat="48.40362" lon="2.03397">
        <ele>111</ele>
        <time>2011-04-30T08:20:03Z</time>
      </trkpt>
      <trkpt lat="48.40364" lon="2.034">
        <ele>111</ele>
        <time>2011-04-30T08:20:04Z</time>
      </trkpt>
      <trkpt lat="48.40365" lon="2.03403">
        <ele>111</ele>
        <time>2011-04-30T08:20:05Z</time>
      </trkpt>
      <trkpt lat="48.40367" lon="2.03406">
        <ele>111</ele>
        <time>2011-04-30T08:20:06Z</time>
      </trkpt>
      <trkpt lat="48.40368" lon="2.0341">
        <ele>111</ele>
        <time>2011-04-30T08:20:07Z</time>
      </trkpt>
      <trkpt lat="48.4037" lon="2.03413">
        <ele>111</ele>
        <time>2011-04-30T08:20:08Z</time>
      </trkpt>
      <trkpt lat="48.40371" lon="2.03416">
        <ele>112</ele>
        <time>2011-04-30T08:20:09Z</time>
      </trkpt>
      <trkpt lat="48.40372" lon="2.03419">
        <ele>106</ele>
        <time>2011-04-30T08:20:10Z</time>
      </trkpt>
      <trkpt lat="48.40373" lon="2.03422">
        <ele>106</ele>
        <time>2011-04-30T08:20:11Z</time>
      </trkpt>
      <trkpt lat="48.40374" lon="2.03425">
        <ele>106</ele>
        <time>2011-04-30T08:20:12Z</time>
      </trkpt>
      <trkpt lat="48.40376" lon="2.03428">
        <ele>106</ele>
        <time>2011-04-30T08:20:13Z</time>
      </trkpt>
      <trkpt lat="48.40377" lon="2.03431">
        <ele>106</ele>
        <time>2011-04-30T08:20:14Z</time>
      </trkpt>
      <trkpt lat="48.40378" lon="2.03434">
        <ele>106</ele>
        <time>2011-04-30T08:20:15Z</time>
      </trkpt>
      <trkpt lat="48.4038" lon="2.03436">
        <ele>106</ele>
        <time>2011-04-30T08:20:16Z</time>
      </trkpt>
      <trkpt lat="48.40558" lon="2.03795">
        <ele>107</ele>
        <time>2011-04-30T08:22:19Z</time>
      </trkpt>
      <trkpt lat="48.4056" lon="2.03796">
        <ele>107</ele>
        <time>2011-04-30T08:22:20Z</time>
      </trkpt>
      <trkpt lat="48.40562" lon="2.03797">
        <ele>107</ele>
        <time>2011-04-30T08:22:21Z</time>
      </trkpt>
      <trkpt lat="48.40565" lon="2.03798">
        <ele>107</ele>
        <time>2011-04-30T08:22:22Z</time>
      </trkpt>
      <trkpt lat="48.40567" lon="2.03799">
        <ele>106</ele>
        <time>2011-04-30T08:22:23Z</time>
      </trkpt>
      <trkpt lat="48.40569" lon="2.038">
        <ele>106</ele>
        <time>2011-04-30T08:22:24Z</time>
      </trkpt>
      <trkpt lat="48.40571" lon="2.038">
        <ele>106</ele>
        <time>2011-04-30T08:22:25Z</time>
      </trkpt>
      <trkpt lat="48.40573" lon="2.03801">
        <ele>106</ele>
        <time>2011-04-30T08:22:26Z</time>
      </trkpt>
      <trkpt lat="48.40575" lon="2.03802">
        <ele>106</ele>
        <time>2011-04-30T08:22:27Z</time>
      </trkpt>
      <trkpt lat="48.40577" lon="2.03803">
        <ele>106</ele>
        <time>2011-04-30T08:22:28Z</time>
      </trkpt>
      <trkpt lat="48.40579" lon="2.03804">
        <ele>106</ele>
        <time>2011-04-30T08:22:29Z</time>
      </trkpt>
      <trkpt lat="48.40581" lon="2.03805">
        <ele>106</ele>
        <time>2011-04-30T08:22:30Z</time>
      </trkpt>
      <trkpt lat="48.40583" lon="2.03806">
        <ele>106</ele>
        <time>2011-04-30T08:22:31Z</time>
      </trkpt>
      <trkpt lat="48.40585" lon="2.03807">
        <ele>109</ele>
        <time>2011-04-30T08:22:32Z</time>
      </trkpt>
      <trkpt lat="48.40588" lon="2.03808">
        <ele>109</ele>
        <time>2011-04-30T08:22:33Z</time>
      </trkpt>
      <trkpt lat="48.40589" lon="2.03809">
        <ele>109</ele>
        <time>2011-04-30T08:22:34Z</time>
      </trkpt>
      <trkpt lat="48.40592" lon="2.0381">
        <ele>109</ele>
        <time>2011-04-30T08:22:35Z</time>
      </trkpt>
      <trkpt lat="48.40594" lon="2.03811">
        <ele>109</ele>
        <time>2011-04-30T08:22:36Z</time>
      </trkpt>
      <trkpt lat="48.40596" lon="2.03812">
        <ele>109</ele>
        <time>2011-04-30T08:22:37Z</time>
      </trkpt>
      <trkpt lat="48.40599" lon="2.03812">
        <ele>109</ele>
        <time>2011-04-30T08:22:38Z</time>
      </trkpt>
      <trkpt lat="48.40601" lon="2.03812">
        <ele>109</ele>
        <time>2011-04-30T08:22:39Z</time>
      </trkpt>
      <trkpt lat="48.40604" lon="2.03812">
        <ele>109</ele>
        <time>2011-04-30T08:22:40Z</time>
      </trkpt>
      <trkpt lat="48.40607" lon="2.03812">
        <ele>109</ele>
        <time>2011-04-30T08:22:41Z</time>
      </trkpt>
      <trkpt lat="48.40609" lon="2.03812">
        <ele>110</ele>
        <time>2011-04-30T08:22:42Z</time>
      </trkpt>
      <trkpt lat="48.40611" lon="2.03812">
        <ele>110</ele>
        <time>2011-04-30T08:22:43Z</time>
      </trkpt>
      <trkpt lat="48.40613" lon="2.03813">
        <ele>110</ele>
        <time>2011-04-30T08:22:44Z</time>
      </trkpt>
      <trkpt lat="48.40615" lon="2.03813">
        <ele>110</ele>
        <time>2011-04-30T08:22:45Z</time>
      </trkpt>
      <trkpt lat="48.40617" lon="2.03813">
        <ele>110</ele>
        <time>2011-04-30T08:22:46Z</time>
      </trkpt>
      <trkpt lat="48.4062" lon="2.03814">
        <ele>110</ele>
        <time>2011-04-30T08:22:47Z</time>
      </trkpt>
      <trkpt lat="48.40622" lon="2.03815">
        <ele>110</ele>
        <time>2011-04-30T08:22:48Z</time>
      </trkpt>
      <trkpt lat="48.40625" lon="2.03816">
        <ele>110</ele>
        <time>2011-04-30T08:22:49Z</time>
      </trkpt>
      <trkpt lat="48.40628" lon="2.03816">
        <ele>110</ele>
        <time>2011-04-30T08:22:50Z</time>
      </trkpt>
      <trkpt lat="48.40631" lon="2.03817">
        <ele>110</ele>
        <time>2011-04-30T08:22:51Z</time>
      </trkpt>
      <trkpt lat="48.40633" lon="2.03817">
        <ele>110</ele>
        <time>2011-04-30T08:22:52Z</time>
      </trkpt>
      <trkpt lat="48.40636" lon="2.03818">
        <ele>110</ele>
        <time>2011-04-30T08:22:53Z</time>
      </trkpt>
      <trkpt lat="48.40638" lon="2.03819">
        <ele>110</ele>
        <time>2011-04-30T08:22:54Z</time>
      </trkpt>
      <trkpt lat="48.40641" lon="2.0382">
        <ele>109</ele>
        <time>2011-04-30T08:22:55Z</time>
      </trkpt>
      <trkpt lat="48.40644" lon="2.03822">
        <ele>109</ele>
        <time>2011-04-30T08:22:56Z</time>
      </trkpt>
      <trkpt lat="48.40647" lon="2.03823">
        <ele>109</ele>
        <time>2011-04-30T08:22:57Z</time>
      </trkpt>
      <trkpt lat="48.4065" lon="2.03824">
        <ele>109</ele>
        <time>2011-04-30T08:22:58Z</time>
      </trkpt>
      <trkpt lat="48.40652" lon="2.03826">
        <ele>108</ele>
        <time>2011-04-30T08:22:59Z</time>
      </trkpt>
      <trkpt lat="48.40655" lon="2.03827">
        <ele>108</ele>
        <time>2011-04-30T08:23:00Z</time>
      </trkpt>
      <trkpt lat="48.40658" lon="2.03829">
        <ele>107</ele>
        <time>2011-04-30T08:23:01Z</time>
      </trkpt>
      <trkpt lat="48.4066" lon="2.0383">
        <ele>107</ele>
        <time>2011-04-30T08:23:02Z</time>
      </trkpt>
      <trkpt lat="48.40663" lon="2.03832">
        <ele>106</ele>
        <time>2011-04-30T08:23:03Z</time>
      </trkpt>
      <trkpt lat="48.40666" lon="2.03834">
        <ele>105</ele>
        <time>2011-04-30T08:23:04Z</time>
      </trkpt>
      <trkpt lat="48.40669" lon="2.03836">
        <ele>104</ele>
        <time>2011-04-30T08:23:05Z</time>
      </trkpt>
      <trkpt lat="48.40671" lon="2.03838">
        <ele>104</ele>
        <time>2011-04-30T08:23:06Z</time>
      </trkpt>
      <trkpt lat="48.40673" lon="2.0384">
        <ele>103</ele>
        <time>2011-04-30T08:23:07Z</time>
      </trkpt>
      <trkpt lat="48.40675" lon="2.03841">
        <ele>103</ele>
        <time>2011-04-30T08:23:08Z</time>
      </trkpt>
      <trkpt lat="48.40677" lon="2.03843">
        <ele>102</ele>
        <time>2011-04-30T08:23:09Z</time>
      </trkpt>
      <trkpt lat="48.40679" lon="2.03845">
        <ele>102</ele>
        <time>2011-04-30T08:23:10Z</time>
      </trkpt>
      <trkpt lat="48.40682" lon="2.03848">
        <ele>101</ele>
        <time>2011-04-30T08:23:11Z</time>
      </trkpt>
      <trkpt lat="48.40684" lon="2.0385">
        <ele>101</ele>
        <time>2011-04-30T08:23:12Z</time>
      </trkpt>
      <trkpt lat="48.40685" lon="2.03852">
        <ele>101</ele>
        <time>2011-04-30T08:23:13Z</time>
      </trkpt>
      <trkpt lat="48.40687" lon="2.03853">
        <ele>101</ele>
        <time>2011-04-30T08:23:14Z</time>
      </trkpt>
      <trkpt lat="48.40689" lon="2.03855">
        <ele>100</ele>
        <time>2011-04-30T08:23:15Z</time>
      </trkpt>
      <trkpt lat="48.40691" lon="2.03856">
        <ele>100</ele>
        <time>2011-04-30T08:23:16Z</time>
      </trkpt>
      <trkpt lat="48.40693" lon="2.03857">
        <ele>100</ele>
        <time>2011-04-30T08:23:17Z</time>
      </trkpt>
      <trkpt lat="48.40695" lon="2.03858">
        <ele>100</ele>
        <time>2011-04-30T08:23:18Z</time>
      </trkpt>
      <trkpt lat="48.40697" lon="2.03858">
        <ele>100</ele>
        <time>2011-04-30T08:23:19Z</time>
      </trkpt>
      <trkpt lat="48.40699" lon="2.03857">
        <ele>100</ele>
        <time>2011-04-30T08:23:20Z</time>
      </trkpt>
      <trkpt lat="48.40701" lon="2.03856">
        <ele>100</ele>
        <time>2011-04-30T08:23:21Z</time>
      </trkpt>
      <trkpt lat="48.40703" lon="2.03855">
        <ele>100</ele>
        <time>2011-04-30T08:23:22Z</time>
      </trkpt>
      <trkpt lat="48.40704" lon="2.03854">
        <ele>100</ele>
        <time>2011-04-30T08:23:23Z</time>
      </trkpt>
      <trkpt lat="48.40706" lon="2.03854">
        <ele>100</ele>
        <time>2011-04-30T08:23:24Z</time>
      </trkpt>
      <trkpt lat="48.40706" lon="2.03853">
        <ele>100</ele>
        <time>2011-04-30T08:23:25Z</time>
      </trkpt>
      <trkpt lat="48.40707" lon="2.03853">
        <ele>100</ele>
        <time>2011-04-30T08:23:26Z</time>
      </trkpt>
      <trkpt lat="48.40708" lon="2.03852">
        <ele>100</ele>
        <time>2011-04-30T08:23:27Z</time>
      </trkpt>
      <trkpt lat="48.40708" lon="2.03851">
        <ele>100</ele>
        <time>2011-04-30T08:23:28Z</time>
      </trkpt>
      <trkpt lat="48.40709" lon="2.03849">
        <ele>100</ele>
        <time>2011-04-30T08:23:29Z</time>
      </trkpt>
      <trkpt lat="48.40711" lon="2.03847">
        <ele>100</ele>
        <time>2011-04-30T08:23:30Z</time>
      </trkpt>
      <trkpt lat="48.40712" lon="2.03845">
        <ele>100</ele>
        <time>2011-04-30T08:23:31Z</time>
      </trkpt>
      <trkpt lat="48.40713" lon="2.03843">
        <ele>100</ele>
        <time>2011-04-30T08:23:32Z</time>
      </trkpt>
      <trkpt lat="48.40714" lon="2.03842">
        <ele>100</ele>
        <time>2011-04-30T08:23:33Z</time>
      </trkpt>
      <trkpt lat="48.40716" lon="2.0384">
        <ele>100</ele>
        <time>2011-04-30T08:23:34Z</time>
      </trkpt>
      <trkpt lat="48.40717" lon="2.03839">
        <ele>100</ele>
        <time>2011-04-30T08:23:35Z</time>
      </trkpt>
      <trkpt lat="48.40717" lon="2.03838">
        <ele>100</ele>
        <time>2011-04-30T08:23:36Z</time>
      </trkpt>
      <trkpt lat="48.40718" lon="2.03837">
        <ele>100</ele>
        <time>2011-04-30T08:23:37Z</time>
      </trkpt>
      <trkpt lat="48.40718" lon="2.03837">
        <ele>100</ele>
        <time>2011-04-30T08:23:38Z</time>
      </trkpt>
      <trkpt lat="48.40719" lon="2.03837">
        <ele>100</ele>
        <time>2011-04-30T08:23:39Z</time>
      </trkpt>
      <trkpt lat="48.4072" lon="2.03837">
        <ele>100</ele>
        <time>2011-04-30T08:23:40Z</time>
      </trkpt>
      <trkpt lat="48.4072" lon="2.03837">
        <ele>100</ele>
        <time>2011-04-30T08:23:41Z</time>
      </trkpt>
      <trkpt lat="48.40721" lon="2.03837">
        <ele>100</ele>
        <time>2011-04-30T08:23:42Z</time>
      </trkpt>
      <trkpt lat="48.40721" lon="2.03837">
        <ele>100</ele>
        <time>2011-04-30T08:23:43Z</time>
      </trkpt>
      <trkpt lat="48.40721" lon="2.03837">
        <ele>100</ele>
        <time>2011-04-30T08:23:44Z</time>
      </trkpt>
      <trkpt lat="48.40722" lon="2.03837">
        <ele>100</ele>
        <time>2011-04-30T08:23:45Z</time>
      </trkpt>
      <trkpt lat="48.40722" lon="2.03837">
        <ele>100</ele>
        <time>2011-04-30T08:23:46Z</time>
      </trkpt>
      <trkpt lat="48.40723" lon="2.03837">
        <ele>100</ele>
        <time>2011-04-30T08:23:47Z</time>
      </trkpt>
      <trkpt lat="48.40724" lon="2.03837">
        <ele>100</ele>
        <time>2011-04-30T08:23:48Z</time>
      </trkpt>
      <trkpt lat="48.40725" lon="2.03838">
        <ele>100</ele>
        <time>2011-04-30T08:23:49Z</time>
      </trkpt>
      <trkpt lat="48.40725" lon="2.03838">
        <ele>100</ele>
        <time>2011-04-30T08:23:50Z</time>
      </trkpt>
      <trkpt lat="48.40726" lon="2.03838">
        <ele>100</ele>
        <time>2011-04-30T08:23:51Z</time>
      </trkpt>
      <trkpt lat="48.40727" lon="2.03839">
        <ele>100</ele>
        <time>2011-04-30T08:23:52Z</time>
      </trkpt>
      <trkpt lat="48.40727" lon="2.03839">
        <ele>100</ele>
        <time>2011-04-30T08:23:53Z</time>
      </trkpt>
      <trkpt lat="48.40728" lon="2.03838">
        <ele>100</ele>
        <time>2011-04-30T08:23:54Z</time>
      </trkpt>
      <trkpt lat="48.40729" lon="2.03838">
        <ele>100</ele>
        <time>2011-04-30T08:23:55Z</time>
      </trkpt>
      <trkpt lat="48.40729" lon="2.03838">
        <ele>100</ele>
        <time>2011-04-30T08:23:56Z</time>
      </trkpt>
      <trkpt lat="48.4073" lon="2.03837">
        <ele>100</ele>
        <time>2011-04-30T08:23:57Z</time>
      </trkpt>
      <trkpt lat="48.4073" lon="2.03837">
        <ele>100</ele>
        <time>2011-04-30T08:23:58Z</time>
      </trkpt>
      <trkpt lat="48.4073" lon="2.03837">
        <ele>100</ele>
        <time>2011-04-30T08:23:59Z</time>
      </trkpt>
      <trkpt lat="48.4073" lon="2.03836">
        <ele>100</ele>
        <time>2011-04-30T08:24:00Z</time>
      </trkpt>
      <trkpt lat="48.40731" lon="2.03836">
        <ele>100</ele>
        <time>2011-04-30T08:24:01Z</time>
      </trkpt>
      <trkpt lat="48.40731" lon="2.03836">
        <ele>100</ele>
        <time>2011-04-30T08:24:02Z</time>
      </trkpt>
      <trkpt lat="48.40731" lon="2.03835">
        <ele>100</ele>
        <time>2011-04-30T08:24:03Z</time>
      </trkpt>
      <trkpt lat="48.40731" lon="2.03835">
        <ele>100</ele>
        <time>2011-04-30T08:24:04Z</time>
      </trkpt>
      <trkpt lat="48.40731" lon="2.03834">
        <ele>100</ele>
        <time>2011-04-30T08:24:05Z</time>
      </trkpt>
      <trkpt lat="48.40732" lon="2.03833">
        <ele>104</ele>
        <time>2011-04-30T08:24:06Z</time>
      </trkpt>
      <trkpt lat="48.40732" lon="2.03832">
        <ele>103</ele>
        <time>2011-04-30T08:24:07Z</time>
      </trkpt>
      <trkpt lat="48.40733" lon="2.03831">
        <ele>103</ele>
        <time>2011-04-30T08:24:08Z</time>
      </trkpt>
      <trkpt lat="48.40734" lon="2.0383">
        <ele>103</ele>
        <time>2011-04-30T08:24:09Z</time>
      </trkpt>
      <trkpt lat="48.40736" lon="2.03829">
        <ele>103</ele>
        <time>2011-04-30T08:24:10Z</time>
      </trkpt>
      <trkpt lat="48.40737" lon="2.03829">
        <ele>103</ele>
        <time>2011-04-30T08:24:11Z</time>
      </trkpt>
      <trkpt lat="48.40738" lon="2.03828">
        <ele>103</ele>
        <time>2011-04-30T08:24:12Z</time>
      </trkpt>
      <trkpt lat="48.40738" lon="2.03828">
        <ele>103</ele>
        <time>2011-04-30T08:24:13Z</time>
      </trkpt>
      <trkpt lat="48.40739" lon="2.03828">
        <ele>103</ele>
        <time>2011-04-30T08:24:14Z</time>
      </trkpt>
      <trkpt lat="48.4074" lon="2.03828">
        <ele>103</ele>
        <time>2011-04-30T08:24:15Z</time>
      </trkpt>
      <trkpt lat="48.40741" lon="2.03828">
        <ele>102</ele>
        <time>2011-04-30T08:24:16Z</time>
      </trkpt>
      <trkpt lat="48.40742" lon="2.03828">
        <ele>102</ele>
        <time>2011-04-30T08:24:17Z</time>
      </trkpt>
      <trkpt lat="48.40742" lon="2.03828">
        <ele>102</ele>
        <time>2011-04-30T08:24:18Z</time>
      </trkpt>
      <trkpt lat="48.40743" lon="2.03828">
        <ele>102</ele>
        <time>2011-04-30T08:24:19Z</time>
      </trkpt>
      <trkpt lat="48.40743" lon="2.03828">
        <ele>102</ele>
        <time>2011-04-30T08:24:20Z</time>
      </trkpt>
      <trkpt lat="48.40744" lon="2.03829">
        <ele>102</ele>
        <time>2011-04-30T08:24:21Z</time>
      </trkpt>
      <trkpt lat="48.40744" lon="2.03829">
        <ele>102</ele>
        <time>2011-04-30T08:24:22Z</time>
      </trkpt>
      <trkpt lat="48.40744" lon="2.0383">
        <ele>102</ele>
        <time>2011-04-30T08:24:23Z</time>
      </trkpt>
      <trkpt lat="48.40744" lon="2.03831">
        <ele>102</ele>
        <time>2011-04-30T08:24:24Z</time>
      </trkpt>
      <trkpt lat="48.40744" lon="2.03831">
        <ele>101</ele>
        <time>2011-04-30T08:24:25Z</time>
      </trkpt>
      <trkpt lat="48.40745" lon="2.03832">
        <ele>101</ele>
        <time>2011-04-30T08:24:26Z</time>
      </trkpt>
      <trkpt lat="48.40745" lon="2.03833">
        <ele>101</ele>
        <time>2011-04-30T08:24:27Z</time>
      </trkpt>
      <trkpt lat="48.40745" lon="2.03833">
        <ele>101</ele>
        <time>2011-04-30T08:24:28Z</time>
      </trkpt>
      <trkpt lat="48.40746" lon="2.03834">
        <ele>100</ele>
        <time>2011-04-30T08:24:29Z</time>
      </trkpt>
      <trkpt lat="48.40746" lon="2.03834">
        <ele>100</ele>
        <time>2011-04-30T08:24:30Z</time>
      </trkpt>
      <trkpt lat="48.40746" lon="2.03835">
        <ele>100</ele>
        <time>2011-04-30T08:24:31Z</time>
      </trkpt>
      <trkpt lat="48.40746" lon="2.03835">
        <ele>100</ele>
        <time>2011-04-30T08:24:32Z</time>
      </trkpt>
      <trkpt lat="48.40746" lon="2.03835">
        <ele>100</ele>
        <time>2011-04-30T08:24:33Z</time>
      </trkpt>
      <trkpt lat="48.40746" lon="2.03835">
        <ele>100</ele>
        <time>2011-04-30T08:24:34Z</time>
      </trkpt>
      <trkpt lat="48.40747" lon="2.03835">
        <ele>100</ele>
        <time>2011-04-30T08:24:35Z</time>
      </trkpt>
      <trkpt lat="48.40747" lon="2.03835">
        <ele>100</ele>
        <time>2011-04-30T08:24:36Z</time>
      </trkpt>
      <trkpt lat="48.40747" lon="2.03835">
        <ele>100</ele>
        <time>2011-04-30T08:24:37Z</time>
      </trkpt>
      <trkpt lat="48.40747" lon="2.03835">
        <ele>100</ele>
        <time>2011-04-30T08:24:38Z</time>
      </trkpt>
      <trkpt lat="48.40747" lon="2.03835">
        <ele>100</ele>
        <time>2011-04-30T08:24:39Z</time>
      </trkpt>
      <trkpt lat="48.40747" lon="2.03835">
        <ele>100</ele>
        <time>2011-04-30T08:24:40Z</time>
      </trkpt>
      <trkpt lat="48.40747" lon="2.03835">
        <ele>100</ele>
        <time>2011-04-30T08:24:41Z</time>
      </trkpt>
      <trkpt lat="48.40747" lon="2.03835">
        <ele>100</ele>
        <time>2011-04-30T08:24:42Z</time>
      </trkpt>
      <trkpt lat="48.40747" lon="2.03835">
        <ele>100</ele>
        <time>2011-04-30T08:24:43Z</time>
      </trkpt>
      <trkpt lat="48.40747" lon="2.03835">
        <ele>100</ele>
        <time>2011-04-30T08:24:44Z</time>
      </trkpt>
      <trkpt lat="48.40747" lon="2.03835">
        <ele>100</ele>
        <time>2011-04-30T08:24:45Z</time>
      </trkpt>
      <trkpt lat="48.40746" lon="2.03835">
        <ele>100</ele>
        <time>2011-04-30T08:24:46Z</time>
      </trkpt>
      <trkpt lat="48.40746" lon="2.03835">
        <ele>100</ele>
        <time>2011-04-30T08:24:47Z</time>
      </trkpt>
      <trkpt lat="48.40746" lon="2.03835">
        <ele>100</ele>
        <time>2011-04-30T08:24:48Z</time>
      </trkpt>
      <trkpt lat="48.40745" lon="2.03835">
        <ele>100</ele>
        <time>2011-04-30T08:24:49Z</time>
      </trkpt>
      <trkpt lat="48.40745" lon="2.03835">
        <ele>100</ele>
        <time>2011-04-30T08:24:50Z</time>
      </trkpt>
      <trkpt lat="48.40744" lon="2.03835">
        <ele>100</ele>
        <time>2011-04-30T08:24:51Z</time>
      </trkpt>
      <trkpt lat="48.40744" lon="2.03835">
        <ele>100</ele>
        <time>2011-04-30T08:24:52Z</time>
      </trkpt>
      <trkpt lat="48.40744" lon="2.03835">
        <ele>100</ele>
        <time>2011-04-30T08:24:53Z</time>
      </trkpt>
      <trkpt lat="48.40744" lon="2.03835">
        <ele>100</ele>
        <time>2011-04-30T08:24:54Z</time>
      </trkpt>
      <trkpt lat="48.40743" lon="2.03835">
        <ele>100</ele>
        <time>2011-04-30T08:24:55Z</time>
      </trkpt>
      <trkpt lat="48.40743" lon="2.03835">
        <ele>100</ele>
        <time>2011-04-30T08:24:56Z</time>
      </trkpt>
      <trkpt lat="48.40743" lon="2.03835">
        <ele>100</ele>
        <time>2011-04-30T08:24:57Z</time>
      </trkpt>
      <trkpt lat="48.40742" lon="2.03835">
        <ele>100</ele>
        <time>2011-04-30T08:24:58Z</time>
      </trkpt>
      <trkpt lat="48.40742" lon="2.03835">
        <ele>100</ele>
        <time>2011-04-30T08:24:59Z</time>
      </trkpt>
      <trkpt lat="48.40742" lon="2.03835">
        <ele>100</ele>
        <time>2011-04-30T08:25:00Z</time>
      </trkpt>
      <trkpt lat="48.40741" lon="2.03835">
        <ele>100</ele>
        <time>2011-04-30T08:25:01Z</time>
      </trkpt>
      <trkpt lat="48.40741" lon="2.03835">
        <ele>100</ele>
        <time>2011-04-30T08:25:02Z</time>
      </trkpt>
      <trkpt lat="48.4074" lon="2.03835">
        <ele>100</ele>
        <time>2011-04-30T08:25:03Z</time>
      </trkpt>
      <trkpt lat="48.4074" lon="2.03835">
        <ele>100</ele>
        <time>2011-04-30T08:25:04Z</time>
      </trkpt>
      <trkpt lat="48.40739" lon="2.03835">
        <ele>100</ele>
        <time>2011-04-30T08:25:05Z</time>
      </trkpt>
      <trkpt lat="48.40739" lon="2.03835">
        <ele>100</ele>
        <time>2011-04-30T08:25:06Z</time>
      </trkpt>
      <trkpt lat="48.40738" lon="2.03835">
        <ele>100</ele>
        <time>2011-04-30T08:25:07Z</time>
      </trkpt>
      <trkpt lat="48.40737" lon="2.03835">
        <ele>100</ele>
        <time>2011-04-30T08:25:08Z</time>
      </trkpt>
      <trkpt lat="48.40737" lon="2.03835">
        <ele>100</ele>
        <time>2011-04-30T08:25:09Z</time>
      </trkpt>
      <trkpt lat="48.40736" lon="2.03835">
        <ele>100</ele>
        <time>2011-04-30T08:25:10Z</time>
      </trkpt>
      <trkpt lat="48.40735" lon="2.03835">
        <ele>100</ele>
        <time>2011-04-30T08:25:11Z</time>
      </trkpt>
      <trkpt lat="48.40734" lon="2.03835">
        <ele>100</ele>
        <time>2011-04-30T08:25:12Z</time>
      </trkpt>
      <trkpt lat="48.40733" lon="2.03835">
        <ele>100</ele>
        <time>2011-04-30T08:25:13Z</time>
      </trkpt>
      <trkpt lat="48.40731" lon="2.03834">
        <ele>100</ele>
        <time>2011-04-30T08:25:14Z</time>
      </trkpt>
      <trkpt lat="48.4073" lon="2.03834">
        <ele>100</ele>
        <time>2011-04-30T08:25:15Z</time>
      </trkpt>
      <trkpt lat="48.40729" lon="2.03833">
        <ele>104</ele>
        <time>2011-04-30T08:25:16Z</time>
      </trkpt>
      <trkpt lat="48.40728" lon="2.03833">
        <ele>104</ele>
        <time>2011-04-30T08:25:17Z</time>
      </trkpt>
      <trkpt lat="48.40728" lon="2.03832">
        <ele>104</ele>
        <time>2011-04-30T08:25:18Z</time>
      </trkpt>
      <trkpt lat="48.40727" lon="2.03832">
        <ele>104</ele>
        <time>2011-04-30T08:25:19Z</time>
      </trkpt>
      <trkpt lat="48.40726" lon="2.03832">
        <ele>104</ele>
        <time>2011-04-30T08:25:20Z</time>
      </trkpt>
      <trkpt lat="48.40726" lon="2.03832">
        <ele>104</ele>
        <time>2011-04-30T08:25:21Z</time>
      </trkpt>
      <trkpt lat="48.40725" lon="2.03832">
        <ele>104</ele>
        <time>2011-04-30T08:25:22Z</time>
      </trkpt>
      <trkpt lat="48.40725" lon="2.03831">
        <ele>104</ele>
        <time>2011-04-30T08:25:23Z</time>
      </trkpt>
      <trkpt lat="48.40725" lon="2.03831">
        <ele>104</ele>
        <time>2011-04-30T08:25:24Z</time>
      </trkpt>
      <trkpt lat="48.40725" lon="2.03831">
        <ele>104</ele>
        <time>2011-04-30T08:25:25Z</time>
      </trkpt>
      <trkpt lat="48.40725" lon="2.03831">
        <ele>104</ele>
        <time>2011-04-30T08:25:26Z</time>
      </trkpt>
      <trkpt lat="48.40725" lon="2.03831">
        <ele>104</ele>
        <time>2011-04-30T08:25:27Z</time>
      </trkpt>
      <trkpt lat="48.40725" lon="2.03831">
        <ele>104</ele>
        <time>2011-04-30T08:25:28Z</time>
      </trkpt>
      <trkpt lat="48.40725" lon="2.03831">
        <ele>104</ele>
        <time>2011-04-30T08:25:29Z</time>
      </trkpt>
      <trkpt lat="48.40724" lon="2.03831">
        <ele>104</ele>
        <time>2011-04-30T08:25:30Z</time>
      </trkpt>
      <trkpt lat="48.40724" lon="2.03832">
        <ele>104</ele>
        <time>2011-04-30T08:25:31Z</time>
      </trkpt>
      <trkpt lat="48.40724" lon="2.03832">
        <ele>104</ele>
        <time>2011-04-30T08:25:32Z</time>
      </trkpt>
      <trkpt lat="48.40724" lon="2.03832">
        <ele>104</ele>
        <time>2011-04-30T08:25:33Z</time>
      </trkpt>
      <trkpt lat="48.40725" lon="2.03832">
        <ele>104</ele>
        <time>2011-04-30T08:25:34Z</time>
      </trkpt>
      <trkpt lat="48.40725" lon="2.03832">
        <ele>104</ele>
        <time>2011-04-30T08:25:35Z</time>
      </trkpt>
      <trkpt lat="48.40725" lon="2.03832">
        <ele>104</ele>
        <time>2011-04-30T08:25:36Z</time>
      </trkpt>
      <trkpt lat="48.40725" lon="2.03832">
        <ele>104</ele>
        <time>2011-04-30T08:25:37Z</time>
      </trkpt>
      <trkpt lat="48.40725" lon="2.03832">
        <ele>104</ele>
        <time>2011-04-30T08:25:38Z</time>
      </trkpt>
      <trkpt lat="48.40726" lon="2.03832">
        <ele>104</ele>
        <time>2011-04-30T08:25:39Z</time>
      </trkpt>
      <trkpt lat="48.40726" lon="2.03831">
        <ele>104</ele>
        <time>2011-04-30T08:25:40Z</time>
      </trkpt>
      <trkpt lat="48.40726" lon="2.03831">
        <ele>104</ele>
        <time>2011-04-30T08:25:41Z</time>
      </trkpt>
      <trkpt lat="48.40726" lon="2.03831">
        <ele>104</ele>
        <time>2011-04-30T08:25:42Z</time>
      </trkpt>
      <trkpt lat="48.40726" lon="2.03831">
        <ele>104</ele>
        <time>2011-04-30T08:25:43Z</time>
      </trkpt>
      <trkpt lat="48.40726" lon="2.03831">
        <ele>104</ele>
        <time>2011-04-30T08:25:44Z</time>
      </trkpt>
      <trkpt lat="48.40726" lon="2.03831">
        <ele>104</ele>
        <time>2011-04-30T08:25:45Z</time>
      </trkpt>
      <trkpt lat="48.40727" lon="2.03831">
        <ele>104</ele>
        <time>2011-04-30T08:25:46Z</time>
      </trkpt>
      <trkpt lat="48.40727" lon="2.03831">
        <ele>104</ele>
        <time>2011-04-30T08:25:47Z</time>
      </trkpt>
      <trkpt lat="48.40727" lon="2.03831">
        <ele>104</ele>
        <time>2011-04-30T08:25:48Z</time>
      </trkpt>
      <trkpt lat="48.40727" lon="2.03831">
        <ele>104</ele>
        <time>2011-04-30T08:25:49Z</time>
      </trkpt>
      <trkpt lat="48.40727" lon="2.03831">
        <ele>104</ele>
        <time>2011-04-30T08:25:50Z</time>
      </trkpt>
      <trkpt lat="48.40727" lon="2.03831">
        <ele>104</ele>
        <time>2011-04-30T08:25:51Z</time>
      </trkpt>
      <trkpt lat="48.40727" lon="2.03831">
        <ele>104</ele>
        <time>2011-04-30T08:25:52Z</time>
      </trkpt>
      <trkpt lat="48.40727" lon="2.03831">
        <ele>104</ele>
        <time>2011-04-30T08:25:53Z</time>
      </trkpt>
      <trkpt lat="48.40728" lon="2.03831">
        <ele>104</ele>
        <time>2011-04-30T08:25:54Z</time>
      </trkpt>
      <trkpt lat="48.40728" lon="2.0383">
        <ele>104</ele>
        <time>2011-04-30T08:25:55Z</time>
      </trkpt>
      <trkpt lat="48.40728" lon="2.0383">
        <ele>104</ele>
        <time>2011-04-30T08:25:56Z</time>
      </trkpt>
      <trkpt lat="48.40728" lon="2.0383">
        <ele>104</ele>
        <time>2011-04-30T08:25:57Z</time>
      </trkpt>
      <trkpt lat="48.40728" lon="2.0383">
        <ele>104</ele>
        <time>2011-04-30T08:25:58Z</time>
      </trkpt>
      <trkpt lat="48.40728" lon="2.0383">
        <ele>104</ele>
        <time>2011-04-30T08:25:59Z</time>
      </trkpt>
      <trkpt lat="48.40727" lon="2.03829">
        <ele>104</ele>
        <time>2011-04-30T08:26:00Z</time>
      </trkpt>
      <trkpt lat="48.40727" lon="2.03829">
        <ele>104</ele>
        <time>2011-04-30T08:26:01Z</time>
      </trkpt>
      <trkpt lat="48.40727" lon="2.03829">
        <ele>104</ele>
        <time>2011-04-30T08:26:02Z</time>
      </trkpt>
      <trkpt lat="48.40727" lon="2.03829">
        <ele>104</ele>
        <time>2011-04-30T08:26:03Z</time>
      </trkpt>
      <trkpt lat="48.40727" lon="2.03828">
        <ele>104</ele>
        <time>2011-04-30T08:26:04Z</time>
      </trkpt>
      <trkpt lat="48.40727" lon="2.03828">
        <ele>104</ele>
        <time>2011-04-30T08:26:05Z</time>
      </trkpt>
      <trkpt lat="48.40727" lon="2.03828">
        <ele>104</ele>
        <time>2011-04-30T08:26:06Z</time>
      </trkpt>
      <trkpt lat="48.40727" lon="2.03828">
        <ele>104</ele>
        <time>2011-04-30T08:26:07Z</time>
      </trkpt>
      <trkpt lat="48.40728" lon="2.03828">
        <ele>104</ele>
        <time>2011-04-30T08:26:08Z</time>
      </trkpt>
      <trkpt lat="48.40728" lon="2.03828">
        <ele>104</ele>
        <time>2011-04-30T08:26:09Z</time>
      </trkpt>
      <trkpt lat="48.40728" lon="2.03828">
        <ele>104</ele>
        <time>2011-04-30T08:26:10Z</time>
      </trkpt>
      <trkpt lat="48.40728" lon="2.03828">
        <ele>104</ele>
        <time>2011-04-30T08:26:11Z</time>
      </trkpt>
      <trkpt lat="48.40729" lon="2.03828">
        <ele>104</ele>
        <time>2011-04-30T08:26:12Z</time>
      </trkpt>
      <trkpt lat="48.40729" lon="2.03828">
        <ele>104</ele>
        <time>2011-04-30T08:26:13Z</time>
      </trkpt>
      <trkpt lat="48.40729" lon="2.03828">
        <ele>104</ele>
        <time>2011-04-30T08:26:14Z</time>
      </trkpt>
      <trkpt lat="48.40729" lon="2.03827">
        <ele>104</ele>
        <time>2011-04-30T08:26:15Z</time>
      </trkpt>
      <trkpt lat="48.40728" lon="2.03827">
        <ele>104</ele>
        <time>2011-04-30T08:26:16Z</time>
      </trkpt>
      <trkpt lat="48.40728" lon="2.03826">
        <ele>104</ele>
        <time>2011-04-30T08:26:17Z</time>
      </trkpt>
      <trkpt lat="48.40728" lon="2.03825">
        <ele>104</ele>
        <time>2011-04-30T08:26:18Z</time>
      </trkpt>
      <trkpt lat="48.40728" lon="2.03824">
        <ele>104</ele>
        <time>2011-04-30T08:26:19Z</time>
      </trkpt>
      <trkpt lat="48.40727" lon="2.03824">
        <ele>104</ele>
        <time>2011-04-30T08:26:20Z</time>
      </trkpt>
      <trkpt lat="48.40727" lon="2.03823">
        <ele>104</ele>
        <time>2011-04-30T08:26:21Z</time>
      </trkpt>
      <trkpt lat="48.40727" lon="2.03823">
        <ele>104</ele>
        <time>2011-04-30T08:26:22Z</time>
      </trkpt>
      <trkpt lat="48.40727" lon="2.03823">
        <ele>104</ele>
        <time>2011-04-30T08:26:23Z</time>
      </trkpt>
      <trkpt lat="48.40726" lon="2.03823">
        <ele>105</ele>
        <time>2011-04-30T08:26:24Z</time>
      </trkpt>
      <trkpt lat="48.40726" lon="2.03822">
        <ele>105</ele>
        <time>2011-04-30T08:26:25Z</time>
      </trkpt>
      <trkpt lat="48.40726" lon="2.03822">
        <ele>105</ele>
        <time>2011-04-30T08:26:26Z</time>
      </trkpt>
      <trkpt lat="48.40726" lon="2.03822">
        <ele>105</ele>
        <time>2011-04-30T08:26:27Z</time>
      </trkpt>
      <trkpt lat="48.40726" lon="2.03823">
        <ele>105</ele>
        <time>2011-04-30T08:26:28Z</time>
      </trkpt>
      <trkpt lat="48.40725" lon="2.03823">
        <ele>105</ele>
        <time>2011-04-30T08:26:29Z</time>
      </trkpt>
      <trkpt lat="48.40725" lon="2.03823">
        <ele>105</ele>
        <time>2011-04-30T08:26:30Z</time>
      </trkpt>
      <trkpt lat="48.40725" lon="2.03824">
        <ele>105</ele>
        <time>2011-04-30T08:26:31Z</time>
      </trkpt>
      <trkpt lat="48.40725" lon="2.03824">
        <ele>105</ele>
        <time>2011-04-30T08:26:32Z</time>
      </trkpt>
      <trkpt lat="48.40724" lon="2.03825">
        <ele>105</ele>
        <time>2011-04-30T08:26:33Z</time>
      </trkpt>
      <trkpt lat="48.40724" lon="2.03825">
        <ele>105</ele>
        <time>2011-04-30T08:26:34Z</time>
      </trkpt>
      <trkpt lat="48.40724" lon="2.03825">
        <ele>105</ele>
        <time>2011-04-30T08:26:35Z</time>
      </trkpt>
      <trkpt lat="48.40723" lon="2.03826">
        <ele>105</ele>
        <time>2011-04-30T08:26:36Z</time>
      </trkpt>
      <trkpt lat="48.40723" lon="2.03826">
        <ele>105</ele>
        <time>2011-04-30T08:26:37Z</time>
      </trkpt>
      <trkpt lat="48.40723" lon="2.03826">
        <ele>105</ele>
        <time>2011-04-30T08:26:38Z</time>
      </trkpt>
      <trkpt lat="48.40722" lon="2.03826">
        <ele>105</ele>
        <time>2011-04-30T08:26:39Z</time>
      </trkpt>
      <trkpt lat="48.40722" lon="2.03826">
        <ele>105</ele>
        <time>2011-04-30T08:26:40Z</time>
      </trkpt>
      <trkpt lat="48.40722" lon="2.03827">
        <ele>105</ele>
        <time>2011-04-30T08:26:41Z</time>
      </trkpt>
      <trkpt lat="48.40722" lon="2.03827">
        <ele>105</ele>
        <time>2011-04-30T08:26:42Z</time>
      </trkpt>
      <trkpt lat="48.40722" lon="2.03827">
        <ele>105</ele>
        <time>2011-04-30T08:26:43Z</time>
      </trkpt>
      <trkpt lat="48.40722" lon="2.03827">
        <ele>105</ele>
        <time>2011-04-30T08:26:44Z</time>
      </trkpt>
      <trkpt lat="48.40722" lon="2.03827">
        <ele>105</ele>
        <time>2011-04-30T08:26:45Z</time>
      </trkpt>
      <trkpt lat="48.40722" lon="2.03827">
        <ele>105</ele>
        <time>2011-04-30T08:26:46Z</time>
      </trkpt>
      <trkpt lat="48.40722" lon="2.03827">
        <ele>105</ele>
        <time>2011-04-30T08:26:47Z</time>
      </trkpt>
      <trkpt lat="48.40722" lon="2.03828">
        <ele>105</ele>
        <time>2011-04-30T08:26:48Z</time>
      </trkpt>
      <trkpt lat="48.40722" lon="2.03828">
        <ele>105</ele>
        <time>2011-04-30T08:26:49Z</time>
      </trkpt>
      <trkpt lat="48.40722" lon="2.03828">
        <ele>105</ele>
        <time>2011-04-30T08:26:50Z</time>
      </trkpt>
      <trkpt lat="48.40722" lon="2.03827">
        <ele>105</ele>
        <time>2011-04-30T08:26:51Z</time>
      </trkpt>
      <trkpt lat="48.40723" lon="2.03827">
        <ele>105</ele>
        <time>2011-04-30T08:26:52Z</time>
      </trkpt>
      <trkpt lat="48.40723" lon="2.03827">
        <ele>105</ele>
        <time>2011-04-30T08:26:53Z</time>
      </trkpt>
      <trkpt lat="48.40724" lon="2.03827">
        <ele>105</ele>
        <time>2011-04-30T08:26:54Z</time>
      </trkpt>
      <trkpt lat="48.40724" lon="2.03827">
        <ele>105</ele>
        <time>2011-04-30T08:26:55Z</time>
      </trkpt>
      <trkpt lat="48.40724" lon="2.03827">
        <ele>105</ele>
        <time>2011-04-30T08:26:56Z</time>
      </trkpt>
      <trkpt lat="48.40725" lon="2.03827">
        <ele>105</ele>
        <time>2011-04-30T08:26:57Z</time>
      </trkpt>
      <trkpt lat="48.40725" lon="2.03827">
        <ele>104</ele>
        <time>2011-04-30T08:26:58Z</time>
      </trkpt>
      <trkpt lat="48.40725" lon="2.03827">
        <ele>104</ele>
        <time>2011-04-30T08:26:59Z</time>
      </trkpt>
      <trkpt lat="48.40725" lon="2.03826">
        <ele>104</ele>
        <time>2011-04-30T08:27:00Z</time>
      </trkpt>
      <trkpt lat="48.40725" lon="2.03826">
        <ele>104</ele>
        <time>2011-04-30T08:27:01Z</time>
      </trkpt>
      <trkpt lat="48.40725" lon="2.03826">
        <ele>104</ele>
        <time>2011-04-30T08:27:02Z</time>
      </trkpt>
      <trkpt lat="48.40725" lon="2.03826">
        <ele>104</ele>
        <time>2011-04-30T08:27:03Z</time>
      </trkpt>
      <trkpt lat="48.40725" lon="2.03826">
        <ele>105</ele>
        <time>2011-04-30T08:27:04Z</time>
      </trkpt>
      <trkpt lat="48.40724" lon="2.03826">
        <ele>105</ele>
        <time>2011-04-30T08:27:05Z</time>
      </trkpt>
      <trkpt lat="48.40724" lon="2.03826">
        <ele>105</ele>
        <time>2011-04-30T08:27:06Z</time>
      </trkpt>
      <trkpt lat="48.40724" lon="2.03826">
        <ele>105</ele>
        <time>2011-04-30T08:27:07Z</time>
      </trkpt>
      <trkpt lat="48.40723" lon="2.03827">
        <ele>105</ele>
        <time>2011-04-30T08:27:08Z</time>
      </trkpt>
      <trkpt lat="48.40723" lon="2.03828">
        <ele>105</ele>
        <time>2011-04-30T08:27:09Z</time>
      </trkpt>
      <trkpt lat="48.40722" lon="2.03828">
        <ele>105</ele>
        <time>2011-04-30T08:27:10Z</time>
      </trkpt>
      <trkpt lat="48.40722" lon="2.03829">
        <ele>105</ele>
        <time>2011-04-30T08:27:11Z</time>
      </trkpt>
      <trkpt lat="48.40722" lon="2.0383">
        <ele>105</ele>
        <time>2011-04-30T08:27:12Z</time>
      </trkpt>
      <trkpt lat="48.40721" lon="2.0383">
        <ele>105</ele>
        <time>2011-04-30T08:27:13Z</time>
      </trkpt>
      <trkpt lat="48.40721" lon="2.0383">
        <ele>105</ele>
        <time>2011-04-30T08:27:14Z</time>
      </trkpt>
      <trkpt lat="48.40722" lon="2.0383">
        <ele>105</ele>
        <time>2011-04-30T08:27:15Z</time>
      </trkpt>
      <trkpt lat="48.40722" lon="2.0383">
        <ele>105</ele>
        <time>2011-04-30T08:27:16Z</time>
      </trkpt>
      <trkpt lat="48.40722" lon="2.0383">
        <ele>105</ele>
        <time>2011-04-30T08:27:17Z</time>
      </trkpt>
      <trkpt lat="48.40722" lon="2.0383">
        <ele>105</ele>
        <time>2011-04-30T08:27:18Z</time>
      </trkpt>
      <trkpt lat="48.40722" lon="2.0383">
        <ele>105</ele>
        <time>2011-04-30T08:27:19Z</time>
      </trkpt>
      <trkpt lat="48.40723" lon="2.0383">
        <ele>105</ele>
        <time>2011-04-30T08:27:20Z</time>
      </trkpt>
      <trkpt lat="48.40723" lon="2.0383">
        <ele>105</ele>
        <time>2011-04-30T08:27:21Z</time>
      </trkpt>
      <trkpt lat="48.40723" lon="2.0383">
        <ele>105</ele>
        <time>2011-04-30T08:27:22Z</time>
      </trkpt>
      <trkpt lat="48.40723" lon="2.0383">
        <ele>105</ele>
        <time>2011-04-30T08:27:23Z</time>
      </trkpt>
      <trkpt lat="48.40723" lon="2.0383">
        <ele>105</ele>
        <time>2011-04-30T08:27:24Z</time>
      </trkpt>
      <trkpt lat="48.40723" lon="2.0383">
        <ele>105</ele>
        <time>2011-04-30T08:27:25Z</time>
      </trkpt>
      <trkpt lat="48.40724" lon="2.0383">
        <ele>104</ele>
        <time>2011-04-30T08:27:26Z</time>
      </trkpt>
      <trkpt lat="48.40724" lon="2.0383">
        <ele>104</ele>
        <time>2011-04-30T08:27:27Z</time>
      </trkpt>
      <trkpt lat="48.40724" lon="2.03831">
        <ele>104</ele>
        <time>2011-04-30T08:27:28Z</time>
      </trkpt>
      <trkpt lat="48.40725" lon="2.03831">
        <ele>104</ele>
        <time>2011-04-30T08:27:29Z</time>
      </trkpt>
      <trkpt lat="48.40725" lon="2.03831">
        <ele>104</ele>
        <time>2011-04-30T08:27:30Z</time>
      </trkpt>
      <trkpt lat="48.40725" lon="2.03832">
        <ele>104</ele>
        <time>2011-04-30T08:27:31Z</time>
      </trkpt>
      <trkpt lat="48.40725" lon="2.03832">
        <ele>104</ele>
        <time>2011-04-30T08:27:32Z</time>
      </trkpt>
      <trkpt lat="48.40726" lon="2.03832">
        <ele>104</ele>
        <time>2011-04-30T08:27:33Z</time>
      </trkpt>
      <trkpt lat="48.40726" lon="2.03833">
        <ele>104</ele>
        <time>2011-04-30T08:27:34Z</time>
      </trkpt>
      <trkpt lat="48.40726" lon="2.03833">
        <ele>104</ele>
        <time>2011-04-30T08:27:35Z</time>
      </trkpt>
      <trkpt lat="48.40727" lon="2.03833">
        <ele>100</ele>
        <time>2011-04-30T08:27:36Z</time>
      </trkpt>
      <trkpt lat="48.40727" lon="2.03834">
        <ele>100</ele>
        <time>2011-04-30T08:27:37Z</time>
      </trkpt>
      <trkpt lat="48.40727" lon="2.03834">
        <ele>100</ele>
        <time>2011-04-30T08:27:38Z</time>
      </trkpt>
      <trkpt lat="48.40727" lon="2.03834">
        <ele>100</ele>
        <time>2011-04-30T08:27:39Z</time>
      </trkpt>
      <trkpt lat="48.40727" lon="2.03834">
        <ele>100</ele>
        <time>2011-04-30T08:27:40Z</time>
      </trkpt>
      <trkpt lat="48.40728" lon="2.03834">
        <ele>100</ele>
        <time>2011-04-30T08:27:41Z</time>
      </trkpt>
      <trkpt lat="48.40728" lon="2.03835">
        <ele>100</ele>
        <time>2011-04-30T08:27:42Z</time>
      </trkpt>
      <trkpt lat="48.40729" lon="2.03835">
        <ele>100</ele>
        <time>2011-04-30T08:27:43Z</time>
      </trkpt>
      <trkpt lat="48.40729" lon="2.03835">
        <ele>100</ele>
        <time>2011-04-30T08:27:44Z</time>
      </trkpt>
      <trkpt lat="48.4073" lon="2.03836">
        <ele>100</ele>
        <time>2011-04-30T08:27:45Z</time>
      </trkpt>
      <trkpt lat="48.40731" lon="2.03836">
        <ele>100</ele>
        <time>2011-04-30T08:27:46Z</time>
      </trkpt>
      <trkpt lat="48.40731" lon="2.03836">
        <ele>100</ele>
        <time>2011-04-30T08:27:47Z</time>
      </trkpt>
      <trkpt lat="48.40732" lon="2.03836">
        <ele>100</ele>
        <time>2011-04-30T08:27:48Z</time>
      </trkpt>
      <trkpt lat="48.40732" lon="2.03836">
        <ele>100</ele>
        <time>2011-04-30T08:27:49Z</time>
      </trkpt>
      <trkpt lat="48.40733" lon="2.03836">
        <ele>100</ele>
        <time>2011-04-30T08:27:50Z</time>
      </trkpt>
      <trkpt lat="48.40733" lon="2.03836">
        <ele>100</ele>
        <time>2011-04-30T08:27:51Z</time>
      </trkpt>
      <trkpt lat="48.40734" lon="2.03836">
        <ele>100</ele>
        <time>2011-04-30T08:27:52Z</time>
      </trkpt>
      <trkpt lat="48.40734" lon="2.03836">
        <ele>100</ele>
        <time>2011-04-30T08:27:53Z</time>
      </trkpt>
      <trkpt lat="48.40734" lon="2.03836">
        <ele>100</ele>
        <time>2011-04-30T08:27:54Z</time>
      </trkpt>
      <trkpt lat="48.40734" lon="2.03835">
        <ele>100</ele>
        <time>2011-04-30T08:27:55Z</time>
      </trkpt>
      <trkpt lat="48.40734" lon="2.03835">
        <ele>100</ele>
        <time>2011-04-30T08:27:56Z</time>
      </trkpt>
      <trkpt lat="48.40734" lon="2.03835">
        <ele>100</ele>
        <time>2011-04-30T08:27:57Z</time>
      </trkpt>
      <trkpt lat="48.40734" lon="2.03835">
        <ele>100</ele>
        <time>2011-04-30T08:27:58Z</time>
      </trkpt>
      <trkpt lat="48.40734" lon="2.03835">
        <ele>100</ele>
        <time>2011-04-30T08:27:59Z</time>
      </trkpt>
      <trkpt lat="48.40733" lon="2.03834">
        <ele>100</ele>
        <time>2011-04-30T08:28:00Z</time>
      </trkpt>
      <trkpt lat="48.40733" lon="2.03833">
        <ele>100</ele>
        <time>2011-04-30T08:28:01Z</time>
      </trkpt>
      <trkpt lat="48.40733" lon="2.03833">
        <ele>103</ele>
        <time>2011-04-30T08:28:02Z</time>
      </trkpt>
      <trkpt lat="48.40732" lon="2.03832">
        <ele>103</ele>
        <time>2011-04-30T08:28:03Z</time>
      </trkpt>
      <trkpt lat="48.40732" lon="2.03831">
        <ele>103</ele>
        <time>2011-04-30T08:28:04Z</time>
      </trkpt>
      <trkpt lat="48.40732" lon="2.03831">
        <ele>104</ele>
        <time>2011-04-30T08:28:05Z</time>
      </trkpt>
      <trkpt lat="48.40732" lon="2.0383">
        <ele>104</ele>
        <time>2011-04-30T08:28:06Z</time>
      </trkpt>
      <trkpt lat="48.40732" lon="2.03829">
        <ele>104</ele>
        <time>2011-04-30T08:28:07Z</time>
      </trkpt>
      <trkpt lat="48.40732" lon="2.03828">
        <ele>104</ele>
        <time>2011-04-30T08:28:08Z</time>
      </trkpt>
      <trkpt lat="48.40732" lon="2.03828">
        <ele>104</ele>
        <time>2011-04-30T08:28:09Z</time>
      </trkpt>
      <trkpt lat="48.40732" lon="2.03827">
        <ele>104</ele>
        <time>2011-04-30T08:28:10Z</time>
      </trkpt>
      <trkpt lat="48.40732" lon="2.03827">
        <ele>104</ele>
        <time>2011-04-30T08:28:11Z</time>
      </trkpt>
      <trkpt lat="48.40732" lon="2.03826">
        <ele>104</ele>
        <time>2011-04-30T08:28:12Z</time>
      </trkpt>
      <trkpt lat="48.40732" lon="2.03826">
        <ele>104</ele>
        <time>2011-04-30T08:28:13Z</time>
      </trkpt>
      <trkpt lat="48.40732" lon="2.03825">
        <ele>104</ele>
        <time>2011-04-30T08:28:14Z</time>
      </trkpt>
      <trkpt lat="48.40732" lon="2.03825">
        <ele>104</ele>
        <time>2011-04-30T08:28:15Z</time>
      </trkpt>
      <trkpt lat="48.40732" lon="2.03825">
        <ele>104</ele>
        <time>2011-04-30T08:28:16Z</time>
      </trkpt>
      <trkpt lat="48.40732" lon="2.03824">
        <ele>104</ele>
        <time>2011-04-30T08:28:17Z</time>
      </trkpt>
      <trkpt lat="48.40733" lon="2.03824">
        <ele>104</ele>
        <time>2011-04-30T08:28:18Z</time>
      </trkpt>
      <trkpt lat="48.40733" lon="2.03824">
        <ele>104</ele>
        <time>2011-04-30T08:28:19Z</time>
      </trkpt>
      <trkpt lat="48.40733" lon="2.03823">
        <ele>104</ele>
        <time>2011-04-30T08:28:20Z</time>
      </trkpt>
      <trkpt lat="48.40733" lon="2.03823">
        <ele>104</ele>
        <time>2011-04-30T08:28:21Z</time>
      </trkpt>
      <trkpt lat="48.40733" lon="2.03823">
        <ele>104</ele>
        <time>2011-04-30T08:28:22Z</time>
      </trkpt>
      <trkpt lat="48.40734" lon="2.03822">
        <ele>104</ele>
        <time>2011-04-30T08:28:23Z</time>
      </trkpt>
      <trkpt lat="48.40734" lon="2.03822">
        <ele>104</ele>
        <time>2011-04-30T08:28:24Z</time>
      </trkpt>
      <trkpt lat="48.40734" lon="2.03822">
        <ele>104</ele>
        <time>2011-04-30T08:28:25Z</time>
      </trkpt>
      <trkpt lat="48.40734" lon="2.03822">
        <ele>104</ele>
        <time>2011-04-30T08:28:26Z</time>
      </trkpt>
      <trkpt lat="48.40734" lon="2.03821">
        <ele>104</ele>
        <time>2011-04-30T08:28:27Z</time>
      </trkpt>
      <trkpt lat="48.40735" lon="2.03821">
        <ele>104</ele>
        <time>2011-04-30T08:28:28Z</time>
      </trkpt>
      <trkpt lat="48.40735" lon="2.0382">
        <ele>104</ele>
        <time>2011-04-30T08:28:29Z</time>
      </trkpt>
      <trkpt lat="48.40735" lon="2.0382">
        <ele>104</ele>
        <time>2011-04-30T08:28:30Z</time>
      </trkpt>
      <trkpt lat="48.40736" lon="2.03819">
        <ele>104</ele>
        <time>2011-04-30T08:28:31Z</time>
      </trkpt>
      <trkpt lat="48.40736" lon="2.03818">
        <ele>104</ele>
        <time>2011-04-30T08:28:32Z</time>
      </trkpt>
      <trkpt lat="48.40737" lon="2.03818">
        <ele>104</ele>
        <time>2011-04-30T08:28:33Z</time>
      </trkpt>
      <trkpt lat="48.40738" lon="2.03818">
        <ele>104</ele>
        <time>2011-04-30T08:28:34Z</time>
      </trkpt>
      <trkpt lat="48.40738" lon="2.03818">
        <ele>104</ele>
        <time>2011-04-30T08:28:35Z</time>
      </trkpt>
      <trkpt lat="48.40738" lon="2.03817">
        <ele>104</ele>
        <time>2011-04-30T08:28:36Z</time>
      </trkpt>
      <trkpt lat="48.40739" lon="2.03817">
        <ele>104</ele>
        <time>2011-04-30T08:28:37Z</time>
      </trkpt>
      <trkpt lat="48.40739" lon="2.03817">
        <ele>104</ele>
        <time>2011-04-30T08:28:38Z</time>
      </trkpt>
      <trkpt lat="48.40739" lon="2.03817">
        <ele>104</ele>
        <time>2011-04-30T08:28:39Z</time>
      </trkpt>
      <trkpt lat="48.40739" lon="2.03817">
        <ele>104</ele>
        <time>2011-04-30T08:28:40Z</time>
      </trkpt>
      <trkpt lat="48.40739" lon="2.03817">
        <ele>104</ele>
        <time>2011-04-30T08:28:41Z</time>
      </trkpt>
      <trkpt lat="48.40739" lon="2.03816">
        <ele>104</ele>
        <time>2011-04-30T08:28:42Z</time>
      </trkpt>
      <trkpt lat="48.4074" lon="2.03816">
        <ele>104</ele>
        <time>2011-04-30T08:28:43Z</time>
      </trkpt>
      <trkpt lat="48.40739" lon="2.03816">
        <ele>104</ele>
        <time>2011-04-30T08:28:44Z</time>
      </trkpt>
      <trkpt lat="48.40739" lon="2.03815">
        <ele>104</ele>
        <time>2011-04-30T08:28:45Z</time>
      </trkpt>
      <trkpt lat="48.40739" lon="2.03815">
        <ele>104</ele>
        <time>2011-04-30T08:28:46Z</time>
      </trkpt>
      <trkpt lat="48.40739" lon="2.03815">
        <ele>104</ele>
        <time>2011-04-30T08:28:47Z</time>
      </trkpt>
      <trkpt lat="48.40739" lon="2.03814">
        <ele>104</ele>
        <time>2011-04-30T08:28:48Z</time>
      </trkpt>
      <trkpt lat="48.40739" lon="2.03814">
        <ele>104</ele>
        <time>2011-04-30T08:28:49Z</time>
      </trkpt>
      <trkpt lat="48.40739" lon="2.03813">
        <ele>104</ele>
        <time>2011-04-30T08:28:50Z</time>
      </trkpt>
      <trkpt lat="48.40739" lon="2.03813">
        <ele>104</ele>
        <time>2011-04-30T08:28:51Z</time>
      </trkpt>
      <trkpt lat="48.40739" lon="2.03812">
        <ele>104</ele>
        <time>2011-04-30T08:28:52Z</time>
      </trkpt>
      <trkpt lat="48.40739" lon="2.03812">
        <ele>104</ele>
        <time>2011-04-30T08:28:53Z</time>
      </trkpt>
      <trkpt lat="48.40739" lon="2.03812">
        <ele>104</ele>
        <time>2011-04-30T08:28:54Z</time>
      </trkpt>
      <trkpt lat="48.40739" lon="2.03811">
        <ele>104</ele>
        <time>2011-04-30T08:28:55Z</time>
      </trkpt>
      <trkpt lat="48.40739" lon="2.03811">
        <ele>104</ele>
        <time>2011-04-30T08:28:56Z</time>
      </trkpt>
      <trkpt lat="48.40739" lon="2.03811">
        <ele>104</ele>
        <time>2011-04-30T08:28:57Z</time>
      </trkpt>
      <trkpt lat="48.40739" lon="2.03811">
        <ele>104</ele>
        <time>2011-04-30T08:28:58Z</time>
      </trkpt>
      <trkpt lat="48.40739" lon="2.03811">
        <ele>104</ele>
        <time>2011-04-30T08:28:59Z</time>
      </trkpt>
      <trkpt lat="48.40739" lon="2.03811">
        <ele>104</ele>
        <time>2011-04-30T08:29:00Z</time>
      </trkpt>
      <trkpt lat="48.40739" lon="2.03811">
        <ele>104</ele>
        <time>2011-04-30T08:29:01Z</time>
      </trkpt>
      <trkpt lat="48.4074" lon="2.03811">
        <ele>104</ele>
        <time>2011-04-30T08:29:02Z</time>
      </trkpt>
      <trkpt lat="48.4074" lon="2.03811">
        <ele>104</ele>
        <time>2011-04-30T08:29:03Z</time>
      </trkpt>
      <trkpt lat="48.4074" lon="2.03812">
        <ele>104</ele>
        <time>2011-04-30T08:29:04Z</time>
      </trkpt>
      <trkpt lat="48.4074" lon="2.03812">
        <ele>104</ele>
        <time>2011-04-30T08:29:05Z</time>
      </trkpt>
      <trkpt lat="48.4074" lon="2.03813">
        <ele>104</ele>
        <time>2011-04-30T08:29:06Z</time>
      </trkpt>
      <trkpt lat="48.4074" lon="2.03813">
        <ele>104</ele>
        <time>2011-04-30T08:29:07Z</time>
      </trkpt>
      <trkpt lat="48.4074" lon="2.03813">
        <ele>104</ele>
        <time>2011-04-30T08:29:08Z</time>
      </trkpt>
      <trkpt lat="48.4074" lon="2.03813">
        <ele>104</ele>
        <time>2011-04-30T08:29:09Z</time>
      </trkpt>
      <trkpt lat="48.4074" lon="2.03813">
        <ele>104</ele>
        <time>2011-04-30T08:29:10Z</time>
      </trkpt>
      <trkpt lat="48.4074" lon="2.03813">
        <ele>104</ele>
        <time>2011-04-30T08:29:11Z</time>
      </trkpt>
      <trkpt lat="48.4074" lon="2.03813">
        <ele>104</ele>
        <time>2011-04-30T08:29:12Z</time>
      </trkpt>
      <trkpt lat="48.4074" lon="2.03812">
        <ele>104</ele>
        <time>2011-04-30T08:29:13Z</time>
      </trkpt>
      <trkpt lat="48.4074" lon="2.03812">
        <ele>104</ele>
        <time>2011-04-30T08:29:14Z</time>
      </trkpt>
      <trkpt lat="48.4074" lon="2.03811">
        <ele>104</ele>
        <time>2011-04-30T08:29:15Z</time>
      </trkpt>
      <trkpt lat="48.40739" lon="2.03811">
        <ele>104</ele>
        <time>2011-04-30T08:29:16Z</time>
      </trkpt>
      <trkpt lat="48.40739" lon="2.0381">
        <ele>104</ele>
        <time>2011-04-30T08:29:17Z</time>
      </trkpt>
      <trkpt lat="48.40739" lon="2.0381">
        <ele>104</ele>
        <time>2011-04-30T08:29:18Z</time>
      </trkpt>
      <trkpt lat="48.40738" lon="2.03809">
        <ele>104</ele>
        <time>2011-04-30T08:29:19Z</time>
      </trkpt>
      <trkpt lat="48.40738" lon="2.03809">
        <ele>105</ele>
        <time>2011-04-30T08:29:20Z</time>
      </trkpt>
      <trkpt lat="48.40738" lon="2.03809">
        <ele>105</ele>
        <time>2011-04-30T08:29:21Z</time>
      </trkpt>
      <trkpt lat="48.40737" lon="2.03808">
        <ele>105</ele>
        <time>2011-04-30T08:29:22Z</time>
      </trkpt>
      <trkpt lat="48.40737" lon="2.03808">
        <ele>105</ele>
        <time>2011-04-30T08:29:23Z</time>
      </trkpt>
      <trkpt lat="48.40736" lon="2.03807">
        <ele>105</ele>
        <time>2011-04-30T08:29:24Z</time>
      </trkpt>
      <trkpt lat="48.40735" lon="2.03807">
        <ele>105</ele>
        <time>2011-04-30T08:29:25Z</time>
      </trkpt>
      <trkpt lat="48.40734" lon="2.03807">
        <ele>105</ele>
        <time>2011-04-30T08:29:26Z</time>
      </trkpt>
      <trkpt lat="48.40734" lon="2.03806">
        <ele>105</ele>
        <time>2011-04-30T08:29:27Z</time>
      </trkpt>
      <trkpt lat="48.40733" lon="2.03806">
        <ele>105</ele>
        <time>2011-04-30T08:29:28Z</time>
      </trkpt>
      <trkpt lat="48.40732" lon="2.03806">
        <ele>105</ele>
        <time>2011-04-30T08:29:29Z</time>
      </trkpt>
      <trkpt lat="48.40732" lon="2.03806">
        <ele>105</ele>
        <time>2011-04-30T08:29:30Z</time>
      </trkpt>
      <trkpt lat="48.40731" lon="2.03805">
        <ele>105</ele>
        <time>2011-04-30T08:29:31Z</time>
      </trkpt>
      <trkpt lat="48.40731" lon="2.03805">
        <ele>105</ele>
        <time>2011-04-30T08:29:32Z</time>
      </trkpt>
      <trkpt lat="48.40731" lon="2.03805">
        <ele>105</ele>
        <time>2011-04-30T08:29:33Z</time>
      </trkpt>
      <trkpt lat="48.4073" lon="2.03805">
        <ele>105</ele>
        <time>2011-04-30T08:29:34Z</time>
      </trkpt>
      <trkpt lat="48.4073" lon="2.03805">
        <ele>105</ele>
        <time>2011-04-30T08:29:35Z</time>
      </trkpt>
      <trkpt lat="48.4073" lon="2.03805">
        <ele>105</ele>
        <time>2011-04-30T08:29:36Z</time>
      </trkpt>
      <trkpt lat="48.4073" lon="2.03806">
        <ele>105</ele>
        <time>2011-04-30T08:29:37Z</time>
      </trkpt>
      <trkpt lat="48.40729" lon="2.03806">
        <ele>105</ele>
        <time>2011-04-30T08:29:38Z</time>
      </trkpt>
      <trkpt lat="48.40729" lon="2.03807">
        <ele>105</ele>
        <time>2011-04-30T08:29:39Z</time>
      </trkpt>
      <trkpt lat="48.40729" lon="2.03807">
        <ele>105</ele>
        <time>2011-04-30T08:29:40Z</time>
      </trkpt>
      <trkpt lat="48.4073" lon="2.03807">
        <ele>105</ele>
        <time>2011-04-30T08:29:41Z</time>
      </trkpt>
      <trkpt lat="48.4073" lon="2.03807">
        <ele>105</ele>
        <time>2011-04-30T08:29:42Z</time>
      </trkpt>
      <trkpt lat="48.4073" lon="2.03807">
        <ele>105</ele>
        <time>2011-04-30T08:29:43Z</time>
      </trkpt>
      <trkpt lat="48.40731" lon="2.03806">
        <ele>105</ele>
        <time>2011-04-30T08:29:44Z</time>
      </trkpt>
      <trkpt lat="48.40731" lon="2.03806">
        <ele>105</ele>
        <time>2011-04-30T08:29:45Z</time>
      </trkpt>
      <trkpt lat="48.40732" lon="2.03806">
        <ele>105</ele>
        <time>2011-04-30T08:29:46Z</time>
      </trkpt>
      <trkpt lat="48.40732" lon="2.03806">
        <ele>105</ele>
        <time>2011-04-30T08:29:47Z</time>
      </trkpt>
      <trkpt lat="48.40732" lon="2.03806">
        <ele>105</ele>
        <time>2011-04-30T08:29:48Z</time>
      </trkpt>
      <trkpt lat="48.40733" lon="2.03806">
        <ele>105</ele>
        <time>2011-04-30T08:29:49Z</time>
      </trkpt>
      <trkpt lat="48.40733" lon="2.03806">
        <ele>105</ele>
        <time>2011-04-30T08:29:50Z</time>
      </trkpt>
      <trkpt lat="48.40733" lon="2.03806">
        <ele>105</ele>
        <time>2011-04-30T08:29:51Z</time>
      </trkpt>
      <trkpt lat="48.40733" lon="2.03805">
        <ele>105</ele>
        <time>2011-04-30T08:29:52Z</time>
      </trkpt>
      <trkpt lat="48.40733" lon="2.03804">
        <ele>105</ele>
        <time>2011-04-30T08:29:53Z</time>
      </trkpt>
      <trkpt lat="48.40733" lon="2.03802">
        <ele>105</ele>
        <time>2011-04-30T08:29:54Z</time>
      </trkpt>
      <trkpt lat="48.40734" lon="2.038">
        <ele>105</ele>
        <time>2011-04-30T08:29:55Z</time>
      </trkpt>
      <trkpt lat="48.40733" lon="2.03799">
        <ele>106</ele>
        <time>2011-04-30T08:29:56Z</time>
      </trkpt>
      <trkpt lat="48.40733" lon="2.03797">
        <ele>106</ele>
        <time>2011-04-30T08:29:57Z</time>
      </trkpt>
      <trkpt lat="48.40733" lon="2.03795">
        <ele>106</ele>
        <time>2011-04-30T08:29:58Z</time>
      </trkpt>
      <trkpt lat="48.40732" lon="2.03793">
        <ele>106</ele>
        <time>2011-04-30T08:29:59Z</time>
      </trkpt>
      <trkpt lat="48.40732" lon="2.03791">
        <ele>106</ele>
        <time>2011-04-30T08:30:00Z</time>
      </trkpt>
      <trkpt lat="48.40731" lon="2.03789">
        <ele>106</ele>
        <time>2011-04-30T08:30:01Z</time>
      </trkpt>
      <trkpt lat="48.4073" lon="2.03788">
        <ele>106</ele>
        <time>2011-04-30T08:30:02Z</time>
      </trkpt>
      <trkpt lat="48.4073" lon="2.03785">
        <ele>106</ele>
        <time>2011-04-30T08:30:03Z</time>
      </trkpt>
      <trkpt lat="48.40729" lon="2.03783">
        <ele>106</ele>
        <time>2011-04-30T08:30:04Z</time>
      </trkpt>
      <trkpt lat="48.40729" lon="2.03781">
        <ele>106</ele>
        <time>2011-04-30T08:30:05Z</time>
      </trkpt>
      <trkpt lat="48.40728" lon="2.03779">
        <ele>107</ele>
        <time>2011-04-30T08:30:06Z</time>
      </trkpt>
      <trkpt lat="48.40728" lon="2.03777">
        <ele>107</ele>
        <time>2011-04-30T08:30:07Z</time>
      </trkpt>
      <trkpt lat="48.40728" lon="2.03774">
        <ele>107</ele>
        <time>2011-04-30T08:30:08Z</time>
      </trkpt>
      <trkpt lat="48.40728" lon="2.03772">
        <ele>107</ele>
        <time>2011-04-30T08:30:09Z</time>
      </trkpt>
      <trkpt lat="48.40728" lon="2.0377">
        <ele>107</ele>
        <time>2011-04-30T08:30:10Z</time>
      </trkpt>
      <trkpt lat="48.40727" lon="2.03767">
        <ele>107</ele>
        <time>2011-04-30T08:30:11Z</time>
      </trkpt>
      <trkpt lat="48.40727" lon="2.03765">
        <ele>107</ele>
        <time>2011-04-30T08:30:12Z</time>
      </trkpt>
      <trkpt lat="48.40727" lon="2.03762">
        <ele>107</ele>
        <time>2011-04-30T08:30:13Z</time>
      </trkpt>
      <trkpt lat="48.40726" lon="2.0376">
        <ele>107</ele>
        <time>2011-04-30T08:30:14Z</time>
      </trkpt>
      <trkpt lat="48.40726" lon="2.03757">
        <ele>107</ele>
        <time>2011-04-30T08:30:15Z</time>
      </trkpt>
      <trkpt lat="48.40726" lon="2.03754">
        <ele>107</ele>
        <time>2011-04-30T08:30:16Z</time>
      </trkpt>
      <trkpt lat="48.40727" lon="2.03752">
        <ele>107</ele>
        <time>2011-04-30T08:30:17Z</time>
      </trkpt>
      <trkpt lat="48.40727" lon="2.03749">
        <ele>110</ele>
        <time>2011-04-30T08:30:18Z</time>
      </trkpt>
      <trkpt lat="48.40727" lon="2.03746">
        <ele>110</ele>
        <time>2011-04-30T08:30:19Z</time>
      </trkpt>
      <trkpt lat="48.40727" lon="2.03743">
        <ele>110</ele>
        <time>2011-04-30T08:30:20Z</time>
      </trkpt>
      <trkpt lat="48.40727" lon="2.0374">
        <ele>110</ele>
        <time>2011-04-30T08:30:21Z</time>
      </trkpt>
      <trkpt lat="48.40727" lon="2.03737">
        <ele>111</ele>
        <time>2011-04-30T08:30:22Z</time>
      </trkpt>
      <trkpt lat="48.40727" lon="2.03734">
        <ele>111</ele>
        <time>2011-04-30T08:30:23Z</time>
      </trkpt>
      <trkpt lat="48.40727" lon="2.03731">
        <ele>111</ele>
        <time>2011-04-30T08:30:24Z</time>
      </trkpt>
      <trkpt lat="48.40727" lon="2.03727">
        <ele>111</ele>
        <time>2011-04-30T08:30:25Z</time>
      </trkpt>
      <trkpt lat="48.40727" lon="2.03724">
        <ele>111</ele>
        <time>2011-04-30T08:30:26Z</time>
      </trkpt>
      <trkpt lat="48.40727" lon="2.03721">
        <ele>112</ele>
        <time>2011-04-30T08:30:27Z</time>
      </trkpt>
      <trkpt lat="48.40727" lon="2.03718">
        <ele>112</ele>
        <time>2011-04-30T08:30:28Z</time>
      </trkpt>
      <trkpt lat="48.40727" lon="2.03715">
        <ele>112</ele>
        <time>2011-04-30T08:30:29Z</time>
      </trkpt>
      <trkpt lat="48.40727" lon="2.03712">
        <ele>112</ele>
        <time>2011-04-30T08:30:30Z</time>
      </trkpt>
      <trkpt lat="48.40727" lon="2.03709">
        <ele>112</ele>
        <time>2011-04-30T08:30:31Z</time>
      </trkpt>
      <trkpt lat="48.40727" lon="2.03706">
        <ele>112</ele>
        <time>2011-04-30T08:30:32Z</time>
      </trkpt>
      <trkpt lat="48.40727" lon="2.03702">
        <ele>112</ele>
        <time>2011-04-30T08:30:33Z</time>
      </trkpt>
      <trkpt lat="48.40728" lon="2.03699">
        <ele>112</ele>
        <time>2011-04-30T08:30:34Z</time>
      </trkpt>
      <trkpt lat="48.40728" lon="2.03695">
        <ele>112</ele>
        <time>2011-04-30T08:30:35Z</time>
      </trkpt>
      <trkpt lat="48.40729" lon="2.03692">
        <ele>112</ele>
        <time>2011-04-30T08:30:36Z</time>
      </trkpt>
      <trkpt lat="48.40729" lon="2.03689">
        <ele>111</ele>
        <time>2011-04-30T08:30:37Z</time>
      </trkpt>
      <trkpt lat="48.4073" lon="2.03686">
        <ele>111</ele>
        <time>2011-04-30T08:30:38Z</time>
      </trkpt>
      <trkpt lat="48.40731" lon="2.03683">
        <ele>111</ele>
        <time>2011-04-30T08:30:39Z</time>
      </trkpt>
      <trkpt lat="48.40731" lon="2.0368">
        <ele>111</ele>
        <time>2011-04-30T08:30:40Z</time>
      </trkpt>
      <trkpt lat="48.40732" lon="2.03677">
        <ele>110</ele>
        <time>2011-04-30T08:30:41Z</time>
      </trkpt>
      <trkpt lat="48.40732" lon="2.03674">
        <ele>110</ele>
        <time>2011-04-30T08:30:42Z</time>
      </trkpt>
      <trkpt lat="48.40733" lon="2.03671">
        <ele>110</ele>
        <time>2011-04-30T08:30:43Z</time>
      </trkpt>
      <trkpt lat="48.40733" lon="2.03668">
        <ele>110</ele>
        <time>2011-04-30T08:30:44Z</time>
      </trkpt>
      <trkpt lat="48.40733" lon="2.03666">
        <ele>111</ele>
        <time>2011-04-30T08:30:45Z</time>
      </trkpt>
      <trkpt lat="48.40733" lon="2.03663">
        <ele>111</ele>
        <time>2011-04-30T08:30:46Z</time>
      </trkpt>
      <trkpt lat="48.40733" lon="2.03661">
        <ele>111</ele>
        <time>2011-04-30T08:30:47Z</time>
      </trkpt>
      <trkpt lat="48.40734" lon="2.03658">
        <ele>111</ele>
        <time>2011-04-30T08:30:48Z</time>
      </trkpt>
      <trkpt lat="48.40734" lon="2.03655">
        <ele>111</ele>
        <time>2011-04-30T08:30:49Z</time>
      </trkpt>
      <trkpt lat="48.40734" lon="2.03653">
        <ele>111</ele>
        <time>2011-04-30T08:30:50Z</time>
      </trkpt>
      <trkpt lat="48.40735" lon="2.0365">
        <ele>112</ele>
        <time>2011-04-30T08:30:51Z</time>
      </trkpt>
      <trkpt lat="48.40735" lon="2.03647">
        <ele>112</ele>
        <time>2011-04-30T08:30:52Z</time>
      </trkpt>
      <trkpt lat="48.40735" lon="2.03644">
        <ele>112</ele>
        <time>2011-04-30T08:30:53Z</time>
      </trkpt>
      <trkpt lat="48.40736" lon="2.03641">
        <ele>113</ele>
        <time>2011-04-30T08:30:54Z</time>
      </trkpt>
      <trkpt lat="48.40736" lon="2.03638">
        <ele>113</ele>
        <time>2011-04-30T08:30:55Z</time>
      </trkpt>
      <trkpt lat="48.40736" lon="2.03635">
        <ele>113</ele>
        <time>2011-04-30T08:30:56Z</time>
      </trkpt>
      <trkpt lat="48.40736" lon="2.03632">
        <ele>113</ele>
        <time>2011-04-30T08:30:57Z</time>
      </trkpt>
      <trkpt lat="48.40736" lon="2.03629">
        <ele>113</ele>
        <time>2011-04-30T08:30:58Z</time>
      </trkpt>
      <trkpt lat="48.40735" lon="2.03626">
        <ele>113</ele>
        <time>2011-04-30T08:30:59Z</time>
      </trkpt>
      <trkpt lat="48.40735" lon="2.03623">
        <ele>113</ele>
        <time>2011-04-30T08:31:00Z</time>
      </trkpt>
      <trkpt lat="48.40734" lon="2.0362">
        <ele>113</ele>
        <time>2011-04-30T08:31:01Z</time>
      </trkpt>
      <trkpt lat="48.40734" lon="2.03616">
        <ele>113</ele>
        <time>2011-04-30T08:31:02Z</time>
      </trkpt>
      <trkpt lat="48.40733" lon="2.03612">
        <ele>113</ele>
        <time>2011-04-30T08:31:03Z</time>
      </trkpt>
      <trkpt lat="48.40733" lon="2.03608">
        <ele>113</ele>
        <time>2011-04-30T08:31:04Z</time>
      </trkpt>
      <trkpt lat="48.40733" lon="2.03605">
        <ele>113</ele>
        <time>2011-04-30T08:31:05Z</time>
      </trkpt>
      <trkpt lat="48.40733" lon="2.03601">
        <ele>113</ele>
        <time>2011-04-30T08:31:06Z</time>
      </trkpt>
      <trkpt lat="48.40733" lon="2.03597">
        <ele>112</ele>
        <time>2011-04-30T08:31:07Z</time>
      </trkpt>
      <trkpt lat="48.40733" lon="2.03593">
        <ele>112</ele>
        <time>2011-04-30T08:31:08Z</time>
      </trkpt>
      <trkpt lat="48.40734" lon="2.03588">
        <ele>111</ele>
        <time>2011-04-30T08:31:09Z</time>
      </trkpt>
      <trkpt lat="48.40734" lon="2.03584">
        <ele>111</ele>
        <time>2011-04-30T08:31:10Z</time>
      </trkpt>
      <trkpt lat="48.40735" lon="2.0358">
        <ele>112</ele>
        <time>2011-04-30T08:31:11Z</time>
      </trkpt>
      <trkpt lat="48.40735" lon="2.03576">
        <ele>112</ele>
        <time>2011-04-30T08:31:12Z</time>
      </trkpt>
      <trkpt lat="48.40735" lon="2.03572">
        <ele>113</ele>
        <time>2011-04-30T08:31:13Z</time>
      </trkpt>
      <trkpt lat="48.40734" lon="2.03569">
        <ele>113</ele>
        <time>2011-04-30T08:31:14Z</time>
      </trkpt>
      <trkpt lat="48.40734" lon="2.03565">
        <ele>114</ele>
        <time>2011-04-30T08:31:15Z</time>
      </trkpt>
      <trkpt lat="48.40733" lon="2.03561">
        <ele>114</ele>
        <time>2011-04-30T08:31:16Z</time>
      </trkpt>
      <trkpt lat="48.40732" lon="2.03557">
        <ele>115</ele>
        <time>2011-04-30T08:31:17Z</time>
      </trkpt>
      <trkpt lat="48.40732" lon="2.03554">
        <ele>115</ele>
        <time>2011-04-30T08:31:18Z</time>
      </trkpt>
      <trkpt lat="48.40731" lon="2.0355">
        <ele>116</ele>
        <time>2011-04-30T08:31:19Z</time>
      </trkpt>
      <trkpt lat="48.40731" lon="2.03546">
        <ele>116</ele>
        <time>2011-04-30T08:31:20Z</time>
      </trkpt>
      <trkpt lat="48.40731" lon="2.03542">
        <ele>116</ele>
        <time>2011-04-30T08:31:21Z</time>
      </trkpt>
      <trkpt lat="48.4073" lon="2.03538">
        <ele>116</ele>
        <time>2011-04-30T08:31:22Z</time>
      </trkpt>
      <trkpt lat="48.40731" lon="2.03534">
        <ele>116</ele>
        <time>2011-04-30T08:31:23Z</time>
      </trkpt>
      <trkpt lat="48.40731" lon="2.0353">
        <ele>116</ele>
        <time>2011-04-30T08:31:24Z</time>
      </trkpt>
      <trkpt lat="48.40731" lon="2.03526">
        <ele>116</ele>
        <time>2011-04-30T08:31:25Z</time>
      </trkpt>
      <trkpt lat="48.40731" lon="2.03522">
        <ele>115</ele>
        <time>2011-04-30T08:31:26Z</time>
      </trkpt>
      <trkpt lat="48.40732" lon="2.03518">
        <ele>115</ele>
        <time>2011-04-30T08:31:27Z</time>
      </trkpt>
      <trkpt lat="48.40731" lon="2.03515">
        <ele>115</ele>
        <time>2011-04-30T08:31:28Z</time>
      </trkpt>
      <trkpt lat="48.40731" lon="2.03511">
        <ele>114</ele>
        <time>2011-04-30T08:31:29Z</time>
      </trkpt>
      <trkpt lat="48.40731" lon="2.03507">
        <ele>114</ele>
        <time>2011-04-30T08:31:30Z</time>
      </trkpt>
      <trkpt lat="48.40731" lon="2.03504">
        <ele>114</ele>
        <time>2011-04-30T08:31:31Z</time>
      </trkpt>
      <trkpt lat="48.40731" lon="2.035">
        <ele>115</ele>
        <time>2011-04-30T08:31:32Z</time>
      </trkpt>
      <trkpt lat="48.40731" lon="2.03496">
        <ele>115</ele>
        <time>2011-04-30T08:31:33Z</time>
      </trkpt>
      <trkpt lat="48.40731" lon="2.03492">
        <ele>115</ele>
        <time>2011-04-30T08:31:34Z</time>
      </trkpt>
      <trkpt lat="48.40731" lon="2.03484">
        <ele>116</ele>
        <time>2011-04-30T08:31:35Z</time>
      </trkpt>
      <trkpt lat="48.40731" lon="2.03481">
        <ele>116</ele>
        <time>2011-04-30T08:31:36Z</time>
      </trkpt>
      <trkpt lat="48.40731" lon="2.03477">
        <ele>117</ele>
        <time>2011-04-30T08:31:37Z</time>
      </trkpt>
      <trkpt lat="48.40732" lon="2.03474">
        <ele>117</ele>
        <time>2011-04-30T08:31:38Z</time>
      </trkpt>
      <trkpt lat="48.40732" lon="2.03471">
        <ele>117</ele>
        <time>2011-04-30T08:31:39Z</time>
      </trkpt>
      <trkpt lat="48.40732" lon="2.03468">
        <ele>117</ele>
        <time>2011-04-30T08:31:40Z</time>
      </trkpt>
      <trkpt lat="48.40733" lon="2.03465">
        <ele>117</ele>
        <time>2011-04-30T08:31:41Z</time>
      </trkpt>
      <trkpt lat="48.40733" lon="2.03461">
        <ele>117</ele>
        <time>2011-04-30T08:31:42Z</time>
      </trkpt>
      <trkpt lat="48.40733" lon="2.03458">
        <ele>117</ele>
        <time>2011-04-30T08:31:43Z</time>
      </trkpt>
      <trkpt lat="48.40733" lon="2.03454">
        <ele>117</ele>
        <time>2011-04-30T08:31:44Z</time>
      </trkpt>
      <trkpt lat="48.40733" lon="2.0345">
        <ele>117</ele>
        <time>2011-04-30T08:31:45Z</time>
      </trkpt>
      <trkpt lat="48.40733" lon="2.03446">
        <ele>117</ele>
        <time>2011-04-30T08:31:46Z</time>
      </trkpt>
      <trkpt lat="48.40734" lon="2.03442">
        <ele>117</ele>
        <time>2011-04-30T08:31:47Z</time>
      </trkpt>
      <trkpt lat="48.40734" lon="2.03437">
        <ele>117</ele>
        <time>2011-04-30T08:31:48Z</time>
      </trkpt>
      <trkpt lat="48.40735" lon="2.03433">
        <ele>116</ele>
        <time>2011-04-30T08:31:49Z</time>
      </trkpt>
      <trkpt lat="48.40736" lon="2.03429">
        <ele>116</ele>
        <time>2011-04-30T08:31:50Z</time>
      </trkpt>
      <trkpt lat="48.40737" lon="2.03424">
        <ele>115</ele>
        <time>2011-04-30T08:31:51Z</time>
      </trkpt>
      <trkpt lat="48.40737" lon="2.0342">
        <ele>114</ele>
        <time>2011-04-30T08:31:52Z</time>
      </trkpt>
      <trkpt lat="48.40738" lon="2.03416">
        <ele>115</ele>
        <time>2011-04-30T08:31:53Z</time>
      </trkpt>
      <trkpt lat="48.40738" lon="2.03412">
        <ele>115</ele>
        <time>2011-04-30T08:31:54Z</time>
      </trkpt>
      <trkpt lat="48.40739" lon="2.03408">
        <ele>115</ele>
        <time>2011-04-30T08:31:55Z</time>
      </trkpt>
      <trkpt lat="48.4074" lon="2.03404">
        <ele>115</ele>
        <time>2011-04-30T08:31:56Z</time>
      </trkpt>
      <trkpt lat="48.4074" lon="2.03401">
        <ele>116</ele>
        <time>2011-04-30T08:31:57Z</time>
      </trkpt>
      <trkpt lat="48.40741" lon="2.03398">
        <ele>116</ele>
        <time>2011-04-30T08:31:58Z</time>
      </trkpt>
      <trkpt lat="48.40741" lon="2.03394">
        <ele>117</ele>
        <time>2011-04-30T08:31:59Z</time>
      </trkpt>
      <trkpt lat="48.40742" lon="2.0339">
        <ele>117</ele>
        <time>2011-04-30T08:32:00Z</time>
      </trkpt>
      <trkpt lat="48.40743" lon="2.03387">
        <ele>117</ele>
        <time>2011-04-30T08:32:01Z</time>
      </trkpt>
      <trkpt lat="48.40744" lon="2.03383">
        <ele>118</ele>
        <time>2011-04-30T08:32:02Z</time>
      </trkpt>
      <trkpt lat="48.40745" lon="2.03379">
        <ele>118</ele>
        <time>2011-04-30T08:32:03Z</time>
      </trkpt>
      <trkpt lat="48.40746" lon="2.03375">
        <ele>118</ele>
        <time>2011-04-30T08:32:04Z</time>
      </trkpt>
      <trkpt lat="48.40747" lon="2.03372">
        <ele>118</ele>
        <time>2011-04-30T08:32:05Z</time>
      </trkpt>
      <trkpt lat="48.40748" lon="2.03368">
        <ele>118</ele>
        <time>2011-04-30T08:32:06Z</time>
      </trkpt>
      <trkpt lat="48.40748" lon="2.03365">
        <ele>117</ele>
        <time>2011-04-30T08:32:07Z</time>
      </trkpt>
      <trkpt lat="48.40749" lon="2.03362">
        <ele>117</ele>
        <time>2011-04-30T08:32:08Z</time>
      </trkpt>
      <trkpt lat="48.4075" lon="2.03358">
        <ele>117</ele>
        <time>2011-04-30T08:32:09Z</time>
      </trkpt>
      <trkpt lat="48.40751" lon="2.03355">
        <ele>108</ele>
        <time>2011-04-30T08:32:10Z</time>
      </trkpt>
      <trkpt lat="48.40752" lon="2.03351">
        <ele>108</ele>
        <time>2011-04-30T08:32:11Z</time>
      </trkpt>
      <trkpt lat="48.40753" lon="2.03348">
        <ele>109</ele>
        <time>2011-04-30T08:32:12Z</time>
      </trkpt>
      <trkpt lat="48.40753" lon="2.03345">
        <ele>109</ele>
        <time>2011-04-30T08:32:13Z</time>
      </trkpt>
      <trkpt lat="48.40754" lon="2.03341">
        <ele>110</ele>
        <time>2011-04-30T08:32:14Z</time>
      </trkpt>
      <trkpt lat="48.40755" lon="2.03338">
        <ele>110</ele>
        <time>2011-04-30T08:32:15Z</time>
      </trkpt>
      <trkpt lat="48.40756" lon="2.03334">
        <ele>110</ele>
        <time>2011-04-30T08:32:16Z</time>
      </trkpt>
      <trkpt lat="48.40757" lon="2.03331">
        <ele>111</ele>
        <time>2011-04-30T08:32:17Z</time>
      </trkpt>
      <trkpt lat="48.40757" lon="2.03327">
        <ele>110</ele>
        <time>2011-04-30T08:32:18Z</time>
      </trkpt>
      <trkpt lat="48.40758" lon="2.03324">
        <ele>110</ele>
        <time>2011-04-30T08:32:19Z</time>
      </trkpt>
      <trkpt lat="48.40758" lon="2.0332">
        <ele>110</ele>
        <time>2011-04-30T08:32:20Z</time>
      </trkpt>
      <trkpt lat="48.40759" lon="2.03317">
        <ele>110</ele>
        <time>2011-04-30T08:32:21Z</time>
      </trkpt>
      <trkpt lat="48.4076" lon="2.03314">
        <ele>109</ele>
        <time>2011-04-30T08:32:22Z</time>
      </trkpt>
      <trkpt lat="48.4076" lon="2.0331">
        <ele>109</ele>
        <time>2011-04-30T08:32:23Z</time>
      </trkpt>
      <trkpt lat="48.40761" lon="2.03307">
        <ele>109</ele>
        <time>2011-04-30T08:32:24Z</time>
      </trkpt>
      <trkpt lat="48.40761" lon="2.03303">
        <ele>109</ele>
        <time>2011-04-30T08:32:25Z</time>
      </trkpt>
      <trkpt lat="48.40762" lon="2.03299">
        <ele>109</ele>
        <time>2011-04-30T08:32:26Z</time>
      </trkpt>
      <trkpt lat="48.40762" lon="2.03296">
        <ele>109</ele>
        <time>2011-04-30T08:32:27Z</time>
      </trkpt>
      <trkpt lat="48.40762" lon="2.03292">
        <ele>109</ele>
        <time>2011-04-30T08:32:28Z</time>
      </trkpt>
      <trkpt lat="48.40762" lon="2.03288">
        <ele>109</ele>
        <time>2011-04-30T08:32:29Z</time>
      </trkpt>
      <trkpt lat="48.40762" lon="2.03285">
        <ele>110</ele>
        <time>2011-04-30T08:32:30Z</time>
      </trkpt>
      <trkpt lat="48.40762" lon="2.03282">
        <ele>110</ele>
        <time>2011-04-30T08:32:31Z</time>
      </trkpt>
      <trkpt lat="48.40762" lon="2.03279">
        <ele>110</ele>
        <time>2011-04-30T08:32:32Z</time>
      </trkpt>
      <trkpt lat="48.40761" lon="2.03275">
        <ele>111</ele>
        <time>2011-04-30T08:32:33Z</time>
      </trkpt>
      <trkpt lat="48.40761" lon="2.03273">
        <ele>111</ele>
        <time>2011-04-30T08:32:34Z</time>
      </trkpt>
      <trkpt lat="48.40761" lon="2.0327">
        <ele>111</ele>
        <time>2011-04-30T08:32:35Z</time>
      </trkpt>
      <trkpt lat="48.40761" lon="2.03267">
        <ele>112</ele>
        <time>2011-04-30T08:32:36Z</time>
      </trkpt>
      <trkpt lat="48.40761" lon="2.03264">
        <ele>112</ele>
        <time>2011-04-30T08:32:37Z</time>
      </trkpt>
      <trkpt lat="48.40761" lon="2.03261">
        <ele>113</ele>
        <time>2011-04-30T08:32:38Z</time>
      </trkpt>
      <trkpt lat="48.40761" lon="2.03257">
        <ele>113</ele>
        <time>2011-04-30T08:32:39Z</time>
      </trkpt>
      <trkpt lat="48.40761" lon="2.03254">
        <ele>114</ele>
        <time>2011-04-30T08:32:40Z</time>
      </trkpt>
      <trkpt lat="48.40762" lon="2.03251">
        <ele>114</ele>
        <time>2011-04-30T08:32:41Z</time>
      </trkpt>
      <trkpt lat="48.40762" lon="2.03248">
        <ele>115</ele>
        <time>2011-04-30T08:32:42Z</time>
      </trkpt>
      <trkpt lat="48.40762" lon="2.03244">
        <ele>114</ele>
        <time>2011-04-30T08:32:43Z</time>
      </trkpt>
      <trkpt lat="48.40763" lon="2.03241">
        <ele>114</ele>
        <time>2011-04-30T08:32:44Z</time>
      </trkpt>
      <trkpt lat="48.40764" lon="2.03238">
        <ele>113</ele>
        <time>2011-04-30T08:32:45Z</time>
      </trkpt>
      <trkpt lat="48.40765" lon="2.03234">
        <ele>113</ele>
        <time>2011-04-30T08:32:46Z</time>
      </trkpt>
      <trkpt lat="48.40765" lon="2.03231">
        <ele>113</ele>
        <time>2011-04-30T08:32:47Z</time>
      </trkpt>
      <trkpt lat="48.40765" lon="2.03229">
        <ele>112</ele>
        <time>2011-04-30T08:32:48Z</time>
      </trkpt>
      <trkpt lat="48.40765" lon="2.03225">
        <ele>112</ele>
        <time>2011-04-30T08:32:49Z</time>
      </trkpt>
      <trkpt lat="48.40765" lon="2.03222">
        <ele>112</ele>
        <time>2011-04-30T08:32:50Z</time>
      </trkpt>
      <trkpt lat="48.40765" lon="2.03219">
        <ele>112</ele>
        <time>2011-04-30T08:32:51Z</time>
      </trkpt>
      <trkpt lat="48.40765" lon="2.03216">
        <ele>112</ele>
        <time>2011-04-30T08:32:52Z</time>
      </trkpt>
      <trkpt lat="48.40764" lon="2.03213">
        <ele>112</ele>
        <time>2011-04-30T08:32:53Z</time>
      </trkpt>
      <trkpt lat="48.40764" lon="2.0321">
        <ele>112</ele>
        <time>2011-04-30T08:32:54Z</time>
      </trkpt>
      <trkpt lat="48.40763" lon="2.03207">
        <ele>112</ele>
        <time>2011-04-30T08:32:55Z</time>
      </trkpt>
      <trkpt lat="48.40763" lon="2.03204">
        <ele>112</ele>
        <time>2011-04-30T08:32:56Z</time>
      </trkpt>
      <trkpt lat="48.40762" lon="2.03201">
        <ele>112</ele>
        <time>2011-04-30T08:32:57Z</time>
      </trkpt>
      <trkpt lat="48.40762" lon="2.03198">
        <ele>112</ele>
        <time>2011-04-30T08:32:58Z</time>
      </trkpt>
      <trkpt lat="48.40761" lon="2.03194">
        <ele>112</ele>
        <time>2011-04-30T08:32:59Z</time>
      </trkpt>
      <trkpt lat="48.4076" lon="2.0319">
        <ele>112</ele>
        <time>2011-04-30T08:33:00Z</time>
      </trkpt>
      <trkpt lat="48.40759" lon="2.03187">
        <ele>112</ele>
        <time>2011-04-30T08:33:01Z</time>
      </trkpt>
      <trkpt lat="48.40758" lon="2.03184">
        <ele>112</ele>
        <time>2011-04-30T08:33:02Z</time>
      </trkpt>
      <trkpt lat="48.40756" lon="2.0318">
        <ele>113</ele>
        <time>2011-04-30T08:33:03Z</time>
      </trkpt>
      <trkpt lat="48.40755" lon="2.03177">
        <ele>113</ele>
        <time>2011-04-30T08:33:04Z</time>
      </trkpt>
      <trkpt lat="48.40753" lon="2.03174">
        <ele>114</ele>
        <time>2011-04-30T08:33:05Z</time>
      </trkpt>
      <trkpt lat="48.40751" lon="2.03171">
        <ele>114</ele>
        <time>2011-04-30T08:33:06Z</time>
      </trkpt>
      <trkpt lat="48.40749" lon="2.03168">
        <ele>116</ele>
        <time>2011-04-30T08:33:07Z</time>
      </trkpt>
      <trkpt lat="48.40747" lon="2.03165">
        <ele>116</ele>
        <time>2011-04-30T08:33:08Z</time>
      </trkpt>
      <trkpt lat="48.40746" lon="2.03162">
        <ele>116</ele>
        <time>2011-04-30T08:33:09Z</time>
      </trkpt>
      <trkpt lat="48.40744" lon="2.03159">
        <ele>117</ele>
        <time>2011-04-30T08:33:10Z</time>
      </trkpt>
      <trkpt lat="48.40743" lon="2.03156">
        <ele>117</ele>
        <time>2011-04-30T08:33:11Z</time>
      </trkpt>
      <trkpt lat="48.40741" lon="2.03153">
        <ele>118</ele>
        <time>2011-04-30T08:33:12Z</time>
      </trkpt>
      <trkpt lat="48.4074" lon="2.03151">
        <ele>118</ele>
        <time>2011-04-30T08:33:13Z</time>
      </trkpt>
      <trkpt lat="48.40739" lon="2.03148">
        <ele>118</ele>
        <time>2011-04-30T08:33:14Z</time>
      </trkpt>
      <trkpt lat="48.40738" lon="2.03144">
        <ele>119</ele>
        <time>2011-04-30T08:33:15Z</time>
      </trkpt>
      <trkpt lat="48.40737" lon="2.03141">
        <ele>119</ele>
        <time>2011-04-30T08:33:16Z</time>
      </trkpt>
      <trkpt lat="48.40736" lon="2.03137">
        <ele>119</ele>
        <time>2011-04-30T08:33:17Z</time>
      </trkpt>
      <trkpt lat="48.40736" lon="2.03133">
        <ele>119</ele>
        <time>2011-04-30T08:33:18Z</time>
      </trkpt>
      <trkpt lat="48.40735" lon="2.03129">
        <ele>119</ele>
        <time>2011-04-30T08:33:19Z</time>
      </trkpt>
      <trkpt lat="48.40734" lon="2.03125">
        <ele>119</ele>
        <time>2011-04-30T08:33:20Z</time>
      </trkpt>
      <trkpt lat="48.40734" lon="2.03122">
        <ele>119</ele>
        <time>2011-04-30T08:33:21Z</time>
      </trkpt>
      <trkpt lat="48.40733" lon="2.03119">
        <ele>119</ele>
        <time>2011-04-30T08:33:22Z</time>
      </trkpt>
      <trkpt lat="48.40732" lon="2.03116">
        <ele>118</ele>
        <time>2011-04-30T08:33:23Z</time>
      </trkpt>
      <trkpt lat="48.40732" lon="2.03112">
        <ele>118</ele>
        <time>2011-04-30T08:33:24Z</time>
      </trkpt>
      <trkpt lat="48.40731" lon="2.03109">
        <ele>118</ele>
        <time>2011-04-30T08:33:25Z</time>
      </trkpt>
      <trkpt lat="48.40731" lon="2.03106">
        <ele>118</ele>
        <time>2011-04-30T08:33:26Z</time>
      </trkpt>
      <trkpt lat="48.4073" lon="2.03103">
        <ele>118</ele>
        <time>2011-04-30T08:33:27Z</time>
      </trkpt>
      <trkpt lat="48.4073" lon="2.03099">
        <ele>117</ele>
        <time>2011-04-30T08:33:28Z</time>
      </trkpt>
      <trkpt lat="48.40729" lon="2.03096">
        <ele>117</ele>
        <time>2011-04-30T08:33:29Z</time>
      </trkpt>
      <trkpt lat="48.40728" lon="2.03093">
        <ele>117</ele>
        <time>2011-04-30T08:33:30Z</time>
      </trkpt>
      <trkpt lat="48.40728" lon="2.0309">
        <ele>117</ele>
        <time>2011-04-30T08:33:31Z</time>
      </trkpt>
      <trkpt lat="48.40727" lon="2.03087">
        <ele>117</ele>
        <time>2011-04-30T08:33:32Z</time>
      </trkpt>
      <trkpt lat="48.40726" lon="2.03085">
        <ele>117</ele>
        <time>2011-04-30T08:33:33Z</time>
      </trkpt>
      <trkpt lat="48.40725" lon="2.03082">
        <ele>117</ele>
        <time>2011-04-30T08:33:34Z</time>
      </trkpt>
      <trkpt lat="48.40724" lon="2.03079">
        <ele>117</ele>
        <time>2011-04-30T08:33:35Z</time>
      </trkpt>
      <trkpt lat="48.40723" lon="2.03076">
        <ele>117</ele>
        <time>2011-04-30T08:33:36Z</time>
      </trkpt>
      <trkpt lat="48.40723" lon="2.03074">
        <ele>118</ele>
        <time>2011-04-30T08:33:37Z</time>
      </trkpt>
      <trkpt lat="48.40722" lon="2.03071">
        <ele>118</ele>
        <time>2011-04-30T08:33:38Z</time>
      </trkpt>
      <trkpt lat="48.40721" lon="2.03068">
        <ele>118</ele>
        <time>2011-04-30T08:33:39Z</time>
      </trkpt>
      <trkpt lat="48.4072" lon="2.03065">
        <ele>118</ele>
        <time>2011-04-30T08:33:40Z</time>
      </trkpt>
      <trkpt lat="48.40719" lon="2.03063">
        <ele>118</ele>
        <time>2011-04-30T08:33:41Z</time>
      </trkpt>
      <trkpt lat="48.40719" lon="2.0306">
        <ele>119</ele>
        <time>2011-04-30T08:33:42Z</time>
      </trkpt>
      <trkpt lat="48.40718" lon="2.03057">
        <ele>119</ele>
        <time>2011-04-30T08:33:43Z</time>
      </trkpt>
      <trkpt lat="48.40717" lon="2.03055">
        <ele>119</ele>
        <time>2011-04-30T08:33:44Z</time>
      </trkpt>
      <trkpt lat="48.40716" lon="2.03053">
        <ele>119</ele>
        <time>2011-04-30T08:33:45Z</time>
      </trkpt>
      <trkpt lat="48.40716" lon="2.03051">
        <ele>119</ele>
        <time>2011-04-30T08:33:46Z</time>
      </trkpt>
      <trkpt lat="48.40714" lon="2.03048">
        <ele>119</ele>
        <time>2011-04-30T08:33:47Z</time>
      </trkpt>
      <trkpt lat="48.40713" lon="2.03046">
        <ele>120</ele>
        <time>2011-04-30T08:33:48Z</time>
      </trkpt>
      <trkpt lat="48.40712" lon="2.03044">
        <ele>120</ele>
        <time>2011-04-30T08:33:49Z</time>
      </trkpt>
      <trkpt lat="48.40712" lon="2.03042">
        <ele>120</ele>
        <time>2011-04-30T08:33:50Z</time>
      </trkpt>
      <trkpt lat="48.40711" lon="2.0304">
        <ele>120</ele>
        <time>2011-04-30T08:33:51Z</time>
      </trkpt>
      <trkpt lat="48.4071" lon="2.03038">
        <ele>120</ele>
        <time>2011-04-30T08:33:52Z</time>
      </trkpt>
      <trkpt lat="48.40709" lon="2.03035">
        <ele>120</ele>
        <time>2011-04-30T08:33:53Z</time>
      </trkpt>
      <trkpt lat="48.40708" lon="2.03033">
        <ele>120</ele>
        <time>2011-04-30T08:33:54Z</time>
      </trkpt>
      <trkpt lat="48.40707" lon="2.03031">
        <ele>120</ele>
        <time>2011-04-30T08:33:55Z</time>
      </trkpt>
      <trkpt lat="48.40705" lon="2.03029">
        <ele>120</ele>
        <time>2011-04-30T08:33:56Z</time>
      </trkpt>
      <trkpt lat="48.40703" lon="2.03026">
        <ele>121</ele>
        <time>2011-04-30T08:33:57Z</time>
      </trkpt>
      <trkpt lat="48.40701" lon="2.03023">
        <ele>121</ele>
        <time>2011-04-30T08:33:58Z</time>
      </trkpt>
      <trkpt lat="48.40698" lon="2.0302">
        <ele>121</ele>
        <time>2011-04-30T08:33:59Z</time>
      </trkpt>
      <trkpt lat="48.40696" lon="2.03016">
        <ele>121</ele>
        <time>2011-04-30T08:34:00Z</time>
      </trkpt>
      <trkpt lat="48.40694" lon="2.03012">
        <ele>121</ele>
        <time>2011-04-30T08:34:01Z</time>
      </trkpt>
      <trkpt lat="48.40692" lon="2.03008">
        <ele>121</ele>
        <time>2011-04-30T08:34:02Z</time>
      </trkpt>
      <trkpt lat="48.40691" lon="2.03004">
        <ele>122</ele>
        <time>2011-04-30T08:34:03Z</time>
      </trkpt>
      <trkpt lat="48.4069" lon="2.03">
        <ele>122</ele>
        <time>2011-04-30T08:34:04Z</time>
      </trkpt>
      <trkpt lat="48.40689" lon="2.02995">
        <ele>122</ele>
        <time>2011-04-30T08:34:05Z</time>
      </trkpt>
      <trkpt lat="48.40688" lon="2.02991">
        <ele>122</ele>
        <time>2011-04-30T08:34:06Z</time>
      </trkpt>
      <trkpt lat="48.40686" lon="2.02988">
        <ele>122</ele>
        <time>2011-04-30T08:34:07Z</time>
      </trkpt>
      <trkpt lat="48.40686" lon="2.02984">
        <ele>122</ele>
        <time>2011-04-30T08:34:08Z</time>
      </trkpt>
      <trkpt lat="48.40685" lon="2.0298">
        <ele>122</ele>
        <time>2011-04-30T08:34:09Z</time>
      </trkpt>
      <trkpt lat="48.40685" lon="2.02977">
        <ele>121</ele>
        <time>2011-04-30T08:34:10Z</time>
      </trkpt>
      <trkpt lat="48.40684" lon="2.02974">
        <ele>121</ele>
        <time>2011-04-30T08:34:11Z</time>
      </trkpt>
      <trkpt lat="48.40683" lon="2.02971">
        <ele>121</ele>
        <time>2011-04-30T08:34:12Z</time>
      </trkpt>
      <trkpt lat="48.40682" lon="2.02969">
        <ele>121</ele>
        <time>2011-04-30T08:34:13Z</time>
      </trkpt>
      <trkpt lat="48.40682" lon="2.02966">
        <ele>121</ele>
        <time>2011-04-30T08:34:14Z</time>
      </trkpt>
      <trkpt lat="48.40681" lon="2.02963">
        <ele>121</ele>
        <time>2011-04-30T08:34:15Z</time>
      </trkpt>
      <trkpt lat="48.40681" lon="2.0296">
        <ele>121</ele>
        <time>2011-04-30T08:34:16Z</time>
      </trkpt>
      <trkpt lat="48.40681" lon="2.02956">
        <ele>121</ele>
        <time>2011-04-30T08:34:17Z</time>
      </trkpt>
      <trkpt lat="48.40681" lon="2.02952">
        <ele>121</ele>
        <time>2011-04-30T08:34:18Z</time>
      </trkpt>
      <trkpt lat="48.40681" lon="2.02949">
        <ele>121</ele>
        <time>2011-04-30T08:34:19Z</time>
      </trkpt>
      <trkpt lat="48.40681" lon="2.02945">
        <ele>121</ele>
        <time>2011-04-30T08:34:20Z</time>
      </trkpt>
      <trkpt lat="48.40681" lon="2.02942">
        <ele>121</ele>
        <time>2011-04-30T08:34:21Z</time>
      </trkpt>
      <trkpt lat="48.40682" lon="2.02938">
        <ele>121</ele>
        <time>2011-04-30T08:34:22Z</time>
      </trkpt>
      <trkpt lat="48.40682" lon="2.02934">
        <ele>120</ele>
        <time>2011-04-30T08:34:23Z</time>
      </trkpt>
      <trkpt lat="48.40683" lon="2.0293">
        <ele>120</ele>
        <time>2011-04-30T08:34:24Z</time>
      </trkpt>
      <trkpt lat="48.40684" lon="2.02927">
        <ele>120</ele>
        <time>2011-04-30T08:34:25Z</time>
      </trkpt>
      <trkpt lat="48.40684" lon="2.02923">
        <ele>120</ele>
        <time>2011-04-30T08:34:26Z</time>
      </trkpt>
      <trkpt lat="48.40685" lon="2.02919">
        <ele>120</ele>
        <time>2011-04-30T08:34:27Z</time>
      </trkpt>
      <trkpt lat="48.40686" lon="2.02916">
        <ele>120</ele>
        <time>2011-04-30T08:34:28Z</time>
      </trkpt>
      <trkpt lat="48.40686" lon="2.02912">
        <ele>120</ele>
        <time>2011-04-30T08:34:29Z</time>
      </trkpt>
      <trkpt lat="48.40686" lon="2.02909">
        <ele>120</ele>
        <time>2011-04-30T08:34:30Z</time>
      </trkpt>
      <trkpt lat="48.40687" lon="2.02906">
        <ele>120</ele>
        <time>2011-04-30T08:34:31Z</time>
      </trkpt>
      <trkpt lat="48.40687" lon="2.02903">
        <ele>120</ele>
        <time>2011-04-30T08:34:32Z</time>
      </trkpt>
      <trkpt lat="48.40688" lon="2.029">
        <ele>120</ele>
        <time>2011-04-30T08:34:33Z</time>
      </trkpt>
      <trkpt lat="48.40688" lon="2.02897">
        <ele>120</ele>
        <time>2011-04-30T08:34:34Z</time>
      </trkpt>
      <trkpt lat="48.40689" lon="2.02894">
        <ele>120</ele>
        <time>2011-04-30T08:34:35Z</time>
      </trkpt>
      <trkpt lat="48.4069" lon="2.02892">
        <ele>120</ele>
        <time>2011-04-30T08:34:36Z</time>
      </trkpt>
      <trkpt lat="48.40691" lon="2.02889">
        <ele>120</ele>
        <time>2011-04-30T08:34:37Z</time>
      </trkpt>
      <trkpt lat="48.40692" lon="2.02885">
        <ele>120</ele>
        <time>2011-04-30T08:34:38Z</time>
      </trkpt>
      <trkpt lat="48.40693" lon="2.02882">
        <ele>120</ele>
        <time>2011-04-30T08:34:39Z</time>
      </trkpt>
      <trkpt lat="48.40695" lon="2.02879">
        <ele>120</ele>
        <time>2011-04-30T08:34:40Z</time>
      </trkpt>
      <trkpt lat="48.40697" lon="2.02875">
        <ele>119</ele>
        <time>2011-04-30T08:34:41Z</time>
      </trkpt>
      <trkpt lat="48.407" lon="2.02871">
        <ele>119</ele>
        <time>2011-04-30T08:34:42Z</time>
      </trkpt>
      <trkpt lat="48.40703" lon="2.02866">
        <ele>119</ele>
        <time>2011-04-30T08:34:43Z</time>
      </trkpt>
      <trkpt lat="48.40707" lon="2.02862">
        <ele>119</ele>
        <time>2011-04-30T08:34:44Z</time>
      </trkpt>
      <trkpt lat="48.4071" lon="2.02859">
        <ele>119</ele>
        <time>2011-04-30T08:34:45Z</time>
      </trkpt>
      <trkpt lat="48.40714" lon="2.02856">
        <ele>119</ele>
        <time>2011-04-30T08:34:46Z</time>
      </trkpt>
      <trkpt lat="48.40717" lon="2.02853">
        <ele>119</ele>
        <time>2011-04-30T08:34:47Z</time>
      </trkpt>
      <trkpt lat="48.4072" lon="2.02851">
        <ele>119</ele>
        <time>2011-04-30T08:34:48Z</time>
      </trkpt>
      <trkpt lat="48.40722" lon="2.0285">
        <ele>119</ele>
        <time>2011-04-30T08:34:49Z</time>
      </trkpt>
      <trkpt lat="48.40724" lon="2.02849">
        <ele>119</ele>
        <time>2011-04-30T08:34:50Z</time>
      </trkpt>
      <trkpt lat="48.40727" lon="2.02847">
        <ele>119</ele>
        <time>2011-04-30T08:34:51Z</time>
      </trkpt>
      <trkpt lat="48.4073" lon="2.02846">
        <ele>119</ele>
        <time>2011-04-30T08:34:52Z</time>
      </trkpt>
      <trkpt lat="48.40733" lon="2.02845">
        <ele>119</ele>
        <time>2011-04-30T08:34:53Z</time>
      </trkpt>
      <trkpt lat="48.40737" lon="2.02843">
        <ele>119</ele>
        <time>2011-04-30T08:34:54Z</time>
      </trkpt>
      <trkpt lat="48.4074" lon="2.02841">
        <ele>119</ele>
        <time>2011-04-30T08:34:55Z</time>
      </trkpt>
      <trkpt lat="48.40744" lon="2.0284">
        <ele>119</ele>
        <time>2011-04-30T08:34:56Z</time>
      </trkpt>
      <trkpt lat="48.40747" lon="2.02838">
        <ele>119</ele>
        <time>2011-04-30T08:34:57Z</time>
      </trkpt>
      <trkpt lat="48.4075" lon="2.02837">
        <ele>120</ele>
        <time>2011-04-30T08:34:58Z</time>
      </trkpt>
      <trkpt lat="48.40753" lon="2.02836">
        <ele>120</ele>
        <time>2011-04-30T08:34:59Z</time>
      </trkpt>
      <trkpt lat="48.40756" lon="2.02835">
        <ele>120</ele>
        <time>2011-04-30T08:35:00Z</time>
      </trkpt>
      <trkpt lat="48.40759" lon="2.02834">
        <ele>120</ele>
        <time>2011-04-30T08:35:01Z</time>
      </trkpt>
      <trkpt lat="48.40762" lon="2.02834">
        <ele>120</ele>
        <time>2011-04-30T08:35:02Z</time>
      </trkpt>
      <trkpt lat="48.40765" lon="2.02833">
        <ele>121</ele>
        <time>2011-04-30T08:35:03Z</time>
      </trkpt>
      <trkpt lat="48.40768" lon="2.02833">
        <ele>121</ele>
        <time>2011-04-30T08:35:04Z</time>
      </trkpt>
      <trkpt lat="48.4077" lon="2.02833">
        <ele>121</ele>
        <time>2011-04-30T08:35:05Z</time>
      </trkpt>
      <trkpt lat="48.40773" lon="2.02833">
        <ele>121</ele>
        <time>2011-04-30T08:35:06Z</time>
      </trkpt>
      <trkpt lat="48.40776" lon="2.02833">
        <ele>122</ele>
        <time>2011-04-30T08:35:07Z</time>
      </trkpt>
      <trkpt lat="48.40779" lon="2.02833">
        <ele>122</ele>
        <time>2011-04-30T08:35:08Z</time>
      </trkpt>
      <trkpt lat="48.40782" lon="2.02833">
        <ele>122</ele>
        <time>2011-04-30T08:35:09Z</time>
      </trkpt>
      <trkpt lat="48.40784" lon="2.02833">
        <ele>122</ele>
        <time>2011-04-30T08:35:10Z</time>
      </trkpt>
      <trkpt lat="48.40787" lon="2.02833">
        <ele>122</ele>
        <time>2011-04-30T08:35:11Z</time>
      </trkpt>
      <trkpt lat="48.4079" lon="2.02833">
        <ele>122</ele>
        <time>2011-04-30T08:35:12Z</time>
      </trkpt>
      <trkpt lat="48.40792" lon="2.02833">
        <ele>122</ele>
        <time>2011-04-30T08:35:13Z</time>
      </trkpt>
      <trkpt lat="48.40795" lon="2.02833">
        <ele>123</ele>
        <time>2011-04-30T08:35:14Z</time>
      </trkpt>
      <trkpt lat="48.40797" lon="2.02833">
        <ele>123</ele>
        <time>2011-04-30T08:35:15Z</time>
      </trkpt>
      <trkpt lat="48.408" lon="2.02832">
        <ele>123</ele>
        <time>2011-04-30T08:35:16Z</time>
      </trkpt>
      <trkpt lat="48.40802" lon="2.02832">
        <ele>123</ele>
        <time>2011-04-30T08:35:17Z</time>
      </trkpt>
      <trkpt lat="48.40805" lon="2.02831">
        <ele>123</ele>
        <time>2011-04-30T08:35:18Z</time>
      </trkpt>
      <trkpt lat="48.40807" lon="2.02831">
        <ele>123</ele>
        <time>2011-04-30T08:35:19Z</time>
      </trkpt>
      <trkpt lat="48.4081" lon="2.0283">
        <ele>123</ele>
        <time>2011-04-30T08:35:20Z</time>
      </trkpt>
      <trkpt lat="48.40812" lon="2.02829">
        <ele>123</ele>
        <time>2011-04-30T08:35:21Z</time>
      </trkpt>
      <trkpt lat="48.40815" lon="2.02829">
        <ele>123</ele>
        <time>2011-04-30T08:35:22Z</time>
      </trkpt>
      <trkpt lat="48.40817" lon="2.02828">
        <ele>123</ele>
        <time>2011-04-30T08:35:23Z</time>
      </trkpt>
      <trkpt lat="48.40819" lon="2.02827">
        <ele>123</ele>
        <time>2011-04-30T08:35:24Z</time>
      </trkpt>
      <trkpt lat="48.40822" lon="2.02827">
        <ele>123</ele>
        <time>2011-04-30T08:35:25Z</time>
      </trkpt>
      <trkpt lat="48.40824" lon="2.02826">
        <ele>124</ele>
        <time>2011-04-30T08:35:26Z</time>
      </trkpt>
      <trkpt lat="48.40826" lon="2.02826">
        <ele>124</ele>
        <time>2011-04-30T08:35:27Z</time>
      </trkpt>
      <trkpt lat="48.40829" lon="2.02826">
        <ele>124</ele>
        <time>2011-04-30T08:35:28Z</time>
      </trkpt>
      <trkpt lat="48.40831" lon="2.02825">
        <ele>124</ele>
        <time>2011-04-30T08:35:29Z</time>
      </trkpt>
      <trkpt lat="48.40833" lon="2.02825">
        <ele>124</ele>
        <time>2011-04-30T08:35:30Z</time>
      </trkpt>
      <trkpt lat="48.40835" lon="2.02825">
        <ele>125</ele>
        <time>2011-04-30T08:35:31Z</time>
      </trkpt>
      <trkpt lat="48.40838" lon="2.02824">
        <ele>125</ele>
        <time>2011-04-30T08:35:32Z</time>
      </trkpt>
      <trkpt lat="48.4084" lon="2.02824">
        <ele>125</ele>
        <time>2011-04-30T08:35:33Z</time>
      </trkpt>
      <trkpt lat="48.40842" lon="2.02823">
        <ele>125</ele>
        <time>2011-04-30T08:35:34Z</time>
      </trkpt>
      <trkpt lat="48.40845" lon="2.02823">
        <ele>125</ele>
        <time>2011-04-30T08:35:35Z</time>
      </trkpt>
      <trkpt lat="48.40847" lon="2.02823">
        <ele>125</ele>
        <time>2011-04-30T08:35:36Z</time>
      </trkpt>
      <trkpt lat="48.40849" lon="2.02822">
        <ele>126</ele>
        <time>2011-04-30T08:35:37Z</time>
      </trkpt>
      <trkpt lat="48.40851" lon="2.02821">
        <ele>126</ele>
        <time>2011-04-30T08:35:38Z</time>
      </trkpt>
      <trkpt lat="48.40853" lon="2.02821">
        <ele>126</ele>
        <time>2011-04-30T08:35:39Z</time>
      </trkpt>
      <trkpt lat="48.40855" lon="2.0282">
        <ele>126</ele>
        <time>2011-04-30T08:35:40Z</time>
      </trkpt>
      <trkpt lat="48.40857" lon="2.02819">
        <ele>126</ele>
        <time>2011-04-30T08:35:41Z</time>
      </trkpt>
      <trkpt lat="48.40859" lon="2.02819">
        <ele>126</ele>
        <time>2011-04-30T08:35:42Z</time>
      </trkpt>
      <trkpt lat="48.40861" lon="2.02818">
        <ele>126</ele>
        <time>2011-04-30T08:35:43Z</time>
      </trkpt>
      <trkpt lat="48.40863" lon="2.02818">
        <ele>126</ele>
        <time>2011-04-30T08:35:44Z</time>
      </trkpt>
      <trkpt lat="48.40864" lon="2.02817">
        <ele>126</ele>
        <time>2011-04-30T08:35:45Z</time>
      </trkpt>
      <trkpt lat="48.40866" lon="2.02816">
        <ele>126</ele>
        <time>2011-04-30T08:35:46Z</time>
      </trkpt>
      <trkpt lat="48.40868" lon="2.02816">
        <ele>127</ele>
        <time>2011-04-30T08:35:47Z</time>
      </trkpt>
      <trkpt lat="48.4087" lon="2.02815">
        <ele>127</ele>
        <time>2011-04-30T08:35:48Z</time>
      </trkpt>
      <trkpt lat="48.40872" lon="2.02814">
        <ele>127</ele>
        <time>2011-04-30T08:35:49Z</time>
      </trkpt>
      <trkpt lat="48.40874" lon="2.02813">
        <ele>127</ele>
        <time>2011-04-30T08:35:50Z</time>
      </trkpt>
      <trkpt lat="48.40876" lon="2.02812">
        <ele>127</ele>
        <time>2011-04-30T08:35:51Z</time>
      </trkpt>
      <trkpt lat="48.40878" lon="2.02811">
        <ele>127</ele>
        <time>2011-04-30T08:35:52Z</time>
      </trkpt>
      <trkpt lat="48.4088" lon="2.0281">
        <ele>127</ele>
        <time>2011-04-30T08:35:53Z</time>
      </trkpt>
      <trkpt lat="48.40882" lon="2.02809">
        <ele>127</ele>
        <time>2011-04-30T08:35:54Z</time>
      </trkpt>
      <trkpt lat="48.40884" lon="2.02808">
        <ele>127</ele>
        <time>2011-04-30T08:35:55Z</time>
      </trkpt>
      <trkpt lat="48.40886" lon="2.02807">
        <ele>127</ele>
        <time>2011-04-30T08:35:56Z</time>
      </trkpt>
      <trkpt lat="48.40888" lon="2.02805">
        <ele>127</ele>
        <time>2011-04-30T08:35:57Z</time>
      </trkpt>
      <trkpt lat="48.4089" lon="2.02804">
        <ele>127</ele>
        <time>2011-04-30T08:35:58Z</time>
      </trkpt>
      <trkpt lat="48.40892" lon="2.02802">
        <ele>127</ele>
        <time>2011-04-30T08:35:59Z</time>
      </trkpt>
      <trkpt lat="48.40894" lon="2.02801">
        <ele>127</ele>
        <time>2011-04-30T08:36:00Z</time>
      </trkpt>
      <trkpt lat="48.40896" lon="2.02799">
        <ele>127</ele>
        <time>2011-04-30T08:36:01Z</time>
      </trkpt>
      <trkpt lat="48.40898" lon="2.02798">
        <ele>127</ele>
        <time>2011-04-30T08:36:02Z</time>
      </trkpt>
      <trkpt lat="48.409" lon="2.02796">
        <ele>127</ele>
        <time>2011-04-30T08:36:03Z</time>
      </trkpt>
      <trkpt lat="48.40902" lon="2.02795">
        <ele>127</ele>
        <time>2011-04-30T08:36:04Z</time>
      </trkpt>
      <trkpt lat="48.40904" lon="2.02793">
        <ele>127</ele>
        <time>2011-04-30T08:36:05Z</time>
      </trkpt>
      <trkpt lat="48.40906" lon="2.02791">
        <ele>127</ele>
        <time>2011-04-30T08:36:06Z</time>
      </trkpt>
      <trkpt lat="48.40908" lon="2.02789">
        <ele>127</ele>
        <time>2011-04-30T08:36:07Z</time>
      </trkpt>
      <trkpt lat="48.4091" lon="2.02787">
        <ele>127</ele>
        <time>2011-04-30T08:36:08Z</time>
      </trkpt>
      <trkpt lat="48.40912" lon="2.02785">
        <ele>127</ele>
        <time>2011-04-30T08:36:09Z</time>
      </trkpt>
      <trkpt lat="48.40914" lon="2.02784">
        <ele>127</ele>
        <time>2011-04-30T08:36:10Z</time>
      </trkpt>
      <trkpt lat="48.40916" lon="2.02782">
        <ele>128</ele>
        <time>2011-04-30T08:36:11Z</time>
      </trkpt>
      <trkpt lat="48.40918" lon="2.02781">
        <ele>130</ele>
        <time>2011-04-30T08:36:12Z</time>
      </trkpt>
      <trkpt lat="48.4092" lon="2.02779">
        <ele>130</ele>
        <time>2011-04-30T08:36:13Z</time>
      </trkpt>
      <trkpt lat="48.40921" lon="2.02778">
        <ele>130</ele>
        <time>2011-04-30T08:36:14Z</time>
      </trkpt>
      <trkpt lat="48.40923" lon="2.02776">
        <ele>130</ele>
        <time>2011-04-30T08:36:15Z</time>
      </trkpt>
      <trkpt lat="48.40925" lon="2.02774">
        <ele>130</ele>
        <time>2011-04-30T08:36:16Z</time>
      </trkpt>
      <trkpt lat="48.40927" lon="2.02773">
        <ele>130</ele>
        <time>2011-04-30T08:36:17Z</time>
      </trkpt>
      <trkpt lat="48.40929" lon="2.02771">
        <ele>130</ele>
        <time>2011-04-30T08:36:18Z</time>
      </trkpt>
      <trkpt lat="48.40931" lon="2.0277">
        <ele>130</ele>
        <time>2011-04-30T08:36:19Z</time>
      </trkpt>
      <trkpt lat="48.40934" lon="2.02768">
        <ele>130</ele>
        <time>2011-04-30T08:36:20Z</time>
      </trkpt>
      <trkpt lat="48.40936" lon="2.02767">
        <ele>130</ele>
        <time>2011-04-30T08:36:21Z</time>
      </trkpt>
      <trkpt lat="48.40938" lon="2.02766">
        <ele>130</ele>
        <time>2011-04-30T08:36:22Z</time>
      </trkpt>
      <trkpt lat="48.40941" lon="2.02765">
        <ele>130</ele>
        <time>2011-04-30T08:36:23Z</time>
      </trkpt>
      <trkpt lat="48.40944" lon="2.02764">
        <ele>130</ele>
        <time>2011-04-30T08:36:24Z</time>
      </trkpt>
      <trkpt lat="48.40947" lon="2.02764">
        <ele>130</ele>
        <time>2011-04-30T08:36:25Z</time>
      </trkpt>
      <trkpt lat="48.4095" lon="2.02763">
        <ele>130</ele>
        <time>2011-04-30T08:36:26Z</time>
      </trkpt>
      <trkpt lat="48.40953" lon="2.02763">
        <ele>130</ele>
        <time>2011-04-30T08:36:27Z</time>
      </trkpt>
      <trkpt lat="48.40955" lon="2.02763">
        <ele>130</ele>
        <time>2011-04-30T08:36:28Z</time>
      </trkpt>
      <trkpt lat="48.40958" lon="2.02764">
        <ele>130</ele>
        <time>2011-04-30T08:36:29Z</time>
      </trkpt>
      <trkpt lat="48.40961" lon="2.02764">
        <ele>130</ele>
        <time>2011-04-30T08:36:30Z</time>
      </trkpt>
      <trkpt lat="48.40964" lon="2.02765">
        <ele>130</ele>
        <time>2011-04-30T08:36:31Z</time>
      </trkpt>
      <trkpt lat="48.40966" lon="2.02765">
        <ele>130</ele>
        <time>2011-04-30T08:36:32Z</time>
      </trkpt>
      <trkpt lat="48.40969" lon="2.02766">
        <ele>130</ele>
        <time>2011-04-30T08:36:33Z</time>
      </trkpt>
      <trkpt lat="48.40972" lon="2.02767">
        <ele>130</ele>
        <time>2011-04-30T08:36:34Z</time>
      </trkpt>
      <trkpt lat="48.40974" lon="2.02768">
        <ele>130</ele>
        <time>2011-04-30T08:36:35Z</time>
      </trkpt>
      <trkpt lat="48.40976" lon="2.02768">
        <ele>130</ele>
        <time>2011-04-30T08:36:36Z</time>
      </trkpt>
      <trkpt lat="48.40979" lon="2.0277">
        <ele>130</ele>
        <time>2011-04-30T08:36:37Z</time>
      </trkpt>
      <trkpt lat="48.40981" lon="2.02771">
        <ele>130</ele>
        <time>2011-04-30T08:36:38Z</time>
      </trkpt>
      <trkpt lat="48.40983" lon="2.02772">
        <ele>130</ele>
        <time>2011-04-30T08:36:39Z</time>
      </trkpt>
      <trkpt lat="48.40985" lon="2.02773">
        <ele>130</ele>
        <time>2011-04-30T08:36:40Z</time>
      </trkpt>
      <trkpt lat="48.40987" lon="2.02774">
        <ele>131</ele>
        <time>2011-04-30T08:36:41Z</time>
      </trkpt>
      <trkpt lat="48.40989" lon="2.02776">
        <ele>131</ele>
        <time>2011-04-30T08:36:42Z</time>
      </trkpt>
      <trkpt lat="48.40991" lon="2.02777">
        <ele>131</ele>
        <time>2011-04-30T08:36:43Z</time>
      </trkpt>
      <trkpt lat="48.40993" lon="2.02779">
        <ele>131</ele>
        <time>2011-04-30T08:36:44Z</time>
      </trkpt>
      <trkpt lat="48.40994" lon="2.0278">
        <ele>131</ele>
        <time>2011-04-30T08:36:45Z</time>
      </trkpt>
      <trkpt lat="48.40996" lon="2.02782">
        <ele>131</ele>
        <time>2011-04-30T08:36:46Z</time>
      </trkpt>
      <trkpt lat="48.40998" lon="2.02783">
        <ele>131</ele>
        <time>2011-04-30T08:36:47Z</time>
      </trkpt>
      <trkpt lat="48.41" lon="2.02785">
        <ele>131</ele>
        <time>2011-04-30T08:36:48Z</time>
      </trkpt>
      <trkpt lat="48.41001" lon="2.02786">
        <ele>133</ele>
        <time>2011-04-30T08:36:49Z</time>
      </trkpt>
      <trkpt lat="48.41002" lon="2.02788">
        <ele>133</ele>
        <time>2011-04-30T08:36:50Z</time>
      </trkpt>
      <trkpt lat="48.41003" lon="2.0279">
        <ele>133</ele>
        <time>2011-04-30T08:36:51Z</time>
      </trkpt>
      <trkpt lat="48.41005" lon="2.02792">
        <ele>133</ele>
        <time>2011-04-30T08:36:52Z</time>
      </trkpt>
      <trkpt lat="48.41006" lon="2.02794">
        <ele>133</ele>
        <time>2011-04-30T08:36:53Z</time>
      </trkpt>
      <trkpt lat="48.41007" lon="2.02796">
        <ele>133</ele>
        <time>2011-04-30T08:36:54Z</time>
      </trkpt>
      <trkpt lat="48.41007" lon="2.02797">
        <ele>133</ele>
        <time>2011-04-30T08:36:55Z</time>
      </trkpt>
      <trkpt lat="48.41008" lon="2.02798">
        <ele>133</ele>
        <time>2011-04-30T08:36:56Z</time>
      </trkpt>
      <trkpt lat="48.41008" lon="2.02798">
        <ele>133</ele>
        <time>2011-04-30T08:36:57Z</time>
      </trkpt>
      <trkpt lat="48.41008" lon="2.02798">
        <ele>133</ele>
        <time>2011-04-30T08:36:58Z</time>
      </trkpt>
      <trkpt lat="48.41009" lon="2.02799">
        <ele>133</ele>
        <time>2011-04-30T08:36:59Z</time>
      </trkpt>
      <trkpt lat="48.41009" lon="2.02799">
        <ele>133</ele>
        <time>2011-04-30T08:37:00Z</time>
      </trkpt>
      <trkpt lat="48.41009" lon="2.028">
        <ele>133</ele>
        <time>2011-04-30T08:37:01Z</time>
      </trkpt>
      <trkpt lat="48.41009" lon="2.028">
        <ele>133</ele>
        <time>2011-04-30T08:37:02Z</time>
      </trkpt>
      <trkpt lat="48.4101" lon="2.028">
        <ele>133</ele>
        <time>2011-04-30T08:37:03Z</time>
      </trkpt>
      <trkpt lat="48.41011" lon="2.02799">
        <ele>133</ele>
        <time>2011-04-30T08:37:04Z</time>
      </trkpt>
      <trkpt lat="48.41011" lon="2.02799">
        <ele>133</ele>
        <time>2011-04-30T08:37:05Z</time>
      </trkpt>
      <trkpt lat="48.41011" lon="2.02799">
        <ele>133</ele>
        <time>2011-04-30T08:37:06Z</time>
      </trkpt>
      <trkpt lat="48.41011" lon="2.02799">
        <ele>133</ele>
        <time>2011-04-30T08:37:07Z</time>
      </trkpt>
      <trkpt lat="48.41011" lon="2.02799">
        <ele>133</ele>
        <time>2011-04-30T08:37:08Z</time>
      </trkpt>
      <trkpt lat="48.41011" lon="2.02799">
        <ele>133</ele>
        <time>2011-04-30T08:37:09Z</time>
      </trkpt>
      <trkpt lat="48.41012" lon="2.02799">
        <ele>133</ele>
        <time>2011-04-30T08:37:10Z</time>
      </trkpt>
      <trkpt lat="48.41013" lon="2.02798">
        <ele>133</ele>
        <time>2011-04-30T08:37:11Z</time>
      </trkpt>
      <trkpt lat="48.41014" lon="2.02798">
        <ele>133</ele>
        <time>2011-04-30T08:37:12Z</time>
      </trkpt>
      <trkpt lat="48.41016" lon="2.02796">
        <ele>133</ele>
        <time>2011-04-30T08:37:13Z</time>
      </trkpt>
      <trkpt lat="48.41016" lon="2.02796">
        <ele>133</ele>
        <time>2011-04-30T08:37:14Z</time>
      </trkpt>
      <trkpt lat="48.41016" lon="2.02795">
        <ele>133</ele>
        <time>2011-04-30T08:37:15Z</time>
      </trkpt>
      <trkpt lat="48.41016" lon="2.02794">
        <ele>133</ele>
        <time>2011-04-30T08:37:16Z</time>
      </trkpt>
      <trkpt lat="48.41015" lon="2.02794">
        <ele>133</ele>
        <time>2011-04-30T08:37:17Z</time>
      </trkpt>
      <trkpt lat="48.41014" lon="2.02794">
        <ele>133</ele>
        <time>2011-04-30T08:37:18Z</time>
      </trkpt>
      <trkpt lat="48.41014" lon="2.02795">
        <ele>133</ele>
        <time>2011-04-30T08:37:19Z</time>
      </trkpt>
      <trkpt lat="48.41014" lon="2.02795">
        <ele>133</ele>
        <time>2011-04-30T08:37:20Z</time>
      </trkpt>
      <trkpt lat="48.41014" lon="2.02795">
        <ele>133</ele>
        <time>2011-04-30T08:37:21Z</time>
      </trkpt>
      <trkpt lat="48.41014" lon="2.02794">
        <ele>133</ele>
        <time>2011-04-30T08:37:22Z</time>
      </trkpt>
      <trkpt lat="48.41014" lon="2.02793">
        <ele>133</ele>
        <time>2011-04-30T08:37:23Z</time>
      </trkpt>
      <trkpt lat="48.41015" lon="2.02791">
        <ele>133</ele>
        <time>2011-04-30T08:37:24Z</time>
      </trkpt>
      <trkpt lat="48.41015" lon="2.0279">
        <ele>133</ele>
        <time>2011-04-30T08:37:25Z</time>
      </trkpt>
      <trkpt lat="48.41016" lon="2.02788">
        <ele>133</ele>
        <time>2011-04-30T08:37:26Z</time>
      </trkpt>
      <trkpt lat="48.41017" lon="2.02786">
        <ele>133</ele>
        <time>2011-04-30T08:37:27Z</time>
      </trkpt>
      <trkpt lat="48.41018" lon="2.02784">
        <ele>133</ele>
        <time>2011-04-30T08:37:28Z</time>
      </trkpt>
      <trkpt lat="48.41019" lon="2.02781">
        <ele>133</ele>
        <time>2011-04-30T08:37:29Z</time>
      </trkpt>
      <trkpt lat="48.4102" lon="2.02779">
        <ele>133</ele>
        <time>2011-04-30T08:37:30Z</time>
      </trkpt>
      <trkpt lat="48.4102" lon="2.02777">
        <ele>133</ele>
        <time>2011-04-30T08:37:31Z</time>
      </trkpt>
      <trkpt lat="48.41021" lon="2.02774">
        <ele>133</ele>
        <time>2011-04-30T08:37:32Z</time>
      </trkpt>
      <trkpt lat="48.41022" lon="2.02772">
        <ele>133</ele>
        <time>2011-04-30T08:37:33Z</time>
      </trkpt>
      <trkpt lat="48.41023" lon="2.0277">
        <ele>133</ele>
        <time>2011-04-30T08:37:34Z</time>
      </trkpt>
      <trkpt lat="48.41024" lon="2.02767">
        <ele>132</ele>
        <time>2011-04-30T08:37:35Z</time>
      </trkpt>
      <trkpt lat="48.41025" lon="2.02765">
        <ele>132</ele>
        <time>2011-04-30T08:37:36Z</time>
      </trkpt>
      <trkpt lat="48.41025" lon="2.02762">
        <ele>132</ele>
        <time>2011-04-30T08:37:37Z</time>
      </trkpt>
      <trkpt lat="48.41026" lon="2.02759">
        <ele>132</ele>
        <time>2011-04-30T08:37:38Z</time>
      </trkpt>
      <trkpt lat="48.41027" lon="2.02757">
        <ele>132</ele>
        <time>2011-04-30T08:37:39Z</time>
      </trkpt>
      <trkpt lat="48.41028" lon="2.02754">
        <ele>132</ele>
        <time>2011-04-30T08:37:40Z</time>
      </trkpt>
      <trkpt lat="48.41028" lon="2.02751">
        <ele>132</ele>
        <time>2011-04-30T08:37:41Z</time>
      </trkpt>
      <trkpt lat="48.41029" lon="2.02749">
        <ele>132</ele>
        <time>2011-04-30T08:37:42Z</time>
      </trkpt>
      <trkpt lat="48.4103" lon="2.02746">
        <ele>132</ele>
        <time>2011-04-30T08:37:43Z</time>
      </trkpt>
      <trkpt lat="48.41031" lon="2.02743">
        <ele>132</ele>
        <time>2011-04-30T08:37:44Z</time>
      </trkpt>
      <trkpt lat="48.41032" lon="2.02741">
        <ele>132</ele>
        <time>2011-04-30T08:37:45Z</time>
      </trkpt>
      <trkpt lat="48.41033" lon="2.02738">
        <ele>132</ele>
        <time>2011-04-30T08:37:46Z</time>
      </trkpt>
      <trkpt lat="48.41034" lon="2.02735">
        <ele>132</ele>
        <time>2011-04-30T08:37:47Z</time>
      </trkpt>
      <trkpt lat="48.41034" lon="2.02732">
        <ele>133</ele>
        <time>2011-04-30T08:37:48Z</time>
      </trkpt>
      <trkpt lat="48.41035" lon="2.02729">
        <ele>133</ele>
        <time>2011-04-30T08:37:49Z</time>
      </trkpt>
      <trkpt lat="48.41036" lon="2.02726">
        <ele>133</ele>
        <time>2011-04-30T08:37:50Z</time>
      </trkpt>
      <trkpt lat="48.41037" lon="2.02723">
        <ele>133</ele>
        <time>2011-04-30T08:37:51Z</time>
      </trkpt>
      <trkpt lat="48.41038" lon="2.0272">
        <ele>133</ele>
        <time>2011-04-30T08:37:52Z</time>
      </trkpt>
      <trkpt lat="48.41039" lon="2.02718">
        <ele>133</ele>
        <time>2011-04-30T08:37:53Z</time>
      </trkpt>
      <trkpt lat="48.4104" lon="2.02715">
        <ele>133</ele>
        <time>2011-04-30T08:37:54Z</time>
      </trkpt>
      <trkpt lat="48.41041" lon="2.02712">
        <ele>133</ele>
        <time>2011-04-30T08:37:55Z</time>
      </trkpt>
      <trkpt lat="48.41042" lon="2.02709">
        <ele>133</ele>
        <time>2011-04-30T08:37:56Z</time>
      </trkpt>
      <trkpt lat="48.41043" lon="2.02706">
        <ele>133</ele>
        <time>2011-04-30T08:37:57Z</time>
      </trkpt>
      <trkpt lat="48.41043" lon="2.02703">
        <ele>133</ele>
        <time>2011-04-30T08:37:58Z</time>
      </trkpt>
      <trkpt lat="48.41044" lon="2.027">
        <ele>133</ele>
        <time>2011-04-30T08:37:59Z</time>
      </trkpt>
      <trkpt lat="48.41045" lon="2.02696">
        <ele>133</ele>
        <time>2011-04-30T08:38:00Z</time>
      </trkpt>
      <trkpt lat="48.41046" lon="2.02693">
        <ele>133</ele>
        <time>2011-04-30T08:38:01Z</time>
      </trkpt>
      <trkpt lat="48.41047" lon="2.0269">
        <ele>133</ele>
        <time>2011-04-30T08:38:02Z</time>
      </trkpt>
      <trkpt lat="48.41047" lon="2.02687">
        <ele>133</ele>
        <time>2011-04-30T08:38:03Z</time>
      </trkpt>
      <trkpt lat="48.41048" lon="2.02684">
        <ele>133</ele>
        <time>2011-04-30T08:38:04Z</time>
      </trkpt>
      <trkpt lat="48.41049" lon="2.02681">
        <ele>134</ele>
        <time>2011-04-30T08:38:05Z</time>
      </trkpt>
      <trkpt lat="48.41049" lon="2.02678">
        <ele>134</ele>
        <time>2011-04-30T08:38:06Z</time>
      </trkpt>
      <trkpt lat="48.4105" lon="2.02675">
        <ele>134</ele>
        <time>2011-04-30T08:38:07Z</time>
      </trkpt>
      <trkpt lat="48.41051" lon="2.02671">
        <ele>134</ele>
        <time>2011-04-30T08:38:08Z</time>
      </trkpt>
      <trkpt lat="48.41051" lon="2.02668">
        <ele>134</ele>
        <time>2011-04-30T08:38:09Z</time>
      </trkpt>
      <trkpt lat="48.41052" lon="2.02665">
        <ele>135</ele>
        <time>2011-04-30T08:38:10Z</time>
      </trkpt>
      <trkpt lat="48.41053" lon="2.02662">
        <ele>135</ele>
        <time>2011-04-30T08:38:11Z</time>
      </trkpt>
      <trkpt lat="48.41054" lon="2.02659">
        <ele>135</ele>
        <time>2011-04-30T08:38:12Z</time>
      </trkpt>
      <trkpt lat="48.41054" lon="2.02655">
        <ele>135</ele>
        <time>2011-04-30T08:38:13Z</time>
      </trkpt>
      <trkpt lat="48.41055" lon="2.02652">
        <ele>135</ele>
        <time>2011-04-30T08:38:14Z</time>
      </trkpt>
      <trkpt lat="48.41056" lon="2.02649">
        <ele>135</ele>
        <time>2011-04-30T08:38:15Z</time>
      </trkpt>
      <trkpt lat="48.41057" lon="2.02646">
        <ele>135</ele>
        <time>2011-04-30T08:38:16Z</time>
      </trkpt>
      <trkpt lat="48.41058" lon="2.02643">
        <ele>135</ele>
        <time>2011-04-30T08:38:17Z</time>
      </trkpt>
      <trkpt lat="48.41059" lon="2.0264">
        <ele>135</ele>
        <time>2011-04-30T08:38:18Z</time>
      </trkpt>
      <trkpt lat="48.41059" lon="2.02636">
        <ele>135</ele>
        <time>2011-04-30T08:38:19Z</time>
      </trkpt>
      <trkpt lat="48.4106" lon="2.02633">
        <ele>135</ele>
        <time>2011-04-30T08:38:20Z</time>
      </trkpt>
      <trkpt lat="48.41061" lon="2.0263">
        <ele>135</ele>
        <time>2011-04-30T08:38:21Z</time>
      </trkpt>
      <trkpt lat="48.41062" lon="2.02627">
        <ele>136</ele>
        <time>2011-04-30T08:38:22Z</time>
      </trkpt>
      <trkpt lat="48.41062" lon="2.02624">
        <ele>136</ele>
        <time>2011-04-30T08:38:23Z</time>
      </trkpt>
      <trkpt lat="48.41063" lon="2.02621">
        <ele>136</ele>
        <time>2011-04-30T08:38:24Z</time>
      </trkpt>
      <trkpt lat="48.41064" lon="2.02618">
        <ele>136</ele>
        <time>2011-04-30T08:38:25Z</time>
      </trkpt>
      <trkpt lat="48.41065" lon="2.02615">
        <ele>136</ele>
        <time>2011-04-30T08:38:26Z</time>
      </trkpt>
      <trkpt lat="48.41066" lon="2.02612">
        <ele>136</ele>
        <time>2011-04-30T08:38:27Z</time>
      </trkpt>
      <trkpt lat="48.41066" lon="2.02609">
        <ele>136</ele>
        <time>2011-04-30T08:38:28Z</time>
      </trkpt>
      <trkpt lat="48.41067" lon="2.02606">
        <ele>136</ele>
        <time>2011-04-30T08:38:29Z</time>
      </trkpt>
      <trkpt lat="48.41068" lon="2.02602">
        <ele>136</ele>
        <time>2011-04-30T08:38:30Z</time>
      </trkpt>
      <trkpt lat="48.41069" lon="2.02599">
        <ele>137</ele>
        <time>2011-04-30T08:38:31Z</time>
      </trkpt>
      <trkpt lat="48.41069" lon="2.02596">
        <ele>137</ele>
        <time>2011-04-30T08:38:32Z</time>
      </trkpt>
      <trkpt lat="48.4107" lon="2.02593">
        <ele>137</ele>
        <time>2011-04-30T08:38:33Z</time>
      </trkpt>
      <trkpt lat="48.41071" lon="2.0259">
        <ele>137</ele>
        <time>2011-04-30T08:38:34Z</time>
      </trkpt>
      <trkpt lat="48.41072" lon="2.02587">
        <ele>137</ele>
        <time>2011-04-30T08:38:35Z</time>
      </trkpt>
      <trkpt lat="48.41072" lon="2.02584">
        <ele>138</ele>
        <time>2011-04-30T08:38:36Z</time>
      </trkpt>
      <trkpt lat="48.41073" lon="2.02581">
        <ele>138</ele>
        <time>2011-04-30T08:38:37Z</time>
      </trkpt>
      <trkpt lat="48.41074" lon="2.02578">
        <ele>138</ele>
        <time>2011-04-30T08:38:38Z</time>
      </trkpt>
      <trkpt lat="48.41075" lon="2.02575">
        <ele>138</ele>
        <time>2011-04-30T08:38:39Z</time>
      </trkpt>
      <trkpt lat="48.41075" lon="2.02572">
        <ele>138</ele>
        <time>2011-04-30T08:38:40Z</time>
      </trkpt>
      <trkpt lat="48.41076" lon="2.02569">
        <ele>138</ele>
        <time>2011-04-30T08:38:41Z</time>
      </trkpt>
      <trkpt lat="48.41077" lon="2.02566">
        <ele>138</ele>
        <time>2011-04-30T08:38:42Z</time>
      </trkpt>
      <trkpt lat="48.41077" lon="2.02563">
        <ele>138</ele>
        <time>2011-04-30T08:38:43Z</time>
      </trkpt>
      <trkpt lat="48.41078" lon="2.0256">
        <ele>138</ele>
        <time>2011-04-30T08:38:44Z</time>
      </trkpt>
      <trkpt lat="48.41079" lon="2.02557">
        <ele>138</ele>
        <time>2011-04-30T08:38:45Z</time>
      </trkpt>
      <trkpt lat="48.41079" lon="2.02554">
        <ele>138</ele>
        <time>2011-04-30T08:38:46Z</time>
      </trkpt>
      <trkpt lat="48.4108" lon="2.02551">
        <ele>138</ele>
        <time>2011-04-30T08:38:47Z</time>
      </trkpt>
      <trkpt lat="48.41081" lon="2.02549">
        <ele>138</ele>
        <time>2011-04-30T08:38:48Z</time>
      </trkpt>
      <trkpt lat="48.41082" lon="2.02546">
        <ele>138</ele>
        <time>2011-04-30T08:38:49Z</time>
      </trkpt>
      <trkpt lat="48.41082" lon="2.02544">
        <ele>138</ele>
        <time>2011-04-30T08:38:50Z</time>
      </trkpt>
      <trkpt lat="48.41083" lon="2.02541">
        <ele>138</ele>
        <time>2011-04-30T08:38:51Z</time>
      </trkpt>
      <trkpt lat="48.41083" lon="2.02539">
        <ele>138</ele>
        <time>2011-04-30T08:38:52Z</time>
      </trkpt>
      <trkpt lat="48.41084" lon="2.02538">
        <ele>140</ele>
        <time>2011-04-30T08:38:53Z</time>
      </trkpt>
      <trkpt lat="48.41084" lon="2.02536">
        <ele>140</ele>
        <time>2011-04-30T08:38:54Z</time>
      </trkpt>
      <trkpt lat="48.41084" lon="2.02535">
        <ele>140</ele>
        <time>2011-04-30T08:38:55Z</time>
      </trkpt>
      <trkpt lat="48.41085" lon="2.02533">
        <ele>140</ele>
        <time>2011-04-30T08:38:56Z</time>
      </trkpt>
      <trkpt lat="48.41086" lon="2.0253">
        <ele>140</ele>
        <time>2011-04-30T08:38:57Z</time>
      </trkpt>
      <trkpt lat="48.41086" lon="2.02528">
        <ele>140</ele>
        <time>2011-04-30T08:38:58Z</time>
      </trkpt>
      <trkpt lat="48.41087" lon="2.02526">
        <ele>140</ele>
        <time>2011-04-30T08:38:59Z</time>
      </trkpt>
      <trkpt lat="48.41087" lon="2.02523">
        <ele>140</ele>
        <time>2011-04-30T08:39:00Z</time>
      </trkpt>
      <trkpt lat="48.41086" lon="2.02519">
        <ele>140</ele>
        <time>2011-04-30T08:39:01Z</time>
      </trkpt>
      <trkpt lat="48.41085" lon="2.02516">
        <ele>140</ele>
        <time>2011-04-30T08:39:02Z</time>
      </trkpt>
      <trkpt lat="48.41084" lon="2.02513">
        <ele>140</ele>
        <time>2011-04-30T08:39:03Z</time>
      </trkpt>
      <trkpt lat="48.41084" lon="2.02511">
        <ele>140</ele>
        <time>2011-04-30T08:39:04Z</time>
      </trkpt>
      <trkpt lat="48.41083" lon="2.0251">
        <ele>140</ele>
        <time>2011-04-30T08:39:05Z</time>
      </trkpt>
      <trkpt lat="48.41082" lon="2.02509">
        <ele>139</ele>
        <time>2011-04-30T08:39:06Z</time>
      </trkpt>
      <trkpt lat="48.41081" lon="2.02509">
        <ele>139</ele>
        <time>2011-04-30T08:39:07Z</time>
      </trkpt>
      <trkpt lat="48.4108" lon="2.02508">
        <ele>139</ele>
        <time>2011-04-30T08:39:08Z</time>
      </trkpt>
      <trkpt lat="48.41079" lon="2.02508">
        <ele>139</ele>
        <time>2011-04-30T08:39:09Z</time>
      </trkpt>
      <trkpt lat="48.41079" lon="2.02508">
        <ele>139</ele>
        <time>2011-04-30T08:39:10Z</time>
      </trkpt>
      <trkpt lat="48.41079" lon="2.02507">
        <ele>139</ele>
        <time>2011-04-30T08:39:11Z</time>
      </trkpt>
      <trkpt lat="48.4108" lon="2.02507">
        <ele>139</ele>
        <time>2011-04-30T08:39:12Z</time>
      </trkpt>
      <trkpt lat="48.4108" lon="2.02506">
        <ele>139</ele>
        <time>2011-04-30T08:39:13Z</time>
      </trkpt>
      <trkpt lat="48.4108" lon="2.02506">
        <ele>139</ele>
        <time>2011-04-30T08:39:14Z</time>
      </trkpt>
      <trkpt lat="48.4108" lon="2.02506">
        <ele>139</ele>
        <time>2011-04-30T08:39:15Z</time>
      </trkpt>
      <trkpt lat="48.4108" lon="2.02505">
        <ele>139</ele>
        <time>2011-04-30T08:39:16Z</time>
      </trkpt>
      <trkpt lat="48.4108" lon="2.02505">
        <ele>139</ele>
        <time>2011-04-30T08:39:17Z</time>
      </trkpt>
      <trkpt lat="48.41081" lon="2.02505">
        <ele>139</ele>
        <time>2011-04-30T08:39:18Z</time>
      </trkpt>
      <trkpt lat="48.41081" lon="2.02504">
        <ele>139</ele>
        <time>2011-04-30T08:39:19Z</time>
      </trkpt>
      <trkpt lat="48.41081" lon="2.02504">
        <ele>139</ele>
        <time>2011-04-30T08:39:20Z</time>
      </trkpt>
      <trkpt lat="48.41081" lon="2.02504">
        <ele>139</ele>
        <time>2011-04-30T08:39:21Z</time>
      </trkpt>
      <trkpt lat="48.41081" lon="2.02504">
        <ele>139</ele>
        <time>2011-04-30T08:39:22Z</time>
      </trkpt>
      <trkpt lat="48.41081" lon="2.02504">
        <ele>139</ele>
        <time>2011-04-30T08:39:23Z</time>
      </trkpt>
      <trkpt lat="48.41082" lon="2.02504">
        <ele>139</ele>
        <time>2011-04-30T08:39:24Z</time>
      </trkpt>
      <trkpt lat="48.41082" lon="2.02503">
        <ele>140</ele>
        <time>2011-04-30T08:39:25Z</time>
      </trkpt>
      <trkpt lat="48.41082" lon="2.02503">
        <ele>140</ele>
        <time>2011-04-30T08:39:26Z</time>
      </trkpt>
      <trkpt lat="48.41082" lon="2.02503">
        <ele>140</ele>
        <time>2011-04-30T08:39:27Z</time>
      </trkpt>
      <trkpt lat="48.41082" lon="2.02502">
        <ele>140</ele>
        <time>2011-04-30T08:39:28Z</time>
      </trkpt>
      <trkpt lat="48.41082" lon="2.02502">
        <ele>140</ele>
        <time>2011-04-30T08:39:29Z</time>
      </trkpt>
      <trkpt lat="48.41082" lon="2.02501">
        <ele>140</ele>
        <time>2011-04-30T08:39:30Z</time>
      </trkpt>
      <trkpt lat="48.41082" lon="2.025">
        <ele>140</ele>
        <time>2011-04-30T08:39:31Z</time>
      </trkpt>
      <trkpt lat="48.41082" lon="2.025">
        <ele>140</ele>
        <time>2011-04-30T08:39:32Z</time>
      </trkpt>
      <trkpt lat="48.41082" lon="2.025">
        <ele>140</ele>
        <time>2011-04-30T08:39:33Z</time>
      </trkpt>
      <trkpt lat="48.41082" lon="2.02499">
        <ele>140</ele>
        <time>2011-04-30T08:39:34Z</time>
      </trkpt>
      <trkpt lat="48.41082" lon="2.02498">
        <ele>140</ele>
        <time>2011-04-30T08:39:35Z</time>
      </trkpt>
      <trkpt lat="48.41081" lon="2.02495">
        <ele>139</ele>
        <time>2011-04-30T08:39:36Z</time>
      </trkpt>
      <trkpt lat="48.41079" lon="2.02493">
        <ele>139</ele>
        <time>2011-04-30T08:39:37Z</time>
      </trkpt>
      <trkpt lat="48.41078" lon="2.0249">
        <ele>139</ele>
        <time>2011-04-30T08:39:38Z</time>
      </trkpt>
      <trkpt lat="48.41077" lon="2.02486">
        <ele>139</ele>
        <time>2011-04-30T08:39:39Z</time>
      </trkpt>
      <trkpt lat="48.41075" lon="2.02483">
        <ele>139</ele>
        <time>2011-04-30T08:39:40Z</time>
      </trkpt>
      <trkpt lat="48.41074" lon="2.02481">
        <ele>138</ele>
        <time>2011-04-30T08:39:41Z</time>
      </trkpt>
      <trkpt lat="48.41072" lon="2.02478">
        <ele>138</ele>
        <time>2011-04-30T08:39:42Z</time>
      </trkpt>
      <trkpt lat="48.4107" lon="2.02476">
        <ele>138</ele>
        <time>2011-04-30T08:39:43Z</time>
      </trkpt>
      <trkpt lat="48.41069" lon="2.02474">
        <ele>138</ele>
        <time>2011-04-30T08:39:44Z</time>
      </trkpt>
      <trkpt lat="48.41067" lon="2.02471">
        <ele>138</ele>
        <time>2011-04-30T08:39:45Z</time>
      </trkpt>
      <trkpt lat="48.41066" lon="2.02469">
        <ele>138</ele>
        <time>2011-04-30T08:39:46Z</time>
      </trkpt>
      <trkpt lat="48.41066" lon="2.02467">
        <ele>138</ele>
        <time>2011-04-30T08:39:47Z</time>
      </trkpt>
      <trkpt lat="48.41066" lon="2.02465">
        <ele>138</ele>
        <time>2011-04-30T08:39:48Z</time>
      </trkpt>
      <trkpt lat="48.41066" lon="2.02462">
        <ele>138</ele>
        <time>2011-04-30T08:39:49Z</time>
      </trkpt>
      <trkpt lat="48.41067" lon="2.02459">
        <ele>138</ele>
        <time>2011-04-30T08:39:50Z</time>
      </trkpt>
      <trkpt lat="48.41068" lon="2.02457">
        <ele>138</ele>
        <time>2011-04-30T08:39:51Z</time>
      </trkpt>
      <trkpt lat="48.4107" lon="2.02455">
        <ele>138</ele>
        <time>2011-04-30T08:39:52Z</time>
      </trkpt>
      <trkpt lat="48.41071" lon="2.02452">
        <ele>138</ele>
        <time>2011-04-30T08:39:53Z</time>
      </trkpt>
      <trkpt lat="48.41073" lon="2.0245">
        <ele>138</ele>
        <time>2011-04-30T08:39:54Z</time>
      </trkpt>
      <trkpt lat="48.41075" lon="2.02448">
        <ele>138</ele>
        <time>2011-04-30T08:39:55Z</time>
      </trkpt>
      <trkpt lat="48.41077" lon="2.02446">
        <ele>138</ele>
        <time>2011-04-30T08:39:56Z</time>
      </trkpt>
      <trkpt lat="48.41079" lon="2.02444">
        <ele>138</ele>
        <time>2011-04-30T08:39:57Z</time>
      </trkpt>
      <trkpt lat="48.41081" lon="2.02442">
        <ele>138</ele>
        <time>2011-04-30T08:39:58Z</time>
      </trkpt>
      <trkpt lat="48.41083" lon="2.0244">
        <ele>139</ele>
        <time>2011-04-30T08:39:59Z</time>
      </trkpt>
      <trkpt lat="48.41085" lon="2.02439">
        <ele>140</ele>
        <time>2011-04-30T08:40:00Z</time>
      </trkpt>
      <trkpt lat="48.41087" lon="2.02437">
        <ele>140</ele>
        <time>2011-04-30T08:40:01Z</time>
      </trkpt>
      <trkpt lat="48.41089" lon="2.02434">
        <ele>140</ele>
        <time>2011-04-30T08:40:02Z</time>
      </trkpt>
      <trkpt lat="48.41091" lon="2.02432">
        <ele>140</ele>
        <time>2011-04-30T08:40:03Z</time>
      </trkpt>
      <trkpt lat="48.41093" lon="2.0243">
        <ele>140</ele>
        <time>2011-04-30T08:40:04Z</time>
      </trkpt>
      <trkpt lat="48.41096" lon="2.02428">
        <ele>140</ele>
        <time>2011-04-30T08:40:05Z</time>
      </trkpt>
      <trkpt lat="48.41098" lon="2.02425">
        <ele>140</ele>
        <time>2011-04-30T08:40:06Z</time>
      </trkpt>
      <trkpt lat="48.41099" lon="2.02423">
        <ele>140</ele>
        <time>2011-04-30T08:40:07Z</time>
      </trkpt>
      <trkpt lat="48.41101" lon="2.02421">
        <ele>140</ele>
        <time>2011-04-30T08:40:08Z</time>
      </trkpt>
      <trkpt lat="48.41103" lon="2.02419">
        <ele>140</ele>
        <time>2011-04-30T08:40:09Z</time>
      </trkpt>
      <trkpt lat="48.41105" lon="2.02416">
        <ele>140</ele>
        <time>2011-04-30T08:40:10Z</time>
      </trkpt>
      <trkpt lat="48.41107" lon="2.02414">
        <ele>140</ele>
        <time>2011-04-30T08:40:11Z</time>
      </trkpt>
      <trkpt lat="48.41109" lon="2.02411">
        <ele>140</ele>
        <time>2011-04-30T08:40:12Z</time>
      </trkpt>
      <trkpt lat="48.41111" lon="2.02409">
        <ele>140</ele>
        <time>2011-04-30T08:40:13Z</time>
      </trkpt>
      <trkpt lat="48.41113" lon="2.02407">
        <ele>140</ele>
        <time>2011-04-30T08:40:14Z</time>
      </trkpt>
      <trkpt lat="48.41115" lon="2.02404">
        <ele>140</ele>
        <time>2011-04-30T08:40:15Z</time>
      </trkpt>
      <trkpt lat="48.41116" lon="2.02402">
        <ele>140</ele>
        <time>2011-04-30T08:40:16Z</time>
      </trkpt>
      <trkpt lat="48.41118" lon="2.024">
        <ele>140</ele>
        <time>2011-04-30T08:40:17Z</time>
      </trkpt>
      <trkpt lat="48.4112" lon="2.02398">
        <ele>140</ele>
        <time>2011-04-30T08:40:18Z</time>
      </trkpt>
      <trkpt lat="48.41121" lon="2.02396">
        <ele>140</ele>
        <time>2011-04-30T08:40:19Z</time>
      </trkpt>
      <trkpt lat="48.41123" lon="2.02394">
        <ele>140</ele>
        <time>2011-04-30T08:40:20Z</time>
      </trkpt>
      <trkpt lat="48.41124" lon="2.02392">
        <ele>140</ele>
        <time>2011-04-30T08:40:21Z</time>
      </trkpt>
      <trkpt lat="48.41125" lon="2.0239">
        <ele>140</ele>
        <time>2011-04-30T08:40:22Z</time>
      </trkpt>
      <trkpt lat="48.41125" lon="2.02387">
        <ele>141</ele>
        <time>2011-04-30T08:40:23Z</time>
      </trkpt>
      <trkpt lat="48.41125" lon="2.02384">
        <ele>141</ele>
        <time>2011-04-30T08:40:24Z</time>
      </trkpt>
      <trkpt lat="48.41126" lon="2.0238">
        <ele>141</ele>
        <time>2011-04-30T08:40:25Z</time>
      </trkpt>
      <trkpt lat="48.41125" lon="2.02377">
        <ele>141</ele>
        <time>2011-04-30T08:40:26Z</time>
      </trkpt>
      <trkpt lat="48.41125" lon="2.02373">
        <ele>141</ele>
        <time>2011-04-30T08:40:27Z</time>
      </trkpt>
      <trkpt lat="48.41125" lon="2.0237">
        <ele>141</ele>
        <time>2011-04-30T08:40:28Z</time>
      </trkpt>
      <trkpt lat="48.41125" lon="2.02367">
        <ele>141</ele>
        <time>2011-04-30T08:40:29Z</time>
      </trkpt>
      <trkpt lat="48.41125" lon="2.02364">
        <ele>140</ele>
        <time>2011-04-30T08:40:30Z</time>
      </trkpt>
      <trkpt lat="48.41125" lon="2.02361">
        <ele>140</ele>
        <time>2011-04-30T08:40:31Z</time>
      </trkpt>
      <trkpt lat="48.41125" lon="2.02357">
        <ele>140</ele>
        <time>2011-04-30T08:40:32Z</time>
      </trkpt>
      <trkpt lat="48.41125" lon="2.02354">
        <ele>140</ele>
        <time>2011-04-30T08:40:33Z</time>
      </trkpt>
      <trkpt lat="48.41125" lon="2.02351">
        <ele>140</ele>
        <time>2011-04-30T08:40:34Z</time>
      </trkpt>
      <trkpt lat="48.41125" lon="2.02348">
        <ele>140</ele>
        <time>2011-04-30T08:40:35Z</time>
      </trkpt>
      <trkpt lat="48.41125" lon="2.02345">
        <ele>140</ele>
        <time>2011-04-30T08:40:36Z</time>
      </trkpt>
      <trkpt lat="48.41125" lon="2.02342">
        <ele>140</ele>
        <time>2011-04-30T08:40:37Z</time>
      </trkpt>
      <trkpt lat="48.41125" lon="2.02339">
        <ele>140</ele>
        <time>2011-04-30T08:40:38Z</time>
      </trkpt>
      <trkpt lat="48.41125" lon="2.02337">
        <ele>140</ele>
        <time>2011-04-30T08:40:39Z</time>
      </trkpt>
      <trkpt lat="48.41125" lon="2.02334">
        <ele>140</ele>
        <time>2011-04-30T08:40:40Z</time>
      </trkpt>
      <trkpt lat="48.41125" lon="2.02331">
        <ele>140</ele>
        <time>2011-04-30T08:40:41Z</time>
      </trkpt>
      <trkpt lat="48.41125" lon="2.02328">
        <ele>140</ele>
        <time>2011-04-30T08:40:42Z</time>
      </trkpt>
      <trkpt lat="48.41125" lon="2.02325">
        <ele>140</ele>
        <time>2011-04-30T08:40:43Z</time>
      </trkpt>
      <trkpt lat="48.41125" lon="2.02322">
        <ele>140</ele>
        <time>2011-04-30T08:40:44Z</time>
      </trkpt>
      <trkpt lat="48.41126" lon="2.02319">
        <ele>140</ele>
        <time>2011-04-30T08:40:45Z</time>
      </trkpt>
      <trkpt lat="48.41126" lon="2.02317">
        <ele>140</ele>
        <time>2011-04-30T08:40:46Z</time>
      </trkpt>
      <trkpt lat="48.41127" lon="2.02314">
        <ele>140</ele>
        <time>2011-04-30T08:40:47Z</time>
      </trkpt>
      <trkpt lat="48.41127" lon="2.0231">
        <ele>140</ele>
        <time>2011-04-30T08:40:48Z</time>
      </trkpt>
      <trkpt lat="48.41128" lon="2.02307">
        <ele>140</ele>
        <time>2011-04-30T08:40:49Z</time>
      </trkpt>
      <trkpt lat="48.41128" lon="2.02303">
        <ele>140</ele>
        <time>2011-04-30T08:40:50Z</time>
      </trkpt>
      <trkpt lat="48.41129" lon="2.023">
        <ele>140</ele>
        <time>2011-04-30T08:40:51Z</time>
      </trkpt>
      <trkpt lat="48.41129" lon="2.02296">
        <ele>140</ele>
        <time>2011-04-30T08:40:52Z</time>
      </trkpt>
      <trkpt lat="48.4113" lon="2.02292">
        <ele>140</ele>
        <time>2011-04-30T08:40:53Z</time>
      </trkpt>
      <trkpt lat="48.41131" lon="2.02288">
        <ele>140</ele>
        <time>2011-04-30T08:40:54Z</time>
      </trkpt>
      <trkpt lat="48.41131" lon="2.02284">
        <ele>140</ele>
        <time>2011-04-30T08:40:55Z</time>
      </trkpt>
      <trkpt lat="48.41132" lon="2.02279">
        <ele>140</ele>
        <time>2011-04-30T08:40:56Z</time>
      </trkpt>
      <trkpt lat="48.41132" lon="2.02275">
        <ele>140</ele>
        <time>2011-04-30T08:40:57Z</time>
      </trkpt>
      <trkpt lat="48.41133" lon="2.02271">
        <ele>140</ele>
        <time>2011-04-30T08:40:58Z</time>
      </trkpt>
      <trkpt lat="48.41133" lon="2.02267">
        <ele>140</ele>
        <time>2011-04-30T08:40:59Z</time>
      </trkpt>
      <trkpt lat="48.41134" lon="2.02262">
        <ele>140</ele>
        <time>2011-04-30T08:41:00Z</time>
      </trkpt>
      <trkpt lat="48.41134" lon="2.02258">
        <ele>140</ele>
        <time>2011-04-30T08:41:01Z</time>
      </trkpt>
      <trkpt lat="48.41134" lon="2.02254">
        <ele>140</ele>
        <time>2011-04-30T08:41:02Z</time>
      </trkpt>
      <trkpt lat="48.41135" lon="2.0225">
        <ele>140</ele>
        <time>2011-04-30T08:41:03Z</time>
      </trkpt>
      <trkpt lat="48.41136" lon="2.02246">
        <ele>139</ele>
        <time>2011-04-30T08:41:04Z</time>
      </trkpt>
      <trkpt lat="48.41137" lon="2.02242">
        <ele>139</ele>
        <time>2011-04-30T08:41:05Z</time>
      </trkpt>
      <trkpt lat="48.41137" lon="2.02238">
        <ele>139</ele>
        <time>2011-04-30T08:41:06Z</time>
      </trkpt>
      <trkpt lat="48.41138" lon="2.02234">
        <ele>139</ele>
        <time>2011-04-30T08:41:07Z</time>
      </trkpt>
      <trkpt lat="48.41139" lon="2.02229">
        <ele>139</ele>
        <time>2011-04-30T08:41:08Z</time>
      </trkpt>
      <trkpt lat="48.41139" lon="2.02225">
        <ele>139</ele>
        <time>2011-04-30T08:41:09Z</time>
      </trkpt>
      <trkpt lat="48.4114" lon="2.02221">
        <ele>139</ele>
        <time>2011-04-30T08:41:10Z</time>
      </trkpt>
      <trkpt lat="48.41141" lon="2.02217">
        <ele>139</ele>
        <time>2011-04-30T08:41:11Z</time>
      </trkpt>
      <trkpt lat="48.41142" lon="2.02213">
        <ele>139</ele>
        <time>2011-04-30T08:41:12Z</time>
      </trkpt>
      <trkpt lat="48.41143" lon="2.02209">
        <ele>139</ele>
        <time>2011-04-30T08:41:13Z</time>
      </trkpt>
      <trkpt lat="48.41144" lon="2.02205">
        <ele>139</ele>
        <time>2011-04-30T08:41:14Z</time>
      </trkpt>
      <trkpt lat="48.41145" lon="2.02202">
        <ele>139</ele>
        <time>2011-04-30T08:41:15Z</time>
      </trkpt>
      <trkpt lat="48.41146" lon="2.02199">
        <ele>139</ele>
        <time>2011-04-30T08:41:16Z</time>
      </trkpt>
      <trkpt lat="48.41147" lon="2.02195">
        <ele>139</ele>
        <time>2011-04-30T08:41:17Z</time>
      </trkpt>
      <trkpt lat="48.41149" lon="2.02192">
        <ele>139</ele>
        <time>2011-04-30T08:41:18Z</time>
      </trkpt>
      <trkpt lat="48.4115" lon="2.02188">
        <ele>139</ele>
        <time>2011-04-30T08:41:19Z</time>
      </trkpt>
      <trkpt lat="48.41151" lon="2.02184">
        <ele>139</ele>
        <time>2011-04-30T08:41:20Z</time>
      </trkpt>
      <trkpt lat="48.41152" lon="2.0218">
        <ele>139</ele>
        <time>2011-04-30T08:41:21Z</time>
      </trkpt>
      <trkpt lat="48.41153" lon="2.02176">
        <ele>139</ele>
        <time>2011-04-30T08:41:22Z</time>
      </trkpt>
      <trkpt lat="48.41155" lon="2.02172">
        <ele>139</ele>
        <time>2011-04-30T08:41:23Z</time>
      </trkpt>
      <trkpt lat="48.41156" lon="2.02169">
        <ele>139</ele>
        <time>2011-04-30T08:41:24Z</time>
      </trkpt>
      <trkpt lat="48.41157" lon="2.02165">
        <ele>138</ele>
        <time>2011-04-30T08:41:25Z</time>
      </trkpt>
      <trkpt lat="48.41158" lon="2.02161">
        <ele>138</ele>
        <time>2011-04-30T08:41:26Z</time>
      </trkpt>
      <trkpt lat="48.41159" lon="2.02158">
        <ele>138</ele>
        <time>2011-04-30T08:41:27Z</time>
      </trkpt>
      <trkpt lat="48.4116" lon="2.02155">
        <ele>138</ele>
        <time>2011-04-30T08:41:28Z</time>
      </trkpt>
      <trkpt lat="48.41162" lon="2.02152">
        <ele>138</ele>
        <time>2011-04-30T08:41:29Z</time>
      </trkpt>
      <trkpt lat="48.41163" lon="2.02149">
        <ele>138</ele>
        <time>2011-04-30T08:41:30Z</time>
      </trkpt>
      <trkpt lat="48.41165" lon="2.02146">
        <ele>138</ele>
        <time>2011-04-30T08:41:31Z</time>
      </trkpt>
      <trkpt lat="48.41167" lon="2.02143">
        <ele>138</ele>
        <time>2011-04-30T08:41:32Z</time>
      </trkpt>
      <trkpt lat="48.41168" lon="2.0214">
        <ele>139</ele>
        <time>2011-04-30T08:41:33Z</time>
      </trkpt>
      <trkpt lat="48.4117" lon="2.02138">
        <ele>139</ele>
        <time>2011-04-30T08:41:34Z</time>
      </trkpt>
      <trkpt lat="48.41172" lon="2.02135">
        <ele>139</ele>
        <time>2011-04-30T08:41:35Z</time>
      </trkpt>
      <trkpt lat="48.41174" lon="2.02133">
        <ele>139</ele>
        <time>2011-04-30T08:41:36Z</time>
      </trkpt>
      <trkpt lat="48.41176" lon="2.0213">
        <ele>139</ele>
        <time>2011-04-30T08:41:37Z</time>
      </trkpt>
      <trkpt lat="48.41178" lon="2.02128">
        <ele>139</ele>
        <time>2011-04-30T08:41:38Z</time>
      </trkpt>
      <trkpt lat="48.4118" lon="2.02125">
        <ele>139</ele>
        <time>2011-04-30T08:41:39Z</time>
      </trkpt>
      <trkpt lat="48.41182" lon="2.02123">
        <ele>139</ele>
        <time>2011-04-30T08:41:40Z</time>
      </trkpt>
      <trkpt lat="48.41184" lon="2.02121">
        <ele>139</ele>
        <time>2011-04-30T08:41:41Z</time>
      </trkpt>
      <trkpt lat="48.41185" lon="2.0212">
        <ele>139</ele>
        <time>2011-04-30T08:41:42Z</time>
      </trkpt>
      <trkpt lat="48.41186" lon="2.02119">
        <ele>139</ele>
        <time>2011-04-30T08:41:43Z</time>
      </trkpt>
      <trkpt lat="48.41186" lon="2.02117">
        <ele>139</ele>
        <time>2011-04-30T08:41:44Z</time>
      </trkpt>
      <trkpt lat="48.41187" lon="2.02116">
        <ele>139</ele>
        <time>2011-04-30T08:41:45Z</time>
      </trkpt>
      <trkpt lat="48.41188" lon="2.02115">
        <ele>139</ele>
        <time>2011-04-30T08:41:46Z</time>
      </trkpt>
      <trkpt lat="48.41189" lon="2.02114">
        <ele>139</ele>
        <time>2011-04-30T08:41:47Z</time>
      </trkpt>
      <trkpt lat="48.41191" lon="2.02113">
        <ele>139</ele>
        <time>2011-04-30T08:41:48Z</time>
      </trkpt>
      <trkpt lat="48.41191" lon="2.02112">
        <ele>139</ele>
        <time>2011-04-30T08:41:49Z</time>
      </trkpt>
      <trkpt lat="48.41192" lon="2.02111">
        <ele>139</ele>
        <time>2011-04-30T08:41:50Z</time>
      </trkpt>
      <trkpt lat="48.41192" lon="2.0211">
        <ele>139</ele>
        <time>2011-04-30T08:41:51Z</time>
      </trkpt>
      <trkpt lat="48.41192" lon="2.0211">
        <ele>139</ele>
        <time>2011-04-30T08:41:52Z</time>
      </trkpt>
      <trkpt lat="48.41192" lon="2.0211">
        <ele>139</ele>
        <time>2011-04-30T08:41:53Z</time>
      </trkpt>
      <trkpt lat="48.41191" lon="2.0211">
        <ele>139</ele>
        <time>2011-04-30T08:41:54Z</time>
      </trkpt>
      <trkpt lat="48.41191" lon="2.0211">
        <ele>139</ele>
        <time>2011-04-30T08:41:55Z</time>
      </trkpt>
      <trkpt lat="48.4119" lon="2.02111">
        <ele>139</ele>
        <time>2011-04-30T08:41:56Z</time>
      </trkpt>
      <trkpt lat="48.4119" lon="2.02111">
        <ele>139</ele>
        <time>2011-04-30T08:41:57Z</time>
      </trkpt>
      <trkpt lat="48.4119" lon="2.02112">
        <ele>139</ele>
        <time>2011-04-30T08:41:58Z</time>
      </trkpt>
      <trkpt lat="48.4119" lon="2.02112">
        <ele>139</ele>
        <time>2011-04-30T08:41:59Z</time>
      </trkpt>
      <trkpt lat="48.4119" lon="2.02112">
        <ele>139</ele>
        <time>2011-04-30T08:42:00Z</time>
      </trkpt>
      <trkpt lat="48.41189" lon="2.02113">
        <ele>139</ele>
        <time>2011-04-30T08:42:01Z</time>
      </trkpt>
      <trkpt lat="48.41189" lon="2.02113">
        <ele>139</ele>
        <time>2011-04-30T08:42:02Z</time>
      </trkpt>
      <trkpt lat="48.41189" lon="2.02114">
        <ele>139</ele>
        <time>2011-04-30T08:42:03Z</time>
      </trkpt>
      <trkpt lat="48.41189" lon="2.02114">
        <ele>139</ele>
        <time>2011-04-30T08:42:04Z</time>
      </trkpt>
      <trkpt lat="48.41189" lon="2.02114">
        <ele>139</ele>
        <time>2011-04-30T08:42:05Z</time>
      </trkpt>
      <trkpt lat="48.41189" lon="2.02115">
        <ele>139</ele>
        <time>2011-04-30T08:42:06Z</time>
      </trkpt>
      <trkpt lat="48.41189" lon="2.02116">
        <ele>139</ele>
        <time>2011-04-30T08:42:07Z</time>
      </trkpt>
      <trkpt lat="48.41189" lon="2.02117">
        <ele>139</ele>
        <time>2011-04-30T08:42:08Z</time>
      </trkpt>
      <trkpt lat="48.4119" lon="2.02117">
        <ele>139</ele>
        <time>2011-04-30T08:42:09Z</time>
      </trkpt>
      <trkpt lat="48.4119" lon="2.02118">
        <ele>139</ele>
        <time>2011-04-30T08:42:10Z</time>
      </trkpt>
      <trkpt lat="48.41191" lon="2.02119">
        <ele>139</ele>
        <time>2011-04-30T08:42:11Z</time>
      </trkpt>
      <trkpt lat="48.41191" lon="2.02118">
        <ele>139</ele>
        <time>2011-04-30T08:42:12Z</time>
      </trkpt>
      <trkpt lat="48.41191" lon="2.02118">
        <ele>139</ele>
        <time>2011-04-30T08:42:13Z</time>
      </trkpt>
      <trkpt lat="48.41191" lon="2.02118">
        <ele>139</ele>
        <time>2011-04-30T08:42:14Z</time>
      </trkpt>
      <trkpt lat="48.41191" lon="2.02118">
        <ele>139</ele>
        <time>2011-04-30T08:42:15Z</time>
      </trkpt>
      <trkpt lat="48.41191" lon="2.02118">
        <ele>139</ele>
        <time>2011-04-30T08:42:16Z</time>
      </trkpt>
      <trkpt lat="48.4119" lon="2.02118">
        <ele>139</ele>
        <time>2011-04-30T08:42:17Z</time>
      </trkpt>
      <trkpt lat="48.4119" lon="2.02117">
        <ele>139</ele>
        <time>2011-04-30T08:42:18Z</time>
      </trkpt>
      <trkpt lat="48.4119" lon="2.02117">
        <ele>139</ele>
        <time>2011-04-30T08:42:19Z</time>
      </trkpt>
      <trkpt lat="48.4119" lon="2.02117">
        <ele>139</ele>
        <time>2011-04-30T08:42:20Z</time>
      </trkpt>
      <trkpt lat="48.4119" lon="2.02117">
        <ele>139</ele>
        <time>2011-04-30T08:42:21Z</time>
      </trkpt>
      <trkpt lat="48.4119" lon="2.02117">
        <ele>139</ele>
        <time>2011-04-30T08:42:22Z</time>
      </trkpt>
      <trkpt lat="48.4119" lon="2.02117">
        <ele>139</ele>
        <time>2011-04-30T08:42:23Z</time>
      </trkpt>
      <trkpt lat="48.4119" lon="2.02117">
        <ele>139</ele>
        <time>2011-04-30T08:42:24Z</time>
      </trkpt>
      <trkpt lat="48.4119" lon="2.02117">
        <ele>139</ele>
        <time>2011-04-30T08:42:25Z</time>
      </trkpt>
      <trkpt lat="48.4119" lon="2.02117">
        <ele>139</ele>
        <time>2011-04-30T08:42:26Z</time>
      </trkpt>
      <trkpt lat="48.4119" lon="2.02117">
        <ele>139</ele>
        <time>2011-04-30T08:42:27Z</time>
      </trkpt>
      <trkpt lat="48.41189" lon="2.02118">
        <ele>139</ele>
        <time>2011-04-30T08:42:28Z</time>
      </trkpt>
      <trkpt lat="48.41189" lon="2.02118">
        <ele>139</ele>
        <time>2011-04-30T08:42:29Z</time>
      </trkpt>
      <trkpt lat="48.41189" lon="2.02118">
        <ele>139</ele>
        <time>2011-04-30T08:42:30Z</time>
      </trkpt>
      <trkpt lat="48.41189" lon="2.02118">
        <ele>139</ele>
        <time>2011-04-30T08:42:31Z</time>
      </trkpt>
      <trkpt lat="48.41189" lon="2.02118">
        <ele>139</ele>
        <time>2011-04-30T08:42:32Z</time>
      </trkpt>
      <trkpt lat="48.41189" lon="2.02118">
        <ele>139</ele>
        <time>2011-04-30T08:42:33Z</time>
      </trkpt>
      <trkpt lat="48.41189" lon="2.02117">
        <ele>139</ele>
        <time>2011-04-30T08:42:34Z</time>
      </trkpt>
      <trkpt lat="48.4119" lon="2.02117">
        <ele>139</ele>
        <time>2011-04-30T08:42:35Z</time>
      </trkpt>
      <trkpt lat="48.4119" lon="2.02116">
        <ele>139</ele>
        <time>2011-04-30T08:42:36Z</time>
      </trkpt>
      <trkpt lat="48.4119" lon="2.02115">
        <ele>139</ele>
        <time>2011-04-30T08:42:37Z</time>
      </trkpt>
      <trkpt lat="48.4119" lon="2.02115">
        <ele>139</ele>
        <time>2011-04-30T08:42:38Z</time>
      </trkpt>
      <trkpt lat="48.4119" lon="2.02114">
        <ele>139</ele>
        <time>2011-04-30T08:42:39Z</time>
      </trkpt>
      <trkpt lat="48.41189" lon="2.02114">
        <ele>139</ele>
        <time>2011-04-30T08:42:40Z</time>
      </trkpt>
      <trkpt lat="48.41189" lon="2.02114">
        <ele>139</ele>
        <time>2011-04-30T08:42:41Z</time>
      </trkpt>
      <trkpt lat="48.41189" lon="2.02114">
        <ele>139</ele>
        <time>2011-04-30T08:42:42Z</time>
      </trkpt>
      <trkpt lat="48.41189" lon="2.02114">
        <ele>139</ele>
        <time>2011-04-30T08:42:43Z</time>
      </trkpt>
      <trkpt lat="48.41189" lon="2.02115">
        <ele>139</ele>
        <time>2011-04-30T08:42:44Z</time>
      </trkpt>
      <trkpt lat="48.41189" lon="2.02115">
        <ele>139</ele>
        <time>2011-04-30T08:42:45Z</time>
      </trkpt>
      <trkpt lat="48.41189" lon="2.02116">
        <ele>139</ele>
        <time>2011-04-30T08:42:46Z</time>
      </trkpt>
      <trkpt lat="48.41189" lon="2.02117">
        <ele>139</ele>
        <time>2011-04-30T08:42:47Z</time>
      </trkpt>
      <trkpt lat="48.41189" lon="2.02117">
        <ele>139</ele>
        <time>2011-04-30T08:42:48Z</time>
      </trkpt>
      <trkpt lat="48.4119" lon="2.02118">
        <ele>139</ele>
        <time>2011-04-30T08:42:49Z</time>
      </trkpt>
      <trkpt lat="48.4119" lon="2.02119">
        <ele>139</ele>
        <time>2011-04-30T08:42:50Z</time>
      </trkpt>
      <trkpt lat="48.4119" lon="2.02119">
        <ele>139</ele>
        <time>2011-04-30T08:42:51Z</time>
      </trkpt>
      <trkpt lat="48.41191" lon="2.02119">
        <ele>139</ele>
        <time>2011-04-30T08:42:52Z</time>
      </trkpt>
      <trkpt lat="48.41191" lon="2.02119">
        <ele>139</ele>
        <time>2011-04-30T08:42:53Z</time>
      </trkpt>
      <trkpt lat="48.41191" lon="2.02119">
        <ele>139</ele>
        <time>2011-04-30T08:42:54Z</time>
      </trkpt>
      <trkpt lat="48.41191" lon="2.0212">
        <ele>139</ele>
        <time>2011-04-30T08:42:55Z</time>
      </trkpt>
      <trkpt lat="48.41191" lon="2.0212">
        <ele>139</ele>
        <time>2011-04-30T08:42:56Z</time>
      </trkpt>
      <trkpt lat="48.41191" lon="2.02121">
        <ele>139</ele>
        <time>2011-04-30T08:42:57Z</time>
      </trkpt>
      <trkpt lat="48.41191" lon="2.02121">
        <ele>139</ele>
        <time>2011-04-30T08:42:58Z</time>
      </trkpt>
      <trkpt lat="48.41191" lon="2.02122">
        <ele>139</ele>
        <time>2011-04-30T08:42:59Z</time>
      </trkpt>
      <trkpt lat="48.41192" lon="2.02122">
        <ele>139</ele>
        <time>2011-04-30T08:43:00Z</time>
      </trkpt>
      <trkpt lat="48.41192" lon="2.02123">
        <ele>139</ele>
        <time>2011-04-30T08:43:01Z</time>
      </trkpt>
      <trkpt lat="48.41192" lon="2.02123">
        <ele>139</ele>
        <time>2011-04-30T08:43:02Z</time>
      </trkpt>
      <trkpt lat="48.41192" lon="2.02123">
        <ele>139</ele>
        <time>2011-04-30T08:43:03Z</time>
      </trkpt>
      <trkpt lat="48.41192" lon="2.02123">
        <ele>139</ele>
        <time>2011-04-30T08:43:04Z</time>
      </trkpt>
      <trkpt lat="48.41192" lon="2.02124">
        <ele>139</ele>
        <time>2011-04-30T08:43:05Z</time>
      </trkpt>
      <trkpt lat="48.41192" lon="2.02124">
        <ele>139</ele>
        <time>2011-04-30T08:43:06Z</time>
      </trkpt>
      <trkpt lat="48.41192" lon="2.02124">
        <ele>139</ele>
        <time>2011-04-30T08:43:07Z</time>
      </trkpt>
      <trkpt lat="48.41192" lon="2.02124">
        <ele>139</ele>
        <time>2011-04-30T08:43:08Z</time>
      </trkpt>
      <trkpt lat="48.41193" lon="2.02124">
        <ele>139</ele>
        <time>2011-04-30T08:43:09Z</time>
      </trkpt>
      <trkpt lat="48.41193" lon="2.02123">
        <ele>139</ele>
        <time>2011-04-30T08:43:10Z</time>
      </trkpt>
      <trkpt lat="48.41193" lon="2.02123">
        <ele>139</ele>
        <time>2011-04-30T08:43:11Z</time>
      </trkpt>
      <trkpt lat="48.41193" lon="2.02123">
        <ele>139</ele>
        <time>2011-04-30T08:43:12Z</time>
      </trkpt>
      <trkpt lat="48.41193" lon="2.02123">
        <ele>139</ele>
        <time>2011-04-30T08:43:13Z</time>
      </trkpt>
      <trkpt lat="48.41193" lon="2.02123">
        <ele>139</ele>
        <time>2011-04-30T08:43:14Z</time>
      </trkpt>
      <trkpt lat="48.41193" lon="2.02123">
        <ele>139</ele>
        <time>2011-04-30T08:43:15Z</time>
      </trkpt>
      <trkpt lat="48.41193" lon="2.02122">
        <ele>139</ele>
        <time>2011-04-30T08:43:16Z</time>
      </trkpt>
      <trkpt lat="48.41193" lon="2.02122">
        <ele>139</ele>
        <time>2011-04-30T08:43:17Z</time>
      </trkpt>
      <trkpt lat="48.41193" lon="2.02122">
        <ele>139</ele>
        <time>2011-04-30T08:43:18Z</time>
      </trkpt>
      <trkpt lat="48.41193" lon="2.02122">
        <ele>139</ele>
        <time>2011-04-30T08:43:19Z</time>
      </trkpt>
      <trkpt lat="48.41194" lon="2.02124">
        <ele>139</ele>
        <time>2011-04-30T08:43:20Z</time>
      </trkpt>
      <trkpt lat="48.41195" lon="2.02126">
        <ele>139</ele>
        <time>2011-04-30T08:43:21Z</time>
      </trkpt>
      <trkpt lat="48.41195" lon="2.02128">
        <ele>139</ele>
        <time>2011-04-30T08:43:22Z</time>
      </trkpt>
      <trkpt lat="48.41196" lon="2.02129">
        <ele>139</ele>
        <time>2011-04-30T08:43:23Z</time>
      </trkpt>
      <trkpt lat="48.41197" lon="2.02131">
        <ele>139</ele>
        <time>2011-04-30T08:43:24Z</time>
      </trkpt>
      <trkpt lat="48.41198" lon="2.02133">
        <ele>139</ele>
        <time>2011-04-30T08:43:25Z</time>
      </trkpt>
      <trkpt lat="48.41199" lon="2.02135">
        <ele>139</ele>
        <time>2011-04-30T08:43:26Z</time>
      </trkpt>
      <trkpt lat="48.412" lon="2.02137">
        <ele>139</ele>
        <time>2011-04-30T08:43:27Z</time>
      </trkpt>
      <trkpt lat="48.41201" lon="2.02139">
        <ele>139</ele>
        <time>2011-04-30T08:43:28Z</time>
      </trkpt>
      <trkpt lat="48.41202" lon="2.02142">
        <ele>139</ele>
        <time>2011-04-30T08:43:29Z</time>
      </trkpt>
      <trkpt lat="48.41203" lon="2.02144">
        <ele>139</ele>
        <time>2011-04-30T08:43:30Z</time>
      </trkpt>
      <trkpt lat="48.41204" lon="2.02147">
        <ele>139</ele>
        <time>2011-04-30T08:43:31Z</time>
      </trkpt>
      <trkpt lat="48.41204" lon="2.0215">
        <ele>139</ele>
        <time>2011-04-30T08:43:32Z</time>
      </trkpt>
      <trkpt lat="48.41205" lon="2.02153">
        <ele>139</ele>
        <time>2011-04-30T08:43:33Z</time>
      </trkpt>
      <trkpt lat="48.41205" lon="2.02155">
        <ele>139</ele>
        <time>2011-04-30T08:43:34Z</time>
      </trkpt>
      <trkpt lat="48.41206" lon="2.02157">
        <ele>139</ele>
        <time>2011-04-30T08:43:35Z</time>
      </trkpt>
      <trkpt lat="48.41206" lon="2.0216">
        <ele>139</ele>
        <time>2011-04-30T08:43:36Z</time>
      </trkpt>
      <trkpt lat="48.41207" lon="2.02162">
        <ele>139</ele>
        <time>2011-04-30T08:43:37Z</time>
      </trkpt>
      <trkpt lat="48.41207" lon="2.02164">
        <ele>140</ele>
        <time>2011-04-30T08:43:38Z</time>
      </trkpt>
      <trkpt lat="48.41208" lon="2.02167">
        <ele>140</ele>
        <time>2011-04-30T08:43:39Z</time>
      </trkpt>
      <trkpt lat="48.41209" lon="2.02169">
        <ele>141</ele>
        <time>2011-04-30T08:43:40Z</time>
      </trkpt>
      <trkpt lat="48.41209" lon="2.02171">
        <ele>141</ele>
        <time>2011-04-30T08:43:41Z</time>
      </trkpt>
      <trkpt lat="48.4121" lon="2.02174">
        <ele>141</ele>
        <time>2011-04-30T08:43:42Z</time>
      </trkpt>
      <trkpt lat="48.4121" lon="2.02176">
        <ele>141</ele>
        <time>2011-04-30T08:43:43Z</time>
      </trkpt>
      <trkpt lat="48.41211" lon="2.02179">
        <ele>141</ele>
        <time>2011-04-30T08:43:44Z</time>
      </trkpt>
      <trkpt lat="48.41212" lon="2.02181">
        <ele>141</ele>
        <time>2011-04-30T08:43:45Z</time>
      </trkpt>
      <trkpt lat="48.41212" lon="2.02184">
        <ele>141</ele>
        <time>2011-04-30T08:43:46Z</time>
      </trkpt>
      <trkpt lat="48.41213" lon="2.02187">
        <ele>141</ele>
        <time>2011-04-30T08:43:47Z</time>
      </trkpt>
      <trkpt lat="48.41213" lon="2.02189">
        <ele>141</ele>
        <time>2011-04-30T08:43:48Z</time>
      </trkpt>
      <trkpt lat="48.41214" lon="2.02192">
        <ele>141</ele>
        <time>2011-04-30T08:43:49Z</time>
      </trkpt>
      <trkpt lat="48.41215" lon="2.02195">
        <ele>141</ele>
        <time>2011-04-30T08:43:50Z</time>
      </trkpt>
      <trkpt lat="48.41215" lon="2.02197">
        <ele>141</ele>
        <time>2011-04-30T08:43:51Z</time>
      </trkpt>
      <trkpt lat="48.41216" lon="2.022">
        <ele>141</ele>
        <time>2011-04-30T08:43:52Z</time>
      </trkpt>
      <trkpt lat="48.41217" lon="2.02202">
        <ele>141</ele>
        <time>2011-04-30T08:43:53Z</time>
      </trkpt>
      <trkpt lat="48.41218" lon="2.02205">
        <ele>141</ele>
        <time>2011-04-30T08:43:54Z</time>
      </trkpt>
      <trkpt lat="48.41218" lon="2.02207">
        <ele>141</ele>
        <time>2011-04-30T08:43:55Z</time>
      </trkpt>
      <trkpt lat="48.41219" lon="2.0221">
        <ele>141</ele>
        <time>2011-04-30T08:43:56Z</time>
      </trkpt>
      <trkpt lat="48.4122" lon="2.02213">
        <ele>141</ele>
        <time>2011-04-30T08:43:57Z</time>
      </trkpt>
      <trkpt lat="48.4122" lon="2.02215">
        <ele>141</ele>
        <time>2011-04-30T08:43:58Z</time>
      </trkpt>
      <trkpt lat="48.41221" lon="2.02219">
        <ele>141</ele>
        <time>2011-04-30T08:43:59Z</time>
      </trkpt>
      <trkpt lat="48.41221" lon="2.02223">
        <ele>141</ele>
        <time>2011-04-30T08:44:00Z</time>
      </trkpt>
      <trkpt lat="48.41221" lon="2.02227">
        <ele>141</ele>
        <time>2011-04-30T08:44:01Z</time>
      </trkpt>
      <trkpt lat="48.41221" lon="2.02231">
        <ele>141</ele>
        <time>2011-04-30T08:44:02Z</time>
      </trkpt>
      <trkpt lat="48.41221" lon="2.02235">
        <ele>141</ele>
        <time>2011-04-30T08:44:03Z</time>
      </trkpt>
      <trkpt lat="48.4122" lon="2.02239">
        <ele>141</ele>
        <time>2011-04-30T08:44:04Z</time>
      </trkpt>
      <trkpt lat="48.4122" lon="2.02243">
        <ele>141</ele>
        <time>2011-04-30T08:44:05Z</time>
      </trkpt>
      <trkpt lat="48.41219" lon="2.02247">
        <ele>141</ele>
        <time>2011-04-30T08:44:06Z</time>
      </trkpt>
      <trkpt lat="48.41219" lon="2.0225">
        <ele>141</ele>
        <time>2011-04-30T08:44:07Z</time>
      </trkpt>
      <trkpt lat="48.41219" lon="2.02251">
        <ele>142</ele>
        <time>2011-04-30T08:44:08Z</time>
      </trkpt>
      <trkpt lat="48.41219" lon="2.02253">
        <ele>142</ele>
        <time>2011-04-30T08:44:09Z</time>
      </trkpt>
      <trkpt lat="48.41218" lon="2.02253">
        <ele>142</ele>
        <time>2011-04-30T08:44:10Z</time>
      </trkpt>
      <trkpt lat="48.41218" lon="2.02254">
        <ele>142</ele>
        <time>2011-04-30T08:44:11Z</time>
      </trkpt>
      <trkpt lat="48.41218" lon="2.02255">
        <ele>142</ele>
        <time>2011-04-30T08:44:12Z</time>
      </trkpt>
      <trkpt lat="48.41218" lon="2.02255">
        <ele>142</ele>
        <time>2011-04-30T08:44:13Z</time>
      </trkpt>
      <trkpt lat="48.41218" lon="2.02255">
        <ele>142</ele>
        <time>2011-04-30T08:44:14Z</time>
      </trkpt>
      <trkpt lat="48.41218" lon="2.02255">
        <ele>142</ele>
        <time>2011-04-30T08:44:15Z</time>
      </trkpt>
      <trkpt lat="48.41218" lon="2.02255">
        <ele>142</ele>
        <time>2011-04-30T08:44:16Z</time>
      </trkpt>
      <trkpt lat="48.41219" lon="2.02255">
        <ele>142</ele>
        <time>2011-04-30T08:44:17Z</time>
      </trkpt>
      <trkpt lat="48.41219" lon="2.02255">
        <ele>142</ele>
        <time>2011-04-30T08:44:18Z</time>
      </trkpt>
      <trkpt lat="48.41219" lon="2.02255">
        <ele>142</ele>
        <time>2011-04-30T08:44:19Z</time>
      </trkpt>
      <trkpt lat="48.41219" lon="2.02255">
        <ele>142</ele>
        <time>2011-04-30T08:44:20Z</time>
      </trkpt>
      <trkpt lat="48.41219" lon="2.02254">
        <ele>142</ele>
        <time>2011-04-30T08:44:21Z</time>
      </trkpt>
      <trkpt lat="48.4122" lon="2.02254">
        <ele>142</ele>
        <time>2011-04-30T08:44:22Z</time>
      </trkpt>
      <trkpt lat="48.4122" lon="2.02254">
        <ele>142</ele>
        <time>2011-04-30T08:44:23Z</time>
      </trkpt>
      <trkpt lat="48.41219" lon="2.02254">
        <ele>142</ele>
        <time>2011-04-30T08:44:24Z</time>
      </trkpt>
      <trkpt lat="48.41219" lon="2.02254">
        <ele>142</ele>
        <time>2011-04-30T08:44:25Z</time>
      </trkpt>
      <trkpt lat="48.41219" lon="2.02254">
        <ele>142</ele>
        <time>2011-04-30T08:44:26Z</time>
      </trkpt>
      <trkpt lat="48.41219" lon="2.02254">
        <ele>142</ele>
        <time>2011-04-30T08:44:27Z</time>
      </trkpt>
      <trkpt lat="48.41219" lon="2.02254">
        <ele>142</ele>
        <time>2011-04-30T08:44:28Z</time>
      </trkpt>
      <trkpt lat="48.41219" lon="2.02253">
        <ele>142</ele>
        <time>2011-04-30T08:44:29Z</time>
      </trkpt>
      <trkpt lat="48.41219" lon="2.02253">
        <ele>142</ele>
        <time>2011-04-30T08:44:30Z</time>
      </trkpt>
      <trkpt lat="48.41219" lon="2.02253">
        <ele>142</ele>
        <time>2011-04-30T08:44:31Z</time>
      </trkpt>
      <trkpt lat="48.4122" lon="2.02253">
        <ele>142</ele>
        <time>2011-04-30T08:44:32Z</time>
      </trkpt>
      <trkpt lat="48.4122" lon="2.02253">
        <ele>142</ele>
        <time>2011-04-30T08:44:33Z</time>
      </trkpt>
      <trkpt lat="48.4122" lon="2.02253">
        <ele>142</ele>
        <time>2011-04-30T08:44:34Z</time>
      </trkpt>
      <trkpt lat="48.4122" lon="2.02253">
        <ele>142</ele>
        <time>2011-04-30T08:44:35Z</time>
      </trkpt>
      <trkpt lat="48.4122" lon="2.02254">
        <ele>142</ele>
        <time>2011-04-30T08:44:36Z</time>
      </trkpt>
      <trkpt lat="48.4122" lon="2.02254">
        <ele>142</ele>
        <time>2011-04-30T08:44:37Z</time>
      </trkpt>
      <trkpt lat="48.4122" lon="2.02254">
        <ele>142</ele>
        <time>2011-04-30T08:44:38Z</time>
      </trkpt>
      <trkpt lat="48.4122" lon="2.02255">
        <ele>142</ele>
        <time>2011-04-30T08:44:39Z</time>
      </trkpt>
      <trkpt lat="48.41221" lon="2.02256">
        <ele>142</ele>
        <time>2011-04-30T08:44:40Z</time>
      </trkpt>
      <trkpt lat="48.41221" lon="2.02256">
        <ele>142</ele>
        <time>2011-04-30T08:44:41Z</time>
      </trkpt>
      <trkpt lat="48.41221" lon="2.02257">
        <ele>142</ele>
        <time>2011-04-30T08:44:42Z</time>
      </trkpt>
      <trkpt lat="48.41222" lon="2.02258">
        <ele>142</ele>
        <time>2011-04-30T08:44:43Z</time>
      </trkpt>
      <trkpt lat="48.41222" lon="2.02258">
        <ele>142</ele>
        <time>2011-04-30T08:44:44Z</time>
      </trkpt>
      <trkpt lat="48.41223" lon="2.02259">
        <ele>142</ele>
        <time>2011-04-30T08:44:45Z</time>
      </trkpt>
      <trkpt lat="48.41223" lon="2.0226">
        <ele>142</ele>
        <time>2011-04-30T08:44:46Z</time>
      </trkpt>
      <trkpt lat="48.41224" lon="2.0226">
        <ele>142</ele>
        <time>2011-04-30T08:44:47Z</time>
      </trkpt>
      <trkpt lat="48.41224" lon="2.02261">
        <ele>142</ele>
        <time>2011-04-30T08:44:48Z</time>
      </trkpt>
      <trkpt lat="48.41225" lon="2.02261">
        <ele>142</ele>
        <time>2011-04-30T08:44:49Z</time>
      </trkpt>
      <trkpt lat="48.41225" lon="2.02261">
        <ele>142</ele>
        <time>2011-04-30T08:44:50Z</time>
      </trkpt>
      <trkpt lat="48.41226" lon="2.02262">
        <ele>142</ele>
        <time>2011-04-30T08:44:51Z</time>
      </trkpt>
      <trkpt lat="48.41226" lon="2.02262">
        <ele>142</ele>
        <time>2011-04-30T08:44:52Z</time>
      </trkpt>
      <trkpt lat="48.41227" lon="2.02262">
        <ele>142</ele>
        <time>2011-04-30T08:44:53Z</time>
      </trkpt>
      <trkpt lat="48.41227" lon="2.02262">
        <ele>142</ele>
        <time>2011-04-30T08:44:54Z</time>
      </trkpt>
      <trkpt lat="48.41228" lon="2.02262">
        <ele>142</ele>
        <time>2011-04-30T08:44:55Z</time>
      </trkpt>
      <trkpt lat="48.41228" lon="2.02263">
        <ele>142</ele>
        <time>2011-04-30T08:44:56Z</time>
      </trkpt>
      <trkpt lat="48.41228" lon="2.02263">
        <ele>142</ele>
        <time>2011-04-30T08:44:57Z</time>
      </trkpt>
      <trkpt lat="48.41228" lon="2.02263">
        <ele>142</ele>
        <time>2011-04-30T08:44:58Z</time>
      </trkpt>
      <trkpt lat="48.41228" lon="2.02263">
        <ele>142</ele>
        <time>2011-04-30T08:44:59Z</time>
      </trkpt>
      <trkpt lat="48.41229" lon="2.02262">
        <ele>142</ele>
        <time>2011-04-30T08:45:00Z</time>
      </trkpt>
      <trkpt lat="48.4123" lon="2.02262">
        <ele>142</ele>
        <time>2011-04-30T08:45:01Z</time>
      </trkpt>
      <trkpt lat="48.4123" lon="2.02261">
        <ele>142</ele>
        <time>2011-04-30T08:45:02Z</time>
      </trkpt>
      <trkpt lat="48.41231" lon="2.0226">
        <ele>142</ele>
        <time>2011-04-30T08:45:03Z</time>
      </trkpt>
      <trkpt lat="48.41232" lon="2.02259">
        <ele>142</ele>
        <time>2011-04-30T08:45:04Z</time>
      </trkpt>
      <trkpt lat="48.41232" lon="2.02258">
        <ele>142</ele>
        <time>2011-04-30T08:45:05Z</time>
      </trkpt>
      <trkpt lat="48.41232" lon="2.02257">
        <ele>142</ele>
        <time>2011-04-30T08:45:06Z</time>
      </trkpt>
      <trkpt lat="48.41233" lon="2.02257">
        <ele>142</ele>
        <time>2011-04-30T08:45:07Z</time>
      </trkpt>
      <trkpt lat="48.41233" lon="2.02256">
        <ele>142</ele>
        <time>2011-04-30T08:45:08Z</time>
      </trkpt>
      <trkpt lat="48.41233" lon="2.02256">
        <ele>142</ele>
        <time>2011-04-30T08:45:09Z</time>
      </trkpt>
      <trkpt lat="48.41234" lon="2.02255">
        <ele>142</ele>
        <time>2011-04-30T08:45:10Z</time>
      </trkpt>
      <trkpt lat="48.41234" lon="2.02254">
        <ele>142</ele>
        <time>2011-04-30T08:45:11Z</time>
      </trkpt>
      <trkpt lat="48.41234" lon="2.02253">
        <ele>142</ele>
        <time>2011-04-30T08:45:12Z</time>
      </trkpt>
      <trkpt lat="48.41235" lon="2.02252">
        <ele>142</ele>
        <time>2011-04-30T08:45:13Z</time>
      </trkpt>
      <trkpt lat="48.41235" lon="2.02251">
        <ele>142</ele>
        <time>2011-04-30T08:45:14Z</time>
      </trkpt>
      <trkpt lat="48.41236" lon="2.02249">
        <ele>142</ele>
        <time>2011-04-30T08:45:15Z</time>
      </trkpt>
      <trkpt lat="48.41236" lon="2.02247">
        <ele>142</ele>
        <time>2011-04-30T08:45:16Z</time>
      </trkpt>
      <trkpt lat="48.41236" lon="2.02246">
        <ele>142</ele>
        <time>2011-04-30T08:45:17Z</time>
      </trkpt>
      <trkpt lat="48.41236" lon="2.02244">
        <ele>142</ele>
        <time>2011-04-30T08:45:18Z</time>
      </trkpt>
      <trkpt lat="48.41237" lon="2.02243">
        <ele>142</ele>
        <time>2011-04-30T08:45:19Z</time>
      </trkpt>
      <trkpt lat="48.41237" lon="2.02241">
        <ele>142</ele>
        <time>2011-04-30T08:45:20Z</time>
      </trkpt>
      <trkpt lat="48.41236" lon="2.02239">
        <ele>142</ele>
        <time>2011-04-30T08:45:21Z</time>
      </trkpt>
      <trkpt lat="48.41236" lon="2.02238">
        <ele>142</ele>
        <time>2011-04-30T08:45:22Z</time>
      </trkpt>
      <trkpt lat="48.41236" lon="2.02236">
        <ele>141</ele>
        <time>2011-04-30T08:45:23Z</time>
      </trkpt>
      <trkpt lat="48.41235" lon="2.02235">
        <ele>141</ele>
        <time>2011-04-30T08:45:24Z</time>
      </trkpt>
      <trkpt lat="48.41235" lon="2.02233">
        <ele>141</ele>
        <time>2011-04-30T08:45:25Z</time>
      </trkpt>
      <trkpt lat="48.41234" lon="2.02231">
        <ele>141</ele>
        <time>2011-04-30T08:45:26Z</time>
      </trkpt>
      <trkpt lat="48.41234" lon="2.02229">
        <ele>141</ele>
        <time>2011-04-30T08:45:27Z</time>
      </trkpt>
      <trkpt lat="48.41233" lon="2.02226">
        <ele>141</ele>
        <time>2011-04-30T08:45:28Z</time>
      </trkpt>
      <trkpt lat="48.41232" lon="2.02224">
        <ele>141</ele>
        <time>2011-04-30T08:45:29Z</time>
      </trkpt>
      <trkpt lat="48.41231" lon="2.02221">
        <ele>141</ele>
        <time>2011-04-30T08:45:30Z</time>
      </trkpt>
      <trkpt lat="48.4123" lon="2.02218">
        <ele>141</ele>
        <time>2011-04-30T08:45:31Z</time>
      </trkpt>
      <trkpt lat="48.41229" lon="2.02215">
        <ele>141</ele>
        <time>2011-04-30T08:45:32Z</time>
      </trkpt>
      <trkpt lat="48.41228" lon="2.02213">
        <ele>141</ele>
        <time>2011-04-30T08:45:33Z</time>
      </trkpt>
      <trkpt lat="48.41226" lon="2.0221">
        <ele>141</ele>
        <time>2011-04-30T08:45:34Z</time>
      </trkpt>
      <trkpt lat="48.41225" lon="2.02207">
        <ele>141</ele>
        <time>2011-04-30T08:45:35Z</time>
      </trkpt>
      <trkpt lat="48.41224" lon="2.02204">
        <ele>141</ele>
        <time>2011-04-30T08:45:36Z</time>
      </trkpt>
      <trkpt lat="48.41223" lon="2.02201">
        <ele>141</ele>
        <time>2011-04-30T08:45:37Z</time>
      </trkpt>
      <trkpt lat="48.41222" lon="2.02198">
        <ele>141</ele>
        <time>2011-04-30T08:45:38Z</time>
      </trkpt>
      <trkpt lat="48.41221" lon="2.02196">
        <ele>141</ele>
        <time>2011-04-30T08:45:39Z</time>
      </trkpt>
      <trkpt lat="48.4122" lon="2.02193">
        <ele>141</ele>
        <time>2011-04-30T08:45:40Z</time>
      </trkpt>
      <trkpt lat="48.41219" lon="2.02191">
        <ele>141</ele>
        <time>2011-04-30T08:45:41Z</time>
      </trkpt>
      <trkpt lat="48.41219" lon="2.02188">
        <ele>141</ele>
        <time>2011-04-30T08:45:42Z</time>
      </trkpt>
      <trkpt lat="48.41218" lon="2.02185">
        <ele>141</ele>
        <time>2011-04-30T08:45:43Z</time>
      </trkpt>
      <trkpt lat="48.41217" lon="2.02182">
        <ele>141</ele>
        <time>2011-04-30T08:45:44Z</time>
      </trkpt>
      <trkpt lat="48.41216" lon="2.0218">
        <ele>141</ele>
        <time>2011-04-30T08:45:45Z</time>
      </trkpt>
      <trkpt lat="48.41215" lon="2.02177">
        <ele>141</ele>
        <time>2011-04-30T08:45:46Z</time>
      </trkpt>
      <trkpt lat="48.41214" lon="2.02174">
        <ele>141</ele>
        <time>2011-04-30T08:45:47Z</time>
      </trkpt>
      <trkpt lat="48.41213" lon="2.02171">
        <ele>141</ele>
        <time>2011-04-30T08:45:48Z</time>
      </trkpt>
      <trkpt lat="48.41212" lon="2.02168">
        <ele>141</ele>
        <time>2011-04-30T08:45:49Z</time>
      </trkpt>
      <trkpt lat="48.41211" lon="2.02165">
        <ele>140</ele>
        <time>2011-04-30T08:45:50Z</time>
      </trkpt>
      <trkpt lat="48.4121" lon="2.02162">
        <ele>140</ele>
        <time>2011-04-30T08:45:51Z</time>
      </trkpt>
      <trkpt lat="48.41209" lon="2.02159">
        <ele>140</ele>
        <time>2011-04-30T08:45:52Z</time>
      </trkpt>
      <trkpt lat="48.41207" lon="2.02156">
        <ele>139</ele>
        <time>2011-04-30T08:45:53Z</time>
      </trkpt>
      <trkpt lat="48.41206" lon="2.02152">
        <ele>139</ele>
        <time>2011-04-30T08:45:54Z</time>
      </trkpt>
      <trkpt lat="48.41205" lon="2.02149">
        <ele>139</ele>
        <time>2011-04-30T08:45:55Z</time>
      </trkpt>
      <trkpt lat="48.41204" lon="2.02146">
        <ele>139</ele>
        <time>2011-04-30T08:45:56Z</time>
      </trkpt>
      <trkpt lat="48.41203" lon="2.02142">
        <ele>139</ele>
        <time>2011-04-30T08:45:57Z</time>
      </trkpt>
      <trkpt lat="48.41202" lon="2.02139">
        <ele>139</ele>
        <time>2011-04-30T08:45:58Z</time>
      </trkpt>
      <trkpt lat="48.41201" lon="2.02136">
        <ele>139</ele>
        <time>2011-04-30T08:45:59Z</time>
      </trkpt>
      <trkpt lat="48.412" lon="2.02132">
        <ele>139</ele>
        <time>2011-04-30T08:46:00Z</time>
      </trkpt>
      <trkpt lat="48.41199" lon="2.02129">
        <ele>139</ele>
        <time>2011-04-30T08:46:01Z</time>
      </trkpt>
      <trkpt lat="48.41198" lon="2.02126">
        <ele>139</ele>
        <time>2011-04-30T08:46:02Z</time>
      </trkpt>
      <trkpt lat="48.41197" lon="2.02124">
        <ele>139</ele>
        <time>2011-04-30T08:46:03Z</time>
      </trkpt>
      <trkpt lat="48.41195" lon="2.02122">
        <ele>139</ele>
        <time>2011-04-30T08:46:04Z</time>
      </trkpt>
      <trkpt lat="48.41194" lon="2.02121">
        <ele>139</ele>
        <time>2011-04-30T08:46:05Z</time>
      </trkpt>
      <trkpt lat="48.41193" lon="2.0212">
        <ele>139</ele>
        <time>2011-04-30T08:46:06Z</time>
      </trkpt>
      <trkpt lat="48.41192" lon="2.02118">
        <ele>139</ele>
        <time>2011-04-30T08:46:07Z</time>
      </trkpt>
      <trkpt lat="48.41192" lon="2.02115">
        <ele>139</ele>
        <time>2011-04-30T08:46:08Z</time>
      </trkpt>
      <trkpt lat="48.41193" lon="2.02111">
        <ele>139</ele>
        <time>2011-04-30T08:46:09Z</time>
      </trkpt>
      <trkpt lat="48.41194" lon="2.02107">
        <ele>139</ele>
        <time>2011-04-30T08:46:10Z</time>
      </trkpt>
      <trkpt lat="48.41196" lon="2.02104">
        <ele>139</ele>
        <time>2011-04-30T08:46:11Z</time>
      </trkpt>
      <trkpt lat="48.41198" lon="2.02101">
        <ele>139</ele>
        <time>2011-04-30T08:46:12Z</time>
      </trkpt>
      <trkpt lat="48.41201" lon="2.02098">
        <ele>139</ele>
        <time>2011-04-30T08:46:13Z</time>
      </trkpt>
      <trkpt lat="48.41203" lon="2.02095">
        <ele>139</ele>
        <time>2011-04-30T08:46:14Z</time>
      </trkpt>
      <trkpt lat="48.41205" lon="2.02093">
        <ele>139</ele>
        <time>2011-04-30T08:46:15Z</time>
      </trkpt>
      <trkpt lat="48.41207" lon="2.0209">
        <ele>139</ele>
        <time>2011-04-30T08:46:16Z</time>
      </trkpt>
      <trkpt lat="48.41209" lon="2.02088">
        <ele>139</ele>
        <time>2011-04-30T08:46:17Z</time>
      </trkpt>
      <trkpt lat="48.41211" lon="2.02086">
        <ele>139</ele>
        <time>2011-04-30T08:46:18Z</time>
      </trkpt>
      <trkpt lat="48.41212" lon="2.02083">
        <ele>139</ele>
        <time>2011-04-30T08:46:19Z</time>
      </trkpt>
      <trkpt lat="48.41214" lon="2.02081">
        <ele>139</ele>
        <time>2011-04-30T08:46:20Z</time>
      </trkpt>
      <trkpt lat="48.41215" lon="2.02078">
        <ele>139</ele>
        <time>2011-04-30T08:46:21Z</time>
      </trkpt>
      <trkpt lat="48.41217" lon="2.02076">
        <ele>139</ele>
        <time>2011-04-30T08:46:22Z</time>
      </trkpt>
      <trkpt lat="48.41218" lon="2.02074">
        <ele>139</ele>
        <time>2011-04-30T08:46:23Z</time>
      </trkpt>
      <trkpt lat="48.4122" lon="2.02071">
        <ele>139</ele>
        <time>2011-04-30T08:46:24Z</time>
      </trkpt>
      <trkpt lat="48.41221" lon="2.02069">
        <ele>139</ele>
        <time>2011-04-30T08:46:25Z</time>
      </trkpt>
      <trkpt lat="48.41222" lon="2.02066">
        <ele>139</ele>
        <time>2011-04-30T08:46:26Z</time>
      </trkpt>
      <trkpt lat="48.41224" lon="2.02063">
        <ele>139</ele>
        <time>2011-04-30T08:46:27Z</time>
      </trkpt>
      <trkpt lat="48.41225" lon="2.0206">
        <ele>139</ele>
        <time>2011-04-30T08:46:28Z</time>
      </trkpt>
      <trkpt lat="48.41226" lon="2.02057">
        <ele>139</ele>
        <time>2011-04-30T08:46:29Z</time>
      </trkpt>
      <trkpt lat="48.41228" lon="2.02054">
        <ele>139</ele>
        <time>2011-04-30T08:46:30Z</time>
      </trkpt>
      <trkpt lat="48.41229" lon="2.02051">
        <ele>139</ele>
        <time>2011-04-30T08:46:31Z</time>
      </trkpt>
      <trkpt lat="48.4123" lon="2.02048">
        <ele>139</ele>
        <time>2011-04-30T08:46:32Z</time>
      </trkpt>
      <trkpt lat="48.41231" lon="2.02046">
        <ele>139</ele>
        <time>2011-04-30T08:46:33Z</time>
      </trkpt>
      <trkpt lat="48.41233" lon="2.02043">
        <ele>139</ele>
        <time>2011-04-30T08:46:34Z</time>
      </trkpt>
      <trkpt lat="48.41234" lon="2.0204">
        <ele>139</ele>
        <time>2011-04-30T08:46:35Z</time>
      </trkpt>
      <trkpt lat="48.41235" lon="2.02037">
        <ele>139</ele>
        <time>2011-04-30T08:46:36Z</time>
      </trkpt>
      <trkpt lat="48.41236" lon="2.02034">
        <ele>139</ele>
        <time>2011-04-30T08:46:37Z</time>
      </trkpt>
      <trkpt lat="48.41238" lon="2.02031">
        <ele>139</ele>
        <time>2011-04-30T08:46:38Z</time>
      </trkpt>
      <trkpt lat="48.41239" lon="2.02028">
        <ele>139</ele>
        <time>2011-04-30T08:46:39Z</time>
      </trkpt>
      <trkpt lat="48.4124" lon="2.02025">
        <ele>139</ele>
        <time>2011-04-30T08:46:40Z</time>
      </trkpt>
      <trkpt lat="48.41241" lon="2.02022">
        <ele>139</ele>
        <time>2011-04-30T08:46:41Z</time>
      </trkpt>
      <trkpt lat="48.41243" lon="2.02019">
        <ele>139</ele>
        <time>2011-04-30T08:46:42Z</time>
      </trkpt>
      <trkpt lat="48.41244" lon="2.02016">
        <ele>139</ele>
        <time>2011-04-30T08:46:43Z</time>
      </trkpt>
      <trkpt lat="48.41245" lon="2.02013">
        <ele>140</ele>
        <time>2011-04-30T08:46:44Z</time>
      </trkpt>
      <trkpt lat="48.41246" lon="2.0201">
        <ele>140</ele>
        <time>2011-04-30T08:46:45Z</time>
      </trkpt>
      <trkpt lat="48.41248" lon="2.02007">
        <ele>140</ele>
        <time>2011-04-30T08:46:46Z</time>
      </trkpt>
      <trkpt lat="48.41249" lon="2.02004">
        <ele>140</ele>
        <time>2011-04-30T08:46:47Z</time>
      </trkpt>
      <trkpt lat="48.4125" lon="2.02001">
        <ele>140</ele>
        <time>2011-04-30T08:46:48Z</time>
      </trkpt>
      <trkpt lat="48.41252" lon="2.01998">
        <ele>140</ele>
        <time>2011-04-30T08:46:49Z</time>
      </trkpt>
      <trkpt lat="48.41253" lon="2.01995">
        <ele>140</ele>
        <time>2011-04-30T08:46:50Z</time>
      </trkpt>
      <trkpt lat="48.41255" lon="2.01992">
        <ele>140</ele>
        <time>2011-04-30T08:46:51Z</time>
      </trkpt>
      <trkpt lat="48.41256" lon="2.01989">
        <ele>140</ele>
        <time>2011-04-30T08:46:52Z</time>
      </trkpt>
      <trkpt lat="48.41257" lon="2.01986">
        <ele>140</ele>
        <time>2011-04-30T08:46:53Z</time>
      </trkpt>
      <trkpt lat="48.41259" lon="2.01982">
        <ele>140</ele>
        <time>2011-04-30T08:46:54Z</time>
      </trkpt>
      <trkpt lat="48.4126" lon="2.01979">
        <ele>141</ele>
        <time>2011-04-30T08:46:55Z</time>
      </trkpt>
      <trkpt lat="48.41261" lon="2.01976">
        <ele>141</ele>
        <time>2011-04-30T08:46:56Z</time>
      </trkpt>
      <trkpt lat="48.41262" lon="2.01973">
        <ele>141</ele>
        <time>2011-04-30T08:46:57Z</time>
      </trkpt>
      <trkpt lat="48.41263" lon="2.01969">
        <ele>141</ele>
        <time>2011-04-30T08:46:58Z</time>
      </trkpt>
      <trkpt lat="48.41265" lon="2.01966">
        <ele>141</ele>
        <time>2011-04-30T08:46:59Z</time>
      </trkpt>
      <trkpt lat="48.41266" lon="2.01963">
        <ele>141</ele>
        <time>2011-04-30T08:47:00Z</time>
      </trkpt>
      <trkpt lat="48.41267" lon="2.0196">
        <ele>141</ele>
        <time>2011-04-30T08:47:01Z</time>
      </trkpt>
      <trkpt lat="48.41268" lon="2.01957">
        <ele>141</ele>
        <time>2011-04-30T08:47:02Z</time>
      </trkpt>
      <trkpt lat="48.41269" lon="2.01954">
        <ele>141</ele>
        <time>2011-04-30T08:47:03Z</time>
      </trkpt>
      <trkpt lat="48.4127" lon="2.0195">
        <ele>141</ele>
        <time>2011-04-30T08:47:04Z</time>
      </trkpt>
      <trkpt lat="48.41271" lon="2.01948">
        <ele>141</ele>
        <time>2011-04-30T08:47:05Z</time>
      </trkpt>
      <trkpt lat="48.41273" lon="2.01945">
        <ele>141</ele>
        <time>2011-04-30T08:47:06Z</time>
      </trkpt>
      <trkpt lat="48.41274" lon="2.01943">
        <ele>141</ele>
        <time>2011-04-30T08:47:07Z</time>
      </trkpt>
      <trkpt lat="48.41275" lon="2.01941">
        <ele>141</ele>
        <time>2011-04-30T08:47:08Z</time>
      </trkpt>
      <trkpt lat="48.41276" lon="2.0194">
        <ele>141</ele>
        <time>2011-04-30T08:47:09Z</time>
      </trkpt>
      <trkpt lat="48.41277" lon="2.0194">
        <ele>141</ele>
        <time>2011-04-30T08:47:10Z</time>
      </trkpt>
      <trkpt lat="48.41278" lon="2.0194">
        <ele>141</ele>
        <time>2011-04-30T08:47:11Z</time>
      </trkpt>
      <trkpt lat="48.41278" lon="2.0194">
        <ele>141</ele>
        <time>2011-04-30T08:47:12Z</time>
      </trkpt>
      <trkpt lat="48.41278" lon="2.01941">
        <ele>141</ele>
        <time>2011-04-30T08:47:13Z</time>
      </trkpt>
      <trkpt lat="48.41278" lon="2.01941">
        <ele>141</ele>
        <time>2011-04-30T08:47:14Z</time>
      </trkpt>
      <trkpt lat="48.41278" lon="2.01941">
        <ele>141</ele>
        <time>2011-04-30T08:47:15Z</time>
      </trkpt>
      <trkpt lat="48.41278" lon="2.01941">
        <ele>141</ele>
        <time>2011-04-30T08:47:16Z</time>
      </trkpt>
      <trkpt lat="48.41277" lon="2.01942">
        <ele>141</ele>
        <time>2011-04-30T08:47:17Z</time>
      </trkpt>
      <trkpt lat="48.41277" lon="2.01942">
        <ele>141</ele>
        <time>2011-04-30T08:47:18Z</time>
      </trkpt>
      <trkpt lat="48.41277" lon="2.01942">
        <ele>141</ele>
        <time>2011-04-30T08:47:19Z</time>
      </trkpt>
      <trkpt lat="48.41276" lon="2.01943">
        <ele>141</ele>
        <time>2011-04-30T08:47:20Z</time>
      </trkpt>
      <trkpt lat="48.41276" lon="2.01943">
        <ele>141</ele>
        <time>2011-04-30T08:47:21Z</time>
      </trkpt>
      <trkpt lat="48.41276" lon="2.01943">
        <ele>141</ele>
        <time>2011-04-30T08:47:22Z</time>
      </trkpt>
      <trkpt lat="48.41276" lon="2.01943">
        <ele>141</ele>
        <time>2011-04-30T08:47:23Z</time>
      </trkpt>
      <trkpt lat="48.41276" lon="2.01943">
        <ele>141</ele>
        <time>2011-04-30T08:47:24Z</time>
      </trkpt>
      <trkpt lat="48.41276" lon="2.01943">
        <ele>141</ele>
        <time>2011-04-30T08:47:25Z</time>
      </trkpt>
      <trkpt lat="48.41275" lon="2.01942">
        <ele>141</ele>
        <time>2011-04-30T08:47:26Z</time>
      </trkpt>
      <trkpt lat="48.41275" lon="2.01942">
        <ele>141</ele>
        <time>2011-04-30T08:47:27Z</time>
      </trkpt>
      <trkpt lat="48.41275" lon="2.01942">
        <ele>141</ele>
        <time>2011-04-30T08:47:28Z</time>
      </trkpt>
      <trkpt lat="48.41275" lon="2.01942">
        <ele>141</ele>
        <time>2011-04-30T08:47:29Z</time>
      </trkpt>
      <trkpt lat="48.41275" lon="2.01942">
        <ele>141</ele>
        <time>2011-04-30T08:47:30Z</time>
      </trkpt>
      <trkpt lat="48.41274" lon="2.01942">
        <ele>141</ele>
        <time>2011-04-30T08:47:31Z</time>
      </trkpt>
      <trkpt lat="48.41274" lon="2.01942">
        <ele>141</ele>
        <time>2011-04-30T08:47:32Z</time>
      </trkpt>
      <trkpt lat="48.41274" lon="2.01942">
        <ele>141</ele>
        <time>2011-04-30T08:47:33Z</time>
      </trkpt>
      <trkpt lat="48.41274" lon="2.01942">
        <ele>141</ele>
        <time>2011-04-30T08:47:34Z</time>
      </trkpt>
      <trkpt lat="48.41274" lon="2.01942">
        <ele>141</ele>
        <time>2011-04-30T08:47:35Z</time>
      </trkpt>
      <trkpt lat="48.41273" lon="2.01942">
        <ele>141</ele>
        <time>2011-04-30T08:47:36Z</time>
      </trkpt>
      <trkpt lat="48.41273" lon="2.01942">
        <ele>141</ele>
        <time>2011-04-30T08:47:37Z</time>
      </trkpt>
      <trkpt lat="48.41273" lon="2.01942">
        <ele>141</ele>
        <time>2011-04-30T08:47:38Z</time>
      </trkpt>
      <trkpt lat="48.41273" lon="2.01942">
        <ele>140</ele>
        <time>2011-04-30T08:47:39Z</time>
      </trkpt>
      <trkpt lat="48.41272" lon="2.01941">
        <ele>140</ele>
        <time>2011-04-30T08:47:40Z</time>
      </trkpt>
      <trkpt lat="48.41272" lon="2.01941">
        <ele>140</ele>
        <time>2011-04-30T08:47:41Z</time>
      </trkpt>
      <trkpt lat="48.41272" lon="2.0194">
        <ele>140</ele>
        <time>2011-04-30T08:47:42Z</time>
      </trkpt>
      <trkpt lat="48.41271" lon="2.0194">
        <ele>140</ele>
        <time>2011-04-30T08:47:43Z</time>
      </trkpt>
      <trkpt lat="48.41271" lon="2.01939">
        <ele>140</ele>
        <time>2011-04-30T08:47:44Z</time>
      </trkpt>
      <trkpt lat="48.41271" lon="2.01939">
        <ele>140</ele>
        <time>2011-04-30T08:47:45Z</time>
      </trkpt>
      <trkpt lat="48.4127" lon="2.01939">
        <ele>140</ele>
        <time>2011-04-30T08:47:46Z</time>
      </trkpt>
      <trkpt lat="48.4127" lon="2.0194">
        <ele>140</ele>
        <time>2011-04-30T08:47:47Z</time>
      </trkpt>
      <trkpt lat="48.4127" lon="2.0194">
        <ele>140</ele>
        <time>2011-04-30T08:47:48Z</time>
      </trkpt>
      <trkpt lat="48.41269" lon="2.0194">
        <ele>140</ele>
        <time>2011-04-30T08:47:49Z</time>
      </trkpt>
      <trkpt lat="48.41269" lon="2.01941">
        <ele>140</ele>
        <time>2011-04-30T08:47:50Z</time>
      </trkpt>
      <trkpt lat="48.41269" lon="2.01941">
        <ele>140</ele>
        <time>2011-04-30T08:47:51Z</time>
      </trkpt>
      <trkpt lat="48.41269" lon="2.01941">
        <ele>140</ele>
        <time>2011-04-30T08:47:52Z</time>
      </trkpt>
      <trkpt lat="48.41269" lon="2.01942">
        <ele>140</ele>
        <time>2011-04-30T08:47:53Z</time>
      </trkpt>
      <trkpt lat="48.41269" lon="2.01942">
        <ele>140</ele>
        <time>2011-04-30T08:47:54Z</time>
      </trkpt>
      <trkpt lat="48.4127" lon="2.01942">
        <ele>140</ele>
        <time>2011-04-30T08:47:55Z</time>
      </trkpt>
      <trkpt lat="48.4127" lon="2.01943">
        <ele>140</ele>
        <time>2011-04-30T08:47:56Z</time>
      </trkpt>
      <trkpt lat="48.4127" lon="2.01943">
        <ele>140</ele>
        <time>2011-04-30T08:47:57Z</time>
      </trkpt>
      <trkpt lat="48.4127" lon="2.01943">
        <ele>140</ele>
        <time>2011-04-30T08:47:58Z</time>
      </trkpt>
      <trkpt lat="48.4127" lon="2.01942">
        <ele>140</ele>
        <time>2011-04-30T08:47:59Z</time>
      </trkpt>
      <trkpt lat="48.41271" lon="2.01942">
        <ele>140</ele>
        <time>2011-04-30T08:48:00Z</time>
      </trkpt>
      <trkpt lat="48.41271" lon="2.01942">
        <ele>140</ele>
        <time>2011-04-30T08:48:01Z</time>
      </trkpt>
      <trkpt lat="48.41272" lon="2.01944">
        <ele>141</ele>
        <time>2011-04-30T08:48:02Z</time>
      </trkpt>
      <trkpt lat="48.41273" lon="2.01946">
        <ele>141</ele>
        <time>2011-04-30T08:48:03Z</time>
      </trkpt>
      <trkpt lat="48.41274" lon="2.01948">
        <ele>141</ele>
        <time>2011-04-30T08:48:04Z</time>
      </trkpt>
      <trkpt lat="48.41276" lon="2.0195">
        <ele>141</ele>
        <time>2011-04-30T08:48:05Z</time>
      </trkpt>
      <trkpt lat="48.41278" lon="2.01952">
        <ele>141</ele>
        <time>2011-04-30T08:48:06Z</time>
      </trkpt>
      <trkpt lat="48.41279" lon="2.01953">
        <ele>141</ele>
        <time>2011-04-30T08:48:07Z</time>
      </trkpt>
      <trkpt lat="48.41281" lon="2.01954">
        <ele>141</ele>
        <time>2011-04-30T08:48:08Z</time>
      </trkpt>
      <trkpt lat="48.41284" lon="2.01955">
        <ele>141</ele>
        <time>2011-04-30T08:48:09Z</time>
      </trkpt>
      <trkpt lat="48.41286" lon="2.01955">
        <ele>141</ele>
        <time>2011-04-30T08:48:10Z</time>
      </trkpt>
      <trkpt lat="48.41288" lon="2.01956">
        <ele>141</ele>
        <time>2011-04-30T08:48:11Z</time>
      </trkpt>
      <trkpt lat="48.4129" lon="2.01957">
        <ele>141</ele>
        <time>2011-04-30T08:48:12Z</time>
      </trkpt>
      <trkpt lat="48.41292" lon="2.01958">
        <ele>141</ele>
        <time>2011-04-30T08:48:13Z</time>
      </trkpt>
      <trkpt lat="48.41294" lon="2.01959">
        <ele>141</ele>
        <time>2011-04-30T08:48:14Z</time>
      </trkpt>
      <trkpt lat="48.41296" lon="2.0196">
        <ele>141</ele>
        <time>2011-04-30T08:48:15Z</time>
      </trkpt>
      <trkpt lat="48.41298" lon="2.01961">
        <ele>141</ele>
        <time>2011-04-30T08:48:16Z</time>
      </trkpt>
      <trkpt lat="48.41299" lon="2.01962">
        <ele>141</ele>
        <time>2011-04-30T08:48:17Z</time>
      </trkpt>
      <trkpt lat="48.41301" lon="2.01963">
        <ele>141</ele>
        <time>2011-04-30T08:48:18Z</time>
      </trkpt>
      <trkpt lat="48.41303" lon="2.01965">
        <ele>141</ele>
        <time>2011-04-30T08:48:19Z</time>
      </trkpt>
      <trkpt lat="48.41305" lon="2.01967">
        <ele>141</ele>
        <time>2011-04-30T08:48:20Z</time>
      </trkpt>
      <trkpt lat="48.41307" lon="2.01968">
        <ele>141</ele>
        <time>2011-04-30T08:48:21Z</time>
      </trkpt>
      <trkpt lat="48.4131" lon="2.0197">
        <ele>141</ele>
        <time>2011-04-30T08:48:22Z</time>
      </trkpt>
      <trkpt lat="48.41311" lon="2.01973">
        <ele>141</ele>
        <time>2011-04-30T08:48:23Z</time>
      </trkpt>
      <trkpt lat="48.41313" lon="2.01975">
        <ele>142</ele>
        <time>2011-04-30T08:48:24Z</time>
      </trkpt>
      <trkpt lat="48.41315" lon="2.01977">
        <ele>142</ele>
        <time>2011-04-30T08:48:25Z</time>
      </trkpt>
      <trkpt lat="48.41317" lon="2.01979">
        <ele>142</ele>
        <time>2011-04-30T08:48:26Z</time>
      </trkpt>
      <trkpt lat="48.41319" lon="2.01981">
        <ele>142</ele>
        <time>2011-04-30T08:48:27Z</time>
      </trkpt>
      <trkpt lat="48.41321" lon="2.01983">
        <ele>142</ele>
        <time>2011-04-30T08:48:28Z</time>
      </trkpt>
      <trkpt lat="48.41323" lon="2.01985">
        <ele>142</ele>
        <time>2011-04-30T08:48:29Z</time>
      </trkpt>
      <trkpt lat="48.41325" lon="2.01987">
        <ele>142</ele>
        <time>2011-04-30T08:48:30Z</time>
      </trkpt>
      <trkpt lat="48.41327" lon="2.01989">
        <ele>142</ele>
        <time>2011-04-30T08:48:31Z</time>
      </trkpt>
      <trkpt lat="48.41328" lon="2.01991">
        <ele>142</ele>
        <time>2011-04-30T08:48:32Z</time>
      </trkpt>
      <trkpt lat="48.4133" lon="2.01993">
        <ele>142</ele>
        <time>2011-04-30T08:48:33Z</time>
      </trkpt>
      <trkpt lat="48.41332" lon="2.01995">
        <ele>143</ele>
        <time>2011-04-30T08:48:34Z</time>
      </trkpt>
      <trkpt lat="48.41334" lon="2.01997">
        <ele>143</ele>
        <time>2011-04-30T08:48:35Z</time>
      </trkpt>
      <trkpt lat="48.41336" lon="2.01999">
        <ele>143</ele>
        <time>2011-04-30T08:48:36Z</time>
      </trkpt>
      <trkpt lat="48.41338" lon="2.02002">
        <ele>143</ele>
        <time>2011-04-30T08:48:37Z</time>
      </trkpt>
      <trkpt lat="48.4134" lon="2.02004">
        <ele>143</ele>
        <time>2011-04-30T08:48:38Z</time>
      </trkpt>
      <trkpt lat="48.41342" lon="2.02006">
        <ele>143</ele>
        <time>2011-04-30T08:48:39Z</time>
      </trkpt>
      <trkpt lat="48.41344" lon="2.02008">
        <ele>143</ele>
        <time>2011-04-30T08:48:40Z</time>
      </trkpt>
      <trkpt lat="48.41346" lon="2.0201">
        <ele>143</ele>
        <time>2011-04-30T08:48:41Z</time>
      </trkpt>
      <trkpt lat="48.41348" lon="2.02012">
        <ele>143</ele>
        <time>2011-04-30T08:48:42Z</time>
      </trkpt>
      <trkpt lat="48.4135" lon="2.02014">
        <ele>143</ele>
        <time>2011-04-30T08:48:43Z</time>
      </trkpt>
      <trkpt lat="48.41352" lon="2.02015">
        <ele>143</ele>
        <time>2011-04-30T08:48:44Z</time>
      </trkpt>
      <trkpt lat="48.41353" lon="2.02017">
        <ele>143</ele>
        <time>2011-04-30T08:48:45Z</time>
      </trkpt>
      <trkpt lat="48.41355" lon="2.02019">
        <ele>143</ele>
        <time>2011-04-30T08:48:46Z</time>
      </trkpt>
      <trkpt lat="48.41357" lon="2.02021">
        <ele>143</ele>
        <time>2011-04-30T08:48:47Z</time>
      </trkpt>
      <trkpt lat="48.41359" lon="2.02023">
        <ele>143</ele>
        <time>2011-04-30T08:48:48Z</time>
      </trkpt>
      <trkpt lat="48.41361" lon="2.02025">
        <ele>143</ele>
        <time>2011-04-30T08:48:49Z</time>
      </trkpt>
      <trkpt lat="48.41362" lon="2.02027">
        <ele>143</ele>
        <time>2011-04-30T08:48:50Z</time>
      </trkpt>
      <trkpt lat="48.41364" lon="2.02029">
        <ele>143</ele>
        <time>2011-04-30T08:48:51Z</time>
      </trkpt>
      <trkpt lat="48.41366" lon="2.02031">
        <ele>143</ele>
        <time>2011-04-30T08:48:52Z</time>
      </trkpt>
      <trkpt lat="48.41368" lon="2.02033">
        <ele>143</ele>
        <time>2011-04-30T08:48:53Z</time>
      </trkpt>
      <trkpt lat="48.41371" lon="2.02035">
        <ele>143</ele>
        <time>2011-04-30T08:48:54Z</time>
      </trkpt>
      <trkpt lat="48.41373" lon="2.02037">
        <ele>143</ele>
        <time>2011-04-30T08:48:55Z</time>
      </trkpt>
      <trkpt lat="48.41375" lon="2.02039">
        <ele>143</ele>
        <time>2011-04-30T08:48:56Z</time>
      </trkpt>
      <trkpt lat="48.41377" lon="2.02041">
        <ele>143</ele>
        <time>2011-04-30T08:48:57Z</time>
      </trkpt>
      <trkpt lat="48.41379" lon="2.02043">
        <ele>143</ele>
        <time>2011-04-30T08:48:58Z</time>
      </trkpt>
      <trkpt lat="48.41382" lon="2.02045">
        <ele>143</ele>
        <time>2011-04-30T08:48:59Z</time>
      </trkpt>
      <trkpt lat="48.41384" lon="2.02047">
        <ele>143</ele>
        <time>2011-04-30T08:49:00Z</time>
      </trkpt>
      <trkpt lat="48.41386" lon="2.02049">
        <ele>143</ele>
        <time>2011-04-30T08:49:01Z</time>
      </trkpt>
      <trkpt lat="48.41388" lon="2.02051">
        <ele>143</ele>
        <time>2011-04-30T08:49:02Z</time>
      </trkpt>
      <trkpt lat="48.4139" lon="2.02053">
        <ele>143</ele>
        <time>2011-04-30T08:49:03Z</time>
      </trkpt>
      <trkpt lat="48.41392" lon="2.02055">
        <ele>143</ele>
        <time>2011-04-30T08:49:04Z</time>
      </trkpt>
      <trkpt lat="48.41394" lon="2.02057">
        <ele>143</ele>
        <time>2011-04-30T08:49:05Z</time>
      </trkpt>
      <trkpt lat="48.41396" lon="2.02059">
        <ele>143</ele>
        <time>2011-04-30T08:49:06Z</time>
      </trkpt>
      <trkpt lat="48.41398" lon="2.0206">
        <ele>143</ele>
        <time>2011-04-30T08:49:07Z</time>
      </trkpt>
      <trkpt lat="48.414" lon="2.02062">
        <ele>143</ele>
        <time>2011-04-30T08:49:08Z</time>
      </trkpt>
      <trkpt lat="48.41402" lon="2.02064">
        <ele>143</ele>
        <time>2011-04-30T08:49:09Z</time>
      </trkpt>
      <trkpt lat="48.41404" lon="2.02066">
        <ele>143</ele>
        <time>2011-04-30T08:49:10Z</time>
      </trkpt>
      <trkpt lat="48.41406" lon="2.02068">
        <ele>143</ele>
        <time>2011-04-30T08:49:11Z</time>
      </trkpt>
      <trkpt lat="48.41408" lon="2.0207">
        <ele>143</ele>
        <time>2011-04-30T08:49:12Z</time>
      </trkpt>
      <trkpt lat="48.4141" lon="2.02072">
        <ele>143</ele>
        <time>2011-04-30T08:49:13Z</time>
      </trkpt>
      <trkpt lat="48.41412" lon="2.02074">
        <ele>143</ele>
        <time>2011-04-30T08:49:14Z</time>
      </trkpt>
      <trkpt lat="48.41415" lon="2.02076">
        <ele>143</ele>
        <time>2011-04-30T08:49:15Z</time>
      </trkpt>
      <trkpt lat="48.41417" lon="2.02078">
        <ele>143</ele>
        <time>2011-04-30T08:49:16Z</time>
      </trkpt>
      <trkpt lat="48.41419" lon="2.0208">
        <ele>143</ele>
        <time>2011-04-30T08:49:17Z</time>
      </trkpt>
      <trkpt lat="48.41421" lon="2.02082">
        <ele>143</ele>
        <time>2011-04-30T08:49:18Z</time>
      </trkpt>
      <trkpt lat="48.41423" lon="2.02084">
        <ele>143</ele>
        <time>2011-04-30T08:49:19Z</time>
      </trkpt>
      <trkpt lat="48.41425" lon="2.02085">
        <ele>143</ele>
        <time>2011-04-30T08:49:20Z</time>
      </trkpt>
      <trkpt lat="48.41427" lon="2.02087">
        <ele>143</ele>
        <time>2011-04-30T08:49:21Z</time>
      </trkpt>
      <trkpt lat="48.41429" lon="2.02089">
        <ele>144</ele>
        <time>2011-04-30T08:49:22Z</time>
      </trkpt>
      <trkpt lat="48.41431" lon="2.02091">
        <ele>144</ele>
        <time>2011-04-30T08:49:23Z</time>
      </trkpt>
      <trkpt lat="48.41433" lon="2.02093">
        <ele>144</ele>
        <time>2011-04-30T08:49:24Z</time>
      </trkpt>
      <trkpt lat="48.41435" lon="2.02095">
        <ele>144</ele>
        <time>2011-04-30T08:49:25Z</time>
      </trkpt>
      <trkpt lat="48.41437" lon="2.02097">
        <ele>144</ele>
        <time>2011-04-30T08:49:26Z</time>
      </trkpt>
      <trkpt lat="48.41439" lon="2.02099">
        <ele>144</ele>
        <time>2011-04-30T08:49:27Z</time>
      </trkpt>
      <trkpt lat="48.41441" lon="2.02101">
        <ele>144</ele>
        <time>2011-04-30T08:49:28Z</time>
      </trkpt>
      <trkpt lat="48.41443" lon="2.02103">
        <ele>144</ele>
        <time>2011-04-30T08:49:29Z</time>
      </trkpt>
      <trkpt lat="48.41445" lon="2.02105">
        <ele>144</ele>
        <time>2011-04-30T08:49:30Z</time>
      </trkpt>
      <trkpt lat="48.41447" lon="2.02107">
        <ele>144</ele>
        <time>2011-04-30T08:49:31Z</time>
      </trkpt>
      <trkpt lat="48.41449" lon="2.02109">
        <ele>144</ele>
        <time>2011-04-30T08:49:32Z</time>
      </trkpt>
      <trkpt lat="48.41451" lon="2.02111">
        <ele>144</ele>
        <time>2011-04-30T08:49:33Z</time>
      </trkpt>
      <trkpt lat="48.41453" lon="2.02113">
        <ele>144</ele>
        <time>2011-04-30T08:49:34Z</time>
      </trkpt>
      <trkpt lat="48.41455" lon="2.02115">
        <ele>144</ele>
        <time>2011-04-30T08:49:35Z</time>
      </trkpt>
      <trkpt lat="48.41457" lon="2.02117">
        <ele>144</ele>
        <time>2011-04-30T08:49:36Z</time>
      </trkpt>
      <trkpt lat="48.41459" lon="2.02119">
        <ele>144</ele>
        <time>2011-04-30T08:49:37Z</time>
      </trkpt>
      <trkpt lat="48.41461" lon="2.02122">
        <ele>144</ele>
        <time>2011-04-30T08:49:38Z</time>
      </trkpt>
      <trkpt lat="48.41462" lon="2.02124">
        <ele>144</ele>
        <time>2011-04-30T08:49:39Z</time>
      </trkpt>
      <trkpt lat="48.41464" lon="2.02126">
        <ele>144</ele>
        <time>2011-04-30T08:49:40Z</time>
      </trkpt>
      <trkpt lat="48.41466" lon="2.02128">
        <ele>144</ele>
        <time>2011-04-30T08:49:41Z</time>
      </trkpt>
      <trkpt lat="48.41468" lon="2.0213">
        <ele>144</ele>
        <time>2011-04-30T08:49:42Z</time>
      </trkpt>
      <trkpt lat="48.4147" lon="2.02132">
        <ele>144</ele>
        <time>2011-04-30T08:49:43Z</time>
      </trkpt>
      <trkpt lat="48.41472" lon="2.02135">
        <ele>144</ele>
        <time>2011-04-30T08:49:44Z</time>
      </trkpt>
      <trkpt lat="48.41474" lon="2.02137">
        <ele>144</ele>
        <time>2011-04-30T08:49:45Z</time>
      </trkpt>
      <trkpt lat="48.41476" lon="2.02139">
        <ele>144</ele>
        <time>2011-04-30T08:49:46Z</time>
      </trkpt>
      <trkpt lat="48.41478" lon="2.02141">
        <ele>144</ele>
        <time>2011-04-30T08:49:47Z</time>
      </trkpt>
      <trkpt lat="48.4148" lon="2.02143">
        <ele>144</ele>
        <time>2011-04-30T08:49:48Z</time>
      </trkpt>
      <trkpt lat="48.41482" lon="2.02146">
        <ele>145</ele>
        <time>2011-04-30T08:49:49Z</time>
      </trkpt>
      <trkpt lat="48.41484" lon="2.02148">
        <ele>145</ele>
        <time>2011-04-30T08:49:50Z</time>
      </trkpt>
      <trkpt lat="48.41486" lon="2.0215">
        <ele>145</ele>
        <time>2011-04-30T08:49:51Z</time>
      </trkpt>
      <trkpt lat="48.41487" lon="2.02153">
        <ele>145</ele>
        <time>2011-04-30T08:49:52Z</time>
      </trkpt>
      <trkpt lat="48.41489" lon="2.02155">
        <ele>145</ele>
        <time>2011-04-30T08:49:53Z</time>
      </trkpt>
      <trkpt lat="48.41491" lon="2.02156">
        <ele>145</ele>
        <time>2011-04-30T08:49:54Z</time>
      </trkpt>
      <trkpt lat="48.41493" lon="2.02157">
        <ele>145</ele>
        <time>2011-04-30T08:49:55Z</time>
      </trkpt>
      <trkpt lat="48.41495" lon="2.02157">
        <ele>145</ele>
        <time>2011-04-30T08:49:56Z</time>
      </trkpt>
      <trkpt lat="48.41498" lon="2.02156">
        <ele>145</ele>
        <time>2011-04-30T08:49:57Z</time>
      </trkpt>
      <trkpt lat="48.415" lon="2.02154">
        <ele>145</ele>
        <time>2011-04-30T08:49:58Z</time>
      </trkpt>
      <trkpt lat="48.41502" lon="2.02151">
        <ele>145</ele>
        <time>2011-04-30T08:49:59Z</time>
      </trkpt>
      <trkpt lat="48.41504" lon="2.02148">
        <ele>145</ele>
        <time>2011-04-30T08:50:00Z</time>
      </trkpt>
      <trkpt lat="48.41506" lon="2.02144">
        <ele>145</ele>
        <time>2011-04-30T08:50:01Z</time>
      </trkpt>
      <trkpt lat="48.41508" lon="2.0214">
        <ele>145</ele>
        <time>2011-04-30T08:50:02Z</time>
      </trkpt>
      <trkpt lat="48.41509" lon="2.02136">
        <ele>145</ele>
        <time>2011-04-30T08:50:03Z</time>
      </trkpt>
      <trkpt lat="48.4151" lon="2.02133">
        <ele>145</ele>
        <time>2011-04-30T08:50:04Z</time>
      </trkpt>
      <trkpt lat="48.41512" lon="2.02129">
        <ele>145</ele>
        <time>2011-04-30T08:50:05Z</time>
      </trkpt>
      <trkpt lat="48.41513" lon="2.02125">
        <ele>145</ele>
        <time>2011-04-30T08:50:06Z</time>
      </trkpt>
      <trkpt lat="48.41514" lon="2.02122">
        <ele>145</ele>
        <time>2011-04-30T08:50:07Z</time>
      </trkpt>
      <trkpt lat="48.41516" lon="2.02118">
        <ele>145</ele>
        <time>2011-04-30T08:50:08Z</time>
      </trkpt>
      <trkpt lat="48.41517" lon="2.02115">
        <ele>145</ele>
        <time>2011-04-30T08:50:09Z</time>
      </trkpt>
      <trkpt lat="48.41518" lon="2.02112">
        <ele>145</ele>
        <time>2011-04-30T08:50:10Z</time>
      </trkpt>
      <trkpt lat="48.4152" lon="2.02109">
        <ele>145</ele>
        <time>2011-04-30T08:50:11Z</time>
      </trkpt>
      <trkpt lat="48.41521" lon="2.02106">
        <ele>145</ele>
        <time>2011-04-30T08:50:12Z</time>
      </trkpt>
      <trkpt lat="48.41522" lon="2.02103">
        <ele>145</ele>
        <time>2011-04-30T08:50:13Z</time>
      </trkpt>
      <trkpt lat="48.41524" lon="2.021">
        <ele>145</ele>
        <time>2011-04-30T08:50:14Z</time>
      </trkpt>
      <trkpt lat="48.41525" lon="2.02096">
        <ele>145</ele>
        <time>2011-04-30T08:50:15Z</time>
      </trkpt>
      <trkpt lat="48.41526" lon="2.02093">
        <ele>145</ele>
        <time>2011-04-30T08:50:16Z</time>
      </trkpt>
      <trkpt lat="48.41528" lon="2.0209">
        <ele>145</ele>
        <time>2011-04-30T08:50:17Z</time>
      </trkpt>
      <trkpt lat="48.41529" lon="2.02087">
        <ele>145</ele>
        <time>2011-04-30T08:50:18Z</time>
      </trkpt>
      <trkpt lat="48.41531" lon="2.02084">
        <ele>145</ele>
        <time>2011-04-30T08:50:19Z</time>
      </trkpt>
      <trkpt lat="48.41532" lon="2.0208">
        <ele>145</ele>
        <time>2011-04-30T08:50:20Z</time>
      </trkpt>
      <trkpt lat="48.41533" lon="2.02077">
        <ele>145</ele>
        <time>2011-04-30T08:50:21Z</time>
      </trkpt>
      <trkpt lat="48.41535" lon="2.02074">
        <ele>145</ele>
        <time>2011-04-30T08:50:22Z</time>
      </trkpt>
      <trkpt lat="48.41536" lon="2.02071">
        <ele>145</ele>
        <time>2011-04-30T08:50:23Z</time>
      </trkpt>
      <trkpt lat="48.41537" lon="2.02068">
        <ele>145</ele>
        <time>2011-04-30T08:50:24Z</time>
      </trkpt>
      <trkpt lat="48.41539" lon="2.02065">
        <ele>145</ele>
        <time>2011-04-30T08:50:25Z</time>
      </trkpt>
      <trkpt lat="48.4154" lon="2.02062">
        <ele>145</ele>
        <time>2011-04-30T08:50:26Z</time>
      </trkpt>
      <trkpt lat="48.41541" lon="2.02059">
        <ele>145</ele>
        <time>2011-04-30T08:50:27Z</time>
      </trkpt>
      <trkpt lat="48.41543" lon="2.02056">
        <ele>145</ele>
        <time>2011-04-30T08:50:28Z</time>
      </trkpt>
      <trkpt lat="48.41544" lon="2.02053">
        <ele>145</ele>
        <time>2011-04-30T08:50:29Z</time>
      </trkpt>
      <trkpt lat="48.41545" lon="2.0205">
        <ele>145</ele>
        <time>2011-04-30T08:50:30Z</time>
      </trkpt>
      <trkpt lat="48.41546" lon="2.02047">
        <ele>145</ele>
        <time>2011-04-30T08:50:31Z</time>
      </trkpt>
      <trkpt lat="48.41548" lon="2.02043">
        <ele>145</ele>
        <time>2011-04-30T08:50:32Z</time>
      </trkpt>
      <trkpt lat="48.41549" lon="2.0204">
        <ele>145</ele>
        <time>2011-04-30T08:50:33Z</time>
      </trkpt>
      <trkpt lat="48.4155" lon="2.02037">
        <ele>145</ele>
        <time>2011-04-30T08:50:34Z</time>
      </trkpt>
      <trkpt lat="48.41551" lon="2.02033">
        <ele>145</ele>
        <time>2011-04-30T08:50:35Z</time>
      </trkpt>
      <trkpt lat="48.41552" lon="2.0203">
        <ele>145</ele>
        <time>2011-04-30T08:50:36Z</time>
      </trkpt>
      <trkpt lat="48.41554" lon="2.02027">
        <ele>145</ele>
        <time>2011-04-30T08:50:37Z</time>
      </trkpt>
      <trkpt lat="48.41555" lon="2.02024">
        <ele>145</ele>
        <time>2011-04-30T08:50:38Z</time>
      </trkpt>
      <trkpt lat="48.41556" lon="2.0202">
        <ele>145</ele>
        <time>2011-04-30T08:50:39Z</time>
      </trkpt>
      <trkpt lat="48.41557" lon="2.02017">
        <ele>145</ele>
        <time>2011-04-30T08:50:40Z</time>
      </trkpt>
      <trkpt lat="48.41559" lon="2.02014">
        <ele>145</ele>
        <time>2011-04-30T08:50:41Z</time>
      </trkpt>
      <trkpt lat="48.4156" lon="2.02011">
        <ele>145</ele>
        <time>2011-04-30T08:50:42Z</time>
      </trkpt>
      <trkpt lat="48.41561" lon="2.02007">
        <ele>145</ele>
        <time>2011-04-30T08:50:43Z</time>
      </trkpt>
      <trkpt lat="48.41562" lon="2.02004">
        <ele>145</ele>
        <time>2011-04-30T08:50:44Z</time>
      </trkpt>
      <trkpt lat="48.41564" lon="2.02001">
        <ele>145</ele>
        <time>2011-04-30T08:50:45Z</time>
      </trkpt>
      <trkpt lat="48.41565" lon="2.01998">
        <ele>145</ele>
        <time>2011-04-30T08:50:46Z</time>
      </trkpt>
      <trkpt lat="48.41566" lon="2.01994">
        <ele>145</ele>
        <time>2011-04-30T08:50:47Z</time>
      </trkpt>
      <trkpt lat="48.41567" lon="2.01991">
        <ele>145</ele>
        <time>2011-04-30T08:50:48Z</time>
      </trkpt>
      <trkpt lat="48.41568" lon="2.01988">
        <ele>145</ele>
        <time>2011-04-30T08:50:49Z</time>
      </trkpt>
      <trkpt lat="48.41569" lon="2.01985">
        <ele>145</ele>
        <time>2011-04-30T08:50:50Z</time>
      </trkpt>
      <trkpt lat="48.4157" lon="2.01981">
        <ele>145</ele>
        <time>2011-04-30T08:50:51Z</time>
      </trkpt>
      <trkpt lat="48.41571" lon="2.01978">
        <ele>145</ele>
        <time>2011-04-30T08:50:52Z</time>
      </trkpt>
      <trkpt lat="48.41573" lon="2.01974">
        <ele>145</ele>
        <time>2011-04-30T08:50:53Z</time>
      </trkpt>
      <trkpt lat="48.41574" lon="2.01971">
        <ele>145</ele>
        <time>2011-04-30T08:50:54Z</time>
      </trkpt>
      <trkpt lat="48.41575" lon="2.01967">
        <ele>145</ele>
        <time>2011-04-30T08:50:55Z</time>
      </trkpt>
      <trkpt lat="48.41576" lon="2.01964">
        <ele>145</ele>
        <time>2011-04-30T08:50:56Z</time>
      </trkpt>
      <trkpt lat="48.41577" lon="2.01961">
        <ele>145</ele>
        <time>2011-04-30T08:50:57Z</time>
      </trkpt>
      <trkpt lat="48.41578" lon="2.01957">
        <ele>145</ele>
        <time>2011-04-30T08:50:58Z</time>
      </trkpt>
      <trkpt lat="48.41579" lon="2.01954">
        <ele>145</ele>
        <time>2011-04-30T08:50:59Z</time>
      </trkpt>
      <trkpt lat="48.4158" lon="2.01951">
        <ele>145</ele>
        <time>2011-04-30T08:51:00Z</time>
      </trkpt>
      <trkpt lat="48.41581" lon="2.01947">
        <ele>145</ele>
        <time>2011-04-30T08:51:01Z</time>
      </trkpt>
      <trkpt lat="48.41582" lon="2.01944">
        <ele>145</ele>
        <time>2011-04-30T08:51:02Z</time>
      </trkpt>
      <trkpt lat="48.41583" lon="2.01941">
        <ele>145</ele>
        <time>2011-04-30T08:51:03Z</time>
      </trkpt>
      <trkpt lat="48.41584" lon="2.01938">
        <ele>145</ele>
        <time>2011-04-30T08:51:04Z</time>
      </trkpt>
      <trkpt lat="48.41585" lon="2.01934">
        <ele>145</ele>
        <time>2011-04-30T08:51:05Z</time>
      </trkpt>
      <trkpt lat="48.41586" lon="2.01931">
        <ele>145</ele>
        <time>2011-04-30T08:51:06Z</time>
      </trkpt>
      <trkpt lat="48.41586" lon="2.01928">
        <ele>145</ele>
        <time>2011-04-30T08:51:07Z</time>
      </trkpt>
      <trkpt lat="48.41587" lon="2.01925">
        <ele>145</ele>
        <time>2011-04-30T08:51:08Z</time>
      </trkpt>
      <trkpt lat="48.41588" lon="2.01921">
        <ele>145</ele>
        <time>2011-04-30T08:51:09Z</time>
      </trkpt>
      <trkpt lat="48.41589" lon="2.01918">
        <ele>145</ele>
        <time>2011-04-30T08:51:10Z</time>
      </trkpt>
      <trkpt lat="48.4159" lon="2.01915">
        <ele>145</ele>
        <time>2011-04-30T08:51:11Z</time>
      </trkpt>
      <trkpt lat="48.41591" lon="2.01912">
        <ele>145</ele>
        <time>2011-04-30T08:51:12Z</time>
      </trkpt>
      <trkpt lat="48.41592" lon="2.01908">
        <ele>145</ele>
        <time>2011-04-30T08:51:13Z</time>
      </trkpt>
      <trkpt lat="48.41592" lon="2.01905">
        <ele>145</ele>
        <time>2011-04-30T08:51:14Z</time>
      </trkpt>
      <trkpt lat="48.41593" lon="2.01901">
        <ele>145</ele>
        <time>2011-04-30T08:51:15Z</time>
      </trkpt>
      <trkpt lat="48.41594" lon="2.01898">
        <ele>145</ele>
        <time>2011-04-30T08:51:16Z</time>
      </trkpt>
      <trkpt lat="48.41595" lon="2.01895">
        <ele>145</ele>
        <time>2011-04-30T08:51:17Z</time>
      </trkpt>
      <trkpt lat="48.41596" lon="2.01891">
        <ele>145</ele>
        <time>2011-04-30T08:51:18Z</time>
      </trkpt>
      <trkpt lat="48.41597" lon="2.01888">
        <ele>145</ele>
        <time>2011-04-30T08:51:19Z</time>
      </trkpt>
      <trkpt lat="48.41597" lon="2.01885">
        <ele>145</ele>
        <time>2011-04-30T08:51:20Z</time>
      </trkpt>
      <trkpt lat="48.41598" lon="2.01881">
        <ele>145</ele>
        <time>2011-04-30T08:51:21Z</time>
      </trkpt>
      <trkpt lat="48.41599" lon="2.01878">
        <ele>145</ele>
        <time>2011-04-30T08:51:22Z</time>
      </trkpt>
      <trkpt lat="48.416" lon="2.01875">
        <ele>144</ele>
        <time>2011-04-30T08:51:23Z</time>
      </trkpt>
      <trkpt lat="48.41601" lon="2.01871">
        <ele>144</ele>
        <time>2011-04-30T08:51:24Z</time>
      </trkpt>
      <trkpt lat="48.41602" lon="2.01868">
        <ele>144</ele>
        <time>2011-04-30T08:51:25Z</time>
      </trkpt>
      <trkpt lat="48.41603" lon="2.01864">
        <ele>144</ele>
        <time>2011-04-30T08:51:26Z</time>
      </trkpt>
      <trkpt lat="48.41604" lon="2.01861">
        <ele>144</ele>
        <time>2011-04-30T08:51:27Z</time>
      </trkpt>
      <trkpt lat="48.41606" lon="2.01858">
        <ele>144</ele>
        <time>2011-04-30T08:51:28Z</time>
      </trkpt>
      <trkpt lat="48.41607" lon="2.01855">
        <ele>144</ele>
        <time>2011-04-30T08:51:29Z</time>
      </trkpt>
      <trkpt lat="48.41608" lon="2.01852">
        <ele>144</ele>
        <time>2011-04-30T08:51:30Z</time>
      </trkpt>
      <trkpt lat="48.41609" lon="2.01848">
        <ele>144</ele>
        <time>2011-04-30T08:51:31Z</time>
      </trkpt>
      <trkpt lat="48.4161" lon="2.01845">
        <ele>144</ele>
        <time>2011-04-30T08:51:32Z</time>
      </trkpt>
      <trkpt lat="48.41611" lon="2.01842">
        <ele>144</ele>
        <time>2011-04-30T08:51:33Z</time>
      </trkpt>
      <trkpt lat="48.41612" lon="2.01838">
        <ele>144</ele>
        <time>2011-04-30T08:51:34Z</time>
      </trkpt>
      <trkpt lat="48.41613" lon="2.01835">
        <ele>144</ele>
        <time>2011-04-30T08:51:35Z</time>
      </trkpt>
      <trkpt lat="48.41614" lon="2.01832">
        <ele>145</ele>
        <time>2011-04-30T08:51:36Z</time>
      </trkpt>
      <trkpt lat="48.41615" lon="2.01828">
        <ele>145</ele>
        <time>2011-04-30T08:51:37Z</time>
      </trkpt>
      <trkpt lat="48.41616" lon="2.01825">
        <ele>145</ele>
        <time>2011-04-30T08:51:38Z</time>
      </trkpt>
      <trkpt lat="48.41617" lon="2.01821">
        <ele>145</ele>
        <time>2011-04-30T08:51:39Z</time>
      </trkpt>
      <trkpt lat="48.41618" lon="2.01818">
        <ele>145</ele>
        <time>2011-04-30T08:51:40Z</time>
      </trkpt>
      <trkpt lat="48.41618" lon="2.01814">
        <ele>145</ele>
        <time>2011-04-30T08:51:41Z</time>
      </trkpt>
      <trkpt lat="48.41619" lon="2.01811">
        <ele>145</ele>
        <time>2011-04-30T08:51:42Z</time>
      </trkpt>
      <trkpt lat="48.4162" lon="2.01808">
        <ele>145</ele>
        <time>2011-04-30T08:51:43Z</time>
      </trkpt>
      <trkpt lat="48.41621" lon="2.01804">
        <ele>145</ele>
        <time>2011-04-30T08:51:44Z</time>
      </trkpt>
      <trkpt lat="48.41622" lon="2.01801">
        <ele>145</ele>
        <time>2011-04-30T08:51:45Z</time>
      </trkpt>
      <trkpt lat="48.41623" lon="2.01797">
        <ele>145</ele>
        <time>2011-04-30T08:51:46Z</time>
      </trkpt>
      <trkpt lat="48.41624" lon="2.01794">
        <ele>145</ele>
        <time>2011-04-30T08:51:47Z</time>
      </trkpt>
      <trkpt lat="48.41624" lon="2.01791">
        <ele>145</ele>
        <time>2011-04-30T08:51:48Z</time>
      </trkpt>
      <trkpt lat="48.41625" lon="2.01787">
        <ele>145</ele>
        <time>2011-04-30T08:51:49Z</time>
      </trkpt>
      <trkpt lat="48.41626" lon="2.01784">
        <ele>145</ele>
        <time>2011-04-30T08:51:50Z</time>
      </trkpt>
      <trkpt lat="48.41627" lon="2.01781">
        <ele>145</ele>
        <time>2011-04-30T08:51:51Z</time>
      </trkpt>
      <trkpt lat="48.41628" lon="2.01778">
        <ele>145</ele>
        <time>2011-04-30T08:51:52Z</time>
      </trkpt>
      <trkpt lat="48.41629" lon="2.01774">
        <ele>145</ele>
        <time>2011-04-30T08:51:53Z</time>
      </trkpt>
      <trkpt lat="48.4163" lon="2.01771">
        <ele>145</ele>
        <time>2011-04-30T08:51:54Z</time>
      </trkpt>
      <trkpt lat="48.41631" lon="2.01768">
        <ele>145</ele>
        <time>2011-04-30T08:51:55Z</time>
      </trkpt>
      <trkpt lat="48.41631" lon="2.01765">
        <ele>145</ele>
        <time>2011-04-30T08:51:56Z</time>
      </trkpt>
      <trkpt lat="48.41632" lon="2.01762">
        <ele>145</ele>
        <time>2011-04-30T08:51:57Z</time>
      </trkpt>
      <trkpt lat="48.41633" lon="2.01758">
        <ele>145</ele>
        <time>2011-04-30T08:51:58Z</time>
      </trkpt>
      <trkpt lat="48.41634" lon="2.01755">
        <ele>145</ele>
        <time>2011-04-30T08:51:59Z</time>
      </trkpt>
      <trkpt lat="48.41635" lon="2.01752">
        <ele>145</ele>
        <time>2011-04-30T08:52:00Z</time>
      </trkpt>
      <trkpt lat="48.41636" lon="2.01749">
        <ele>145</ele>
        <time>2011-04-30T08:52:01Z</time>
      </trkpt>
      <trkpt lat="48.41637" lon="2.01746">
        <ele>145</ele>
        <time>2011-04-30T08:52:02Z</time>
      </trkpt>
      <trkpt lat="48.41638" lon="2.01742">
        <ele>145</ele>
        <time>2011-04-30T08:52:03Z</time>
      </trkpt>
      <trkpt lat="48.41639" lon="2.01739">
        <ele>144</ele>
        <time>2011-04-30T08:52:04Z</time>
      </trkpt>
      <trkpt lat="48.4164" lon="2.01736">
        <ele>144</ele>
        <time>2011-04-30T08:52:05Z</time>
      </trkpt>
      <trkpt lat="48.41641" lon="2.01732">
        <ele>144</ele>
        <time>2011-04-30T08:52:06Z</time>
      </trkpt>
      <trkpt lat="48.41641" lon="2.01729">
        <ele>144</ele>
        <time>2011-04-30T08:52:07Z</time>
      </trkpt>
      <trkpt lat="48.41642" lon="2.01725">
        <ele>144</ele>
        <time>2011-04-30T08:52:08Z</time>
      </trkpt>
      <trkpt lat="48.41643" lon="2.01722">
        <ele>144</ele>
        <time>2011-04-30T08:52:09Z</time>
      </trkpt>
      <trkpt lat="48.41644" lon="2.01719">
        <ele>144</ele>
        <time>2011-04-30T08:52:10Z</time>
      </trkpt>
      <trkpt lat="48.41644" lon="2.01717">
        <ele>144</ele>
        <time>2011-04-30T08:52:11Z</time>
      </trkpt>
      <trkpt lat="48.41645" lon="2.01714">
        <ele>144</ele>
        <time>2011-04-30T08:52:12Z</time>
      </trkpt>
      <trkpt lat="48.41646" lon="2.01711">
        <ele>144</ele>
        <time>2011-04-30T08:52:13Z</time>
      </trkpt>
      <trkpt lat="48.41646" lon="2.01708">
        <ele>144</ele>
        <time>2011-04-30T08:52:14Z</time>
      </trkpt>
      <trkpt lat="48.41647" lon="2.01706">
        <ele>145</ele>
        <time>2011-04-30T08:52:15Z</time>
      </trkpt>
      <trkpt lat="48.41648" lon="2.01703">
        <ele>145</ele>
        <time>2011-04-30T08:52:16Z</time>
      </trkpt>
      <trkpt lat="48.41649" lon="2.01699">
        <ele>145</ele>
        <time>2011-04-30T08:52:17Z</time>
      </trkpt>
      <trkpt lat="48.4165" lon="2.01696">
        <ele>145</ele>
        <time>2011-04-30T08:52:18Z</time>
      </trkpt>
      <trkpt lat="48.41651" lon="2.01693">
        <ele>145</ele>
        <time>2011-04-30T08:52:19Z</time>
      </trkpt>
      <trkpt lat="48.41652" lon="2.01689">
        <ele>145</ele>
        <time>2011-04-30T08:52:20Z</time>
      </trkpt>
      <trkpt lat="48.41652" lon="2.01686">
        <ele>145</ele>
        <time>2011-04-30T08:52:21Z</time>
      </trkpt>
      <trkpt lat="48.41653" lon="2.01683">
        <ele>145</ele>
        <time>2011-04-30T08:52:22Z</time>
      </trkpt>
      <trkpt lat="48.41654" lon="2.0168">
        <ele>145</ele>
        <time>2011-04-30T08:52:23Z</time>
      </trkpt>
      <trkpt lat="48.41654" lon="2.01678">
        <ele>145</ele>
        <time>2011-04-30T08:52:24Z</time>
      </trkpt>
      <trkpt lat="48.41655" lon="2.01675">
        <ele>145</ele>
        <time>2011-04-30T08:52:25Z</time>
      </trkpt>
      <trkpt lat="48.41656" lon="2.01672">
        <ele>145</ele>
        <time>2011-04-30T08:52:26Z</time>
      </trkpt>
      <trkpt lat="48.41657" lon="2.01669">
        <ele>145</ele>
        <time>2011-04-30T08:52:27Z</time>
      </trkpt>
      <trkpt lat="48.41658" lon="2.01666">
        <ele>145</ele>
        <time>2011-04-30T08:52:28Z</time>
      </trkpt>
      <trkpt lat="48.41659" lon="2.01663">
        <ele>145</ele>
        <time>2011-04-30T08:52:29Z</time>
      </trkpt>
      <trkpt lat="48.4166" lon="2.0166">
        <ele>145</ele>
        <time>2011-04-30T08:52:30Z</time>
      </trkpt>
      <trkpt lat="48.41661" lon="2.01657">
        <ele>144</ele>
        <time>2011-04-30T08:52:31Z</time>
      </trkpt>
      <trkpt lat="48.41662" lon="2.01654">
        <ele>144</ele>
        <time>2011-04-30T08:52:32Z</time>
      </trkpt>
      <trkpt lat="48.41663" lon="2.01651">
        <ele>144</ele>
        <time>2011-04-30T08:52:33Z</time>
      </trkpt>
      <trkpt lat="48.41664" lon="2.01648">
        <ele>144</ele>
        <time>2011-04-30T08:52:34Z</time>
      </trkpt>
      <trkpt lat="48.41665" lon="2.01644">
        <ele>144</ele>
        <time>2011-04-30T08:52:35Z</time>
      </trkpt>
      <trkpt lat="48.41665" lon="2.01641">
        <ele>144</ele>
        <time>2011-04-30T08:52:36Z</time>
      </trkpt>
      <trkpt lat="48.41666" lon="2.01638">
        <ele>144</ele>
        <time>2011-04-30T08:52:37Z</time>
      </trkpt>
      <trkpt lat="48.41667" lon="2.01635">
        <ele>145</ele>
        <time>2011-04-30T08:52:38Z</time>
      </trkpt>
      <trkpt lat="48.41668" lon="2.01631">
        <ele>145</ele>
        <time>2011-04-30T08:52:39Z</time>
      </trkpt>
      <trkpt lat="48.41669" lon="2.01628">
        <ele>145</ele>
        <time>2011-04-30T08:52:40Z</time>
      </trkpt>
      <trkpt lat="48.4167" lon="2.01625">
        <ele>144</ele>
        <time>2011-04-30T08:52:41Z</time>
      </trkpt>
      <trkpt lat="48.41671" lon="2.01622">
        <ele>144</ele>
        <time>2011-04-30T08:52:42Z</time>
      </trkpt>
      <trkpt lat="48.41671" lon="2.01618">
        <ele>144</ele>
        <time>2011-04-30T08:52:43Z</time>
      </trkpt>
      <trkpt lat="48.41672" lon="2.01615">
        <ele>144</ele>
        <time>2011-04-30T08:52:44Z</time>
      </trkpt>
      <trkpt lat="48.41673" lon="2.01611">
        <ele>144</ele>
        <time>2011-04-30T08:52:45Z</time>
      </trkpt>
      <trkpt lat="48.41674" lon="2.01608">
        <ele>144</ele>
        <time>2011-04-30T08:52:46Z</time>
      </trkpt>
      <trkpt lat="48.41674" lon="2.01604">
        <ele>144</ele>
        <time>2011-04-30T08:52:47Z</time>
      </trkpt>
      <trkpt lat="48.41675" lon="2.01601">
        <ele>144</ele>
        <time>2011-04-30T08:52:48Z</time>
      </trkpt>
      <trkpt lat="48.41676" lon="2.01597">
        <ele>144</ele>
        <time>2011-04-30T08:52:49Z</time>
      </trkpt>
      <trkpt lat="48.41677" lon="2.01594">
        <ele>144</ele>
        <time>2011-04-30T08:52:50Z</time>
      </trkpt>
      <trkpt lat="48.41677" lon="2.0159">
        <ele>144</ele>
        <time>2011-04-30T08:52:51Z</time>
      </trkpt>
      <trkpt lat="48.41678" lon="2.01587">
        <ele>144</ele>
        <time>2011-04-30T08:52:52Z</time>
      </trkpt>
      <trkpt lat="48.4168" lon="2.01584">
        <ele>144</ele>
        <time>2011-04-30T08:52:53Z</time>
      </trkpt>
      <trkpt lat="48.4168" lon="2.01581">
        <ele>144</ele>
        <time>2011-04-30T08:52:54Z</time>
      </trkpt>
      <trkpt lat="48.41681" lon="2.01578">
        <ele>144</ele>
        <time>2011-04-30T08:52:55Z</time>
      </trkpt>
      <trkpt lat="48.41682" lon="2.01574">
        <ele>144</ele>
        <time>2011-04-30T08:52:56Z</time>
      </trkpt>
      <trkpt lat="48.41683" lon="2.01571">
        <ele>144</ele>
        <time>2011-04-30T08:52:57Z</time>
      </trkpt>
      <trkpt lat="48.41684" lon="2.01568">
        <ele>144</ele>
        <time>2011-04-30T08:52:58Z</time>
      </trkpt>
      <trkpt lat="48.41685" lon="2.01564">
        <ele>144</ele>
        <time>2011-04-30T08:52:59Z</time>
      </trkpt>
      <trkpt lat="48.41686" lon="2.01561">
        <ele>144</ele>
        <time>2011-04-30T08:53:00Z</time>
      </trkpt>
      <trkpt lat="48.41687" lon="2.01558">
        <ele>144</ele>
        <time>2011-04-30T08:53:01Z</time>
      </trkpt>
      <trkpt lat="48.41688" lon="2.01555">
        <ele>144</ele>
        <time>2011-04-30T08:53:02Z</time>
      </trkpt>
      <trkpt lat="48.41689" lon="2.01551">
        <ele>144</ele>
        <time>2011-04-30T08:53:03Z</time>
      </trkpt>
      <trkpt lat="48.4169" lon="2.01548">
        <ele>144</ele>
        <time>2011-04-30T08:53:04Z</time>
      </trkpt>
      <trkpt lat="48.41691" lon="2.01545">
        <ele>144</ele>
        <time>2011-04-30T08:53:05Z</time>
      </trkpt>
      <trkpt lat="48.41692" lon="2.01541">
        <ele>144</ele>
        <time>2011-04-30T08:53:06Z</time>
      </trkpt>
      <trkpt lat="48.41692" lon="2.01538">
        <ele>144</ele>
        <time>2011-04-30T08:53:07Z</time>
      </trkpt>
      <trkpt lat="48.41693" lon="2.01535">
        <ele>144</ele>
        <time>2011-04-30T08:53:08Z</time>
      </trkpt>
      <trkpt lat="48.41694" lon="2.01531">
        <ele>144</ele>
        <time>2011-04-30T08:53:09Z</time>
      </trkpt>
      <trkpt lat="48.41695" lon="2.01528">
        <ele>144</ele>
        <time>2011-04-30T08:53:10Z</time>
      </trkpt>
      <trkpt lat="48.41696" lon="2.01525">
        <ele>144</ele>
        <time>2011-04-30T08:53:11Z</time>
      </trkpt>
      <trkpt lat="48.41697" lon="2.01521">
        <ele>144</ele>
        <time>2011-04-30T08:53:12Z</time>
      </trkpt>
      <trkpt lat="48.41698" lon="2.01518">
        <ele>144</ele>
        <time>2011-04-30T08:53:13Z</time>
      </trkpt>
      <trkpt lat="48.41698" lon="2.01515">
        <ele>144</ele>
        <time>2011-04-30T08:53:14Z</time>
      </trkpt>
      <trkpt lat="48.41699" lon="2.01511">
        <ele>144</ele>
        <time>2011-04-30T08:53:15Z</time>
      </trkpt>
      <trkpt lat="48.417" lon="2.01508">
        <ele>144</ele>
        <time>2011-04-30T08:53:16Z</time>
      </trkpt>
      <trkpt lat="48.41701" lon="2.01505">
        <ele>144</ele>
        <time>2011-04-30T08:53:17Z</time>
      </trkpt>
      <trkpt lat="48.41702" lon="2.01502">
        <ele>144</ele>
        <time>2011-04-30T08:53:18Z</time>
      </trkpt>
      <trkpt lat="48.41703" lon="2.01498">
        <ele>144</ele>
        <time>2011-04-30T08:53:19Z</time>
      </trkpt>
      <trkpt lat="48.41704" lon="2.01495">
        <ele>144</ele>
        <time>2011-04-30T08:53:20Z</time>
      </trkpt>
      <trkpt lat="48.41705" lon="2.01492">
        <ele>144</ele>
        <time>2011-04-30T08:53:21Z</time>
      </trkpt>
      <trkpt lat="48.41706" lon="2.01488">
        <ele>144</ele>
        <time>2011-04-30T08:53:22Z</time>
      </trkpt>
      <trkpt lat="48.41706" lon="2.01485">
        <ele>144</ele>
        <time>2011-04-30T08:53:23Z</time>
      </trkpt>
      <trkpt lat="48.41707" lon="2.01482">
        <ele>144</ele>
        <time>2011-04-30T08:53:24Z</time>
      </trkpt>
      <trkpt lat="48.41708" lon="2.01479">
        <ele>145</ele>
        <time>2011-04-30T08:53:25Z</time>
      </trkpt>
      <trkpt lat="48.4171" lon="2.01477">
        <ele>145</ele>
        <time>2011-04-30T08:53:26Z</time>
      </trkpt>
      <trkpt lat="48.41711" lon="2.01474">
        <ele>145</ele>
        <time>2011-04-30T08:53:27Z</time>
      </trkpt>
      <trkpt lat="48.41712" lon="2.01472">
        <ele>145</ele>
        <time>2011-04-30T08:53:28Z</time>
      </trkpt>
      <trkpt lat="48.41714" lon="2.0147">
        <ele>145</ele>
        <time>2011-04-30T08:53:29Z</time>
      </trkpt>
      <trkpt lat="48.41715" lon="2.01468">
        <ele>145</ele>
        <time>2011-04-30T08:53:30Z</time>
      </trkpt>
      <trkpt lat="48.41717" lon="2.01467">
        <ele>145</ele>
        <time>2011-04-30T08:53:31Z</time>
      </trkpt>
      <trkpt lat="48.4172" lon="2.01466">
        <ele>145</ele>
        <time>2011-04-30T08:53:32Z</time>
      </trkpt>
      <trkpt lat="48.41722" lon="2.01466">
        <ele>145</ele>
        <time>2011-04-30T08:53:33Z</time>
      </trkpt>
      <trkpt lat="48.41724" lon="2.01467">
        <ele>145</ele>
        <time>2011-04-30T08:53:34Z</time>
      </trkpt>
      <trkpt lat="48.41726" lon="2.01468">
        <ele>145</ele>
        <time>2011-04-30T08:53:35Z</time>
      </trkpt>
      <trkpt lat="48.41729" lon="2.01469">
        <ele>145</ele>
        <time>2011-04-30T08:53:36Z</time>
      </trkpt>
      <trkpt lat="48.41731" lon="2.0147">
        <ele>145</ele>
        <time>2011-04-30T08:53:37Z</time>
      </trkpt>
      <trkpt lat="48.41733" lon="2.01471">
        <ele>145</ele>
        <time>2011-04-30T08:53:38Z</time>
      </trkpt>
      <trkpt lat="48.41735" lon="2.01472">
        <ele>145</ele>
        <time>2011-04-30T08:53:39Z</time>
      </trkpt>
      <trkpt lat="48.41738" lon="2.01473">
        <ele>145</ele>
        <time>2011-04-30T08:53:40Z</time>
      </trkpt>
      <trkpt lat="48.4174" lon="2.01474">
        <ele>145</ele>
        <time>2011-04-30T08:53:41Z</time>
      </trkpt>
      <trkpt lat="48.41742" lon="2.01474">
        <ele>145</ele>
        <time>2011-04-30T08:53:42Z</time>
      </trkpt>
      <trkpt lat="48.41744" lon="2.01475">
        <ele>145</ele>
        <time>2011-04-30T08:53:43Z</time>
      </trkpt>
      <trkpt lat="48.41747" lon="2.01475">
        <ele>145</ele>
        <time>2011-04-30T08:53:44Z</time>
      </trkpt>
      <trkpt lat="48.41749" lon="2.01476">
        <ele>145</ele>
        <time>2011-04-30T08:53:45Z</time>
      </trkpt>
      <trkpt lat="48.41751" lon="2.01476">
        <ele>146</ele>
        <time>2011-04-30T08:53:46Z</time>
      </trkpt>
      <trkpt lat="48.41754" lon="2.01477">
        <ele>146</ele>
        <time>2011-04-30T08:53:47Z</time>
      </trkpt>
      <trkpt lat="48.41756" lon="2.01477">
        <ele>146</ele>
        <time>2011-04-30T08:53:48Z</time>
      </trkpt>
      <trkpt lat="48.41758" lon="2.01477">
        <ele>146</ele>
        <time>2011-04-30T08:53:49Z</time>
      </trkpt>
      <trkpt lat="48.41761" lon="2.01478">
        <ele>146</ele>
        <time>2011-04-30T08:53:50Z</time>
      </trkpt>
      <trkpt lat="48.41763" lon="2.01478">
        <ele>146</ele>
        <time>2011-04-30T08:53:51Z</time>
      </trkpt>
      <trkpt lat="48.41765" lon="2.01478">
        <ele>146</ele>
        <time>2011-04-30T08:53:52Z</time>
      </trkpt>
      <trkpt lat="48.41768" lon="2.01479">
        <ele>146</ele>
        <time>2011-04-30T08:53:53Z</time>
      </trkpt>
      <trkpt lat="48.4177" lon="2.01479">
        <ele>146</ele>
        <time>2011-04-30T08:53:54Z</time>
      </trkpt>
      <trkpt lat="48.41773" lon="2.01479">
        <ele>146</ele>
        <time>2011-04-30T08:53:55Z</time>
      </trkpt>
      <trkpt lat="48.41775" lon="2.01479">
        <ele>146</ele>
        <time>2011-04-30T08:53:56Z</time>
      </trkpt>
      <trkpt lat="48.41777" lon="2.0148">
        <ele>146</ele>
        <time>2011-04-30T08:53:57Z</time>
      </trkpt>
      <trkpt lat="48.41779" lon="2.0148">
        <ele>146</ele>
        <time>2011-04-30T08:53:58Z</time>
      </trkpt>
      <trkpt lat="48.41782" lon="2.0148">
        <ele>146</ele>
        <time>2011-04-30T08:53:59Z</time>
      </trkpt>
      <trkpt lat="48.41784" lon="2.0148">
        <ele>146</ele>
        <time>2011-04-30T08:54:00Z</time>
      </trkpt>
      <trkpt lat="48.41786" lon="2.01481">
        <ele>146</ele>
        <time>2011-04-30T08:54:01Z</time>
      </trkpt>
      <trkpt lat="48.41788" lon="2.01481">
        <ele>146</ele>
        <time>2011-04-30T08:54:02Z</time>
      </trkpt>
      <trkpt lat="48.4179" lon="2.01481">
        <ele>146</ele>
        <time>2011-04-30T08:54:03Z</time>
      </trkpt>
      <trkpt lat="48.41793" lon="2.01481">
        <ele>146</ele>
        <time>2011-04-30T08:54:04Z</time>
      </trkpt>
      <trkpt lat="48.41795" lon="2.01481">
        <ele>146</ele>
        <time>2011-04-30T08:54:05Z</time>
      </trkpt>
      <trkpt lat="48.41797" lon="2.01481">
        <ele>146</ele>
        <time>2011-04-30T08:54:06Z</time>
      </trkpt>
      <trkpt lat="48.418" lon="2.01481">
        <ele>146</ele>
        <time>2011-04-30T08:54:07Z</time>
      </trkpt>
      <trkpt lat="48.41802" lon="2.01481">
        <ele>146</ele>
        <time>2011-04-30T08:54:08Z</time>
      </trkpt>
      <trkpt lat="48.41804" lon="2.01481">
        <ele>146</ele>
        <time>2011-04-30T08:54:09Z</time>
      </trkpt>
      <trkpt lat="48.41806" lon="2.01481">
        <ele>146</ele>
        <time>2011-04-30T08:54:10Z</time>
      </trkpt>
      <trkpt lat="48.41809" lon="2.01481">
        <ele>146</ele>
        <time>2011-04-30T08:54:11Z</time>
      </trkpt>
      <trkpt lat="48.41811" lon="2.01481">
        <ele>146</ele>
        <time>2011-04-30T08:54:12Z</time>
      </trkpt>
      <trkpt lat="48.41813" lon="2.01481">
        <ele>146</ele>
        <time>2011-04-30T08:54:13Z</time>
      </trkpt>
      <trkpt lat="48.41816" lon="2.01481">
        <ele>146</ele>
        <time>2011-04-30T08:54:14Z</time>
      </trkpt>
      <trkpt lat="48.41818" lon="2.01481">
        <ele>146</ele>
        <time>2011-04-30T08:54:15Z</time>
      </trkpt>
      <trkpt lat="48.4182" lon="2.01481">
        <ele>146</ele>
        <time>2011-04-30T08:54:16Z</time>
      </trkpt>
      <trkpt lat="48.41823" lon="2.01481">
        <ele>146</ele>
        <time>2011-04-30T08:54:17Z</time>
      </trkpt>
      <trkpt lat="48.41825" lon="2.01481">
        <ele>146</ele>
        <time>2011-04-30T08:54:18Z</time>
      </trkpt>
      <trkpt lat="48.41827" lon="2.01481">
        <ele>146</ele>
        <time>2011-04-30T08:54:19Z</time>
      </trkpt>
      <trkpt lat="48.4183" lon="2.01481">
        <ele>146</ele>
        <time>2011-04-30T08:54:20Z</time>
      </trkpt>
      <trkpt lat="48.41832" lon="2.01481">
        <ele>146</ele>
        <time>2011-04-30T08:54:21Z</time>
      </trkpt>
      <trkpt lat="48.41834" lon="2.01481">
        <ele>146</ele>
        <time>2011-04-30T08:54:22Z</time>
      </trkpt>
      <trkpt lat="48.41837" lon="2.01481">
        <ele>146</ele>
        <time>2011-04-30T08:54:23Z</time>
      </trkpt>
      <trkpt lat="48.41839" lon="2.01481">
        <ele>146</ele>
        <time>2011-04-30T08:54:24Z</time>
      </trkpt>
      <trkpt lat="48.41842" lon="2.01481">
        <ele>146</ele>
        <time>2011-04-30T08:54:25Z</time>
      </trkpt>
      <trkpt lat="48.41844" lon="2.0148">
        <ele>146</ele>
        <time>2011-04-30T08:54:26Z</time>
      </trkpt>
      <trkpt lat="48.41847" lon="2.0148">
        <ele>146</ele>
        <time>2011-04-30T08:54:27Z</time>
      </trkpt>
      <trkpt lat="48.41849" lon="2.0148">
        <ele>146</ele>
        <time>2011-04-30T08:54:28Z</time>
      </trkpt>
      <trkpt lat="48.41851" lon="2.0148">
        <ele>146</ele>
        <time>2011-04-30T08:54:29Z</time>
      </trkpt>
      <trkpt lat="48.41854" lon="2.0148">
        <ele>146</ele>
        <time>2011-04-30T08:54:30Z</time>
      </trkpt>
      <trkpt lat="48.41856" lon="2.01479">
        <ele>146</ele>
        <time>2011-04-30T08:54:31Z</time>
      </trkpt>
      <trkpt lat="48.41858" lon="2.01479">
        <ele>146</ele>
        <time>2011-04-30T08:54:32Z</time>
      </trkpt>
      <trkpt lat="48.41861" lon="2.01479">
        <ele>146</ele>
        <time>2011-04-30T08:54:33Z</time>
      </trkpt>
      <trkpt lat="48.41863" lon="2.01479">
        <ele>146</ele>
        <time>2011-04-30T08:54:34Z</time>
      </trkpt>
      <trkpt lat="48.41865" lon="2.01478">
        <ele>146</ele>
        <time>2011-04-30T08:54:35Z</time>
      </trkpt>
      <trkpt lat="48.41868" lon="2.01478">
        <ele>146</ele>
        <time>2011-04-30T08:54:36Z</time>
      </trkpt>
      <trkpt lat="48.4187" lon="2.01478">
        <ele>146</ele>
        <time>2011-04-30T08:54:37Z</time>
      </trkpt>
      <trkpt lat="48.41872" lon="2.01478">
        <ele>146</ele>
        <time>2011-04-30T08:54:38Z</time>
      </trkpt>
      <trkpt lat="48.41875" lon="2.01477">
        <ele>146</ele>
        <time>2011-04-30T08:54:39Z</time>
      </trkpt>
      <trkpt lat="48.41877" lon="2.01477">
        <ele>147</ele>
        <time>2011-04-30T08:54:40Z</time>
      </trkpt>
      <trkpt lat="48.41879" lon="2.01477">
        <ele>147</ele>
        <time>2011-04-30T08:54:41Z</time>
      </trkpt>
      <trkpt lat="48.41882" lon="2.01477">
        <ele>147</ele>
        <time>2011-04-30T08:54:42Z</time>
      </trkpt>
      <trkpt lat="48.41884" lon="2.01476">
        <ele>147</ele>
        <time>2011-04-30T08:54:43Z</time>
      </trkpt>
      <trkpt lat="48.41887" lon="2.01476">
        <ele>147</ele>
        <time>2011-04-30T08:54:44Z</time>
      </trkpt>
      <trkpt lat="48.41889" lon="2.01476">
        <ele>147</ele>
        <time>2011-04-30T08:54:45Z</time>
      </trkpt>
      <trkpt lat="48.41891" lon="2.01476">
        <ele>147</ele>
        <time>2011-04-30T08:54:46Z</time>
      </trkpt>
      <trkpt lat="48.41894" lon="2.01475">
        <ele>147</ele>
        <time>2011-04-30T08:54:47Z</time>
      </trkpt>
      <trkpt lat="48.41896" lon="2.01475">
        <ele>147</ele>
        <time>2011-04-30T08:54:48Z</time>
      </trkpt>
      <trkpt lat="48.41898" lon="2.01475">
        <ele>147</ele>
        <time>2011-04-30T08:54:49Z</time>
      </trkpt>
      <trkpt lat="48.41901" lon="2.01474">
        <ele>147</ele>
        <time>2011-04-30T08:54:50Z</time>
      </trkpt>
      <trkpt lat="48.41903" lon="2.01474">
        <ele>147</ele>
        <time>2011-04-30T08:54:51Z</time>
      </trkpt>
      <trkpt lat="48.41906" lon="2.01474">
        <ele>147</ele>
        <time>2011-04-30T08:54:52Z</time>
      </trkpt>
      <trkpt lat="48.41908" lon="2.01474">
        <ele>147</ele>
        <time>2011-04-30T08:54:53Z</time>
      </trkpt>
      <trkpt lat="48.41911" lon="2.01473">
        <ele>147</ele>
        <time>2011-04-30T08:54:54Z</time>
      </trkpt>
      <trkpt lat="48.41913" lon="2.01473">
        <ele>147</ele>
        <time>2011-04-30T08:54:55Z</time>
      </trkpt>
      <trkpt lat="48.41915" lon="2.01473">
        <ele>147</ele>
        <time>2011-04-30T08:54:56Z</time>
      </trkpt>
      <trkpt lat="48.41918" lon="2.01472">
        <ele>147</ele>
        <time>2011-04-30T08:54:57Z</time>
      </trkpt>
      <trkpt lat="48.4192" lon="2.01472">
        <ele>147</ele>
        <time>2011-04-30T08:54:58Z</time>
      </trkpt>
      <trkpt lat="48.41923" lon="2.01472">
        <ele>147</ele>
        <time>2011-04-30T08:54:59Z</time>
      </trkpt>
      <trkpt lat="48.41925" lon="2.01472">
        <ele>147</ele>
        <time>2011-04-30T08:55:00Z</time>
      </trkpt>
      <trkpt lat="48.41927" lon="2.01471">
        <ele>147</ele>
        <time>2011-04-30T08:55:01Z</time>
      </trkpt>
      <trkpt lat="48.4193" lon="2.01471">
        <ele>147</ele>
        <time>2011-04-30T08:55:02Z</time>
      </trkpt>
      <trkpt lat="48.41932" lon="2.0147">
        <ele>147</ele>
        <time>2011-04-30T08:55:03Z</time>
      </trkpt>
      <trkpt lat="48.41934" lon="2.0147">
        <ele>147</ele>
        <time>2011-04-30T08:55:04Z</time>
      </trkpt>
      <trkpt lat="48.41936" lon="2.0147">
        <ele>147</ele>
        <time>2011-04-30T08:55:05Z</time>
      </trkpt>
      <trkpt lat="48.41939" lon="2.01469">
        <ele>147</ele>
        <time>2011-04-30T08:55:06Z</time>
      </trkpt>
      <trkpt lat="48.41941" lon="2.01469">
        <ele>147</ele>
        <time>2011-04-30T08:55:07Z</time>
      </trkpt>
      <trkpt lat="48.41943" lon="2.01469">
        <ele>147</ele>
        <time>2011-04-30T08:55:08Z</time>
      </trkpt>
      <trkpt lat="48.41945" lon="2.01468">
        <ele>147</ele>
        <time>2011-04-30T08:55:09Z</time>
      </trkpt>
      <trkpt lat="48.41948" lon="2.01468">
        <ele>147</ele>
        <time>2011-04-30T08:55:10Z</time>
      </trkpt>
      <trkpt lat="48.4195" lon="2.01468">
        <ele>147</ele>
        <time>2011-04-30T08:55:11Z</time>
      </trkpt>
      <trkpt lat="48.41952" lon="2.01467">
        <ele>147</ele>
        <time>2011-04-30T08:55:12Z</time>
      </trkpt>
      <trkpt lat="48.41954" lon="2.01466">
        <ele>147</ele>
        <time>2011-04-30T08:55:13Z</time>
      </trkpt>
      <trkpt lat="48.41957" lon="2.01466">
        <ele>147</ele>
        <time>2011-04-30T08:55:14Z</time>
      </trkpt>
      <trkpt lat="48.41959" lon="2.01465">
        <ele>147</ele>
        <time>2011-04-30T08:55:15Z</time>
      </trkpt>
      <trkpt lat="48.41961" lon="2.01465">
        <ele>147</ele>
        <time>2011-04-30T08:55:16Z</time>
      </trkpt>
      <trkpt lat="48.41963" lon="2.01465">
        <ele>147</ele>
        <time>2011-04-30T08:55:17Z</time>
      </trkpt>
      <trkpt lat="48.41966" lon="2.01464">
        <ele>147</ele>
        <time>2011-04-30T08:55:18Z</time>
      </trkpt>
      <trkpt lat="48.41968" lon="2.01464">
        <ele>147</ele>
        <time>2011-04-30T08:55:19Z</time>
      </trkpt>
      <trkpt lat="48.4197" lon="2.01463">
        <ele>147</ele>
        <time>2011-04-30T08:55:20Z</time>
      </trkpt>
      <trkpt lat="48.41972" lon="2.01463">
        <ele>147</ele>
        <time>2011-04-30T08:55:21Z</time>
      </trkpt>
      <trkpt lat="48.41975" lon="2.01462">
        <ele>147</ele>
        <time>2011-04-30T08:55:22Z</time>
      </trkpt>
      <trkpt lat="48.41977" lon="2.01462">
        <ele>147</ele>
        <time>2011-04-30T08:55:23Z</time>
      </trkpt>
      <trkpt lat="48.41979" lon="2.01462">
        <ele>147</ele>
        <time>2011-04-30T08:55:24Z</time>
      </trkpt>
      <trkpt lat="48.41981" lon="2.01461">
        <ele>147</ele>
        <time>2011-04-30T08:55:25Z</time>
      </trkpt>
      <trkpt lat="48.41983" lon="2.01461">
        <ele>147</ele>
        <time>2011-04-30T08:55:26Z</time>
      </trkpt>
      <trkpt lat="48.41985" lon="2.0146">
        <ele>147</ele>
        <time>2011-04-30T08:55:27Z</time>
      </trkpt>
      <trkpt lat="48.41987" lon="2.0146">
        <ele>147</ele>
        <time>2011-04-30T08:55:28Z</time>
      </trkpt>
      <trkpt lat="48.41989" lon="2.0146">
        <ele>147</ele>
        <time>2011-04-30T08:55:29Z</time>
      </trkpt>
      <trkpt lat="48.41992" lon="2.01459">
        <ele>147</ele>
        <time>2011-04-30T08:55:30Z</time>
      </trkpt>
      <trkpt lat="48.41994" lon="2.01459">
        <ele>147</ele>
        <time>2011-04-30T08:55:31Z</time>
      </trkpt>
      <trkpt lat="48.41996" lon="2.01459">
        <ele>147</ele>
        <time>2011-04-30T08:55:32Z</time>
      </trkpt>
      <trkpt lat="48.41998" lon="2.01458">
        <ele>147</ele>
        <time>2011-04-30T08:55:33Z</time>
      </trkpt>
      <trkpt lat="48.42" lon="2.01458">
        <ele>147</ele>
        <time>2011-04-30T08:55:34Z</time>
      </trkpt>
      <trkpt lat="48.42001" lon="2.01458">
        <ele>147</ele>
        <time>2011-04-30T08:55:35Z</time>
      </trkpt>
      <trkpt lat="48.42003" lon="2.01458">
        <ele>147</ele>
        <time>2011-04-30T08:55:36Z</time>
      </trkpt>
      <trkpt lat="48.42005" lon="2.01459">
        <ele>147</ele>
        <time>2011-04-30T08:55:37Z</time>
      </trkpt>
      <trkpt lat="48.42007" lon="2.01459">
        <ele>147</ele>
        <time>2011-04-30T08:55:38Z</time>
      </trkpt>
      <trkpt lat="48.42008" lon="2.0146">
        <ele>147</ele>
        <time>2011-04-30T08:55:39Z</time>
      </trkpt>
      <trkpt lat="48.4201" lon="2.01461">
        <ele>147</ele>
        <time>2011-04-30T08:55:40Z</time>
      </trkpt>
      <trkpt lat="48.42013" lon="2.01462">
        <ele>147</ele>
        <time>2011-04-30T08:55:41Z</time>
      </trkpt>
      <trkpt lat="48.42015" lon="2.01464">
        <ele>147</ele>
        <time>2011-04-30T08:55:42Z</time>
      </trkpt>
      <trkpt lat="48.42017" lon="2.01466">
        <ele>147</ele>
        <time>2011-04-30T08:55:43Z</time>
      </trkpt>
      <trkpt lat="48.42018" lon="2.01469">
        <ele>147</ele>
        <time>2011-04-30T08:55:44Z</time>
      </trkpt>
      <trkpt lat="48.42019" lon="2.01473">
        <ele>147</ele>
        <time>2011-04-30T08:55:45Z</time>
      </trkpt>
      <trkpt lat="48.4202" lon="2.01476">
        <ele>147</ele>
        <time>2011-04-30T08:55:46Z</time>
      </trkpt>
      <trkpt lat="48.42021" lon="2.0148">
        <ele>147</ele>
        <time>2011-04-30T08:55:47Z</time>
      </trkpt>
      <trkpt lat="48.42021" lon="2.01483">
        <ele>147</ele>
        <time>2011-04-30T08:55:48Z</time>
      </trkpt>
      <trkpt lat="48.42022" lon="2.01487">
        <ele>147</ele>
        <time>2011-04-30T08:55:49Z</time>
      </trkpt>
      <trkpt lat="48.42022" lon="2.0149">
        <ele>146</ele>
        <time>2011-04-30T08:55:50Z</time>
      </trkpt>
      <trkpt lat="48.42023" lon="2.01494">
        <ele>146</ele>
        <time>2011-04-30T08:55:51Z</time>
      </trkpt>
      <trkpt lat="48.42023" lon="2.01497">
        <ele>146</ele>
        <time>2011-04-30T08:55:52Z</time>
      </trkpt>
      <trkpt lat="48.42023" lon="2.015">
        <ele>146</ele>
        <time>2011-04-30T08:55:53Z</time>
      </trkpt>
      <trkpt lat="48.42024" lon="2.01504">
        <ele>146</ele>
        <time>2011-04-30T08:55:54Z</time>
      </trkpt>
      <trkpt lat="48.42025" lon="2.01507">
        <ele>146</ele>
        <time>2011-04-30T08:55:55Z</time>
      </trkpt>
      <trkpt lat="48.42025" lon="2.01511">
        <ele>146</ele>
        <time>2011-04-30T08:55:56Z</time>
      </trkpt>
      <trkpt lat="48.42026" lon="2.01514">
        <ele>146</ele>
        <time>2011-04-30T08:55:57Z</time>
      </trkpt>
      <trkpt lat="48.42026" lon="2.01517">
        <ele>146</ele>
        <time>2011-04-30T08:55:58Z</time>
      </trkpt>
      <trkpt lat="48.42027" lon="2.01521">
        <ele>146</ele>
        <time>2011-04-30T08:55:59Z</time>
      </trkpt>
      <trkpt lat="48.42027" lon="2.01524">
        <ele>146</ele>
        <time>2011-04-30T08:56:00Z</time>
      </trkpt>
      <trkpt lat="48.42028" lon="2.01528">
        <ele>146</ele>
        <time>2011-04-30T08:56:01Z</time>
      </trkpt>
      <trkpt lat="48.42029" lon="2.01531">
        <ele>146</ele>
        <time>2011-04-30T08:56:02Z</time>
      </trkpt>
      <trkpt lat="48.42029" lon="2.01534">
        <ele>146</ele>
        <time>2011-04-30T08:56:03Z</time>
      </trkpt>
      <trkpt lat="48.4203" lon="2.01538">
        <ele>146</ele>
        <time>2011-04-30T08:56:04Z</time>
      </trkpt>
      <trkpt lat="48.4203" lon="2.01541">
        <ele>146</ele>
        <time>2011-04-30T08:56:05Z</time>
      </trkpt>
      <trkpt lat="48.42031" lon="2.01544">
        <ele>146</ele>
        <time>2011-04-30T08:56:06Z</time>
      </trkpt>
      <trkpt lat="48.42032" lon="2.01548">
        <ele>146</ele>
        <time>2011-04-30T08:56:07Z</time>
      </trkpt>
      <trkpt lat="48.42033" lon="2.01551">
        <ele>146</ele>
        <time>2011-04-30T08:56:08Z</time>
      </trkpt>
      <trkpt lat="48.42033" lon="2.01554">
        <ele>146</ele>
        <time>2011-04-30T08:56:09Z</time>
      </trkpt>
      <trkpt lat="48.42034" lon="2.01557">
        <ele>146</ele>
        <time>2011-04-30T08:56:10Z</time>
      </trkpt>
      <trkpt lat="48.42035" lon="2.0156">
        <ele>146</ele>
        <time>2011-04-30T08:56:11Z</time>
      </trkpt>
      <trkpt lat="48.42036" lon="2.01564">
        <ele>146</ele>
        <time>2011-04-30T08:56:12Z</time>
      </trkpt>
      <trkpt lat="48.42036" lon="2.01567">
        <ele>146</ele>
        <time>2011-04-30T08:56:13Z</time>
      </trkpt>
      <trkpt lat="48.42037" lon="2.0157">
        <ele>146</ele>
        <time>2011-04-30T08:56:14Z</time>
      </trkpt>
      <trkpt lat="48.42038" lon="2.01574">
        <ele>146</ele>
        <time>2011-04-30T08:56:15Z</time>
      </trkpt>
      <trkpt lat="48.42038" lon="2.01577">
        <ele>146</ele>
        <time>2011-04-30T08:56:16Z</time>
      </trkpt>
      <trkpt lat="48.42039" lon="2.0158">
        <ele>146</ele>
        <time>2011-04-30T08:56:17Z</time>
      </trkpt>
      <trkpt lat="48.4204" lon="2.01584">
        <ele>146</ele>
        <time>2011-04-30T08:56:18Z</time>
      </trkpt>
      <trkpt lat="48.42041" lon="2.01587">
        <ele>146</ele>
        <time>2011-04-30T08:56:19Z</time>
      </trkpt>
      <trkpt lat="48.42041" lon="2.0159">
        <ele>146</ele>
        <time>2011-04-30T08:56:20Z</time>
      </trkpt>
      <trkpt lat="48.42042" lon="2.01593">
        <ele>146</ele>
        <time>2011-04-30T08:56:21Z</time>
      </trkpt>
      <trkpt lat="48.42043" lon="2.01597">
        <ele>146</ele>
        <time>2011-04-30T08:56:22Z</time>
      </trkpt>
      <trkpt lat="48.42043" lon="2.016">
        <ele>146</ele>
        <time>2011-04-30T08:56:23Z</time>
      </trkpt>
      <trkpt lat="48.42044" lon="2.01603">
        <ele>146</ele>
        <time>2011-04-30T08:56:24Z</time>
      </trkpt>
      <trkpt lat="48.42045" lon="2.01607">
        <ele>146</ele>
        <time>2011-04-30T08:56:25Z</time>
      </trkpt>
      <trkpt lat="48.42045" lon="2.0161">
        <ele>146</ele>
        <time>2011-04-30T08:56:26Z</time>
      </trkpt>
      <trkpt lat="48.42046" lon="2.01613">
        <ele>146</ele>
        <time>2011-04-30T08:56:27Z</time>
      </trkpt>
      <trkpt lat="48.42047" lon="2.01617">
        <ele>146</ele>
        <time>2011-04-30T08:56:28Z</time>
      </trkpt>
      <trkpt lat="48.42047" lon="2.0162">
        <ele>146</ele>
        <time>2011-04-30T08:56:29Z</time>
      </trkpt>
      <trkpt lat="48.42048" lon="2.01623">
        <ele>146</ele>
        <time>2011-04-30T08:56:30Z</time>
      </trkpt>
      <trkpt lat="48.42048" lon="2.01627">
        <ele>146</ele>
        <time>2011-04-30T08:56:31Z</time>
      </trkpt>
      <trkpt lat="48.42049" lon="2.0163">
        <ele>146</ele>
        <time>2011-04-30T08:56:32Z</time>
      </trkpt>
      <trkpt lat="48.4205" lon="2.01633">
        <ele>146</ele>
        <time>2011-04-30T08:56:33Z</time>
      </trkpt>
      <trkpt lat="48.4205" lon="2.01637">
        <ele>146</ele>
        <time>2011-04-30T08:56:34Z</time>
      </trkpt>
      <trkpt lat="48.42051" lon="2.0164">
        <ele>146</ele>
        <time>2011-04-30T08:56:35Z</time>
      </trkpt>
      <trkpt lat="48.42052" lon="2.01643">
        <ele>146</ele>
        <time>2011-04-30T08:56:36Z</time>
      </trkpt>
      <trkpt lat="48.42052" lon="2.01647">
        <ele>146</ele>
        <time>2011-04-30T08:56:37Z</time>
      </trkpt>
      <trkpt lat="48.42053" lon="2.0165">
        <ele>146</ele>
        <time>2011-04-30T08:56:38Z</time>
      </trkpt>
      <trkpt lat="48.42054" lon="2.01653">
        <ele>146</ele>
        <time>2011-04-30T08:56:39Z</time>
      </trkpt>
      <trkpt lat="48.42055" lon="2.01657">
        <ele>146</ele>
        <time>2011-04-30T08:56:40Z</time>
      </trkpt>
      <trkpt lat="48.42055" lon="2.0166">
        <ele>146</ele>
        <time>2011-04-30T08:56:41Z</time>
      </trkpt>
      <trkpt lat="48.42056" lon="2.01664">
        <ele>146</ele>
        <time>2011-04-30T08:56:42Z</time>
      </trkpt>
      <trkpt lat="48.42057" lon="2.01667">
        <ele>146</ele>
        <time>2011-04-30T08:56:43Z</time>
      </trkpt>
      <trkpt lat="48.42057" lon="2.01671">
        <ele>146</ele>
        <time>2011-04-30T08:56:44Z</time>
      </trkpt>
      <trkpt lat="48.42058" lon="2.01674">
        <ele>146</ele>
        <time>2011-04-30T08:56:45Z</time>
      </trkpt>
      <trkpt lat="48.42059" lon="2.01678">
        <ele>146</ele>
        <time>2011-04-30T08:56:46Z</time>
      </trkpt>
      <trkpt lat="48.4206" lon="2.01681">
        <ele>146</ele>
        <time>2011-04-30T08:56:47Z</time>
      </trkpt>
      <trkpt lat="48.4206" lon="2.01684">
        <ele>146</ele>
        <time>2011-04-30T08:56:48Z</time>
      </trkpt>
      <trkpt lat="48.42061" lon="2.01688">
        <ele>146</ele>
        <time>2011-04-30T08:56:49Z</time>
      </trkpt>
      <trkpt lat="48.42062" lon="2.01692">
        <ele>146</ele>
        <time>2011-04-30T08:56:50Z</time>
      </trkpt>
      <trkpt lat="48.42063" lon="2.01695">
        <ele>146</ele>
        <time>2011-04-30T08:56:51Z</time>
      </trkpt>
      <trkpt lat="48.42063" lon="2.01699">
        <ele>146</ele>
        <time>2011-04-30T08:56:52Z</time>
      </trkpt>
      <trkpt lat="48.42064" lon="2.01702">
        <ele>146</ele>
        <time>2011-04-30T08:56:53Z</time>
      </trkpt>
      <trkpt lat="48.42065" lon="2.01706">
        <ele>146</ele>
        <time>2011-04-30T08:56:54Z</time>
      </trkpt>
      <trkpt lat="48.42065" lon="2.01709">
        <ele>146</ele>
        <time>2011-04-30T08:56:55Z</time>
      </trkpt>
      <trkpt lat="48.42066" lon="2.01713">
        <ele>146</ele>
        <time>2011-04-30T08:56:56Z</time>
      </trkpt>
      <trkpt lat="48.42067" lon="2.01716">
        <ele>146</ele>
        <time>2011-04-30T08:56:57Z</time>
      </trkpt>
      <trkpt lat="48.42068" lon="2.0172">
        <ele>146</ele>
        <time>2011-04-30T08:56:58Z</time>
      </trkpt>
      <trkpt lat="48.42068" lon="2.01724">
        <ele>146</ele>
        <time>2011-04-30T08:56:59Z</time>
      </trkpt>
      <trkpt lat="48.42069" lon="2.01727">
        <ele>146</ele>
        <time>2011-04-30T08:57:00Z</time>
      </trkpt>
      <trkpt lat="48.4207" lon="2.01731">
        <ele>146</ele>
        <time>2011-04-30T08:57:01Z</time>
      </trkpt>
      <trkpt lat="48.4207" lon="2.01734">
        <ele>146</ele>
        <time>2011-04-30T08:57:02Z</time>
      </trkpt>
      <trkpt lat="48.42071" lon="2.01738">
        <ele>146</ele>
        <time>2011-04-30T08:57:03Z</time>
      </trkpt>
      <trkpt lat="48.42072" lon="2.01741">
        <ele>146</ele>
        <time>2011-04-30T08:57:04Z</time>
      </trkpt>
      <trkpt lat="48.42072" lon="2.01745">
        <ele>146</ele>
        <time>2011-04-30T08:57:05Z</time>
      </trkpt>
      <trkpt lat="48.42073" lon="2.01749">
        <ele>146</ele>
        <time>2011-04-30T08:57:06Z</time>
      </trkpt>
      <trkpt lat="48.42074" lon="2.01752">
        <ele>146</ele>
        <time>2011-04-30T08:57:07Z</time>
      </trkpt>
      <trkpt lat="48.42075" lon="2.01756">
        <ele>146</ele>
        <time>2011-04-30T08:57:08Z</time>
      </trkpt>
      <trkpt lat="48.42075" lon="2.01759">
        <ele>146</ele>
        <time>2011-04-30T08:57:09Z</time>
      </trkpt>
      <trkpt lat="48.42076" lon="2.01763">
        <ele>146</ele>
        <time>2011-04-30T08:57:10Z</time>
      </trkpt>
      <trkpt lat="48.42077" lon="2.01767">
        <ele>146</ele>
        <time>2011-04-30T08:57:11Z</time>
      </trkpt>
      <trkpt lat="48.42078" lon="2.0177">
        <ele>146</ele>
        <time>2011-04-30T08:57:12Z</time>
      </trkpt>
      <trkpt lat="48.42078" lon="2.01774">
        <ele>146</ele>
        <time>2011-04-30T08:57:13Z</time>
      </trkpt>
      <trkpt lat="48.42079" lon="2.01778">
        <ele>147</ele>
        <time>2011-04-30T08:57:14Z</time>
      </trkpt>
      <trkpt lat="48.42079" lon="2.01781">
        <ele>147</ele>
        <time>2011-04-30T08:57:15Z</time>
      </trkpt>
      <trkpt lat="48.4208" lon="2.01785">
        <ele>147</ele>
        <time>2011-04-30T08:57:16Z</time>
      </trkpt>
      <trkpt lat="48.42081" lon="2.01789">
        <ele>147</ele>
        <time>2011-04-30T08:57:17Z</time>
      </trkpt>
      <trkpt lat="48.42082" lon="2.01792">
        <ele>147</ele>
        <time>2011-04-30T08:57:18Z</time>
      </trkpt>
      <trkpt lat="48.42082" lon="2.01796">
        <ele>147</ele>
        <time>2011-04-30T08:57:19Z</time>
      </trkpt>
      <trkpt lat="48.42083" lon="2.01799">
        <ele>147</ele>
        <time>2011-04-30T08:57:20Z</time>
      </trkpt>
      <trkpt lat="48.42084" lon="2.01803">
        <ele>147</ele>
        <time>2011-04-30T08:57:21Z</time>
      </trkpt>
      <trkpt lat="48.42085" lon="2.01807">
        <ele>147</ele>
        <time>2011-04-30T08:57:22Z</time>
      </trkpt>
      <trkpt lat="48.42085" lon="2.0181">
        <ele>147</ele>
        <time>2011-04-30T08:57:23Z</time>
      </trkpt>
      <trkpt lat="48.42086" lon="2.01814">
        <ele>147</ele>
        <time>2011-04-30T08:57:24Z</time>
      </trkpt>
      <trkpt lat="48.42087" lon="2.01817">
        <ele>147</ele>
        <time>2011-04-30T08:57:25Z</time>
      </trkpt>
      <trkpt lat="48.42088" lon="2.01821">
        <ele>147</ele>
        <time>2011-04-30T08:57:26Z</time>
      </trkpt>
      <trkpt lat="48.42088" lon="2.01825">
        <ele>147</ele>
        <time>2011-04-30T08:57:27Z</time>
      </trkpt>
      <trkpt lat="48.42089" lon="2.01828">
        <ele>147</ele>
        <time>2011-04-30T08:57:28Z</time>
      </trkpt>
      <trkpt lat="48.4209" lon="2.01832">
        <ele>147</ele>
        <time>2011-04-30T08:57:29Z</time>
      </trkpt>
      <trkpt lat="48.42091" lon="2.01835">
        <ele>147</ele>
        <time>2011-04-30T08:57:30Z</time>
      </trkpt>
      <trkpt lat="48.42092" lon="2.01839">
        <ele>147</ele>
        <time>2011-04-30T08:57:31Z</time>
      </trkpt>
      <trkpt lat="48.42092" lon="2.01843">
        <ele>147</ele>
        <time>2011-04-30T08:57:32Z</time>
      </trkpt>
      <trkpt lat="48.42093" lon="2.01846">
        <ele>147</ele>
        <time>2011-04-30T08:57:33Z</time>
      </trkpt>
      <trkpt lat="48.42094" lon="2.0185">
        <ele>147</ele>
        <time>2011-04-30T08:57:34Z</time>
      </trkpt>
      <trkpt lat="48.42095" lon="2.01853">
        <ele>147</ele>
        <time>2011-04-30T08:57:35Z</time>
      </trkpt>
      <trkpt lat="48.42095" lon="2.01857">
        <ele>147</ele>
        <time>2011-04-30T08:57:36Z</time>
      </trkpt>
      <trkpt lat="48.42096" lon="2.01861">
        <ele>147</ele>
        <time>2011-04-30T08:57:37Z</time>
      </trkpt>
      <trkpt lat="48.42097" lon="2.01864">
        <ele>147</ele>
        <time>2011-04-30T08:57:38Z</time>
      </trkpt>
      <trkpt lat="48.42098" lon="2.01868">
        <ele>147</ele>
        <time>2011-04-30T08:57:39Z</time>
      </trkpt>
      <trkpt lat="48.42098" lon="2.01872">
        <ele>147</ele>
        <time>2011-04-30T08:57:40Z</time>
      </trkpt>
      <trkpt lat="48.42099" lon="2.01875">
        <ele>146</ele>
        <time>2011-04-30T08:57:41Z</time>
      </trkpt>
      <trkpt lat="48.421" lon="2.01879">
        <ele>146</ele>
        <time>2011-04-30T08:57:42Z</time>
      </trkpt>
      <trkpt lat="48.421" lon="2.01883">
        <ele>146</ele>
        <time>2011-04-30T08:57:43Z</time>
      </trkpt>
      <trkpt lat="48.42101" lon="2.01886">
        <ele>146</ele>
        <time>2011-04-30T08:57:44Z</time>
      </trkpt>
      <trkpt lat="48.42102" lon="2.0189">
        <ele>146</ele>
        <time>2011-04-30T08:57:45Z</time>
      </trkpt>
      <trkpt lat="48.42103" lon="2.01893">
        <ele>146</ele>
        <time>2011-04-30T08:57:46Z</time>
      </trkpt>
      <trkpt lat="48.42104" lon="2.01897">
        <ele>146</ele>
        <time>2011-04-30T08:57:47Z</time>
      </trkpt>
      <trkpt lat="48.42105" lon="2.019">
        <ele>146</ele>
        <time>2011-04-30T08:57:48Z</time>
      </trkpt>
      <trkpt lat="48.42106" lon="2.01903">
        <ele>146</ele>
        <time>2011-04-30T08:57:49Z</time>
      </trkpt>
      <trkpt lat="48.42108" lon="2.01906">
        <ele>146</ele>
        <time>2011-04-30T08:57:50Z</time>
      </trkpt>
      <trkpt lat="48.4211" lon="2.01908">
        <ele>146</ele>
        <time>2011-04-30T08:57:51Z</time>
      </trkpt>
      <trkpt lat="48.42112" lon="2.0191">
        <ele>146</ele>
        <time>2011-04-30T08:57:52Z</time>
      </trkpt>
      <trkpt lat="48.42114" lon="2.01911">
        <ele>146</ele>
        <time>2011-04-30T08:57:53Z</time>
      </trkpt>
      <trkpt lat="48.42115" lon="2.01911">
        <ele>146</ele>
        <time>2011-04-30T08:57:54Z</time>
      </trkpt>
      <trkpt lat="48.42117" lon="2.01911">
        <ele>146</ele>
        <time>2011-04-30T08:57:55Z</time>
      </trkpt>
      <trkpt lat="48.42117" lon="2.01911">
        <ele>146</ele>
        <time>2011-04-30T08:57:56Z</time>
      </trkpt>
      <trkpt lat="48.42117" lon="2.01912">
        <ele>146</ele>
        <time>2011-04-30T08:57:57Z</time>
      </trkpt>
      <trkpt lat="48.42118" lon="2.01912">
        <ele>146</ele>
        <time>2011-04-30T08:57:58Z</time>
      </trkpt>
      <trkpt lat="48.42119" lon="2.01913">
        <ele>146</ele>
        <time>2011-04-30T08:57:59Z</time>
      </trkpt>
      <trkpt lat="48.42121" lon="2.01914">
        <ele>146</ele>
        <time>2011-04-30T08:58:00Z</time>
      </trkpt>
      <trkpt lat="48.42123" lon="2.01914">
        <ele>146</ele>
        <time>2011-04-30T08:58:01Z</time>
      </trkpt>
      <trkpt lat="48.42125" lon="2.01915">
        <ele>146</ele>
        <time>2011-04-30T08:58:02Z</time>
      </trkpt>
      <trkpt lat="48.42127" lon="2.01916">
        <ele>146</ele>
        <time>2011-04-30T08:58:03Z</time>
      </trkpt>
      <trkpt lat="48.42129" lon="2.01917">
        <ele>146</ele>
        <time>2011-04-30T08:58:04Z</time>
      </trkpt>
      <trkpt lat="48.42132" lon="2.01917">
        <ele>146</ele>
        <time>2011-04-30T08:58:05Z</time>
      </trkpt>
      <trkpt lat="48.42134" lon="2.01918">
        <ele>146</ele>
        <time>2011-04-30T08:58:06Z</time>
      </trkpt>
      <trkpt lat="48.42136" lon="2.01919">
        <ele>146</ele>
        <time>2011-04-30T08:58:07Z</time>
      </trkpt>
      <trkpt lat="48.42139" lon="2.01919">
        <ele>146</ele>
        <time>2011-04-30T08:58:08Z</time>
      </trkpt>
      <trkpt lat="48.42141" lon="2.0192">
        <ele>146</ele>
        <time>2011-04-30T08:58:09Z</time>
      </trkpt>
      <trkpt lat="48.42144" lon="2.0192">
        <ele>146</ele>
        <time>2011-04-30T08:58:10Z</time>
      </trkpt>
      <trkpt lat="48.42146" lon="2.01921">
        <ele>146</ele>
        <time>2011-04-30T08:58:11Z</time>
      </trkpt>
      <trkpt lat="48.42149" lon="2.01921">
        <ele>146</ele>
        <time>2011-04-30T08:58:12Z</time>
      </trkpt>
      <trkpt lat="48.42151" lon="2.01922">
        <ele>146</ele>
        <time>2011-04-30T08:58:13Z</time>
      </trkpt>
      <trkpt lat="48.42153" lon="2.01922">
        <ele>146</ele>
        <time>2011-04-30T08:58:14Z</time>
      </trkpt>
      <trkpt lat="48.42156" lon="2.01923">
        <ele>146</ele>
        <time>2011-04-30T08:58:15Z</time>
      </trkpt>
      <trkpt lat="48.42158" lon="2.01923">
        <ele>146</ele>
        <time>2011-04-30T08:58:16Z</time>
      </trkpt>
      <trkpt lat="48.4216" lon="2.01924">
        <ele>146</ele>
        <time>2011-04-30T08:58:17Z</time>
      </trkpt>
      <trkpt lat="48.42163" lon="2.01924">
        <ele>146</ele>
        <time>2011-04-30T08:58:18Z</time>
      </trkpt>
      <trkpt lat="48.42165" lon="2.01925">
        <ele>146</ele>
        <time>2011-04-30T08:58:19Z</time>
      </trkpt>
      <trkpt lat="48.42167" lon="2.01925">
        <ele>146</ele>
        <time>2011-04-30T08:58:20Z</time>
      </trkpt>
      <trkpt lat="48.4217" lon="2.01926">
        <ele>146</ele>
        <time>2011-04-30T08:58:21Z</time>
      </trkpt>
      <trkpt lat="48.42172" lon="2.01927">
        <ele>146</ele>
        <time>2011-04-30T08:58:22Z</time>
      </trkpt>
      <trkpt lat="48.42174" lon="2.01928">
        <ele>146</ele>
        <time>2011-04-30T08:58:23Z</time>
      </trkpt>
      <trkpt lat="48.42177" lon="2.01928">
        <ele>146</ele>
        <time>2011-04-30T08:58:24Z</time>
      </trkpt>
      <trkpt lat="48.42179" lon="2.01929">
        <ele>146</ele>
        <time>2011-04-30T08:58:25Z</time>
      </trkpt>
      <trkpt lat="48.42181" lon="2.0193">
        <ele>146</ele>
        <time>2011-04-30T08:58:26Z</time>
      </trkpt>
      <trkpt lat="48.42184" lon="2.0193">
        <ele>146</ele>
        <time>2011-04-30T08:58:27Z</time>
      </trkpt>
      <trkpt lat="48.42186" lon="2.0193">
        <ele>146</ele>
        <time>2011-04-30T08:58:28Z</time>
      </trkpt>
      <trkpt lat="48.42188" lon="2.0193">
        <ele>146</ele>
        <time>2011-04-30T08:58:29Z</time>
      </trkpt>
      <trkpt lat="48.42191" lon="2.0193">
        <ele>146</ele>
        <time>2011-04-30T08:58:30Z</time>
      </trkpt>
      <trkpt lat="48.42193" lon="2.0193">
        <ele>146</ele>
        <time>2011-04-30T08:58:31Z</time>
      </trkpt>
      <trkpt lat="48.42196" lon="2.01931">
        <ele>146</ele>
        <time>2011-04-30T08:58:32Z</time>
      </trkpt>
      <trkpt lat="48.42198" lon="2.01932">
        <ele>146</ele>
        <time>2011-04-30T08:58:33Z</time>
      </trkpt>
      <trkpt lat="48.422" lon="2.01932">
        <ele>146</ele>
        <time>2011-04-30T08:58:34Z</time>
      </trkpt>
      <trkpt lat="48.42203" lon="2.01933">
        <ele>146</ele>
        <time>2011-04-30T08:58:35Z</time>
      </trkpt>
      <trkpt lat="48.42205" lon="2.01934">
        <ele>146</ele>
        <time>2011-04-30T08:58:36Z</time>
      </trkpt>
      <trkpt lat="48.42207" lon="2.01935">
        <ele>146</ele>
        <time>2011-04-30T08:58:37Z</time>
      </trkpt>
      <trkpt lat="48.4221" lon="2.01936">
        <ele>146</ele>
        <time>2011-04-30T08:58:38Z</time>
      </trkpt>
      <trkpt lat="48.42212" lon="2.01936">
        <ele>146</ele>
        <time>2011-04-30T08:58:39Z</time>
      </trkpt>
      <trkpt lat="48.42214" lon="2.01937">
        <ele>146</ele>
        <time>2011-04-30T08:58:40Z</time>
      </trkpt>
      <trkpt lat="48.42217" lon="2.01938">
        <ele>146</ele>
        <time>2011-04-30T08:58:41Z</time>
      </trkpt>
      <trkpt lat="48.42219" lon="2.01939">
        <ele>146</ele>
        <time>2011-04-30T08:58:42Z</time>
      </trkpt>
      <trkpt lat="48.42222" lon="2.01939">
        <ele>146</ele>
        <time>2011-04-30T08:58:43Z</time>
      </trkpt>
      <trkpt lat="48.42224" lon="2.0194">
        <ele>146</ele>
        <time>2011-04-30T08:58:44Z</time>
      </trkpt>
      <trkpt lat="48.42226" lon="2.01941">
        <ele>146</ele>
        <time>2011-04-30T08:58:45Z</time>
      </trkpt>
      <trkpt lat="48.42229" lon="2.01942">
        <ele>146</ele>
        <time>2011-04-30T08:58:46Z</time>
      </trkpt>
      <trkpt lat="48.42231" lon="2.01942">
        <ele>146</ele>
        <time>2011-04-30T08:58:47Z</time>
      </trkpt>
      <trkpt lat="48.42233" lon="2.01943">
        <ele>146</ele>
        <time>2011-04-30T08:58:48Z</time>
      </trkpt>
      <trkpt lat="48.42236" lon="2.01944">
        <ele>146</ele>
        <time>2011-04-30T08:58:49Z</time>
      </trkpt>
      <trkpt lat="48.42238" lon="2.01944">
        <ele>146</ele>
        <time>2011-04-30T08:58:50Z</time>
      </trkpt>
      <trkpt lat="48.42241" lon="2.01945">
        <ele>146</ele>
        <time>2011-04-30T08:58:51Z</time>
      </trkpt>
      <trkpt lat="48.42243" lon="2.01946">
        <ele>146</ele>
        <time>2011-04-30T08:58:52Z</time>
      </trkpt>
      <trkpt lat="48.42245" lon="2.01947">
        <ele>146</ele>
        <time>2011-04-30T08:58:53Z</time>
      </trkpt>
      <trkpt lat="48.42248" lon="2.01947">
        <ele>146</ele>
        <time>2011-04-30T08:58:54Z</time>
      </trkpt>
      <trkpt lat="48.4225" lon="2.01948">
        <ele>146</ele>
        <time>2011-04-30T08:58:55Z</time>
      </trkpt>
      <trkpt lat="48.42252" lon="2.01949">
        <ele>146</ele>
        <time>2011-04-30T08:58:56Z</time>
      </trkpt>
      <trkpt lat="48.42255" lon="2.01949">
        <ele>146</ele>
        <time>2011-04-30T08:58:57Z</time>
      </trkpt>
      <trkpt lat="48.42257" lon="2.0195">
        <ele>146</ele>
        <time>2011-04-30T08:58:58Z</time>
      </trkpt>
      <trkpt lat="48.42259" lon="2.01951">
        <ele>146</ele>
        <time>2011-04-30T08:58:59Z</time>
      </trkpt>
      <trkpt lat="48.42262" lon="2.01952">
        <ele>146</ele>
        <time>2011-04-30T08:59:00Z</time>
      </trkpt>
      <trkpt lat="48.42264" lon="2.01952">
        <ele>146</ele>
        <time>2011-04-30T08:59:01Z</time>
      </trkpt>
      <trkpt lat="48.42266" lon="2.01953">
        <ele>146</ele>
        <time>2011-04-30T08:59:02Z</time>
      </trkpt>
      <trkpt lat="48.42269" lon="2.01954">
        <ele>146</ele>
        <time>2011-04-30T08:59:03Z</time>
      </trkpt>
      <trkpt lat="48.42271" lon="2.01955">
        <ele>146</ele>
        <time>2011-04-30T08:59:04Z</time>
      </trkpt>
      <trkpt lat="48.42274" lon="2.01955">
        <ele>146</ele>
        <time>2011-04-30T08:59:05Z</time>
      </trkpt>
      <trkpt lat="48.42276" lon="2.01956">
        <ele>146</ele>
        <time>2011-04-30T08:59:06Z</time>
      </trkpt>
      <trkpt lat="48.42279" lon="2.01957">
        <ele>146</ele>
        <time>2011-04-30T08:59:07Z</time>
      </trkpt>
      <trkpt lat="48.42281" lon="2.01958">
        <ele>146</ele>
        <time>2011-04-30T08:59:08Z</time>
      </trkpt>
      <trkpt lat="48.42283" lon="2.01958">
        <ele>146</ele>
        <time>2011-04-30T08:59:09Z</time>
      </trkpt>
      <trkpt lat="48.42286" lon="2.01959">
        <ele>146</ele>
        <time>2011-04-30T08:59:10Z</time>
      </trkpt>
      <trkpt lat="48.42288" lon="2.0196">
        <ele>146</ele>
        <time>2011-04-30T08:59:11Z</time>
      </trkpt>
      <trkpt lat="48.42291" lon="2.0196">
        <ele>146</ele>
        <time>2011-04-30T08:59:12Z</time>
      </trkpt>
      <trkpt lat="48.42293" lon="2.01961">
        <ele>146</ele>
        <time>2011-04-30T08:59:13Z</time>
      </trkpt>
      <trkpt lat="48.42296" lon="2.01962">
        <ele>146</ele>
        <time>2011-04-30T08:59:14Z</time>
      </trkpt>
      <trkpt lat="48.42298" lon="2.01963">
        <ele>146</ele>
        <time>2011-04-30T08:59:15Z</time>
      </trkpt>
      <trkpt lat="48.423" lon="2.01963">
        <ele>146</ele>
        <time>2011-04-30T08:59:16Z</time>
      </trkpt>
      <trkpt lat="48.42302" lon="2.01964">
        <ele>146</ele>
        <time>2011-04-30T08:59:17Z</time>
      </trkpt>
      <trkpt lat="48.42305" lon="2.01965">
        <ele>146</ele>
        <time>2011-04-30T08:59:18Z</time>
      </trkpt>
      <trkpt lat="48.42307" lon="2.01965">
        <ele>146</ele>
        <time>2011-04-30T08:59:19Z</time>
      </trkpt>
      <trkpt lat="48.42309" lon="2.01966">
        <ele>146</ele>
        <time>2011-04-30T08:59:20Z</time>
      </trkpt>
      <trkpt lat="48.42312" lon="2.01967">
        <ele>146</ele>
        <time>2011-04-30T08:59:21Z</time>
      </trkpt>
      <trkpt lat="48.42314" lon="2.01968">
        <ele>146</ele>
        <time>2011-04-30T08:59:22Z</time>
      </trkpt>
      <trkpt lat="48.42316" lon="2.01968">
        <ele>146</ele>
        <time>2011-04-30T08:59:23Z</time>
      </trkpt>
      <trkpt lat="48.42319" lon="2.01969">
        <ele>146</ele>
        <time>2011-04-30T08:59:24Z</time>
      </trkpt>
      <trkpt lat="48.42321" lon="2.0197">
        <ele>146</ele>
        <time>2011-04-30T08:59:25Z</time>
      </trkpt>
      <trkpt lat="48.42324" lon="2.0197">
        <ele>146</ele>
        <time>2011-04-30T08:59:26Z</time>
      </trkpt>
      <trkpt lat="48.42326" lon="2.01971">
        <ele>146</ele>
        <time>2011-04-30T08:59:27Z</time>
      </trkpt>
      <trkpt lat="48.42328" lon="2.01972">
        <ele>146</ele>
        <time>2011-04-30T08:59:28Z</time>
      </trkpt>
      <trkpt lat="48.42331" lon="2.01973">
        <ele>146</ele>
        <time>2011-04-30T08:59:29Z</time>
      </trkpt>
      <trkpt lat="48.42333" lon="2.01973">
        <ele>146</ele>
        <time>2011-04-30T08:59:30Z</time>
      </trkpt>
      <trkpt lat="48.42336" lon="2.01974">
        <ele>147</ele>
        <time>2011-04-30T08:59:31Z</time>
      </trkpt>
      <trkpt lat="48.42338" lon="2.01975">
        <ele>147</ele>
        <time>2011-04-30T08:59:32Z</time>
      </trkpt>
      <trkpt lat="48.4234" lon="2.01976">
        <ele>147</ele>
        <time>2011-04-30T08:59:33Z</time>
      </trkpt>
      <trkpt lat="48.42343" lon="2.01977">
        <ele>147</ele>
        <time>2011-04-30T08:59:34Z</time>
      </trkpt>
      <trkpt lat="48.42345" lon="2.01977">
        <ele>147</ele>
        <time>2011-04-30T08:59:35Z</time>
      </trkpt>
      <trkpt lat="48.42347" lon="2.01978">
        <ele>147</ele>
        <time>2011-04-30T08:59:36Z</time>
      </trkpt>
      <trkpt lat="48.4235" lon="2.01979">
        <ele>147</ele>
        <time>2011-04-30T08:59:37Z</time>
      </trkpt>
      <trkpt lat="48.42352" lon="2.0198">
        <ele>147</ele>
        <time>2011-04-30T08:59:38Z</time>
      </trkpt>
      <trkpt lat="48.42355" lon="2.01981">
        <ele>147</ele>
        <time>2011-04-30T08:59:39Z</time>
      </trkpt>
      <trkpt lat="48.42357" lon="2.01982">
        <ele>147</ele>
        <time>2011-04-30T08:59:40Z</time>
      </trkpt>
      <trkpt lat="48.4236" lon="2.01982">
        <ele>147</ele>
        <time>2011-04-30T08:59:41Z</time>
      </trkpt>
      <trkpt lat="48.42362" lon="2.01983">
        <ele>147</ele>
        <time>2011-04-30T08:59:42Z</time>
      </trkpt>
      <trkpt lat="48.42365" lon="2.01984">
        <ele>147</ele>
        <time>2011-04-30T08:59:43Z</time>
      </trkpt>
      <trkpt lat="48.42367" lon="2.01985">
        <ele>147</ele>
        <time>2011-04-30T08:59:44Z</time>
      </trkpt>
      <trkpt lat="48.42369" lon="2.01986">
        <ele>147</ele>
        <time>2011-04-30T08:59:45Z</time>
      </trkpt>
      <trkpt lat="48.42372" lon="2.01986">
        <ele>147</ele>
        <time>2011-04-30T08:59:46Z</time>
      </trkpt>
      <trkpt lat="48.42374" lon="2.01987">
        <ele>147</ele>
        <time>2011-04-30T08:59:47Z</time>
      </trkpt>
      <trkpt lat="48.42377" lon="2.01988">
        <ele>147</ele>
        <time>2011-04-30T08:59:48Z</time>
      </trkpt>
      <trkpt lat="48.42379" lon="2.01989">
        <ele>147</ele>
        <time>2011-04-30T08:59:49Z</time>
      </trkpt>
      <trkpt lat="48.42382" lon="2.01989">
        <ele>147</ele>
        <time>2011-04-30T08:59:50Z</time>
      </trkpt>
      <trkpt lat="48.42384" lon="2.0199">
        <ele>147</ele>
        <time>2011-04-30T08:59:51Z</time>
      </trkpt>
      <trkpt lat="48.42386" lon="2.01991">
        <ele>147</ele>
        <time>2011-04-30T08:59:52Z</time>
      </trkpt>
      <trkpt lat="48.42389" lon="2.01992">
        <ele>147</ele>
        <time>2011-04-30T08:59:53Z</time>
      </trkpt>
      <trkpt lat="48.42391" lon="2.01992">
        <ele>147</ele>
        <time>2011-04-30T08:59:54Z</time>
      </trkpt>
      <trkpt lat="48.42394" lon="2.01993">
        <ele>147</ele>
        <time>2011-04-30T08:59:55Z</time>
      </trkpt>
      <trkpt lat="48.42396" lon="2.01994">
        <ele>147</ele>
        <time>2011-04-30T08:59:56Z</time>
      </trkpt>
      <trkpt lat="48.42399" lon="2.01994">
        <ele>147</ele>
        <time>2011-04-30T08:59:57Z</time>
      </trkpt>
      <trkpt lat="48.42401" lon="2.01995">
        <ele>147</ele>
        <time>2011-04-30T08:59:58Z</time>
      </trkpt>
      <trkpt lat="48.42403" lon="2.01996">
        <ele>147</ele>
        <time>2011-04-30T08:59:59Z</time>
      </trkpt>
      <trkpt lat="48.42406" lon="2.01997">
        <ele>147</ele>
        <time>2011-04-30T09:00:00Z</time>
      </trkpt>
      <trkpt lat="48.42408" lon="2.01997">
        <ele>147</ele>
        <time>2011-04-30T09:00:01Z</time>
      </trkpt>
      <trkpt lat="48.4241" lon="2.01998">
        <ele>147</ele>
        <time>2011-04-30T09:00:02Z</time>
      </trkpt>
      <trkpt lat="48.42413" lon="2.01999">
        <ele>147</ele>
        <time>2011-04-30T09:00:03Z</time>
      </trkpt>
      <trkpt lat="48.42415" lon="2.01999">
        <ele>147</ele>
        <time>2011-04-30T09:00:04Z</time>
      </trkpt>
      <trkpt lat="48.42418" lon="2.02">
        <ele>147</ele>
        <time>2011-04-30T09:00:05Z</time>
      </trkpt>
      <trkpt lat="48.4242" lon="2.02001">
        <ele>147</ele>
        <time>2011-04-30T09:00:06Z</time>
      </trkpt>
      <trkpt lat="48.42422" lon="2.02001">
        <ele>147</ele>
        <time>2011-04-30T09:00:07Z</time>
      </trkpt>
      <trkpt lat="48.42425" lon="2.02002">
        <ele>147</ele>
        <time>2011-04-30T09:00:08Z</time>
      </trkpt>
      <trkpt lat="48.42427" lon="2.02003">
        <ele>147</ele>
        <time>2011-04-30T09:00:09Z</time>
      </trkpt>
      <trkpt lat="48.42429" lon="2.02003">
        <ele>147</ele>
        <time>2011-04-30T09:00:10Z</time>
      </trkpt>
      <trkpt lat="48.42432" lon="2.02004">
        <ele>147</ele>
        <time>2011-04-30T09:00:11Z</time>
      </trkpt>
      <trkpt lat="48.42434" lon="2.02005">
        <ele>147</ele>
        <time>2011-04-30T09:00:12Z</time>
      </trkpt>
      <trkpt lat="48.42436" lon="2.02005">
        <ele>147</ele>
        <time>2011-04-30T09:00:13Z</time>
      </trkpt>
      <trkpt lat="48.42438" lon="2.02006">
        <ele>147</ele>
        <time>2011-04-30T09:00:14Z</time>
      </trkpt>
      <trkpt lat="48.42441" lon="2.02007">
        <ele>147</ele>
        <time>2011-04-30T09:00:15Z</time>
      </trkpt>
      <trkpt lat="48.42443" lon="2.02007">
        <ele>147</ele>
        <time>2011-04-30T09:00:16Z</time>
      </trkpt>
      <trkpt lat="48.42446" lon="2.02008">
        <ele>147</ele>
        <time>2011-04-30T09:00:17Z</time>
      </trkpt>
      <trkpt lat="48.42448" lon="2.02009">
        <ele>147</ele>
        <time>2011-04-30T09:00:18Z</time>
      </trkpt>
      <trkpt lat="48.4245" lon="2.0201">
        <ele>147</ele>
        <time>2011-04-30T09:00:19Z</time>
      </trkpt>
      <trkpt lat="48.42453" lon="2.0201">
        <ele>147</ele>
        <time>2011-04-30T09:00:20Z</time>
      </trkpt>
      <trkpt lat="48.42455" lon="2.02011">
        <ele>147</ele>
        <time>2011-04-30T09:00:21Z</time>
      </trkpt>
      <trkpt lat="48.42458" lon="2.02012">
        <ele>147</ele>
        <time>2011-04-30T09:00:22Z</time>
      </trkpt>
      <trkpt lat="48.4246" lon="2.02013">
        <ele>146</ele>
        <time>2011-04-30T09:00:23Z</time>
      </trkpt>
      <trkpt lat="48.42462" lon="2.02013">
        <ele>146</ele>
        <time>2011-04-30T09:00:24Z</time>
      </trkpt>
      <trkpt lat="48.42465" lon="2.02014">
        <ele>146</ele>
        <time>2011-04-30T09:00:25Z</time>
      </trkpt>
      <trkpt lat="48.42467" lon="2.02015">
        <ele>146</ele>
        <time>2011-04-30T09:00:26Z</time>
      </trkpt>
      <trkpt lat="48.4247" lon="2.02016">
        <ele>146</ele>
        <time>2011-04-30T09:00:27Z</time>
      </trkpt>
      <trkpt lat="48.42472" lon="2.02016">
        <ele>146</ele>
        <time>2011-04-30T09:00:28Z</time>
      </trkpt>
      <trkpt lat="48.42475" lon="2.02017">
        <ele>146</ele>
        <time>2011-04-30T09:00:29Z</time>
      </trkpt>
      <trkpt lat="48.42477" lon="2.02017">
        <ele>146</ele>
        <time>2011-04-30T09:00:30Z</time>
      </trkpt>
      <trkpt lat="48.42479" lon="2.02018">
        <ele>146</ele>
        <time>2011-04-30T09:00:31Z</time>
      </trkpt>
      <trkpt lat="48.42482" lon="2.02019">
        <ele>146</ele>
        <time>2011-04-30T09:00:32Z</time>
      </trkpt>
      <trkpt lat="48.42484" lon="2.0202">
        <ele>146</ele>
        <time>2011-04-30T09:00:33Z</time>
      </trkpt>
      <trkpt lat="48.42487" lon="2.0202">
        <ele>146</ele>
        <time>2011-04-30T09:00:34Z</time>
      </trkpt>
      <trkpt lat="48.42489" lon="2.02021">
        <ele>146</ele>
        <time>2011-04-30T09:00:35Z</time>
      </trkpt>
      <trkpt lat="48.42491" lon="2.02022">
        <ele>146</ele>
        <time>2011-04-30T09:00:36Z</time>
      </trkpt>
      <trkpt lat="48.42494" lon="2.02023">
        <ele>146</ele>
        <time>2011-04-30T09:00:37Z</time>
      </trkpt>
      <trkpt lat="48.42496" lon="2.02023">
        <ele>146</ele>
        <time>2011-04-30T09:00:38Z</time>
      </trkpt>
      <trkpt lat="48.42498" lon="2.02024">
        <ele>146</ele>
        <time>2011-04-30T09:00:39Z</time>
      </trkpt>
      <trkpt lat="48.42501" lon="2.02024">
        <ele>146</ele>
        <time>2011-04-30T09:00:40Z</time>
      </trkpt>
      <trkpt lat="48.42503" lon="2.02025">
        <ele>146</ele>
        <time>2011-04-30T09:00:41Z</time>
      </trkpt>
      <trkpt lat="48.42506" lon="2.02026">
        <ele>146</ele>
        <time>2011-04-30T09:00:42Z</time>
      </trkpt>
      <trkpt lat="48.42508" lon="2.02027">
        <ele>146</ele>
        <time>2011-04-30T09:00:43Z</time>
      </trkpt>
      <trkpt lat="48.4251" lon="2.02027">
        <ele>146</ele>
        <time>2011-04-30T09:00:44Z</time>
      </trkpt>
      <trkpt lat="48.42513" lon="2.02028">
        <ele>146</ele>
        <time>2011-04-30T09:00:45Z</time>
      </trkpt>
      <trkpt lat="48.42515" lon="2.02029">
        <ele>146</ele>
        <time>2011-04-30T09:00:46Z</time>
      </trkpt>
      <trkpt lat="48.42517" lon="2.0203">
        <ele>146</ele>
        <time>2011-04-30T09:00:47Z</time>
      </trkpt>
      <trkpt lat="48.4252" lon="2.0203">
        <ele>146</ele>
        <time>2011-04-30T09:00:48Z</time>
      </trkpt>
      <trkpt lat="48.42522" lon="2.02031">
        <ele>146</ele>
        <time>2011-04-30T09:00:49Z</time>
      </trkpt>
      <trkpt lat="48.42524" lon="2.02032">
        <ele>146</ele>
        <time>2011-04-30T09:00:50Z</time>
      </trkpt>
      <trkpt lat="48.42526" lon="2.02032">
        <ele>146</ele>
        <time>2011-04-30T09:00:51Z</time>
      </trkpt>
      <trkpt lat="48.42529" lon="2.02033">
        <ele>146</ele>
        <time>2011-04-30T09:00:52Z</time>
      </trkpt>
      <trkpt lat="48.42531" lon="2.02034">
        <ele>146</ele>
        <time>2011-04-30T09:00:53Z</time>
      </trkpt>
      <trkpt lat="48.42533" lon="2.02035">
        <ele>146</ele>
        <time>2011-04-30T09:00:54Z</time>
      </trkpt>
      <trkpt lat="48.42536" lon="2.02035">
        <ele>146</ele>
        <time>2011-04-30T09:00:55Z</time>
      </trkpt>
      <trkpt lat="48.42538" lon="2.02036">
        <ele>146</ele>
        <time>2011-04-30T09:00:56Z</time>
      </trkpt>
      <trkpt lat="48.4254" lon="2.02037">
        <ele>146</ele>
        <time>2011-04-30T09:00:57Z</time>
      </trkpt>
      <trkpt lat="48.42543" lon="2.02037">
        <ele>146</ele>
        <time>2011-04-30T09:00:58Z</time>
      </trkpt>
      <trkpt lat="48.42545" lon="2.02038">
        <ele>146</ele>
        <time>2011-04-30T09:00:59Z</time>
      </trkpt>
      <trkpt lat="48.42547" lon="2.02039">
        <ele>146</ele>
        <time>2011-04-30T09:01:00Z</time>
      </trkpt>
      <trkpt lat="48.42549" lon="2.0204">
        <ele>146</ele>
        <time>2011-04-30T09:01:01Z</time>
      </trkpt>
      <trkpt lat="48.42552" lon="2.02041">
        <ele>146</ele>
        <time>2011-04-30T09:01:02Z</time>
      </trkpt>
      <trkpt lat="48.42554" lon="2.02041">
        <ele>146</ele>
        <time>2011-04-30T09:01:03Z</time>
      </trkpt>
      <trkpt lat="48.42557" lon="2.02042">
        <ele>146</ele>
        <time>2011-04-30T09:01:04Z</time>
      </trkpt>
      <trkpt lat="48.42559" lon="2.02043">
        <ele>146</ele>
        <time>2011-04-30T09:01:05Z</time>
      </trkpt>
      <trkpt lat="48.42561" lon="2.02043">
        <ele>146</ele>
        <time>2011-04-30T09:01:06Z</time>
      </trkpt>
      <trkpt lat="48.42563" lon="2.02044">
        <ele>146</ele>
        <time>2011-04-30T09:01:07Z</time>
      </trkpt>
      <trkpt lat="48.42566" lon="2.02045">
        <ele>146</ele>
        <time>2011-04-30T09:01:08Z</time>
      </trkpt>
      <trkpt lat="48.42568" lon="2.02046">
        <ele>146</ele>
        <time>2011-04-30T09:01:09Z</time>
      </trkpt>
      <trkpt lat="48.4257" lon="2.02046">
        <ele>146</ele>
        <time>2011-04-30T09:01:10Z</time>
      </trkpt>
      <trkpt lat="48.42573" lon="2.02047">
        <ele>146</ele>
        <time>2011-04-30T09:01:11Z</time>
      </trkpt>
      <trkpt lat="48.42575" lon="2.02048">
        <ele>146</ele>
        <time>2011-04-30T09:01:12Z</time>
      </trkpt>
      <trkpt lat="48.42577" lon="2.02048">
        <ele>146</ele>
        <time>2011-04-30T09:01:13Z</time>
      </trkpt>
      <trkpt lat="48.4258" lon="2.02049">
        <ele>146</ele>
        <time>2011-04-30T09:01:14Z</time>
      </trkpt>
      <trkpt lat="48.42582" lon="2.0205">
        <ele>146</ele>
        <time>2011-04-30T09:01:15Z</time>
      </trkpt>
      <trkpt lat="48.42584" lon="2.02051">
        <ele>145</ele>
        <time>2011-04-30T09:01:16Z</time>
      </trkpt>
      <trkpt lat="48.42587" lon="2.02051">
        <ele>145</ele>
        <time>2011-04-30T09:01:17Z</time>
      </trkpt>
      <trkpt lat="48.42589" lon="2.02052">
        <ele>145</ele>
        <time>2011-04-30T09:01:18Z</time>
      </trkpt>
      <trkpt lat="48.42591" lon="2.02053">
        <ele>145</ele>
        <time>2011-04-30T09:01:19Z</time>
      </trkpt>
      <trkpt lat="48.42594" lon="2.02054">
        <ele>145</ele>
        <time>2011-04-30T09:01:20Z</time>
      </trkpt>
      <trkpt lat="48.42596" lon="2.02054">
        <ele>145</ele>
        <time>2011-04-30T09:01:21Z</time>
      </trkpt>
      <trkpt lat="48.42599" lon="2.02055">
        <ele>145</ele>
        <time>2011-04-30T09:01:22Z</time>
      </trkpt>
      <trkpt lat="48.42601" lon="2.02056">
        <ele>145</ele>
        <time>2011-04-30T09:01:23Z</time>
      </trkpt>
      <trkpt lat="48.42604" lon="2.02057">
        <ele>145</ele>
        <time>2011-04-30T09:01:24Z</time>
      </trkpt>
      <trkpt lat="48.42606" lon="2.02057">
        <ele>145</ele>
        <time>2011-04-30T09:01:25Z</time>
      </trkpt>
      <trkpt lat="48.42608" lon="2.02058">
        <ele>145</ele>
        <time>2011-04-30T09:01:26Z</time>
      </trkpt>
      <trkpt lat="48.42611" lon="2.02059">
        <ele>145</ele>
        <time>2011-04-30T09:01:27Z</time>
      </trkpt>
      <trkpt lat="48.42613" lon="2.0206">
        <ele>145</ele>
        <time>2011-04-30T09:01:28Z</time>
      </trkpt>
      <trkpt lat="48.42615" lon="2.02061">
        <ele>145</ele>
        <time>2011-04-30T09:01:29Z</time>
      </trkpt>
      <trkpt lat="48.42618" lon="2.02062">
        <ele>145</ele>
        <time>2011-04-30T09:01:30Z</time>
      </trkpt>
      <trkpt lat="48.4262" lon="2.02063">
        <ele>145</ele>
        <time>2011-04-30T09:01:31Z</time>
      </trkpt>
      <trkpt lat="48.42622" lon="2.02064">
        <ele>145</ele>
        <time>2011-04-30T09:01:32Z</time>
      </trkpt>
      <trkpt lat="48.42625" lon="2.02065">
        <ele>145</ele>
        <time>2011-04-30T09:01:33Z</time>
      </trkpt>
      <trkpt lat="48.42627" lon="2.02066">
        <ele>145</ele>
        <time>2011-04-30T09:01:34Z</time>
      </trkpt>
      <trkpt lat="48.42629" lon="2.02067">
        <ele>145</ele>
        <time>2011-04-30T09:01:35Z</time>
      </trkpt>
      <trkpt lat="48.42632" lon="2.02067">
        <ele>145</ele>
        <time>2011-04-30T09:01:36Z</time>
      </trkpt>
      <trkpt lat="48.42634" lon="2.02068">
        <ele>145</ele>
        <time>2011-04-30T09:01:37Z</time>
      </trkpt>
      <trkpt lat="48.42637" lon="2.02069">
        <ele>145</ele>
        <time>2011-04-30T09:01:38Z</time>
      </trkpt>
      <trkpt lat="48.42639" lon="2.02069">
        <ele>145</ele>
        <time>2011-04-30T09:01:39Z</time>
      </trkpt>
      <trkpt lat="48.42641" lon="2.0207">
        <ele>145</ele>
        <time>2011-04-30T09:01:40Z</time>
      </trkpt>
      <trkpt lat="48.42644" lon="2.02071">
        <ele>145</ele>
        <time>2011-04-30T09:01:41Z</time>
      </trkpt>
      <trkpt lat="48.42646" lon="2.02071">
        <ele>145</ele>
        <time>2011-04-30T09:01:42Z</time>
      </trkpt>
      <trkpt lat="48.42648" lon="2.02072">
        <ele>145</ele>
        <time>2011-04-30T09:01:43Z</time>
      </trkpt>
      <trkpt lat="48.42651" lon="2.02073">
        <ele>145</ele>
        <time>2011-04-30T09:01:44Z</time>
      </trkpt>
      <trkpt lat="48.42653" lon="2.02073">
        <ele>145</ele>
        <time>2011-04-30T09:01:45Z</time>
      </trkpt>
      <trkpt lat="48.42656" lon="2.02074">
        <ele>145</ele>
        <time>2011-04-30T09:01:46Z</time>
      </trkpt>
      <trkpt lat="48.42658" lon="2.02075">
        <ele>145</ele>
        <time>2011-04-30T09:01:47Z</time>
      </trkpt>
      <trkpt lat="48.42661" lon="2.02076">
        <ele>145</ele>
        <time>2011-04-30T09:01:48Z</time>
      </trkpt>
      <trkpt lat="48.42663" lon="2.02076">
        <ele>145</ele>
        <time>2011-04-30T09:01:49Z</time>
      </trkpt>
      <trkpt lat="48.42665" lon="2.02077">
        <ele>145</ele>
        <time>2011-04-30T09:01:50Z</time>
      </trkpt>
      <trkpt lat="48.42668" lon="2.02078">
        <ele>145</ele>
        <time>2011-04-30T09:01:51Z</time>
      </trkpt>
      <trkpt lat="48.4267" lon="2.02079">
        <ele>145</ele>
        <time>2011-04-30T09:01:52Z</time>
      </trkpt>
      <trkpt lat="48.42673" lon="2.02079">
        <ele>145</ele>
        <time>2011-04-30T09:01:53Z</time>
      </trkpt>
      <trkpt lat="48.42675" lon="2.0208">
        <ele>145</ele>
        <time>2011-04-30T09:01:54Z</time>
      </trkpt>
      <trkpt lat="48.42678" lon="2.02081">
        <ele>145</ele>
        <time>2011-04-30T09:01:55Z</time>
      </trkpt>
      <trkpt lat="48.4268" lon="2.02082">
        <ele>145</ele>
        <time>2011-04-30T09:01:56Z</time>
      </trkpt>
      <trkpt lat="48.42682" lon="2.02082">
        <ele>145</ele>
        <time>2011-04-30T09:01:57Z</time>
      </trkpt>
      <trkpt lat="48.42685" lon="2.02083">
        <ele>145</ele>
        <time>2011-04-30T09:01:58Z</time>
      </trkpt>
      <trkpt lat="48.42687" lon="2.02084">
        <ele>145</ele>
        <time>2011-04-30T09:01:59Z</time>
      </trkpt>
      <trkpt lat="48.4269" lon="2.02085">
        <ele>145</ele>
        <time>2011-04-30T09:02:00Z</time>
      </trkpt>
      <trkpt lat="48.42692" lon="2.02085">
        <ele>146</ele>
        <time>2011-04-30T09:02:01Z</time>
      </trkpt>
      <trkpt lat="48.42695" lon="2.02086">
        <ele>146</ele>
        <time>2011-04-30T09:02:02Z</time>
      </trkpt>
      <trkpt lat="48.42697" lon="2.02087">
        <ele>146</ele>
        <time>2011-04-30T09:02:03Z</time>
      </trkpt>
      <trkpt lat="48.427" lon="2.02088">
        <ele>146</ele>
        <time>2011-04-30T09:02:04Z</time>
      </trkpt>
      <trkpt lat="48.42702" lon="2.02088">
        <ele>146</ele>
        <time>2011-04-30T09:02:05Z</time>
      </trkpt>
      <trkpt lat="48.42704" lon="2.02089">
        <ele>146</ele>
        <time>2011-04-30T09:02:06Z</time>
      </trkpt>
      <trkpt lat="48.42707" lon="2.0209">
        <ele>146</ele>
        <time>2011-04-30T09:02:07Z</time>
      </trkpt>
      <trkpt lat="48.42709" lon="2.0209">
        <ele>146</ele>
        <time>2011-04-30T09:02:08Z</time>
      </trkpt>
      <trkpt lat="48.42712" lon="2.02091">
        <ele>146</ele>
        <time>2011-04-30T09:02:09Z</time>
      </trkpt>
      <trkpt lat="48.42714" lon="2.02092">
        <ele>146</ele>
        <time>2011-04-30T09:02:10Z</time>
      </trkpt>
      <trkpt lat="48.42717" lon="2.02093">
        <ele>146</ele>
        <time>2011-04-30T09:02:11Z</time>
      </trkpt>
      <trkpt lat="48.42719" lon="2.02093">
        <ele>146</ele>
        <time>2011-04-30T09:02:12Z</time>
      </trkpt>
      <trkpt lat="48.42722" lon="2.02094">
        <ele>146</ele>
        <time>2011-04-30T09:02:13Z</time>
      </trkpt>
      <trkpt lat="48.42724" lon="2.02095">
        <ele>146</ele>
        <time>2011-04-30T09:02:14Z</time>
      </trkpt>
      <trkpt lat="48.42726" lon="2.02096">
        <ele>146</ele>
        <time>2011-04-30T09:02:15Z</time>
      </trkpt>
      <trkpt lat="48.42729" lon="2.02096">
        <ele>146</ele>
        <time>2011-04-30T09:02:16Z</time>
      </trkpt>
      <trkpt lat="48.42731" lon="2.02097">
        <ele>146</ele>
        <time>2011-04-30T09:02:17Z</time>
      </trkpt>
      <trkpt lat="48.42734" lon="2.02098">
        <ele>146</ele>
        <time>2011-04-30T09:02:18Z</time>
      </trkpt>
      <trkpt lat="48.42736" lon="2.02098">
        <ele>146</ele>
        <time>2011-04-30T09:02:19Z</time>
      </trkpt>
      <trkpt lat="48.42739" lon="2.02099">
        <ele>146</ele>
        <time>2011-04-30T09:02:20Z</time>
      </trkpt>
      <trkpt lat="48.42741" lon="2.021">
        <ele>146</ele>
        <time>2011-04-30T09:02:21Z</time>
      </trkpt>
      <trkpt lat="48.42744" lon="2.02101">
        <ele>146</ele>
        <time>2011-04-30T09:02:22Z</time>
      </trkpt>
      <trkpt lat="48.42746" lon="2.02101">
        <ele>146</ele>
        <time>2011-04-30T09:02:23Z</time>
      </trkpt>
      <trkpt lat="48.42749" lon="2.02102">
        <ele>146</ele>
        <time>2011-04-30T09:02:24Z</time>
      </trkpt>
      <trkpt lat="48.42751" lon="2.02103">
        <ele>146</ele>
        <time>2011-04-30T09:02:25Z</time>
      </trkpt>
      <trkpt lat="48.42754" lon="2.02103">
        <ele>146</ele>
        <time>2011-04-30T09:02:26Z</time>
      </trkpt>
      <trkpt lat="48.42756" lon="2.02104">
        <ele>146</ele>
        <time>2011-04-30T09:02:27Z</time>
      </trkpt>
      <trkpt lat="48.42759" lon="2.02105">
        <ele>146</ele>
        <time>2011-04-30T09:02:28Z</time>
      </trkpt>
      <trkpt lat="48.42761" lon="2.02106">
        <ele>146</ele>
        <time>2011-04-30T09:02:29Z</time>
      </trkpt>
      <trkpt lat="48.42764" lon="2.02107">
        <ele>146</ele>
        <time>2011-04-30T09:02:30Z</time>
      </trkpt>
      <trkpt lat="48.42766" lon="2.02108">
        <ele>146</ele>
        <time>2011-04-30T09:02:31Z</time>
      </trkpt>
      <trkpt lat="48.42769" lon="2.02109">
        <ele>146</ele>
        <time>2011-04-30T09:02:32Z</time>
      </trkpt>
      <trkpt lat="48.42771" lon="2.0211">
        <ele>146</ele>
        <time>2011-04-30T09:02:33Z</time>
      </trkpt>
      <trkpt lat="48.42774" lon="2.0211">
        <ele>146</ele>
        <time>2011-04-30T09:02:34Z</time>
      </trkpt>
      <trkpt lat="48.42776" lon="2.02111">
        <ele>146</ele>
        <time>2011-04-30T09:02:35Z</time>
      </trkpt>
      <trkpt lat="48.42779" lon="2.02112">
        <ele>146</ele>
        <time>2011-04-30T09:02:36Z</time>
      </trkpt>
      <trkpt lat="48.42781" lon="2.02113">
        <ele>146</ele>
        <time>2011-04-30T09:02:37Z</time>
      </trkpt>
      <trkpt lat="48.42784" lon="2.02114">
        <ele>146</ele>
        <time>2011-04-30T09:02:38Z</time>
      </trkpt>
      <trkpt lat="48.42786" lon="2.02115">
        <ele>146</ele>
        <time>2011-04-30T09:02:39Z</time>
      </trkpt>
      <trkpt lat="48.42789" lon="2.02115">
        <ele>146</ele>
        <time>2011-04-30T09:02:40Z</time>
      </trkpt>
      <trkpt lat="48.42791" lon="2.02116">
        <ele>146</ele>
        <time>2011-04-30T09:02:41Z</time>
      </trkpt>
      <trkpt lat="48.42794" lon="2.02117">
        <ele>146</ele>
        <time>2011-04-30T09:02:42Z</time>
      </trkpt>
      <trkpt lat="48.42796" lon="2.02118">
        <ele>146</ele>
        <time>2011-04-30T09:02:43Z</time>
      </trkpt>
      <trkpt lat="48.42799" lon="2.02119">
        <ele>146</ele>
        <time>2011-04-30T09:02:44Z</time>
      </trkpt>
      <trkpt lat="48.42801" lon="2.02119">
        <ele>146</ele>
        <time>2011-04-30T09:02:45Z</time>
      </trkpt>
      <trkpt lat="48.42804" lon="2.0212">
        <ele>146</ele>
        <time>2011-04-30T09:02:46Z</time>
      </trkpt>
      <trkpt lat="48.42806" lon="2.02121">
        <ele>146</ele>
        <time>2011-04-30T09:02:47Z</time>
      </trkpt>
      <trkpt lat="48.42808" lon="2.02122">
        <ele>146</ele>
        <time>2011-04-30T09:02:48Z</time>
      </trkpt>
      <trkpt lat="48.42811" lon="2.02122">
        <ele>146</ele>
        <time>2011-04-30T09:02:49Z</time>
      </trkpt>
      <trkpt lat="48.42813" lon="2.02123">
        <ele>146</ele>
        <time>2011-04-30T09:02:50Z</time>
      </trkpt>
      <trkpt lat="48.42816" lon="2.02124">
        <ele>146</ele>
        <time>2011-04-30T09:02:51Z</time>
      </trkpt>
      <trkpt lat="48.42818" lon="2.02125">
        <ele>146</ele>
        <time>2011-04-30T09:02:52Z</time>
      </trkpt>
      <trkpt lat="48.42821" lon="2.02125">
        <ele>146</ele>
        <time>2011-04-30T09:02:53Z</time>
      </trkpt>
      <trkpt lat="48.42823" lon="2.02126">
        <ele>146</ele>
        <time>2011-04-30T09:02:54Z</time>
      </trkpt>
      <trkpt lat="48.42825" lon="2.02126">
        <ele>146</ele>
        <time>2011-04-30T09:02:55Z</time>
      </trkpt>
      <trkpt lat="48.42828" lon="2.02127">
        <ele>146</ele>
        <time>2011-04-30T09:02:56Z</time>
      </trkpt>
      <trkpt lat="48.4283" lon="2.02128">
        <ele>146</ele>
        <time>2011-04-30T09:02:57Z</time>
      </trkpt>
      <trkpt lat="48.42832" lon="2.02129">
        <ele>146</ele>
        <time>2011-04-30T09:02:58Z</time>
      </trkpt>
      <trkpt lat="48.42835" lon="2.02129">
        <ele>146</ele>
        <time>2011-04-30T09:02:59Z</time>
      </trkpt>
      <trkpt lat="48.42837" lon="2.0213">
        <ele>146</ele>
        <time>2011-04-30T09:03:00Z</time>
      </trkpt>
      <trkpt lat="48.42839" lon="2.02131">
        <ele>146</ele>
        <time>2011-04-30T09:03:01Z</time>
      </trkpt>
      <trkpt lat="48.42842" lon="2.02132">
        <ele>146</ele>
        <time>2011-04-30T09:03:02Z</time>
      </trkpt>
      <trkpt lat="48.42844" lon="2.02133">
        <ele>145</ele>
        <time>2011-04-30T09:03:03Z</time>
      </trkpt>
      <trkpt lat="48.42846" lon="2.02133">
        <ele>145</ele>
        <time>2011-04-30T09:03:04Z</time>
      </trkpt>
      <trkpt lat="48.42849" lon="2.02134">
        <ele>145</ele>
        <time>2011-04-30T09:03:05Z</time>
      </trkpt>
      <trkpt lat="48.42851" lon="2.02135">
        <ele>145</ele>
        <time>2011-04-30T09:03:06Z</time>
      </trkpt>
      <trkpt lat="48.42853" lon="2.02136">
        <ele>145</ele>
        <time>2011-04-30T09:03:07Z</time>
      </trkpt>
      <trkpt lat="48.42855" lon="2.02136">
        <ele>145</ele>
        <time>2011-04-30T09:03:08Z</time>
      </trkpt>
      <trkpt lat="48.42858" lon="2.02137">
        <ele>145</ele>
        <time>2011-04-30T09:03:09Z</time>
      </trkpt>
      <trkpt lat="48.4286" lon="2.02138">
        <ele>145</ele>
        <time>2011-04-30T09:03:10Z</time>
      </trkpt>
      <trkpt lat="48.42862" lon="2.02138">
        <ele>145</ele>
        <time>2011-04-30T09:03:11Z</time>
      </trkpt>
      <trkpt lat="48.42864" lon="2.02139">
        <ele>145</ele>
        <time>2011-04-30T09:03:12Z</time>
      </trkpt>
      <trkpt lat="48.42867" lon="2.0214">
        <ele>145</ele>
        <time>2011-04-30T09:03:13Z</time>
      </trkpt>
      <trkpt lat="48.42869" lon="2.0214">
        <ele>145</ele>
        <time>2011-04-30T09:03:14Z</time>
      </trkpt>
      <trkpt lat="48.42871" lon="2.02141">
        <ele>145</ele>
        <time>2011-04-30T09:03:15Z</time>
      </trkpt>
      <trkpt lat="48.42873" lon="2.02142">
        <ele>145</ele>
        <time>2011-04-30T09:03:16Z</time>
      </trkpt>
      <trkpt lat="48.42874" lon="2.02143">
        <ele>145</ele>
        <time>2011-04-30T09:03:17Z</time>
      </trkpt>
      <trkpt lat="48.42876" lon="2.02144">
        <ele>145</ele>
        <time>2011-04-30T09:03:18Z</time>
      </trkpt>
      <trkpt lat="48.42877" lon="2.02145">
        <ele>145</ele>
        <time>2011-04-30T09:03:19Z</time>
      </trkpt>
      <trkpt lat="48.42878" lon="2.02145">
        <ele>145</ele>
        <time>2011-04-30T09:03:20Z</time>
      </trkpt>
      <trkpt lat="48.42878" lon="2.02145">
        <ele>145</ele>
        <time>2011-04-30T09:03:21Z</time>
      </trkpt>
      <trkpt lat="48.42879" lon="2.02146">
        <ele>145</ele>
        <time>2011-04-30T09:03:22Z</time>
      </trkpt>
      <trkpt lat="48.4288" lon="2.02146">
        <ele>145</ele>
        <time>2011-04-30T09:03:23Z</time>
      </trkpt>
      <trkpt lat="48.4288" lon="2.02146">
        <ele>145</ele>
        <time>2011-04-30T09:03:24Z</time>
      </trkpt>
      <trkpt lat="48.42881" lon="2.02146">
        <ele>145</ele>
        <time>2011-04-30T09:03:25Z</time>
      </trkpt>
      <trkpt lat="48.42883" lon="2.02145">
        <ele>145</ele>
        <time>2011-04-30T09:03:26Z</time>
      </trkpt>
      <trkpt lat="48.42885" lon="2.02144">
        <ele>145</ele>
        <time>2011-04-30T09:03:27Z</time>
      </trkpt>
      <trkpt lat="48.42888" lon="2.02143">
        <ele>145</ele>
        <time>2011-04-30T09:03:28Z</time>
      </trkpt>
      <trkpt lat="48.4289" lon="2.02142">
        <ele>145</ele>
        <time>2011-04-30T09:03:29Z</time>
      </trkpt>
      <trkpt lat="48.42892" lon="2.02141">
        <ele>145</ele>
        <time>2011-04-30T09:03:30Z</time>
      </trkpt>
      <trkpt lat="48.42894" lon="2.02141">
        <ele>145</ele>
        <time>2011-04-30T09:03:31Z</time>
      </trkpt>
      <trkpt lat="48.42897" lon="2.0214">
        <ele>145</ele>
        <time>2011-04-30T09:03:32Z</time>
      </trkpt>
      <trkpt lat="48.42899" lon="2.02139">
        <ele>145</ele>
        <time>2011-04-30T09:03:33Z</time>
      </trkpt>
      <trkpt lat="48.42901" lon="2.02138">
        <ele>145</ele>
        <time>2011-04-30T09:03:34Z</time>
      </trkpt>
      <trkpt lat="48.42903" lon="2.02137">
        <ele>145</ele>
        <time>2011-04-30T09:03:35Z</time>
      </trkpt>
      <trkpt lat="48.42905" lon="2.02136">
        <ele>145</ele>
        <time>2011-04-30T09:03:36Z</time>
      </trkpt>
      <trkpt lat="48.42907" lon="2.02135">
        <ele>145</ele>
        <time>2011-04-30T09:03:37Z</time>
      </trkpt>
      <trkpt lat="48.42909" lon="2.02134">
        <ele>145</ele>
        <time>2011-04-30T09:03:38Z</time>
      </trkpt>
      <trkpt lat="48.42911" lon="2.02132">
        <ele>145</ele>
        <time>2011-04-30T09:03:39Z</time>
      </trkpt>
      <trkpt lat="48.42913" lon="2.02131">
        <ele>145</ele>
        <time>2011-04-30T09:03:40Z</time>
      </trkpt>
      <trkpt lat="48.42915" lon="2.0213">
        <ele>145</ele>
        <time>2011-04-30T09:03:41Z</time>
      </trkpt>
      <trkpt lat="48.42917" lon="2.02129">
        <ele>144</ele>
        <time>2011-04-30T09:03:42Z</time>
      </trkpt>
      <trkpt lat="48.42919" lon="2.02128">
        <ele>144</ele>
        <time>2011-04-30T09:03:43Z</time>
      </trkpt>
      <trkpt lat="48.42922" lon="2.02127">
        <ele>144</ele>
        <time>2011-04-30T09:03:44Z</time>
      </trkpt>
      <trkpt lat="48.42924" lon="2.02126">
        <ele>144</ele>
        <time>2011-04-30T09:03:45Z</time>
      </trkpt>
      <trkpt lat="48.42926" lon="2.02124">
        <ele>145</ele>
        <time>2011-04-30T09:03:46Z</time>
      </trkpt>
      <trkpt lat="48.42928" lon="2.02123">
        <ele>145</ele>
        <time>2011-04-30T09:03:47Z</time>
      </trkpt>
      <trkpt lat="48.4293" lon="2.02122">
        <ele>145</ele>
        <time>2011-04-30T09:03:48Z</time>
      </trkpt>
      <trkpt lat="48.42932" lon="2.02121">
        <ele>145</ele>
        <time>2011-04-30T09:03:49Z</time>
      </trkpt>
      <trkpt lat="48.42934" lon="2.0212">
        <ele>145</ele>
        <time>2011-04-30T09:03:50Z</time>
      </trkpt>
      <trkpt lat="48.42936" lon="2.02118">
        <ele>145</ele>
        <time>2011-04-30T09:03:51Z</time>
      </trkpt>
      <trkpt lat="48.42938" lon="2.02117">
        <ele>145</ele>
        <time>2011-04-30T09:03:52Z</time>
      </trkpt>
      <trkpt lat="48.42941" lon="2.02116">
        <ele>145</ele>
        <time>2011-04-30T09:03:53Z</time>
      </trkpt>
      <trkpt lat="48.42943" lon="2.02115">
        <ele>145</ele>
        <time>2011-04-30T09:03:54Z</time>
      </trkpt>
      <trkpt lat="48.42945" lon="2.02114">
        <ele>145</ele>
        <time>2011-04-30T09:03:55Z</time>
      </trkpt>
      <trkpt lat="48.42947" lon="2.02113">
        <ele>145</ele>
        <time>2011-04-30T09:03:56Z</time>
      </trkpt>
      <trkpt lat="48.42949" lon="2.02112">
        <ele>145</ele>
        <time>2011-04-30T09:03:57Z</time>
      </trkpt>
      <trkpt lat="48.42951" lon="2.0211">
        <ele>145</ele>
        <time>2011-04-30T09:03:58Z</time>
      </trkpt>
      <trkpt lat="48.42954" lon="2.02109">
        <ele>145</ele>
        <time>2011-04-30T09:03:59Z</time>
      </trkpt>
      <trkpt lat="48.42956" lon="2.02108">
        <ele>145</ele>
        <time>2011-04-30T09:04:00Z</time>
      </trkpt>
      <trkpt lat="48.42958" lon="2.02107">
        <ele>145</ele>
        <time>2011-04-30T09:04:01Z</time>
      </trkpt>
      <trkpt lat="48.4296" lon="2.02106">
        <ele>145</ele>
        <time>2011-04-30T09:04:02Z</time>
      </trkpt>
      <trkpt lat="48.42962" lon="2.02105">
        <ele>145</ele>
        <time>2011-04-30T09:04:03Z</time>
      </trkpt>
      <trkpt lat="48.42964" lon="2.02103">
        <ele>145</ele>
        <time>2011-04-30T09:04:04Z</time>
      </trkpt>
      <trkpt lat="48.42966" lon="2.02102">
        <ele>145</ele>
        <time>2011-04-30T09:04:05Z</time>
      </trkpt>
      <trkpt lat="48.42968" lon="2.02101">
        <ele>145</ele>
        <time>2011-04-30T09:04:06Z</time>
      </trkpt>
      <trkpt lat="48.42971" lon="2.021">
        <ele>145</ele>
        <time>2011-04-30T09:04:07Z</time>
      </trkpt>
      <trkpt lat="48.42973" lon="2.02099">
        <ele>145</ele>
        <time>2011-04-30T09:04:08Z</time>
      </trkpt>
      <trkpt lat="48.42975" lon="2.02098">
        <ele>145</ele>
        <time>2011-04-30T09:04:09Z</time>
      </trkpt>
      <trkpt lat="48.42977" lon="2.02097">
        <ele>145</ele>
        <time>2011-04-30T09:04:10Z</time>
      </trkpt>
      <trkpt lat="48.42979" lon="2.02096">
        <ele>145</ele>
        <time>2011-04-30T09:04:11Z</time>
      </trkpt>
      <trkpt lat="48.42981" lon="2.02095">
        <ele>145</ele>
        <time>2011-04-30T09:04:12Z</time>
      </trkpt>
      <trkpt lat="48.42983" lon="2.02094">
        <ele>145</ele>
        <time>2011-04-30T09:04:13Z</time>
      </trkpt>
      <trkpt lat="48.42986" lon="2.02092">
        <ele>145</ele>
        <time>2011-04-30T09:04:14Z</time>
      </trkpt>
      <trkpt lat="48.42988" lon="2.02091">
        <ele>145</ele>
        <time>2011-04-30T09:04:15Z</time>
      </trkpt>
      <trkpt lat="48.4299" lon="2.0209">
        <ele>145</ele>
        <time>2011-04-30T09:04:16Z</time>
      </trkpt>
      <trkpt lat="48.42992" lon="2.02089">
        <ele>145</ele>
        <time>2011-04-30T09:04:17Z</time>
      </trkpt>
      <trkpt lat="48.42994" lon="2.02087">
        <ele>145</ele>
        <time>2011-04-30T09:04:18Z</time>
      </trkpt>
      <trkpt lat="48.42995" lon="2.02086">
        <ele>145</ele>
        <time>2011-04-30T09:04:19Z</time>
      </trkpt>
      <trkpt lat="48.42997" lon="2.02085">
        <ele>145</ele>
        <time>2011-04-30T09:04:20Z</time>
      </trkpt>
      <trkpt lat="48.42999" lon="2.02083">
        <ele>145</ele>
        <time>2011-04-30T09:04:21Z</time>
      </trkpt>
      <trkpt lat="48.43001" lon="2.02082">
        <ele>145</ele>
        <time>2011-04-30T09:04:22Z</time>
      </trkpt>
      <trkpt lat="48.43003" lon="2.0208">
        <ele>145</ele>
        <time>2011-04-30T09:04:23Z</time>
      </trkpt>
      <trkpt lat="48.43005" lon="2.02079">
        <ele>145</ele>
        <time>2011-04-30T09:04:24Z</time>
      </trkpt>
      <trkpt lat="48.43007" lon="2.02078">
        <ele>145</ele>
        <time>2011-04-30T09:04:25Z</time>
      </trkpt>
      <trkpt lat="48.43009" lon="2.02077">
        <ele>145</ele>
        <time>2011-04-30T09:04:26Z</time>
      </trkpt>
      <trkpt lat="48.43011" lon="2.02076">
        <ele>145</ele>
        <time>2011-04-30T09:04:27Z</time>
      </trkpt>
      <trkpt lat="48.43014" lon="2.02075">
        <ele>145</ele>
        <time>2011-04-30T09:04:28Z</time>
      </trkpt>
      <trkpt lat="48.43016" lon="2.02074">
        <ele>145</ele>
        <time>2011-04-30T09:04:29Z</time>
      </trkpt>
      <trkpt lat="48.43018" lon="2.02072">
        <ele>145</ele>
        <time>2011-04-30T09:04:30Z</time>
      </trkpt>
      <trkpt lat="48.4302" lon="2.02071">
        <ele>145</ele>
        <time>2011-04-30T09:04:31Z</time>
      </trkpt>
      <trkpt lat="48.43022" lon="2.0207">
        <ele>145</ele>
        <time>2011-04-30T09:04:32Z</time>
      </trkpt>
      <trkpt lat="48.43024" lon="2.02069">
        <ele>145</ele>
        <time>2011-04-30T09:04:33Z</time>
      </trkpt>
      <trkpt lat="48.43026" lon="2.02067">
        <ele>145</ele>
        <time>2011-04-30T09:04:34Z</time>
      </trkpt>
      <trkpt lat="48.43028" lon="2.02066">
        <ele>145</ele>
        <time>2011-04-30T09:04:35Z</time>
      </trkpt>
      <trkpt lat="48.4303" lon="2.02065">
        <ele>145</ele>
        <time>2011-04-30T09:04:36Z</time>
      </trkpt>
      <trkpt lat="48.43032" lon="2.02064">
        <ele>145</ele>
        <time>2011-04-30T09:04:37Z</time>
      </trkpt>
      <trkpt lat="48.43035" lon="2.02062">
        <ele>145</ele>
        <time>2011-04-30T09:04:38Z</time>
      </trkpt>
      <trkpt lat="48.43037" lon="2.02061">
        <ele>145</ele>
        <time>2011-04-30T09:04:39Z</time>
      </trkpt>
      <trkpt lat="48.43039" lon="2.0206">
        <ele>145</ele>
        <time>2011-04-30T09:04:40Z</time>
      </trkpt>
      <trkpt lat="48.43041" lon="2.02059">
        <ele>145</ele>
        <time>2011-04-30T09:04:41Z</time>
      </trkpt>
      <trkpt lat="48.43043" lon="2.02058">
        <ele>145</ele>
        <time>2011-04-30T09:04:42Z</time>
      </trkpt>
      <trkpt lat="48.43045" lon="2.02057">
        <ele>145</ele>
        <time>2011-04-30T09:04:43Z</time>
      </trkpt>
      <trkpt lat="48.43048" lon="2.02056">
        <ele>145</ele>
        <time>2011-04-30T09:04:44Z</time>
      </trkpt>
      <trkpt lat="48.4305" lon="2.02055">
        <ele>145</ele>
        <time>2011-04-30T09:04:45Z</time>
      </trkpt>
      <trkpt lat="48.43052" lon="2.02053">
        <ele>145</ele>
        <time>2011-04-30T09:04:46Z</time>
      </trkpt>
      <trkpt lat="48.43054" lon="2.02052">
        <ele>145</ele>
        <time>2011-04-30T09:04:47Z</time>
      </trkpt>
      <trkpt lat="48.43056" lon="2.02051">
        <ele>145</ele>
        <time>2011-04-30T09:04:48Z</time>
      </trkpt>
      <trkpt lat="48.43059" lon="2.0205">
        <ele>145</ele>
        <time>2011-04-30T09:04:49Z</time>
      </trkpt>
      <trkpt lat="48.43061" lon="2.02048">
        <ele>145</ele>
        <time>2011-04-30T09:04:50Z</time>
      </trkpt>
      <trkpt lat="48.43063" lon="2.02047">
        <ele>145</ele>
        <time>2011-04-30T09:04:51Z</time>
      </trkpt>
      <trkpt lat="48.43066" lon="2.02046">
        <ele>145</ele>
        <time>2011-04-30T09:04:52Z</time>
      </trkpt>
      <trkpt lat="48.43068" lon="2.02044">
        <ele>145</ele>
        <time>2011-04-30T09:04:53Z</time>
      </trkpt>
      <trkpt lat="48.4307" lon="2.02043">
        <ele>145</ele>
        <time>2011-04-30T09:04:54Z</time>
      </trkpt>
      <trkpt lat="48.43072" lon="2.02042">
        <ele>145</ele>
        <time>2011-04-30T09:04:55Z</time>
      </trkpt>
      <trkpt lat="48.43075" lon="2.0204">
        <ele>145</ele>
        <time>2011-04-30T09:04:56Z</time>
      </trkpt>
      <trkpt lat="48.43077" lon="2.02039">
        <ele>145</ele>
        <time>2011-04-30T09:04:57Z</time>
      </trkpt>
      <trkpt lat="48.43079" lon="2.02038">
        <ele>145</ele>
        <time>2011-04-30T09:04:58Z</time>
      </trkpt>
      <trkpt lat="48.43081" lon="2.02037">
        <ele>145</ele>
        <time>2011-04-30T09:04:59Z</time>
      </trkpt>
      <trkpt lat="48.43083" lon="2.02035">
        <ele>144</ele>
        <time>2011-04-30T09:05:00Z</time>
      </trkpt>
      <trkpt lat="48.43086" lon="2.02034">
        <ele>144</ele>
        <time>2011-04-30T09:05:01Z</time>
      </trkpt>
      <trkpt lat="48.43088" lon="2.02033">
        <ele>144</ele>
        <time>2011-04-30T09:05:02Z</time>
      </trkpt>
      <trkpt lat="48.4309" lon="2.02032">
        <ele>144</ele>
        <time>2011-04-30T09:05:03Z</time>
      </trkpt>
      <trkpt lat="48.43092" lon="2.0203">
        <ele>144</ele>
        <time>2011-04-30T09:05:04Z</time>
      </trkpt>
      <trkpt lat="48.43094" lon="2.02029">
        <ele>144</ele>
        <time>2011-04-30T09:05:05Z</time>
      </trkpt>
      <trkpt lat="48.43097" lon="2.02028">
        <ele>144</ele>
        <time>2011-04-30T09:05:06Z</time>
      </trkpt>
      <trkpt lat="48.43099" lon="2.02026">
        <ele>144</ele>
        <time>2011-04-30T09:05:07Z</time>
      </trkpt>
      <trkpt lat="48.43101" lon="2.02025">
        <ele>144</ele>
        <time>2011-04-30T09:05:08Z</time>
      </trkpt>
      <trkpt lat="48.43103" lon="2.02023">
        <ele>144</ele>
        <time>2011-04-30T09:05:09Z</time>
      </trkpt>
      <trkpt lat="48.43105" lon="2.02021">
        <ele>144</ele>
        <time>2011-04-30T09:05:10Z</time>
      </trkpt>
      <trkpt lat="48.43107" lon="2.0202">
        <ele>144</ele>
        <time>2011-04-30T09:05:11Z</time>
      </trkpt>
      <trkpt lat="48.4311" lon="2.02018">
        <ele>144</ele>
        <time>2011-04-30T09:05:12Z</time>
      </trkpt>
      <trkpt lat="48.43112" lon="2.02017">
        <ele>144</ele>
        <time>2011-04-30T09:05:13Z</time>
      </trkpt>
      <trkpt lat="48.43114" lon="2.02015">
        <ele>144</ele>
        <time>2011-04-30T09:05:14Z</time>
      </trkpt>
      <trkpt lat="48.43116" lon="2.02014">
        <ele>144</ele>
        <time>2011-04-30T09:05:15Z</time>
      </trkpt>
      <trkpt lat="48.43118" lon="2.02013">
        <ele>144</ele>
        <time>2011-04-30T09:05:16Z</time>
      </trkpt>
      <trkpt lat="48.43121" lon="2.02011">
        <ele>144</ele>
        <time>2011-04-30T09:05:17Z</time>
      </trkpt>
      <trkpt lat="48.43123" lon="2.0201">
        <ele>144</ele>
        <time>2011-04-30T09:05:18Z</time>
      </trkpt>
      <trkpt lat="48.43125" lon="2.02009">
        <ele>144</ele>
        <time>2011-04-30T09:05:19Z</time>
      </trkpt>
      <trkpt lat="48.43128" lon="2.02007">
        <ele>144</ele>
        <time>2011-04-30T09:05:20Z</time>
      </trkpt>
      <trkpt lat="48.4313" lon="2.02006">
        <ele>144</ele>
        <time>2011-04-30T09:05:21Z</time>
      </trkpt>
      <trkpt lat="48.43132" lon="2.02005">
        <ele>144</ele>
        <time>2011-04-30T09:05:22Z</time>
      </trkpt>
      <trkpt lat="48.43135" lon="2.02003">
        <ele>144</ele>
        <time>2011-04-30T09:05:23Z</time>
      </trkpt>
      <trkpt lat="48.43137" lon="2.02002">
        <ele>144</ele>
        <time>2011-04-30T09:05:24Z</time>
      </trkpt>
      <trkpt lat="48.43139" lon="2.02001">
        <ele>144</ele>
        <time>2011-04-30T09:05:25Z</time>
      </trkpt>
      <trkpt lat="48.43142" lon="2.01999">
        <ele>143</ele>
        <time>2011-04-30T09:05:26Z</time>
      </trkpt>
      <trkpt lat="48.43144" lon="2.01998">
        <ele>143</ele>
        <time>2011-04-30T09:05:27Z</time>
      </trkpt>
      <trkpt lat="48.43146" lon="2.01997">
        <ele>143</ele>
        <time>2011-04-30T09:05:28Z</time>
      </trkpt>
      <trkpt lat="48.43148" lon="2.01996">
        <ele>143</ele>
        <time>2011-04-30T09:05:29Z</time>
      </trkpt>
      <trkpt lat="48.43151" lon="2.01995">
        <ele>143</ele>
        <time>2011-04-30T09:05:30Z</time>
      </trkpt>
      <trkpt lat="48.43153" lon="2.01993">
        <ele>143</ele>
        <time>2011-04-30T09:05:31Z</time>
      </trkpt>
      <trkpt lat="48.43155" lon="2.01992">
        <ele>143</ele>
        <time>2011-04-30T09:05:32Z</time>
      </trkpt>
      <trkpt lat="48.43157" lon="2.0199">
        <ele>143</ele>
        <time>2011-04-30T09:05:33Z</time>
      </trkpt>
      <trkpt lat="48.43159" lon="2.01989">
        <ele>143</ele>
        <time>2011-04-30T09:05:34Z</time>
      </trkpt>
      <trkpt lat="48.43162" lon="2.01988">
        <ele>143</ele>
        <time>2011-04-30T09:05:35Z</time>
      </trkpt>
      <trkpt lat="48.43164" lon="2.01986">
        <ele>143</ele>
        <time>2011-04-30T09:05:36Z</time>
      </trkpt>
      <trkpt lat="48.43166" lon="2.01985">
        <ele>143</ele>
        <time>2011-04-30T09:05:37Z</time>
      </trkpt>
      <trkpt lat="48.43168" lon="2.01984">
        <ele>143</ele>
        <time>2011-04-30T09:05:38Z</time>
      </trkpt>
      <trkpt lat="48.43171" lon="2.01982">
        <ele>143</ele>
        <time>2011-04-30T09:05:39Z</time>
      </trkpt>
      <trkpt lat="48.43173" lon="2.01981">
        <ele>143</ele>
        <time>2011-04-30T09:05:40Z</time>
      </trkpt>
      <trkpt lat="48.43175" lon="2.0198">
        <ele>143</ele>
        <time>2011-04-30T09:05:41Z</time>
      </trkpt>
      <trkpt lat="48.43177" lon="2.01979">
        <ele>143</ele>
        <time>2011-04-30T09:05:42Z</time>
      </trkpt>
      <trkpt lat="48.4318" lon="2.01977">
        <ele>143</ele>
        <time>2011-04-30T09:05:43Z</time>
      </trkpt>
      <trkpt lat="48.43182" lon="2.01976">
        <ele>143</ele>
        <time>2011-04-30T09:05:44Z</time>
      </trkpt>
      <trkpt lat="48.43184" lon="2.01975">
        <ele>143</ele>
        <time>2011-04-30T09:05:45Z</time>
      </trkpt>
      <trkpt lat="48.43186" lon="2.01973">
        <ele>143</ele>
        <time>2011-04-30T09:05:46Z</time>
      </trkpt>
      <trkpt lat="48.43189" lon="2.01972">
        <ele>143</ele>
        <time>2011-04-30T09:05:47Z</time>
      </trkpt>
      <trkpt lat="48.43191" lon="2.01971">
        <ele>143</ele>
        <time>2011-04-30T09:05:48Z</time>
      </trkpt>
      <trkpt lat="48.43193" lon="2.01969">
        <ele>143</ele>
        <time>2011-04-30T09:05:49Z</time>
      </trkpt>
      <trkpt lat="48.43195" lon="2.01968">
        <ele>143</ele>
        <time>2011-04-30T09:05:50Z</time>
      </trkpt>
      <trkpt lat="48.43198" lon="2.01967">
        <ele>143</ele>
        <time>2011-04-30T09:05:51Z</time>
      </trkpt>
      <trkpt lat="48.432" lon="2.01965">
        <ele>143</ele>
        <time>2011-04-30T09:05:52Z</time>
      </trkpt>
      <trkpt lat="48.43202" lon="2.01964">
        <ele>143</ele>
        <time>2011-04-30T09:05:53Z</time>
      </trkpt>
      <trkpt lat="48.43204" lon="2.01962">
        <ele>143</ele>
        <time>2011-04-30T09:05:54Z</time>
      </trkpt>
      <trkpt lat="48.43206" lon="2.01961">
        <ele>143</ele>
        <time>2011-04-30T09:05:55Z</time>
      </trkpt>
      <trkpt lat="48.43209" lon="2.0196">
        <ele>143</ele>
        <time>2011-04-30T09:05:56Z</time>
      </trkpt>
      <trkpt lat="48.43211" lon="2.01958">
        <ele>143</ele>
        <time>2011-04-30T09:05:57Z</time>
      </trkpt>
      <trkpt lat="48.43213" lon="2.01957">
        <ele>143</ele>
        <time>2011-04-30T09:05:58Z</time>
      </trkpt>
      <trkpt lat="48.43215" lon="2.01956">
        <ele>143</ele>
        <time>2011-04-30T09:05:59Z</time>
      </trkpt>
      <trkpt lat="48.43217" lon="2.01954">
        <ele>143</ele>
        <time>2011-04-30T09:06:00Z</time>
      </trkpt>
      <trkpt lat="48.43219" lon="2.01953">
        <ele>143</ele>
        <time>2011-04-30T09:06:01Z</time>
      </trkpt>
      <trkpt lat="48.43221" lon="2.01952">
        <ele>143</ele>
        <time>2011-04-30T09:06:02Z</time>
      </trkpt>
      <trkpt lat="48.43224" lon="2.0195">
        <ele>143</ele>
        <time>2011-04-30T09:06:03Z</time>
      </trkpt>
      <trkpt lat="48.43226" lon="2.01949">
        <ele>143</ele>
        <time>2011-04-30T09:06:04Z</time>
      </trkpt>
      <trkpt lat="48.43229" lon="2.01948">
        <ele>143</ele>
        <time>2011-04-30T09:06:05Z</time>
      </trkpt>
      <trkpt lat="48.43231" lon="2.01947">
        <ele>143</ele>
        <time>2011-04-30T09:06:06Z</time>
      </trkpt>
      <trkpt lat="48.43234" lon="2.01945">
        <ele>143</ele>
        <time>2011-04-30T09:06:07Z</time>
      </trkpt>
      <trkpt lat="48.43236" lon="2.01944">
        <ele>143</ele>
        <time>2011-04-30T09:06:08Z</time>
      </trkpt>
      <trkpt lat="48.43239" lon="2.01943">
        <ele>143</ele>
        <time>2011-04-30T09:06:09Z</time>
      </trkpt>
      <trkpt lat="48.43241" lon="2.01941">
        <ele>143</ele>
        <time>2011-04-30T09:06:10Z</time>
      </trkpt>
      <trkpt lat="48.43244" lon="2.0194">
        <ele>143</ele>
        <time>2011-04-30T09:06:11Z</time>
      </trkpt>
      <trkpt lat="48.43247" lon="2.01938">
        <ele>143</ele>
        <time>2011-04-30T09:06:12Z</time>
      </trkpt>
      <trkpt lat="48.43249" lon="2.01937">
        <ele>143</ele>
        <time>2011-04-30T09:06:13Z</time>
      </trkpt>
      <trkpt lat="48.43251" lon="2.01935">
        <ele>143</ele>
        <time>2011-04-30T09:06:14Z</time>
      </trkpt>
      <trkpt lat="48.43254" lon="2.01934">
        <ele>143</ele>
        <time>2011-04-30T09:06:15Z</time>
      </trkpt>
      <trkpt lat="48.43256" lon="2.01932">
        <ele>143</ele>
        <time>2011-04-30T09:06:16Z</time>
      </trkpt>
      <trkpt lat="48.43258" lon="2.01931">
        <ele>143</ele>
        <time>2011-04-30T09:06:17Z</time>
      </trkpt>
      <trkpt lat="48.4326" lon="2.0193">
        <ele>143</ele>
        <time>2011-04-30T09:06:18Z</time>
      </trkpt>
      <trkpt lat="48.43263" lon="2.01929">
        <ele>143</ele>
        <time>2011-04-30T09:06:19Z</time>
      </trkpt>
      <trkpt lat="48.43265" lon="2.01927">
        <ele>143</ele>
        <time>2011-04-30T09:06:20Z</time>
      </trkpt>
      <trkpt lat="48.43267" lon="2.01926">
        <ele>143</ele>
        <time>2011-04-30T09:06:21Z</time>
      </trkpt>
      <trkpt lat="48.43269" lon="2.01925">
        <ele>143</ele>
        <time>2011-04-30T09:06:22Z</time>
      </trkpt>
      <trkpt lat="48.43271" lon="2.01924">
        <ele>143</ele>
        <time>2011-04-30T09:06:23Z</time>
      </trkpt>
      <trkpt lat="48.43274" lon="2.01923">
        <ele>143</ele>
        <time>2011-04-30T09:06:24Z</time>
      </trkpt>
      <trkpt lat="48.43276" lon="2.01922">
        <ele>143</ele>
        <time>2011-04-30T09:06:25Z</time>
      </trkpt>
      <trkpt lat="48.43278" lon="2.0192">
        <ele>143</ele>
        <time>2011-04-30T09:06:26Z</time>
      </trkpt>
      <trkpt lat="48.4328" lon="2.01919">
        <ele>143</ele>
        <time>2011-04-30T09:06:27Z</time>
      </trkpt>
      <trkpt lat="48.43282" lon="2.01918">
        <ele>143</ele>
        <time>2011-04-30T09:06:28Z</time>
      </trkpt>
      <trkpt lat="48.43285" lon="2.01916">
        <ele>143</ele>
        <time>2011-04-30T09:06:29Z</time>
      </trkpt>
      <trkpt lat="48.43287" lon="2.01915">
        <ele>143</ele>
        <time>2011-04-30T09:06:30Z</time>
      </trkpt>
      <trkpt lat="48.43289" lon="2.01914">
        <ele>143</ele>
        <time>2011-04-30T09:06:31Z</time>
      </trkpt>
      <trkpt lat="48.43292" lon="2.01913">
        <ele>143</ele>
        <time>2011-04-30T09:06:32Z</time>
      </trkpt>
      <trkpt lat="48.43294" lon="2.01911">
        <ele>143</ele>
        <time>2011-04-30T09:06:33Z</time>
      </trkpt>
      <trkpt lat="48.43297" lon="2.0191">
        <ele>143</ele>
        <time>2011-04-30T09:06:34Z</time>
      </trkpt>
      <trkpt lat="48.43299" lon="2.01909">
        <ele>143</ele>
        <time>2011-04-30T09:06:35Z</time>
      </trkpt>
      <trkpt lat="48.43301" lon="2.01908">
        <ele>143</ele>
        <time>2011-04-30T09:06:36Z</time>
      </trkpt>
      <trkpt lat="48.43303" lon="2.01906">
        <ele>143</ele>
        <time>2011-04-30T09:06:37Z</time>
      </trkpt>
      <trkpt lat="48.43306" lon="2.01905">
        <ele>143</ele>
        <time>2011-04-30T09:06:38Z</time>
      </trkpt>
      <trkpt lat="48.43308" lon="2.01904">
        <ele>143</ele>
        <time>2011-04-30T09:06:39Z</time>
      </trkpt>
      <trkpt lat="48.4331" lon="2.01903">
        <ele>143</ele>
        <time>2011-04-30T09:06:40Z</time>
      </trkpt>
      <trkpt lat="48.43312" lon="2.01902">
        <ele>143</ele>
        <time>2011-04-30T09:06:41Z</time>
      </trkpt>
      <trkpt lat="48.43315" lon="2.019">
        <ele>143</ele>
        <time>2011-04-30T09:06:42Z</time>
      </trkpt>
      <trkpt lat="48.43317" lon="2.01899">
        <ele>143</ele>
        <time>2011-04-30T09:06:43Z</time>
      </trkpt>
      <trkpt lat="48.43319" lon="2.01898">
        <ele>143</ele>
        <time>2011-04-30T09:06:44Z</time>
      </trkpt>
      <trkpt lat="48.43321" lon="2.01896">
        <ele>143</ele>
        <time>2011-04-30T09:06:45Z</time>
      </trkpt>
      <trkpt lat="48.43324" lon="2.01895">
        <ele>143</ele>
        <time>2011-04-30T09:06:46Z</time>
      </trkpt>
      <trkpt lat="48.43326" lon="2.01894">
        <ele>143</ele>
        <time>2011-04-30T09:06:47Z</time>
      </trkpt>
      <trkpt lat="48.43328" lon="2.01893">
        <ele>143</ele>
        <time>2011-04-30T09:06:48Z</time>
      </trkpt>
      <trkpt lat="48.43331" lon="2.01891">
        <ele>143</ele>
        <time>2011-04-30T09:06:49Z</time>
      </trkpt>
      <trkpt lat="48.43333" lon="2.0189">
        <ele>143</ele>
        <time>2011-04-30T09:06:50Z</time>
      </trkpt>
      <trkpt lat="48.43335" lon="2.01889">
        <ele>143</ele>
        <time>2011-04-30T09:06:51Z</time>
      </trkpt>
      <trkpt lat="48.43337" lon="2.01887">
        <ele>143</ele>
        <time>2011-04-30T09:06:52Z</time>
      </trkpt>
      <trkpt lat="48.4334" lon="2.01886">
        <ele>143</ele>
        <time>2011-04-30T09:06:53Z</time>
      </trkpt>
      <trkpt lat="48.43342" lon="2.01884">
        <ele>143</ele>
        <time>2011-04-30T09:06:54Z</time>
      </trkpt>
      <trkpt lat="48.43344" lon="2.01883">
        <ele>143</ele>
        <time>2011-04-30T09:06:55Z</time>
      </trkpt>
      <trkpt lat="48.43347" lon="2.01882">
        <ele>143</ele>
        <time>2011-04-30T09:06:56Z</time>
      </trkpt>
      <trkpt lat="48.43349" lon="2.0188">
        <ele>143</ele>
        <time>2011-04-30T09:06:57Z</time>
      </trkpt>
      <trkpt lat="48.43351" lon="2.01879">
        <ele>143</ele>
        <time>2011-04-30T09:06:58Z</time>
      </trkpt>
      <trkpt lat="48.43353" lon="2.01878">
        <ele>143</ele>
        <time>2011-04-30T09:06:59Z</time>
      </trkpt>
      <trkpt lat="48.43355" lon="2.01877">
        <ele>143</ele>
        <time>2011-04-30T09:07:00Z</time>
      </trkpt>
      <trkpt lat="48.43357" lon="2.01876">
        <ele>143</ele>
        <time>2011-04-30T09:07:01Z</time>
      </trkpt>
      <trkpt lat="48.4336" lon="2.01874">
        <ele>142</ele>
        <time>2011-04-30T09:07:02Z</time>
      </trkpt>
      <trkpt lat="48.43362" lon="2.01873">
        <ele>142</ele>
        <time>2011-04-30T09:07:03Z</time>
      </trkpt>
      <trkpt lat="48.43364" lon="2.01872">
        <ele>142</ele>
        <time>2011-04-30T09:07:04Z</time>
      </trkpt>
      <trkpt lat="48.43366" lon="2.0187">
        <ele>142</ele>
        <time>2011-04-30T09:07:05Z</time>
      </trkpt>
      <trkpt lat="48.43368" lon="2.01869">
        <ele>142</ele>
        <time>2011-04-30T09:07:06Z</time>
      </trkpt>
      <trkpt lat="48.4337" lon="2.01868">
        <ele>142</ele>
        <time>2011-04-30T09:07:07Z</time>
      </trkpt>
      <trkpt lat="48.43373" lon="2.01866">
        <ele>142</ele>
        <time>2011-04-30T09:07:08Z</time>
      </trkpt>
      <trkpt lat="48.43375" lon="2.01865">
        <ele>142</ele>
        <time>2011-04-30T09:07:09Z</time>
      </trkpt>
      <trkpt lat="48.43377" lon="2.01864">
        <ele>142</ele>
        <time>2011-04-30T09:07:10Z</time>
      </trkpt>
      <trkpt lat="48.43379" lon="2.01864">
        <ele>142</ele>
        <time>2011-04-30T09:07:11Z</time>
      </trkpt>
      <trkpt lat="48.43382" lon="2.01863">
        <ele>142</ele>
        <time>2011-04-30T09:07:12Z</time>
      </trkpt>
      <trkpt lat="48.43384" lon="2.01862">
        <ele>142</ele>
        <time>2011-04-30T09:07:13Z</time>
      </trkpt>
      <trkpt lat="48.43386" lon="2.01861">
        <ele>142</ele>
        <time>2011-04-30T09:07:14Z</time>
      </trkpt>
      <trkpt lat="48.43389" lon="2.0186">
        <ele>142</ele>
        <time>2011-04-30T09:07:15Z</time>
      </trkpt>
      <trkpt lat="48.43391" lon="2.01859">
        <ele>142</ele>
        <time>2011-04-30T09:07:16Z</time>
      </trkpt>
      <trkpt lat="48.43393" lon="2.01858">
        <ele>142</ele>
        <time>2011-04-30T09:07:17Z</time>
      </trkpt>
      <trkpt lat="48.43395" lon="2.01857">
        <ele>142</ele>
        <time>2011-04-30T09:07:18Z</time>
      </trkpt>
      <trkpt lat="48.43397" lon="2.01855">
        <ele>142</ele>
        <time>2011-04-30T09:07:19Z</time>
      </trkpt>
      <trkpt lat="48.434" lon="2.01854">
        <ele>142</ele>
        <time>2011-04-30T09:07:20Z</time>
      </trkpt>
      <trkpt lat="48.43402" lon="2.01852">
        <ele>142</ele>
        <time>2011-04-30T09:07:21Z</time>
      </trkpt>
      <trkpt lat="48.43404" lon="2.01851">
        <ele>142</ele>
        <time>2011-04-30T09:07:22Z</time>
      </trkpt>
      <trkpt lat="48.43406" lon="2.0185">
        <ele>142</ele>
        <time>2011-04-30T09:07:23Z</time>
      </trkpt>
      <trkpt lat="48.43409" lon="2.01848">
        <ele>142</ele>
        <time>2011-04-30T09:07:24Z</time>
      </trkpt>
      <trkpt lat="48.43411" lon="2.01847">
        <ele>142</ele>
        <time>2011-04-30T09:07:25Z</time>
      </trkpt>
      <trkpt lat="48.43413" lon="2.01846">
        <ele>142</ele>
        <time>2011-04-30T09:07:26Z</time>
      </trkpt>
      <trkpt lat="48.43416" lon="2.01845">
        <ele>142</ele>
        <time>2011-04-30T09:07:27Z</time>
      </trkpt>
      <trkpt lat="48.43418" lon="2.01843">
        <ele>142</ele>
        <time>2011-04-30T09:07:28Z</time>
      </trkpt>
      <trkpt lat="48.4342" lon="2.01842">
        <ele>142</ele>
        <time>2011-04-30T09:07:29Z</time>
      </trkpt>
      <trkpt lat="48.43423" lon="2.01841">
        <ele>142</ele>
        <time>2011-04-30T09:07:30Z</time>
      </trkpt>
      <trkpt lat="48.43425" lon="2.0184">
        <ele>142</ele>
        <time>2011-04-30T09:07:31Z</time>
      </trkpt>
      <trkpt lat="48.43427" lon="2.01838">
        <ele>142</ele>
        <time>2011-04-30T09:07:32Z</time>
      </trkpt>
      <trkpt lat="48.4343" lon="2.01837">
        <ele>142</ele>
        <time>2011-04-30T09:07:33Z</time>
      </trkpt>
      <trkpt lat="48.43432" lon="2.01836">
        <ele>142</ele>
        <time>2011-04-30T09:07:34Z</time>
      </trkpt>
      <trkpt lat="48.43435" lon="2.01835">
        <ele>142</ele>
        <time>2011-04-30T09:07:35Z</time>
      </trkpt>
      <trkpt lat="48.43437" lon="2.01834">
        <ele>142</ele>
        <time>2011-04-30T09:07:36Z</time>
      </trkpt>
      <trkpt lat="48.43439" lon="2.01832">
        <ele>142</ele>
        <time>2011-04-30T09:07:37Z</time>
      </trkpt>
      <trkpt lat="48.43442" lon="2.01831">
        <ele>142</ele>
        <time>2011-04-30T09:07:38Z</time>
      </trkpt>
      <trkpt lat="48.43444" lon="2.0183">
        <ele>142</ele>
        <time>2011-04-30T09:07:39Z</time>
      </trkpt>
      <trkpt lat="48.43446" lon="2.01829">
        <ele>142</ele>
        <time>2011-04-30T09:07:40Z</time>
      </trkpt>
      <trkpt lat="48.43448" lon="2.01828">
        <ele>142</ele>
        <time>2011-04-30T09:07:41Z</time>
      </trkpt>
      <trkpt lat="48.43451" lon="2.01826">
        <ele>142</ele>
        <time>2011-04-30T09:07:42Z</time>
      </trkpt>
      <trkpt lat="48.43453" lon="2.01825">
        <ele>142</ele>
        <time>2011-04-30T09:07:43Z</time>
      </trkpt>
      <trkpt lat="48.43455" lon="2.01823">
        <ele>142</ele>
        <time>2011-04-30T09:07:44Z</time>
      </trkpt>
      <trkpt lat="48.43457" lon="2.01822">
        <ele>142</ele>
        <time>2011-04-30T09:07:45Z</time>
      </trkpt>
      <trkpt lat="48.43459" lon="2.0182">
        <ele>142</ele>
        <time>2011-04-30T09:07:46Z</time>
      </trkpt>
      <trkpt lat="48.43462" lon="2.01818">
        <ele>142</ele>
        <time>2011-04-30T09:07:47Z</time>
      </trkpt>
      <trkpt lat="48.43464" lon="2.01816">
        <ele>142</ele>
        <time>2011-04-30T09:07:48Z</time>
      </trkpt>
      <trkpt lat="48.43465" lon="2.01814">
        <ele>142</ele>
        <time>2011-04-30T09:07:49Z</time>
      </trkpt>
      <trkpt lat="48.43467" lon="2.01811">
        <ele>142</ele>
        <time>2011-04-30T09:07:50Z</time>
      </trkpt>
      <trkpt lat="48.43469" lon="2.01809">
        <ele>142</ele>
        <time>2011-04-30T09:07:51Z</time>
      </trkpt>
      <trkpt lat="48.4347" lon="2.01805">
        <ele>142</ele>
        <time>2011-04-30T09:07:52Z</time>
      </trkpt>
      <trkpt lat="48.43472" lon="2.01802">
        <ele>142</ele>
        <time>2011-04-30T09:07:53Z</time>
      </trkpt>
      <trkpt lat="48.43473" lon="2.01799">
        <ele>142</ele>
        <time>2011-04-30T09:07:54Z</time>
      </trkpt>
      <trkpt lat="48.43474" lon="2.01796">
        <ele>142</ele>
        <time>2011-04-30T09:07:55Z</time>
      </trkpt>
      <trkpt lat="48.43475" lon="2.01792">
        <ele>142</ele>
        <time>2011-04-30T09:07:56Z</time>
      </trkpt>
      <trkpt lat="48.43476" lon="2.01789">
        <ele>142</ele>
        <time>2011-04-30T09:07:57Z</time>
      </trkpt>
      <trkpt lat="48.43477" lon="2.01785">
        <ele>142</ele>
        <time>2011-04-30T09:07:58Z</time>
      </trkpt>
      <trkpt lat="48.43478" lon="2.01781">
        <ele>142</ele>
        <time>2011-04-30T09:07:59Z</time>
      </trkpt>
      <trkpt lat="48.43479" lon="2.01778">
        <ele>142</ele>
        <time>2011-04-30T09:08:00Z</time>
      </trkpt>
      <trkpt lat="48.4348" lon="2.01774">
        <ele>142</ele>
        <time>2011-04-30T09:08:01Z</time>
      </trkpt>
      <trkpt lat="48.43481" lon="2.01771">
        <ele>142</ele>
        <time>2011-04-30T09:08:02Z</time>
      </trkpt>
      <trkpt lat="48.43482" lon="2.01767">
        <ele>142</ele>
        <time>2011-04-30T09:08:03Z</time>
      </trkpt>
      <trkpt lat="48.43483" lon="2.01764">
        <ele>142</ele>
        <time>2011-04-30T09:08:04Z</time>
      </trkpt>
      <trkpt lat="48.43484" lon="2.0176">
        <ele>142</ele>
        <time>2011-04-30T09:08:05Z</time>
      </trkpt>
      <trkpt lat="48.43485" lon="2.01757">
        <ele>142</ele>
        <time>2011-04-30T09:08:06Z</time>
      </trkpt>
      <trkpt lat="48.43486" lon="2.01753">
        <ele>142</ele>
        <time>2011-04-30T09:08:07Z</time>
      </trkpt>
      <trkpt lat="48.43487" lon="2.0175">
        <ele>142</ele>
        <time>2011-04-30T09:08:08Z</time>
      </trkpt>
      <trkpt lat="48.43488" lon="2.01746">
        <ele>142</ele>
        <time>2011-04-30T09:08:09Z</time>
      </trkpt>
      <trkpt lat="48.43489" lon="2.01743">
        <ele>142</ele>
        <time>2011-04-30T09:08:10Z</time>
      </trkpt>
      <trkpt lat="48.4349" lon="2.01739">
        <ele>142</ele>
        <time>2011-04-30T09:08:11Z</time>
      </trkpt>
      <trkpt lat="48.43491" lon="2.01736">
        <ele>142</ele>
        <time>2011-04-30T09:08:12Z</time>
      </trkpt>
      <trkpt lat="48.43491" lon="2.01732">
        <ele>142</ele>
        <time>2011-04-30T09:08:13Z</time>
      </trkpt>
      <trkpt lat="48.43492" lon="2.01728">
        <ele>142</ele>
        <time>2011-04-30T09:08:14Z</time>
      </trkpt>
      <trkpt lat="48.43493" lon="2.01725">
        <ele>142</ele>
        <time>2011-04-30T09:08:15Z</time>
      </trkpt>
      <trkpt lat="48.43494" lon="2.01721">
        <ele>142</ele>
        <time>2011-04-30T09:08:16Z</time>
      </trkpt>
      <trkpt lat="48.43495" lon="2.01717">
        <ele>142</ele>
        <time>2011-04-30T09:08:17Z</time>
      </trkpt>
      <trkpt lat="48.43496" lon="2.01714">
        <ele>142</ele>
        <time>2011-04-30T09:08:18Z</time>
      </trkpt>
      <trkpt lat="48.43496" lon="2.0171">
        <ele>142</ele>
        <time>2011-04-30T09:08:19Z</time>
      </trkpt>
      <trkpt lat="48.43497" lon="2.01707">
        <ele>142</ele>
        <time>2011-04-30T09:08:20Z</time>
      </trkpt>
      <trkpt lat="48.43498" lon="2.01703">
        <ele>142</ele>
        <time>2011-04-30T09:08:21Z</time>
      </trkpt>
      <trkpt lat="48.43499" lon="2.01699">
        <ele>142</ele>
        <time>2011-04-30T09:08:22Z</time>
      </trkpt>
      <trkpt lat="48.43501" lon="2.01696">
        <ele>143</ele>
        <time>2011-04-30T09:08:23Z</time>
      </trkpt>
      <trkpt lat="48.43502" lon="2.01692">
        <ele>143</ele>
        <time>2011-04-30T09:08:24Z</time>
      </trkpt>
      <trkpt lat="48.43503" lon="2.01689">
        <ele>143</ele>
        <time>2011-04-30T09:08:25Z</time>
      </trkpt>
      <trkpt lat="48.43505" lon="2.01686">
        <ele>143</ele>
        <time>2011-04-30T09:08:26Z</time>
      </trkpt>
      <trkpt lat="48.43507" lon="2.01684">
        <ele>143</ele>
        <time>2011-04-30T09:08:27Z</time>
      </trkpt>
      <trkpt lat="48.43509" lon="2.01681">
        <ele>143</ele>
        <time>2011-04-30T09:08:28Z</time>
      </trkpt>
      <trkpt lat="48.4351" lon="2.01678">
        <ele>143</ele>
        <time>2011-04-30T09:08:29Z</time>
      </trkpt>
      <trkpt lat="48.43512" lon="2.01675">
        <ele>143</ele>
        <time>2011-04-30T09:08:30Z</time>
      </trkpt>
      <trkpt lat="48.43514" lon="2.01673">
        <ele>143</ele>
        <time>2011-04-30T09:08:31Z</time>
      </trkpt>
      <trkpt lat="48.43516" lon="2.01671">
        <ele>143</ele>
        <time>2011-04-30T09:08:32Z</time>
      </trkpt>
      <trkpt lat="48.43518" lon="2.01668">
        <ele>143</ele>
        <time>2011-04-30T09:08:33Z</time>
      </trkpt>
      <trkpt lat="48.4352" lon="2.01666">
        <ele>142</ele>
        <time>2011-04-30T09:08:34Z</time>
      </trkpt>
      <trkpt lat="48.43522" lon="2.01663">
        <ele>142</ele>
        <time>2011-04-30T09:08:35Z</time>
      </trkpt>
      <trkpt lat="48.43523" lon="2.01661">
        <ele>142</ele>
        <time>2011-04-30T09:08:36Z</time>
      </trkpt>
      <trkpt lat="48.43525" lon="2.01659">
        <ele>142</ele>
        <time>2011-04-30T09:08:37Z</time>
      </trkpt>
      <trkpt lat="48.43527" lon="2.01656">
        <ele>142</ele>
        <time>2011-04-30T09:08:38Z</time>
      </trkpt>
      <trkpt lat="48.43529" lon="2.01654">
        <ele>142</ele>
        <time>2011-04-30T09:08:39Z</time>
      </trkpt>
      <trkpt lat="48.43531" lon="2.01652">
        <ele>142</ele>
        <time>2011-04-30T09:08:40Z</time>
      </trkpt>
      <trkpt lat="48.43533" lon="2.0165">
        <ele>142</ele>
        <time>2011-04-30T09:08:41Z</time>
      </trkpt>
      <trkpt lat="48.43535" lon="2.01648">
        <ele>142</ele>
        <time>2011-04-30T09:08:42Z</time>
      </trkpt>
      <trkpt lat="48.43536" lon="2.01646">
        <ele>142</ele>
        <time>2011-04-30T09:08:43Z</time>
      </trkpt>
      <trkpt lat="48.43538" lon="2.01643">
        <ele>142</ele>
        <time>2011-04-30T09:08:44Z</time>
      </trkpt>
      <trkpt lat="48.4354" lon="2.01641">
        <ele>142</ele>
        <time>2011-04-30T09:08:45Z</time>
      </trkpt>
      <trkpt lat="48.43541" lon="2.01639">
        <ele>142</ele>
        <time>2011-04-30T09:08:46Z</time>
      </trkpt>
      <trkpt lat="48.43543" lon="2.01636">
        <ele>142</ele>
        <time>2011-04-30T09:08:47Z</time>
      </trkpt>
      <trkpt lat="48.43545" lon="2.01634">
        <ele>142</ele>
        <time>2011-04-30T09:08:48Z</time>
      </trkpt>
      <trkpt lat="48.43546" lon="2.01631">
        <ele>142</ele>
        <time>2011-04-30T09:08:49Z</time>
      </trkpt>
      <trkpt lat="48.43548" lon="2.01629">
        <ele>142</ele>
        <time>2011-04-30T09:08:50Z</time>
      </trkpt>
      <trkpt lat="48.43549" lon="2.01626">
        <ele>142</ele>
        <time>2011-04-30T09:08:51Z</time>
      </trkpt>
      <trkpt lat="48.43551" lon="2.01624">
        <ele>141</ele>
        <time>2011-04-30T09:08:52Z</time>
      </trkpt>
      <trkpt lat="48.43553" lon="2.01622">
        <ele>141</ele>
        <time>2011-04-30T09:08:53Z</time>
      </trkpt>
      <trkpt lat="48.43554" lon="2.01619">
        <ele>141</ele>
        <time>2011-04-30T09:08:54Z</time>
      </trkpt>
      <trkpt lat="48.43556" lon="2.01617">
        <ele>141</ele>
        <time>2011-04-30T09:08:55Z</time>
      </trkpt>
      <trkpt lat="48.43558" lon="2.01614">
        <ele>141</ele>
        <time>2011-04-30T09:08:56Z</time>
      </trkpt>
      <trkpt lat="48.4356" lon="2.01612">
        <ele>141</ele>
        <time>2011-04-30T09:08:57Z</time>
      </trkpt>
      <trkpt lat="48.43562" lon="2.01609">
        <ele>141</ele>
        <time>2011-04-30T09:08:58Z</time>
      </trkpt>
      <trkpt lat="48.43564" lon="2.01606">
        <ele>141</ele>
        <time>2011-04-30T09:08:59Z</time>
      </trkpt>
      <trkpt lat="48.43566" lon="2.01603">
        <ele>141</ele>
        <time>2011-04-30T09:09:00Z</time>
      </trkpt>
      <trkpt lat="48.43568" lon="2.01601">
        <ele>141</ele>
        <time>2011-04-30T09:09:01Z</time>
      </trkpt>
      <trkpt lat="48.43569" lon="2.01598">
        <ele>141</ele>
        <time>2011-04-30T09:09:02Z</time>
      </trkpt>
      <trkpt lat="48.43571" lon="2.01595">
        <ele>141</ele>
        <time>2011-04-30T09:09:03Z</time>
      </trkpt>
      <trkpt lat="48.43573" lon="2.01593">
        <ele>141</ele>
        <time>2011-04-30T09:09:04Z</time>
      </trkpt>
      <trkpt lat="48.43575" lon="2.0159">
        <ele>141</ele>
        <time>2011-04-30T09:09:05Z</time>
      </trkpt>
      <trkpt lat="48.43577" lon="2.01587">
        <ele>141</ele>
        <time>2011-04-30T09:09:06Z</time>
      </trkpt>
      <trkpt lat="48.43579" lon="2.01585">
        <ele>141</ele>
        <time>2011-04-30T09:09:07Z</time>
      </trkpt>
      <trkpt lat="48.4358" lon="2.01582">
        <ele>141</ele>
        <time>2011-04-30T09:09:08Z</time>
      </trkpt>
      <trkpt lat="48.43581" lon="2.01579">
        <ele>140</ele>
        <time>2011-04-30T09:09:09Z</time>
      </trkpt>
      <trkpt lat="48.43583" lon="2.01576">
        <ele>140</ele>
        <time>2011-04-30T09:09:10Z</time>
      </trkpt>
      <trkpt lat="48.43584" lon="2.01573">
        <ele>140</ele>
        <time>2011-04-30T09:09:11Z</time>
      </trkpt>
      <trkpt lat="48.43586" lon="2.01571">
        <ele>139</ele>
        <time>2011-04-30T09:09:12Z</time>
      </trkpt>
      <trkpt lat="48.43588" lon="2.01568">
        <ele>139</ele>
        <time>2011-04-30T09:09:13Z</time>
      </trkpt>
      <trkpt lat="48.43589" lon="2.01565">
        <ele>139</ele>
        <time>2011-04-30T09:09:14Z</time>
      </trkpt>
      <trkpt lat="48.43591" lon="2.01563">
        <ele>138</ele>
        <time>2011-04-30T09:09:15Z</time>
      </trkpt>
      <trkpt lat="48.43593" lon="2.0156">
        <ele>138</ele>
        <time>2011-04-30T09:09:16Z</time>
      </trkpt>
      <trkpt lat="48.43595" lon="2.01557">
        <ele>138</ele>
        <time>2011-04-30T09:09:17Z</time>
      </trkpt>
      <trkpt lat="48.43597" lon="2.01554">
        <ele>138</ele>
        <time>2011-04-30T09:09:18Z</time>
      </trkpt>
      <trkpt lat="48.43598" lon="2.01552">
        <ele>138</ele>
        <time>2011-04-30T09:09:19Z</time>
      </trkpt>
      <trkpt lat="48.436" lon="2.01549">
        <ele>137</ele>
        <time>2011-04-30T09:09:20Z</time>
      </trkpt>
      <trkpt lat="48.43602" lon="2.01546">
        <ele>137</ele>
        <time>2011-04-30T09:09:21Z</time>
      </trkpt>
      <trkpt lat="48.43604" lon="2.01544">
        <ele>137</ele>
        <time>2011-04-30T09:09:22Z</time>
      </trkpt>
      <trkpt lat="48.43606" lon="2.01542">
        <ele>137</ele>
        <time>2011-04-30T09:09:23Z</time>
      </trkpt>
      <trkpt lat="48.43609" lon="2.0154">
        <ele>137</ele>
        <time>2011-04-30T09:09:24Z</time>
      </trkpt>
      <trkpt lat="48.43611" lon="2.01538">
        <ele>137</ele>
        <time>2011-04-30T09:09:25Z</time>
      </trkpt>
      <trkpt lat="48.43612" lon="2.01536">
        <ele>137</ele>
        <time>2011-04-30T09:09:26Z</time>
      </trkpt>
      <trkpt lat="48.43614" lon="2.01534">
        <ele>137</ele>
        <time>2011-04-30T09:09:27Z</time>
      </trkpt>
      <trkpt lat="48.43616" lon="2.01532">
        <ele>137</ele>
        <time>2011-04-30T09:09:28Z</time>
      </trkpt>
      <trkpt lat="48.43619" lon="2.0153">
        <ele>136</ele>
        <time>2011-04-30T09:09:29Z</time>
      </trkpt>
      <trkpt lat="48.43621" lon="2.01529">
        <ele>136</ele>
        <time>2011-04-30T09:09:30Z</time>
      </trkpt>
      <trkpt lat="48.43623" lon="2.01527">
        <ele>136</ele>
        <time>2011-04-30T09:09:31Z</time>
      </trkpt>
      <trkpt lat="48.43625" lon="2.01526">
        <ele>136</ele>
        <time>2011-04-30T09:09:32Z</time>
      </trkpt>
      <trkpt lat="48.43627" lon="2.01524">
        <ele>136</ele>
        <time>2011-04-30T09:09:33Z</time>
      </trkpt>
      <trkpt lat="48.4363" lon="2.01523">
        <ele>136</ele>
        <time>2011-04-30T09:09:34Z</time>
      </trkpt>
      <trkpt lat="48.43632" lon="2.01522">
        <ele>136</ele>
        <time>2011-04-30T09:09:35Z</time>
      </trkpt>
      <trkpt lat="48.43634" lon="2.01521">
        <ele>136</ele>
        <time>2011-04-30T09:09:36Z</time>
      </trkpt>
      <trkpt lat="48.43636" lon="2.01519">
        <ele>136</ele>
        <time>2011-04-30T09:09:37Z</time>
      </trkpt>
      <trkpt lat="48.43639" lon="2.01518">
        <ele>136</ele>
        <time>2011-04-30T09:09:38Z</time>
      </trkpt>
      <trkpt lat="48.43641" lon="2.01517">
        <ele>136</ele>
        <time>2011-04-30T09:09:39Z</time>
      </trkpt>
      <trkpt lat="48.43643" lon="2.01516">
        <ele>136</ele>
        <time>2011-04-30T09:09:40Z</time>
      </trkpt>
      <trkpt lat="48.43645" lon="2.01515">
        <ele>135</ele>
        <time>2011-04-30T09:09:41Z</time>
      </trkpt>
      <trkpt lat="48.43648" lon="2.01514">
        <ele>135</ele>
        <time>2011-04-30T09:09:42Z</time>
      </trkpt>
      <trkpt lat="48.4365" lon="2.01513">
        <ele>135</ele>
        <time>2011-04-30T09:09:43Z</time>
      </trkpt>
      <trkpt lat="48.43652" lon="2.01512">
        <ele>135</ele>
        <time>2011-04-30T09:09:44Z</time>
      </trkpt>
      <trkpt lat="48.43655" lon="2.01511">
        <ele>135</ele>
        <time>2011-04-30T09:09:45Z</time>
      </trkpt>
      <trkpt lat="48.43657" lon="2.0151">
        <ele>135</ele>
        <time>2011-04-30T09:09:46Z</time>
      </trkpt>
      <trkpt lat="48.4366" lon="2.01508">
        <ele>134</ele>
        <time>2011-04-30T09:09:47Z</time>
      </trkpt>
      <trkpt lat="48.43662" lon="2.01508">
        <ele>134</ele>
        <time>2011-04-30T09:09:48Z</time>
      </trkpt>
      <trkpt lat="48.43665" lon="2.01507">
        <ele>134</ele>
        <time>2011-04-30T09:09:49Z</time>
      </trkpt>
      <trkpt lat="48.43667" lon="2.01506">
        <ele>133</ele>
        <time>2011-04-30T09:09:50Z</time>
      </trkpt>
      <trkpt lat="48.4367" lon="2.01505">
        <ele>133</ele>
        <time>2011-04-30T09:09:51Z</time>
      </trkpt>
      <trkpt lat="48.43672" lon="2.01504">
        <ele>133</ele>
        <time>2011-04-30T09:09:52Z</time>
      </trkpt>
      <trkpt lat="48.43675" lon="2.01503">
        <ele>133</ele>
        <time>2011-04-30T09:09:53Z</time>
      </trkpt>
      <trkpt lat="48.43677" lon="2.01502">
        <ele>134</ele>
        <time>2011-04-30T09:09:54Z</time>
      </trkpt>
      <trkpt lat="48.4368" lon="2.01502">
        <ele>134</ele>
        <time>2011-04-30T09:09:55Z</time>
      </trkpt>
      <trkpt lat="48.43682" lon="2.01501">
        <ele>134</ele>
        <time>2011-04-30T09:09:56Z</time>
      </trkpt>
      <trkpt lat="48.43685" lon="2.015">
        <ele>134</ele>
        <time>2011-04-30T09:09:57Z</time>
      </trkpt>
      <trkpt lat="48.43687" lon="2.01499">
        <ele>132</ele>
        <time>2011-04-30T09:09:58Z</time>
      </trkpt>
      <trkpt lat="48.43689" lon="2.01499">
        <ele>132</ele>
        <time>2011-04-30T09:09:59Z</time>
      </trkpt>
      <trkpt lat="48.43692" lon="2.01498">
        <ele>132</ele>
        <time>2011-04-30T09:10:00Z</time>
      </trkpt>
      <trkpt lat="48.43694" lon="2.01497">
        <ele>132</ele>
        <time>2011-04-30T09:10:01Z</time>
      </trkpt>
      <trkpt lat="48.43696" lon="2.01496">
        <ele>132</ele>
        <time>2011-04-30T09:10:02Z</time>
      </trkpt>
      <trkpt lat="48.43699" lon="2.01496">
        <ele>132</ele>
        <time>2011-04-30T09:10:03Z</time>
      </trkpt>
      <trkpt lat="48.43701" lon="2.01495">
        <ele>132</ele>
        <time>2011-04-30T09:10:04Z</time>
      </trkpt>
      <trkpt lat="48.43703" lon="2.01494">
        <ele>132</ele>
        <time>2011-04-30T09:10:05Z</time>
      </trkpt>
      <trkpt lat="48.43705" lon="2.01494">
        <ele>132</ele>
        <time>2011-04-30T09:10:06Z</time>
      </trkpt>
      <trkpt lat="48.43707" lon="2.01493">
        <ele>132</ele>
        <time>2011-04-30T09:10:07Z</time>
      </trkpt>
      <trkpt lat="48.4371" lon="2.01493">
        <ele>132</ele>
        <time>2011-04-30T09:10:08Z</time>
      </trkpt>
      <trkpt lat="48.43712" lon="2.01492">
        <ele>132</ele>
        <time>2011-04-30T09:10:09Z</time>
      </trkpt>
      <trkpt lat="48.43713" lon="2.01492">
        <ele>132</ele>
        <time>2011-04-30T09:10:10Z</time>
      </trkpt>
      <trkpt lat="48.43714" lon="2.01492">
        <ele>132</ele>
        <time>2011-04-30T09:10:11Z</time>
      </trkpt>
      <trkpt lat="48.43715" lon="2.01491">
        <ele>132</ele>
        <time>2011-04-30T09:10:12Z</time>
      </trkpt>
      <trkpt lat="48.43715" lon="2.01491">
        <ele>132</ele>
        <time>2011-04-30T09:10:13Z</time>
      </trkpt>
      <trkpt lat="48.43715" lon="2.01491">
        <ele>132</ele>
        <time>2011-04-30T09:10:14Z</time>
      </trkpt>
      <trkpt lat="48.43715" lon="2.01491">
        <ele>132</ele>
        <time>2011-04-30T09:10:15Z</time>
      </trkpt>
      <trkpt lat="48.43716" lon="2.01491">
        <ele>132</ele>
        <time>2011-04-30T09:10:16Z</time>
      </trkpt>
      <trkpt lat="48.43716" lon="2.01491">
        <ele>132</ele>
        <time>2011-04-30T09:10:17Z</time>
      </trkpt>
      <trkpt lat="48.43716" lon="2.01491">
        <ele>132</ele>
        <time>2011-04-30T09:10:18Z</time>
      </trkpt>
      <trkpt lat="48.43716" lon="2.01491">
        <ele>132</ele>
        <time>2011-04-30T09:10:19Z</time>
      </trkpt>
      <trkpt lat="48.43716" lon="2.01491">
        <ele>132</ele>
        <time>2011-04-30T09:10:20Z</time>
      </trkpt>
      <trkpt lat="48.43717" lon="2.01491">
        <ele>132</ele>
        <time>2011-04-30T09:10:21Z</time>
      </trkpt>
      <trkpt lat="48.43717" lon="2.01491">
        <ele>132</ele>
        <time>2011-04-30T09:10:22Z</time>
      </trkpt>
      <trkpt lat="48.43717" lon="2.01491">
        <ele>132</ele>
        <time>2011-04-30T09:10:23Z</time>
      </trkpt>
      <trkpt lat="48.43718" lon="2.01491">
        <ele>132</ele>
        <time>2011-04-30T09:10:24Z</time>
      </trkpt>
      <trkpt lat="48.43718" lon="2.0149">
        <ele>132</ele>
        <time>2011-04-30T09:10:25Z</time>
      </trkpt>
      <trkpt lat="48.43718" lon="2.0149">
        <ele>132</ele>
        <time>2011-04-30T09:10:26Z</time>
      </trkpt>
      <trkpt lat="48.43719" lon="2.01489">
        <ele>132</ele>
        <time>2011-04-30T09:10:27Z</time>
      </trkpt>
      <trkpt lat="48.43719" lon="2.01489">
        <ele>132</ele>
        <time>2011-04-30T09:10:28Z</time>
      </trkpt>
      <trkpt lat="48.4372" lon="2.01488">
        <ele>132</ele>
        <time>2011-04-30T09:10:29Z</time>
      </trkpt>
      <trkpt lat="48.4372" lon="2.01488">
        <ele>132</ele>
        <time>2011-04-30T09:10:30Z</time>
      </trkpt>
      <trkpt lat="48.4372" lon="2.01488">
        <ele>132</ele>
        <time>2011-04-30T09:10:31Z</time>
      </trkpt>
      <trkpt lat="48.4372" lon="2.01488">
        <ele>132</ele>
        <time>2011-04-30T09:10:32Z</time>
      </trkpt>
      <trkpt lat="48.4372" lon="2.01488">
        <ele>132</ele>
        <time>2011-04-30T09:10:33Z</time>
      </trkpt>
      <trkpt lat="48.4372" lon="2.01488">
        <ele>132</ele>
        <time>2011-04-30T09:10:34Z</time>
      </trkpt>
      <trkpt lat="48.4372" lon="2.01488">
        <ele>132</ele>
        <time>2011-04-30T09:10:35Z</time>
      </trkpt>
      <trkpt lat="48.4372" lon="2.01488">
        <ele>132</ele>
        <time>2011-04-30T09:10:36Z</time>
      </trkpt>
      <trkpt lat="48.4372" lon="2.01489">
        <ele>132</ele>
        <time>2011-04-30T09:10:37Z</time>
      </trkpt>
      <trkpt lat="48.4372" lon="2.01489">
        <ele>132</ele>
        <time>2011-04-30T09:10:38Z</time>
      </trkpt>
      <trkpt lat="48.4372" lon="2.01489">
        <ele>132</ele>
        <time>2011-04-30T09:10:39Z</time>
      </trkpt>
      <trkpt lat="48.43719" lon="2.01489">
        <ele>132</ele>
        <time>2011-04-30T09:10:40Z</time>
      </trkpt>
      <trkpt lat="48.43719" lon="2.01489">
        <ele>132</ele>
        <time>2011-04-30T09:10:41Z</time>
      </trkpt>
      <trkpt lat="48.43719" lon="2.01489">
        <ele>132</ele>
        <time>2011-04-30T09:10:42Z</time>
      </trkpt>
      <trkpt lat="48.43718" lon="2.01489">
        <ele>132</ele>
        <time>2011-04-30T09:10:43Z</time>
      </trkpt>
      <trkpt lat="48.43718" lon="2.01489">
        <ele>132</ele>
        <time>2011-04-30T09:10:44Z</time>
      </trkpt>
      <trkpt lat="48.43718" lon="2.01489">
        <ele>132</ele>
        <time>2011-04-30T09:10:45Z</time>
      </trkpt>
      <trkpt lat="48.43718" lon="2.01489">
        <ele>132</ele>
        <time>2011-04-30T09:10:46Z</time>
      </trkpt>
      <trkpt lat="48.43718" lon="2.01489">
        <ele>132</ele>
        <time>2011-04-30T09:10:47Z</time>
      </trkpt>
      <trkpt lat="48.43718" lon="2.01489">
        <ele>132</ele>
        <time>2011-04-30T09:10:48Z</time>
      </trkpt>
      <trkpt lat="48.43718" lon="2.01489">
        <ele>132</ele>
        <time>2011-04-30T09:10:49Z</time>
      </trkpt>
      <trkpt lat="48.43718" lon="2.01489">
        <ele>132</ele>
        <time>2011-04-30T09:10:50Z</time>
      </trkpt>
      <trkpt lat="48.43718" lon="2.01489">
        <ele>132</ele>
        <time>2011-04-30T09:10:51Z</time>
      </trkpt>
      <trkpt lat="48.43718" lon="2.01489">
        <ele>132</ele>
        <time>2011-04-30T09:10:52Z</time>
      </trkpt>
      <trkpt lat="48.43718" lon="2.01489">
        <ele>132</ele>
        <time>2011-04-30T09:10:53Z</time>
      </trkpt>
      <trkpt lat="48.43718" lon="2.01489">
        <ele>132</ele>
        <time>2011-04-30T09:10:54Z</time>
      </trkpt>
      <trkpt lat="48.43718" lon="2.01489">
        <ele>132</ele>
        <time>2011-04-30T09:10:55Z</time>
      </trkpt>
      <trkpt lat="48.43718" lon="2.01489">
        <ele>132</ele>
        <time>2011-04-30T09:10:56Z</time>
      </trkpt>
      <trkpt lat="48.43718" lon="2.0149">
        <ele>132</ele>
        <time>2011-04-30T09:10:57Z</time>
      </trkpt>
      <trkpt lat="48.43718" lon="2.0149">
        <ele>132</ele>
        <time>2011-04-30T09:10:58Z</time>
      </trkpt>
      <trkpt lat="48.43718" lon="2.0149">
        <ele>132</ele>
        <time>2011-04-30T09:10:59Z</time>
      </trkpt>
      <trkpt lat="48.43718" lon="2.0149">
        <ele>132</ele>
        <time>2011-04-30T09:11:00Z</time>
      </trkpt>
      <trkpt lat="48.43718" lon="2.0149">
        <ele>132</ele>
        <time>2011-04-30T09:11:01Z</time>
      </trkpt>
      <trkpt lat="48.43718" lon="2.0149">
        <ele>132</ele>
        <time>2011-04-30T09:11:02Z</time>
      </trkpt>
      <trkpt lat="48.43719" lon="2.0149">
        <ele>132</ele>
        <time>2011-04-30T09:11:03Z</time>
      </trkpt>
      <trkpt lat="48.43719" lon="2.0149">
        <ele>132</ele>
        <time>2011-04-30T09:11:04Z</time>
      </trkpt>
      <trkpt lat="48.43719" lon="2.01491">
        <ele>132</ele>
        <time>2011-04-30T09:11:05Z</time>
      </trkpt>
      <trkpt lat="48.43719" lon="2.01491">
        <ele>132</ele>
        <time>2011-04-30T09:11:06Z</time>
      </trkpt>
      <trkpt lat="48.43719" lon="2.01491">
        <ele>132</ele>
        <time>2011-04-30T09:11:07Z</time>
      </trkpt>
      <trkpt lat="48.43718" lon="2.01491">
        <ele>132</ele>
        <time>2011-04-30T09:11:08Z</time>
      </trkpt>
      <trkpt lat="48.43718" lon="2.01491">
        <ele>132</ele>
        <time>2011-04-30T09:11:09Z</time>
      </trkpt>
      <trkpt lat="48.43718" lon="2.01491">
        <ele>132</ele>
        <time>2011-04-30T09:11:10Z</time>
      </trkpt>
      <trkpt lat="48.43718" lon="2.01491">
        <ele>132</ele>
        <time>2011-04-30T09:11:11Z</time>
      </trkpt>
      <trkpt lat="48.43718" lon="2.01491">
        <ele>132</ele>
        <time>2011-04-30T09:11:12Z</time>
      </trkpt>
      <trkpt lat="48.43718" lon="2.01491">
        <ele>132</ele>
        <time>2011-04-30T09:11:13Z</time>
      </trkpt>
      <trkpt lat="48.43718" lon="2.01491">
        <ele>132</ele>
        <time>2011-04-30T09:11:14Z</time>
      </trkpt>
      <trkpt lat="48.43718" lon="2.0149">
        <ele>132</ele>
        <time>2011-04-30T09:11:15Z</time>
      </trkpt>
      <trkpt lat="48.43717" lon="2.0149">
        <ele>132</ele>
        <time>2011-04-30T09:11:16Z</time>
      </trkpt>
      <trkpt lat="48.43717" lon="2.01489">
        <ele>132</ele>
        <time>2011-04-30T09:11:17Z</time>
      </trkpt>
      <trkpt lat="48.43717" lon="2.01489">
        <ele>132</ele>
        <time>2011-04-30T09:11:18Z</time>
      </trkpt>
      <trkpt lat="48.43717" lon="2.01489">
        <ele>132</ele>
        <time>2011-04-30T09:11:19Z</time>
      </trkpt>
      <trkpt lat="48.43717" lon="2.01488">
        <ele>132</ele>
        <time>2011-04-30T09:11:20Z</time>
      </trkpt>
      <trkpt lat="48.43716" lon="2.01488">
        <ele>132</ele>
        <time>2011-04-30T09:11:21Z</time>
      </trkpt>
      <trkpt lat="48.43716" lon="2.01487">
        <ele>132</ele>
        <time>2011-04-30T09:11:22Z</time>
      </trkpt>
      <trkpt lat="48.43715" lon="2.01487">
        <ele>132</ele>
        <time>2011-04-30T09:11:23Z</time>
      </trkpt>
      <trkpt lat="48.43715" lon="2.01487">
        <ele>132</ele>
        <time>2011-04-30T09:11:24Z</time>
      </trkpt>
      <trkpt lat="48.43714" lon="2.01487">
        <ele>132</ele>
        <time>2011-04-30T09:11:25Z</time>
      </trkpt>
      <trkpt lat="48.43714" lon="2.01487">
        <ele>132</ele>
        <time>2011-04-30T09:11:26Z</time>
      </trkpt>
      <trkpt lat="48.43714" lon="2.01487">
        <ele>132</ele>
        <time>2011-04-30T09:11:27Z</time>
      </trkpt>
      <trkpt lat="48.43714" lon="2.01487">
        <ele>132</ele>
        <time>2011-04-30T09:11:28Z</time>
      </trkpt>
      <trkpt lat="48.43714" lon="2.01488">
        <ele>132</ele>
        <time>2011-04-30T09:11:29Z</time>
      </trkpt>
      <trkpt lat="48.43714" lon="2.01488">
        <ele>132</ele>
        <time>2011-04-30T09:11:30Z</time>
      </trkpt>
      <trkpt lat="48.43714" lon="2.01489">
        <ele>132</ele>
        <time>2011-04-30T09:11:31Z</time>
      </trkpt>
      <trkpt lat="48.43714" lon="2.01489">
        <ele>132</ele>
        <time>2011-04-30T09:11:32Z</time>
      </trkpt>
      <trkpt lat="48.43714" lon="2.01489">
        <ele>132</ele>
        <time>2011-04-30T09:11:33Z</time>
      </trkpt>
      <trkpt lat="48.43713" lon="2.01489">
        <ele>132</ele>
        <time>2011-04-30T09:11:34Z</time>
      </trkpt>
      <trkpt lat="48.43713" lon="2.0149">
        <ele>132</ele>
        <time>2011-04-30T09:11:35Z</time>
      </trkpt>
      <trkpt lat="48.43713" lon="2.0149">
        <ele>132</ele>
        <time>2011-04-30T09:11:36Z</time>
      </trkpt>
      <trkpt lat="48.43713" lon="2.0149">
        <ele>132</ele>
        <time>2011-04-30T09:11:37Z</time>
      </trkpt>
      <trkpt lat="48.43713" lon="2.01491">
        <ele>132</ele>
        <time>2011-04-30T09:11:38Z</time>
      </trkpt>
      <trkpt lat="48.43713" lon="2.01491">
        <ele>132</ele>
        <time>2011-04-30T09:11:39Z</time>
      </trkpt>
      <trkpt lat="48.43712" lon="2.01492">
        <ele>132</ele>
        <time>2011-04-30T09:11:40Z</time>
      </trkpt>
      <trkpt lat="48.43712" lon="2.01493">
        <ele>132</ele>
        <time>2011-04-30T09:11:41Z</time>
      </trkpt>
      <trkpt lat="48.43712" lon="2.01493">
        <ele>132</ele>
        <time>2011-04-30T09:11:42Z</time>
      </trkpt>
      <trkpt lat="48.43713" lon="2.01494">
        <ele>132</ele>
        <time>2011-04-30T09:11:43Z</time>
      </trkpt>
      <trkpt lat="48.43713" lon="2.01494">
        <ele>132</ele>
        <time>2011-04-30T09:11:44Z</time>
      </trkpt>
      <trkpt lat="48.43713" lon="2.01494">
        <ele>132</ele>
        <time>2011-04-30T09:11:45Z</time>
      </trkpt>
      <trkpt lat="48.43712" lon="2.01494">
        <ele>132</ele>
        <time>2011-04-30T09:11:46Z</time>
      </trkpt>
      <trkpt lat="48.43712" lon="2.01495">
        <ele>132</ele>
        <time>2011-04-30T09:11:47Z</time>
      </trkpt>
      <trkpt lat="48.43712" lon="2.01494">
        <ele>132</ele>
        <time>2011-04-30T09:11:48Z</time>
      </trkpt>
      <trkpt lat="48.43712" lon="2.01494">
        <ele>132</ele>
        <time>2011-04-30T09:11:49Z</time>
      </trkpt>
      <trkpt lat="48.43712" lon="2.01494">
        <ele>132</ele>
        <time>2011-04-30T09:11:50Z</time>
      </trkpt>
      <trkpt lat="48.43712" lon="2.01493">
        <ele>132</ele>
        <time>2011-04-30T09:11:51Z</time>
      </trkpt>
      <trkpt lat="48.43711" lon="2.01493">
        <ele>132</ele>
        <time>2011-04-30T09:11:52Z</time>
      </trkpt>
      <trkpt lat="48.43711" lon="2.01493">
        <ele>132</ele>
        <time>2011-04-30T09:11:53Z</time>
      </trkpt>
      <trkpt lat="48.43711" lon="2.01492">
        <ele>132</ele>
        <time>2011-04-30T09:11:54Z</time>
      </trkpt>
      <trkpt lat="48.43711" lon="2.01492">
        <ele>132</ele>
        <time>2011-04-30T09:11:55Z</time>
      </trkpt>
      <trkpt lat="48.43711" lon="2.01492">
        <ele>132</ele>
        <time>2011-04-30T09:11:56Z</time>
      </trkpt>
      <trkpt lat="48.4371" lon="2.01491">
        <ele>132</ele>
        <time>2011-04-30T09:11:57Z</time>
      </trkpt>
      <trkpt lat="48.4371" lon="2.01491">
        <ele>132</ele>
        <time>2011-04-30T09:11:58Z</time>
      </trkpt>
      <trkpt lat="48.4371" lon="2.01491">
        <ele>132</ele>
        <time>2011-04-30T09:11:59Z</time>
      </trkpt>
      <trkpt lat="48.4371" lon="2.01491">
        <ele>132</ele>
        <time>2011-04-30T09:12:00Z</time>
      </trkpt>
      <trkpt lat="48.4371" lon="2.01491">
        <ele>132</ele>
        <time>2011-04-30T09:12:01Z</time>
      </trkpt>
      <trkpt lat="48.4371" lon="2.0149">
        <ele>132</ele>
        <time>2011-04-30T09:12:02Z</time>
      </trkpt>
      <trkpt lat="48.4371" lon="2.0149">
        <ele>132</ele>
        <time>2011-04-30T09:12:03Z</time>
      </trkpt>
      <trkpt lat="48.4371" lon="2.0149">
        <ele>132</ele>
        <time>2011-04-30T09:12:04Z</time>
      </trkpt>
      <trkpt lat="48.43709" lon="2.0149">
        <ele>132</ele>
        <time>2011-04-30T09:12:05Z</time>
      </trkpt>
      <trkpt lat="48.43709" lon="2.0149">
        <ele>132</ele>
        <time>2011-04-30T09:12:06Z</time>
      </trkpt>
      <trkpt lat="48.43709" lon="2.0149">
        <ele>132</ele>
        <time>2011-04-30T09:12:07Z</time>
      </trkpt>
      <trkpt lat="48.43709" lon="2.0149">
        <ele>132</ele>
        <time>2011-04-30T09:12:08Z</time>
      </trkpt>
      <trkpt lat="48.4371" lon="2.0149">
        <ele>132</ele>
        <time>2011-04-30T09:12:09Z</time>
      </trkpt>
      <trkpt lat="48.4371" lon="2.0149">
        <ele>132</ele>
        <time>2011-04-30T09:12:10Z</time>
      </trkpt>
      <trkpt lat="48.4371" lon="2.0149">
        <ele>132</ele>
        <time>2011-04-30T09:12:11Z</time>
      </trkpt>
      <trkpt lat="48.4371" lon="2.0149">
        <ele>132</ele>
        <time>2011-04-30T09:12:12Z</time>
      </trkpt>
      <trkpt lat="48.4371" lon="2.0149">
        <ele>132</ele>
        <time>2011-04-30T09:12:13Z</time>
      </trkpt>
      <trkpt lat="48.4371" lon="2.0149">
        <ele>132</ele>
        <time>2011-04-30T09:12:14Z</time>
      </trkpt>
      <trkpt lat="48.4371" lon="2.0149">
        <ele>132</ele>
        <time>2011-04-30T09:12:15Z</time>
      </trkpt>
      <trkpt lat="48.4371" lon="2.0149">
        <ele>132</ele>
        <time>2011-04-30T09:12:16Z</time>
      </trkpt>
      <trkpt lat="48.4371" lon="2.01491">
        <ele>132</ele>
        <time>2011-04-30T09:12:17Z</time>
      </trkpt>
      <trkpt lat="48.4371" lon="2.01491">
        <ele>132</ele>
        <time>2011-04-30T09:12:18Z</time>
      </trkpt>
      <trkpt lat="48.4371" lon="2.01491">
        <ele>132</ele>
        <time>2011-04-30T09:12:19Z</time>
      </trkpt>
      <trkpt lat="48.4371" lon="2.01492">
        <ele>132</ele>
        <time>2011-04-30T09:12:20Z</time>
      </trkpt>
      <trkpt lat="48.4371" lon="2.01492">
        <ele>132</ele>
        <time>2011-04-30T09:12:21Z</time>
      </trkpt>
      <trkpt lat="48.4371" lon="2.01493">
        <ele>132</ele>
        <time>2011-04-30T09:12:22Z</time>
      </trkpt>
      <trkpt lat="48.43711" lon="2.01493">
        <ele>132</ele>
        <time>2011-04-30T09:12:23Z</time>
      </trkpt>
      <trkpt lat="48.43711" lon="2.01494">
        <ele>132</ele>
        <time>2011-04-30T09:12:24Z</time>
      </trkpt>
      <trkpt lat="48.43711" lon="2.01494">
        <ele>132</ele>
        <time>2011-04-30T09:12:25Z</time>
      </trkpt>
      <trkpt lat="48.43711" lon="2.01494">
        <ele>132</ele>
        <time>2011-04-30T09:12:26Z</time>
      </trkpt>
      <trkpt lat="48.43711" lon="2.01494">
        <ele>132</ele>
        <time>2011-04-30T09:12:27Z</time>
      </trkpt>
      <trkpt lat="48.43711" lon="2.01495">
        <ele>132</ele>
        <time>2011-04-30T09:12:28Z</time>
      </trkpt>
      <trkpt lat="48.43711" lon="2.01495">
        <ele>132</ele>
        <time>2011-04-30T09:12:29Z</time>
      </trkpt>
      <trkpt lat="48.43711" lon="2.01495">
        <ele>132</ele>
        <time>2011-04-30T09:12:30Z</time>
      </trkpt>
      <trkpt lat="48.43711" lon="2.01496">
        <ele>132</ele>
        <time>2011-04-30T09:12:31Z</time>
      </trkpt>
      <trkpt lat="48.43711" lon="2.01497">
        <ele>132</ele>
        <time>2011-04-30T09:12:32Z</time>
      </trkpt>
      <trkpt lat="48.43712" lon="2.01497">
        <ele>132</ele>
        <time>2011-04-30T09:12:33Z</time>
      </trkpt>
      <trkpt lat="48.43712" lon="2.01498">
        <ele>132</ele>
        <time>2011-04-30T09:12:34Z</time>
      </trkpt>
      <trkpt lat="48.43712" lon="2.01499">
        <ele>132</ele>
        <time>2011-04-30T09:12:35Z</time>
      </trkpt>
      <trkpt lat="48.43712" lon="2.01499">
        <ele>132</ele>
        <time>2011-04-30T09:12:36Z</time>
      </trkpt>
      <trkpt lat="48.43712" lon="2.01499">
        <ele>132</ele>
        <time>2011-04-30T09:12:37Z</time>
      </trkpt>
      <trkpt lat="48.43712" lon="2.015">
        <ele>132</ele>
        <time>2011-04-30T09:12:38Z</time>
      </trkpt>
      <trkpt lat="48.43711" lon="2.015">
        <ele>132</ele>
        <time>2011-04-30T09:12:39Z</time>
      </trkpt>
      <trkpt lat="48.43711" lon="2.015">
        <ele>132</ele>
        <time>2011-04-30T09:12:40Z</time>
      </trkpt>
      <trkpt lat="48.43711" lon="2.01499">
        <ele>132</ele>
        <time>2011-04-30T09:12:41Z</time>
      </trkpt>
      <trkpt lat="48.43711" lon="2.01499">
        <ele>132</ele>
        <time>2011-04-30T09:12:42Z</time>
      </trkpt>
      <trkpt lat="48.43711" lon="2.01499">
        <ele>132</ele>
        <time>2011-04-30T09:12:43Z</time>
      </trkpt>
      <trkpt lat="48.43711" lon="2.01499">
        <ele>132</ele>
        <time>2011-04-30T09:12:44Z</time>
      </trkpt>
      <trkpt lat="48.43711" lon="2.01498">
        <ele>132</ele>
        <time>2011-04-30T09:12:45Z</time>
      </trkpt>
      <trkpt lat="48.4371" lon="2.01498">
        <ele>132</ele>
        <time>2011-04-30T09:12:46Z</time>
      </trkpt>
      <trkpt lat="48.4371" lon="2.01498">
        <ele>132</ele>
        <time>2011-04-30T09:12:47Z</time>
      </trkpt>
      <trkpt lat="48.4371" lon="2.01497">
        <ele>132</ele>
        <time>2011-04-30T09:12:48Z</time>
      </trkpt>
      <trkpt lat="48.4371" lon="2.01497">
        <ele>132</ele>
        <time>2011-04-30T09:12:49Z</time>
      </trkpt>
      <trkpt lat="48.4371" lon="2.01497">
        <ele>132</ele>
        <time>2011-04-30T09:12:50Z</time>
      </trkpt>
      <trkpt lat="48.4371" lon="2.01497">
        <ele>132</ele>
        <time>2011-04-30T09:12:51Z</time>
      </trkpt>
      <trkpt lat="48.4371" lon="2.01497">
        <ele>132</ele>
        <time>2011-04-30T09:12:52Z</time>
      </trkpt>
      <trkpt lat="48.4371" lon="2.01497">
        <ele>132</ele>
        <time>2011-04-30T09:12:53Z</time>
      </trkpt>
      <trkpt lat="48.4371" lon="2.01497">
        <ele>132</ele>
        <time>2011-04-30T09:12:54Z</time>
      </trkpt>
      <trkpt lat="48.4371" lon="2.01497">
        <ele>132</ele>
        <time>2011-04-30T09:12:55Z</time>
      </trkpt>
      <trkpt lat="48.4371" lon="2.01497">
        <ele>132</ele>
        <time>2011-04-30T09:12:56Z</time>
      </trkpt>
      <trkpt lat="48.4371" lon="2.01497">
        <ele>132</ele>
        <time>2011-04-30T09:12:57Z</time>
      </trkpt>
      <trkpt lat="48.4371" lon="2.01497">
        <ele>132</ele>
        <time>2011-04-30T09:12:58Z</time>
      </trkpt>
      <trkpt lat="48.4371" lon="2.01497">
        <ele>132</ele>
        <time>2011-04-30T09:12:59Z</time>
      </trkpt>
      <trkpt lat="48.43709" lon="2.01497">
        <ele>132</ele>
        <time>2011-04-30T09:13:00Z</time>
      </trkpt>
      <trkpt lat="48.43709" lon="2.01497">
        <ele>132</ele>
        <time>2011-04-30T09:13:01Z</time>
      </trkpt>
      <trkpt lat="48.43709" lon="2.01497">
        <ele>132</ele>
        <time>2011-04-30T09:13:02Z</time>
      </trkpt>
      <trkpt lat="48.43709" lon="2.01497">
        <ele>132</ele>
        <time>2011-04-30T09:13:03Z</time>
      </trkpt>
      <trkpt lat="48.43709" lon="2.01497">
        <ele>132</ele>
        <time>2011-04-30T09:13:04Z</time>
      </trkpt>
      <trkpt lat="48.43709" lon="2.01497">
        <ele>132</ele>
        <time>2011-04-30T09:13:05Z</time>
      </trkpt>
      <trkpt lat="48.43709" lon="2.01497">
        <ele>132</ele>
        <time>2011-04-30T09:13:06Z</time>
      </trkpt>
      <trkpt lat="48.43709" lon="2.01497">
        <ele>132</ele>
        <time>2011-04-30T09:13:07Z</time>
      </trkpt>
      <trkpt lat="48.43708" lon="2.01497">
        <ele>132</ele>
        <time>2011-04-30T09:13:08Z</time>
      </trkpt>
      <trkpt lat="48.43708" lon="2.01497">
        <ele>132</ele>
        <time>2011-04-30T09:13:09Z</time>
      </trkpt>
      <trkpt lat="48.43708" lon="2.01496">
        <ele>132</ele>
        <time>2011-04-30T09:13:10Z</time>
      </trkpt>
      <trkpt lat="48.43708" lon="2.01496">
        <ele>132</ele>
        <time>2011-04-30T09:13:11Z</time>
      </trkpt>
      <trkpt lat="48.43708" lon="2.01496">
        <ele>132</ele>
        <time>2011-04-30T09:13:12Z</time>
      </trkpt>
      <trkpt lat="48.43708" lon="2.01496">
        <ele>132</ele>
        <time>2011-04-30T09:13:13Z</time>
      </trkpt>
      <trkpt lat="48.43708" lon="2.01496">
        <ele>132</ele>
        <time>2011-04-30T09:13:14Z</time>
      </trkpt>
      <trkpt lat="48.43708" lon="2.01496">
        <ele>132</ele>
        <time>2011-04-30T09:13:15Z</time>
      </trkpt>
      <trkpt lat="48.43708" lon="2.01496">
        <ele>132</ele>
        <time>2011-04-30T09:13:16Z</time>
      </trkpt>
      <trkpt lat="48.43708" lon="2.01496">
        <ele>132</ele>
        <time>2011-04-30T09:13:17Z</time>
      </trkpt>
      <trkpt lat="48.43708" lon="2.01496">
        <ele>132</ele>
        <time>2011-04-30T09:13:18Z</time>
      </trkpt>
      <trkpt lat="48.43708" lon="2.01495">
        <ele>132</ele>
        <time>2011-04-30T09:13:19Z</time>
      </trkpt>
      <trkpt lat="48.43708" lon="2.01495">
        <ele>132</ele>
        <time>2011-04-30T09:13:20Z</time>
      </trkpt>
      <trkpt lat="48.43707" lon="2.01495">
        <ele>132</ele>
        <time>2011-04-30T09:13:21Z</time>
      </trkpt>
      <trkpt lat="48.43707" lon="2.01495">
        <ele>132</ele>
        <time>2011-04-30T09:13:22Z</time>
      </trkpt>
      <trkpt lat="48.43707" lon="2.01494">
        <ele>132</ele>
        <time>2011-04-30T09:13:23Z</time>
      </trkpt>
      <trkpt lat="48.43707" lon="2.01494">
        <ele>132</ele>
        <time>2011-04-30T09:13:24Z</time>
      </trkpt>
      <trkpt lat="48.43707" lon="2.01493">
        <ele>132</ele>
        <time>2011-04-30T09:13:25Z</time>
      </trkpt>
      <trkpt lat="48.43706" lon="2.01493">
        <ele>132</ele>
        <time>2011-04-30T09:13:26Z</time>
      </trkpt>
      <trkpt lat="48.43706" lon="2.01492">
        <ele>132</ele>
        <time>2011-04-30T09:13:27Z</time>
      </trkpt>
      <trkpt lat="48.43706" lon="2.01492">
        <ele>132</ele>
        <time>2011-04-30T09:13:28Z</time>
      </trkpt>
      <trkpt lat="48.43706" lon="2.01491">
        <ele>132</ele>
        <time>2011-04-30T09:13:29Z</time>
      </trkpt>
      <trkpt lat="48.43706" lon="2.01491">
        <ele>132</ele>
        <time>2011-04-30T09:13:30Z</time>
      </trkpt>
      <trkpt lat="48.43706" lon="2.0149">
        <ele>132</ele>
        <time>2011-04-30T09:13:31Z</time>
      </trkpt>
      <trkpt lat="48.43706" lon="2.0149">
        <ele>132</ele>
        <time>2011-04-30T09:13:32Z</time>
      </trkpt>
      <trkpt lat="48.43706" lon="2.0149">
        <ele>132</ele>
        <time>2011-04-30T09:13:33Z</time>
      </trkpt>
      <trkpt lat="48.43707" lon="2.01489">
        <ele>132</ele>
        <time>2011-04-30T09:13:34Z</time>
      </trkpt>
      <trkpt lat="48.43707" lon="2.01489">
        <ele>132</ele>
        <time>2011-04-30T09:13:35Z</time>
      </trkpt>
      <trkpt lat="48.43708" lon="2.01489">
        <ele>132</ele>
        <time>2011-04-30T09:13:36Z</time>
      </trkpt>
      <trkpt lat="48.43708" lon="2.01488">
        <ele>132</ele>
        <time>2011-04-30T09:13:37Z</time>
      </trkpt>
      <trkpt lat="48.43709" lon="2.01488">
        <ele>132</ele>
        <time>2011-04-30T09:13:38Z</time>
      </trkpt>
      <trkpt lat="48.4371" lon="2.01487">
        <ele>132</ele>
        <time>2011-04-30T09:13:39Z</time>
      </trkpt>
      <trkpt lat="48.43711" lon="2.01487">
        <ele>132</ele>
        <time>2011-04-30T09:13:40Z</time>
      </trkpt>
      <trkpt lat="48.43711" lon="2.01486">
        <ele>132</ele>
        <time>2011-04-30T09:13:41Z</time>
      </trkpt>
      <trkpt lat="48.43711" lon="2.01486">
        <ele>132</ele>
        <time>2011-04-30T09:13:42Z</time>
      </trkpt>
      <trkpt lat="48.43711" lon="2.01486">
        <ele>132</ele>
        <time>2011-04-30T09:13:43Z</time>
      </trkpt>
      <trkpt lat="48.4371" lon="2.01485">
        <ele>132</ele>
        <time>2011-04-30T09:13:44Z</time>
      </trkpt>
      <trkpt lat="48.4371" lon="2.01485">
        <ele>132</ele>
        <time>2011-04-30T09:13:45Z</time>
      </trkpt>
      <trkpt lat="48.43709" lon="2.01485">
        <ele>132</ele>
        <time>2011-04-30T09:13:46Z</time>
      </trkpt>
      <trkpt lat="48.43708" lon="2.01486">
        <ele>132</ele>
        <time>2011-04-30T09:13:47Z</time>
      </trkpt>
      <trkpt lat="48.43708" lon="2.01486">
        <ele>132</ele>
        <time>2011-04-30T09:13:48Z</time>
      </trkpt>
      <trkpt lat="48.43708" lon="2.01487">
        <ele>132</ele>
        <time>2011-04-30T09:13:49Z</time>
      </trkpt>
      <trkpt lat="48.43708" lon="2.01487">
        <ele>132</ele>
        <time>2011-04-30T09:13:50Z</time>
      </trkpt>
      <trkpt lat="48.43708" lon="2.01488">
        <ele>132</ele>
        <time>2011-04-30T09:13:51Z</time>
      </trkpt>
      <trkpt lat="48.43709" lon="2.01488">
        <ele>132</ele>
        <time>2011-04-30T09:13:52Z</time>
      </trkpt>
      <trkpt lat="48.4371" lon="2.01489">
        <ele>132</ele>
        <time>2011-04-30T09:13:53Z</time>
      </trkpt>
      <trkpt lat="48.4371" lon="2.0149">
        <ele>132</ele>
        <time>2011-04-30T09:13:54Z</time>
      </trkpt>
      <trkpt lat="48.43711" lon="2.0149">
        <ele>132</ele>
        <time>2011-04-30T09:13:55Z</time>
      </trkpt>
      <trkpt lat="48.43711" lon="2.01491">
        <ele>132</ele>
        <time>2011-04-30T09:13:56Z</time>
      </trkpt>
      <trkpt lat="48.43712" lon="2.01492">
        <ele>132</ele>
        <time>2011-04-30T09:13:57Z</time>
      </trkpt>
      <trkpt lat="48.43713" lon="2.01493">
        <ele>132</ele>
        <time>2011-04-30T09:13:58Z</time>
      </trkpt>
      <trkpt lat="48.43713" lon="2.01494">
        <ele>132</ele>
        <time>2011-04-30T09:13:59Z</time>
      </trkpt>
      <trkpt lat="48.43713" lon="2.01495">
        <ele>132</ele>
        <time>2011-04-30T09:14:00Z</time>
      </trkpt>
      <trkpt lat="48.43714" lon="2.01495">
        <ele>132</ele>
        <time>2011-04-30T09:14:01Z</time>
      </trkpt>
      <trkpt lat="48.43714" lon="2.01496">
        <ele>132</ele>
        <time>2011-04-30T09:14:02Z</time>
      </trkpt>
      <trkpt lat="48.43715" lon="2.01496">
        <ele>132</ele>
        <time>2011-04-30T09:14:03Z</time>
      </trkpt>
      <trkpt lat="48.43715" lon="2.01496">
        <ele>132</ele>
        <time>2011-04-30T09:14:04Z</time>
      </trkpt>
      <trkpt lat="48.43716" lon="2.01495">
        <ele>132</ele>
        <time>2011-04-30T09:14:05Z</time>
      </trkpt>
      <trkpt lat="48.43716" lon="2.01494">
        <ele>132</ele>
        <time>2011-04-30T09:14:06Z</time>
      </trkpt>
      <trkpt lat="48.43718" lon="2.01493">
        <ele>132</ele>
        <time>2011-04-30T09:14:07Z</time>
      </trkpt>
      <trkpt lat="48.43719" lon="2.01492">
        <ele>132</ele>
        <time>2011-04-30T09:14:08Z</time>
      </trkpt>
      <trkpt lat="48.43721" lon="2.01491">
        <ele>132</ele>
        <time>2011-04-30T09:14:09Z</time>
      </trkpt>
      <trkpt lat="48.43724" lon="2.01491">
        <ele>132</ele>
        <time>2011-04-30T09:14:10Z</time>
      </trkpt>
      <trkpt lat="48.43726" lon="2.01491">
        <ele>132</ele>
        <time>2011-04-30T09:14:11Z</time>
      </trkpt>
      <trkpt lat="48.43728" lon="2.01491">
        <ele>132</ele>
        <time>2011-04-30T09:14:12Z</time>
      </trkpt>
      <trkpt lat="48.4373" lon="2.0149">
        <ele>132</ele>
        <time>2011-04-30T09:14:13Z</time>
      </trkpt>
      <trkpt lat="48.43732" lon="2.0149">
        <ele>132</ele>
        <time>2011-04-30T09:14:14Z</time>
      </trkpt>
      <trkpt lat="48.43734" lon="2.0149">
        <ele>132</ele>
        <time>2011-04-30T09:14:15Z</time>
      </trkpt>
      <trkpt lat="48.43736" lon="2.0149">
        <ele>131</ele>
        <time>2011-04-30T09:14:16Z</time>
      </trkpt>
      <trkpt lat="48.43738" lon="2.0149">
        <ele>131</ele>
        <time>2011-04-30T09:14:17Z</time>
      </trkpt>
      <trkpt lat="48.43741" lon="2.0149">
        <ele>131</ele>
        <time>2011-04-30T09:14:18Z</time>
      </trkpt>
      <trkpt lat="48.43743" lon="2.0149">
        <ele>131</ele>
        <time>2011-04-30T09:14:19Z</time>
      </trkpt>
      <trkpt lat="48.43745" lon="2.0149">
        <ele>131</ele>
        <time>2011-04-30T09:14:20Z</time>
      </trkpt>
      <trkpt lat="48.43747" lon="2.0149">
        <ele>131</ele>
        <time>2011-04-30T09:14:21Z</time>
      </trkpt>
      <trkpt lat="48.43749" lon="2.0149">
        <ele>131</ele>
        <time>2011-04-30T09:14:22Z</time>
      </trkpt>
      <trkpt lat="48.43751" lon="2.0149">
        <ele>130</ele>
        <time>2011-04-30T09:14:23Z</time>
      </trkpt>
      <trkpt lat="48.43754" lon="2.0149">
        <ele>130</ele>
        <time>2011-04-30T09:14:24Z</time>
      </trkpt>
      <trkpt lat="48.43756" lon="2.0149">
        <ele>130</ele>
        <time>2011-04-30T09:14:25Z</time>
      </trkpt>
      <trkpt lat="48.43758" lon="2.01489">
        <ele>130</ele>
        <time>2011-04-30T09:14:26Z</time>
      </trkpt>
      <trkpt lat="48.4376" lon="2.01489">
        <ele>130</ele>
        <time>2011-04-30T09:14:27Z</time>
      </trkpt>
      <trkpt lat="48.43763" lon="2.01489">
        <ele>130</ele>
        <time>2011-04-30T09:14:28Z</time>
      </trkpt>
      <trkpt lat="48.43765" lon="2.01488">
        <ele>130</ele>
        <time>2011-04-30T09:14:29Z</time>
      </trkpt>
      <trkpt lat="48.43767" lon="2.01488">
        <ele>130</ele>
        <time>2011-04-30T09:14:30Z</time>
      </trkpt>
      <trkpt lat="48.4377" lon="2.01487">
        <ele>130</ele>
        <time>2011-04-30T09:14:31Z</time>
      </trkpt>
      <trkpt lat="48.43772" lon="2.01487">
        <ele>130</ele>
        <time>2011-04-30T09:14:32Z</time>
      </trkpt>
      <trkpt lat="48.43774" lon="2.01486">
        <ele>130</ele>
        <time>2011-04-30T09:14:33Z</time>
      </trkpt>
      <trkpt lat="48.43776" lon="2.01486">
        <ele>130</ele>
        <time>2011-04-30T09:14:34Z</time>
      </trkpt>
      <trkpt lat="48.43779" lon="2.01487">
        <ele>129</ele>
        <time>2011-04-30T09:14:35Z</time>
      </trkpt>
      <trkpt lat="48.43781" lon="2.01487">
        <ele>129</ele>
        <time>2011-04-30T09:14:36Z</time>
      </trkpt>
      <trkpt lat="48.43783" lon="2.01487">
        <ele>129</ele>
        <time>2011-04-30T09:14:37Z</time>
      </trkpt>
      <trkpt lat="48.43786" lon="2.01487">
        <ele>129</ele>
        <time>2011-04-30T09:14:38Z</time>
      </trkpt>
      <trkpt lat="48.43788" lon="2.01486">
        <ele>129</ele>
        <time>2011-04-30T09:14:39Z</time>
      </trkpt>
      <trkpt lat="48.43791" lon="2.01486">
        <ele>129</ele>
        <time>2011-04-30T09:14:40Z</time>
      </trkpt>
      <trkpt lat="48.43793" lon="2.01486">
        <ele>129</ele>
        <time>2011-04-30T09:14:41Z</time>
      </trkpt>
      <trkpt lat="48.43796" lon="2.01485">
        <ele>129</ele>
        <time>2011-04-30T09:14:42Z</time>
      </trkpt>
      <trkpt lat="48.43798" lon="2.01485">
        <ele>129</ele>
        <time>2011-04-30T09:14:43Z</time>
      </trkpt>
      <trkpt lat="48.438" lon="2.01485">
        <ele>129</ele>
        <time>2011-04-30T09:14:44Z</time>
      </trkpt>
      <trkpt lat="48.43803" lon="2.01484">
        <ele>129</ele>
        <time>2011-04-30T09:14:45Z</time>
      </trkpt>
      <trkpt lat="48.43805" lon="2.01483">
        <ele>129</ele>
        <time>2011-04-30T09:14:46Z</time>
      </trkpt>
      <trkpt lat="48.43808" lon="2.01483">
        <ele>129</ele>
        <time>2011-04-30T09:14:47Z</time>
      </trkpt>
      <trkpt lat="48.4381" lon="2.01482">
        <ele>128</ele>
        <time>2011-04-30T09:14:48Z</time>
      </trkpt>
      <trkpt lat="48.43812" lon="2.01481">
        <ele>128</ele>
        <time>2011-04-30T09:14:49Z</time>
      </trkpt>
      <trkpt lat="48.43815" lon="2.0148">
        <ele>128</ele>
        <time>2011-04-30T09:14:50Z</time>
      </trkpt>
      <trkpt lat="48.43817" lon="2.01479">
        <ele>128</ele>
        <time>2011-04-30T09:14:51Z</time>
      </trkpt>
      <trkpt lat="48.43819" lon="2.01478">
        <ele>128</ele>
        <time>2011-04-30T09:14:52Z</time>
      </trkpt>
      <trkpt lat="48.43822" lon="2.01477">
        <ele>128</ele>
        <time>2011-04-30T09:14:53Z</time>
      </trkpt>
      <trkpt lat="48.43824" lon="2.01476">
        <ele>128</ele>
        <time>2011-04-30T09:14:54Z</time>
      </trkpt>
      <trkpt lat="48.43826" lon="2.01474">
        <ele>128</ele>
        <time>2011-04-30T09:14:55Z</time>
      </trkpt>
      <trkpt lat="48.43827" lon="2.01471">
        <ele>128</ele>
        <time>2011-04-30T09:14:56Z</time>
      </trkpt>
      <trkpt lat="48.43829" lon="2.01469">
        <ele>128</ele>
        <time>2011-04-30T09:14:57Z</time>
      </trkpt>
      <trkpt lat="48.4383" lon="2.01466">
        <ele>128</ele>
        <time>2011-04-30T09:14:58Z</time>
      </trkpt>
      <trkpt lat="48.43831" lon="2.01463">
        <ele>128</ele>
        <time>2011-04-30T09:14:59Z</time>
      </trkpt>
      <trkpt lat="48.43831" lon="2.0146">
        <ele>128</ele>
        <time>2011-04-30T09:15:00Z</time>
      </trkpt>
      <trkpt lat="48.43832" lon="2.01456">
        <ele>128</ele>
        <time>2011-04-30T09:15:01Z</time>
      </trkpt>
      <trkpt lat="48.43832" lon="2.01453">
        <ele>128</ele>
        <time>2011-04-30T09:15:02Z</time>
      </trkpt>
      <trkpt lat="48.43832" lon="2.01449">
        <ele>128</ele>
        <time>2011-04-30T09:15:03Z</time>
      </trkpt>
      <trkpt lat="48.43833" lon="2.01446">
        <ele>128</ele>
        <time>2011-04-30T09:15:04Z</time>
      </trkpt>
      <trkpt lat="48.43833" lon="2.01442">
        <ele>128</ele>
        <time>2011-04-30T09:15:05Z</time>
      </trkpt>
      <trkpt lat="48.43834" lon="2.01439">
        <ele>129</ele>
        <time>2011-04-30T09:15:06Z</time>
      </trkpt>
      <trkpt lat="48.43834" lon="2.01435">
        <ele>129</ele>
        <time>2011-04-30T09:15:07Z</time>
      </trkpt>
      <trkpt lat="48.43834" lon="2.01432">
        <ele>128</ele>
        <time>2011-04-30T09:15:08Z</time>
      </trkpt>
      <trkpt lat="48.43835" lon="2.01428">
        <ele>128</ele>
        <time>2011-04-30T09:15:09Z</time>
      </trkpt>
      <trkpt lat="48.43835" lon="2.01425">
        <ele>128</ele>
        <time>2011-04-30T09:15:10Z</time>
      </trkpt>
      <trkpt lat="48.43836" lon="2.01421">
        <ele>128</ele>
        <time>2011-04-30T09:15:11Z</time>
      </trkpt>
      <trkpt lat="48.43836" lon="2.01418">
        <ele>127</ele>
        <time>2011-04-30T09:15:12Z</time>
      </trkpt>
      <trkpt lat="48.43837" lon="2.01414">
        <ele>128</ele>
        <time>2011-04-30T09:15:13Z</time>
      </trkpt>
      <trkpt lat="48.43837" lon="2.01411">
        <ele>128</ele>
        <time>2011-04-30T09:15:14Z</time>
      </trkpt>
      <trkpt lat="48.43837" lon="2.01407">
        <ele>129</ele>
        <time>2011-04-30T09:15:15Z</time>
      </trkpt>
      <trkpt lat="48.43838" lon="2.01404">
        <ele>129</ele>
        <time>2011-04-30T09:15:16Z</time>
      </trkpt>
      <trkpt lat="48.43838" lon="2.014">
        <ele>130</ele>
        <time>2011-04-30T09:15:17Z</time>
      </trkpt>
      <trkpt lat="48.43838" lon="2.01397">
        <ele>130</ele>
        <time>2011-04-30T09:15:18Z</time>
      </trkpt>
      <trkpt lat="48.43839" lon="2.01394">
        <ele>131</ele>
        <time>2011-04-30T09:15:19Z</time>
      </trkpt>
      <trkpt lat="48.43839" lon="2.0139">
        <ele>131</ele>
        <time>2011-04-30T09:15:20Z</time>
      </trkpt>
      <trkpt lat="48.4384" lon="2.01387">
        <ele>131</ele>
        <time>2011-04-30T09:15:21Z</time>
      </trkpt>
      <trkpt lat="48.43841" lon="2.01384">
        <ele>131</ele>
        <time>2011-04-30T09:15:22Z</time>
      </trkpt>
      <trkpt lat="48.43842" lon="2.01382">
        <ele>131</ele>
        <time>2011-04-30T09:15:23Z</time>
      </trkpt>
      <trkpt lat="48.43843" lon="2.0138">
        <ele>132</ele>
        <time>2011-04-30T09:15:24Z</time>
      </trkpt>
      <trkpt lat="48.43844" lon="2.01379">
        <ele>132</ele>
        <time>2011-04-30T09:15:25Z</time>
      </trkpt>
      <trkpt lat="48.43844" lon="2.01379">
        <ele>132</ele>
        <time>2011-04-30T09:15:26Z</time>
      </trkpt>
      <trkpt lat="48.43844" lon="2.01378">
        <ele>132</ele>
        <time>2011-04-30T09:15:27Z</time>
      </trkpt>
      <trkpt lat="48.43844" lon="2.01376">
        <ele>132</ele>
        <time>2011-04-30T09:15:28Z</time>
      </trkpt>
      <trkpt lat="48.43844" lon="2.01376">
        <ele>132</ele>
        <time>2011-04-30T09:15:29Z</time>
      </trkpt>
      <trkpt lat="48.43844" lon="2.01375">
        <ele>132</ele>
        <time>2011-04-30T09:15:30Z</time>
      </trkpt>
      <trkpt lat="48.43844" lon="2.01375">
        <ele>132</ele>
        <time>2011-04-30T09:15:31Z</time>
      </trkpt>
      <trkpt lat="48.43845" lon="2.01374">
        <ele>132</ele>
        <time>2011-04-30T09:15:32Z</time>
      </trkpt>
      <trkpt lat="48.43845" lon="2.01374">
        <ele>132</ele>
        <time>2011-04-30T09:15:33Z</time>
      </trkpt>
      <trkpt lat="48.43846" lon="2.01373">
        <ele>132</ele>
        <time>2011-04-30T09:15:34Z</time>
      </trkpt>
      <trkpt lat="48.43847" lon="2.01373">
        <ele>132</ele>
        <time>2011-04-30T09:15:35Z</time>
      </trkpt>
      <trkpt lat="48.43849" lon="2.01373">
        <ele>132</ele>
        <time>2011-04-30T09:15:36Z</time>
      </trkpt>
      <trkpt lat="48.4385" lon="2.01375">
        <ele>132</ele>
        <time>2011-04-30T09:15:37Z</time>
      </trkpt>
      <trkpt lat="48.43851" lon="2.01376">
        <ele>132</ele>
        <time>2011-04-30T09:15:38Z</time>
      </trkpt>
      <trkpt lat="48.43852" lon="2.01379">
        <ele>132</ele>
        <time>2011-04-30T09:15:39Z</time>
      </trkpt>
      <trkpt lat="48.43853" lon="2.01381">
        <ele>132</ele>
        <time>2011-04-30T09:15:40Z</time>
      </trkpt>
      <trkpt lat="48.43854" lon="2.01383">
        <ele>132</ele>
        <time>2011-04-30T09:15:41Z</time>
      </trkpt>
      <trkpt lat="48.43855" lon="2.01386">
        <ele>132</ele>
        <time>2011-04-30T09:15:42Z</time>
      </trkpt>
      <trkpt lat="48.43855" lon="2.01388">
        <ele>132</ele>
        <time>2011-04-30T09:15:43Z</time>
      </trkpt>
      <trkpt lat="48.43856" lon="2.0139">
        <ele>132</ele>
        <time>2011-04-30T09:15:44Z</time>
      </trkpt>
      <trkpt lat="48.43857" lon="2.01393">
        <ele>132</ele>
        <time>2011-04-30T09:15:45Z</time>
      </trkpt>
      <trkpt lat="48.43857" lon="2.01395">
        <ele>132</ele>
        <time>2011-04-30T09:15:46Z</time>
      </trkpt>
      <trkpt lat="48.43858" lon="2.01397">
        <ele>132</ele>
        <time>2011-04-30T09:15:47Z</time>
      </trkpt>
      <trkpt lat="48.43858" lon="2.01399">
        <ele>131</ele>
        <time>2011-04-30T09:15:48Z</time>
      </trkpt>
      <trkpt lat="48.43858" lon="2.01402">
        <ele>131</ele>
        <time>2011-04-30T09:15:49Z</time>
      </trkpt>
      <trkpt lat="48.43858" lon="2.01404">
        <ele>131</ele>
        <time>2011-04-30T09:15:50Z</time>
      </trkpt>
      <trkpt lat="48.43859" lon="2.01406">
        <ele>131</ele>
        <time>2011-04-30T09:15:51Z</time>
      </trkpt>
      <trkpt lat="48.43859" lon="2.01408">
        <ele>131</ele>
        <time>2011-04-30T09:15:52Z</time>
      </trkpt>
      <trkpt lat="48.43859" lon="2.0141">
        <ele>131</ele>
        <time>2011-04-30T09:15:53Z</time>
      </trkpt>
      <trkpt lat="48.43859" lon="2.01413">
        <ele>131</ele>
        <time>2011-04-30T09:15:54Z</time>
      </trkpt>
      <trkpt lat="48.4386" lon="2.01415">
        <ele>131</ele>
        <time>2011-04-30T09:15:55Z</time>
      </trkpt>
      <trkpt lat="48.4386" lon="2.01417">
        <ele>129</ele>
        <time>2011-04-30T09:15:56Z</time>
      </trkpt>
      <trkpt lat="48.4386" lon="2.01419">
        <ele>129</ele>
        <time>2011-04-30T09:15:57Z</time>
      </trkpt>
      <trkpt lat="48.4386" lon="2.01422">
        <ele>130</ele>
        <time>2011-04-30T09:15:58Z</time>
      </trkpt>
      <trkpt lat="48.4386" lon="2.01424">
        <ele>130</ele>
        <time>2011-04-30T09:15:59Z</time>
      </trkpt>
      <trkpt lat="48.43861" lon="2.01426">
        <ele>130</ele>
        <time>2011-04-30T09:16:00Z</time>
      </trkpt>
      <trkpt lat="48.43861" lon="2.01429">
        <ele>130</ele>
        <time>2011-04-30T09:16:01Z</time>
      </trkpt>
      <trkpt lat="48.43862" lon="2.01432">
        <ele>130</ele>
        <time>2011-04-30T09:16:02Z</time>
      </trkpt>
      <trkpt lat="48.43863" lon="2.01435">
        <ele>130</ele>
        <time>2011-04-30T09:16:03Z</time>
      </trkpt>
      <trkpt lat="48.43863" lon="2.01439">
        <ele>130</ele>
        <time>2011-04-30T09:16:04Z</time>
      </trkpt>
      <trkpt lat="48.43864" lon="2.01443">
        <ele>130</ele>
        <time>2011-04-30T09:16:05Z</time>
      </trkpt>
      <trkpt lat="48.43865" lon="2.01446">
        <ele>130</ele>
        <time>2011-04-30T09:16:06Z</time>
      </trkpt>
      <trkpt lat="48.43866" lon="2.01449">
        <ele>130</ele>
        <time>2011-04-30T09:16:07Z</time>
      </trkpt>
      <trkpt lat="48.43866" lon="2.01452">
        <ele>130</ele>
        <time>2011-04-30T09:16:08Z</time>
      </trkpt>
      <trkpt lat="48.43867" lon="2.01454">
        <ele>130</ele>
        <time>2011-04-30T09:16:09Z</time>
      </trkpt>
      <trkpt lat="48.43867" lon="2.01457">
        <ele>130</ele>
        <time>2011-04-30T09:16:10Z</time>
      </trkpt>
      <trkpt lat="48.43867" lon="2.01459">
        <ele>130</ele>
        <time>2011-04-30T09:16:11Z</time>
      </trkpt>
      <trkpt lat="48.43868" lon="2.01462">
        <ele>130</ele>
        <time>2011-04-30T09:16:12Z</time>
      </trkpt>
      <trkpt lat="48.43868" lon="2.01465">
        <ele>130</ele>
        <time>2011-04-30T09:16:13Z</time>
      </trkpt>
      <trkpt lat="48.43869" lon="2.01468">
        <ele>130</ele>
        <time>2011-04-30T09:16:14Z</time>
      </trkpt>
      <trkpt lat="48.4387" lon="2.01472">
        <ele>130</ele>
        <time>2011-04-30T09:16:15Z</time>
      </trkpt>
      <trkpt lat="48.43871" lon="2.01475">
        <ele>130</ele>
        <time>2011-04-30T09:16:16Z</time>
      </trkpt>
      <trkpt lat="48.43872" lon="2.01478">
        <ele>130</ele>
        <time>2011-04-30T09:16:17Z</time>
      </trkpt>
      <trkpt lat="48.43872" lon="2.01481">
        <ele>130</ele>
        <time>2011-04-30T09:16:18Z</time>
      </trkpt>
      <trkpt lat="48.43873" lon="2.01484">
        <ele>130</ele>
        <time>2011-04-30T09:16:19Z</time>
      </trkpt>
      <trkpt lat="48.43875" lon="2.01489">
        <ele>130</ele>
        <time>2011-04-30T09:16:20Z</time>
      </trkpt>
      <trkpt lat="48.43876" lon="2.01493">
        <ele>130</ele>
        <time>2011-04-30T09:16:21Z</time>
      </trkpt>
      <trkpt lat="48.43877" lon="2.01497">
        <ele>130</ele>
        <time>2011-04-30T09:16:22Z</time>
      </trkpt>
      <trkpt lat="48.43878" lon="2.01501">
        <ele>130</ele>
        <time>2011-04-30T09:16:23Z</time>
      </trkpt>
      <trkpt lat="48.43879" lon="2.01505">
        <ele>130</ele>
        <time>2011-04-30T09:16:24Z</time>
      </trkpt>
      <trkpt lat="48.4388" lon="2.01509">
        <ele>130</ele>
        <time>2011-04-30T09:16:25Z</time>
      </trkpt>
      <trkpt lat="48.43882" lon="2.01513">
        <ele>130</ele>
        <time>2011-04-30T09:16:26Z</time>
      </trkpt>
      <trkpt lat="48.43883" lon="2.01517">
        <ele>130</ele>
        <time>2011-04-30T09:16:27Z</time>
      </trkpt>
      <trkpt lat="48.43884" lon="2.01521">
        <ele>131</ele>
        <time>2011-04-30T09:16:28Z</time>
      </trkpt>
      <trkpt lat="48.43886" lon="2.01525">
        <ele>131</ele>
        <time>2011-04-30T09:16:29Z</time>
      </trkpt>
      <trkpt lat="48.43887" lon="2.01528">
        <ele>131</ele>
        <time>2011-04-30T09:16:30Z</time>
      </trkpt>
      <trkpt lat="48.43888" lon="2.01531">
        <ele>131</ele>
        <time>2011-04-30T09:16:31Z</time>
      </trkpt>
      <trkpt lat="48.43888" lon="2.01533">
        <ele>131</ele>
        <time>2011-04-30T09:16:32Z</time>
      </trkpt>
      <trkpt lat="48.43889" lon="2.01536">
        <ele>131</ele>
        <time>2011-04-30T09:16:33Z</time>
      </trkpt>
      <trkpt lat="48.4389" lon="2.01538">
        <ele>131</ele>
        <time>2011-04-30T09:16:34Z</time>
      </trkpt>
      <trkpt lat="48.4389" lon="2.01539">
        <ele>131</ele>
        <time>2011-04-30T09:16:35Z</time>
      </trkpt>
      <trkpt lat="48.43891" lon="2.01541">
        <ele>131</ele>
        <time>2011-04-30T09:16:36Z</time>
      </trkpt>
      <trkpt lat="48.43891" lon="2.01543">
        <ele>131</ele>
        <time>2011-04-30T09:16:37Z</time>
      </trkpt>
      <trkpt lat="48.43891" lon="2.01545">
        <ele>131</ele>
        <time>2011-04-30T09:16:38Z</time>
      </trkpt>
      <trkpt lat="48.43892" lon="2.01548">
        <ele>131</ele>
        <time>2011-04-30T09:16:39Z</time>
      </trkpt>
      <trkpt lat="48.43892" lon="2.01551">
        <ele>131</ele>
        <time>2011-04-30T09:16:40Z</time>
      </trkpt>
      <trkpt lat="48.43893" lon="2.01553">
        <ele>131</ele>
        <time>2011-04-30T09:16:41Z</time>
      </trkpt>
      <trkpt lat="48.43894" lon="2.01556">
        <ele>131</ele>
        <time>2011-04-30T09:16:42Z</time>
      </trkpt>
      <trkpt lat="48.43894" lon="2.01558">
        <ele>131</ele>
        <time>2011-04-30T09:16:43Z</time>
      </trkpt>
      <trkpt lat="48.43895" lon="2.01561">
        <ele>131</ele>
        <time>2011-04-30T09:16:44Z</time>
      </trkpt>
      <trkpt lat="48.43896" lon="2.01563">
        <ele>131</ele>
        <time>2011-04-30T09:16:45Z</time>
      </trkpt>
      <trkpt lat="48.43896" lon="2.01565">
        <ele>131</ele>
        <time>2011-04-30T09:16:46Z</time>
      </trkpt>
      <trkpt lat="48.43897" lon="2.01568">
        <ele>131</ele>
        <time>2011-04-30T09:16:47Z</time>
      </trkpt>
      <trkpt lat="48.43897" lon="2.0157">
        <ele>131</ele>
        <time>2011-04-30T09:16:48Z</time>
      </trkpt>
      <trkpt lat="48.43898" lon="2.01573">
        <ele>131</ele>
        <time>2011-04-30T09:16:49Z</time>
      </trkpt>
      <trkpt lat="48.43898" lon="2.01575">
        <ele>131</ele>
        <time>2011-04-30T09:16:50Z</time>
      </trkpt>
      <trkpt lat="48.43899" lon="2.01578">
        <ele>131</ele>
        <time>2011-04-30T09:16:51Z</time>
      </trkpt>
      <trkpt lat="48.43899" lon="2.01581">
        <ele>131</ele>
        <time>2011-04-30T09:16:52Z</time>
      </trkpt>
      <trkpt lat="48.439" lon="2.01585">
        <ele>132</ele>
        <time>2011-04-30T09:16:53Z</time>
      </trkpt>
      <trkpt lat="48.43901" lon="2.01589">
        <ele>132</ele>
        <time>2011-04-30T09:16:54Z</time>
      </trkpt>
      <trkpt lat="48.43901" lon="2.01593">
        <ele>132</ele>
        <time>2011-04-30T09:16:55Z</time>
      </trkpt>
      <trkpt lat="48.43902" lon="2.01597">
        <ele>132</ele>
        <time>2011-04-30T09:16:56Z</time>
      </trkpt>
      <trkpt lat="48.43903" lon="2.01601">
        <ele>132</ele>
        <time>2011-04-30T09:16:57Z</time>
      </trkpt>
      <trkpt lat="48.43903" lon="2.01605">
        <ele>132</ele>
        <time>2011-04-30T09:16:58Z</time>
      </trkpt>
      <trkpt lat="48.43904" lon="2.01608">
        <ele>132</ele>
        <time>2011-04-30T09:16:59Z</time>
      </trkpt>
      <trkpt lat="48.43904" lon="2.01611">
        <ele>132</ele>
        <time>2011-04-30T09:17:00Z</time>
      </trkpt>
      <trkpt lat="48.43905" lon="2.01613">
        <ele>132</ele>
        <time>2011-04-30T09:17:01Z</time>
      </trkpt>
      <trkpt lat="48.43905" lon="2.01615">
        <ele>132</ele>
        <time>2011-04-30T09:17:02Z</time>
      </trkpt>
      <trkpt lat="48.43906" lon="2.01617">
        <ele>132</ele>
        <time>2011-04-30T09:17:03Z</time>
      </trkpt>
      <trkpt lat="48.43906" lon="2.0162">
        <ele>132</ele>
        <time>2011-04-30T09:17:04Z</time>
      </trkpt>
      <trkpt lat="48.43907" lon="2.01623">
        <ele>132</ele>
        <time>2011-04-30T09:17:05Z</time>
      </trkpt>
      <trkpt lat="48.43908" lon="2.01626">
        <ele>132</ele>
        <time>2011-04-30T09:17:06Z</time>
      </trkpt>
      <trkpt lat="48.43909" lon="2.01631">
        <ele>132</ele>
        <time>2011-04-30T09:17:07Z</time>
      </trkpt>
      <trkpt lat="48.4391" lon="2.01635">
        <ele>132</ele>
        <time>2011-04-30T09:17:08Z</time>
      </trkpt>
      <trkpt lat="48.43911" lon="2.01639">
        <ele>132</ele>
        <time>2011-04-30T09:17:09Z</time>
      </trkpt>
      <trkpt lat="48.43912" lon="2.01644">
        <ele>132</ele>
        <time>2011-04-30T09:17:10Z</time>
      </trkpt>
      <trkpt lat="48.43913" lon="2.01648">
        <ele>132</ele>
        <time>2011-04-30T09:17:11Z</time>
      </trkpt>
      <trkpt lat="48.43914" lon="2.01652">
        <ele>132</ele>
        <time>2011-04-30T09:17:12Z</time>
      </trkpt>
      <trkpt lat="48.43914" lon="2.01655">
        <ele>132</ele>
        <time>2011-04-30T09:17:13Z</time>
      </trkpt>
      <trkpt lat="48.43915" lon="2.01659">
        <ele>132</ele>
        <time>2011-04-30T09:17:14Z</time>
      </trkpt>
      <trkpt lat="48.43916" lon="2.01664">
        <ele>132</ele>
        <time>2011-04-30T09:17:15Z</time>
      </trkpt>
      <trkpt lat="48.43917" lon="2.01669">
        <ele>132</ele>
        <time>2011-04-30T09:17:16Z</time>
      </trkpt>
      <trkpt lat="48.43919" lon="2.01674">
        <ele>133</ele>
        <time>2011-04-30T09:17:17Z</time>
      </trkpt>
      <trkpt lat="48.4392" lon="2.01678">
        <ele>133</ele>
        <time>2011-04-30T09:17:18Z</time>
      </trkpt>
      <trkpt lat="48.43921" lon="2.01683">
        <ele>133</ele>
        <time>2011-04-30T09:17:19Z</time>
      </trkpt>
      <trkpt lat="48.43922" lon="2.01688">
        <ele>133</ele>
        <time>2011-04-30T09:17:20Z</time>
      </trkpt>
      <trkpt lat="48.43923" lon="2.01693">
        <ele>133</ele>
        <time>2011-04-30T09:17:21Z</time>
      </trkpt>
      <trkpt lat="48.43925" lon="2.017">
        <ele>133</ele>
        <time>2011-04-30T09:17:22Z</time>
      </trkpt>
      <trkpt lat="48.43927" lon="2.01708">
        <ele>134</ele>
        <time>2011-04-30T09:17:23Z</time>
      </trkpt>
      <trkpt lat="48.43929" lon="2.01715">
        <ele>134</ele>
        <time>2011-04-30T09:17:24Z</time>
      </trkpt>
      <trkpt lat="48.43931" lon="2.01722">
        <ele>133</ele>
        <time>2011-04-30T09:17:25Z</time>
      </trkpt>
      <trkpt lat="48.43933" lon="2.01728">
        <ele>133</ele>
        <time>2011-04-30T09:17:26Z</time>
      </trkpt>
      <trkpt lat="48.43935" lon="2.01734">
        <ele>133</ele>
        <time>2011-04-30T09:17:27Z</time>
      </trkpt>
      <trkpt lat="48.43937" lon="2.01739">
        <ele>133</ele>
        <time>2011-04-30T09:17:28Z</time>
      </trkpt>
      <trkpt lat="48.43938" lon="2.01744">
        <ele>133</ele>
        <time>2011-04-30T09:17:29Z</time>
      </trkpt>
      <trkpt lat="48.4394" lon="2.01749">
        <ele>133</ele>
        <time>2011-04-30T09:17:30Z</time>
      </trkpt>
      <trkpt lat="48.43941" lon="2.01753">
        <ele>133</ele>
        <time>2011-04-30T09:17:31Z</time>
      </trkpt>
      <trkpt lat="48.43943" lon="2.01758">
        <ele>133</ele>
        <time>2011-04-30T09:17:32Z</time>
      </trkpt>
      <trkpt lat="48.43944" lon="2.01762">
        <ele>133</ele>
        <time>2011-04-30T09:17:33Z</time>
      </trkpt>
      <trkpt lat="48.43946" lon="2.01766">
        <ele>133</ele>
        <time>2011-04-30T09:17:34Z</time>
      </trkpt>
      <trkpt lat="48.43947" lon="2.0177">
        <ele>133</ele>
        <time>2011-04-30T09:17:35Z</time>
      </trkpt>
      <trkpt lat="48.43948" lon="2.01774">
        <ele>133</ele>
        <time>2011-04-30T09:17:36Z</time>
      </trkpt>
      <trkpt lat="48.4395" lon="2.01779">
        <ele>133</ele>
        <time>2011-04-30T09:17:37Z</time>
      </trkpt>
      <trkpt lat="48.43951" lon="2.01784">
        <ele>133</ele>
        <time>2011-04-30T09:17:38Z</time>
      </trkpt>
      <trkpt lat="48.43953" lon="2.01788">
        <ele>133</ele>
        <time>2011-04-30T09:17:39Z</time>
      </trkpt>
      <trkpt lat="48.43954" lon="2.01792">
        <ele>132</ele>
        <time>2011-04-30T09:17:40Z</time>
      </trkpt>
      <trkpt lat="48.43955" lon="2.01795">
        <ele>132</ele>
        <time>2011-04-30T09:17:41Z</time>
      </trkpt>
      <trkpt lat="48.43957" lon="2.01799">
        <ele>132</ele>
        <time>2011-04-30T09:17:42Z</time>
      </trkpt>
      <trkpt lat="48.43958" lon="2.01803">
        <ele>132</ele>
        <time>2011-04-30T09:17:43Z</time>
      </trkpt>
      <trkpt lat="48.43958" lon="2.01806">
        <ele>132</ele>
        <time>2011-04-30T09:17:44Z</time>
      </trkpt>
      <trkpt lat="48.43959" lon="2.01808">
        <ele>132</ele>
        <time>2011-04-30T09:17:45Z</time>
      </trkpt>
      <trkpt lat="48.43959" lon="2.01811">
        <ele>132</ele>
        <time>2011-04-30T09:17:46Z</time>
      </trkpt>
      <trkpt lat="48.4396" lon="2.01814">
        <ele>132</ele>
        <time>2011-04-30T09:17:47Z</time>
      </trkpt>
      <trkpt lat="48.43961" lon="2.01816">
        <ele>132</ele>
        <time>2011-04-30T09:17:48Z</time>
      </trkpt>
      <trkpt lat="48.43961" lon="2.01819">
        <ele>132</ele>
        <time>2011-04-30T09:17:49Z</time>
      </trkpt>
      <trkpt lat="48.43962" lon="2.01822">
        <ele>132</ele>
        <time>2011-04-30T09:17:50Z</time>
      </trkpt>
      <trkpt lat="48.43963" lon="2.01824">
        <ele>132</ele>
        <time>2011-04-30T09:17:51Z</time>
      </trkpt>
      <trkpt lat="48.43964" lon="2.0183">
        <ele>132</ele>
        <time>2011-04-30T09:17:52Z</time>
      </trkpt>
      <trkpt lat="48.43965" lon="2.01833">
        <ele>132</ele>
        <time>2011-04-30T09:17:53Z</time>
      </trkpt>
      <trkpt lat="48.43966" lon="2.01835">
        <ele>132</ele>
        <time>2011-04-30T09:17:54Z</time>
      </trkpt>
      <trkpt lat="48.43967" lon="2.01838">
        <ele>132</ele>
        <time>2011-04-30T09:17:55Z</time>
      </trkpt>
      <trkpt lat="48.43968" lon="2.0184">
        <ele>132</ele>
        <time>2011-04-30T09:17:56Z</time>
      </trkpt>
      <trkpt lat="48.43969" lon="2.01844">
        <ele>132</ele>
        <time>2011-04-30T09:17:57Z</time>
      </trkpt>
      <trkpt lat="48.43969" lon="2.01848">
        <ele>132</ele>
        <time>2011-04-30T09:17:58Z</time>
      </trkpt>
      <trkpt lat="48.4397" lon="2.01853">
        <ele>132</ele>
        <time>2011-04-30T09:17:59Z</time>
      </trkpt>
      <trkpt lat="48.43971" lon="2.01858">
        <ele>132</ele>
        <time>2011-04-30T09:18:00Z</time>
      </trkpt>
      <trkpt lat="48.43972" lon="2.01862">
        <ele>132</ele>
        <time>2011-04-30T09:18:01Z</time>
      </trkpt>
      <trkpt lat="48.43973" lon="2.01866">
        <ele>132</ele>
        <time>2011-04-30T09:18:02Z</time>
      </trkpt>
      <trkpt lat="48.43974" lon="2.0187">
        <ele>132</ele>
        <time>2011-04-30T09:18:03Z</time>
      </trkpt>
      <trkpt lat="48.43974" lon="2.01873">
        <ele>132</ele>
        <time>2011-04-30T09:18:04Z</time>
      </trkpt>
      <trkpt lat="48.43975" lon="2.01877">
        <ele>132</ele>
        <time>2011-04-30T09:18:05Z</time>
      </trkpt>
      <trkpt lat="48.43975" lon="2.0188">
        <ele>132</ele>
        <time>2011-04-30T09:18:06Z</time>
      </trkpt>
      <trkpt lat="48.43976" lon="2.01884">
        <ele>132</ele>
        <time>2011-04-30T09:18:07Z</time>
      </trkpt>
      <trkpt lat="48.43977" lon="2.01889">
        <ele>132</ele>
        <time>2011-04-30T09:18:08Z</time>
      </trkpt>
      <trkpt lat="48.43978" lon="2.01892">
        <ele>132</ele>
        <time>2011-04-30T09:18:09Z</time>
      </trkpt>
      <trkpt lat="48.43978" lon="2.01896">
        <ele>132</ele>
        <time>2011-04-30T09:18:10Z</time>
      </trkpt>
      <trkpt lat="48.43979" lon="2.01899">
        <ele>131</ele>
        <time>2011-04-30T09:18:11Z</time>
      </trkpt>
      <trkpt lat="48.43979" lon="2.01902">
        <ele>131</ele>
        <time>2011-04-30T09:18:12Z</time>
      </trkpt>
      <trkpt lat="48.4398" lon="2.01905">
        <ele>131</ele>
        <time>2011-04-30T09:18:13Z</time>
      </trkpt>
      <trkpt lat="48.4398" lon="2.01908">
        <ele>131</ele>
        <time>2011-04-30T09:18:14Z</time>
      </trkpt>
      <trkpt lat="48.43982" lon="2.01913">
        <ele>131</ele>
        <time>2011-04-30T09:18:15Z</time>
      </trkpt>
      <trkpt lat="48.43983" lon="2.01917">
        <ele>132</ele>
        <time>2011-04-30T09:18:16Z</time>
      </trkpt>
      <trkpt lat="48.43984" lon="2.01922">
        <ele>132</ele>
        <time>2011-04-30T09:18:17Z</time>
      </trkpt>
      <trkpt lat="48.43985" lon="2.01928">
        <ele>132</ele>
        <time>2011-04-30T09:18:18Z</time>
      </trkpt>
      <trkpt lat="48.43987" lon="2.01933">
        <ele>132</ele>
        <time>2011-04-30T09:18:19Z</time>
      </trkpt>
      <trkpt lat="48.43989" lon="2.01939">
        <ele>132</ele>
        <time>2011-04-30T09:18:20Z</time>
      </trkpt>
      <trkpt lat="48.43991" lon="2.01946">
        <ele>132</ele>
        <time>2011-04-30T09:18:21Z</time>
      </trkpt>
      <trkpt lat="48.43993" lon="2.01951">
        <ele>133</ele>
        <time>2011-04-30T09:18:22Z</time>
      </trkpt>
      <trkpt lat="48.43994" lon="2.01957">
        <ele>133</ele>
        <time>2011-04-30T09:18:23Z</time>
      </trkpt>
      <trkpt lat="48.43996" lon="2.01961">
        <ele>133</ele>
        <time>2011-04-30T09:18:24Z</time>
      </trkpt>
      <trkpt lat="48.43997" lon="2.01964">
        <ele>133</ele>
        <time>2011-04-30T09:18:25Z</time>
      </trkpt>
      <trkpt lat="48.43998" lon="2.01968">
        <ele>133</ele>
        <time>2011-04-30T09:18:26Z</time>
      </trkpt>
      <trkpt lat="48.43999" lon="2.01971">
        <ele>133</ele>
        <time>2011-04-30T09:18:27Z</time>
      </trkpt>
      <trkpt lat="48.44" lon="2.01975">
        <ele>132</ele>
        <time>2011-04-30T09:18:28Z</time>
      </trkpt>
      <trkpt lat="48.44001" lon="2.01978">
        <ele>131</ele>
        <time>2011-04-30T09:18:29Z</time>
      </trkpt>
      <trkpt lat="48.44002" lon="2.01982">
        <ele>131</ele>
        <time>2011-04-30T09:18:30Z</time>
      </trkpt>
      <trkpt lat="48.44003" lon="2.01985">
        <ele>131</ele>
        <time>2011-04-30T09:18:31Z</time>
      </trkpt>
      <trkpt lat="48.44003" lon="2.01988">
        <ele>131</ele>
        <time>2011-04-30T09:18:32Z</time>
      </trkpt>
      <trkpt lat="48.44004" lon="2.01991">
        <ele>131</ele>
        <time>2011-04-30T09:18:33Z</time>
      </trkpt>
      <trkpt lat="48.44005" lon="2.01994">
        <ele>131</ele>
        <time>2011-04-30T09:18:34Z</time>
      </trkpt>
      <trkpt lat="48.44005" lon="2.01996">
        <ele>131</ele>
        <time>2011-04-30T09:18:35Z</time>
      </trkpt>
      <trkpt lat="48.44006" lon="2.01999">
        <ele>131</ele>
        <time>2011-04-30T09:18:36Z</time>
      </trkpt>
      <trkpt lat="48.44006" lon="2.02002">
        <ele>131</ele>
        <time>2011-04-30T09:18:37Z</time>
      </trkpt>
      <trkpt lat="48.44007" lon="2.02004">
        <ele>131</ele>
        <time>2011-04-30T09:18:38Z</time>
      </trkpt>
      <trkpt lat="48.44007" lon="2.02007">
        <ele>131</ele>
        <time>2011-04-30T09:18:39Z</time>
      </trkpt>
      <trkpt lat="48.44008" lon="2.02009">
        <ele>131</ele>
        <time>2011-04-30T09:18:40Z</time>
      </trkpt>
      <trkpt lat="48.44008" lon="2.02011">
        <ele>131</ele>
        <time>2011-04-30T09:18:41Z</time>
      </trkpt>
      <trkpt lat="48.44008" lon="2.02014">
        <ele>130</ele>
        <time>2011-04-30T09:18:42Z</time>
      </trkpt>
      <trkpt lat="48.44009" lon="2.02016">
        <ele>130</ele>
        <time>2011-04-30T09:18:43Z</time>
      </trkpt>
      <trkpt lat="48.44009" lon="2.02018">
        <ele>130</ele>
        <time>2011-04-30T09:18:44Z</time>
      </trkpt>
      <trkpt lat="48.44009" lon="2.02021">
        <ele>130</ele>
        <time>2011-04-30T09:18:45Z</time>
      </trkpt>
      <trkpt lat="48.4401" lon="2.02023">
        <ele>130</ele>
        <time>2011-04-30T09:18:46Z</time>
      </trkpt>
      <trkpt lat="48.4401" lon="2.02026">
        <ele>130</ele>
        <time>2011-04-30T09:18:47Z</time>
      </trkpt>
      <trkpt lat="48.44011" lon="2.02028">
        <ele>130</ele>
        <time>2011-04-30T09:18:48Z</time>
      </trkpt>
      <trkpt lat="48.44011" lon="2.02031">
        <ele>130</ele>
        <time>2011-04-30T09:18:49Z</time>
      </trkpt>
      <trkpt lat="48.44011" lon="2.02034">
        <ele>130</ele>
        <time>2011-04-30T09:18:50Z</time>
      </trkpt>
      <trkpt lat="48.44012" lon="2.02037">
        <ele>130</ele>
        <time>2011-04-30T09:18:51Z</time>
      </trkpt>
      <trkpt lat="48.44013" lon="2.02041">
        <ele>130</ele>
        <time>2011-04-30T09:18:52Z</time>
      </trkpt>
      <trkpt lat="48.44014" lon="2.02045">
        <ele>130</ele>
        <time>2011-04-30T09:18:53Z</time>
      </trkpt>
      <trkpt lat="48.44015" lon="2.02049">
        <ele>130</ele>
        <time>2011-04-30T09:18:54Z</time>
      </trkpt>
      <trkpt lat="48.44016" lon="2.02054">
        <ele>130</ele>
        <time>2011-04-30T09:18:55Z</time>
      </trkpt>
      <trkpt lat="48.44018" lon="2.0206">
        <ele>130</ele>
        <time>2011-04-30T09:18:56Z</time>
      </trkpt>
      <trkpt lat="48.4402" lon="2.02065">
        <ele>130</ele>
        <time>2011-04-30T09:18:57Z</time>
      </trkpt>
      <trkpt lat="48.44022" lon="2.02071">
        <ele>130</ele>
        <time>2011-04-30T09:18:58Z</time>
      </trkpt>
      <trkpt lat="48.44023" lon="2.02076">
        <ele>130</ele>
        <time>2011-04-30T09:18:59Z</time>
      </trkpt>
      <trkpt lat="48.44025" lon="2.0208">
        <ele>130</ele>
        <time>2011-04-30T09:19:00Z</time>
      </trkpt>
      <trkpt lat="48.44026" lon="2.02084">
        <ele>128</ele>
        <time>2011-04-30T09:19:01Z</time>
      </trkpt>
      <trkpt lat="48.44027" lon="2.02088">
        <ele>128</ele>
        <time>2011-04-30T09:19:02Z</time>
      </trkpt>
      <trkpt lat="48.44028" lon="2.02091">
        <ele>128</ele>
        <time>2011-04-30T09:19:03Z</time>
      </trkpt>
      <trkpt lat="48.44029" lon="2.02095">
        <ele>128</ele>
        <time>2011-04-30T09:19:04Z</time>
      </trkpt>
      <trkpt lat="48.4403" lon="2.02099">
        <ele>128</ele>
        <time>2011-04-30T09:19:05Z</time>
      </trkpt>
      <trkpt lat="48.44031" lon="2.02103">
        <ele>128</ele>
        <time>2011-04-30T09:19:06Z</time>
      </trkpt>
      <trkpt lat="48.44032" lon="2.02106">
        <ele>128</ele>
        <time>2011-04-30T09:19:07Z</time>
      </trkpt>
      <trkpt lat="48.44032" lon="2.02109">
        <ele>128</ele>
        <time>2011-04-30T09:19:08Z</time>
      </trkpt>
      <trkpt lat="48.44033" lon="2.02111">
        <ele>128</ele>
        <time>2011-04-30T09:19:09Z</time>
      </trkpt>
      <trkpt lat="48.44033" lon="2.02114">
        <ele>128</ele>
        <time>2011-04-30T09:19:10Z</time>
      </trkpt>
      <trkpt lat="48.44033" lon="2.02116">
        <ele>128</ele>
        <time>2011-04-30T09:19:11Z</time>
      </trkpt>
      <trkpt lat="48.44034" lon="2.02119">
        <ele>128</ele>
        <time>2011-04-30T09:19:12Z</time>
      </trkpt>
      <trkpt lat="48.44034" lon="2.02122">
        <ele>128</ele>
        <time>2011-04-30T09:19:13Z</time>
      </trkpt>
      <trkpt lat="48.44035" lon="2.02127">
        <ele>128</ele>
        <time>2011-04-30T09:19:14Z</time>
      </trkpt>
      <trkpt lat="48.44037" lon="2.02131">
        <ele>128</ele>
        <time>2011-04-30T09:19:15Z</time>
      </trkpt>
      <trkpt lat="48.44038" lon="2.02136">
        <ele>127</ele>
        <time>2011-04-30T09:19:16Z</time>
      </trkpt>
      <trkpt lat="48.44039" lon="2.0214">
        <ele>127</ele>
        <time>2011-04-30T09:19:17Z</time>
      </trkpt>
      <trkpt lat="48.44041" lon="2.02145">
        <ele>127</ele>
        <time>2011-04-30T09:19:18Z</time>
      </trkpt>
      <trkpt lat="48.44043" lon="2.02151">
        <ele>127</ele>
        <time>2011-04-30T09:19:19Z</time>
      </trkpt>
      <trkpt lat="48.44045" lon="2.02157">
        <ele>127</ele>
        <time>2011-04-30T09:19:20Z</time>
      </trkpt>
      <trkpt lat="48.44046" lon="2.02162">
        <ele>127</ele>
        <time>2011-04-30T09:19:21Z</time>
      </trkpt>
      <trkpt lat="48.44048" lon="2.02167">
        <ele>127</ele>
        <time>2011-04-30T09:19:22Z</time>
      </trkpt>
      <trkpt lat="48.44048" lon="2.0217">
        <ele>127</ele>
        <time>2011-04-30T09:19:23Z</time>
      </trkpt>
      <trkpt lat="48.44049" lon="2.02174">
        <ele>127</ele>
        <time>2011-04-30T09:19:24Z</time>
      </trkpt>
      <trkpt lat="48.4405" lon="2.02177">
        <ele>127</ele>
        <time>2011-04-30T09:19:25Z</time>
      </trkpt>
      <trkpt lat="48.4405" lon="2.02179">
        <ele>127</ele>
        <time>2011-04-30T09:19:26Z</time>
      </trkpt>
      <trkpt lat="48.44051" lon="2.02182">
        <ele>127</ele>
        <time>2011-04-30T09:19:27Z</time>
      </trkpt>
      <trkpt lat="48.44051" lon="2.02184">
        <ele>127</ele>
        <time>2011-04-30T09:19:28Z</time>
      </trkpt>
      <trkpt lat="48.44051" lon="2.02186">
        <ele>127</ele>
        <time>2011-04-30T09:19:29Z</time>
      </trkpt>
      <trkpt lat="48.44052" lon="2.02188">
        <ele>127</ele>
        <time>2011-04-30T09:19:30Z</time>
      </trkpt>
      <trkpt lat="48.44052" lon="2.02191">
        <ele>128</ele>
        <time>2011-04-30T09:19:31Z</time>
      </trkpt>
      <trkpt lat="48.44053" lon="2.02194">
        <ele>128</ele>
        <time>2011-04-30T09:19:32Z</time>
      </trkpt>
      <trkpt lat="48.44054" lon="2.02198">
        <ele>128</ele>
        <time>2011-04-30T09:19:33Z</time>
      </trkpt>
      <trkpt lat="48.44055" lon="2.02203">
        <ele>128</ele>
        <time>2011-04-30T09:19:34Z</time>
      </trkpt>
      <trkpt lat="48.44057" lon="2.02208">
        <ele>128</ele>
        <time>2011-04-30T09:19:35Z</time>
      </trkpt>
      <trkpt lat="48.44058" lon="2.02213">
        <ele>128</ele>
        <time>2011-04-30T09:19:36Z</time>
      </trkpt>
      <trkpt lat="48.44059" lon="2.02217">
        <ele>128</ele>
        <time>2011-04-30T09:19:37Z</time>
      </trkpt>
      <trkpt lat="48.4406" lon="2.0222">
        <ele>128</ele>
        <time>2011-04-30T09:19:38Z</time>
      </trkpt>
      <trkpt lat="48.44061" lon="2.02223">
        <ele>128</ele>
        <time>2011-04-30T09:19:39Z</time>
      </trkpt>
      <trkpt lat="48.44061" lon="2.02225">
        <ele>128</ele>
        <time>2011-04-30T09:19:40Z</time>
      </trkpt>
      <trkpt lat="48.44062" lon="2.02227">
        <ele>128</ele>
        <time>2011-04-30T09:19:41Z</time>
      </trkpt>
      <trkpt lat="48.44062" lon="2.02229">
        <ele>128</ele>
        <time>2011-04-30T09:19:42Z</time>
      </trkpt>
      <trkpt lat="48.44063" lon="2.02231">
        <ele>128</ele>
        <time>2011-04-30T09:19:43Z</time>
      </trkpt>
      <trkpt lat="48.44064" lon="2.02233">
        <ele>128</ele>
        <time>2011-04-30T09:19:44Z</time>
      </trkpt>
      <trkpt lat="48.44066" lon="2.02237">
        <ele>128</ele>
        <time>2011-04-30T09:19:45Z</time>
      </trkpt>
      <trkpt lat="48.44067" lon="2.0224">
        <ele>128</ele>
        <time>2011-04-30T09:19:46Z</time>
      </trkpt>
      <trkpt lat="48.44068" lon="2.02243">
        <ele>128</ele>
        <time>2011-04-30T09:19:47Z</time>
      </trkpt>
      <trkpt lat="48.44069" lon="2.02247">
        <ele>128</ele>
        <time>2011-04-30T09:19:48Z</time>
      </trkpt>
      <trkpt lat="48.44071" lon="2.02251">
        <ele>129</ele>
        <time>2011-04-30T09:19:49Z</time>
      </trkpt>
      <trkpt lat="48.44072" lon="2.02254">
        <ele>129</ele>
        <time>2011-04-30T09:19:50Z</time>
      </trkpt>
      <trkpt lat="48.44073" lon="2.02257">
        <ele>129</ele>
        <time>2011-04-30T09:19:51Z</time>
      </trkpt>
      <trkpt lat="48.44074" lon="2.0226">
        <ele>129</ele>
        <time>2011-04-30T09:19:52Z</time>
      </trkpt>
      <trkpt lat="48.44075" lon="2.02263">
        <ele>129</ele>
        <time>2011-04-30T09:19:53Z</time>
      </trkpt>
      <trkpt lat="48.44076" lon="2.02267">
        <ele>130</ele>
        <time>2011-04-30T09:19:54Z</time>
      </trkpt>
      <trkpt lat="48.44077" lon="2.0227">
        <ele>130</ele>
        <time>2011-04-30T09:19:55Z</time>
      </trkpt>
      <trkpt lat="48.44078" lon="2.02274">
        <ele>130</ele>
        <time>2011-04-30T09:19:56Z</time>
      </trkpt>
      <trkpt lat="48.44079" lon="2.02278">
        <ele>130</ele>
        <time>2011-04-30T09:19:57Z</time>
      </trkpt>
      <trkpt lat="48.44081" lon="2.02282">
        <ele>131</ele>
        <time>2011-04-30T09:19:58Z</time>
      </trkpt>
      <trkpt lat="48.44082" lon="2.02286">
        <ele>131</ele>
        <time>2011-04-30T09:19:59Z</time>
      </trkpt>
      <trkpt lat="48.44083" lon="2.0229">
        <ele>131</ele>
        <time>2011-04-30T09:20:00Z</time>
      </trkpt>
      <trkpt lat="48.44084" lon="2.02293">
        <ele>130</ele>
        <time>2011-04-30T09:20:01Z</time>
      </trkpt>
      <trkpt lat="48.44084" lon="2.02295">
        <ele>130</ele>
        <time>2011-04-30T09:20:02Z</time>
      </trkpt>
      <trkpt lat="48.44085" lon="2.02296">
        <ele>130</ele>
        <time>2011-04-30T09:20:03Z</time>
      </trkpt>
      <trkpt lat="48.44085" lon="2.02297">
        <ele>130</ele>
        <time>2011-04-30T09:20:04Z</time>
      </trkpt>
      <trkpt lat="48.44086" lon="2.02299">
        <ele>130</ele>
        <time>2011-04-30T09:20:05Z</time>
      </trkpt>
      <trkpt lat="48.44086" lon="2.02301">
        <ele>130</ele>
        <time>2011-04-30T09:20:06Z</time>
      </trkpt>
      <trkpt lat="48.44086" lon="2.02303">
        <ele>130</ele>
        <time>2011-04-30T09:20:07Z</time>
      </trkpt>
      <trkpt lat="48.44087" lon="2.02306">
        <ele>130</ele>
        <time>2011-04-30T09:20:08Z</time>
      </trkpt>
      <trkpt lat="48.44088" lon="2.02308">
        <ele>130</ele>
        <time>2011-04-30T09:20:09Z</time>
      </trkpt>
      <trkpt lat="48.44088" lon="2.02309">
        <ele>131</ele>
        <time>2011-04-30T09:20:10Z</time>
      </trkpt>
      <trkpt lat="48.44089" lon="2.02312">
        <ele>131</ele>
        <time>2011-04-30T09:20:11Z</time>
      </trkpt>
      <trkpt lat="48.44089" lon="2.02314">
        <ele>131</ele>
        <time>2011-04-30T09:20:12Z</time>
      </trkpt>
      <trkpt lat="48.4409" lon="2.02317">
        <ele>131</ele>
        <time>2011-04-30T09:20:13Z</time>
      </trkpt>
      <trkpt lat="48.4409" lon="2.02318">
        <ele>131</ele>
        <time>2011-04-30T09:20:14Z</time>
      </trkpt>
      <trkpt lat="48.4409" lon="2.0232">
        <ele>131</ele>
        <time>2011-04-30T09:20:15Z</time>
      </trkpt>
      <trkpt lat="48.4409" lon="2.02323">
        <ele>131</ele>
        <time>2011-04-30T09:20:16Z</time>
      </trkpt>
      <trkpt lat="48.44091" lon="2.02327">
        <ele>131</ele>
        <time>2011-04-30T09:20:17Z</time>
      </trkpt>
      <trkpt lat="48.44091" lon="2.02329">
        <ele>131</ele>
        <time>2011-04-30T09:20:18Z</time>
      </trkpt>
      <trkpt lat="48.44091" lon="2.02333">
        <ele>131</ele>
        <time>2011-04-30T09:20:19Z</time>
      </trkpt>
      <trkpt lat="48.44092" lon="2.02338">
        <ele>132</ele>
        <time>2011-04-30T09:20:20Z</time>
      </trkpt>
      <trkpt lat="48.44094" lon="2.02343">
        <ele>132</ele>
        <time>2011-04-30T09:20:21Z</time>
      </trkpt>
      <trkpt lat="48.44094" lon="2.02347">
        <ele>132</ele>
        <time>2011-04-30T09:20:22Z</time>
      </trkpt>
      <trkpt lat="48.44095" lon="2.02352">
        <ele>132</ele>
        <time>2011-04-30T09:20:23Z</time>
      </trkpt>
      <trkpt lat="48.44096" lon="2.02356">
        <ele>132</ele>
        <time>2011-04-30T09:20:24Z</time>
      </trkpt>
      <trkpt lat="48.44096" lon="2.0236">
        <ele>132</ele>
        <time>2011-04-30T09:20:25Z</time>
      </trkpt>
      <trkpt lat="48.44097" lon="2.02364">
        <ele>132</ele>
        <time>2011-04-30T09:20:26Z</time>
      </trkpt>
      <trkpt lat="48.44098" lon="2.02369">
        <ele>132</ele>
        <time>2011-04-30T09:20:27Z</time>
      </trkpt>
      <trkpt lat="48.44099" lon="2.02375">
        <ele>132</ele>
        <time>2011-04-30T09:20:28Z</time>
      </trkpt>
      <trkpt lat="48.44099" lon="2.02381">
        <ele>132</ele>
        <time>2011-04-30T09:20:29Z</time>
      </trkpt>
      <trkpt lat="48.441" lon="2.02388">
        <ele>132</ele>
        <time>2011-04-30T09:20:30Z</time>
      </trkpt>
      <trkpt lat="48.44101" lon="2.02394">
        <ele>132</ele>
        <time>2011-04-30T09:20:31Z</time>
      </trkpt>
      <trkpt lat="48.44101" lon="2.02401">
        <ele>132</ele>
        <time>2011-04-30T09:20:32Z</time>
      </trkpt>
      <trkpt lat="48.44102" lon="2.02407">
        <ele>132</ele>
        <time>2011-04-30T09:20:33Z</time>
      </trkpt>
      <trkpt lat="48.44103" lon="2.02414">
        <ele>132</ele>
        <time>2011-04-30T09:20:34Z</time>
      </trkpt>
      <trkpt lat="48.44104" lon="2.0242">
        <ele>132</ele>
        <time>2011-04-30T09:20:35Z</time>
      </trkpt>
      <trkpt lat="48.44105" lon="2.02426">
        <ele>132</ele>
        <time>2011-04-30T09:20:36Z</time>
      </trkpt>
      <trkpt lat="48.44106" lon="2.02433">
        <ele>132</ele>
        <time>2011-04-30T09:20:37Z</time>
      </trkpt>
      <trkpt lat="48.44107" lon="2.02438">
        <ele>131</ele>
        <time>2011-04-30T09:20:38Z</time>
      </trkpt>
      <trkpt lat="48.44108" lon="2.02444">
        <ele>131</ele>
        <time>2011-04-30T09:20:39Z</time>
      </trkpt>
      <trkpt lat="48.44109" lon="2.0245">
        <ele>131</ele>
        <time>2011-04-30T09:20:40Z</time>
      </trkpt>
      <trkpt lat="48.44111" lon="2.02455">
        <ele>131</ele>
        <time>2011-04-30T09:20:41Z</time>
      </trkpt>
      <trkpt lat="48.44112" lon="2.0246">
        <ele>131</ele>
        <time>2011-04-30T09:20:42Z</time>
      </trkpt>
      <trkpt lat="48.44113" lon="2.02464">
        <ele>131</ele>
        <time>2011-04-30T09:20:43Z</time>
      </trkpt>
      <trkpt lat="48.44114" lon="2.02468">
        <ele>131</ele>
        <time>2011-04-30T09:20:44Z</time>
      </trkpt>
      <trkpt lat="48.44114" lon="2.02472">
        <ele>131</ele>
        <time>2011-04-30T09:20:45Z</time>
      </trkpt>
      <trkpt lat="48.44115" lon="2.02476">
        <ele>131</ele>
        <time>2011-04-30T09:20:46Z</time>
      </trkpt>
      <trkpt lat="48.44116" lon="2.02481">
        <ele>131</ele>
        <time>2011-04-30T09:20:47Z</time>
      </trkpt>
      <trkpt lat="48.44117" lon="2.02485">
        <ele>131</ele>
        <time>2011-04-30T09:20:48Z</time>
      </trkpt>
      <trkpt lat="48.44118" lon="2.02489">
        <ele>131</ele>
        <time>2011-04-30T09:20:49Z</time>
      </trkpt>
      <trkpt lat="48.44119" lon="2.02494">
        <ele>131</ele>
        <time>2011-04-30T09:20:50Z</time>
      </trkpt>
      <trkpt lat="48.4412" lon="2.02499">
        <ele>130</ele>
        <time>2011-04-30T09:20:51Z</time>
      </trkpt>
      <trkpt lat="48.44121" lon="2.02504">
        <ele>130</ele>
        <time>2011-04-30T09:20:52Z</time>
      </trkpt>
      <trkpt lat="48.44122" lon="2.02509">
        <ele>130</ele>
        <time>2011-04-30T09:20:53Z</time>
      </trkpt>
      <trkpt lat="48.44123" lon="2.02513">
        <ele>129</ele>
        <time>2011-04-30T09:20:54Z</time>
      </trkpt>
      <trkpt lat="48.44124" lon="2.02518">
        <ele>129</ele>
        <time>2011-04-30T09:20:55Z</time>
      </trkpt>
      <trkpt lat="48.44125" lon="2.02523">
        <ele>129</ele>
        <time>2011-04-30T09:20:56Z</time>
      </trkpt>
      <trkpt lat="48.44126" lon="2.02527">
        <ele>129</ele>
        <time>2011-04-30T09:20:57Z</time>
      </trkpt>
      <trkpt lat="48.44127" lon="2.02532">
        <ele>129</ele>
        <time>2011-04-30T09:20:58Z</time>
      </trkpt>
      <trkpt lat="48.44127" lon="2.02536">
        <ele>129</ele>
        <time>2011-04-30T09:20:59Z</time>
      </trkpt>
      <trkpt lat="48.44128" lon="2.0254">
        <ele>129</ele>
        <time>2011-04-30T09:21:00Z</time>
      </trkpt>
      <trkpt lat="48.44129" lon="2.02545">
        <ele>129</ele>
        <time>2011-04-30T09:21:01Z</time>
      </trkpt>
      <trkpt lat="48.4413" lon="2.02549">
        <ele>129</ele>
        <time>2011-04-30T09:21:02Z</time>
      </trkpt>
      <trkpt lat="48.44131" lon="2.02552">
        <ele>129</ele>
        <time>2011-04-30T09:21:03Z</time>
      </trkpt>
      <trkpt lat="48.44132" lon="2.02556">
        <ele>129</ele>
        <time>2011-04-30T09:21:04Z</time>
      </trkpt>
      <trkpt lat="48.44133" lon="2.0256">
        <ele>129</ele>
        <time>2011-04-30T09:21:05Z</time>
      </trkpt>
      <trkpt lat="48.44133" lon="2.02563">
        <ele>129</ele>
        <time>2011-04-30T09:21:06Z</time>
      </trkpt>
      <trkpt lat="48.44134" lon="2.02566">
        <ele>128</ele>
        <time>2011-04-30T09:21:07Z</time>
      </trkpt>
      <trkpt lat="48.44134" lon="2.02568">
        <ele>128</ele>
        <time>2011-04-30T09:21:08Z</time>
      </trkpt>
      <trkpt lat="48.44134" lon="2.02571">
        <ele>128</ele>
        <time>2011-04-30T09:21:09Z</time>
      </trkpt>
      <trkpt lat="48.44134" lon="2.02574">
        <ele>128</ele>
        <time>2011-04-30T09:21:10Z</time>
      </trkpt>
      <trkpt lat="48.44135" lon="2.02575">
        <ele>128</ele>
        <time>2011-04-30T09:21:11Z</time>
      </trkpt>
      <trkpt lat="48.44135" lon="2.02577">
        <ele>128</ele>
        <time>2011-04-30T09:21:12Z</time>
      </trkpt>
      <trkpt lat="48.44135" lon="2.02579">
        <ele>128</ele>
        <time>2011-04-30T09:21:13Z</time>
      </trkpt>
      <trkpt lat="48.44135" lon="2.02582">
        <ele>128</ele>
        <time>2011-04-30T09:21:14Z</time>
      </trkpt>
      <trkpt lat="48.44136" lon="2.02584">
        <ele>128</ele>
        <time>2011-04-30T09:21:15Z</time>
      </trkpt>
      <trkpt lat="48.44136" lon="2.02586">
        <ele>128</ele>
        <time>2011-04-30T09:21:16Z</time>
      </trkpt>
      <trkpt lat="48.44136" lon="2.02588">
        <ele>128</ele>
        <time>2011-04-30T09:21:17Z</time>
      </trkpt>
      <trkpt lat="48.44137" lon="2.0259">
        <ele>128</ele>
        <time>2011-04-30T09:21:18Z</time>
      </trkpt>
      <trkpt lat="48.44137" lon="2.02591">
        <ele>128</ele>
        <time>2011-04-30T09:21:19Z</time>
      </trkpt>
      <trkpt lat="48.44137" lon="2.02593">
        <ele>128</ele>
        <time>2011-04-30T09:21:20Z</time>
      </trkpt>
      <trkpt lat="48.44137" lon="2.02595">
        <ele>128</ele>
        <time>2011-04-30T09:21:21Z</time>
      </trkpt>
      <trkpt lat="48.44138" lon="2.02597">
        <ele>128</ele>
        <time>2011-04-30T09:21:22Z</time>
      </trkpt>
      <trkpt lat="48.44138" lon="2.026">
        <ele>128</ele>
        <time>2011-04-30T09:21:23Z</time>
      </trkpt>
      <trkpt lat="48.44304" lon="2.03131">
        <ele>125</ele>
        <time>2011-04-30T09:23:52Z</time>
      </trkpt>
      <trkpt lat="48.44305" lon="2.03134">
        <ele>125</ele>
        <time>2011-04-30T09:23:53Z</time>
      </trkpt>
      <trkpt lat="48.44306" lon="2.03137">
        <ele>125</ele>
        <time>2011-04-30T09:23:54Z</time>
      </trkpt>
      <trkpt lat="48.44306" lon="2.03141">
        <ele>125</ele>
        <time>2011-04-30T09:23:55Z</time>
      </trkpt>
      <trkpt lat="48.44307" lon="2.03144">
        <ele>125</ele>
        <time>2011-04-30T09:23:56Z</time>
      </trkpt>
      <trkpt lat="48.44308" lon="2.03147">
        <ele>125</ele>
        <time>2011-04-30T09:23:57Z</time>
      </trkpt>
      <trkpt lat="48.44309" lon="2.0315">
        <ele>125</ele>
        <time>2011-04-30T09:23:58Z</time>
      </trkpt>
      <trkpt lat="48.4431" lon="2.03153">
        <ele>124</ele>
        <time>2011-04-30T09:23:59Z</time>
      </trkpt>
      <trkpt lat="48.44311" lon="2.03156">
        <ele>124</ele>
        <time>2011-04-30T09:24:00Z</time>
      </trkpt>
      <trkpt lat="48.44312" lon="2.03159">
        <ele>124</ele>
        <time>2011-04-30T09:24:01Z</time>
      </trkpt>
      <trkpt lat="48.44314" lon="2.03163">
        <ele>124</ele>
        <time>2011-04-30T09:24:02Z</time>
      </trkpt>
      <trkpt lat="48.44316" lon="2.03167">
        <ele>124</ele>
        <time>2011-04-30T09:24:03Z</time>
      </trkpt>
      <trkpt lat="48.44318" lon="2.03171">
        <ele>124</ele>
        <time>2011-04-30T09:24:04Z</time>
      </trkpt>
      <trkpt lat="48.4432" lon="2.03174">
        <ele>124</ele>
        <time>2011-04-30T09:24:05Z</time>
      </trkpt>
      <trkpt lat="48.44322" lon="2.03178">
        <ele>124</ele>
        <time>2011-04-30T09:24:06Z</time>
      </trkpt>
      <trkpt lat="48.44323" lon="2.03181">
        <ele>124</ele>
        <time>2011-04-30T09:24:07Z</time>
      </trkpt>
      <trkpt lat="48.44325" lon="2.03184">
        <ele>124</ele>
        <time>2011-04-30T09:24:08Z</time>
      </trkpt>
      <trkpt lat="48.44326" lon="2.03186">
        <ele>124</ele>
        <time>2011-04-30T09:24:09Z</time>
      </trkpt>
      <trkpt lat="48.44327" lon="2.03189">
        <ele>124</ele>
        <time>2011-04-30T09:24:10Z</time>
      </trkpt>
      <trkpt lat="48.44329" lon="2.03192">
        <ele>125</ele>
        <time>2011-04-30T09:24:11Z</time>
      </trkpt>
      <trkpt lat="48.4433" lon="2.03194">
        <ele>125</ele>
        <time>2011-04-30T09:24:12Z</time>
      </trkpt>
      <trkpt lat="48.4433" lon="2.03195">
        <ele>125</ele>
        <time>2011-04-30T09:24:13Z</time>
      </trkpt>
      <trkpt lat="48.44331" lon="2.03196">
        <ele>125</ele>
        <time>2011-04-30T09:24:14Z</time>
      </trkpt>
      <trkpt lat="48.44332" lon="2.03198">
        <ele>125</ele>
        <time>2011-04-30T09:24:15Z</time>
      </trkpt>
      <trkpt lat="48.44332" lon="2.03199">
        <ele>125</ele>
        <time>2011-04-30T09:24:16Z</time>
      </trkpt>
      <trkpt lat="48.44333" lon="2.03201">
        <ele>125</ele>
        <time>2011-04-30T09:24:17Z</time>
      </trkpt>
      <trkpt lat="48.44334" lon="2.03204">
        <ele>122</ele>
        <time>2011-04-30T09:24:18Z</time>
      </trkpt>
      <trkpt lat="48.44335" lon="2.03207">
        <ele>122</ele>
        <time>2011-04-30T09:24:19Z</time>
      </trkpt>
      <trkpt lat="48.44337" lon="2.03209">
        <ele>122</ele>
        <time>2011-04-30T09:24:20Z</time>
      </trkpt>
      <trkpt lat="48.44338" lon="2.03212">
        <ele>122</ele>
        <time>2011-04-30T09:24:21Z</time>
      </trkpt>
      <trkpt lat="48.44339" lon="2.03214">
        <ele>122</ele>
        <time>2011-04-30T09:24:22Z</time>
      </trkpt>
      <trkpt lat="48.44339" lon="2.03216">
        <ele>122</ele>
        <time>2011-04-30T09:24:23Z</time>
      </trkpt>
      <trkpt lat="48.4434" lon="2.03217">
        <ele>122</ele>
        <time>2011-04-30T09:24:24Z</time>
      </trkpt>
      <trkpt lat="48.44341" lon="2.03219">
        <ele>122</ele>
        <time>2011-04-30T09:24:25Z</time>
      </trkpt>
      <trkpt lat="48.44342" lon="2.03221">
        <ele>122</ele>
        <time>2011-04-30T09:24:26Z</time>
      </trkpt>
      <trkpt lat="48.44342" lon="2.03222">
        <ele>122</ele>
        <time>2011-04-30T09:24:27Z</time>
      </trkpt>
      <trkpt lat="48.44343" lon="2.03223">
        <ele>122</ele>
        <time>2011-04-30T09:24:28Z</time>
      </trkpt>
      <trkpt lat="48.44344" lon="2.03225">
        <ele>122</ele>
        <time>2011-04-30T09:24:29Z</time>
      </trkpt>
      <trkpt lat="48.44345" lon="2.03227">
        <ele>122</ele>
        <time>2011-04-30T09:24:30Z</time>
      </trkpt>
      <trkpt lat="48.44347" lon="2.03231">
        <ele>122</ele>
        <time>2011-04-30T09:24:31Z</time>
      </trkpt>
      <trkpt lat="48.44348" lon="2.03234">
        <ele>122</ele>
        <time>2011-04-30T09:24:32Z</time>
      </trkpt>
      <trkpt lat="48.4435" lon="2.03238">
        <ele>123</ele>
        <time>2011-04-30T09:24:33Z</time>
      </trkpt>
      <trkpt lat="48.44352" lon="2.03241">
        <ele>123</ele>
        <time>2011-04-30T09:24:34Z</time>
      </trkpt>
      <trkpt lat="48.44353" lon="2.03244">
        <ele>122</ele>
        <time>2011-04-30T09:24:35Z</time>
      </trkpt>
      <trkpt lat="48.44354" lon="2.03247">
        <ele>122</ele>
        <time>2011-04-30T09:24:36Z</time>
      </trkpt>
      <trkpt lat="48.44356" lon="2.0325">
        <ele>123</ele>
        <time>2011-04-30T09:24:37Z</time>
      </trkpt>
      <trkpt lat="48.44357" lon="2.03253">
        <ele>123</ele>
        <time>2011-04-30T09:24:38Z</time>
      </trkpt>
      <trkpt lat="48.44358" lon="2.03255">
        <ele>123</ele>
        <time>2011-04-30T09:24:39Z</time>
      </trkpt>
      <trkpt lat="48.44358" lon="2.03256">
        <ele>123</ele>
        <time>2011-04-30T09:24:40Z</time>
      </trkpt>
      <trkpt lat="48.44359" lon="2.03258">
        <ele>123</ele>
        <time>2011-04-30T09:24:41Z</time>
      </trkpt>
      <trkpt lat="48.4436" lon="2.0326">
        <ele>123</ele>
        <time>2011-04-30T09:24:42Z</time>
      </trkpt>
      <trkpt lat="48.4436" lon="2.03261">
        <ele>123</ele>
        <time>2011-04-30T09:24:43Z</time>
      </trkpt>
      <trkpt lat="48.44361" lon="2.03263">
        <ele>123</ele>
        <time>2011-04-30T09:24:44Z</time>
      </trkpt>
      <trkpt lat="48.44362" lon="2.03265">
        <ele>123</ele>
        <time>2011-04-30T09:24:45Z</time>
      </trkpt>
      <trkpt lat="48.44363" lon="2.03267">
        <ele>123</ele>
        <time>2011-04-30T09:24:46Z</time>
      </trkpt>
      <trkpt lat="48.44364" lon="2.03269">
        <ele>123</ele>
        <time>2011-04-30T09:24:47Z</time>
      </trkpt>
      <trkpt lat="48.44365" lon="2.03271">
        <ele>123</ele>
        <time>2011-04-30T09:24:48Z</time>
      </trkpt>
      <trkpt lat="48.44366" lon="2.03273">
        <ele>123</ele>
        <time>2011-04-30T09:24:49Z</time>
      </trkpt>
      <trkpt lat="48.44368" lon="2.03276">
        <ele>123</ele>
        <time>2011-04-30T09:24:50Z</time>
      </trkpt>
      <trkpt lat="48.44369" lon="2.0328">
        <ele>123</ele>
        <time>2011-04-30T09:24:51Z</time>
      </trkpt>
      <trkpt lat="48.44371" lon="2.03283">
        <ele>123</ele>
        <time>2011-04-30T09:24:52Z</time>
      </trkpt>
      <trkpt lat="48.44373" lon="2.03287">
        <ele>123</ele>
        <time>2011-04-30T09:24:53Z</time>
      </trkpt>
      <trkpt lat="48.44375" lon="2.03292">
        <ele>123</ele>
        <time>2011-04-30T09:24:54Z</time>
      </trkpt>
      <trkpt lat="48.44377" lon="2.03296">
        <ele>123</ele>
        <time>2011-04-30T09:24:55Z</time>
      </trkpt>
      <trkpt lat="48.44379" lon="2.033">
        <ele>123</ele>
        <time>2011-04-30T09:24:56Z</time>
      </trkpt>
      <trkpt lat="48.44381" lon="2.03308">
        <ele>123</ele>
        <time>2011-04-30T09:24:57Z</time>
      </trkpt>
      <trkpt lat="48.44384" lon="2.03315">
        <ele>122</ele>
        <time>2011-04-30T09:24:58Z</time>
      </trkpt>
      <trkpt lat="48.44387" lon="2.03322">
        <ele>122</ele>
        <time>2011-04-30T09:24:59Z</time>
      </trkpt>
      <trkpt lat="48.44388" lon="2.03327">
        <ele>122</ele>
        <time>2011-04-30T09:25:00Z</time>
      </trkpt>
      <trkpt lat="48.4439" lon="2.03332">
        <ele>122</ele>
        <time>2011-04-30T09:25:01Z</time>
      </trkpt>
      <trkpt lat="48.44392" lon="2.03337">
        <ele>124</ele>
        <time>2011-04-30T09:25:02Z</time>
      </trkpt>
      <trkpt lat="48.44394" lon="2.03341">
        <ele>124</ele>
        <time>2011-04-30T09:25:03Z</time>
      </trkpt>
      <trkpt lat="48.44395" lon="2.03344">
        <ele>124</ele>
        <time>2011-04-30T09:25:04Z</time>
      </trkpt>
      <trkpt lat="48.44396" lon="2.03346">
        <ele>124</ele>
        <time>2011-04-30T09:25:05Z</time>
      </trkpt>
      <trkpt lat="48.44396" lon="2.03348">
        <ele>124</ele>
        <time>2011-04-30T09:25:06Z</time>
      </trkpt>
      <trkpt lat="48.44397" lon="2.0335">
        <ele>124</ele>
        <time>2011-04-30T09:25:07Z</time>
      </trkpt>
      <trkpt lat="48.44398" lon="2.03352">
        <ele>124</ele>
        <time>2011-04-30T09:25:08Z</time>
      </trkpt>
      <trkpt lat="48.44398" lon="2.03355">
        <ele>124</ele>
        <time>2011-04-30T09:25:09Z</time>
      </trkpt>
      <trkpt lat="48.44399" lon="2.03357">
        <ele>125</ele>
        <time>2011-04-30T09:25:10Z</time>
      </trkpt>
      <trkpt lat="48.444" lon="2.0336">
        <ele>125</ele>
        <time>2011-04-30T09:25:11Z</time>
      </trkpt>
      <trkpt lat="48.44402" lon="2.03364">
        <ele>125</ele>
        <time>2011-04-30T09:25:12Z</time>
      </trkpt>
      <trkpt lat="48.44403" lon="2.0337">
        <ele>125</ele>
        <time>2011-04-30T09:25:13Z</time>
      </trkpt>
      <trkpt lat="48.44405" lon="2.03375">
        <ele>125</ele>
        <time>2011-04-30T09:25:14Z</time>
      </trkpt>
      <trkpt lat="48.44407" lon="2.0338">
        <ele>125</ele>
        <time>2011-04-30T09:25:15Z</time>
      </trkpt>
      <trkpt lat="48.44409" lon="2.03385">
        <ele>125</ele>
        <time>2011-04-30T09:25:16Z</time>
      </trkpt>
      <trkpt lat="48.4441" lon="2.0339">
        <ele>125</ele>
        <time>2011-04-30T09:25:17Z</time>
      </trkpt>
      <trkpt lat="48.44411" lon="2.03394">
        <ele>125</ele>
        <time>2011-04-30T09:25:18Z</time>
      </trkpt>
      <trkpt lat="48.44413" lon="2.03398">
        <ele>125</ele>
        <time>2011-04-30T09:25:19Z</time>
      </trkpt>
      <trkpt lat="48.44414" lon="2.03401">
        <ele>125</ele>
        <time>2011-04-30T09:25:20Z</time>
      </trkpt>
      <trkpt lat="48.44415" lon="2.03405">
        <ele>125</ele>
        <time>2011-04-30T09:25:21Z</time>
      </trkpt>
      <trkpt lat="48.44416" lon="2.0341">
        <ele>124</ele>
        <time>2011-04-30T09:25:22Z</time>
      </trkpt>
      <trkpt lat="48.44417" lon="2.03414">
        <ele>123</ele>
        <time>2011-04-30T09:25:23Z</time>
      </trkpt>
      <trkpt lat="48.44418" lon="2.03417">
        <ele>123</ele>
        <time>2011-04-30T09:25:24Z</time>
      </trkpt>
      <trkpt lat="48.44419" lon="2.0342">
        <ele>123</ele>
        <time>2011-04-30T09:25:25Z</time>
      </trkpt>
      <trkpt lat="48.4442" lon="2.03422">
        <ele>123</ele>
        <time>2011-04-30T09:25:26Z</time>
      </trkpt>
      <trkpt lat="48.44421" lon="2.03426">
        <ele>123</ele>
        <time>2011-04-30T09:25:27Z</time>
      </trkpt>
      <trkpt lat="48.44422" lon="2.0343">
        <ele>124</ele>
        <time>2011-04-30T09:25:28Z</time>
      </trkpt>
      <trkpt lat="48.44422" lon="2.03433">
        <ele>124</ele>
        <time>2011-04-30T09:25:29Z</time>
      </trkpt>
      <trkpt lat="48.44423" lon="2.03436">
        <ele>124</ele>
        <time>2011-04-30T09:25:30Z</time>
      </trkpt>
      <trkpt lat="48.44424" lon="2.03439">
        <ele>124</ele>
        <time>2011-04-30T09:25:31Z</time>
      </trkpt>
      <trkpt lat="48.44424" lon="2.03442">
        <ele>124</ele>
        <time>2011-04-30T09:25:32Z</time>
      </trkpt>
      <trkpt lat="48.44425" lon="2.03445">
        <ele>124</ele>
        <time>2011-04-30T09:25:33Z</time>
      </trkpt>
      <trkpt lat="48.44425" lon="2.03447">
        <ele>124</ele>
        <time>2011-04-30T09:25:34Z</time>
      </trkpt>
      <trkpt lat="48.44426" lon="2.03452">
        <ele>124</ele>
        <time>2011-04-30T09:25:35Z</time>
      </trkpt>
      <trkpt lat="48.44428" lon="2.03457">
        <ele>124</ele>
        <time>2011-04-30T09:25:36Z</time>
      </trkpt>
      <trkpt lat="48.44429" lon="2.03462">
        <ele>124</ele>
        <time>2011-04-30T09:25:37Z</time>
      </trkpt>
      <trkpt lat="48.44431" lon="2.03469">
        <ele>125</ele>
        <time>2011-04-30T09:25:38Z</time>
      </trkpt>
      <trkpt lat="48.44432" lon="2.03474">
        <ele>125</ele>
        <time>2011-04-30T09:25:39Z</time>
      </trkpt>
      <trkpt lat="48.44432" lon="2.03477">
        <ele>125</ele>
        <time>2011-04-30T09:25:40Z</time>
      </trkpt>
      <trkpt lat="48.44433" lon="2.0348">
        <ele>125</ele>
        <time>2011-04-30T09:25:41Z</time>
      </trkpt>
      <trkpt lat="48.44434" lon="2.03484">
        <ele>125</ele>
        <time>2011-04-30T09:25:42Z</time>
      </trkpt>
      <trkpt lat="48.44434" lon="2.03488">
        <ele>125</ele>
        <time>2011-04-30T09:25:43Z</time>
      </trkpt>
      <trkpt lat="48.44436" lon="2.03493">
        <ele>125</ele>
        <time>2011-04-30T09:25:44Z</time>
      </trkpt>
      <trkpt lat="48.44437" lon="2.03498">
        <ele>125</ele>
        <time>2011-04-30T09:25:45Z</time>
      </trkpt>
      <trkpt lat="48.44438" lon="2.03503">
        <ele>126</ele>
        <time>2011-04-30T09:25:46Z</time>
      </trkpt>
      <trkpt lat="48.44439" lon="2.03508">
        <ele>126</ele>
        <time>2011-04-30T09:25:47Z</time>
      </trkpt>
      <trkpt lat="48.4444" lon="2.03513">
        <ele>126</ele>
        <time>2011-04-30T09:25:48Z</time>
      </trkpt>
      <trkpt lat="48.44441" lon="2.03518">
        <ele>126</ele>
        <time>2011-04-30T09:25:49Z</time>
      </trkpt>
      <trkpt lat="48.44441" lon="2.03521">
        <ele>125</ele>
        <time>2011-04-30T09:25:50Z</time>
      </trkpt>
      <trkpt lat="48.44442" lon="2.03523">
        <ele>125</ele>
        <time>2011-04-30T09:25:51Z</time>
      </trkpt>
      <trkpt lat="48.44442" lon="2.03525">
        <ele>125</ele>
        <time>2011-04-30T09:25:52Z</time>
      </trkpt>
      <trkpt lat="48.44443" lon="2.03527">
        <ele>125</ele>
        <time>2011-04-30T09:25:53Z</time>
      </trkpt>
      <trkpt lat="48.44443" lon="2.03531">
        <ele>125</ele>
        <time>2011-04-30T09:25:54Z</time>
      </trkpt>
      <trkpt lat="48.44443" lon="2.03533">
        <ele>125</ele>
        <time>2011-04-30T09:25:55Z</time>
      </trkpt>
      <trkpt lat="48.44444" lon="2.03536">
        <ele>125</ele>
        <time>2011-04-30T09:25:56Z</time>
      </trkpt>
      <trkpt lat="48.44444" lon="2.03539">
        <ele>125</ele>
        <time>2011-04-30T09:25:57Z</time>
      </trkpt>
      <trkpt lat="48.44444" lon="2.03541">
        <ele>125</ele>
        <time>2011-04-30T09:25:58Z</time>
      </trkpt>
      <trkpt lat="48.44445" lon="2.03543">
        <ele>125</ele>
        <time>2011-04-30T09:25:59Z</time>
      </trkpt>
      <trkpt lat="48.44445" lon="2.03545">
        <ele>125</ele>
        <time>2011-04-30T09:26:00Z</time>
      </trkpt>
      <trkpt lat="48.44445" lon="2.03548">
        <ele>125</ele>
        <time>2011-04-30T09:26:01Z</time>
      </trkpt>
      <trkpt lat="48.44446" lon="2.03552">
        <ele>125</ele>
        <time>2011-04-30T09:26:02Z</time>
      </trkpt>
      <trkpt lat="48.44447" lon="2.03555">
        <ele>125</ele>
        <time>2011-04-30T09:26:03Z</time>
      </trkpt>
      <trkpt lat="48.44448" lon="2.03559">
        <ele>126</ele>
        <time>2011-04-30T09:26:04Z</time>
      </trkpt>
      <trkpt lat="48.44449" lon="2.03562">
        <ele>126</ele>
        <time>2011-04-30T09:26:05Z</time>
      </trkpt>
      <trkpt lat="48.44449" lon="2.03565">
        <ele>126</ele>
        <time>2011-04-30T09:26:06Z</time>
      </trkpt>
      <trkpt lat="48.4445" lon="2.03568">
        <ele>126</ele>
        <time>2011-04-30T09:26:07Z</time>
      </trkpt>
      <trkpt lat="48.4445" lon="2.03571">
        <ele>126</ele>
        <time>2011-04-30T09:26:08Z</time>
      </trkpt>
      <trkpt lat="48.44451" lon="2.03573">
        <ele>126</ele>
        <time>2011-04-30T09:26:09Z</time>
      </trkpt>
      <trkpt lat="48.44451" lon="2.03576">
        <ele>126</ele>
        <time>2011-04-30T09:26:10Z</time>
      </trkpt>
      <trkpt lat="48.44452" lon="2.03578">
        <ele>125</ele>
        <time>2011-04-30T09:26:11Z</time>
      </trkpt>
      <trkpt lat="48.44452" lon="2.0358">
        <ele>125</ele>
        <time>2011-04-30T09:26:12Z</time>
      </trkpt>
      <trkpt lat="48.44452" lon="2.03583">
        <ele>125</ele>
        <time>2011-04-30T09:26:13Z</time>
      </trkpt>
      <trkpt lat="48.44452" lon="2.03585">
        <ele>127</ele>
        <time>2011-04-30T09:26:14Z</time>
      </trkpt>
      <trkpt lat="48.44453" lon="2.03588">
        <ele>126</ele>
        <time>2011-04-30T09:26:15Z</time>
      </trkpt>
      <trkpt lat="48.44453" lon="2.03591">
        <ele>126</ele>
        <time>2011-04-30T09:26:16Z</time>
      </trkpt>
      <trkpt lat="48.44454" lon="2.03593">
        <ele>126</ele>
        <time>2011-04-30T09:26:17Z</time>
      </trkpt>
      <trkpt lat="48.44454" lon="2.03596">
        <ele>126</ele>
        <time>2011-04-30T09:26:18Z</time>
      </trkpt>
      <trkpt lat="48.44455" lon="2.036">
        <ele>126</ele>
        <time>2011-04-30T09:26:19Z</time>
      </trkpt>
      <trkpt lat="48.44455" lon="2.03604">
        <ele>126</ele>
        <time>2011-04-30T09:26:20Z</time>
      </trkpt>
      <trkpt lat="48.44457" lon="2.0361">
        <ele>126</ele>
        <time>2011-04-30T09:26:21Z</time>
      </trkpt>
      <trkpt lat="48.44458" lon="2.03615">
        <ele>126</ele>
        <time>2011-04-30T09:26:22Z</time>
      </trkpt>
      <trkpt lat="48.44459" lon="2.03621">
        <ele>126</ele>
        <time>2011-04-30T09:26:23Z</time>
      </trkpt>
      <trkpt lat="48.4446" lon="2.03627">
        <ele>126</ele>
        <time>2011-04-30T09:26:24Z</time>
      </trkpt>
      <trkpt lat="48.44461" lon="2.03632">
        <ele>126</ele>
        <time>2011-04-30T09:26:25Z</time>
      </trkpt>
      <trkpt lat="48.44462" lon="2.03638">
        <ele>126</ele>
        <time>2011-04-30T09:26:26Z</time>
      </trkpt>
      <trkpt lat="48.44463" lon="2.03644">
        <ele>126</ele>
        <time>2011-04-30T09:26:27Z</time>
      </trkpt>
      <trkpt lat="48.44464" lon="2.0365">
        <ele>126</ele>
        <time>2011-04-30T09:26:28Z</time>
      </trkpt>
      <trkpt lat="48.44465" lon="2.03655">
        <ele>126</ele>
        <time>2011-04-30T09:26:29Z</time>
      </trkpt>
      <trkpt lat="48.44466" lon="2.03658">
        <ele>126</ele>
        <time>2011-04-30T09:26:30Z</time>
      </trkpt>
      <trkpt lat="48.44466" lon="2.03662">
        <ele>126</ele>
        <time>2011-04-30T09:26:31Z</time>
      </trkpt>
      <trkpt lat="48.44467" lon="2.03665">
        <ele>126</ele>
        <time>2011-04-30T09:26:32Z</time>
      </trkpt>
      <trkpt lat="48.44468" lon="2.03669">
        <ele>126</ele>
        <time>2011-04-30T09:26:33Z</time>
      </trkpt>
      <trkpt lat="48.44468" lon="2.03671">
        <ele>126</ele>
        <time>2011-04-30T09:26:34Z</time>
      </trkpt>
      <trkpt lat="48.44469" lon="2.03675">
        <ele>126</ele>
        <time>2011-04-30T09:26:35Z</time>
      </trkpt>
      <trkpt lat="48.4447" lon="2.03679">
        <ele>126</ele>
        <time>2011-04-30T09:26:36Z</time>
      </trkpt>
      <trkpt lat="48.44471" lon="2.03684">
        <ele>126</ele>
        <time>2011-04-30T09:26:37Z</time>
      </trkpt>
      <trkpt lat="48.44472" lon="2.03688">
        <ele>126</ele>
        <time>2011-04-30T09:26:38Z</time>
      </trkpt>
      <trkpt lat="48.44473" lon="2.03692">
        <ele>126</ele>
        <time>2011-04-30T09:26:39Z</time>
      </trkpt>
      <trkpt lat="48.44474" lon="2.03695">
        <ele>126</ele>
        <time>2011-04-30T09:26:40Z</time>
      </trkpt>
      <trkpt lat="48.44475" lon="2.037">
        <ele>126</ele>
        <time>2011-04-30T09:26:41Z</time>
      </trkpt>
      <trkpt lat="48.44477" lon="2.03706">
        <ele>126</ele>
        <time>2011-04-30T09:26:42Z</time>
      </trkpt>
      <trkpt lat="48.44479" lon="2.03712">
        <ele>126</ele>
        <time>2011-04-30T09:26:43Z</time>
      </trkpt>
      <trkpt lat="48.44481" lon="2.03718">
        <ele>125</ele>
        <time>2011-04-30T09:26:44Z</time>
      </trkpt>
      <trkpt lat="48.44483" lon="2.03724">
        <ele>125</ele>
        <time>2011-04-30T09:26:45Z</time>
      </trkpt>
      <trkpt lat="48.44484" lon="2.0373">
        <ele>125</ele>
        <time>2011-04-30T09:26:46Z</time>
      </trkpt>
      <trkpt lat="48.44487" lon="2.03738">
        <ele>124</ele>
        <time>2011-04-30T09:26:47Z</time>
      </trkpt>
      <trkpt lat="48.4449" lon="2.03748">
        <ele>123</ele>
        <time>2011-04-30T09:26:48Z</time>
      </trkpt>
      <trkpt lat="48.44493" lon="2.03757">
        <ele>124</ele>
        <time>2011-04-30T09:26:49Z</time>
      </trkpt>
      <trkpt lat="48.44495" lon="2.03764">
        <ele>124</ele>
        <time>2011-04-30T09:26:50Z</time>
      </trkpt>
      <trkpt lat="48.44497" lon="2.03769">
        <ele>125</ele>
        <time>2011-04-30T09:26:51Z</time>
      </trkpt>
      <trkpt lat="48.44498" lon="2.03773">
        <ele>125</ele>
        <time>2011-04-30T09:26:52Z</time>
      </trkpt>
      <trkpt lat="48.44499" lon="2.03776">
        <ele>126</ele>
        <time>2011-04-30T09:26:53Z</time>
      </trkpt>
      <trkpt lat="48.445" lon="2.03778">
        <ele>126</ele>
        <time>2011-04-30T09:26:54Z</time>
      </trkpt>
      <trkpt lat="48.445" lon="2.0378">
        <ele>123</ele>
        <time>2011-04-30T09:26:55Z</time>
      </trkpt>
      <trkpt lat="48.44501" lon="2.03781">
        <ele>123</ele>
        <time>2011-04-30T09:26:56Z</time>
      </trkpt>
      <trkpt lat="48.44501" lon="2.03782">
        <ele>123</ele>
        <time>2011-04-30T09:26:57Z</time>
      </trkpt>
      <trkpt lat="48.44502" lon="2.03783">
        <ele>123</ele>
        <time>2011-04-30T09:26:58Z</time>
      </trkpt>
      <trkpt lat="48.44502" lon="2.03785">
        <ele>123</ele>
        <time>2011-04-30T09:26:59Z</time>
      </trkpt>
      <trkpt lat="48.44503" lon="2.03786">
        <ele>123</ele>
        <time>2011-04-30T09:27:00Z</time>
      </trkpt>
      <trkpt lat="48.44503" lon="2.03788">
        <ele>124</ele>
        <time>2011-04-30T09:27:01Z</time>
      </trkpt>
      <trkpt lat="48.44504" lon="2.0379">
        <ele>124</ele>
        <time>2011-04-30T09:27:02Z</time>
      </trkpt>
      <trkpt lat="48.44504" lon="2.03792">
        <ele>124</ele>
        <time>2011-04-30T09:27:03Z</time>
      </trkpt>
      <trkpt lat="48.44504" lon="2.03793">
        <ele>124</ele>
        <time>2011-04-30T09:27:04Z</time>
      </trkpt>
      <trkpt lat="48.44504" lon="2.03795">
        <ele>124</ele>
        <time>2011-04-30T09:27:05Z</time>
      </trkpt>
      <trkpt lat="48.44504" lon="2.03796">
        <ele>124</ele>
        <time>2011-04-30T09:27:06Z</time>
      </trkpt>
      <trkpt lat="48.44505" lon="2.03797">
        <ele>124</ele>
        <time>2011-04-30T09:27:07Z</time>
      </trkpt>
      <trkpt lat="48.44505" lon="2.03798">
        <ele>124</ele>
        <time>2011-04-30T09:27:08Z</time>
      </trkpt>
      <trkpt lat="48.44505" lon="2.03799">
        <ele>124</ele>
        <time>2011-04-30T09:27:09Z</time>
      </trkpt>
      <trkpt lat="48.44505" lon="2.03799">
        <ele>124</ele>
        <time>2011-04-30T09:27:10Z</time>
      </trkpt>
      <trkpt lat="48.44505" lon="2.038">
        <ele>124</ele>
        <time>2011-04-30T09:27:11Z</time>
      </trkpt>
      <trkpt lat="48.44505" lon="2.038">
        <ele>124</ele>
        <time>2011-04-30T09:27:12Z</time>
      </trkpt>
      <trkpt lat="48.44505" lon="2.03801">
        <ele>124</ele>
        <time>2011-04-30T09:27:13Z</time>
      </trkpt>
      <trkpt lat="48.44506" lon="2.03801">
        <ele>124</ele>
        <time>2011-04-30T09:27:14Z</time>
      </trkpt>
      <trkpt lat="48.44506" lon="2.03802">
        <ele>124</ele>
        <time>2011-04-30T09:27:15Z</time>
      </trkpt>
      <trkpt lat="48.44506" lon="2.03802">
        <ele>124</ele>
        <time>2011-04-30T09:27:16Z</time>
      </trkpt>
      <trkpt lat="48.44506" lon="2.03802">
        <ele>124</ele>
        <time>2011-04-30T09:27:17Z</time>
      </trkpt>
      <trkpt lat="48.44506" lon="2.03802">
        <ele>124</ele>
        <time>2011-04-30T09:27:18Z</time>
      </trkpt>
      <trkpt lat="48.44506" lon="2.03802">
        <ele>124</ele>
        <time>2011-04-30T09:27:19Z</time>
      </trkpt>
      <trkpt lat="48.44506" lon="2.03802">
        <ele>124</ele>
        <time>2011-04-30T09:27:20Z</time>
      </trkpt>
      <trkpt lat="48.44506" lon="2.03802">
        <ele>124</ele>
        <time>2011-04-30T09:27:21Z</time>
      </trkpt>
      <trkpt lat="48.44505" lon="2.03801">
        <ele>124</ele>
        <time>2011-04-30T09:27:22Z</time>
      </trkpt>
      <trkpt lat="48.44505" lon="2.03801">
        <ele>124</ele>
        <time>2011-04-30T09:27:23Z</time>
      </trkpt>
      <trkpt lat="48.44504" lon="2.038">
        <ele>124</ele>
        <time>2011-04-30T09:27:24Z</time>
      </trkpt>
      <trkpt lat="48.44504" lon="2.038">
        <ele>124</ele>
        <time>2011-04-30T09:27:25Z</time>
      </trkpt>
      <trkpt lat="48.44503" lon="2.03799">
        <ele>124</ele>
        <time>2011-04-30T09:27:26Z</time>
      </trkpt>
      <trkpt lat="48.44503" lon="2.03799">
        <ele>124</ele>
        <time>2011-04-30T09:27:27Z</time>
      </trkpt>
      <trkpt lat="48.44503" lon="2.03799">
        <ele>124</ele>
        <time>2011-04-30T09:27:28Z</time>
      </trkpt>
      <trkpt lat="48.44502" lon="2.03799">
        <ele>124</ele>
        <time>2011-04-30T09:27:29Z</time>
      </trkpt>
      <trkpt lat="48.44502" lon="2.03799">
        <ele>124</ele>
        <time>2011-04-30T09:27:30Z</time>
      </trkpt>
      <trkpt lat="48.44502" lon="2.03799">
        <ele>124</ele>
        <time>2011-04-30T09:27:31Z</time>
      </trkpt>
      <trkpt lat="48.44502" lon="2.03799">
        <ele>124</ele>
        <time>2011-04-30T09:27:32Z</time>
      </trkpt>
      <trkpt lat="48.44501" lon="2.038">
        <ele>124</ele>
        <time>2011-04-30T09:27:33Z</time>
      </trkpt>
      <trkpt lat="48.44501" lon="2.038">
        <ele>124</ele>
        <time>2011-04-30T09:27:34Z</time>
      </trkpt>
      <trkpt lat="48.44501" lon="2.03801">
        <ele>124</ele>
        <time>2011-04-30T09:27:35Z</time>
      </trkpt>
      <trkpt lat="48.44501" lon="2.03801">
        <ele>124</ele>
        <time>2011-04-30T09:27:36Z</time>
      </trkpt>
      <trkpt lat="48.44501" lon="2.03801">
        <ele>124</ele>
        <time>2011-04-30T09:27:37Z</time>
      </trkpt>
      <trkpt lat="48.44502" lon="2.03801">
        <ele>124</ele>
        <time>2011-04-30T09:27:38Z</time>
      </trkpt>
      <trkpt lat="48.44503" lon="2.03802">
        <ele>124</ele>
        <time>2011-04-30T09:27:39Z</time>
      </trkpt>
      <trkpt lat="48.44503" lon="2.03802">
        <ele>124</ele>
        <time>2011-04-30T09:27:40Z</time>
      </trkpt>
      <trkpt lat="48.44504" lon="2.03803">
        <ele>124</ele>
        <time>2011-04-30T09:27:41Z</time>
      </trkpt>
      <trkpt lat="48.44504" lon="2.03803">
        <ele>124</ele>
        <time>2011-04-30T09:27:42Z</time>
      </trkpt>
      <trkpt lat="48.44505" lon="2.03804">
        <ele>124</ele>
        <time>2011-04-30T09:27:43Z</time>
      </trkpt>
      <trkpt lat="48.44506" lon="2.03805">
        <ele>124</ele>
        <time>2011-04-30T09:27:44Z</time>
      </trkpt>
      <trkpt lat="48.44507" lon="2.03807">
        <ele>124</ele>
        <time>2011-04-30T09:27:45Z</time>
      </trkpt>
      <trkpt lat="48.44507" lon="2.03809">
        <ele>124</ele>
        <time>2011-04-30T09:27:46Z</time>
      </trkpt>
      <trkpt lat="48.44508" lon="2.03811">
        <ele>124</ele>
        <time>2011-04-30T09:27:47Z</time>
      </trkpt>
      <trkpt lat="48.44509" lon="2.03813">
        <ele>124</ele>
        <time>2011-04-30T09:27:48Z</time>
      </trkpt>
      <trkpt lat="48.4451" lon="2.03815">
        <ele>124</ele>
        <time>2011-04-30T09:27:49Z</time>
      </trkpt>
      <trkpt lat="48.4451" lon="2.03816">
        <ele>124</ele>
        <time>2011-04-30T09:27:50Z</time>
      </trkpt>
      <trkpt lat="48.44511" lon="2.03818">
        <ele>124</ele>
        <time>2011-04-30T09:27:51Z</time>
      </trkpt>
      <trkpt lat="48.44512" lon="2.03819">
        <ele>124</ele>
        <time>2011-04-30T09:27:52Z</time>
      </trkpt>
      <trkpt lat="48.44513" lon="2.03821">
        <ele>124</ele>
        <time>2011-04-30T09:27:53Z</time>
      </trkpt>
      <trkpt lat="48.44513" lon="2.03823">
        <ele>124</ele>
        <time>2011-04-30T09:27:54Z</time>
      </trkpt>
      <trkpt lat="48.44514" lon="2.03824">
        <ele>124</ele>
        <time>2011-04-30T09:27:55Z</time>
      </trkpt>
      <trkpt lat="48.44515" lon="2.03826">
        <ele>124</ele>
        <time>2011-04-30T09:27:56Z</time>
      </trkpt>
      <trkpt lat="48.44516" lon="2.03828">
        <ele>124</ele>
        <time>2011-04-30T09:27:57Z</time>
      </trkpt>
      <trkpt lat="48.44516" lon="2.0383">
        <ele>124</ele>
        <time>2011-04-30T09:27:58Z</time>
      </trkpt>
      <trkpt lat="48.44517" lon="2.03832">
        <ele>124</ele>
        <time>2011-04-30T09:27:59Z</time>
      </trkpt>
      <trkpt lat="48.44518" lon="2.03834">
        <ele>125</ele>
        <time>2011-04-30T09:28:00Z</time>
      </trkpt>
      <trkpt lat="48.44519" lon="2.03835">
        <ele>125</ele>
        <time>2011-04-30T09:28:01Z</time>
      </trkpt>
      <trkpt lat="48.44519" lon="2.03837">
        <ele>125</ele>
        <time>2011-04-30T09:28:02Z</time>
      </trkpt>
      <trkpt lat="48.4452" lon="2.03839">
        <ele>125</ele>
        <time>2011-04-30T09:28:03Z</time>
      </trkpt>
      <trkpt lat="48.44521" lon="2.03841">
        <ele>126</ele>
        <time>2011-04-30T09:28:04Z</time>
      </trkpt>
      <trkpt lat="48.44521" lon="2.03842">
        <ele>126</ele>
        <time>2011-04-30T09:28:05Z</time>
      </trkpt>
      <trkpt lat="48.44522" lon="2.03844">
        <ele>126</ele>
        <time>2011-04-30T09:28:06Z</time>
      </trkpt>
      <trkpt lat="48.44523" lon="2.03845">
        <ele>126</ele>
        <time>2011-04-30T09:28:07Z</time>
      </trkpt>
      <trkpt lat="48.44524" lon="2.03847">
        <ele>126</ele>
        <time>2011-04-30T09:28:08Z</time>
      </trkpt>
      <trkpt lat="48.44524" lon="2.03848">
        <ele>126</ele>
        <time>2011-04-30T09:28:09Z</time>
      </trkpt>
      <trkpt lat="48.44525" lon="2.0385">
        <ele>126</ele>
        <time>2011-04-30T09:28:10Z</time>
      </trkpt>
      <trkpt lat="48.44526" lon="2.03851">
        <ele>126</ele>
        <time>2011-04-30T09:28:11Z</time>
      </trkpt>
      <trkpt lat="48.44527" lon="2.03853">
        <ele>126</ele>
        <time>2011-04-30T09:28:12Z</time>
      </trkpt>
      <trkpt lat="48.44528" lon="2.03855">
        <ele>126</ele>
        <time>2011-04-30T09:28:13Z</time>
      </trkpt>
      <trkpt lat="48.44528" lon="2.03857">
        <ele>126</ele>
        <time>2011-04-30T09:28:14Z</time>
      </trkpt>
      <trkpt lat="48.44529" lon="2.03858">
        <ele>126</ele>
        <time>2011-04-30T09:28:15Z</time>
      </trkpt>
      <trkpt lat="48.4453" lon="2.0386">
        <ele>126</ele>
        <time>2011-04-30T09:28:16Z</time>
      </trkpt>
      <trkpt lat="48.44531" lon="2.03862">
        <ele>126</ele>
        <time>2011-04-30T09:28:17Z</time>
      </trkpt>
      <trkpt lat="48.44531" lon="2.03863">
        <ele>126</ele>
        <time>2011-04-30T09:28:18Z</time>
      </trkpt>
      <trkpt lat="48.44532" lon="2.03865">
        <ele>126</ele>
        <time>2011-04-30T09:28:19Z</time>
      </trkpt>
      <trkpt lat="48.44534" lon="2.03868">
        <ele>126</ele>
        <time>2011-04-30T09:28:20Z</time>
      </trkpt>
      <trkpt lat="48.44535" lon="2.0387">
        <ele>126</ele>
        <time>2011-04-30T09:28:21Z</time>
      </trkpt>
      <trkpt lat="48.44536" lon="2.03873">
        <ele>126</ele>
        <time>2011-04-30T09:28:22Z</time>
      </trkpt>
      <trkpt lat="48.44537" lon="2.03875">
        <ele>126</ele>
        <time>2011-04-30T09:28:23Z</time>
      </trkpt>
      <trkpt lat="48.44538" lon="2.03878">
        <ele>126</ele>
        <time>2011-04-30T09:28:24Z</time>
      </trkpt>
      <trkpt lat="48.4454" lon="2.0388">
        <ele>126</ele>
        <time>2011-04-30T09:28:25Z</time>
      </trkpt>
      <trkpt lat="48.44541" lon="2.03882">
        <ele>126</ele>
        <time>2011-04-30T09:28:26Z</time>
      </trkpt>
      <trkpt lat="48.44542" lon="2.03885">
        <ele>126</ele>
        <time>2011-04-30T09:28:27Z</time>
      </trkpt>
      <trkpt lat="48.44544" lon="2.03888">
        <ele>126</ele>
        <time>2011-04-30T09:28:28Z</time>
      </trkpt>
      <trkpt lat="48.44545" lon="2.0389">
        <ele>126</ele>
        <time>2011-04-30T09:28:29Z</time>
      </trkpt>
      <trkpt lat="48.44547" lon="2.03894">
        <ele>126</ele>
        <time>2011-04-30T09:28:30Z</time>
      </trkpt>
      <trkpt lat="48.44549" lon="2.03898">
        <ele>126</ele>
        <time>2011-04-30T09:28:31Z</time>
      </trkpt>
      <trkpt lat="48.44551" lon="2.03901">
        <ele>126</ele>
        <time>2011-04-30T09:28:32Z</time>
      </trkpt>
      <trkpt lat="48.44553" lon="2.03906">
        <ele>125</ele>
        <time>2011-04-30T09:28:33Z</time>
      </trkpt>
      <trkpt lat="48.44554" lon="2.03911">
        <ele>125</ele>
        <time>2011-04-30T09:28:34Z</time>
      </trkpt>
      <trkpt lat="48.44556" lon="2.03915">
        <ele>125</ele>
        <time>2011-04-30T09:28:35Z</time>
      </trkpt>
      <trkpt lat="48.44558" lon="2.03919">
        <ele>126</ele>
        <time>2011-04-30T09:28:36Z</time>
      </trkpt>
      <trkpt lat="48.4456" lon="2.03922">
        <ele>126</ele>
        <time>2011-04-30T09:28:37Z</time>
      </trkpt>
      <trkpt lat="48.44561" lon="2.03925">
        <ele>126</ele>
        <time>2011-04-30T09:28:38Z</time>
      </trkpt>
      <trkpt lat="48.44563" lon="2.03928">
        <ele>126</ele>
        <time>2011-04-30T09:28:39Z</time>
      </trkpt>
      <trkpt lat="48.44565" lon="2.03931">
        <ele>126</ele>
        <time>2011-04-30T09:28:40Z</time>
      </trkpt>
      <trkpt lat="48.44566" lon="2.03935">
        <ele>126</ele>
        <time>2011-04-30T09:28:41Z</time>
      </trkpt>
      <trkpt lat="48.44568" lon="2.03938">
        <ele>126</ele>
        <time>2011-04-30T09:28:42Z</time>
      </trkpt>
      <trkpt lat="48.4457" lon="2.03941">
        <ele>126</ele>
        <time>2011-04-30T09:28:43Z</time>
      </trkpt>
      <trkpt lat="48.44571" lon="2.03944">
        <ele>126</ele>
        <time>2011-04-30T09:28:44Z</time>
      </trkpt>
      <trkpt lat="48.44573" lon="2.03947">
        <ele>126</ele>
        <time>2011-04-30T09:28:45Z</time>
      </trkpt>
      <trkpt lat="48.44574" lon="2.0395">
        <ele>126</ele>
        <time>2011-04-30T09:28:46Z</time>
      </trkpt>
      <trkpt lat="48.44576" lon="2.03953">
        <ele>126</ele>
        <time>2011-04-30T09:28:47Z</time>
      </trkpt>
      <trkpt lat="48.44577" lon="2.03956">
        <ele>126</ele>
        <time>2011-04-30T09:28:48Z</time>
      </trkpt>
      <trkpt lat="48.44579" lon="2.0396">
        <ele>126</ele>
        <time>2011-04-30T09:28:49Z</time>
      </trkpt>
      <trkpt lat="48.4458" lon="2.03964">
        <ele>126</ele>
        <time>2011-04-30T09:28:50Z</time>
      </trkpt>
      <trkpt lat="48.44582" lon="2.03967">
        <ele>125</ele>
        <time>2011-04-30T09:28:51Z</time>
      </trkpt>
      <trkpt lat="48.44583" lon="2.0397">
        <ele>125</ele>
        <time>2011-04-30T09:28:52Z</time>
      </trkpt>
      <trkpt lat="48.44585" lon="2.03973">
        <ele>125</ele>
        <time>2011-04-30T09:28:53Z</time>
      </trkpt>
      <trkpt lat="48.44586" lon="2.03975">
        <ele>125</ele>
        <time>2011-04-30T09:28:54Z</time>
      </trkpt>
      <trkpt lat="48.44588" lon="2.03978">
        <ele>124</ele>
        <time>2011-04-30T09:28:55Z</time>
      </trkpt>
      <trkpt lat="48.44589" lon="2.03981">
        <ele>124</ele>
        <time>2011-04-30T09:28:56Z</time>
      </trkpt>
      <trkpt lat="48.44591" lon="2.03983">
        <ele>124</ele>
        <time>2011-04-30T09:28:57Z</time>
      </trkpt>
      <trkpt lat="48.44592" lon="2.03986">
        <ele>124</ele>
        <time>2011-04-30T09:28:58Z</time>
      </trkpt>
      <trkpt lat="48.44594" lon="2.03989">
        <ele>124</ele>
        <time>2011-04-30T09:28:59Z</time>
      </trkpt>
      <trkpt lat="48.44595" lon="2.03991">
        <ele>124</ele>
        <time>2011-04-30T09:29:00Z</time>
      </trkpt>
      <trkpt lat="48.44597" lon="2.03994">
        <ele>124</ele>
        <time>2011-04-30T09:29:01Z</time>
      </trkpt>
      <trkpt lat="48.44598" lon="2.03997">
        <ele>124</ele>
        <time>2011-04-30T09:29:02Z</time>
      </trkpt>
      <trkpt lat="48.446" lon="2.04">
        <ele>124</ele>
        <time>2011-04-30T09:29:03Z</time>
      </trkpt>
      <trkpt lat="48.44601" lon="2.04003">
        <ele>124</ele>
        <time>2011-04-30T09:29:04Z</time>
      </trkpt>
      <trkpt lat="48.44603" lon="2.04007">
        <ele>124</ele>
        <time>2011-04-30T09:29:05Z</time>
      </trkpt>
      <trkpt lat="48.44604" lon="2.0401">
        <ele>124</ele>
        <time>2011-04-30T09:29:06Z</time>
      </trkpt>
      <trkpt lat="48.44606" lon="2.04013">
        <ele>124</ele>
        <time>2011-04-30T09:29:07Z</time>
      </trkpt>
      <trkpt lat="48.44607" lon="2.04017">
        <ele>124</ele>
        <time>2011-04-30T09:29:08Z</time>
      </trkpt>
      <trkpt lat="48.44609" lon="2.04021">
        <ele>124</ele>
        <time>2011-04-30T09:29:09Z</time>
      </trkpt>
      <trkpt lat="48.44611" lon="2.04024">
        <ele>124</ele>
        <time>2011-04-30T09:29:10Z</time>
      </trkpt>
      <trkpt lat="48.44612" lon="2.04027">
        <ele>125</ele>
        <time>2011-04-30T09:29:11Z</time>
      </trkpt>
      <trkpt lat="48.44614" lon="2.04031">
        <ele>125</ele>
        <time>2011-04-30T09:29:12Z</time>
      </trkpt>
      <trkpt lat="48.44615" lon="2.04034">
        <ele>125</ele>
        <time>2011-04-30T09:29:13Z</time>
      </trkpt>
      <trkpt lat="48.44617" lon="2.04037">
        <ele>125</ele>
        <time>2011-04-30T09:29:14Z</time>
      </trkpt>
      <trkpt lat="48.44619" lon="2.0404">
        <ele>125</ele>
        <time>2011-04-30T09:29:15Z</time>
      </trkpt>
      <trkpt lat="48.4462" lon="2.04043">
        <ele>125</ele>
        <time>2011-04-30T09:29:16Z</time>
      </trkpt>
      <trkpt lat="48.44622" lon="2.04045">
        <ele>125</ele>
        <time>2011-04-30T09:29:17Z</time>
      </trkpt>
      <trkpt lat="48.44623" lon="2.04048">
        <ele>125</ele>
        <time>2011-04-30T09:29:18Z</time>
      </trkpt>
      <trkpt lat="48.44625" lon="2.04051">
        <ele>125</ele>
        <time>2011-04-30T09:29:19Z</time>
      </trkpt>
      <trkpt lat="48.44626" lon="2.04055">
        <ele>125</ele>
        <time>2011-04-30T09:29:20Z</time>
      </trkpt>
      <trkpt lat="48.44628" lon="2.04058">
        <ele>125</ele>
        <time>2011-04-30T09:29:21Z</time>
      </trkpt>
      <trkpt lat="48.44629" lon="2.04061">
        <ele>125</ele>
        <time>2011-04-30T09:29:22Z</time>
      </trkpt>
      <trkpt lat="48.44631" lon="2.04064">
        <ele>125</ele>
        <time>2011-04-30T09:29:23Z</time>
      </trkpt>
      <trkpt lat="48.44632" lon="2.04067">
        <ele>124</ele>
        <time>2011-04-30T09:29:24Z</time>
      </trkpt>
      <trkpt lat="48.44633" lon="2.0407">
        <ele>124</ele>
        <time>2011-04-30T09:29:25Z</time>
      </trkpt>
      <trkpt lat="48.44635" lon="2.04072">
        <ele>124</ele>
        <time>2011-04-30T09:29:26Z</time>
      </trkpt>
      <trkpt lat="48.44636" lon="2.04075">
        <ele>124</ele>
        <time>2011-04-30T09:29:27Z</time>
      </trkpt>
      <trkpt lat="48.44637" lon="2.04078">
        <ele>124</ele>
        <time>2011-04-30T09:29:28Z</time>
      </trkpt>
      <trkpt lat="48.44639" lon="2.04081">
        <ele>124</ele>
        <time>2011-04-30T09:29:29Z</time>
      </trkpt>
      <trkpt lat="48.4464" lon="2.04084">
        <ele>125</ele>
        <time>2011-04-30T09:29:30Z</time>
      </trkpt>
      <trkpt lat="48.44641" lon="2.04086">
        <ele>125</ele>
        <time>2011-04-30T09:29:31Z</time>
      </trkpt>
      <trkpt lat="48.44642" lon="2.04089">
        <ele>125</ele>
        <time>2011-04-30T09:29:32Z</time>
      </trkpt>
      <trkpt lat="48.44643" lon="2.04091">
        <ele>125</ele>
        <time>2011-04-30T09:29:33Z</time>
      </trkpt>
      <trkpt lat="48.44644" lon="2.04093">
        <ele>125</ele>
        <time>2011-04-30T09:29:34Z</time>
      </trkpt>
      <trkpt lat="48.44645" lon="2.04096">
        <ele>125</ele>
        <time>2011-04-30T09:29:35Z</time>
      </trkpt>
      <trkpt lat="48.44646" lon="2.04098">
        <ele>125</ele>
        <time>2011-04-30T09:29:36Z</time>
      </trkpt>
      <trkpt lat="48.44647" lon="2.04101">
        <ele>125</ele>
        <time>2011-04-30T09:29:37Z</time>
      </trkpt>
      <trkpt lat="48.44648" lon="2.04104">
        <ele>125</ele>
        <time>2011-04-30T09:29:38Z</time>
      </trkpt>
      <trkpt lat="48.44649" lon="2.04106">
        <ele>125</ele>
        <time>2011-04-30T09:29:39Z</time>
      </trkpt>
      <trkpt lat="48.4465" lon="2.04109">
        <ele>125</ele>
        <time>2011-04-30T09:29:40Z</time>
      </trkpt>
      <trkpt lat="48.44652" lon="2.04113">
        <ele>125</ele>
        <time>2011-04-30T09:29:41Z</time>
      </trkpt>
      <trkpt lat="48.44653" lon="2.04116">
        <ele>125</ele>
        <time>2011-04-30T09:29:42Z</time>
      </trkpt>
      <trkpt lat="48.44654" lon="2.0412">
        <ele>125</ele>
        <time>2011-04-30T09:29:43Z</time>
      </trkpt>
      <trkpt lat="48.44655" lon="2.04124">
        <ele>125</ele>
        <time>2011-04-30T09:29:44Z</time>
      </trkpt>
      <trkpt lat="48.44656" lon="2.04128">
        <ele>125</ele>
        <time>2011-04-30T09:29:45Z</time>
      </trkpt>
      <trkpt lat="48.44658" lon="2.04132">
        <ele>125</ele>
        <time>2011-04-30T09:29:46Z</time>
      </trkpt>
      <trkpt lat="48.44659" lon="2.04135">
        <ele>125</ele>
        <time>2011-04-30T09:29:47Z</time>
      </trkpt>
      <trkpt lat="48.4466" lon="2.04139">
        <ele>125</ele>
        <time>2011-04-30T09:29:48Z</time>
      </trkpt>
      <trkpt lat="48.44661" lon="2.04143">
        <ele>125</ele>
        <time>2011-04-30T09:29:49Z</time>
      </trkpt>
      <trkpt lat="48.44662" lon="2.04146">
        <ele>125</ele>
        <time>2011-04-30T09:29:50Z</time>
      </trkpt>
      <trkpt lat="48.44663" lon="2.0415">
        <ele>125</ele>
        <time>2011-04-30T09:29:51Z</time>
      </trkpt>
      <trkpt lat="48.44664" lon="2.04154">
        <ele>125</ele>
        <time>2011-04-30T09:29:52Z</time>
      </trkpt>
      <trkpt lat="48.44665" lon="2.04158">
        <ele>124</ele>
        <time>2011-04-30T09:29:53Z</time>
      </trkpt>
      <trkpt lat="48.44666" lon="2.04163">
        <ele>124</ele>
        <time>2011-04-30T09:29:54Z</time>
      </trkpt>
      <trkpt lat="48.44667" lon="2.04168">
        <ele>123</ele>
        <time>2011-04-30T09:29:55Z</time>
      </trkpt>
      <trkpt lat="48.44668" lon="2.04173">
        <ele>124</ele>
        <time>2011-04-30T09:29:56Z</time>
      </trkpt>
      <trkpt lat="48.44669" lon="2.04178">
        <ele>124</ele>
        <time>2011-04-30T09:29:57Z</time>
      </trkpt>
      <trkpt lat="48.4467" lon="2.04183">
        <ele>124</ele>
        <time>2011-04-30T09:29:58Z</time>
      </trkpt>
      <trkpt lat="48.44672" lon="2.04189">
        <ele>125</ele>
        <time>2011-04-30T09:29:59Z</time>
      </trkpt>
      <trkpt lat="48.44673" lon="2.04194">
        <ele>125</ele>
        <time>2011-04-30T09:30:00Z</time>
      </trkpt>
      <trkpt lat="48.44674" lon="2.04199">
        <ele>125</ele>
        <time>2011-04-30T09:30:01Z</time>
      </trkpt>
      <trkpt lat="48.44675" lon="2.04203">
        <ele>125</ele>
        <time>2011-04-30T09:30:02Z</time>
      </trkpt>
      <trkpt lat="48.44676" lon="2.04206">
        <ele>125</ele>
        <time>2011-04-30T09:30:03Z</time>
      </trkpt>
      <trkpt lat="48.44677" lon="2.04209">
        <ele>125</ele>
        <time>2011-04-30T09:30:04Z</time>
      </trkpt>
      <trkpt lat="48.44678" lon="2.04212">
        <ele>125</ele>
        <time>2011-04-30T09:30:05Z</time>
      </trkpt>
      <trkpt lat="48.44679" lon="2.04214">
        <ele>125</ele>
        <time>2011-04-30T09:30:06Z</time>
      </trkpt>
      <trkpt lat="48.44679" lon="2.04216">
        <ele>125</ele>
        <time>2011-04-30T09:30:07Z</time>
      </trkpt>
      <trkpt lat="48.4468" lon="2.04219">
        <ele>125</ele>
        <time>2011-04-30T09:30:08Z</time>
      </trkpt>
      <trkpt lat="48.4468" lon="2.04221">
        <ele>125</ele>
        <time>2011-04-30T09:30:09Z</time>
      </trkpt>
      <trkpt lat="48.44681" lon="2.04224">
        <ele>125</ele>
        <time>2011-04-30T09:30:10Z</time>
      </trkpt>
      <trkpt lat="48.44681" lon="2.04227">
        <ele>125</ele>
        <time>2011-04-30T09:30:11Z</time>
      </trkpt>
      <trkpt lat="48.44681" lon="2.0423">
        <ele>126</ele>
        <time>2011-04-30T09:30:12Z</time>
      </trkpt>
      <trkpt lat="48.44681" lon="2.04234">
        <ele>126</ele>
        <time>2011-04-30T09:30:13Z</time>
      </trkpt>
      <trkpt lat="48.44682" lon="2.04237">
        <ele>126</ele>
        <time>2011-04-30T09:30:14Z</time>
      </trkpt>
      <trkpt lat="48.44682" lon="2.04241">
        <ele>126</ele>
        <time>2011-04-30T09:30:15Z</time>
      </trkpt>
      <trkpt lat="48.44683" lon="2.04244">
        <ele>126</ele>
        <time>2011-04-30T09:30:16Z</time>
      </trkpt>
      <trkpt lat="48.44683" lon="2.04247">
        <ele>126</ele>
        <time>2011-04-30T09:30:17Z</time>
      </trkpt>
      <trkpt lat="48.44684" lon="2.0425">
        <ele>126</ele>
        <time>2011-04-30T09:30:18Z</time>
      </trkpt>
      <trkpt lat="48.44685" lon="2.04254">
        <ele>126</ele>
        <time>2011-04-30T09:30:19Z</time>
      </trkpt>
      <trkpt lat="48.44685" lon="2.04257">
        <ele>126</ele>
        <time>2011-04-30T09:30:20Z</time>
      </trkpt>
      <trkpt lat="48.44686" lon="2.04259">
        <ele>126</ele>
        <time>2011-04-30T09:30:21Z</time>
      </trkpt>
      <trkpt lat="48.44686" lon="2.04262">
        <ele>126</ele>
        <time>2011-04-30T09:30:22Z</time>
      </trkpt>
      <trkpt lat="48.44687" lon="2.04265">
        <ele>126</ele>
        <time>2011-04-30T09:30:23Z</time>
      </trkpt>
      <trkpt lat="48.44688" lon="2.0427">
        <ele>126</ele>
        <time>2011-04-30T09:30:24Z</time>
      </trkpt>
      <trkpt lat="48.44689" lon="2.04273">
        <ele>126</ele>
        <time>2011-04-30T09:30:25Z</time>
      </trkpt>
      <trkpt lat="48.4469" lon="2.04278">
        <ele>126</ele>
        <time>2011-04-30T09:30:26Z</time>
      </trkpt>
      <trkpt lat="48.44692" lon="2.04284">
        <ele>126</ele>
        <time>2011-04-30T09:30:27Z</time>
      </trkpt>
      <trkpt lat="48.44693" lon="2.04288">
        <ele>126</ele>
        <time>2011-04-30T09:30:28Z</time>
      </trkpt>
      <trkpt lat="48.44694" lon="2.04292">
        <ele>126</ele>
        <time>2011-04-30T09:30:29Z</time>
      </trkpt>
      <trkpt lat="48.44695" lon="2.04296">
        <ele>126</ele>
        <time>2011-04-30T09:30:30Z</time>
      </trkpt>
      <trkpt lat="48.44696" lon="2.043">
        <ele>126</ele>
        <time>2011-04-30T09:30:31Z</time>
      </trkpt>
      <trkpt lat="48.44697" lon="2.04302">
        <ele>126</ele>
        <time>2011-04-30T09:30:32Z</time>
      </trkpt>
      <trkpt lat="48.44697" lon="2.04305">
        <ele>126</ele>
        <time>2011-04-30T09:30:33Z</time>
      </trkpt>
      <trkpt lat="48.44698" lon="2.04308">
        <ele>126</ele>
        <time>2011-04-30T09:30:34Z</time>
      </trkpt>
      <trkpt lat="48.44699" lon="2.0431">
        <ele>126</ele>
        <time>2011-04-30T09:30:35Z</time>
      </trkpt>
      <trkpt lat="48.447" lon="2.04311">
        <ele>126</ele>
        <time>2011-04-30T09:30:36Z</time>
      </trkpt>
      <trkpt lat="48.44701" lon="2.04313">
        <ele>126</ele>
        <time>2011-04-30T09:30:37Z</time>
      </trkpt>
      <trkpt lat="48.44702" lon="2.04314">
        <ele>126</ele>
        <time>2011-04-30T09:30:38Z</time>
      </trkpt>
      <trkpt lat="48.44702" lon="2.04315">
        <ele>126</ele>
        <time>2011-04-30T09:30:39Z</time>
      </trkpt>
      <trkpt lat="48.44703" lon="2.04315">
        <ele>126</ele>
        <time>2011-04-30T09:30:40Z</time>
      </trkpt>
      <trkpt lat="48.44703" lon="2.04316">
        <ele>126</ele>
        <time>2011-04-30T09:30:41Z</time>
      </trkpt>
      <trkpt lat="48.44704" lon="2.04316">
        <ele>126</ele>
        <time>2011-04-30T09:30:42Z</time>
      </trkpt>
      <trkpt lat="48.44704" lon="2.04317">
        <ele>126</ele>
        <time>2011-04-30T09:30:43Z</time>
      </trkpt>
      <trkpt lat="48.44704" lon="2.04317">
        <ele>126</ele>
        <time>2011-04-30T09:30:44Z</time>
      </trkpt>
      <trkpt lat="48.44705" lon="2.04317">
        <ele>126</ele>
        <time>2011-04-30T09:30:45Z</time>
      </trkpt>
      <trkpt lat="48.44705" lon="2.04317">
        <ele>126</ele>
        <time>2011-04-30T09:30:46Z</time>
      </trkpt>
      <trkpt lat="48.44704" lon="2.04317">
        <ele>126</ele>
        <time>2011-04-30T09:30:47Z</time>
      </trkpt>
      <trkpt lat="48.44704" lon="2.04317">
        <ele>126</ele>
        <time>2011-04-30T09:30:48Z</time>
      </trkpt>
      <trkpt lat="48.44704" lon="2.04317">
        <ele>126</ele>
        <time>2011-04-30T09:30:49Z</time>
      </trkpt>
      <trkpt lat="48.44703" lon="2.04316">
        <ele>126</ele>
        <time>2011-04-30T09:30:50Z</time>
      </trkpt>
      <trkpt lat="48.44703" lon="2.04316">
        <ele>126</ele>
        <time>2011-04-30T09:30:51Z</time>
      </trkpt>
      <trkpt lat="48.44702" lon="2.04315">
        <ele>126</ele>
        <time>2011-04-30T09:30:52Z</time>
      </trkpt>
      <trkpt lat="48.44702" lon="2.04315">
        <ele>126</ele>
        <time>2011-04-30T09:30:53Z</time>
      </trkpt>
      <trkpt lat="48.44701" lon="2.04314">
        <ele>126</ele>
        <time>2011-04-30T09:30:54Z</time>
      </trkpt>
      <trkpt lat="48.44701" lon="2.04313">
        <ele>126</ele>
        <time>2011-04-30T09:30:55Z</time>
      </trkpt>
      <trkpt lat="48.447" lon="2.04313">
        <ele>126</ele>
        <time>2011-04-30T09:30:56Z</time>
      </trkpt>
      <trkpt lat="48.447" lon="2.04313">
        <ele>126</ele>
        <time>2011-04-30T09:30:57Z</time>
      </trkpt>
      <trkpt lat="48.447" lon="2.04312">
        <ele>126</ele>
        <time>2011-04-30T09:30:58Z</time>
      </trkpt>
      <trkpt lat="48.44699" lon="2.04312">
        <ele>126</ele>
        <time>2011-04-30T09:30:59Z</time>
      </trkpt>
      <trkpt lat="48.44699" lon="2.04311">
        <ele>126</ele>
        <time>2011-04-30T09:31:00Z</time>
      </trkpt>
      <trkpt lat="48.44699" lon="2.04311">
        <ele>126</ele>
        <time>2011-04-30T09:31:01Z</time>
      </trkpt>
      <trkpt lat="48.44699" lon="2.0431">
        <ele>126</ele>
        <time>2011-04-30T09:31:02Z</time>
      </trkpt>
      <trkpt lat="48.44699" lon="2.04309">
        <ele>126</ele>
        <time>2011-04-30T09:31:03Z</time>
      </trkpt>
      <trkpt lat="48.447" lon="2.04309">
        <ele>126</ele>
        <time>2011-04-30T09:31:04Z</time>
      </trkpt>
      <trkpt lat="48.447" lon="2.04309">
        <ele>126</ele>
        <time>2011-04-30T09:31:05Z</time>
      </trkpt>
      <trkpt lat="48.447" lon="2.04308">
        <ele>126</ele>
        <time>2011-04-30T09:31:06Z</time>
      </trkpt>
      <trkpt lat="48.447" lon="2.04308">
        <ele>126</ele>
        <time>2011-04-30T09:31:07Z</time>
      </trkpt>
      <trkpt lat="48.447" lon="2.04308">
        <ele>126</ele>
        <time>2011-04-30T09:31:08Z</time>
      </trkpt>
      <trkpt lat="48.447" lon="2.04308">
        <ele>126</ele>
        <time>2011-04-30T09:31:09Z</time>
      </trkpt>
      <trkpt lat="48.447" lon="2.04309">
        <ele>126</ele>
        <time>2011-04-30T09:31:10Z</time>
      </trkpt>
      <trkpt lat="48.447" lon="2.04309">
        <ele>126</ele>
        <time>2011-04-30T09:31:11Z</time>
      </trkpt>
      <trkpt lat="48.447" lon="2.0431">
        <ele>126</ele>
        <time>2011-04-30T09:31:12Z</time>
      </trkpt>
      <trkpt lat="48.447" lon="2.04311">
        <ele>126</ele>
        <time>2011-04-30T09:31:13Z</time>
      </trkpt>
      <trkpt lat="48.447" lon="2.04312">
        <ele>126</ele>
        <time>2011-04-30T09:31:14Z</time>
      </trkpt>
      <trkpt lat="48.447" lon="2.04312">
        <ele>126</ele>
        <time>2011-04-30T09:31:15Z</time>
      </trkpt>
      <trkpt lat="48.447" lon="2.04313">
        <ele>126</ele>
        <time>2011-04-30T09:31:16Z</time>
      </trkpt>
      <trkpt lat="48.447" lon="2.04314">
        <ele>126</ele>
        <time>2011-04-30T09:31:17Z</time>
      </trkpt>
      <trkpt lat="48.447" lon="2.04314">
        <ele>126</ele>
        <time>2011-04-30T09:31:18Z</time>
      </trkpt>
      <trkpt lat="48.447" lon="2.04314">
        <ele>126</ele>
        <time>2011-04-30T09:31:19Z</time>
      </trkpt>
      <trkpt lat="48.447" lon="2.04315">
        <ele>126</ele>
        <time>2011-04-30T09:31:20Z</time>
      </trkpt>
      <trkpt lat="48.447" lon="2.04315">
        <ele>126</ele>
        <time>2011-04-30T09:31:21Z</time>
      </trkpt>
      <trkpt lat="48.44699" lon="2.04316">
        <ele>126</ele>
        <time>2011-04-30T09:31:22Z</time>
      </trkpt>
      <trkpt lat="48.44699" lon="2.04316">
        <ele>126</ele>
        <time>2011-04-30T09:31:23Z</time>
      </trkpt>
      <trkpt lat="48.44699" lon="2.04317">
        <ele>126</ele>
        <time>2011-04-30T09:31:24Z</time>
      </trkpt>
      <trkpt lat="48.44699" lon="2.04318">
        <ele>126</ele>
        <time>2011-04-30T09:31:25Z</time>
      </trkpt>
      <trkpt lat="48.44698" lon="2.04318">
        <ele>126</ele>
        <time>2011-04-30T09:31:26Z</time>
      </trkpt>
      <trkpt lat="48.44698" lon="2.0432">
        <ele>126</ele>
        <time>2011-04-30T09:31:27Z</time>
      </trkpt>
      <trkpt lat="48.44697" lon="2.04321">
        <ele>126</ele>
        <time>2011-04-30T09:31:28Z</time>
      </trkpt>
      <trkpt lat="48.44696" lon="2.04323">
        <ele>126</ele>
        <time>2011-04-30T09:31:29Z</time>
      </trkpt>
      <trkpt lat="48.44695" lon="2.04326">
        <ele>126</ele>
        <time>2011-04-30T09:31:30Z</time>
      </trkpt>
      <trkpt lat="48.44694" lon="2.04328">
        <ele>126</ele>
        <time>2011-04-30T09:31:31Z</time>
      </trkpt>
      <trkpt lat="48.44694" lon="2.04332">
        <ele>126</ele>
        <time>2011-04-30T09:31:32Z</time>
      </trkpt>
      <trkpt lat="48.44694" lon="2.04335">
        <ele>126</ele>
        <time>2011-04-30T09:31:33Z</time>
      </trkpt>
      <trkpt lat="48.44694" lon="2.04338">
        <ele>126</ele>
        <time>2011-04-30T09:31:34Z</time>
      </trkpt>
      <trkpt lat="48.44694" lon="2.04341">
        <ele>126</ele>
        <time>2011-04-30T09:31:35Z</time>
      </trkpt>
      <trkpt lat="48.44694" lon="2.04343">
        <ele>126</ele>
        <time>2011-04-30T09:31:36Z</time>
      </trkpt>
      <trkpt lat="48.44694" lon="2.04345">
        <ele>126</ele>
        <time>2011-04-30T09:31:37Z</time>
      </trkpt>
      <trkpt lat="48.44694" lon="2.04346">
        <ele>126</ele>
        <time>2011-04-30T09:31:38Z</time>
      </trkpt>
      <trkpt lat="48.44694" lon="2.04348">
        <ele>126</ele>
        <time>2011-04-30T09:31:39Z</time>
      </trkpt>
      <trkpt lat="48.44694" lon="2.04348">
        <ele>126</ele>
        <time>2011-04-30T09:31:40Z</time>
      </trkpt>
      <trkpt lat="48.44694" lon="2.04349">
        <ele>126</ele>
        <time>2011-04-30T09:31:41Z</time>
      </trkpt>
      <trkpt lat="48.44694" lon="2.04349">
        <ele>126</ele>
        <time>2011-04-30T09:31:42Z</time>
      </trkpt>
      <trkpt lat="48.44694" lon="2.0435">
        <ele>126</ele>
        <time>2011-04-30T09:31:43Z</time>
      </trkpt>
      <trkpt lat="48.44694" lon="2.0435">
        <ele>126</ele>
        <time>2011-04-30T09:31:44Z</time>
      </trkpt>
      <trkpt lat="48.44694" lon="2.0435">
        <ele>126</ele>
        <time>2011-04-30T09:31:45Z</time>
      </trkpt>
      <trkpt lat="48.44694" lon="2.04351">
        <ele>126</ele>
        <time>2011-04-30T09:31:46Z</time>
      </trkpt>
      <trkpt lat="48.44695" lon="2.04351">
        <ele>126</ele>
        <time>2011-04-30T09:31:47Z</time>
      </trkpt>
      <trkpt lat="48.44695" lon="2.04351">
        <ele>126</ele>
        <time>2011-04-30T09:31:48Z</time>
      </trkpt>
      <trkpt lat="48.44695" lon="2.04352">
        <ele>126</ele>
        <time>2011-04-30T09:31:49Z</time>
      </trkpt>
      <trkpt lat="48.44695" lon="2.04352">
        <ele>126</ele>
        <time>2011-04-30T09:31:50Z</time>
      </trkpt>
      <trkpt lat="48.44695" lon="2.04352">
        <ele>126</ele>
        <time>2011-04-30T09:31:51Z</time>
      </trkpt>
      <trkpt lat="48.44695" lon="2.04352">
        <ele>126</ele>
        <time>2011-04-30T09:31:52Z</time>
      </trkpt>
      <trkpt lat="48.44694" lon="2.04352">
        <ele>126</ele>
        <time>2011-04-30T09:31:53Z</time>
      </trkpt>
      <trkpt lat="48.44694" lon="2.04352">
        <ele>126</ele>
        <time>2011-04-30T09:31:54Z</time>
      </trkpt>
      <trkpt lat="48.44694" lon="2.04352">
        <ele>126</ele>
        <time>2011-04-30T09:31:55Z</time>
      </trkpt>
      <trkpt lat="48.44693" lon="2.04352">
        <ele>126</ele>
        <time>2011-04-30T09:31:56Z</time>
      </trkpt>
      <trkpt lat="48.44693" lon="2.04352">
        <ele>126</ele>
        <time>2011-04-30T09:31:57Z</time>
      </trkpt>
      <trkpt lat="48.44693" lon="2.04352">
        <ele>126</ele>
        <time>2011-04-30T09:31:58Z</time>
      </trkpt>
      <trkpt lat="48.44693" lon="2.04352">
        <ele>126</ele>
        <time>2011-04-30T09:31:59Z</time>
      </trkpt>
      <trkpt lat="48.44693" lon="2.04352">
        <ele>126</ele>
        <time>2011-04-30T09:32:00Z</time>
      </trkpt>
      <trkpt lat="48.44693" lon="2.04352">
        <ele>126</ele>
        <time>2011-04-30T09:32:01Z</time>
      </trkpt>
      <trkpt lat="48.44693" lon="2.04352">
        <ele>126</ele>
        <time>2011-04-30T09:32:02Z</time>
      </trkpt>
      <trkpt lat="48.44694" lon="2.04353">
        <ele>126</ele>
        <time>2011-04-30T09:32:03Z</time>
      </trkpt>
      <trkpt lat="48.44694" lon="2.04353">
        <ele>126</ele>
        <time>2011-04-30T09:32:04Z</time>
      </trkpt>
      <trkpt lat="48.44694" lon="2.04354">
        <ele>126</ele>
        <time>2011-04-30T09:32:05Z</time>
      </trkpt>
      <trkpt lat="48.44694" lon="2.04355">
        <ele>126</ele>
        <time>2011-04-30T09:32:06Z</time>
      </trkpt>
      <trkpt lat="48.44694" lon="2.04356">
        <ele>126</ele>
        <time>2011-04-30T09:32:07Z</time>
      </trkpt>
      <trkpt lat="48.44695" lon="2.04357">
        <ele>126</ele>
        <time>2011-04-30T09:32:08Z</time>
      </trkpt>
      <trkpt lat="48.44695" lon="2.04358">
        <ele>126</ele>
        <time>2011-04-30T09:32:09Z</time>
      </trkpt>
      <trkpt lat="48.44695" lon="2.04359">
        <ele>126</ele>
        <time>2011-04-30T09:32:10Z</time>
      </trkpt>
      <trkpt lat="48.44695" lon="2.0436">
        <ele>126</ele>
        <time>2011-04-30T09:32:11Z</time>
      </trkpt>
      <trkpt lat="48.44696" lon="2.04361">
        <ele>126</ele>
        <time>2011-04-30T09:32:12Z</time>
      </trkpt>
      <trkpt lat="48.44696" lon="2.04362">
        <ele>126</ele>
        <time>2011-04-30T09:32:13Z</time>
      </trkpt>
      <trkpt lat="48.44697" lon="2.04364">
        <ele>126</ele>
        <time>2011-04-30T09:32:14Z</time>
      </trkpt>
      <trkpt lat="48.44697" lon="2.04365">
        <ele>126</ele>
        <time>2011-04-30T09:32:15Z</time>
      </trkpt>
      <trkpt lat="48.44697" lon="2.04366">
        <ele>126</ele>
        <time>2011-04-30T09:32:16Z</time>
      </trkpt>
      <trkpt lat="48.44698" lon="2.04368">
        <ele>126</ele>
        <time>2011-04-30T09:32:17Z</time>
      </trkpt>
      <trkpt lat="48.44698" lon="2.04369">
        <ele>126</ele>
        <time>2011-04-30T09:32:18Z</time>
      </trkpt>
      <trkpt lat="48.44699" lon="2.04372">
        <ele>126</ele>
        <time>2011-04-30T09:32:19Z</time>
      </trkpt>
      <trkpt lat="48.447" lon="2.04375">
        <ele>126</ele>
        <time>2011-04-30T09:32:20Z</time>
      </trkpt>
      <trkpt lat="48.447" lon="2.04377">
        <ele>126</ele>
        <time>2011-04-30T09:32:21Z</time>
      </trkpt>
      <trkpt lat="48.44701" lon="2.04379">
        <ele>126</ele>
        <time>2011-04-30T09:32:22Z</time>
      </trkpt>
      <trkpt lat="48.44701" lon="2.04382">
        <ele>125</ele>
        <time>2011-04-30T09:32:23Z</time>
      </trkpt>
      <trkpt lat="48.44702" lon="2.04384">
        <ele>125</ele>
        <time>2011-04-30T09:32:24Z</time>
      </trkpt>
      <trkpt lat="48.44703" lon="2.04386">
        <ele>125</ele>
        <time>2011-04-30T09:32:25Z</time>
      </trkpt>
      <trkpt lat="48.44703" lon="2.04388">
        <ele>125</ele>
        <time>2011-04-30T09:32:26Z</time>
      </trkpt>
      <trkpt lat="48.44704" lon="2.04391">
        <ele>125</ele>
        <time>2011-04-30T09:32:27Z</time>
      </trkpt>
      <trkpt lat="48.44704" lon="2.04393">
        <ele>125</ele>
        <time>2011-04-30T09:32:28Z</time>
      </trkpt>
      <trkpt lat="48.44704" lon="2.04394">
        <ele>125</ele>
        <time>2011-04-30T09:32:29Z</time>
      </trkpt>
      <trkpt lat="48.44705" lon="2.04395">
        <ele>125</ele>
        <time>2011-04-30T09:32:30Z</time>
      </trkpt>
      <trkpt lat="48.44705" lon="2.04397">
        <ele>125</ele>
        <time>2011-04-30T09:32:31Z</time>
      </trkpt>
      <trkpt lat="48.44706" lon="2.04398">
        <ele>125</ele>
        <time>2011-04-30T09:32:32Z</time>
      </trkpt>
      <trkpt lat="48.44706" lon="2.044">
        <ele>125</ele>
        <time>2011-04-30T09:32:33Z</time>
      </trkpt>
      <trkpt lat="48.44707" lon="2.04403">
        <ele>125</ele>
        <time>2011-04-30T09:32:34Z</time>
      </trkpt>
      <trkpt lat="48.44707" lon="2.04405">
        <ele>125</ele>
        <time>2011-04-30T09:32:35Z</time>
      </trkpt>
      <trkpt lat="48.44707" lon="2.04408">
        <ele>125</ele>
        <time>2011-04-30T09:32:36Z</time>
      </trkpt>
      <trkpt lat="48.44708" lon="2.0441">
        <ele>125</ele>
        <time>2011-04-30T09:32:37Z</time>
      </trkpt>
      <trkpt lat="48.44708" lon="2.04413">
        <ele>125</ele>
        <time>2011-04-30T09:32:38Z</time>
      </trkpt>
      <trkpt lat="48.44708" lon="2.04415">
        <ele>125</ele>
        <time>2011-04-30T09:32:39Z</time>
      </trkpt>
      <trkpt lat="48.44708" lon="2.04417">
        <ele>125</ele>
        <time>2011-04-30T09:32:40Z</time>
      </trkpt>
      <trkpt lat="48.44708" lon="2.0442">
        <ele>125</ele>
        <time>2011-04-30T09:32:41Z</time>
      </trkpt>
      <trkpt lat="48.44709" lon="2.04422">
        <ele>125</ele>
        <time>2011-04-30T09:32:42Z</time>
      </trkpt>
      <trkpt lat="48.44709" lon="2.04424">
        <ele>125</ele>
        <time>2011-04-30T09:32:43Z</time>
      </trkpt>
      <trkpt lat="48.44709" lon="2.04427">
        <ele>125</ele>
        <time>2011-04-30T09:32:44Z</time>
      </trkpt>
      <trkpt lat="48.44709" lon="2.04431">
        <ele>125</ele>
        <time>2011-04-30T09:32:45Z</time>
      </trkpt>
      <trkpt lat="48.44709" lon="2.04433">
        <ele>125</ele>
        <time>2011-04-30T09:32:46Z</time>
      </trkpt>
      <trkpt lat="48.44709" lon="2.04437">
        <ele>125</ele>
        <time>2011-04-30T09:32:47Z</time>
      </trkpt>
      <trkpt lat="48.4471" lon="2.04439">
        <ele>125</ele>
        <time>2011-04-30T09:32:48Z</time>
      </trkpt>
      <trkpt lat="48.4471" lon="2.04441">
        <ele>125</ele>
        <time>2011-04-30T09:32:49Z</time>
      </trkpt>
      <trkpt lat="48.4471" lon="2.04444">
        <ele>125</ele>
        <time>2011-04-30T09:32:50Z</time>
      </trkpt>
      <trkpt lat="48.4471" lon="2.04448">
        <ele>125</ele>
        <time>2011-04-30T09:32:51Z</time>
      </trkpt>
      <trkpt lat="48.4471" lon="2.04451">
        <ele>125</ele>
        <time>2011-04-30T09:32:52Z</time>
      </trkpt>
      <trkpt lat="48.44711" lon="2.04456">
        <ele>125</ele>
        <time>2011-04-30T09:32:53Z</time>
      </trkpt>
      <trkpt lat="48.44712" lon="2.04462">
        <ele>125</ele>
        <time>2011-04-30T09:32:54Z</time>
      </trkpt>
      <trkpt lat="48.44713" lon="2.04467">
        <ele>124</ele>
        <time>2011-04-30T09:32:55Z</time>
      </trkpt>
      <trkpt lat="48.44714" lon="2.04472">
        <ele>124</ele>
        <time>2011-04-30T09:32:56Z</time>
      </trkpt>
      <trkpt lat="48.44714" lon="2.04477">
        <ele>124</ele>
        <time>2011-04-30T09:32:57Z</time>
      </trkpt>
      <trkpt lat="48.44716" lon="2.04482">
        <ele>124</ele>
        <time>2011-04-30T09:32:58Z</time>
      </trkpt>
      <trkpt lat="48.44718" lon="2.0449">
        <ele>124</ele>
        <time>2011-04-30T09:32:59Z</time>
      </trkpt>
      <trkpt lat="48.4472" lon="2.04497">
        <ele>123</ele>
        <time>2011-04-30T09:33:00Z</time>
      </trkpt>
      <trkpt lat="48.44721" lon="2.04501">
        <ele>123</ele>
        <time>2011-04-30T09:33:01Z</time>
      </trkpt>
      <trkpt lat="48.44722" lon="2.04505">
        <ele>123</ele>
        <time>2011-04-30T09:33:02Z</time>
      </trkpt>
      <trkpt lat="48.44723" lon="2.0451">
        <ele>123</ele>
        <time>2011-04-30T09:33:03Z</time>
      </trkpt>
      <trkpt lat="48.44724" lon="2.04514">
        <ele>123</ele>
        <time>2011-04-30T09:33:04Z</time>
      </trkpt>
      <trkpt lat="48.44724" lon="2.04517">
        <ele>123</ele>
        <time>2011-04-30T09:33:05Z</time>
      </trkpt>
      <trkpt lat="48.44724" lon="2.0452">
        <ele>123</ele>
        <time>2011-04-30T09:33:06Z</time>
      </trkpt>
      <trkpt lat="48.44725" lon="2.04523">
        <ele>123</ele>
        <time>2011-04-30T09:33:07Z</time>
      </trkpt>
      <trkpt lat="48.44725" lon="2.04526">
        <ele>123</ele>
        <time>2011-04-30T09:33:08Z</time>
      </trkpt>
      <trkpt lat="48.44725" lon="2.0453">
        <ele>123</ele>
        <time>2011-04-30T09:33:09Z</time>
      </trkpt>
      <trkpt lat="48.44726" lon="2.04533">
        <ele>123</ele>
        <time>2011-04-30T09:33:10Z</time>
      </trkpt>
      <trkpt lat="48.44726" lon="2.04536">
        <ele>123</ele>
        <time>2011-04-30T09:33:11Z</time>
      </trkpt>
      <trkpt lat="48.44726" lon="2.0454">
        <ele>123</ele>
        <time>2011-04-30T09:33:12Z</time>
      </trkpt>
      <trkpt lat="48.44726" lon="2.04544">
        <ele>123</ele>
        <time>2011-04-30T09:33:13Z</time>
      </trkpt>
      <trkpt lat="48.44727" lon="2.04548">
        <ele>123</ele>
        <time>2011-04-30T09:33:14Z</time>
      </trkpt>
      <trkpt lat="48.44727" lon="2.04551">
        <ele>123</ele>
        <time>2011-04-30T09:33:15Z</time>
      </trkpt>
      <trkpt lat="48.44727" lon="2.04554">
        <ele>123</ele>
        <time>2011-04-30T09:33:16Z</time>
      </trkpt>
      <trkpt lat="48.44727" lon="2.04558">
        <ele>123</ele>
        <time>2011-04-30T09:33:17Z</time>
      </trkpt>
      <trkpt lat="48.44727" lon="2.04562">
        <ele>123</ele>
        <time>2011-04-30T09:33:18Z</time>
      </trkpt>
      <trkpt lat="48.44728" lon="2.04565">
        <ele>123</ele>
        <time>2011-04-30T09:33:19Z</time>
      </trkpt>
      <trkpt lat="48.44728" lon="2.04568">
        <ele>123</ele>
        <time>2011-04-30T09:33:20Z</time>
      </trkpt>
      <trkpt lat="48.44728" lon="2.04571">
        <ele>123</ele>
        <time>2011-04-30T09:33:21Z</time>
      </trkpt>
      <trkpt lat="48.44728" lon="2.04574">
        <ele>122</ele>
        <time>2011-04-30T09:33:22Z</time>
      </trkpt>
      <trkpt lat="48.44729" lon="2.04577">
        <ele>122</ele>
        <time>2011-04-30T09:33:23Z</time>
      </trkpt>
      <trkpt lat="48.44729" lon="2.04581">
        <ele>122</ele>
        <time>2011-04-30T09:33:24Z</time>
      </trkpt>
      <trkpt lat="48.44729" lon="2.04583">
        <ele>122</ele>
        <time>2011-04-30T09:33:25Z</time>
      </trkpt>
      <trkpt lat="48.4473" lon="2.04587">
        <ele>122</ele>
        <time>2011-04-30T09:33:26Z</time>
      </trkpt>
      <trkpt lat="48.4473" lon="2.0459">
        <ele>122</ele>
        <time>2011-04-30T09:33:27Z</time>
      </trkpt>
      <trkpt lat="48.44731" lon="2.04593">
        <ele>122</ele>
        <time>2011-04-30T09:33:28Z</time>
      </trkpt>
      <trkpt lat="48.44732" lon="2.04597">
        <ele>122</ele>
        <time>2011-04-30T09:33:29Z</time>
      </trkpt>
      <trkpt lat="48.44732" lon="2.04601">
        <ele>123</ele>
        <time>2011-04-30T09:33:30Z</time>
      </trkpt>
      <trkpt lat="48.44733" lon="2.04605">
        <ele>123</ele>
        <time>2011-04-30T09:33:31Z</time>
      </trkpt>
      <trkpt lat="48.44733" lon="2.04609">
        <ele>123</ele>
        <time>2011-04-30T09:33:32Z</time>
      </trkpt>
      <trkpt lat="48.44734" lon="2.04613">
        <ele>123</ele>
        <time>2011-04-30T09:33:33Z</time>
      </trkpt>
      <trkpt lat="48.44735" lon="2.04617">
        <ele>123</ele>
        <time>2011-04-30T09:33:34Z</time>
      </trkpt>
      <trkpt lat="48.44735" lon="2.04621">
        <ele>123</ele>
        <time>2011-04-30T09:33:35Z</time>
      </trkpt>
      <trkpt lat="48.44735" lon="2.04624">
        <ele>123</ele>
        <time>2011-04-30T09:33:36Z</time>
      </trkpt>
      <trkpt lat="48.44736" lon="2.04628">
        <ele>123</ele>
        <time>2011-04-30T09:33:37Z</time>
      </trkpt>
      <trkpt lat="48.44736" lon="2.04632">
        <ele>123</ele>
        <time>2011-04-30T09:33:38Z</time>
      </trkpt>
      <trkpt lat="48.44737" lon="2.04636">
        <ele>123</ele>
        <time>2011-04-30T09:33:39Z</time>
      </trkpt>
      <trkpt lat="48.44738" lon="2.04642">
        <ele>122</ele>
        <time>2011-04-30T09:33:40Z</time>
      </trkpt>
      <trkpt lat="48.44739" lon="2.04648">
        <ele>122</ele>
        <time>2011-04-30T09:33:41Z</time>
      </trkpt>
      <trkpt lat="48.44741" lon="2.04655">
        <ele>121</ele>
        <time>2011-04-30T09:33:42Z</time>
      </trkpt>
      <trkpt lat="48.44742" lon="2.0466">
        <ele>120</ele>
        <time>2011-04-30T09:33:43Z</time>
      </trkpt>
      <trkpt lat="48.44743" lon="2.04664">
        <ele>119</ele>
        <time>2011-04-30T09:33:44Z</time>
      </trkpt>
      <trkpt lat="48.44744" lon="2.04669">
        <ele>119</ele>
        <time>2011-04-30T09:33:45Z</time>
      </trkpt>
      <trkpt lat="48.44745" lon="2.04674">
        <ele>120</ele>
        <time>2011-04-30T09:33:46Z</time>
      </trkpt>
      <trkpt lat="48.44746" lon="2.04679">
        <ele>120</ele>
        <time>2011-04-30T09:33:47Z</time>
      </trkpt>
      <trkpt lat="48.44748" lon="2.04686">
        <ele>121</ele>
        <time>2011-04-30T09:33:48Z</time>
      </trkpt>
      <trkpt lat="48.4475" lon="2.04693">
        <ele>122</ele>
        <time>2011-04-30T09:33:49Z</time>
      </trkpt>
      <trkpt lat="48.44751" lon="2.047">
        <ele>117</ele>
        <time>2011-04-30T09:33:50Z</time>
      </trkpt>
      <trkpt lat="48.44753" lon="2.04705">
        <ele>117</ele>
        <time>2011-04-30T09:33:51Z</time>
      </trkpt>
      <trkpt lat="48.44754" lon="2.0471">
        <ele>117</ele>
        <time>2011-04-30T09:33:52Z</time>
      </trkpt>
      <trkpt lat="48.44755" lon="2.04714">
        <ele>117</ele>
        <time>2011-04-30T09:33:53Z</time>
      </trkpt>
      <trkpt lat="48.44756" lon="2.04719">
        <ele>117</ele>
        <time>2011-04-30T09:33:54Z</time>
      </trkpt>
      <trkpt lat="48.44757" lon="2.04725">
        <ele>117</ele>
        <time>2011-04-30T09:33:55Z</time>
      </trkpt>
      <trkpt lat="48.44758" lon="2.0473">
        <ele>117</ele>
        <time>2011-04-30T09:33:56Z</time>
      </trkpt>
      <trkpt lat="48.4476" lon="2.04735">
        <ele>117</ele>
        <time>2011-04-30T09:33:57Z</time>
      </trkpt>
      <trkpt lat="48.44761" lon="2.04739">
        <ele>117</ele>
        <time>2011-04-30T09:33:58Z</time>
      </trkpt>
      <trkpt lat="48.44761" lon="2.04742">
        <ele>117</ele>
        <time>2011-04-30T09:33:59Z</time>
      </trkpt>
      <trkpt lat="48.44762" lon="2.04744">
        <ele>117</ele>
        <time>2011-04-30T09:34:00Z</time>
      </trkpt>
      <trkpt lat="48.44762" lon="2.04746">
        <ele>117</ele>
        <time>2011-04-30T09:34:01Z</time>
      </trkpt>
      <trkpt lat="48.44762" lon="2.04748">
        <ele>117</ele>
        <time>2011-04-30T09:34:02Z</time>
      </trkpt>
      <trkpt lat="48.44762" lon="2.0475">
        <ele>117</ele>
        <time>2011-04-30T09:34:03Z</time>
      </trkpt>
      <trkpt lat="48.44762" lon="2.04752">
        <ele>116</ele>
        <time>2011-04-30T09:34:04Z</time>
      </trkpt>
      <trkpt lat="48.44763" lon="2.04754">
        <ele>116</ele>
        <time>2011-04-30T09:34:05Z</time>
      </trkpt>
      <trkpt lat="48.44763" lon="2.04756">
        <ele>116</ele>
        <time>2011-04-30T09:34:06Z</time>
      </trkpt>
      <trkpt lat="48.44763" lon="2.04759">
        <ele>116</ele>
        <time>2011-04-30T09:34:07Z</time>
      </trkpt>
      <trkpt lat="48.44763" lon="2.04761">
        <ele>116</ele>
        <time>2011-04-30T09:34:08Z</time>
      </trkpt>
      <trkpt lat="48.44764" lon="2.04764">
        <ele>116</ele>
        <time>2011-04-30T09:34:09Z</time>
      </trkpt>
      <trkpt lat="48.44764" lon="2.04767">
        <ele>116</ele>
        <time>2011-04-30T09:34:10Z</time>
      </trkpt>
      <trkpt lat="48.44764" lon="2.0477">
        <ele>116</ele>
        <time>2011-04-30T09:34:11Z</time>
      </trkpt>
      <trkpt lat="48.44764" lon="2.04773">
        <ele>116</ele>
        <time>2011-04-30T09:34:12Z</time>
      </trkpt>
      <trkpt lat="48.44765" lon="2.04776">
        <ele>116</ele>
        <time>2011-04-30T09:34:13Z</time>
      </trkpt>
      <trkpt lat="48.44766" lon="2.04781">
        <ele>116</ele>
        <time>2011-04-30T09:34:14Z</time>
      </trkpt>
      <trkpt lat="48.44766" lon="2.04785">
        <ele>116</ele>
        <time>2011-04-30T09:34:15Z</time>
      </trkpt>
      <trkpt lat="48.44767" lon="2.04789">
        <ele>116</ele>
        <time>2011-04-30T09:34:16Z</time>
      </trkpt>
      <trkpt lat="48.44768" lon="2.04795">
        <ele>116</ele>
        <time>2011-04-30T09:34:17Z</time>
      </trkpt>
      <trkpt lat="48.44769" lon="2.04802">
        <ele>116</ele>
        <time>2011-04-30T09:34:18Z</time>
      </trkpt>
      <trkpt lat="48.4477" lon="2.04808">
        <ele>116</ele>
        <time>2011-04-30T09:34:19Z</time>
      </trkpt>
      <trkpt lat="48.44771" lon="2.04812">
        <ele>116</ele>
        <time>2011-04-30T09:34:20Z</time>
      </trkpt>
      <trkpt lat="48.44771" lon="2.04815">
        <ele>116</ele>
        <time>2011-04-30T09:34:21Z</time>
      </trkpt>
      <trkpt lat="48.44771" lon="2.04818">
        <ele>116</ele>
        <time>2011-04-30T09:34:22Z</time>
      </trkpt>
      <trkpt lat="48.44772" lon="2.04821">
        <ele>116</ele>
        <time>2011-04-30T09:34:23Z</time>
      </trkpt>
      <trkpt lat="48.44772" lon="2.04824">
        <ele>116</ele>
        <time>2011-04-30T09:34:24Z</time>
      </trkpt>
      <trkpt lat="48.44772" lon="2.04827">
        <ele>116</ele>
        <time>2011-04-30T09:34:25Z</time>
      </trkpt>
      <trkpt lat="48.44773" lon="2.0483">
        <ele>116</ele>
        <time>2011-04-30T09:34:26Z</time>
      </trkpt>
      <trkpt lat="48.44773" lon="2.04833">
        <ele>116</ele>
        <time>2011-04-30T09:34:27Z</time>
      </trkpt>
      <trkpt lat="48.44773" lon="2.04836">
        <ele>116</ele>
        <time>2011-04-30T09:34:28Z</time>
      </trkpt>
      <trkpt lat="48.44773" lon="2.04839">
        <ele>116</ele>
        <time>2011-04-30T09:34:29Z</time>
      </trkpt>
      <trkpt lat="48.44773" lon="2.04843">
        <ele>116</ele>
        <time>2011-04-30T09:34:30Z</time>
      </trkpt>
      <trkpt lat="48.44773" lon="2.04846">
        <ele>116</ele>
        <time>2011-04-30T09:34:31Z</time>
      </trkpt>
      <trkpt lat="48.44773" lon="2.04849">
        <ele>116</ele>
        <time>2011-04-30T09:34:32Z</time>
      </trkpt>
      <trkpt lat="48.44773" lon="2.04853">
        <ele>116</ele>
        <time>2011-04-30T09:34:33Z</time>
      </trkpt>
      <trkpt lat="48.44773" lon="2.04857">
        <ele>116</ele>
        <time>2011-04-30T09:34:34Z</time>
      </trkpt>
      <trkpt lat="48.44774" lon="2.04863">
        <ele>116</ele>
        <time>2011-04-30T09:34:35Z</time>
      </trkpt>
      <trkpt lat="48.44775" lon="2.0487">
        <ele>115</ele>
        <time>2011-04-30T09:34:36Z</time>
      </trkpt>
      <trkpt lat="48.44776" lon="2.04876">
        <ele>115</ele>
        <time>2011-04-30T09:34:37Z</time>
      </trkpt>
      <trkpt lat="48.44776" lon="2.0488">
        <ele>115</ele>
        <time>2011-04-30T09:34:38Z</time>
      </trkpt>
      <trkpt lat="48.44777" lon="2.04883">
        <ele>115</ele>
        <time>2011-04-30T09:34:39Z</time>
      </trkpt>
      <trkpt lat="48.44777" lon="2.04887">
        <ele>116</ele>
        <time>2011-04-30T09:34:40Z</time>
      </trkpt>
      <trkpt lat="48.44777" lon="2.04891">
        <ele>116</ele>
        <time>2011-04-30T09:34:41Z</time>
      </trkpt>
      <trkpt lat="48.44777" lon="2.04894">
        <ele>116</ele>
        <time>2011-04-30T09:34:42Z</time>
      </trkpt>
      <trkpt lat="48.44778" lon="2.04899">
        <ele>116</ele>
        <time>2011-04-30T09:34:43Z</time>
      </trkpt>
      <trkpt lat="48.44779" lon="2.04905">
        <ele>116</ele>
        <time>2011-04-30T09:34:44Z</time>
      </trkpt>
      <trkpt lat="48.44779" lon="2.04911">
        <ele>116</ele>
        <time>2011-04-30T09:34:45Z</time>
      </trkpt>
      <trkpt lat="48.4478" lon="2.04916">
        <ele>116</ele>
        <time>2011-04-30T09:34:46Z</time>
      </trkpt>
      <trkpt lat="48.4478" lon="2.04921">
        <ele>115</ele>
        <time>2011-04-30T09:34:47Z</time>
      </trkpt>
      <trkpt lat="48.4478" lon="2.04926">
        <ele>115</ele>
        <time>2011-04-30T09:34:48Z</time>
      </trkpt>
      <trkpt lat="48.44781" lon="2.0493">
        <ele>115</ele>
        <time>2011-04-30T09:34:49Z</time>
      </trkpt>
      <trkpt lat="48.44781" lon="2.04934">
        <ele>115</ele>
        <time>2011-04-30T09:34:50Z</time>
      </trkpt>
      <trkpt lat="48.44782" lon="2.04938">
        <ele>115</ele>
        <time>2011-04-30T09:34:51Z</time>
      </trkpt>
      <trkpt lat="48.44782" lon="2.04942">
        <ele>115</ele>
        <time>2011-04-30T09:34:52Z</time>
      </trkpt>
      <trkpt lat="48.44782" lon="2.04945">
        <ele>115</ele>
        <time>2011-04-30T09:34:53Z</time>
      </trkpt>
      <trkpt lat="48.44782" lon="2.04948">
        <ele>115</ele>
        <time>2011-04-30T09:34:54Z</time>
      </trkpt>
      <trkpt lat="48.44782" lon="2.04951">
        <ele>115</ele>
        <time>2011-04-30T09:34:55Z</time>
      </trkpt>
      <trkpt lat="48.44782" lon="2.04954">
        <ele>115</ele>
        <time>2011-04-30T09:34:56Z</time>
      </trkpt>
      <trkpt lat="48.44782" lon="2.04956">
        <ele>114</ele>
        <time>2011-04-30T09:34:57Z</time>
      </trkpt>
      <trkpt lat="48.44782" lon="2.04959">
        <ele>114</ele>
        <time>2011-04-30T09:34:58Z</time>
      </trkpt>
      <trkpt lat="48.44781" lon="2.04961">
        <ele>114</ele>
        <time>2011-04-30T09:34:59Z</time>
      </trkpt>
      <trkpt lat="48.44781" lon="2.04963">
        <ele>114</ele>
        <time>2011-04-30T09:35:00Z</time>
      </trkpt>
      <trkpt lat="48.44781" lon="2.04965">
        <ele>114</ele>
        <time>2011-04-30T09:35:01Z</time>
      </trkpt>
      <trkpt lat="48.4478" lon="2.04967">
        <ele>114</ele>
        <time>2011-04-30T09:35:02Z</time>
      </trkpt>
      <trkpt lat="48.44779" lon="2.04969">
        <ele>114</ele>
        <time>2011-04-30T09:35:03Z</time>
      </trkpt>
      <trkpt lat="48.44779" lon="2.04972">
        <ele>114</ele>
        <time>2011-04-30T09:35:04Z</time>
      </trkpt>
      <trkpt lat="48.44778" lon="2.04975">
        <ele>115</ele>
        <time>2011-04-30T09:35:05Z</time>
      </trkpt>
      <trkpt lat="48.44778" lon="2.04977">
        <ele>115</ele>
        <time>2011-04-30T09:35:06Z</time>
      </trkpt>
      <trkpt lat="48.44778" lon="2.0498">
        <ele>115</ele>
        <time>2011-04-30T09:35:07Z</time>
      </trkpt>
      <trkpt lat="48.44778" lon="2.04982">
        <ele>115</ele>
        <time>2011-04-30T09:35:08Z</time>
      </trkpt>
      <trkpt lat="48.44777" lon="2.04984">
        <ele>115</ele>
        <time>2011-04-30T09:35:09Z</time>
      </trkpt>
      <trkpt lat="48.44777" lon="2.04986">
        <ele>115</ele>
        <time>2011-04-30T09:35:10Z</time>
      </trkpt>
      <trkpt lat="48.44777" lon="2.04989">
        <ele>115</ele>
        <time>2011-04-30T09:35:11Z</time>
      </trkpt>
      <trkpt lat="48.44777" lon="2.04992">
        <ele>115</ele>
        <time>2011-04-30T09:35:12Z</time>
      </trkpt>
      <trkpt lat="48.44777" lon="2.04994">
        <ele>115</ele>
        <time>2011-04-30T09:35:13Z</time>
      </trkpt>
      <trkpt lat="48.44776" lon="2.04996">
        <ele>115</ele>
        <time>2011-04-30T09:35:14Z</time>
      </trkpt>
      <trkpt lat="48.44776" lon="2.04999">
        <ele>115</ele>
        <time>2011-04-30T09:35:15Z</time>
      </trkpt>
      <trkpt lat="48.44776" lon="2.05002">
        <ele>113</ele>
        <time>2011-04-30T09:35:16Z</time>
      </trkpt>
      <trkpt lat="48.44776" lon="2.05005">
        <ele>112</ele>
        <time>2011-04-30T09:35:17Z</time>
      </trkpt>
      <trkpt lat="48.44776" lon="2.05009">
        <ele>112</ele>
        <time>2011-04-30T09:35:18Z</time>
      </trkpt>
      <trkpt lat="48.44777" lon="2.05014">
        <ele>112</ele>
        <time>2011-04-30T09:35:19Z</time>
      </trkpt>
      <trkpt lat="48.44777" lon="2.05018">
        <ele>112</ele>
        <time>2011-04-30T09:35:20Z</time>
      </trkpt>
      <trkpt lat="48.44777" lon="2.05024">
        <ele>112</ele>
        <time>2011-04-30T09:35:21Z</time>
      </trkpt>
      <trkpt lat="48.44778" lon="2.05029">
        <ele>111</ele>
        <time>2011-04-30T09:35:22Z</time>
      </trkpt>
      <trkpt lat="48.44778" lon="2.05036">
        <ele>111</ele>
        <time>2011-04-30T09:35:23Z</time>
      </trkpt>
      <trkpt lat="48.44779" lon="2.05041">
        <ele>111</ele>
        <time>2011-04-30T09:35:24Z</time>
      </trkpt>
      <trkpt lat="48.44779" lon="2.05047">
        <ele>110</ele>
        <time>2011-04-30T09:35:25Z</time>
      </trkpt>
      <trkpt lat="48.44779" lon="2.05052">
        <ele>110</ele>
        <time>2011-04-30T09:35:26Z</time>
      </trkpt>
      <trkpt lat="48.44779" lon="2.05057">
        <ele>110</ele>
        <time>2011-04-30T09:35:27Z</time>
      </trkpt>
      <trkpt lat="48.44779" lon="2.05062">
        <ele>110</ele>
        <time>2011-04-30T09:35:28Z</time>
      </trkpt>
      <trkpt lat="48.44779" lon="2.05066">
        <ele>110</ele>
        <time>2011-04-30T09:35:29Z</time>
      </trkpt>
      <trkpt lat="48.44779" lon="2.05071">
        <ele>110</ele>
        <time>2011-04-30T09:35:30Z</time>
      </trkpt>
      <trkpt lat="48.44779" lon="2.05075">
        <ele>110</ele>
        <time>2011-04-30T09:35:31Z</time>
      </trkpt>
      <trkpt lat="48.44779" lon="2.05079">
        <ele>110</ele>
        <time>2011-04-30T09:35:32Z</time>
      </trkpt>
      <trkpt lat="48.44779" lon="2.05084">
        <ele>107</ele>
        <time>2011-04-30T09:35:33Z</time>
      </trkpt>
      <trkpt lat="48.44779" lon="2.05088">
        <ele>107</ele>
        <time>2011-04-30T09:35:34Z</time>
      </trkpt>
      <trkpt lat="48.44779" lon="2.05092">
        <ele>107</ele>
        <time>2011-04-30T09:35:35Z</time>
      </trkpt>
      <trkpt lat="48.44778" lon="2.05096">
        <ele>107</ele>
        <time>2011-04-30T09:35:36Z</time>
      </trkpt>
      <trkpt lat="48.44778" lon="2.05101">
        <ele>107</ele>
        <time>2011-04-30T09:35:37Z</time>
      </trkpt>
      <trkpt lat="48.44778" lon="2.05105">
        <ele>107</ele>
        <time>2011-04-30T09:35:38Z</time>
      </trkpt>
      <trkpt lat="48.44778" lon="2.05108">
        <ele>107</ele>
        <time>2011-04-30T09:35:39Z</time>
      </trkpt>
      <trkpt lat="48.44778" lon="2.05112">
        <ele>107</ele>
        <time>2011-04-30T09:35:40Z</time>
      </trkpt>
      <trkpt lat="48.44778" lon="2.05115">
        <ele>107</ele>
        <time>2011-04-30T09:35:41Z</time>
      </trkpt>
      <trkpt lat="48.44777" lon="2.05118">
        <ele>107</ele>
        <time>2011-04-30T09:35:42Z</time>
      </trkpt>
      <trkpt lat="48.44777" lon="2.05121">
        <ele>107</ele>
        <time>2011-04-30T09:35:43Z</time>
      </trkpt>
      <trkpt lat="48.44777" lon="2.05124">
        <ele>107</ele>
        <time>2011-04-30T09:35:44Z</time>
      </trkpt>
      <trkpt lat="48.44777" lon="2.05127">
        <ele>106</ele>
        <time>2011-04-30T09:35:45Z</time>
      </trkpt>
      <trkpt lat="48.44776" lon="2.0513">
        <ele>106</ele>
        <time>2011-04-30T09:35:46Z</time>
      </trkpt>
      <trkpt lat="48.44776" lon="2.05133">
        <ele>106</ele>
        <time>2011-04-30T09:35:47Z</time>
      </trkpt>
      <trkpt lat="48.44776" lon="2.05136">
        <ele>106</ele>
        <time>2011-04-30T09:35:48Z</time>
      </trkpt>
      <trkpt lat="48.44776" lon="2.05139">
        <ele>106</ele>
        <time>2011-04-30T09:35:49Z</time>
      </trkpt>
      <trkpt lat="48.44776" lon="2.05143">
        <ele>106</ele>
        <time>2011-04-30T09:35:50Z</time>
      </trkpt>
      <trkpt lat="48.44775" lon="2.05146">
        <ele>106</ele>
        <time>2011-04-30T09:35:51Z</time>
      </trkpt>
      <trkpt lat="48.44775" lon="2.0515">
        <ele>106</ele>
        <time>2011-04-30T09:35:52Z</time>
      </trkpt>
      <trkpt lat="48.44775" lon="2.05153">
        <ele>106</ele>
        <time>2011-04-30T09:35:53Z</time>
      </trkpt>
      <trkpt lat="48.44775" lon="2.05157">
        <ele>105</ele>
        <time>2011-04-30T09:35:54Z</time>
      </trkpt>
      <trkpt lat="48.44775" lon="2.05161">
        <ele>105</ele>
        <time>2011-04-30T09:35:55Z</time>
      </trkpt>
      <trkpt lat="48.44775" lon="2.05165">
        <ele>105</ele>
        <time>2011-04-30T09:35:56Z</time>
      </trkpt>
      <trkpt lat="48.44775" lon="2.05169">
        <ele>106</ele>
        <time>2011-04-30T09:35:57Z</time>
      </trkpt>
      <trkpt lat="48.44775" lon="2.05174">
        <ele>106</ele>
        <time>2011-04-30T09:35:58Z</time>
      </trkpt>
      <trkpt lat="48.44774" lon="2.05178">
        <ele>106</ele>
        <time>2011-04-30T09:35:59Z</time>
      </trkpt>
      <trkpt lat="48.44774" lon="2.05181">
        <ele>106</ele>
        <time>2011-04-30T09:36:00Z</time>
      </trkpt>
      <trkpt lat="48.44773" lon="2.05185">
        <ele>106</ele>
        <time>2011-04-30T09:36:01Z</time>
      </trkpt>
      <trkpt lat="48.44773" lon="2.05188">
        <ele>106</ele>
        <time>2011-04-30T09:36:02Z</time>
      </trkpt>
      <trkpt lat="48.44772" lon="2.05192">
        <ele>106</ele>
        <time>2011-04-30T09:36:03Z</time>
      </trkpt>
      <trkpt lat="48.44772" lon="2.05195">
        <ele>106</ele>
        <time>2011-04-30T09:36:04Z</time>
      </trkpt>
      <trkpt lat="48.44772" lon="2.05199">
        <ele>106</ele>
        <time>2011-04-30T09:36:05Z</time>
      </trkpt>
      <trkpt lat="48.44771" lon="2.05203">
        <ele>107</ele>
        <time>2011-04-30T09:36:06Z</time>
      </trkpt>
      <trkpt lat="48.44771" lon="2.05206">
        <ele>107</ele>
        <time>2011-04-30T09:36:07Z</time>
      </trkpt>
      <trkpt lat="48.44771" lon="2.0521">
        <ele>107</ele>
        <time>2011-04-30T09:36:08Z</time>
      </trkpt>
      <trkpt lat="48.4477" lon="2.05213">
        <ele>107</ele>
        <time>2011-04-30T09:36:09Z</time>
      </trkpt>
      <trkpt lat="48.4477" lon="2.05216">
        <ele>107</ele>
        <time>2011-04-30T09:36:10Z</time>
      </trkpt>
      <trkpt lat="48.44769" lon="2.0522">
        <ele>107</ele>
        <time>2011-04-30T09:36:11Z</time>
      </trkpt>
      <trkpt lat="48.44769" lon="2.05223">
        <ele>106</ele>
        <time>2011-04-30T09:36:12Z</time>
      </trkpt>
      <trkpt lat="48.44769" lon="2.05226">
        <ele>106</ele>
        <time>2011-04-30T09:36:13Z</time>
      </trkpt>
      <trkpt lat="48.44768" lon="2.0523">
        <ele>106</ele>
        <time>2011-04-30T09:36:14Z</time>
      </trkpt>
      <trkpt lat="48.44767" lon="2.05232">
        <ele>106</ele>
        <time>2011-04-30T09:36:15Z</time>
      </trkpt>
      <trkpt lat="48.44767" lon="2.05235">
        <ele>106</ele>
        <time>2011-04-30T09:36:16Z</time>
      </trkpt>
      <trkpt lat="48.44766" lon="2.05237">
        <ele>106</ele>
        <time>2011-04-30T09:36:17Z</time>
      </trkpt>
      <trkpt lat="48.44765" lon="2.05241">
        <ele>105</ele>
        <time>2011-04-30T09:36:18Z</time>
      </trkpt>
      <trkpt lat="48.44765" lon="2.05245">
        <ele>105</ele>
        <time>2011-04-30T09:36:19Z</time>
      </trkpt>
      <trkpt lat="48.44764" lon="2.05248">
        <ele>105</ele>
        <time>2011-04-30T09:36:20Z</time>
      </trkpt>
      <trkpt lat="48.44764" lon="2.05252">
        <ele>106</ele>
        <time>2011-04-30T09:36:21Z</time>
      </trkpt>
      <trkpt lat="48.44763" lon="2.05256">
        <ele>107</ele>
        <time>2011-04-30T09:36:22Z</time>
      </trkpt>
      <trkpt lat="48.44763" lon="2.05261">
        <ele>107</ele>
        <time>2011-04-30T09:36:23Z</time>
      </trkpt>
      <trkpt lat="48.44762" lon="2.05266">
        <ele>108</ele>
        <time>2011-04-30T09:36:24Z</time>
      </trkpt>
      <trkpt lat="48.44762" lon="2.05271">
        <ele>108</ele>
        <time>2011-04-30T09:36:25Z</time>
      </trkpt>
      <trkpt lat="48.44761" lon="2.05275">
        <ele>108</ele>
        <time>2011-04-30T09:36:26Z</time>
      </trkpt>
      <trkpt lat="48.44761" lon="2.0528">
        <ele>109</ele>
        <time>2011-04-30T09:36:27Z</time>
      </trkpt>
      <trkpt lat="48.4476" lon="2.05285">
        <ele>109</ele>
        <time>2011-04-30T09:36:28Z</time>
      </trkpt>
      <trkpt lat="48.4476" lon="2.0529">
        <ele>109</ele>
        <time>2011-04-30T09:36:29Z</time>
      </trkpt>
      <trkpt lat="48.44759" lon="2.05294">
        <ele>109</ele>
        <time>2011-04-30T09:36:30Z</time>
      </trkpt>
      <trkpt lat="48.44758" lon="2.05299">
        <ele>109</ele>
        <time>2011-04-30T09:36:31Z</time>
      </trkpt>
      <trkpt lat="48.44758" lon="2.05303">
        <ele>109</ele>
        <time>2011-04-30T09:36:32Z</time>
      </trkpt>
      <trkpt lat="48.44757" lon="2.05307">
        <ele>109</ele>
        <time>2011-04-30T09:36:33Z</time>
      </trkpt>
      <trkpt lat="48.44756" lon="2.05311">
        <ele>109</ele>
        <time>2011-04-30T09:36:34Z</time>
      </trkpt>
      <trkpt lat="48.44755" lon="2.05315">
        <ele>108</ele>
        <time>2011-04-30T09:36:35Z</time>
      </trkpt>
      <trkpt lat="48.44754" lon="2.05319">
        <ele>108</ele>
        <time>2011-04-30T09:36:36Z</time>
      </trkpt>
      <trkpt lat="48.44752" lon="2.05323">
        <ele>107</ele>
        <time>2011-04-30T09:36:37Z</time>
      </trkpt>
      <trkpt lat="48.44751" lon="2.05327">
        <ele>107</ele>
        <time>2011-04-30T09:36:38Z</time>
      </trkpt>
      <trkpt lat="48.4475" lon="2.05331">
        <ele>105</ele>
        <time>2011-04-30T09:36:39Z</time>
      </trkpt>
      <trkpt lat="48.44749" lon="2.05334">
        <ele>105</ele>
        <time>2011-04-30T09:36:40Z</time>
      </trkpt>
      <trkpt lat="48.44748" lon="2.05338">
        <ele>105</ele>
        <time>2011-04-30T09:36:41Z</time>
      </trkpt>
      <trkpt lat="48.44747" lon="2.05342">
        <ele>106</ele>
        <time>2011-04-30T09:36:42Z</time>
      </trkpt>
      <trkpt lat="48.44746" lon="2.05345">
        <ele>106</ele>
        <time>2011-04-30T09:36:43Z</time>
      </trkpt>
      <trkpt lat="48.44745" lon="2.05349">
        <ele>106</ele>
        <time>2011-04-30T09:36:44Z</time>
      </trkpt>
      <trkpt lat="48.44744" lon="2.05353">
        <ele>106</ele>
        <time>2011-04-30T09:36:45Z</time>
      </trkpt>
      <trkpt lat="48.44743" lon="2.05356">
        <ele>107</ele>
        <time>2011-04-30T09:36:46Z</time>
      </trkpt>
      <trkpt lat="48.44742" lon="2.0536">
        <ele>107</ele>
        <time>2011-04-30T09:36:47Z</time>
      </trkpt>
      <trkpt lat="48.4474" lon="2.05365">
        <ele>107</ele>
        <time>2011-04-30T09:36:48Z</time>
      </trkpt>
      <trkpt lat="48.44739" lon="2.05371">
        <ele>107</ele>
        <time>2011-04-30T09:36:49Z</time>
      </trkpt>
      <trkpt lat="48.44738" lon="2.05375">
        <ele>107</ele>
        <time>2011-04-30T09:36:50Z</time>
      </trkpt>
      <trkpt lat="48.44737" lon="2.0538">
        <ele>107</ele>
        <time>2011-04-30T09:36:51Z</time>
      </trkpt>
      <trkpt lat="48.44736" lon="2.05384">
        <ele>108</ele>
        <time>2011-04-30T09:36:52Z</time>
      </trkpt>
      <trkpt lat="48.44735" lon="2.05388">
        <ele>108</ele>
        <time>2011-04-30T09:36:53Z</time>
      </trkpt>
      <trkpt lat="48.44734" lon="2.05393">
        <ele>108</ele>
        <time>2011-04-30T09:36:54Z</time>
      </trkpt>
      <trkpt lat="48.44732" lon="2.05397">
        <ele>108</ele>
        <time>2011-04-30T09:36:55Z</time>
      </trkpt>
      <trkpt lat="48.44731" lon="2.054">
        <ele>108</ele>
        <time>2011-04-30T09:36:56Z</time>
      </trkpt>
      <trkpt lat="48.4473" lon="2.05404">
        <ele>108</ele>
        <time>2011-04-30T09:36:57Z</time>
      </trkpt>
      <trkpt lat="48.44729" lon="2.05408">
        <ele>108</ele>
        <time>2011-04-30T09:36:58Z</time>
      </trkpt>
      <trkpt lat="48.44728" lon="2.05411">
        <ele>108</ele>
        <time>2011-04-30T09:36:59Z</time>
      </trkpt>
      <trkpt lat="48.44728" lon="2.05414">
        <ele>108</ele>
        <time>2011-04-30T09:37:00Z</time>
      </trkpt>
      <trkpt lat="48.44727" lon="2.05417">
        <ele>109</ele>
        <time>2011-04-30T09:37:01Z</time>
      </trkpt>
      <trkpt lat="48.44726" lon="2.0542">
        <ele>109</ele>
        <time>2011-04-30T09:37:02Z</time>
      </trkpt>
      <trkpt lat="48.44725" lon="2.05422">
        <ele>109</ele>
        <time>2011-04-30T09:37:03Z</time>
      </trkpt>
      <trkpt lat="48.44724" lon="2.05424">
        <ele>109</ele>
        <time>2011-04-30T09:37:04Z</time>
      </trkpt>
      <trkpt lat="48.44723" lon="2.05427">
        <ele>109</ele>
        <time>2011-04-30T09:37:05Z</time>
      </trkpt>
      <trkpt lat="48.44722" lon="2.05429">
        <ele>109</ele>
        <time>2011-04-30T09:37:06Z</time>
      </trkpt>
      <trkpt lat="48.44721" lon="2.05432">
        <ele>109</ele>
        <time>2011-04-30T09:37:07Z</time>
      </trkpt>
      <trkpt lat="48.4472" lon="2.05435">
        <ele>109</ele>
        <time>2011-04-30T09:37:08Z</time>
      </trkpt>
      <trkpt lat="48.44719" lon="2.05438">
        <ele>109</ele>
        <time>2011-04-30T09:37:09Z</time>
      </trkpt>
      <trkpt lat="48.44718" lon="2.05441">
        <ele>109</ele>
        <time>2011-04-30T09:37:10Z</time>
      </trkpt>
      <trkpt lat="48.44717" lon="2.05444">
        <ele>109</ele>
        <time>2011-04-30T09:37:11Z</time>
      </trkpt>
      <trkpt lat="48.44716" lon="2.05447">
        <ele>109</ele>
        <time>2011-04-30T09:37:12Z</time>
      </trkpt>
      <trkpt lat="48.44715" lon="2.0545">
        <ele>109</ele>
        <time>2011-04-30T09:37:13Z</time>
      </trkpt>
      <trkpt lat="48.44714" lon="2.05453">
        <ele>109</ele>
        <time>2011-04-30T09:37:14Z</time>
      </trkpt>
      <trkpt lat="48.44713" lon="2.05456">
        <ele>109</ele>
        <time>2011-04-30T09:37:15Z</time>
      </trkpt>
      <trkpt lat="48.44712" lon="2.05457">
        <ele>109</ele>
        <time>2011-04-30T09:37:16Z</time>
      </trkpt>
      <trkpt lat="48.4471" lon="2.05459">
        <ele>109</ele>
        <time>2011-04-30T09:37:17Z</time>
      </trkpt>
      <trkpt lat="48.44707" lon="2.05461">
        <ele>109</ele>
        <time>2011-04-30T09:37:18Z</time>
      </trkpt>
      <trkpt lat="48.44705" lon="2.05462">
        <ele>109</ele>
        <time>2011-04-30T09:37:19Z</time>
      </trkpt>
      <trkpt lat="48.44702" lon="2.05463">
        <ele>109</ele>
        <time>2011-04-30T09:37:20Z</time>
      </trkpt>
      <trkpt lat="48.447" lon="2.05463">
        <ele>109</ele>
        <time>2011-04-30T09:37:21Z</time>
      </trkpt>
      <trkpt lat="48.44698" lon="2.05464">
        <ele>109</ele>
        <time>2011-04-30T09:37:22Z</time>
      </trkpt>
      <trkpt lat="48.44696" lon="2.05465">
        <ele>109</ele>
        <time>2011-04-30T09:37:23Z</time>
      </trkpt>
      <trkpt lat="48.44695" lon="2.05465">
        <ele>109</ele>
        <time>2011-04-30T09:37:24Z</time>
      </trkpt>
      <trkpt lat="48.44694" lon="2.05466">
        <ele>109</ele>
        <time>2011-04-30T09:37:25Z</time>
      </trkpt>
      <trkpt lat="48.44693" lon="2.05467">
        <ele>109</ele>
        <time>2011-04-30T09:37:26Z</time>
      </trkpt>
      <trkpt lat="48.44692" lon="2.05467">
        <ele>108</ele>
        <time>2011-04-30T09:37:27Z</time>
      </trkpt>
      <trkpt lat="48.44692" lon="2.05469">
        <ele>108</ele>
        <time>2011-04-30T09:37:28Z</time>
      </trkpt>
      <trkpt lat="48.44692" lon="2.0547">
        <ele>108</ele>
        <time>2011-04-30T09:37:29Z</time>
      </trkpt>
      <trkpt lat="48.44692" lon="2.05472">
        <ele>108</ele>
        <time>2011-04-30T09:37:30Z</time>
      </trkpt>
      <trkpt lat="48.44692" lon="2.05473">
        <ele>108</ele>
        <time>2011-04-30T09:37:31Z</time>
      </trkpt>
      <trkpt lat="48.44692" lon="2.05474">
        <ele>108</ele>
        <time>2011-04-30T09:37:32Z</time>
      </trkpt>
      <trkpt lat="48.44692" lon="2.05475">
        <ele>108</ele>
        <time>2011-04-30T09:37:33Z</time>
      </trkpt>
      <trkpt lat="48.44691" lon="2.05476">
        <ele>108</ele>
        <time>2011-04-30T09:37:34Z</time>
      </trkpt>
      <trkpt lat="48.44691" lon="2.05476">
        <ele>108</ele>
        <time>2011-04-30T09:37:35Z</time>
      </trkpt>
      <trkpt lat="48.44691" lon="2.05477">
        <ele>108</ele>
        <time>2011-04-30T09:37:36Z</time>
      </trkpt>
      <trkpt lat="48.44691" lon="2.05478">
        <ele>108</ele>
        <time>2011-04-30T09:37:37Z</time>
      </trkpt>
      <trkpt lat="48.4469" lon="2.05478">
        <ele>108</ele>
        <time>2011-04-30T09:37:38Z</time>
      </trkpt>
      <trkpt lat="48.4469" lon="2.05479">
        <ele>108</ele>
        <time>2011-04-30T09:37:39Z</time>
      </trkpt>
      <trkpt lat="48.4469" lon="2.05479">
        <ele>108</ele>
        <time>2011-04-30T09:37:40Z</time>
      </trkpt>
      <trkpt lat="48.4469" lon="2.05479">
        <ele>108</ele>
        <time>2011-04-30T09:37:41Z</time>
      </trkpt>
      <trkpt lat="48.44689" lon="2.0548">
        <ele>108</ele>
        <time>2011-04-30T09:37:42Z</time>
      </trkpt>
      <trkpt lat="48.44689" lon="2.0548">
        <ele>108</ele>
        <time>2011-04-30T09:37:43Z</time>
      </trkpt>
      <trkpt lat="48.44689" lon="2.0548">
        <ele>108</ele>
        <time>2011-04-30T09:37:44Z</time>
      </trkpt>
      <trkpt lat="48.44689" lon="2.05481">
        <ele>108</ele>
        <time>2011-04-30T09:37:45Z</time>
      </trkpt>
      <trkpt lat="48.44689" lon="2.05482">
        <ele>108</ele>
        <time>2011-04-30T09:37:46Z</time>
      </trkpt>
      <trkpt lat="48.4469" lon="2.05483">
        <ele>108</ele>
        <time>2011-04-30T09:37:47Z</time>
      </trkpt>
      <trkpt lat="48.4469" lon="2.05485">
        <ele>108</ele>
        <time>2011-04-30T09:37:48Z</time>
      </trkpt>
      <trkpt lat="48.44691" lon="2.05486">
        <ele>108</ele>
        <time>2011-04-30T09:37:49Z</time>
      </trkpt>
      <trkpt lat="48.4469" lon="2.05487">
        <ele>108</ele>
        <time>2011-04-30T09:37:50Z</time>
      </trkpt>
      <trkpt lat="48.4469" lon="2.05489">
        <ele>108</ele>
        <time>2011-04-30T09:37:51Z</time>
      </trkpt>
      <trkpt lat="48.4469" lon="2.0549">
        <ele>108</ele>
        <time>2011-04-30T09:37:52Z</time>
      </trkpt>
      <trkpt lat="48.4469" lon="2.05491">
        <ele>108</ele>
        <time>2011-04-30T09:37:53Z</time>
      </trkpt>
      <trkpt lat="48.44689" lon="2.05492">
        <ele>108</ele>
        <time>2011-04-30T09:37:54Z</time>
      </trkpt>
      <trkpt lat="48.44689" lon="2.05493">
        <ele>108</ele>
        <time>2011-04-30T09:37:55Z</time>
      </trkpt>
      <trkpt lat="48.44689" lon="2.05494">
        <ele>108</ele>
        <time>2011-04-30T09:37:56Z</time>
      </trkpt>
      <trkpt lat="48.44689" lon="2.05495">
        <ele>108</ele>
        <time>2011-04-30T09:37:57Z</time>
      </trkpt>
      <trkpt lat="48.44688" lon="2.05497">
        <ele>108</ele>
        <time>2011-04-30T09:37:58Z</time>
      </trkpt>
      <trkpt lat="48.44688" lon="2.05498">
        <ele>108</ele>
        <time>2011-04-30T09:37:59Z</time>
      </trkpt>
      <trkpt lat="48.44688" lon="2.05499">
        <ele>108</ele>
        <time>2011-04-30T09:38:00Z</time>
      </trkpt>
      <trkpt lat="48.44688" lon="2.055">
        <ele>109</ele>
        <time>2011-04-30T09:38:01Z</time>
      </trkpt>
      <trkpt lat="48.44687" lon="2.05502">
        <ele>109</ele>
        <time>2011-04-30T09:38:02Z</time>
      </trkpt>
      <trkpt lat="48.44687" lon="2.05503">
        <ele>109</ele>
        <time>2011-04-30T09:38:03Z</time>
      </trkpt>
      <trkpt lat="48.44686" lon="2.05505">
        <ele>109</ele>
        <time>2011-04-30T09:38:04Z</time>
      </trkpt>
      <trkpt lat="48.44685" lon="2.05507">
        <ele>109</ele>
        <time>2011-04-30T09:38:05Z</time>
      </trkpt>
      <trkpt lat="48.44684" lon="2.05509">
        <ele>109</ele>
        <time>2011-04-30T09:38:06Z</time>
      </trkpt>
      <trkpt lat="48.44684" lon="2.05511">
        <ele>109</ele>
        <time>2011-04-30T09:38:07Z</time>
      </trkpt>
      <trkpt lat="48.44683" lon="2.05513">
        <ele>109</ele>
        <time>2011-04-30T09:38:08Z</time>
      </trkpt>
      <trkpt lat="48.44682" lon="2.05515">
        <ele>109</ele>
        <time>2011-04-30T09:38:09Z</time>
      </trkpt>
      <trkpt lat="48.44681" lon="2.05517">
        <ele>109</ele>
        <time>2011-04-30T09:38:10Z</time>
      </trkpt>
      <trkpt lat="48.44681" lon="2.05519">
        <ele>109</ele>
        <time>2011-04-30T09:38:11Z</time>
      </trkpt>
      <trkpt lat="48.4468" lon="2.05521">
        <ele>110</ele>
        <time>2011-04-30T09:38:12Z</time>
      </trkpt>
      <trkpt lat="48.4468" lon="2.05524">
        <ele>110</ele>
        <time>2011-04-30T09:38:13Z</time>
      </trkpt>
      <trkpt lat="48.44679" lon="2.05526">
        <ele>110</ele>
        <time>2011-04-30T09:38:14Z</time>
      </trkpt>
      <trkpt lat="48.44678" lon="2.05528">
        <ele>110</ele>
        <time>2011-04-30T09:38:15Z</time>
      </trkpt>
      <trkpt lat="48.44677" lon="2.0553">
        <ele>110</ele>
        <time>2011-04-30T09:38:16Z</time>
      </trkpt>
      <trkpt lat="48.44676" lon="2.05532">
        <ele>110</ele>
        <time>2011-04-30T09:38:17Z</time>
      </trkpt>
      <trkpt lat="48.44675" lon="2.05534">
        <ele>110</ele>
        <time>2011-04-30T09:38:18Z</time>
      </trkpt>
      <trkpt lat="48.44674" lon="2.05536">
        <ele>110</ele>
        <time>2011-04-30T09:38:19Z</time>
      </trkpt>
      <trkpt lat="48.44673" lon="2.05539">
        <ele>110</ele>
        <time>2011-04-30T09:38:20Z</time>
      </trkpt>
      <trkpt lat="48.44672" lon="2.05541">
        <ele>110</ele>
        <time>2011-04-30T09:38:21Z</time>
      </trkpt>
      <trkpt lat="48.44671" lon="2.05543">
        <ele>110</ele>
        <time>2011-04-30T09:38:22Z</time>
      </trkpt>
      <trkpt lat="48.4467" lon="2.05546">
        <ele>110</ele>
        <time>2011-04-30T09:38:23Z</time>
      </trkpt>
      <trkpt lat="48.44669" lon="2.05548">
        <ele>110</ele>
        <time>2011-04-30T09:38:24Z</time>
      </trkpt>
      <trkpt lat="48.44667" lon="2.0555">
        <ele>110</ele>
        <time>2011-04-30T09:38:25Z</time>
      </trkpt>
      <trkpt lat="48.44666" lon="2.05552">
        <ele>110</ele>
        <time>2011-04-30T09:38:26Z</time>
      </trkpt>
      <trkpt lat="48.44665" lon="2.05554">
        <ele>110</ele>
        <time>2011-04-30T09:38:27Z</time>
      </trkpt>
      <trkpt lat="48.44664" lon="2.05557">
        <ele>110</ele>
        <time>2011-04-30T09:38:28Z</time>
      </trkpt>
      <trkpt lat="48.44662" lon="2.0556">
        <ele>110</ele>
        <time>2011-04-30T09:38:29Z</time>
      </trkpt>
      <trkpt lat="48.44661" lon="2.05562">
        <ele>110</ele>
        <time>2011-04-30T09:38:30Z</time>
      </trkpt>
      <trkpt lat="48.4466" lon="2.05564">
        <ele>110</ele>
        <time>2011-04-30T09:38:31Z</time>
      </trkpt>
      <trkpt lat="48.44659" lon="2.05567">
        <ele>110</ele>
        <time>2011-04-30T09:38:32Z</time>
      </trkpt>
      <trkpt lat="48.44658" lon="2.05569">
        <ele>110</ele>
        <time>2011-04-30T09:38:33Z</time>
      </trkpt>
      <trkpt lat="48.44657" lon="2.05572">
        <ele>110</ele>
        <time>2011-04-30T09:38:34Z</time>
      </trkpt>
      <trkpt lat="48.44656" lon="2.05574">
        <ele>110</ele>
        <time>2011-04-30T09:38:35Z</time>
      </trkpt>
      <trkpt lat="48.44656" lon="2.05575">
        <ele>110</ele>
        <time>2011-04-30T09:38:36Z</time>
      </trkpt>
      <trkpt lat="48.44656" lon="2.05578">
        <ele>109</ele>
        <time>2011-04-30T09:38:37Z</time>
      </trkpt>
      <trkpt lat="48.44656" lon="2.05583">
        <ele>109</ele>
        <time>2011-04-30T09:38:38Z</time>
      </trkpt>
      <trkpt lat="48.44655" lon="2.05589">
        <ele>109</ele>
        <time>2011-04-30T09:38:39Z</time>
      </trkpt>
      <trkpt lat="48.44654" lon="2.05594">
        <ele>109</ele>
        <time>2011-04-30T09:38:40Z</time>
      </trkpt>
      <trkpt lat="48.44652" lon="2.056">
        <ele>109</ele>
        <time>2011-04-30T09:38:41Z</time>
      </trkpt>
      <trkpt lat="48.44651" lon="2.05605">
        <ele>109</ele>
        <time>2011-04-30T09:38:42Z</time>
      </trkpt>
      <trkpt lat="48.4465" lon="2.05608">
        <ele>109</ele>
        <time>2011-04-30T09:38:43Z</time>
      </trkpt>
      <trkpt lat="48.44649" lon="2.05612">
        <ele>109</ele>
        <time>2011-04-30T09:38:44Z</time>
      </trkpt>
      <trkpt lat="48.44647" lon="2.05615">
        <ele>109</ele>
        <time>2011-04-30T09:38:45Z</time>
      </trkpt>
      <trkpt lat="48.44646" lon="2.05618">
        <ele>109</ele>
        <time>2011-04-30T09:38:46Z</time>
      </trkpt>
      <trkpt lat="48.44646" lon="2.0562">
        <ele>109</ele>
        <time>2011-04-30T09:38:47Z</time>
      </trkpt>
      <trkpt lat="48.44645" lon="2.05623">
        <ele>109</ele>
        <time>2011-04-30T09:38:48Z</time>
      </trkpt>
      <trkpt lat="48.44644" lon="2.05625">
        <ele>109</ele>
        <time>2011-04-30T09:38:49Z</time>
      </trkpt>
      <trkpt lat="48.44643" lon="2.05628">
        <ele>109</ele>
        <time>2011-04-30T09:38:50Z</time>
      </trkpt>
      <trkpt lat="48.44642" lon="2.0563">
        <ele>109</ele>
        <time>2011-04-30T09:38:51Z</time>
      </trkpt>
      <trkpt lat="48.44641" lon="2.05632">
        <ele>109</ele>
        <time>2011-04-30T09:38:52Z</time>
      </trkpt>
      <trkpt lat="48.4464" lon="2.05634">
        <ele>109</ele>
        <time>2011-04-30T09:38:53Z</time>
      </trkpt>
      <trkpt lat="48.44639" lon="2.05636">
        <ele>109</ele>
        <time>2011-04-30T09:38:54Z</time>
      </trkpt>
      <trkpt lat="48.44637" lon="2.05638">
        <ele>109</ele>
        <time>2011-04-30T09:38:55Z</time>
      </trkpt>
      <trkpt lat="48.44636" lon="2.05639">
        <ele>109</ele>
        <time>2011-04-30T09:38:56Z</time>
      </trkpt>
      <trkpt lat="48.44635" lon="2.05642">
        <ele>109</ele>
        <time>2011-04-30T09:38:57Z</time>
      </trkpt>
      <trkpt lat="48.44634" lon="2.05644">
        <ele>109</ele>
        <time>2011-04-30T09:38:58Z</time>
      </trkpt>
      <trkpt lat="48.44633" lon="2.05647">
        <ele>109</ele>
        <time>2011-04-30T09:38:59Z</time>
      </trkpt>
      <trkpt lat="48.44632" lon="2.05649">
        <ele>109</ele>
        <time>2011-04-30T09:39:00Z</time>
      </trkpt>
      <trkpt lat="48.4463" lon="2.05652">
        <ele>109</ele>
        <time>2011-04-30T09:39:01Z</time>
      </trkpt>
      <trkpt lat="48.44629" lon="2.05654">
        <ele>109</ele>
        <time>2011-04-30T09:39:02Z</time>
      </trkpt>
      <trkpt lat="48.44628" lon="2.05656">
        <ele>109</ele>
        <time>2011-04-30T09:39:03Z</time>
      </trkpt>
      <trkpt lat="48.44627" lon="2.05659">
        <ele>109</ele>
        <time>2011-04-30T09:39:04Z</time>
      </trkpt>
      <trkpt lat="48.44626" lon="2.05662">
        <ele>109</ele>
        <time>2011-04-30T09:39:05Z</time>
      </trkpt>
      <trkpt lat="48.44625" lon="2.05664">
        <ele>109</ele>
        <time>2011-04-30T09:39:06Z</time>
      </trkpt>
      <trkpt lat="48.44624" lon="2.05668">
        <ele>108</ele>
        <time>2011-04-30T09:39:07Z</time>
      </trkpt>
      <trkpt lat="48.44622" lon="2.05671">
        <ele>108</ele>
        <time>2011-04-30T09:39:08Z</time>
      </trkpt>
      <trkpt lat="48.4462" lon="2.05674">
        <ele>108</ele>
        <time>2011-04-30T09:39:09Z</time>
      </trkpt>
      <trkpt lat="48.44616" lon="2.05678">
        <ele>108</ele>
        <time>2011-04-30T09:39:10Z</time>
      </trkpt>
      <trkpt lat="48.44613" lon="2.05682">
        <ele>108</ele>
        <time>2011-04-30T09:39:11Z</time>
      </trkpt>
      <trkpt lat="48.44609" lon="2.05687">
        <ele>108</ele>
        <time>2011-04-30T09:39:12Z</time>
      </trkpt>
      <trkpt lat="48.44606" lon="2.05691">
        <ele>108</ele>
        <time>2011-04-30T09:39:13Z</time>
      </trkpt>
      <trkpt lat="48.44604" lon="2.05694">
        <ele>108</ele>
        <time>2011-04-30T09:39:14Z</time>
      </trkpt>
      <trkpt lat="48.44601" lon="2.05698">
        <ele>108</ele>
        <time>2011-04-30T09:39:15Z</time>
      </trkpt>
      <trkpt lat="48.446" lon="2.057">
        <ele>108</ele>
        <time>2011-04-30T09:39:16Z</time>
      </trkpt>
      <trkpt lat="48.44598" lon="2.05703">
        <ele>108</ele>
        <time>2011-04-30T09:39:17Z</time>
      </trkpt>
      <trkpt lat="48.44596" lon="2.05706">
        <ele>108</ele>
        <time>2011-04-30T09:39:18Z</time>
      </trkpt>
      <trkpt lat="48.44595" lon="2.05708">
        <ele>107</ele>
        <time>2011-04-30T09:39:19Z</time>
      </trkpt>
      <trkpt lat="48.44594" lon="2.05711">
        <ele>107</ele>
        <time>2011-04-30T09:39:20Z</time>
      </trkpt>
      <trkpt lat="48.44593" lon="2.05713">
        <ele>107</ele>
        <time>2011-04-30T09:39:21Z</time>
      </trkpt>
      <trkpt lat="48.44591" lon="2.05716">
        <ele>107</ele>
        <time>2011-04-30T09:39:22Z</time>
      </trkpt>
      <trkpt lat="48.4459" lon="2.05718">
        <ele>107</ele>
        <time>2011-04-30T09:39:23Z</time>
      </trkpt>
      <trkpt lat="48.44589" lon="2.05721">
        <ele>107</ele>
        <time>2011-04-30T09:39:24Z</time>
      </trkpt>
      <trkpt lat="48.44588" lon="2.05723">
        <ele>107</ele>
        <time>2011-04-30T09:39:25Z</time>
      </trkpt>
      <trkpt lat="48.44587" lon="2.05725">
        <ele>107</ele>
        <time>2011-04-30T09:39:26Z</time>
      </trkpt>
      <trkpt lat="48.44586" lon="2.05728">
        <ele>107</ele>
        <time>2011-04-30T09:39:27Z</time>
      </trkpt>
      <trkpt lat="48.44585" lon="2.0573">
        <ele>107</ele>
        <time>2011-04-30T09:39:28Z</time>
      </trkpt>
      <trkpt lat="48.44583" lon="2.05733">
        <ele>110</ele>
        <time>2011-04-30T09:39:29Z</time>
      </trkpt>
      <trkpt lat="48.44582" lon="2.05737">
        <ele>109</ele>
        <time>2011-04-30T09:39:30Z</time>
      </trkpt>
      <trkpt lat="48.4458" lon="2.05741">
        <ele>109</ele>
        <time>2011-04-30T09:39:31Z</time>
      </trkpt>
      <trkpt lat="48.44579" lon="2.05746">
        <ele>108</ele>
        <time>2011-04-30T09:39:32Z</time>
      </trkpt>
      <trkpt lat="48.44578" lon="2.0575">
        <ele>107</ele>
        <time>2011-04-30T09:39:33Z</time>
      </trkpt>
      <trkpt lat="48.44577" lon="2.05754">
        <ele>107</ele>
        <time>2011-04-30T09:39:34Z</time>
      </trkpt>
      <trkpt lat="48.44576" lon="2.05759">
        <ele>108</ele>
        <time>2011-04-30T09:39:35Z</time>
      </trkpt>
      <trkpt lat="48.44575" lon="2.05763">
        <ele>108</ele>
        <time>2011-04-30T09:39:36Z</time>
      </trkpt>
      <trkpt lat="48.44575" lon="2.05766">
        <ele>108</ele>
        <time>2011-04-30T09:39:37Z</time>
      </trkpt>
      <trkpt lat="48.44574" lon="2.05769">
        <ele>109</ele>
        <time>2011-04-30T09:39:38Z</time>
      </trkpt>
      <trkpt lat="48.44574" lon="2.05772">
        <ele>109</ele>
        <time>2011-04-30T09:39:39Z</time>
      </trkpt>
      <trkpt lat="48.44573" lon="2.05775">
        <ele>109</ele>
        <time>2011-04-30T09:39:40Z</time>
      </trkpt>
      <trkpt lat="48.44572" lon="2.05778">
        <ele>109</ele>
        <time>2011-04-30T09:39:41Z</time>
      </trkpt>
      <trkpt lat="48.44571" lon="2.0578">
        <ele>109</ele>
        <time>2011-04-30T09:39:42Z</time>
      </trkpt>
      <trkpt lat="48.44569" lon="2.05783">
        <ele>109</ele>
        <time>2011-04-30T09:39:43Z</time>
      </trkpt>
      <trkpt lat="48.44568" lon="2.05786">
        <ele>109</ele>
        <time>2011-04-30T09:39:44Z</time>
      </trkpt>
      <trkpt lat="48.44567" lon="2.05789">
        <ele>109</ele>
        <time>2011-04-30T09:39:45Z</time>
      </trkpt>
      <trkpt lat="48.44566" lon="2.05792">
        <ele>109</ele>
        <time>2011-04-30T09:39:46Z</time>
      </trkpt>
      <trkpt lat="48.44565" lon="2.05794">
        <ele>109</ele>
        <time>2011-04-30T09:39:47Z</time>
      </trkpt>
      <trkpt lat="48.44564" lon="2.05797">
        <ele>109</ele>
        <time>2011-04-30T09:39:48Z</time>
      </trkpt>
      <trkpt lat="48.44562" lon="2.05799">
        <ele>109</ele>
        <time>2011-04-30T09:39:49Z</time>
      </trkpt>
      <trkpt lat="48.44561" lon="2.05801">
        <ele>109</ele>
        <time>2011-04-30T09:39:50Z</time>
      </trkpt>
      <trkpt lat="48.4456" lon="2.05804">
        <ele>109</ele>
        <time>2011-04-30T09:39:51Z</time>
      </trkpt>
      <trkpt lat="48.44558" lon="2.05806">
        <ele>109</ele>
        <time>2011-04-30T09:39:52Z</time>
      </trkpt>
      <trkpt lat="48.44556" lon="2.05809">
        <ele>109</ele>
        <time>2011-04-30T09:39:53Z</time>
      </trkpt>
      <trkpt lat="48.44554" lon="2.05811">
        <ele>109</ele>
        <time>2011-04-30T09:39:54Z</time>
      </trkpt>
      <trkpt lat="48.44552" lon="2.05814">
        <ele>109</ele>
        <time>2011-04-30T09:39:55Z</time>
      </trkpt>
      <trkpt lat="48.4455" lon="2.05816">
        <ele>109</ele>
        <time>2011-04-30T09:39:56Z</time>
      </trkpt>
      <trkpt lat="48.44548" lon="2.05819">
        <ele>110</ele>
        <time>2011-04-30T09:39:57Z</time>
      </trkpt>
      <trkpt lat="48.44546" lon="2.05822">
        <ele>110</ele>
        <time>2011-04-30T09:39:58Z</time>
      </trkpt>
      <trkpt lat="48.44544" lon="2.05825">
        <ele>110</ele>
        <time>2011-04-30T09:39:59Z</time>
      </trkpt>
      <trkpt lat="48.44542" lon="2.05828">
        <ele>110</ele>
        <time>2011-04-30T09:40:00Z</time>
      </trkpt>
      <trkpt lat="48.44541" lon="2.05831">
        <ele>110</ele>
        <time>2011-04-30T09:40:01Z</time>
      </trkpt>
      <trkpt lat="48.44539" lon="2.05834">
        <ele>108</ele>
        <time>2011-04-30T09:40:02Z</time>
      </trkpt>
      <trkpt lat="48.44538" lon="2.05838">
        <ele>108</ele>
        <time>2011-04-30T09:40:03Z</time>
      </trkpt>
      <trkpt lat="48.44536" lon="2.0584">
        <ele>108</ele>
        <time>2011-04-30T09:40:04Z</time>
      </trkpt>
      <trkpt lat="48.44535" lon="2.05843">
        <ele>109</ele>
        <time>2011-04-30T09:40:05Z</time>
      </trkpt>
      <trkpt lat="48.44532" lon="2.05846">
        <ele>109</ele>
        <time>2011-04-30T09:40:06Z</time>
      </trkpt>
      <trkpt lat="48.4453" lon="2.05849">
        <ele>109</ele>
        <time>2011-04-30T09:40:07Z</time>
      </trkpt>
      <trkpt lat="48.44528" lon="2.05852">
        <ele>109</ele>
        <time>2011-04-30T09:40:08Z</time>
      </trkpt>
      <trkpt lat="48.44526" lon="2.05855">
        <ele>109</ele>
        <time>2011-04-30T09:40:09Z</time>
      </trkpt>
      <trkpt lat="48.44524" lon="2.05858">
        <ele>109</ele>
        <time>2011-04-30T09:40:10Z</time>
      </trkpt>
      <trkpt lat="48.44521" lon="2.05861">
        <ele>109</ele>
        <time>2011-04-30T09:40:11Z</time>
      </trkpt>
      <trkpt lat="48.44519" lon="2.05863">
        <ele>109</ele>
        <time>2011-04-30T09:40:12Z</time>
      </trkpt>
      <trkpt lat="48.44517" lon="2.05866">
        <ele>109</ele>
        <time>2011-04-30T09:40:13Z</time>
      </trkpt>
      <trkpt lat="48.44515" lon="2.05869">
        <ele>109</ele>
        <time>2011-04-30T09:40:14Z</time>
      </trkpt>
      <trkpt lat="48.44513" lon="2.05871">
        <ele>109</ele>
        <time>2011-04-30T09:40:15Z</time>
      </trkpt>
      <trkpt lat="48.44511" lon="2.05874">
        <ele>109</ele>
        <time>2011-04-30T09:40:16Z</time>
      </trkpt>
      <trkpt lat="48.44509" lon="2.05877">
        <ele>108</ele>
        <time>2011-04-30T09:40:17Z</time>
      </trkpt>
      <trkpt lat="48.44507" lon="2.05879">
        <ele>108</ele>
        <time>2011-04-30T09:40:18Z</time>
      </trkpt>
      <trkpt lat="48.44505" lon="2.05882">
        <ele>108</ele>
        <time>2011-04-30T09:40:19Z</time>
      </trkpt>
      <trkpt lat="48.44503" lon="2.05886">
        <ele>108</ele>
        <time>2011-04-30T09:40:20Z</time>
      </trkpt>
      <trkpt lat="48.44501" lon="2.05889">
        <ele>108</ele>
        <time>2011-04-30T09:40:21Z</time>
      </trkpt>
      <trkpt lat="48.445" lon="2.05892">
        <ele>111</ele>
        <time>2011-04-30T09:40:22Z</time>
      </trkpt>
      <trkpt lat="48.44498" lon="2.05895">
        <ele>111</ele>
        <time>2011-04-30T09:40:23Z</time>
      </trkpt>
      <trkpt lat="48.44496" lon="2.05898">
        <ele>110</ele>
        <time>2011-04-30T09:40:24Z</time>
      </trkpt>
      <trkpt lat="48.44494" lon="2.05901">
        <ele>110</ele>
        <time>2011-04-30T09:40:25Z</time>
      </trkpt>
      <trkpt lat="48.44492" lon="2.05904">
        <ele>110</ele>
        <time>2011-04-30T09:40:26Z</time>
      </trkpt>
      <trkpt lat="48.4449" lon="2.05907">
        <ele>110</ele>
        <time>2011-04-30T09:40:27Z</time>
      </trkpt>
      <trkpt lat="48.44488" lon="2.0591">
        <ele>110</ele>
        <time>2011-04-30T09:40:28Z</time>
      </trkpt>
      <trkpt lat="48.44485" lon="2.05912">
        <ele>110</ele>
        <time>2011-04-30T09:40:29Z</time>
      </trkpt>
      <trkpt lat="48.44484" lon="2.05915">
        <ele>110</ele>
        <time>2011-04-30T09:40:30Z</time>
      </trkpt>
      <trkpt lat="48.44482" lon="2.05918">
        <ele>107</ele>
        <time>2011-04-30T09:40:31Z</time>
      </trkpt>
      <trkpt lat="48.4448" lon="2.05921">
        <ele>107</ele>
        <time>2011-04-30T09:40:32Z</time>
      </trkpt>
      <trkpt lat="48.44478" lon="2.05923">
        <ele>107</ele>
        <time>2011-04-30T09:40:33Z</time>
      </trkpt>
      <trkpt lat="48.44475" lon="2.05926">
        <ele>107</ele>
        <time>2011-04-30T09:40:34Z</time>
      </trkpt>
      <trkpt lat="48.44473" lon="2.05928">
        <ele>107</ele>
        <time>2011-04-30T09:40:35Z</time>
      </trkpt>
      <trkpt lat="48.44471" lon="2.05931">
        <ele>107</ele>
        <time>2011-04-30T09:40:36Z</time>
      </trkpt>
      <trkpt lat="48.4447" lon="2.05933">
        <ele>107</ele>
        <time>2011-04-30T09:40:37Z</time>
      </trkpt>
      <trkpt lat="48.44468" lon="2.05936">
        <ele>107</ele>
        <time>2011-04-30T09:40:38Z</time>
      </trkpt>
      <trkpt lat="48.44466" lon="2.05938">
        <ele>107</ele>
        <time>2011-04-30T09:40:39Z</time>
      </trkpt>
      <trkpt lat="48.44465" lon="2.0594">
        <ele>107</ele>
        <time>2011-04-30T09:40:40Z</time>
      </trkpt>
      <trkpt lat="48.44464" lon="2.05942">
        <ele>107</ele>
        <time>2011-04-30T09:40:41Z</time>
      </trkpt>
      <trkpt lat="48.44463" lon="2.05944">
        <ele>107</ele>
        <time>2011-04-30T09:40:42Z</time>
      </trkpt>
      <trkpt lat="48.44462" lon="2.05947">
        <ele>107</ele>
        <time>2011-04-30T09:40:43Z</time>
      </trkpt>
      <trkpt lat="48.44461" lon="2.05949">
        <ele>107</ele>
        <time>2011-04-30T09:40:44Z</time>
      </trkpt>
      <trkpt lat="48.4446" lon="2.05952">
        <ele>107</ele>
        <time>2011-04-30T09:40:45Z</time>
      </trkpt>
      <trkpt lat="48.44459" lon="2.05954">
        <ele>107</ele>
        <time>2011-04-30T09:40:46Z</time>
      </trkpt>
      <trkpt lat="48.44458" lon="2.05957">
        <ele>107</ele>
        <time>2011-04-30T09:40:47Z</time>
      </trkpt>
      <trkpt lat="48.44457" lon="2.05959">
        <ele>107</ele>
        <time>2011-04-30T09:40:48Z</time>
      </trkpt>
      <trkpt lat="48.44456" lon="2.05961">
        <ele>106</ele>
        <time>2011-04-30T09:40:49Z</time>
      </trkpt>
      <trkpt lat="48.44455" lon="2.05963">
        <ele>106</ele>
        <time>2011-04-30T09:40:50Z</time>
      </trkpt>
      <trkpt lat="48.44454" lon="2.05966">
        <ele>106</ele>
        <time>2011-04-30T09:40:51Z</time>
      </trkpt>
      <trkpt lat="48.44451" lon="2.05968">
        <ele>106</ele>
        <time>2011-04-30T09:40:52Z</time>
      </trkpt>
      <trkpt lat="48.44447" lon="2.0597">
        <ele>106</ele>
        <time>2011-04-30T09:40:53Z</time>
      </trkpt>
      <trkpt lat="48.44443" lon="2.05972">
        <ele>106</ele>
        <time>2011-04-30T09:40:54Z</time>
      </trkpt>
      <trkpt lat="48.4444" lon="2.05975">
        <ele>106</ele>
        <time>2011-04-30T09:40:55Z</time>
      </trkpt>
      <trkpt lat="48.44437" lon="2.05977">
        <ele>106</ele>
        <time>2011-04-30T09:40:56Z</time>
      </trkpt>
      <trkpt lat="48.44435" lon="2.05979">
        <ele>106</ele>
        <time>2011-04-30T09:40:57Z</time>
      </trkpt>
      <trkpt lat="48.44433" lon="2.05982">
        <ele>105</ele>
        <time>2011-04-30T09:40:58Z</time>
      </trkpt>
      <trkpt lat="48.4443" lon="2.05984">
        <ele>105</ele>
        <time>2011-04-30T09:40:59Z</time>
      </trkpt>
      <trkpt lat="48.44428" lon="2.05986">
        <ele>105</ele>
        <time>2011-04-30T09:41:00Z</time>
      </trkpt>
      <trkpt lat="48.44427" lon="2.05988">
        <ele>105</ele>
        <time>2011-04-30T09:41:01Z</time>
      </trkpt>
      <trkpt lat="48.44425" lon="2.0599">
        <ele>105</ele>
        <time>2011-04-30T09:41:02Z</time>
      </trkpt>
      <trkpt lat="48.44424" lon="2.05992">
        <ele>104</ele>
        <time>2011-04-30T09:41:03Z</time>
      </trkpt>
      <trkpt lat="48.44422" lon="2.05994">
        <ele>104</ele>
        <time>2011-04-30T09:41:04Z</time>
      </trkpt>
      <trkpt lat="48.44421" lon="2.05996">
        <ele>104</ele>
        <time>2011-04-30T09:41:05Z</time>
      </trkpt>
      <trkpt lat="48.44419" lon="2.05998">
        <ele>103</ele>
        <time>2011-04-30T09:41:06Z</time>
      </trkpt>
      <trkpt lat="48.44417" lon="2.06001">
        <ele>103</ele>
        <time>2011-04-30T09:41:07Z</time>
      </trkpt>
      <trkpt lat="48.44414" lon="2.06003">
        <ele>103</ele>
        <time>2011-04-30T09:41:08Z</time>
      </trkpt>
      <trkpt lat="48.44412" lon="2.06005">
        <ele>104</ele>
        <time>2011-04-30T09:41:09Z</time>
      </trkpt>
      <trkpt lat="48.4441" lon="2.06008">
        <ele>104</ele>
        <time>2011-04-30T09:41:10Z</time>
      </trkpt>
      <trkpt lat="48.44406" lon="2.0601">
        <ele>104</ele>
        <time>2011-04-30T09:41:11Z</time>
      </trkpt>
      <trkpt lat="48.44401" lon="2.06012">
        <ele>104</ele>
        <time>2011-04-30T09:41:12Z</time>
      </trkpt>
      <trkpt lat="48.44397" lon="2.06014">
        <ele>105</ele>
        <time>2011-04-30T09:41:13Z</time>
      </trkpt>
      <trkpt lat="48.44392" lon="2.06015">
        <ele>105</ele>
        <time>2011-04-30T09:41:14Z</time>
      </trkpt>
      <trkpt lat="48.44387" lon="2.06017">
        <ele>105</ele>
        <time>2011-04-30T09:41:15Z</time>
      </trkpt>
      <trkpt lat="48.44383" lon="2.06019">
        <ele>105</ele>
        <time>2011-04-30T09:41:16Z</time>
      </trkpt>
      <trkpt lat="48.44379" lon="2.06021">
        <ele>105</ele>
        <time>2011-04-30T09:41:17Z</time>
      </trkpt>
      <trkpt lat="48.44376" lon="2.06024">
        <ele>105</ele>
        <time>2011-04-30T09:41:18Z</time>
      </trkpt>
      <trkpt lat="48.44373" lon="2.06026">
        <ele>105</ele>
        <time>2011-04-30T09:41:19Z</time>
      </trkpt>
      <trkpt lat="48.4437" lon="2.06029">
        <ele>105</ele>
        <time>2011-04-30T09:41:20Z</time>
      </trkpt>
      <trkpt lat="48.44367" lon="2.06031">
        <ele>105</ele>
        <time>2011-04-30T09:41:21Z</time>
      </trkpt>
      <trkpt lat="48.44364" lon="2.06033">
        <ele>105</ele>
        <time>2011-04-30T09:41:22Z</time>
      </trkpt>
      <trkpt lat="48.44362" lon="2.06035">
        <ele>105</ele>
        <time>2011-04-30T09:41:23Z</time>
      </trkpt>
      <trkpt lat="48.4436" lon="2.06038">
        <ele>105</ele>
        <time>2011-04-30T09:41:24Z</time>
      </trkpt>
      <trkpt lat="48.44358" lon="2.06041">
        <ele>105</ele>
        <time>2011-04-30T09:41:25Z</time>
      </trkpt>
      <trkpt lat="48.44356" lon="2.06043">
        <ele>105</ele>
        <time>2011-04-30T09:41:26Z</time>
      </trkpt>
      <trkpt lat="48.44355" lon="2.06045">
        <ele>105</ele>
        <time>2011-04-30T09:41:27Z</time>
      </trkpt>
      <trkpt lat="48.44353" lon="2.06048">
        <ele>105</ele>
        <time>2011-04-30T09:41:28Z</time>
      </trkpt>
      <trkpt lat="48.44351" lon="2.06051">
        <ele>105</ele>
        <time>2011-04-30T09:41:29Z</time>
      </trkpt>
      <trkpt lat="48.4435" lon="2.06052">
        <ele>105</ele>
        <time>2011-04-30T09:41:30Z</time>
      </trkpt>
      <trkpt lat="48.44349" lon="2.06053">
        <ele>105</ele>
        <time>2011-04-30T09:41:31Z</time>
      </trkpt>
      <trkpt lat="48.44348" lon="2.06054">
        <ele>104</ele>
        <time>2011-04-30T09:41:32Z</time>
      </trkpt>
      <trkpt lat="48.44347" lon="2.06055">
        <ele>104</ele>
        <time>2011-04-30T09:41:33Z</time>
      </trkpt>
      <trkpt lat="48.44346" lon="2.06056">
        <ele>104</ele>
        <time>2011-04-30T09:41:34Z</time>
      </trkpt>
      <trkpt lat="48.44345" lon="2.06057">
        <ele>104</ele>
        <time>2011-04-30T09:41:35Z</time>
      </trkpt>
      <trkpt lat="48.44344" lon="2.06058">
        <ele>104</ele>
        <time>2011-04-30T09:41:36Z</time>
      </trkpt>
      <trkpt lat="48.44343" lon="2.0606">
        <ele>104</ele>
        <time>2011-04-30T09:41:37Z</time>
      </trkpt>
      <trkpt lat="48.44341" lon="2.06062">
        <ele>104</ele>
        <time>2011-04-30T09:41:38Z</time>
      </trkpt>
      <trkpt lat="48.44339" lon="2.06063">
        <ele>104</ele>
        <time>2011-04-30T09:41:39Z</time>
      </trkpt>
      <trkpt lat="48.44338" lon="2.06064">
        <ele>104</ele>
        <time>2011-04-30T09:41:40Z</time>
      </trkpt>
      <trkpt lat="48.44337" lon="2.06065">
        <ele>103</ele>
        <time>2011-04-30T09:41:41Z</time>
      </trkpt>
      <trkpt lat="48.44336" lon="2.06066">
        <ele>103</ele>
        <time>2011-04-30T09:41:42Z</time>
      </trkpt>
      <trkpt lat="48.44335" lon="2.06067">
        <ele>103</ele>
        <time>2011-04-30T09:41:43Z</time>
      </trkpt>
      <trkpt lat="48.44334" lon="2.06068">
        <ele>103</ele>
        <time>2011-04-30T09:41:44Z</time>
      </trkpt>
      <trkpt lat="48.44333" lon="2.06068">
        <ele>103</ele>
        <time>2011-04-30T09:41:45Z</time>
      </trkpt>
      <trkpt lat="48.44332" lon="2.06069">
        <ele>104</ele>
        <time>2011-04-30T09:41:46Z</time>
      </trkpt>
      <trkpt lat="48.4433" lon="2.06069">
        <ele>104</ele>
        <time>2011-04-30T09:41:47Z</time>
      </trkpt>
      <trkpt lat="48.44328" lon="2.06069">
        <ele>104</ele>
        <time>2011-04-30T09:41:48Z</time>
      </trkpt>
      <trkpt lat="48.44326" lon="2.0607">
        <ele>104</ele>
        <time>2011-04-30T09:41:49Z</time>
      </trkpt>
      <trkpt lat="48.44324" lon="2.06071">
        <ele>104</ele>
        <time>2011-04-30T09:41:50Z</time>
      </trkpt>
      <trkpt lat="48.44321" lon="2.06073">
        <ele>104</ele>
        <time>2011-04-30T09:41:51Z</time>
      </trkpt>
      <trkpt lat="48.44318" lon="2.06074">
        <ele>105</ele>
        <time>2011-04-30T09:41:52Z</time>
      </trkpt>
      <trkpt lat="48.44315" lon="2.06076">
        <ele>105</ele>
        <time>2011-04-30T09:41:53Z</time>
      </trkpt>
      <trkpt lat="48.44312" lon="2.06078">
        <ele>105</ele>
        <time>2011-04-30T09:41:54Z</time>
      </trkpt>
      <trkpt lat="48.44307" lon="2.06081">
        <ele>105</ele>
        <time>2011-04-30T09:41:55Z</time>
      </trkpt>
      <trkpt lat="48.44303" lon="2.06084">
        <ele>103</ele>
        <time>2011-04-30T09:41:56Z</time>
      </trkpt>
      <trkpt lat="48.44299" lon="2.06087">
        <ele>103</ele>
        <time>2011-04-30T09:41:57Z</time>
      </trkpt>
      <trkpt lat="48.44294" lon="2.0609">
        <ele>104</ele>
        <time>2011-04-30T09:41:58Z</time>
      </trkpt>
      <trkpt lat="48.4429" lon="2.06093">
        <ele>104</ele>
        <time>2011-04-30T09:41:59Z</time>
      </trkpt>
      <trkpt lat="48.44288" lon="2.06094">
        <ele>104</ele>
        <time>2011-04-30T09:42:00Z</time>
      </trkpt>
      <trkpt lat="48.44285" lon="2.06096">
        <ele>104</ele>
        <time>2011-04-30T09:42:01Z</time>
      </trkpt>
      <trkpt lat="48.44282" lon="2.06097">
        <ele>104</ele>
        <time>2011-04-30T09:42:02Z</time>
      </trkpt>
      <trkpt lat="48.44278" lon="2.06099">
        <ele>104</ele>
        <time>2011-04-30T09:42:03Z</time>
      </trkpt>
      <trkpt lat="48.44275" lon="2.06101">
        <ele>104</ele>
        <time>2011-04-30T09:42:04Z</time>
      </trkpt>
      <trkpt lat="48.44272" lon="2.06103">
        <ele>104</ele>
        <time>2011-04-30T09:42:05Z</time>
      </trkpt>
      <trkpt lat="48.44269" lon="2.06105">
        <ele>104</ele>
        <time>2011-04-30T09:42:06Z</time>
      </trkpt>
      <trkpt lat="48.44267" lon="2.06107">
        <ele>104</ele>
        <time>2011-04-30T09:42:07Z</time>
      </trkpt>
      <trkpt lat="48.44265" lon="2.06109">
        <ele>104</ele>
        <time>2011-04-30T09:42:08Z</time>
      </trkpt>
      <trkpt lat="48.44262" lon="2.06111">
        <ele>104</ele>
        <time>2011-04-30T09:42:09Z</time>
      </trkpt>
      <trkpt lat="48.44261" lon="2.06113">
        <ele>104</ele>
        <time>2011-04-30T09:42:10Z</time>
      </trkpt>
      <trkpt lat="48.44259" lon="2.06115">
        <ele>104</ele>
        <time>2011-04-30T09:42:11Z</time>
      </trkpt>
      <trkpt lat="48.44258" lon="2.06117">
        <ele>104</ele>
        <time>2011-04-30T09:42:12Z</time>
      </trkpt>
      <trkpt lat="48.44256" lon="2.06118">
        <ele>104</ele>
        <time>2011-04-30T09:42:13Z</time>
      </trkpt>
      <trkpt lat="48.44254" lon="2.0612">
        <ele>104</ele>
        <time>2011-04-30T09:42:14Z</time>
      </trkpt>
      <trkpt lat="48.44253" lon="2.06122">
        <ele>104</ele>
        <time>2011-04-30T09:42:15Z</time>
      </trkpt>
      <trkpt lat="48.44251" lon="2.06124">
        <ele>104</ele>
        <time>2011-04-30T09:42:16Z</time>
      </trkpt>
      <trkpt lat="48.4425" lon="2.06125">
        <ele>104</ele>
        <time>2011-04-30T09:42:17Z</time>
      </trkpt>
      <trkpt lat="48.44248" lon="2.06127">
        <ele>104</ele>
        <time>2011-04-30T09:42:18Z</time>
      </trkpt>
      <trkpt lat="48.44248" lon="2.06128">
        <ele>104</ele>
        <time>2011-04-30T09:42:19Z</time>
      </trkpt>
      <trkpt lat="48.44246" lon="2.0613">
        <ele>104</ele>
        <time>2011-04-30T09:42:20Z</time>
      </trkpt>
      <trkpt lat="48.44245" lon="2.06132">
        <ele>103</ele>
        <time>2011-04-30T09:42:21Z</time>
      </trkpt>
      <trkpt lat="48.44243" lon="2.06134">
        <ele>103</ele>
        <time>2011-04-30T09:42:22Z</time>
      </trkpt>
      <trkpt lat="48.4424" lon="2.06136">
        <ele>103</ele>
        <time>2011-04-30T09:42:23Z</time>
      </trkpt>
      <trkpt lat="48.44237" lon="2.06139">
        <ele>103</ele>
        <time>2011-04-30T09:42:24Z</time>
      </trkpt>
      <trkpt lat="48.44235" lon="2.06141">
        <ele>103</ele>
        <time>2011-04-30T09:42:25Z</time>
      </trkpt>
      <trkpt lat="48.44232" lon="2.06143">
        <ele>103</ele>
        <time>2011-04-30T09:42:26Z</time>
      </trkpt>
      <trkpt lat="48.44229" lon="2.06145">
        <ele>103</ele>
        <time>2011-04-30T09:42:27Z</time>
      </trkpt>
      <trkpt lat="48.44226" lon="2.06147">
        <ele>103</ele>
        <time>2011-04-30T09:42:28Z</time>
      </trkpt>
      <trkpt lat="48.44224" lon="2.06149">
        <ele>103</ele>
        <time>2011-04-30T09:42:29Z</time>
      </trkpt>
      <trkpt lat="48.44222" lon="2.06152">
        <ele>103</ele>
        <time>2011-04-30T09:42:30Z</time>
      </trkpt>
      <trkpt lat="48.44219" lon="2.06153">
        <ele>103</ele>
        <time>2011-04-30T09:42:31Z</time>
      </trkpt>
      <trkpt lat="48.44217" lon="2.06155">
        <ele>103</ele>
        <time>2011-04-30T09:42:32Z</time>
      </trkpt>
      <trkpt lat="48.44214" lon="2.06157">
        <ele>103</ele>
        <time>2011-04-30T09:42:33Z</time>
      </trkpt>
      <trkpt lat="48.44211" lon="2.06159">
        <ele>103</ele>
        <time>2011-04-30T09:42:34Z</time>
      </trkpt>
      <trkpt lat="48.44207" lon="2.06161">
        <ele>103</ele>
        <time>2011-04-30T09:42:35Z</time>
      </trkpt>
      <trkpt lat="48.44204" lon="2.06163">
        <ele>103</ele>
        <time>2011-04-30T09:42:36Z</time>
      </trkpt>
      <trkpt lat="48.44201" lon="2.06165">
        <ele>103</ele>
        <time>2011-04-30T09:42:37Z</time>
      </trkpt>
      <trkpt lat="48.44199" lon="2.06167">
        <ele>103</ele>
        <time>2011-04-30T09:42:38Z</time>
      </trkpt>
      <trkpt lat="48.44196" lon="2.06168">
        <ele>100</ele>
        <time>2011-04-30T09:42:39Z</time>
      </trkpt>
      <trkpt lat="48.44194" lon="2.0617">
        <ele>100</ele>
        <time>2011-04-30T09:42:40Z</time>
      </trkpt>
      <trkpt lat="48.44192" lon="2.06171">
        <ele>100</ele>
        <time>2011-04-30T09:42:41Z</time>
      </trkpt>
      <trkpt lat="48.4419" lon="2.06172">
        <ele>100</ele>
        <time>2011-04-30T09:42:42Z</time>
      </trkpt>
      <trkpt lat="48.44188" lon="2.06173">
        <ele>100</ele>
        <time>2011-04-30T09:42:43Z</time>
      </trkpt>
      <trkpt lat="48.44185" lon="2.06174">
        <ele>100</ele>
        <time>2011-04-30T09:42:44Z</time>
      </trkpt>
      <trkpt lat="48.44182" lon="2.06176">
        <ele>100</ele>
        <time>2011-04-30T09:42:45Z</time>
      </trkpt>
      <trkpt lat="48.4418" lon="2.06177">
        <ele>100</ele>
        <time>2011-04-30T09:42:46Z</time>
      </trkpt>
      <trkpt lat="48.44177" lon="2.06178">
        <ele>100</ele>
        <time>2011-04-30T09:42:47Z</time>
      </trkpt>
      <trkpt lat="48.44175" lon="2.06179">
        <ele>100</ele>
        <time>2011-04-30T09:42:48Z</time>
      </trkpt>
      <trkpt lat="48.44174" lon="2.06181">
        <ele>100</ele>
        <time>2011-04-30T09:42:49Z</time>
      </trkpt>
      <trkpt lat="48.44171" lon="2.06182">
        <ele>100</ele>
        <time>2011-04-30T09:42:50Z</time>
      </trkpt>
      <trkpt lat="48.44168" lon="2.06184">
        <ele>100</ele>
        <time>2011-04-30T09:42:51Z</time>
      </trkpt>
      <trkpt lat="48.44166" lon="2.06186">
        <ele>99</ele>
        <time>2011-04-30T09:42:52Z</time>
      </trkpt>
      <trkpt lat="48.44163" lon="2.06187">
        <ele>99</ele>
        <time>2011-04-30T09:42:53Z</time>
      </trkpt>
      <trkpt lat="48.44161" lon="2.06189">
        <ele>99</ele>
        <time>2011-04-30T09:42:54Z</time>
      </trkpt>
      <trkpt lat="48.44158" lon="2.06191">
        <ele>99</ele>
        <time>2011-04-30T09:42:55Z</time>
      </trkpt>
      <trkpt lat="48.44156" lon="2.06192">
        <ele>99</ele>
        <time>2011-04-30T09:42:56Z</time>
      </trkpt>
      <trkpt lat="48.44154" lon="2.06194">
        <ele>99</ele>
        <time>2011-04-30T09:42:57Z</time>
      </trkpt>
      <trkpt lat="48.44151" lon="2.06196">
        <ele>99</ele>
        <time>2011-04-30T09:42:58Z</time>
      </trkpt>
      <trkpt lat="48.44148" lon="2.06198">
        <ele>99</ele>
        <time>2011-04-30T09:42:59Z</time>
      </trkpt>
      <trkpt lat="48.44145" lon="2.06199">
        <ele>99</ele>
        <time>2011-04-30T09:43:00Z</time>
      </trkpt>
      <trkpt lat="48.44141" lon="2.06201">
        <ele>99</ele>
        <time>2011-04-30T09:43:01Z</time>
      </trkpt>
      <trkpt lat="48.44137" lon="2.06202">
        <ele>99</ele>
        <time>2011-04-30T09:43:02Z</time>
      </trkpt>
      <trkpt lat="48.44133" lon="2.06204">
        <ele>99</ele>
        <time>2011-04-30T09:43:03Z</time>
      </trkpt>
      <trkpt lat="48.44129" lon="2.06205">
        <ele>99</ele>
        <time>2011-04-30T09:43:04Z</time>
      </trkpt>
      <trkpt lat="48.44126" lon="2.06206">
        <ele>99</ele>
        <time>2011-04-30T09:43:05Z</time>
      </trkpt>
      <trkpt lat="48.44124" lon="2.06207">
        <ele>98</ele>
        <time>2011-04-30T09:43:06Z</time>
      </trkpt>
      <trkpt lat="48.44122" lon="2.06209">
        <ele>98</ele>
        <time>2011-04-30T09:43:07Z</time>
      </trkpt>
      <trkpt lat="48.44119" lon="2.0621">
        <ele>98</ele>
        <time>2011-04-30T09:43:08Z</time>
      </trkpt>
      <trkpt lat="48.44117" lon="2.06212">
        <ele>98</ele>
        <time>2011-04-30T09:43:09Z</time>
      </trkpt>
      <trkpt lat="48.44115" lon="2.06213">
        <ele>98</ele>
        <time>2011-04-30T09:43:10Z</time>
      </trkpt>
      <trkpt lat="48.44113" lon="2.06214">
        <ele>98</ele>
        <time>2011-04-30T09:43:11Z</time>
      </trkpt>
      <trkpt lat="48.44112" lon="2.06216">
        <ele>98</ele>
        <time>2011-04-30T09:43:12Z</time>
      </trkpt>
      <trkpt lat="48.4411" lon="2.06217">
        <ele>98</ele>
        <time>2011-04-30T09:43:13Z</time>
      </trkpt>
      <trkpt lat="48.44108" lon="2.06219">
        <ele>98</ele>
        <time>2011-04-30T09:43:14Z</time>
      </trkpt>
      <trkpt lat="48.44106" lon="2.06222">
        <ele>98</ele>
        <time>2011-04-30T09:43:15Z</time>
      </trkpt>
      <trkpt lat="48.44103" lon="2.06225">
        <ele>98</ele>
        <time>2011-04-30T09:43:16Z</time>
      </trkpt>
      <trkpt lat="48.44101" lon="2.06228">
        <ele>98</ele>
        <time>2011-04-30T09:43:17Z</time>
      </trkpt>
      <trkpt lat="48.44098" lon="2.06231">
        <ele>98</ele>
        <time>2011-04-30T09:43:18Z</time>
      </trkpt>
      <trkpt lat="48.44096" lon="2.06233">
        <ele>98</ele>
        <time>2011-04-30T09:43:19Z</time>
      </trkpt>
      <trkpt lat="48.44093" lon="2.06236">
        <ele>98</ele>
        <time>2011-04-30T09:43:20Z</time>
      </trkpt>
      <trkpt lat="48.44091" lon="2.06237">
        <ele>98</ele>
        <time>2011-04-30T09:43:21Z</time>
      </trkpt>
      <trkpt lat="48.44088" lon="2.06239">
        <ele>98</ele>
        <time>2011-04-30T09:43:22Z</time>
      </trkpt>
      <trkpt lat="48.44085" lon="2.0624">
        <ele>98</ele>
        <time>2011-04-30T09:43:23Z</time>
      </trkpt>
      <trkpt lat="48.44082" lon="2.06242">
        <ele>97</ele>
        <time>2011-04-30T09:43:24Z</time>
      </trkpt>
      <trkpt lat="48.44078" lon="2.06242">
        <ele>97</ele>
        <time>2011-04-30T09:43:25Z</time>
      </trkpt>
      <trkpt lat="48.44075" lon="2.06243">
        <ele>97</ele>
        <time>2011-04-30T09:43:26Z</time>
      </trkpt>
      <trkpt lat="48.44071" lon="2.06243">
        <ele>97</ele>
        <time>2011-04-30T09:43:27Z</time>
      </trkpt>
      <trkpt lat="48.44067" lon="2.06244">
        <ele>97</ele>
        <time>2011-04-30T09:43:28Z</time>
      </trkpt>
      <trkpt lat="48.44063" lon="2.06245">
        <ele>96</ele>
        <time>2011-04-30T09:43:29Z</time>
      </trkpt>
      <trkpt lat="48.44059" lon="2.06245">
        <ele>96</ele>
        <time>2011-04-30T09:43:30Z</time>
      </trkpt>
      <trkpt lat="48.44057" lon="2.06245">
        <ele>96</ele>
        <time>2011-04-30T09:43:31Z</time>
      </trkpt>
      <trkpt lat="48.44055" lon="2.06245">
        <ele>96</ele>
        <time>2011-04-30T09:43:32Z</time>
      </trkpt>
      <trkpt lat="48.44054" lon="2.06245">
        <ele>96</ele>
        <time>2011-04-30T09:43:33Z</time>
      </trkpt>
      <trkpt lat="48.44053" lon="2.06245">
        <ele>96</ele>
        <time>2011-04-30T09:43:34Z</time>
      </trkpt>
      <trkpt lat="48.44052" lon="2.06245">
        <ele>96</ele>
        <time>2011-04-30T09:43:35Z</time>
      </trkpt>
      <trkpt lat="48.44051" lon="2.06245">
        <ele>96</ele>
        <time>2011-04-30T09:43:36Z</time>
      </trkpt>
      <trkpt lat="48.4405" lon="2.06244">
        <ele>96</ele>
        <time>2011-04-30T09:43:37Z</time>
      </trkpt>
      <trkpt lat="48.4405" lon="2.06244">
        <ele>96</ele>
        <time>2011-04-30T09:43:38Z</time>
      </trkpt>
      <trkpt lat="48.44049" lon="2.06244">
        <ele>96</ele>
        <time>2011-04-30T09:43:39Z</time>
      </trkpt>
      <trkpt lat="48.44049" lon="2.06244">
        <ele>96</ele>
        <time>2011-04-30T09:43:40Z</time>
      </trkpt>
      <trkpt lat="48.44048" lon="2.06244">
        <ele>96</ele>
        <time>2011-04-30T09:43:41Z</time>
      </trkpt>
      <trkpt lat="48.44048" lon="2.06243">
        <ele>96</ele>
        <time>2011-04-30T09:43:42Z</time>
      </trkpt>
      <trkpt lat="48.44048" lon="2.06243">
        <ele>96</ele>
        <time>2011-04-30T09:43:43Z</time>
      </trkpt>
      <trkpt lat="48.44047" lon="2.06243">
        <ele>96</ele>
        <time>2011-04-30T09:43:44Z</time>
      </trkpt>
      <trkpt lat="48.44047" lon="2.06243">
        <ele>96</ele>
        <time>2011-04-30T09:43:45Z</time>
      </trkpt>
      <trkpt lat="48.44046" lon="2.06243">
        <ele>96</ele>
        <time>2011-04-30T09:43:46Z</time>
      </trkpt>
      <trkpt lat="48.44046" lon="2.06242">
        <ele>95</ele>
        <time>2011-04-30T09:43:47Z</time>
      </trkpt>
      <trkpt lat="48.44045" lon="2.06242">
        <ele>95</ele>
        <time>2011-04-30T09:43:48Z</time>
      </trkpt>
      <trkpt lat="48.44044" lon="2.06241">
        <ele>95</ele>
        <time>2011-04-30T09:43:49Z</time>
      </trkpt>
      <trkpt lat="48.44044" lon="2.0624">
        <ele>95</ele>
        <time>2011-04-30T09:43:50Z</time>
      </trkpt>
      <trkpt lat="48.44043" lon="2.0624">
        <ele>95</ele>
        <time>2011-04-30T09:43:51Z</time>
      </trkpt>
      <trkpt lat="48.44043" lon="2.06239">
        <ele>95</ele>
        <time>2011-04-30T09:43:52Z</time>
      </trkpt>
      <trkpt lat="48.44043" lon="2.06239">
        <ele>95</ele>
        <time>2011-04-30T09:43:53Z</time>
      </trkpt>
      <trkpt lat="48.44042" lon="2.06239">
        <ele>95</ele>
        <time>2011-04-30T09:43:54Z</time>
      </trkpt>
      <trkpt lat="48.44042" lon="2.06239">
        <ele>95</ele>
        <time>2011-04-30T09:43:55Z</time>
      </trkpt>
      <trkpt lat="48.44042" lon="2.06239">
        <ele>95</ele>
        <time>2011-04-30T09:43:56Z</time>
      </trkpt>
      <trkpt lat="48.44042" lon="2.06239">
        <ele>95</ele>
        <time>2011-04-30T09:43:57Z</time>
      </trkpt>
      <trkpt lat="48.44042" lon="2.06238">
        <ele>95</ele>
        <time>2011-04-30T09:43:58Z</time>
      </trkpt>
      <trkpt lat="48.44042" lon="2.06238">
        <ele>95</ele>
        <time>2011-04-30T09:43:59Z</time>
      </trkpt>
      <trkpt lat="48.44042" lon="2.06238">
        <ele>95</ele>
        <time>2011-04-30T09:44:00Z</time>
      </trkpt>
      <trkpt lat="48.44042" lon="2.06238">
        <ele>95</ele>
        <time>2011-04-30T09:44:01Z</time>
      </trkpt>
      <trkpt lat="48.44042" lon="2.06238">
        <ele>95</ele>
        <time>2011-04-30T09:44:02Z</time>
      </trkpt>
      <trkpt lat="48.44042" lon="2.06239">
        <ele>95</ele>
        <time>2011-04-30T09:44:03Z</time>
      </trkpt>
      <trkpt lat="48.44042" lon="2.06239">
        <ele>95</ele>
        <time>2011-04-30T09:44:04Z</time>
      </trkpt>
      <trkpt lat="48.44042" lon="2.06239">
        <ele>95</ele>
        <time>2011-04-30T09:44:05Z</time>
      </trkpt>
      <trkpt lat="48.44042" lon="2.06239">
        <ele>95</ele>
        <time>2011-04-30T09:44:06Z</time>
      </trkpt>
      <trkpt lat="48.44042" lon="2.06239">
        <ele>95</ele>
        <time>2011-04-30T09:44:07Z</time>
      </trkpt>
      <trkpt lat="48.44043" lon="2.06239">
        <ele>95</ele>
        <time>2011-04-30T09:44:08Z</time>
      </trkpt>
      <trkpt lat="48.44043" lon="2.0624">
        <ele>95</ele>
        <time>2011-04-30T09:44:09Z</time>
      </trkpt>
      <trkpt lat="48.44043" lon="2.0624">
        <ele>95</ele>
        <time>2011-04-30T09:44:10Z</time>
      </trkpt>
      <trkpt lat="48.44043" lon="2.0624">
        <ele>95</ele>
        <time>2011-04-30T09:44:11Z</time>
      </trkpt>
      <trkpt lat="48.44043" lon="2.0624">
        <ele>95</ele>
        <time>2011-04-30T09:44:12Z</time>
      </trkpt>
      <trkpt lat="48.44043" lon="2.0624">
        <ele>95</ele>
        <time>2011-04-30T09:44:13Z</time>
      </trkpt>
      <trkpt lat="48.44043" lon="2.0624">
        <ele>95</ele>
        <time>2011-04-30T09:44:14Z</time>
      </trkpt>
      <trkpt lat="48.44043" lon="2.0624">
        <ele>95</ele>
        <time>2011-04-30T09:44:15Z</time>
      </trkpt>
      <trkpt lat="48.44043" lon="2.0624">
        <ele>95</ele>
        <time>2011-04-30T09:44:16Z</time>
      </trkpt>
      <trkpt lat="48.44043" lon="2.0624">
        <ele>95</ele>
        <time>2011-04-30T09:44:17Z</time>
      </trkpt>
      <trkpt lat="48.44044" lon="2.0624">
        <ele>95</ele>
        <time>2011-04-30T09:44:18Z</time>
      </trkpt>
      <trkpt lat="48.44044" lon="2.0624">
        <ele>95</ele>
        <time>2011-04-30T09:44:19Z</time>
      </trkpt>
      <trkpt lat="48.44043" lon="2.0624">
        <ele>95</ele>
        <time>2011-04-30T09:44:20Z</time>
      </trkpt>
      <trkpt lat="48.44043" lon="2.06241">
        <ele>95</ele>
        <time>2011-04-30T09:44:21Z</time>
      </trkpt>
      <trkpt lat="48.44043" lon="2.06241">
        <ele>95</ele>
        <time>2011-04-30T09:44:22Z</time>
      </trkpt>
      <trkpt lat="48.44042" lon="2.06242">
        <ele>95</ele>
        <time>2011-04-30T09:44:23Z</time>
      </trkpt>
      <trkpt lat="48.44042" lon="2.06243">
        <ele>95</ele>
        <time>2011-04-30T09:44:24Z</time>
      </trkpt>
      <trkpt lat="48.44041" lon="2.06244">
        <ele>95</ele>
        <time>2011-04-30T09:44:25Z</time>
      </trkpt>
      <trkpt lat="48.44041" lon="2.06244">
        <ele>95</ele>
        <time>2011-04-30T09:44:26Z</time>
      </trkpt>
      <trkpt lat="48.4404" lon="2.06245">
        <ele>95</ele>
        <time>2011-04-30T09:44:27Z</time>
      </trkpt>
      <trkpt lat="48.4404" lon="2.06246">
        <ele>95</ele>
        <time>2011-04-30T09:44:28Z</time>
      </trkpt>
      <trkpt lat="48.44039" lon="2.06247">
        <ele>95</ele>
        <time>2011-04-30T09:44:29Z</time>
      </trkpt>
      <trkpt lat="48.44039" lon="2.06248">
        <ele>95</ele>
        <time>2011-04-30T09:44:30Z</time>
      </trkpt>
      <trkpt lat="48.44038" lon="2.06248">
        <ele>95</ele>
        <time>2011-04-30T09:44:31Z</time>
      </trkpt>
      <trkpt lat="48.44037" lon="2.06249">
        <ele>95</ele>
        <time>2011-04-30T09:44:32Z</time>
      </trkpt>
      <trkpt lat="48.44037" lon="2.0625">
        <ele>95</ele>
        <time>2011-04-30T09:44:33Z</time>
      </trkpt>
      <trkpt lat="48.44036" lon="2.0625">
        <ele>100</ele>
        <time>2011-04-30T09:44:34Z</time>
      </trkpt>
      <trkpt lat="48.44035" lon="2.06251">
        <ele>100</ele>
        <time>2011-04-30T09:44:35Z</time>
      </trkpt>
      <trkpt lat="48.44034" lon="2.06253">
        <ele>100</ele>
        <time>2011-04-30T09:44:36Z</time>
      </trkpt>
      <trkpt lat="48.44033" lon="2.06254">
        <ele>100</ele>
        <time>2011-04-30T09:44:37Z</time>
      </trkpt>
      <trkpt lat="48.44032" lon="2.06255">
        <ele>100</ele>
        <time>2011-04-30T09:44:38Z</time>
      </trkpt>
      <trkpt lat="48.44032" lon="2.06256">
        <ele>100</ele>
        <time>2011-04-30T09:44:39Z</time>
      </trkpt>
      <trkpt lat="48.44031" lon="2.06256">
        <ele>99</ele>
        <time>2011-04-30T09:44:40Z</time>
      </trkpt>
      <trkpt lat="48.4403" lon="2.06257">
        <ele>99</ele>
        <time>2011-04-30T09:44:41Z</time>
      </trkpt>
      <trkpt lat="48.44029" lon="2.06258">
        <ele>99</ele>
        <time>2011-04-30T09:44:42Z</time>
      </trkpt>
      <trkpt lat="48.44028" lon="2.06258">
        <ele>99</ele>
        <time>2011-04-30T09:44:43Z</time>
      </trkpt>
      <trkpt lat="48.44027" lon="2.06259">
        <ele>99</ele>
        <time>2011-04-30T09:44:44Z</time>
      </trkpt>
      <trkpt lat="48.44026" lon="2.06259">
        <ele>99</ele>
        <time>2011-04-30T09:44:45Z</time>
      </trkpt>
      <trkpt lat="48.44025" lon="2.0626">
        <ele>99</ele>
        <time>2011-04-30T09:44:46Z</time>
      </trkpt>
      <trkpt lat="48.44024" lon="2.0626">
        <ele>99</ele>
        <time>2011-04-30T09:44:47Z</time>
      </trkpt>
      <trkpt lat="48.44023" lon="2.06261">
        <ele>99</ele>
        <time>2011-04-30T09:44:48Z</time>
      </trkpt>
      <trkpt lat="48.44022" lon="2.06261">
        <ele>99</ele>
        <time>2011-04-30T09:44:49Z</time>
      </trkpt>
      <trkpt lat="48.44021" lon="2.06262">
        <ele>99</ele>
        <time>2011-04-30T09:44:50Z</time>
      </trkpt>
      <trkpt lat="48.4402" lon="2.06263">
        <ele>99</ele>
        <time>2011-04-30T09:44:51Z</time>
      </trkpt>
      <trkpt lat="48.44019" lon="2.06264">
        <ele>99</ele>
        <time>2011-04-30T09:44:52Z</time>
      </trkpt>
      <trkpt lat="48.44018" lon="2.06265">
        <ele>99</ele>
        <time>2011-04-30T09:44:53Z</time>
      </trkpt>
      <trkpt lat="48.44017" lon="2.06265">
        <ele>99</ele>
        <time>2011-04-30T09:44:54Z</time>
      </trkpt>
      <trkpt lat="48.44016" lon="2.06266">
        <ele>99</ele>
        <time>2011-04-30T09:44:55Z</time>
      </trkpt>
      <trkpt lat="48.44016" lon="2.06267">
        <ele>99</ele>
        <time>2011-04-30T09:44:56Z</time>
      </trkpt>
      <trkpt lat="48.44015" lon="2.06268">
        <ele>99</ele>
        <time>2011-04-30T09:44:57Z</time>
      </trkpt>
      <trkpt lat="48.44014" lon="2.06269">
        <ele>99</ele>
        <time>2011-04-30T09:44:58Z</time>
      </trkpt>
      <trkpt lat="48.44013" lon="2.0627">
        <ele>99</ele>
        <time>2011-04-30T09:44:59Z</time>
      </trkpt>
      <trkpt lat="48.44012" lon="2.06272">
        <ele>99</ele>
        <time>2011-04-30T09:45:00Z</time>
      </trkpt>
      <trkpt lat="48.44011" lon="2.06273">
        <ele>99</ele>
        <time>2011-04-30T09:45:01Z</time>
      </trkpt>
      <trkpt lat="48.44009" lon="2.06275">
        <ele>100</ele>
        <time>2011-04-30T09:45:02Z</time>
      </trkpt>
      <trkpt lat="48.44007" lon="2.06276">
        <ele>100</ele>
        <time>2011-04-30T09:45:03Z</time>
      </trkpt>
      <trkpt lat="48.44006" lon="2.06278">
        <ele>100</ele>
        <time>2011-04-30T09:45:04Z</time>
      </trkpt>
      <trkpt lat="48.44004" lon="2.0628">
        <ele>100</ele>
        <time>2011-04-30T09:45:05Z</time>
      </trkpt>
      <trkpt lat="48.44002" lon="2.06281">
        <ele>100</ele>
        <time>2011-04-30T09:45:06Z</time>
      </trkpt>
      <trkpt lat="48.44001" lon="2.06283">
        <ele>100</ele>
        <time>2011-04-30T09:45:07Z</time>
      </trkpt>
      <trkpt lat="48.43999" lon="2.06284">
        <ele>96</ele>
        <time>2011-04-30T09:45:08Z</time>
      </trkpt>
      <trkpt lat="48.43998" lon="2.06286">
        <ele>96</ele>
        <time>2011-04-30T09:45:09Z</time>
      </trkpt>
      <trkpt lat="48.43996" lon="2.06288">
        <ele>96</ele>
        <time>2011-04-30T09:45:10Z</time>
      </trkpt>
      <trkpt lat="48.43994" lon="2.0629">
        <ele>96</ele>
        <time>2011-04-30T09:45:11Z</time>
      </trkpt>
      <trkpt lat="48.43992" lon="2.06291">
        <ele>97</ele>
        <time>2011-04-30T09:45:12Z</time>
      </trkpt>
      <trkpt lat="48.4399" lon="2.06293">
        <ele>97</ele>
        <time>2011-04-30T09:45:13Z</time>
      </trkpt>
      <trkpt lat="48.43988" lon="2.06295">
        <ele>97</ele>
        <time>2011-04-30T09:45:14Z</time>
      </trkpt>
      <trkpt lat="48.43987" lon="2.06297">
        <ele>97</ele>
        <time>2011-04-30T09:45:15Z</time>
      </trkpt>
      <trkpt lat="48.43985" lon="2.06299">
        <ele>97</ele>
        <time>2011-04-30T09:45:16Z</time>
      </trkpt>
      <trkpt lat="48.43983" lon="2.06301">
        <ele>97</ele>
        <time>2011-04-30T09:45:17Z</time>
      </trkpt>
      <trkpt lat="48.43981" lon="2.06302">
        <ele>97</ele>
        <time>2011-04-30T09:45:18Z</time>
      </trkpt>
      <trkpt lat="48.43979" lon="2.06304">
        <ele>97</ele>
        <time>2011-04-30T09:45:19Z</time>
      </trkpt>
      <trkpt lat="48.43978" lon="2.06306">
        <ele>97</ele>
        <time>2011-04-30T09:45:20Z</time>
      </trkpt>
      <trkpt lat="48.43976" lon="2.06307">
        <ele>97</ele>
        <time>2011-04-30T09:45:21Z</time>
      </trkpt>
      <trkpt lat="48.43974" lon="2.06308">
        <ele>97</ele>
        <time>2011-04-30T09:45:22Z</time>
      </trkpt>
      <trkpt lat="48.43973" lon="2.0631">
        <ele>97</ele>
        <time>2011-04-30T09:45:23Z</time>
      </trkpt>
      <trkpt lat="48.43971" lon="2.06312">
        <ele>97</ele>
        <time>2011-04-30T09:45:24Z</time>
      </trkpt>
      <trkpt lat="48.4397" lon="2.06313">
        <ele>97</ele>
        <time>2011-04-30T09:45:25Z</time>
      </trkpt>
      <trkpt lat="48.43969" lon="2.06315">
        <ele>97</ele>
        <time>2011-04-30T09:45:26Z</time>
      </trkpt>
      <trkpt lat="48.43968" lon="2.06317">
        <ele>97</ele>
        <time>2011-04-30T09:45:27Z</time>
      </trkpt>
      <trkpt lat="48.43967" lon="2.06318">
        <ele>97</ele>
        <time>2011-04-30T09:45:28Z</time>
      </trkpt>
      <trkpt lat="48.43966" lon="2.0632">
        <ele>97</ele>
        <time>2011-04-30T09:45:29Z</time>
      </trkpt>
      <trkpt lat="48.43965" lon="2.06321">
        <ele>97</ele>
        <time>2011-04-30T09:45:30Z</time>
      </trkpt>
      <trkpt lat="48.43964" lon="2.06322">
        <ele>97</ele>
        <time>2011-04-30T09:45:31Z</time>
      </trkpt>
      <trkpt lat="48.43963" lon="2.06323">
        <ele>96</ele>
        <time>2011-04-30T09:45:32Z</time>
      </trkpt>
      <trkpt lat="48.43962" lon="2.06325">
        <ele>96</ele>
        <time>2011-04-30T09:45:33Z</time>
      </trkpt>
      <trkpt lat="48.43961" lon="2.06326">
        <ele>96</ele>
        <time>2011-04-30T09:45:34Z</time>
      </trkpt>
      <trkpt lat="48.4396" lon="2.06327">
        <ele>96</ele>
        <time>2011-04-30T09:45:35Z</time>
      </trkpt>
      <trkpt lat="48.43959" lon="2.06328">
        <ele>96</ele>
        <time>2011-04-30T09:45:36Z</time>
      </trkpt>
      <trkpt lat="48.43958" lon="2.06329">
        <ele>96</ele>
        <time>2011-04-30T09:45:37Z</time>
      </trkpt>
      <trkpt lat="48.43957" lon="2.0633">
        <ele>96</ele>
        <time>2011-04-30T09:45:38Z</time>
      </trkpt>
      <trkpt lat="48.43955" lon="2.06331">
        <ele>96</ele>
        <time>2011-04-30T09:45:39Z</time>
      </trkpt>
      <trkpt lat="48.43954" lon="2.06332">
        <ele>95</ele>
        <time>2011-04-30T09:45:40Z</time>
      </trkpt>
      <trkpt lat="48.43952" lon="2.06333">
        <ele>95</ele>
        <time>2011-04-30T09:45:41Z</time>
      </trkpt>
      <trkpt lat="48.4395" lon="2.06334">
        <ele>97</ele>
        <time>2011-04-30T09:45:42Z</time>
      </trkpt>
      <trkpt lat="48.43948" lon="2.06335">
        <ele>97</ele>
        <time>2011-04-30T09:45:43Z</time>
      </trkpt>
      <trkpt lat="48.43946" lon="2.06336">
        <ele>97</ele>
        <time>2011-04-30T09:45:44Z</time>
      </trkpt>
      <trkpt lat="48.43944" lon="2.06338">
        <ele>96</ele>
        <time>2011-04-30T09:45:45Z</time>
      </trkpt>
      <trkpt lat="48.43942" lon="2.0634">
        <ele>96</ele>
        <time>2011-04-30T09:45:46Z</time>
      </trkpt>
      <trkpt lat="48.4394" lon="2.06341">
        <ele>96</ele>
        <time>2011-04-30T09:45:47Z</time>
      </trkpt>
      <trkpt lat="48.43939" lon="2.06343">
        <ele>96</ele>
        <time>2011-04-30T09:45:48Z</time>
      </trkpt>
      <trkpt lat="48.43937" lon="2.06344">
        <ele>95</ele>
        <time>2011-04-30T09:45:49Z</time>
      </trkpt>
      <trkpt lat="48.43935" lon="2.06345">
        <ele>95</ele>
        <time>2011-04-30T09:45:50Z</time>
      </trkpt>
      <trkpt lat="48.43933" lon="2.06347">
        <ele>95</ele>
        <time>2011-04-30T09:45:51Z</time>
      </trkpt>
      <trkpt lat="48.43931" lon="2.06348">
        <ele>95</ele>
        <time>2011-04-30T09:45:52Z</time>
      </trkpt>
      <trkpt lat="48.43929" lon="2.0635">
        <ele>95</ele>
        <time>2011-04-30T09:45:53Z</time>
      </trkpt>
      <trkpt lat="48.43927" lon="2.06352">
        <ele>95</ele>
        <time>2011-04-30T09:45:54Z</time>
      </trkpt>
      <trkpt lat="48.43924" lon="2.06353">
        <ele>95</ele>
        <time>2011-04-30T09:45:55Z</time>
      </trkpt>
      <trkpt lat="48.43922" lon="2.06355">
        <ele>95</ele>
        <time>2011-04-30T09:45:56Z</time>
      </trkpt>
      <trkpt lat="48.4392" lon="2.06356">
        <ele>95</ele>
        <time>2011-04-30T09:45:57Z</time>
      </trkpt>
      <trkpt lat="48.43917" lon="2.06358">
        <ele>95</ele>
        <time>2011-04-30T09:45:58Z</time>
      </trkpt>
      <trkpt lat="48.43915" lon="2.0636">
        <ele>90</ele>
        <time>2011-04-30T09:45:59Z</time>
      </trkpt>
      <trkpt lat="48.43913" lon="2.06362">
        <ele>90</ele>
        <time>2011-04-30T09:46:00Z</time>
      </trkpt>
      <trkpt lat="48.4391" lon="2.06363">
        <ele>90</ele>
        <time>2011-04-30T09:46:01Z</time>
      </trkpt>
      <trkpt lat="48.43908" lon="2.06365">
        <ele>90</ele>
        <time>2011-04-30T09:46:02Z</time>
      </trkpt>
      <trkpt lat="48.43906" lon="2.06367">
        <ele>90</ele>
        <time>2011-04-30T09:46:03Z</time>
      </trkpt>
      <trkpt lat="48.43904" lon="2.06368">
        <ele>89</ele>
        <time>2011-04-30T09:46:04Z</time>
      </trkpt>
      <trkpt lat="48.43903" lon="2.0637">
        <ele>89</ele>
        <time>2011-04-30T09:46:05Z</time>
      </trkpt>
      <trkpt lat="48.43901" lon="2.06371">
        <ele>89</ele>
        <time>2011-04-30T09:46:06Z</time>
      </trkpt>
      <trkpt lat="48.43899" lon="2.06372">
        <ele>89</ele>
        <time>2011-04-30T09:46:07Z</time>
      </trkpt>
      <trkpt lat="48.43897" lon="2.06373">
        <ele>89</ele>
        <time>2011-04-30T09:46:08Z</time>
      </trkpt>
      <trkpt lat="48.43895" lon="2.06375">
        <ele>89</ele>
        <time>2011-04-30T09:46:09Z</time>
      </trkpt>
      <trkpt lat="48.43893" lon="2.06376">
        <ele>89</ele>
        <time>2011-04-30T09:46:10Z</time>
      </trkpt>
      <trkpt lat="48.43891" lon="2.06378">
        <ele>89</ele>
        <time>2011-04-30T09:46:11Z</time>
      </trkpt>
      <trkpt lat="48.4389" lon="2.0638">
        <ele>89</ele>
        <time>2011-04-30T09:46:12Z</time>
      </trkpt>
      <trkpt lat="48.43888" lon="2.06382">
        <ele>89</ele>
        <time>2011-04-30T09:46:13Z</time>
      </trkpt>
      <trkpt lat="48.43887" lon="2.06383">
        <ele>89</ele>
        <time>2011-04-30T09:46:14Z</time>
      </trkpt>
      <trkpt lat="48.43885" lon="2.06385">
        <ele>89</ele>
        <time>2011-04-30T09:46:15Z</time>
      </trkpt>
      <trkpt lat="48.43883" lon="2.06388">
        <ele>89</ele>
        <time>2011-04-30T09:46:16Z</time>
      </trkpt>
      <trkpt lat="48.4388" lon="2.0639">
        <ele>89</ele>
        <time>2011-04-30T09:46:17Z</time>
      </trkpt>
      <trkpt lat="48.43879" lon="2.06392">
        <ele>89</ele>
        <time>2011-04-30T09:46:18Z</time>
      </trkpt>
      <trkpt lat="48.43877" lon="2.06393">
        <ele>89</ele>
        <time>2011-04-30T09:46:19Z</time>
      </trkpt>
      <trkpt lat="48.43874" lon="2.06395">
        <ele>89</ele>
        <time>2011-04-30T09:46:20Z</time>
      </trkpt>
      <trkpt lat="48.43872" lon="2.06397">
        <ele>89</ele>
        <time>2011-04-30T09:46:21Z</time>
      </trkpt>
      <trkpt lat="48.43869" lon="2.06399">
        <ele>89</ele>
        <time>2011-04-30T09:46:22Z</time>
      </trkpt>
      <trkpt lat="48.43866" lon="2.06401">
        <ele>89</ele>
        <time>2011-04-30T09:46:23Z</time>
      </trkpt>
      <trkpt lat="48.43863" lon="2.06403">
        <ele>89</ele>
        <time>2011-04-30T09:46:24Z</time>
      </trkpt>
      <trkpt lat="48.4386" lon="2.06405">
        <ele>89</ele>
        <time>2011-04-30T09:46:25Z</time>
      </trkpt>
      <trkpt lat="48.43857" lon="2.06407">
        <ele>89</ele>
        <time>2011-04-30T09:46:26Z</time>
      </trkpt>
      <trkpt lat="48.43854" lon="2.06409">
        <ele>89</ele>
        <time>2011-04-30T09:46:27Z</time>
      </trkpt>
      <trkpt lat="48.43851" lon="2.06412">
        <ele>89</ele>
        <time>2011-04-30T09:46:28Z</time>
      </trkpt>
      <trkpt lat="48.43848" lon="2.06414">
        <ele>89</ele>
        <time>2011-04-30T09:46:29Z</time>
      </trkpt>
      <trkpt lat="48.43846" lon="2.06416">
        <ele>89</ele>
        <time>2011-04-30T09:46:30Z</time>
      </trkpt>
      <trkpt lat="48.43843" lon="2.06418">
        <ele>88</ele>
        <time>2011-04-30T09:46:31Z</time>
      </trkpt>
      <trkpt lat="48.43841" lon="2.0642">
        <ele>88</ele>
        <time>2011-04-30T09:46:32Z</time>
      </trkpt>
      <trkpt lat="48.43838" lon="2.06422">
        <ele>88</ele>
        <time>2011-04-30T09:46:33Z</time>
      </trkpt>
      <trkpt lat="48.43836" lon="2.06424">
        <ele>88</ele>
        <time>2011-04-30T09:46:34Z</time>
      </trkpt>
      <trkpt lat="48.43834" lon="2.06426">
        <ele>88</ele>
        <time>2011-04-30T09:46:35Z</time>
      </trkpt>
      <trkpt lat="48.43832" lon="2.06427">
        <ele>87</ele>
        <time>2011-04-30T09:46:36Z</time>
      </trkpt>
      <trkpt lat="48.4383" lon="2.06429">
        <ele>87</ele>
        <time>2011-04-30T09:46:37Z</time>
      </trkpt>
      <trkpt lat="48.43828" lon="2.06431">
        <ele>87</ele>
        <time>2011-04-30T09:46:38Z</time>
      </trkpt>
      <trkpt lat="48.43825" lon="2.06433">
        <ele>87</ele>
        <time>2011-04-30T09:46:39Z</time>
      </trkpt>
      <trkpt lat="48.43823" lon="2.06434">
        <ele>87</ele>
        <time>2011-04-30T09:46:40Z</time>
      </trkpt>
      <trkpt lat="48.43821" lon="2.06436">
        <ele>87</ele>
        <time>2011-04-30T09:46:41Z</time>
      </trkpt>
      <trkpt lat="48.43819" lon="2.06438">
        <ele>87</ele>
        <time>2011-04-30T09:46:42Z</time>
      </trkpt>
      <trkpt lat="48.43817" lon="2.0644">
        <ele>87</ele>
        <time>2011-04-30T09:46:43Z</time>
      </trkpt>
      <trkpt lat="48.43816" lon="2.06442">
        <ele>87</ele>
        <time>2011-04-30T09:46:44Z</time>
      </trkpt>
      <trkpt lat="48.43814" lon="2.06444">
        <ele>87</ele>
        <time>2011-04-30T09:46:45Z</time>
      </trkpt>
      <trkpt lat="48.43812" lon="2.06446">
        <ele>87</ele>
        <time>2011-04-30T09:46:46Z</time>
      </trkpt>
      <trkpt lat="48.4381" lon="2.06448">
        <ele>87</ele>
        <time>2011-04-30T09:46:47Z</time>
      </trkpt>
      <trkpt lat="48.43808" lon="2.0645">
        <ele>87</ele>
        <time>2011-04-30T09:46:48Z</time>
      </trkpt>
      <trkpt lat="48.43807" lon="2.06452">
        <ele>87</ele>
        <time>2011-04-30T09:46:49Z</time>
      </trkpt>
      <trkpt lat="48.43805" lon="2.06454">
        <ele>87</ele>
        <time>2011-04-30T09:46:50Z</time>
      </trkpt>
      <trkpt lat="48.43803" lon="2.06456">
        <ele>87</ele>
        <time>2011-04-30T09:46:51Z</time>
      </trkpt>
      <trkpt lat="48.43801" lon="2.06457">
        <ele>86</ele>
        <time>2011-04-30T09:46:52Z</time>
      </trkpt>
      <trkpt lat="48.43799" lon="2.06459">
        <ele>86</ele>
        <time>2011-04-30T09:46:53Z</time>
      </trkpt>
      <trkpt lat="48.43797" lon="2.06461">
        <ele>86</ele>
        <time>2011-04-30T09:46:54Z</time>
      </trkpt>
      <trkpt lat="48.43795" lon="2.06463">
        <ele>86</ele>
        <time>2011-04-30T09:46:55Z</time>
      </trkpt>
      <trkpt lat="48.43793" lon="2.06465">
        <ele>86</ele>
        <time>2011-04-30T09:46:56Z</time>
      </trkpt>
      <trkpt lat="48.43791" lon="2.06467">
        <ele>86</ele>
        <time>2011-04-30T09:46:57Z</time>
      </trkpt>
      <trkpt lat="48.43789" lon="2.06469">
        <ele>86</ele>
        <time>2011-04-30T09:46:58Z</time>
      </trkpt>
      <trkpt lat="48.43786" lon="2.06471">
        <ele>86</ele>
        <time>2011-04-30T09:46:59Z</time>
      </trkpt>
      <trkpt lat="48.43783" lon="2.06473">
        <ele>86</ele>
        <time>2011-04-30T09:47:00Z</time>
      </trkpt>
      <trkpt lat="48.43781" lon="2.06475">
        <ele>86</ele>
        <time>2011-04-30T09:47:01Z</time>
      </trkpt>
      <trkpt lat="48.43777" lon="2.06478">
        <ele>86</ele>
        <time>2011-04-30T09:47:02Z</time>
      </trkpt>
      <trkpt lat="48.43774" lon="2.06481">
        <ele>86</ele>
        <time>2011-04-30T09:47:03Z</time>
      </trkpt>
      <trkpt lat="48.43771" lon="2.06484">
        <ele>86</ele>
        <time>2011-04-30T09:47:04Z</time>
      </trkpt>
      <trkpt lat="48.43768" lon="2.06487">
        <ele>86</ele>
        <time>2011-04-30T09:47:05Z</time>
      </trkpt>
      <trkpt lat="48.43765" lon="2.06489">
        <ele>86</ele>
        <time>2011-04-30T09:47:06Z</time>
      </trkpt>
      <trkpt lat="48.43762" lon="2.06492">
        <ele>86</ele>
        <time>2011-04-30T09:47:07Z</time>
      </trkpt>
      <trkpt lat="48.4376" lon="2.06494">
        <ele>86</ele>
        <time>2011-04-30T09:47:08Z</time>
      </trkpt>
      <trkpt lat="48.43758" lon="2.06496">
        <ele>85</ele>
        <time>2011-04-30T09:47:09Z</time>
      </trkpt>
      <trkpt lat="48.43755" lon="2.06499">
        <ele>85</ele>
        <time>2011-04-30T09:47:10Z</time>
      </trkpt>
      <trkpt lat="48.43753" lon="2.06502">
        <ele>85</ele>
        <time>2011-04-30T09:47:11Z</time>
      </trkpt>
      <trkpt lat="48.4375" lon="2.06505">
        <ele>85</ele>
        <time>2011-04-30T09:47:12Z</time>
      </trkpt>
      <trkpt lat="48.43747" lon="2.06508">
        <ele>85</ele>
        <time>2011-04-30T09:47:13Z</time>
      </trkpt>
      <trkpt lat="48.43744" lon="2.06511">
        <ele>85</ele>
        <time>2011-04-30T09:47:14Z</time>
      </trkpt>
      <trkpt lat="48.43742" lon="2.06514">
        <ele>85</ele>
        <time>2011-04-30T09:47:15Z</time>
      </trkpt>
      <trkpt lat="48.43739" lon="2.06517">
        <ele>85</ele>
        <time>2011-04-30T09:47:16Z</time>
      </trkpt>
      <trkpt lat="48.43737" lon="2.0652">
        <ele>85</ele>
        <time>2011-04-30T09:47:17Z</time>
      </trkpt>
      <trkpt lat="48.43735" lon="2.06522">
        <ele>85</ele>
        <time>2011-04-30T09:47:18Z</time>
      </trkpt>
      <trkpt lat="48.43733" lon="2.06525">
        <ele>85</ele>
        <time>2011-04-30T09:47:19Z</time>
      </trkpt>
      <trkpt lat="48.43731" lon="2.06528">
        <ele>85</ele>
        <time>2011-04-30T09:47:20Z</time>
      </trkpt>
      <trkpt lat="48.43729" lon="2.0653">
        <ele>85</ele>
        <time>2011-04-30T09:47:21Z</time>
      </trkpt>
      <trkpt lat="48.43727" lon="2.06533">
        <ele>85</ele>
        <time>2011-04-30T09:47:22Z</time>
      </trkpt>
      <trkpt lat="48.43725" lon="2.06535">
        <ele>85</ele>
        <time>2011-04-30T09:47:23Z</time>
      </trkpt>
      <trkpt lat="48.43723" lon="2.06538">
        <ele>85</ele>
        <time>2011-04-30T09:47:24Z</time>
      </trkpt>
      <trkpt lat="48.43721" lon="2.0654">
        <ele>85</ele>
        <time>2011-04-30T09:47:25Z</time>
      </trkpt>
      <trkpt lat="48.43719" lon="2.06543">
        <ele>85</ele>
        <time>2011-04-30T09:47:26Z</time>
      </trkpt>
      <trkpt lat="48.43717" lon="2.06545">
        <ele>85</ele>
        <time>2011-04-30T09:47:27Z</time>
      </trkpt>
      <trkpt lat="48.43715" lon="2.06548">
        <ele>85</ele>
        <time>2011-04-30T09:47:28Z</time>
      </trkpt>
      <trkpt lat="48.43714" lon="2.06551">
        <ele>85</ele>
        <time>2011-04-30T09:47:29Z</time>
      </trkpt>
      <trkpt lat="48.43712" lon="2.06554">
        <ele>85</ele>
        <time>2011-04-30T09:47:30Z</time>
      </trkpt>
      <trkpt lat="48.4371" lon="2.06556">
        <ele>85</ele>
        <time>2011-04-30T09:47:31Z</time>
      </trkpt>
      <trkpt lat="48.43709" lon="2.06559">
        <ele>85</ele>
        <time>2011-04-30T09:47:32Z</time>
      </trkpt>
      <trkpt lat="48.43707" lon="2.06562">
        <ele>85</ele>
        <time>2011-04-30T09:47:33Z</time>
      </trkpt>
      <trkpt lat="48.43706" lon="2.06565">
        <ele>85</ele>
        <time>2011-04-30T09:47:34Z</time>
      </trkpt>
      <trkpt lat="48.43704" lon="2.06567">
        <ele>85</ele>
        <time>2011-04-30T09:47:35Z</time>
      </trkpt>
      <trkpt lat="48.43703" lon="2.0657">
        <ele>85</ele>
        <time>2011-04-30T09:47:36Z</time>
      </trkpt>
      <trkpt lat="48.43702" lon="2.06573">
        <ele>85</ele>
        <time>2011-04-30T09:47:37Z</time>
      </trkpt>
      <trkpt lat="48.437" lon="2.06576">
        <ele>85</ele>
        <time>2011-04-30T09:47:38Z</time>
      </trkpt>
      <trkpt lat="48.43699" lon="2.06579">
        <ele>85</ele>
        <time>2011-04-30T09:47:39Z</time>
      </trkpt>
      <trkpt lat="48.43697" lon="2.06581">
        <ele>85</ele>
        <time>2011-04-30T09:47:40Z</time>
      </trkpt>
      <trkpt lat="48.43696" lon="2.06584">
        <ele>85</ele>
        <time>2011-04-30T09:47:41Z</time>
      </trkpt>
      <trkpt lat="48.43695" lon="2.06587">
        <ele>85</ele>
        <time>2011-04-30T09:47:42Z</time>
      </trkpt>
      <trkpt lat="48.43693" lon="2.0659">
        <ele>85</ele>
        <time>2011-04-30T09:47:43Z</time>
      </trkpt>
      <trkpt lat="48.43692" lon="2.06592">
        <ele>85</ele>
        <time>2011-04-30T09:47:44Z</time>
      </trkpt>
      <trkpt lat="48.43691" lon="2.06595">
        <ele>85</ele>
        <time>2011-04-30T09:47:45Z</time>
      </trkpt>
      <trkpt lat="48.43689" lon="2.06598">
        <ele>85</ele>
        <time>2011-04-30T09:47:46Z</time>
      </trkpt>
      <trkpt lat="48.43688" lon="2.06601">
        <ele>85</ele>
        <time>2011-04-30T09:47:47Z</time>
      </trkpt>
      <trkpt lat="48.43687" lon="2.06603">
        <ele>85</ele>
        <time>2011-04-30T09:47:48Z</time>
      </trkpt>
      <trkpt lat="48.43686" lon="2.06606">
        <ele>85</ele>
        <time>2011-04-30T09:47:49Z</time>
      </trkpt>
      <trkpt lat="48.43685" lon="2.06608">
        <ele>85</ele>
        <time>2011-04-30T09:47:50Z</time>
      </trkpt>
      <trkpt lat="48.43683" lon="2.0661">
        <ele>85</ele>
        <time>2011-04-30T09:47:51Z</time>
      </trkpt>
      <trkpt lat="48.43681" lon="2.06613">
        <ele>85</ele>
        <time>2011-04-30T09:47:52Z</time>
      </trkpt>
      <trkpt lat="48.4368" lon="2.06615">
        <ele>85</ele>
        <time>2011-04-30T09:47:53Z</time>
      </trkpt>
      <trkpt lat="48.43677" lon="2.06617">
        <ele>85</ele>
        <time>2011-04-30T09:47:54Z</time>
      </trkpt>
      <trkpt lat="48.43675" lon="2.0662">
        <ele>85</ele>
        <time>2011-04-30T09:47:55Z</time>
      </trkpt>
      <trkpt lat="48.43674" lon="2.06622">
        <ele>85</ele>
        <time>2011-04-30T09:47:56Z</time>
      </trkpt>
      <trkpt lat="48.43672" lon="2.06625">
        <ele>85</ele>
        <time>2011-04-30T09:47:57Z</time>
      </trkpt>
      <trkpt lat="48.4367" lon="2.06627">
        <ele>85</ele>
        <time>2011-04-30T09:47:58Z</time>
      </trkpt>
      <trkpt lat="48.43668" lon="2.0663">
        <ele>85</ele>
        <time>2011-04-30T09:47:59Z</time>
      </trkpt>
      <trkpt lat="48.43665" lon="2.06632">
        <ele>85</ele>
        <time>2011-04-30T09:48:00Z</time>
      </trkpt>
      <trkpt lat="48.43663" lon="2.06634">
        <ele>85</ele>
        <time>2011-04-30T09:48:01Z</time>
      </trkpt>
      <trkpt lat="48.43661" lon="2.06637">
        <ele>85</ele>
        <time>2011-04-30T09:48:02Z</time>
      </trkpt>
      <trkpt lat="48.4366" lon="2.0664">
        <ele>85</ele>
        <time>2011-04-30T09:48:03Z</time>
      </trkpt>
      <trkpt lat="48.43658" lon="2.06643">
        <ele>85</ele>
        <time>2011-04-30T09:48:04Z</time>
      </trkpt>
      <trkpt lat="48.43657" lon="2.06646">
        <ele>85</ele>
        <time>2011-04-30T09:48:05Z</time>
      </trkpt>
      <trkpt lat="48.43656" lon="2.06649">
        <ele>85</ele>
        <time>2011-04-30T09:48:06Z</time>
      </trkpt>
      <trkpt lat="48.43654" lon="2.06653">
        <ele>85</ele>
        <time>2011-04-30T09:48:07Z</time>
      </trkpt>
      <trkpt lat="48.43652" lon="2.06657">
        <ele>85</ele>
        <time>2011-04-30T09:48:08Z</time>
      </trkpt>
      <trkpt lat="48.43651" lon="2.06661">
        <ele>85</ele>
        <time>2011-04-30T09:48:09Z</time>
      </trkpt>
      <trkpt lat="48.43649" lon="2.06664">
        <ele>85</ele>
        <time>2011-04-30T09:48:10Z</time>
      </trkpt>
      <trkpt lat="48.43647" lon="2.06667">
        <ele>86</ele>
        <time>2011-04-30T09:48:11Z</time>
      </trkpt>
      <trkpt lat="48.43646" lon="2.0667">
        <ele>86</ele>
        <time>2011-04-30T09:48:12Z</time>
      </trkpt>
      <trkpt lat="48.43644" lon="2.06673">
        <ele>86</ele>
        <time>2011-04-30T09:48:13Z</time>
      </trkpt>
      <trkpt lat="48.43642" lon="2.06677">
        <ele>86</ele>
        <time>2011-04-30T09:48:14Z</time>
      </trkpt>
      <trkpt lat="48.4364" lon="2.0668">
        <ele>87</ele>
        <time>2011-04-30T09:48:15Z</time>
      </trkpt>
      <trkpt lat="48.43639" lon="2.06684">
        <ele>87</ele>
        <time>2011-04-30T09:48:16Z</time>
      </trkpt>
      <trkpt lat="48.43637" lon="2.06687">
        <ele>87</ele>
        <time>2011-04-30T09:48:17Z</time>
      </trkpt>
      <trkpt lat="48.43635" lon="2.06691">
        <ele>87</ele>
        <time>2011-04-30T09:48:18Z</time>
      </trkpt>
      <trkpt lat="48.43634" lon="2.06695">
        <ele>87</ele>
        <time>2011-04-30T09:48:19Z</time>
      </trkpt>
      <trkpt lat="48.43633" lon="2.06698">
        <ele>87</ele>
        <time>2011-04-30T09:48:20Z</time>
      </trkpt>
      <trkpt lat="48.43631" lon="2.06701">
        <ele>87</ele>
        <time>2011-04-30T09:48:21Z</time>
      </trkpt>
      <trkpt lat="48.4363" lon="2.06704">
        <ele>87</ele>
        <time>2011-04-30T09:48:22Z</time>
      </trkpt>
      <trkpt lat="48.43628" lon="2.06707">
        <ele>87</ele>
        <time>2011-04-30T09:48:23Z</time>
      </trkpt>
      <trkpt lat="48.43627" lon="2.06709">
        <ele>88</ele>
        <time>2011-04-30T09:48:24Z</time>
      </trkpt>
      <trkpt lat="48.43626" lon="2.06711">
        <ele>88</ele>
        <time>2011-04-30T09:48:25Z</time>
      </trkpt>
      <trkpt lat="48.43625" lon="2.06713">
        <ele>88</ele>
        <time>2011-04-30T09:48:26Z</time>
      </trkpt>
      <trkpt lat="48.43624" lon="2.06715">
        <ele>88</ele>
        <time>2011-04-30T09:48:27Z</time>
      </trkpt>
      <trkpt lat="48.43623" lon="2.06717">
        <ele>88</ele>
        <time>2011-04-30T09:48:28Z</time>
      </trkpt>
      <trkpt lat="48.43622" lon="2.06719">
        <ele>88</ele>
        <time>2011-04-30T09:48:29Z</time>
      </trkpt>
      <trkpt lat="48.4362" lon="2.06722">
        <ele>88</ele>
        <time>2011-04-30T09:48:30Z</time>
      </trkpt>
      <trkpt lat="48.43619" lon="2.06725">
        <ele>88</ele>
        <time>2011-04-30T09:48:31Z</time>
      </trkpt>
      <trkpt lat="48.43617" lon="2.06728">
        <ele>88</ele>
        <time>2011-04-30T09:48:32Z</time>
      </trkpt>
      <trkpt lat="48.43614" lon="2.06731">
        <ele>88</ele>
        <time>2011-04-30T09:48:33Z</time>
      </trkpt>
      <trkpt lat="48.43612" lon="2.06734">
        <ele>88</ele>
        <time>2011-04-30T09:48:34Z</time>
      </trkpt>
      <trkpt lat="48.4361" lon="2.06737">
        <ele>88</ele>
        <time>2011-04-30T09:48:35Z</time>
      </trkpt>
      <trkpt lat="48.43608" lon="2.0674">
        <ele>89</ele>
        <time>2011-04-30T09:48:36Z</time>
      </trkpt>
      <trkpt lat="48.43605" lon="2.06743">
        <ele>89</ele>
        <time>2011-04-30T09:48:37Z</time>
      </trkpt>
      <trkpt lat="48.43603" lon="2.06746">
        <ele>89</ele>
        <time>2011-04-30T09:48:38Z</time>
      </trkpt>
      <trkpt lat="48.43601" lon="2.0675">
        <ele>89</ele>
        <time>2011-04-30T09:48:39Z</time>
      </trkpt>
      <trkpt lat="48.43599" lon="2.06753">
        <ele>91</ele>
        <time>2011-04-30T09:48:40Z</time>
      </trkpt>
      <trkpt lat="48.43597" lon="2.06757">
        <ele>91</ele>
        <time>2011-04-30T09:48:41Z</time>
      </trkpt>
      <trkpt lat="48.43595" lon="2.0676">
        <ele>91</ele>
        <time>2011-04-30T09:48:42Z</time>
      </trkpt>
      <trkpt lat="48.43593" lon="2.06763">
        <ele>91</ele>
        <time>2011-04-30T09:48:43Z</time>
      </trkpt>
      <trkpt lat="48.43592" lon="2.06766">
        <ele>91</ele>
        <time>2011-04-30T09:48:44Z</time>
      </trkpt>
      <trkpt lat="48.4359" lon="2.06769">
        <ele>91</ele>
        <time>2011-04-30T09:48:45Z</time>
      </trkpt>
      <trkpt lat="48.43589" lon="2.06772">
        <ele>91</ele>
        <time>2011-04-30T09:48:46Z</time>
      </trkpt>
      <trkpt lat="48.43587" lon="2.06775">
        <ele>91</ele>
        <time>2011-04-30T09:48:47Z</time>
      </trkpt>
      <trkpt lat="48.43586" lon="2.06778">
        <ele>91</ele>
        <time>2011-04-30T09:48:48Z</time>
      </trkpt>
      <trkpt lat="48.43585" lon="2.06781">
        <ele>91</ele>
        <time>2011-04-30T09:48:49Z</time>
      </trkpt>
      <trkpt lat="48.43584" lon="2.06785">
        <ele>91</ele>
        <time>2011-04-30T09:48:50Z</time>
      </trkpt>
      <trkpt lat="48.43583" lon="2.06788">
        <ele>89</ele>
        <time>2011-04-30T09:48:51Z</time>
      </trkpt>
      <trkpt lat="48.43582" lon="2.06791">
        <ele>89</ele>
        <time>2011-04-30T09:48:52Z</time>
      </trkpt>
      <trkpt lat="48.43581" lon="2.06795">
        <ele>89</ele>
        <time>2011-04-30T09:48:53Z</time>
      </trkpt>
      <trkpt lat="48.4358" lon="2.06799">
        <ele>89</ele>
        <time>2011-04-30T09:48:54Z</time>
      </trkpt>
      <trkpt lat="48.43578" lon="2.06804">
        <ele>89</ele>
        <time>2011-04-30T09:48:55Z</time>
      </trkpt>
      <trkpt lat="48.43577" lon="2.06809">
        <ele>89</ele>
        <time>2011-04-30T09:48:56Z</time>
      </trkpt>
      <trkpt lat="48.43576" lon="2.06814">
        <ele>89</ele>
        <time>2011-04-30T09:48:57Z</time>
      </trkpt>
      <trkpt lat="48.43575" lon="2.06818">
        <ele>89</ele>
        <time>2011-04-30T09:48:58Z</time>
      </trkpt>
      <trkpt lat="48.43574" lon="2.06822">
        <ele>89</ele>
        <time>2011-04-30T09:48:59Z</time>
      </trkpt>
      <trkpt lat="48.43573" lon="2.06826">
        <ele>89</ele>
        <time>2011-04-30T09:49:00Z</time>
      </trkpt>
      <trkpt lat="48.43572" lon="2.06831">
        <ele>89</ele>
        <time>2011-04-30T09:49:01Z</time>
      </trkpt>
      <trkpt lat="48.43571" lon="2.06835">
        <ele>89</ele>
        <time>2011-04-30T09:49:02Z</time>
      </trkpt>
      <trkpt lat="48.4357" lon="2.06839">
        <ele>89</ele>
        <time>2011-04-30T09:49:03Z</time>
      </trkpt>
      <trkpt lat="48.43569" lon="2.06843">
        <ele>89</ele>
        <time>2011-04-30T09:49:04Z</time>
      </trkpt>
      <trkpt lat="48.43568" lon="2.06847">
        <ele>89</ele>
        <time>2011-04-30T09:49:05Z</time>
      </trkpt>
      <trkpt lat="48.43567" lon="2.06851">
        <ele>89</ele>
        <time>2011-04-30T09:49:06Z</time>
      </trkpt>
      <trkpt lat="48.43566" lon="2.06855">
        <ele>89</ele>
        <time>2011-04-30T09:49:07Z</time>
      </trkpt>
      <trkpt lat="48.43565" lon="2.06859">
        <ele>89</ele>
        <time>2011-04-30T09:49:08Z</time>
      </trkpt>
      <trkpt lat="48.43565" lon="2.06863">
        <ele>89</ele>
        <time>2011-04-30T09:49:09Z</time>
      </trkpt>
      <trkpt lat="48.43564" lon="2.06866">
        <ele>89</ele>
        <time>2011-04-30T09:49:10Z</time>
      </trkpt>
      <trkpt lat="48.43564" lon="2.0687">
        <ele>89</ele>
        <time>2011-04-30T09:49:11Z</time>
      </trkpt>
      <trkpt lat="48.43563" lon="2.06874">
        <ele>89</ele>
        <time>2011-04-30T09:49:12Z</time>
      </trkpt>
      <trkpt lat="48.43563" lon="2.06877">
        <ele>89</ele>
        <time>2011-04-30T09:49:13Z</time>
      </trkpt>
      <trkpt lat="48.43563" lon="2.06881">
        <ele>89</ele>
        <time>2011-04-30T09:49:14Z</time>
      </trkpt>
      <trkpt lat="48.43562" lon="2.06884">
        <ele>89</ele>
        <time>2011-04-30T09:49:15Z</time>
      </trkpt>
      <trkpt lat="48.43562" lon="2.06887">
        <ele>89</ele>
        <time>2011-04-30T09:49:16Z</time>
      </trkpt>
      <trkpt lat="48.43561" lon="2.06891">
        <ele>89</ele>
        <time>2011-04-30T09:49:17Z</time>
      </trkpt>
      <trkpt lat="48.43561" lon="2.06894">
        <ele>90</ele>
        <time>2011-04-30T09:49:18Z</time>
      </trkpt>
      <trkpt lat="48.4356" lon="2.06897">
        <ele>90</ele>
        <time>2011-04-30T09:49:19Z</time>
      </trkpt>
      <trkpt lat="48.43559" lon="2.06901">
        <ele>90</ele>
        <time>2011-04-30T09:49:20Z</time>
      </trkpt>
      <trkpt lat="48.43559" lon="2.06904">
        <ele>90</ele>
        <time>2011-04-30T09:49:21Z</time>
      </trkpt>
      <trkpt lat="48.43558" lon="2.06907">
        <ele>90</ele>
        <time>2011-04-30T09:49:22Z</time>
      </trkpt>
      <trkpt lat="48.43557" lon="2.0691">
        <ele>90</ele>
        <time>2011-04-30T09:49:23Z</time>
      </trkpt>
      <trkpt lat="48.43557" lon="2.06913">
        <ele>90</ele>
        <time>2011-04-30T09:49:24Z</time>
      </trkpt>
      <trkpt lat="48.43556" lon="2.06916">
        <ele>90</ele>
        <time>2011-04-30T09:49:25Z</time>
      </trkpt>
      <trkpt lat="48.43555" lon="2.06919">
        <ele>91</ele>
        <time>2011-04-30T09:49:26Z</time>
      </trkpt>
      <trkpt lat="48.43554" lon="2.06922">
        <ele>91</ele>
        <time>2011-04-30T09:49:27Z</time>
      </trkpt>
      <trkpt lat="48.43553" lon="2.06925">
        <ele>91</ele>
        <time>2011-04-30T09:49:28Z</time>
      </trkpt>
      <trkpt lat="48.43552" lon="2.06928">
        <ele>91</ele>
        <time>2011-04-30T09:49:29Z</time>
      </trkpt>
      <trkpt lat="48.43551" lon="2.06932">
        <ele>91</ele>
        <time>2011-04-30T09:49:30Z</time>
      </trkpt>
      <trkpt lat="48.43551" lon="2.06935">
        <ele>91</ele>
        <time>2011-04-30T09:49:31Z</time>
      </trkpt>
      <trkpt lat="48.4355" lon="2.06939">
        <ele>91</ele>
        <time>2011-04-30T09:49:32Z</time>
      </trkpt>
      <trkpt lat="48.43549" lon="2.06942">
        <ele>91</ele>
        <time>2011-04-30T09:49:33Z</time>
      </trkpt>
      <trkpt lat="48.43549" lon="2.06945">
        <ele>91</ele>
        <time>2011-04-30T09:49:34Z</time>
      </trkpt>
      <trkpt lat="48.43548" lon="2.06948">
        <ele>91</ele>
        <time>2011-04-30T09:49:35Z</time>
      </trkpt>
      <trkpt lat="48.43547" lon="2.06952">
        <ele>91</ele>
        <time>2011-04-30T09:49:36Z</time>
      </trkpt>
      <trkpt lat="48.43546" lon="2.06955">
        <ele>91</ele>
        <time>2011-04-30T09:49:37Z</time>
      </trkpt>
      <trkpt lat="48.43545" lon="2.06958">
        <ele>91</ele>
        <time>2011-04-30T09:49:38Z</time>
      </trkpt>
      <trkpt lat="48.43544" lon="2.06961">
        <ele>91</ele>
        <time>2011-04-30T09:49:39Z</time>
      </trkpt>
      <trkpt lat="48.43543" lon="2.06965">
        <ele>91</ele>
        <time>2011-04-30T09:49:40Z</time>
      </trkpt>
      <trkpt lat="48.43542" lon="2.06969">
        <ele>91</ele>
        <time>2011-04-30T09:49:41Z</time>
      </trkpt>
      <trkpt lat="48.43541" lon="2.06973">
        <ele>91</ele>
        <time>2011-04-30T09:49:42Z</time>
      </trkpt>
      <trkpt lat="48.4354" lon="2.06977">
        <ele>91</ele>
        <time>2011-04-30T09:49:43Z</time>
      </trkpt>
      <trkpt lat="48.43539" lon="2.06981">
        <ele>90</ele>
        <time>2011-04-30T09:49:44Z</time>
      </trkpt>
      <trkpt lat="48.43537" lon="2.06986">
        <ele>90</ele>
        <time>2011-04-30T09:49:45Z</time>
      </trkpt>
      <trkpt lat="48.43536" lon="2.0699">
        <ele>90</ele>
        <time>2011-04-30T09:49:46Z</time>
      </trkpt>
      <trkpt lat="48.43535" lon="2.06995">
        <ele>90</ele>
        <time>2011-04-30T09:49:47Z</time>
      </trkpt>
      <trkpt lat="48.43535" lon="2.06999">
        <ele>90</ele>
        <time>2011-04-30T09:49:48Z</time>
      </trkpt>
      <trkpt lat="48.43534" lon="2.07004">
        <ele>91</ele>
        <time>2011-04-30T09:49:49Z</time>
      </trkpt>
      <trkpt lat="48.43533" lon="2.07008">
        <ele>91</ele>
        <time>2011-04-30T09:49:50Z</time>
      </trkpt>
      <trkpt lat="48.43532" lon="2.07012">
        <ele>90</ele>
        <time>2011-04-30T09:49:51Z</time>
      </trkpt>
      <trkpt lat="48.43531" lon="2.07016">
        <ele>90</ele>
        <time>2011-04-30T09:49:52Z</time>
      </trkpt>
      <trkpt lat="48.4353" lon="2.0702">
        <ele>90</ele>
        <time>2011-04-30T09:49:53Z</time>
      </trkpt>
      <trkpt lat="48.43529" lon="2.07024">
        <ele>90</ele>
        <time>2011-04-30T09:49:54Z</time>
      </trkpt>
      <trkpt lat="48.43528" lon="2.07028">
        <ele>90</ele>
        <time>2011-04-30T09:49:55Z</time>
      </trkpt>
      <trkpt lat="48.43527" lon="2.07032">
        <ele>90</ele>
        <time>2011-04-30T09:49:56Z</time>
      </trkpt>
      <trkpt lat="48.43525" lon="2.07036">
        <ele>90</ele>
        <time>2011-04-30T09:49:57Z</time>
      </trkpt>
      <trkpt lat="48.43524" lon="2.07039">
        <ele>90</ele>
        <time>2011-04-30T09:49:58Z</time>
      </trkpt>
      <trkpt lat="48.43523" lon="2.07043">
        <ele>90</ele>
        <time>2011-04-30T09:49:59Z</time>
      </trkpt>
      <trkpt lat="48.43522" lon="2.07047">
        <ele>90</ele>
        <time>2011-04-30T09:50:00Z</time>
      </trkpt>
      <trkpt lat="48.43521" lon="2.0705">
        <ele>90</ele>
        <time>2011-04-30T09:50:01Z</time>
      </trkpt>
      <trkpt lat="48.4352" lon="2.07054">
        <ele>90</ele>
        <time>2011-04-30T09:50:02Z</time>
      </trkpt>
      <trkpt lat="48.43519" lon="2.07057">
        <ele>90</ele>
        <time>2011-04-30T09:50:03Z</time>
      </trkpt>
      <trkpt lat="48.43518" lon="2.0706">
        <ele>89</ele>
        <time>2011-04-30T09:50:04Z</time>
      </trkpt>
      <trkpt lat="48.43516" lon="2.07064">
        <ele>89</ele>
        <time>2011-04-30T09:50:05Z</time>
      </trkpt>
      <trkpt lat="48.43515" lon="2.07067">
        <ele>89</ele>
        <time>2011-04-30T09:50:06Z</time>
      </trkpt>
      <trkpt lat="48.43514" lon="2.07071">
        <ele>88</ele>
        <time>2011-04-30T09:50:07Z</time>
      </trkpt>
      <trkpt lat="48.43512" lon="2.07074">
        <ele>88</ele>
        <time>2011-04-30T09:50:08Z</time>
      </trkpt>
      <trkpt lat="48.43511" lon="2.07077">
        <ele>88</ele>
        <time>2011-04-30T09:50:09Z</time>
      </trkpt>
      <trkpt lat="48.4351" lon="2.0708">
        <ele>87</ele>
        <time>2011-04-30T09:50:10Z</time>
      </trkpt>
      <trkpt lat="48.43509" lon="2.07084">
        <ele>87</ele>
        <time>2011-04-30T09:50:11Z</time>
      </trkpt>
      <trkpt lat="48.43508" lon="2.07087">
        <ele>87</ele>
        <time>2011-04-30T09:50:12Z</time>
      </trkpt>
      <trkpt lat="48.43507" lon="2.0709">
        <ele>88</ele>
        <time>2011-04-30T09:50:13Z</time>
      </trkpt>
      <trkpt lat="48.43506" lon="2.07094">
        <ele>88</ele>
        <time>2011-04-30T09:50:14Z</time>
      </trkpt>
      <trkpt lat="48.43505" lon="2.07097">
        <ele>88</ele>
        <time>2011-04-30T09:50:15Z</time>
      </trkpt>
      <trkpt lat="48.43504" lon="2.071">
        <ele>89</ele>
        <time>2011-04-30T09:50:16Z</time>
      </trkpt>
      <trkpt lat="48.43503" lon="2.07103">
        <ele>89</ele>
        <time>2011-04-30T09:50:17Z</time>
      </trkpt>
      <trkpt lat="48.43502" lon="2.07107">
        <ele>89</ele>
        <time>2011-04-30T09:50:18Z</time>
      </trkpt>
      <trkpt lat="48.43501" lon="2.0711">
        <ele>90</ele>
        <time>2011-04-30T09:50:19Z</time>
      </trkpt>
      <trkpt lat="48.435" lon="2.07114">
        <ele>85</ele>
        <time>2011-04-30T09:50:20Z</time>
      </trkpt>
      <trkpt lat="48.43499" lon="2.07118">
        <ele>85</ele>
        <time>2011-04-30T09:50:21Z</time>
      </trkpt>
      <trkpt lat="48.43498" lon="2.07122">
        <ele>85</ele>
        <time>2011-04-30T09:50:22Z</time>
      </trkpt>
      <trkpt lat="48.43497" lon="2.07126">
        <ele>85</ele>
        <time>2011-04-30T09:50:23Z</time>
      </trkpt>
      <trkpt lat="48.43496" lon="2.0713">
        <ele>85</ele>
        <time>2011-04-30T09:50:24Z</time>
      </trkpt>
      <trkpt lat="48.43496" lon="2.07134">
        <ele>85</ele>
        <time>2011-04-30T09:50:25Z</time>
      </trkpt>
      <trkpt lat="48.43495" lon="2.07138">
        <ele>85</ele>
        <time>2011-04-30T09:50:26Z</time>
      </trkpt>
      <trkpt lat="48.43494" lon="2.07142">
        <ele>85</ele>
        <time>2011-04-30T09:50:27Z</time>
      </trkpt>
      <trkpt lat="48.43494" lon="2.07146">
        <ele>85</ele>
        <time>2011-04-30T09:50:28Z</time>
      </trkpt>
      <trkpt lat="48.43493" lon="2.0715">
        <ele>85</ele>
        <time>2011-04-30T09:50:29Z</time>
      </trkpt>
      <trkpt lat="48.43493" lon="2.07154">
        <ele>85</ele>
        <time>2011-04-30T09:50:30Z</time>
      </trkpt>
      <trkpt lat="48.43492" lon="2.07157">
        <ele>85</ele>
        <time>2011-04-30T09:50:31Z</time>
      </trkpt>
      <trkpt lat="48.43491" lon="2.07161">
        <ele>86</ele>
        <time>2011-04-30T09:50:32Z</time>
      </trkpt>
      <trkpt lat="48.43491" lon="2.07165">
        <ele>86</ele>
        <time>2011-04-30T09:50:33Z</time>
      </trkpt>
      <trkpt lat="48.4349" lon="2.07168">
        <ele>86</ele>
        <time>2011-04-30T09:50:34Z</time>
      </trkpt>
      <trkpt lat="48.43489" lon="2.07172">
        <ele>86</ele>
        <time>2011-04-30T09:50:35Z</time>
      </trkpt>
      <trkpt lat="48.43489" lon="2.07176">
        <ele>86</ele>
        <time>2011-04-30T09:50:36Z</time>
      </trkpt>
      <trkpt lat="48.43488" lon="2.07179">
        <ele>86</ele>
        <time>2011-04-30T09:50:37Z</time>
      </trkpt>
      <trkpt lat="48.43487" lon="2.07182">
        <ele>86</ele>
        <time>2011-04-30T09:50:38Z</time>
      </trkpt>
      <trkpt lat="48.43487" lon="2.07185">
        <ele>86</ele>
        <time>2011-04-30T09:50:39Z</time>
      </trkpt>
      <trkpt lat="48.43486" lon="2.07188">
        <ele>86</ele>
        <time>2011-04-30T09:50:40Z</time>
      </trkpt>
      <trkpt lat="48.43485" lon="2.07192">
        <ele>86</ele>
        <time>2011-04-30T09:50:41Z</time>
      </trkpt>
      <trkpt lat="48.43484" lon="2.07195">
        <ele>86</ele>
        <time>2011-04-30T09:50:42Z</time>
      </trkpt>
      <trkpt lat="48.43483" lon="2.07198">
        <ele>86</ele>
        <time>2011-04-30T09:50:43Z</time>
      </trkpt>
      <trkpt lat="48.43483" lon="2.07201">
        <ele>86</ele>
        <time>2011-04-30T09:50:44Z</time>
      </trkpt>
      <trkpt lat="48.43482" lon="2.07204">
        <ele>86</ele>
        <time>2011-04-30T09:50:45Z</time>
      </trkpt>
      <trkpt lat="48.43481" lon="2.07207">
        <ele>86</ele>
        <time>2011-04-30T09:50:46Z</time>
      </trkpt>
      <trkpt lat="48.4348" lon="2.07211">
        <ele>86</ele>
        <time>2011-04-30T09:50:47Z</time>
      </trkpt>
      <trkpt lat="48.4348" lon="2.07214">
        <ele>86</ele>
        <time>2011-04-30T09:50:48Z</time>
      </trkpt>
      <trkpt lat="48.43479" lon="2.07218">
        <ele>87</ele>
        <time>2011-04-30T09:50:49Z</time>
      </trkpt>
      <trkpt lat="48.43478" lon="2.07221">
        <ele>87</ele>
        <time>2011-04-30T09:50:50Z</time>
      </trkpt>
      <trkpt lat="48.43477" lon="2.07225">
        <ele>87</ele>
        <time>2011-04-30T09:50:51Z</time>
      </trkpt>
      <trkpt lat="48.43476" lon="2.07228">
        <ele>87</ele>
        <time>2011-04-30T09:50:52Z</time>
      </trkpt>
      <trkpt lat="48.43475" lon="2.07231">
        <ele>87</ele>
        <time>2011-04-30T09:50:53Z</time>
      </trkpt>
      <trkpt lat="48.43474" lon="2.07234">
        <ele>87</ele>
        <time>2011-04-30T09:50:54Z</time>
      </trkpt>
      <trkpt lat="48.43473" lon="2.07237">
        <ele>87</ele>
        <time>2011-04-30T09:50:55Z</time>
      </trkpt>
      <trkpt lat="48.43472" lon="2.07241">
        <ele>87</ele>
        <time>2011-04-30T09:50:56Z</time>
      </trkpt>
      <trkpt lat="48.43472" lon="2.07244">
        <ele>87</ele>
        <time>2011-04-30T09:50:57Z</time>
      </trkpt>
      <trkpt lat="48.43471" lon="2.07247">
        <ele>87</ele>
        <time>2011-04-30T09:50:58Z</time>
      </trkpt>
      <trkpt lat="48.4347" lon="2.0725">
        <ele>88</ele>
        <time>2011-04-30T09:50:59Z</time>
      </trkpt>
      <trkpt lat="48.4347" lon="2.07254">
        <ele>88</ele>
        <time>2011-04-30T09:51:00Z</time>
      </trkpt>
      <trkpt lat="48.43469" lon="2.07257">
        <ele>88</ele>
        <time>2011-04-30T09:51:01Z</time>
      </trkpt>
      <trkpt lat="48.43469" lon="2.0726">
        <ele>88</ele>
        <time>2011-04-30T09:51:02Z</time>
      </trkpt>
      <trkpt lat="48.43468" lon="2.07263">
        <ele>88</ele>
        <time>2011-04-30T09:51:03Z</time>
      </trkpt>
      <trkpt lat="48.43467" lon="2.07266">
        <ele>88</ele>
        <time>2011-04-30T09:51:04Z</time>
      </trkpt>
      <trkpt lat="48.43467" lon="2.07269">
        <ele>88</ele>
        <time>2011-04-30T09:51:05Z</time>
      </trkpt>
      <trkpt lat="48.43466" lon="2.07272">
        <ele>88</ele>
        <time>2011-04-30T09:51:06Z</time>
      </trkpt>
      <trkpt lat="48.43464" lon="2.07275">
        <ele>88</ele>
        <time>2011-04-30T09:51:07Z</time>
      </trkpt>
      <trkpt lat="48.43463" lon="2.07278">
        <ele>88</ele>
        <time>2011-04-30T09:51:08Z</time>
      </trkpt>
      <trkpt lat="48.43462" lon="2.07281">
        <ele>88</ele>
        <time>2011-04-30T09:51:09Z</time>
      </trkpt>
      <trkpt lat="48.4346" lon="2.07283">
        <ele>88</ele>
        <time>2011-04-30T09:51:10Z</time>
      </trkpt>
      <trkpt lat="48.43458" lon="2.07286">
        <ele>88</ele>
        <time>2011-04-30T09:51:11Z</time>
      </trkpt>
      <trkpt lat="48.43457" lon="2.07288">
        <ele>88</ele>
        <time>2011-04-30T09:51:12Z</time>
      </trkpt>
      <trkpt lat="48.43455" lon="2.07291">
        <ele>88</ele>
        <time>2011-04-30T09:51:13Z</time>
      </trkpt>
      <trkpt lat="48.43454" lon="2.07294">
        <ele>88</ele>
        <time>2011-04-30T09:51:14Z</time>
      </trkpt>
      <trkpt lat="48.43452" lon="2.07297">
        <ele>88</ele>
        <time>2011-04-30T09:51:15Z</time>
      </trkpt>
      <trkpt lat="48.43451" lon="2.073">
        <ele>87</ele>
        <time>2011-04-30T09:51:16Z</time>
      </trkpt>
      <trkpt lat="48.4345" lon="2.07303">
        <ele>87</ele>
        <time>2011-04-30T09:51:17Z</time>
      </trkpt>
      <trkpt lat="48.43448" lon="2.07306">
        <ele>87</ele>
        <time>2011-04-30T09:51:18Z</time>
      </trkpt>
      <trkpt lat="48.43447" lon="2.07309">
        <ele>87</ele>
        <time>2011-04-30T09:51:19Z</time>
      </trkpt>
      <trkpt lat="48.43446" lon="2.07312">
        <ele>87</ele>
        <time>2011-04-30T09:51:20Z</time>
      </trkpt>
      <trkpt lat="48.43444" lon="2.07314">
        <ele>87</ele>
        <time>2011-04-30T09:51:21Z</time>
      </trkpt>
      <trkpt lat="48.43443" lon="2.07317">
        <ele>87</ele>
        <time>2011-04-30T09:51:22Z</time>
      </trkpt>
      <trkpt lat="48.43442" lon="2.0732">
        <ele>87</ele>
        <time>2011-04-30T09:51:23Z</time>
      </trkpt>
      <trkpt lat="48.43441" lon="2.07323">
        <ele>87</ele>
        <time>2011-04-30T09:51:24Z</time>
      </trkpt>
      <trkpt lat="48.4344" lon="2.07326">
        <ele>87</ele>
        <time>2011-04-30T09:51:25Z</time>
      </trkpt>
      <trkpt lat="48.4344" lon="2.07327">
        <ele>87</ele>
        <time>2011-04-30T09:51:26Z</time>
      </trkpt>
      <trkpt lat="48.43439" lon="2.0733">
        <ele>86</ele>
        <time>2011-04-30T09:51:27Z</time>
      </trkpt>
      <trkpt lat="48.43438" lon="2.07332">
        <ele>86</ele>
        <time>2011-04-30T09:51:28Z</time>
      </trkpt>
      <trkpt lat="48.43437" lon="2.07335">
        <ele>87</ele>
        <time>2011-04-30T09:51:29Z</time>
      </trkpt>
      <trkpt lat="48.43436" lon="2.07338">
        <ele>87</ele>
        <time>2011-04-30T09:51:30Z</time>
      </trkpt>
      <trkpt lat="48.43435" lon="2.07341">
        <ele>87</ele>
        <time>2011-04-30T09:51:31Z</time>
      </trkpt>
      <trkpt lat="48.43434" lon="2.07344">
        <ele>87</ele>
        <time>2011-04-30T09:51:32Z</time>
      </trkpt>
      <trkpt lat="48.43432" lon="2.07347">
        <ele>87</ele>
        <time>2011-04-30T09:51:33Z</time>
      </trkpt>
      <trkpt lat="48.43431" lon="2.07349">
        <ele>87</ele>
        <time>2011-04-30T09:51:34Z</time>
      </trkpt>
      <trkpt lat="48.4343" lon="2.07352">
        <ele>87</ele>
        <time>2011-04-30T09:51:35Z</time>
      </trkpt>
      <trkpt lat="48.43429" lon="2.07355">
        <ele>87</ele>
        <time>2011-04-30T09:51:36Z</time>
      </trkpt>
      <trkpt lat="48.43427" lon="2.07358">
        <ele>87</ele>
        <time>2011-04-30T09:51:37Z</time>
      </trkpt>
      <trkpt lat="48.43426" lon="2.0736">
        <ele>87</ele>
        <time>2011-04-30T09:51:38Z</time>
      </trkpt>
      <trkpt lat="48.43424" lon="2.07363">
        <ele>87</ele>
        <time>2011-04-30T09:51:39Z</time>
      </trkpt>
      <trkpt lat="48.43423" lon="2.07365">
        <ele>87</ele>
        <time>2011-04-30T09:51:40Z</time>
      </trkpt>
      <trkpt lat="48.43421" lon="2.07367">
        <ele>87</ele>
        <time>2011-04-30T09:51:41Z</time>
      </trkpt>
      <trkpt lat="48.43419" lon="2.0737">
        <ele>87</ele>
        <time>2011-04-30T09:51:42Z</time>
      </trkpt>
      <trkpt lat="48.43418" lon="2.07372">
        <ele>87</ele>
        <time>2011-04-30T09:51:43Z</time>
      </trkpt>
      <trkpt lat="48.43416" lon="2.07376">
        <ele>84</ele>
        <time>2011-04-30T09:51:44Z</time>
      </trkpt>
      <trkpt lat="48.43414" lon="2.07379">
        <ele>84</ele>
        <time>2011-04-30T09:51:45Z</time>
      </trkpt>
      <trkpt lat="48.43412" lon="2.07382">
        <ele>84</ele>
        <time>2011-04-30T09:51:46Z</time>
      </trkpt>
      <trkpt lat="48.4341" lon="2.07386">
        <ele>84</ele>
        <time>2011-04-30T09:51:47Z</time>
      </trkpt>
      <trkpt lat="48.43408" lon="2.07389">
        <ele>84</ele>
        <time>2011-04-30T09:51:48Z</time>
      </trkpt>
      <trkpt lat="48.43405" lon="2.07396">
        <ele>84</ele>
        <time>2011-04-30T09:51:49Z</time>
      </trkpt>
      <trkpt lat="48.43404" lon="2.07399">
        <ele>84</ele>
        <time>2011-04-30T09:51:50Z</time>
      </trkpt>
      <trkpt lat="48.43402" lon="2.07402">
        <ele>84</ele>
        <time>2011-04-30T09:51:51Z</time>
      </trkpt>
      <trkpt lat="48.43401" lon="2.07405">
        <ele>84</ele>
        <time>2011-04-30T09:51:52Z</time>
      </trkpt>
      <trkpt lat="48.434" lon="2.07408">
        <ele>84</ele>
        <time>2011-04-30T09:51:53Z</time>
      </trkpt>
      <trkpt lat="48.43398" lon="2.07411">
        <ele>84</ele>
        <time>2011-04-30T09:51:54Z</time>
      </trkpt>
      <trkpt lat="48.43397" lon="2.07415">
        <ele>84</ele>
        <time>2011-04-30T09:51:55Z</time>
      </trkpt>
      <trkpt lat="48.43396" lon="2.07418">
        <ele>84</ele>
        <time>2011-04-30T09:51:56Z</time>
      </trkpt>
      <trkpt lat="48.43394" lon="2.07421">
        <ele>84</ele>
        <time>2011-04-30T09:51:57Z</time>
      </trkpt>
      <trkpt lat="48.43393" lon="2.07424">
        <ele>84</ele>
        <time>2011-04-30T09:51:58Z</time>
      </trkpt>
      <trkpt lat="48.43392" lon="2.07428">
        <ele>84</ele>
        <time>2011-04-30T09:51:59Z</time>
      </trkpt>
      <trkpt lat="48.4339" lon="2.07431">
        <ele>84</ele>
        <time>2011-04-30T09:52:00Z</time>
      </trkpt>
      <trkpt lat="48.43389" lon="2.07434">
        <ele>84</ele>
        <time>2011-04-30T09:52:01Z</time>
      </trkpt>
      <trkpt lat="48.43388" lon="2.07438">
        <ele>84</ele>
        <time>2011-04-30T09:52:02Z</time>
      </trkpt>
      <trkpt lat="48.43386" lon="2.07441">
        <ele>84</ele>
        <time>2011-04-30T09:52:03Z</time>
      </trkpt>
      <trkpt lat="48.43385" lon="2.07444">
        <ele>84</ele>
        <time>2011-04-30T09:52:04Z</time>
      </trkpt>
      <trkpt lat="48.43383" lon="2.07447">
        <ele>84</ele>
        <time>2011-04-30T09:52:05Z</time>
      </trkpt>
      <trkpt lat="48.43381" lon="2.07449">
        <ele>84</ele>
        <time>2011-04-30T09:52:06Z</time>
      </trkpt>
      <trkpt lat="48.4338" lon="2.07452">
        <ele>84</ele>
        <time>2011-04-30T09:52:07Z</time>
      </trkpt>
      <trkpt lat="48.43379" lon="2.07454">
        <ele>84</ele>
        <time>2011-04-30T09:52:08Z</time>
      </trkpt>
      <trkpt lat="48.43378" lon="2.07457">
        <ele>84</ele>
        <time>2011-04-30T09:52:09Z</time>
      </trkpt>
      <trkpt lat="48.43378" lon="2.0746">
        <ele>84</ele>
        <time>2011-04-30T09:52:10Z</time>
      </trkpt>
      <trkpt lat="48.43377" lon="2.07463">
        <ele>84</ele>
        <time>2011-04-30T09:52:11Z</time>
      </trkpt>
      <trkpt lat="48.43376" lon="2.07465">
        <ele>84</ele>
        <time>2011-04-30T09:52:12Z</time>
      </trkpt>
      <trkpt lat="48.43375" lon="2.07468">
        <ele>84</ele>
        <time>2011-04-30T09:52:13Z</time>
      </trkpt>
      <trkpt lat="48.43373" lon="2.07471">
        <ele>84</ele>
        <time>2011-04-30T09:52:14Z</time>
      </trkpt>
      <trkpt lat="48.43372" lon="2.07474">
        <ele>84</ele>
        <time>2011-04-30T09:52:15Z</time>
      </trkpt>
      <trkpt lat="48.43371" lon="2.07477">
        <ele>84</ele>
        <time>2011-04-30T09:52:16Z</time>
      </trkpt>
      <trkpt lat="48.43369" lon="2.07479">
        <ele>84</ele>
        <time>2011-04-30T09:52:17Z</time>
      </trkpt>
      <trkpt lat="48.43367" lon="2.07482">
        <ele>84</ele>
        <time>2011-04-30T09:52:18Z</time>
      </trkpt>
      <trkpt lat="48.43366" lon="2.07485">
        <ele>84</ele>
        <time>2011-04-30T09:52:19Z</time>
      </trkpt>
      <trkpt lat="48.43364" lon="2.07488">
        <ele>84</ele>
        <time>2011-04-30T09:52:20Z</time>
      </trkpt>
      <trkpt lat="48.43363" lon="2.07491">
        <ele>84</ele>
        <time>2011-04-30T09:52:21Z</time>
      </trkpt>
      <trkpt lat="48.43361" lon="2.07494">
        <ele>84</ele>
        <time>2011-04-30T09:52:22Z</time>
      </trkpt>
      <trkpt lat="48.4336" lon="2.07497">
        <ele>84</ele>
        <time>2011-04-30T09:52:23Z</time>
      </trkpt>
      <trkpt lat="48.43358" lon="2.075">
        <ele>84</ele>
        <time>2011-04-30T09:52:24Z</time>
      </trkpt>
      <trkpt lat="48.43356" lon="2.07503">
        <ele>84</ele>
        <time>2011-04-30T09:52:25Z</time>
      </trkpt>
      <trkpt lat="48.43354" lon="2.07506">
        <ele>84</ele>
        <time>2011-04-30T09:52:26Z</time>
      </trkpt>
      <trkpt lat="48.43352" lon="2.07509">
        <ele>84</ele>
        <time>2011-04-30T09:52:27Z</time>
      </trkpt>
      <trkpt lat="48.43351" lon="2.07512">
        <ele>84</ele>
        <time>2011-04-30T09:52:28Z</time>
      </trkpt>
      <trkpt lat="48.43349" lon="2.07515">
        <ele>84</ele>
        <time>2011-04-30T09:52:29Z</time>
      </trkpt>
      <trkpt lat="48.43347" lon="2.07518">
        <ele>84</ele>
        <time>2011-04-30T09:52:30Z</time>
      </trkpt>
      <trkpt lat="48.43345" lon="2.0752">
        <ele>84</ele>
        <time>2011-04-30T09:52:31Z</time>
      </trkpt>
      <trkpt lat="48.43344" lon="2.07522">
        <ele>84</ele>
        <time>2011-04-30T09:52:32Z</time>
      </trkpt>
      <trkpt lat="48.43342" lon="2.07523">
        <ele>84</ele>
        <time>2011-04-30T09:52:33Z</time>
      </trkpt>
      <trkpt lat="48.43341" lon="2.07525">
        <ele>84</ele>
        <time>2011-04-30T09:52:34Z</time>
      </trkpt>
      <trkpt lat="48.4334" lon="2.07526">
        <ele>84</ele>
        <time>2011-04-30T09:52:35Z</time>
      </trkpt>
      <trkpt lat="48.43339" lon="2.07527">
        <ele>84</ele>
        <time>2011-04-30T09:52:36Z</time>
      </trkpt>
      <trkpt lat="48.43338" lon="2.07529">
        <ele>84</ele>
        <time>2011-04-30T09:52:37Z</time>
      </trkpt>
      <trkpt lat="48.43337" lon="2.0753">
        <ele>84</ele>
        <time>2011-04-30T09:52:38Z</time>
      </trkpt>
      <trkpt lat="48.43336" lon="2.07531">
        <ele>84</ele>
        <time>2011-04-30T09:52:39Z</time>
      </trkpt>
      <trkpt lat="48.43335" lon="2.07532">
        <ele>84</ele>
        <time>2011-04-30T09:52:40Z</time>
      </trkpt>
      <trkpt lat="48.43333" lon="2.07533">
        <ele>84</ele>
        <time>2011-04-30T09:52:41Z</time>
      </trkpt>
      <trkpt lat="48.43333" lon="2.07534">
        <ele>83</ele>
        <time>2011-04-30T09:52:42Z</time>
      </trkpt>
      <trkpt lat="48.43332" lon="2.07535">
        <ele>83</ele>
        <time>2011-04-30T09:52:43Z</time>
      </trkpt>
      <trkpt lat="48.43331" lon="2.07536">
        <ele>83</ele>
        <time>2011-04-30T09:52:44Z</time>
      </trkpt>
      <trkpt lat="48.43331" lon="2.07537">
        <ele>83</ele>
        <time>2011-04-30T09:52:45Z</time>
      </trkpt>
      <trkpt lat="48.4333" lon="2.07537">
        <ele>83</ele>
        <time>2011-04-30T09:52:46Z</time>
      </trkpt>
      <trkpt lat="48.43329" lon="2.07538">
        <ele>83</ele>
        <time>2011-04-30T09:52:47Z</time>
      </trkpt>
      <trkpt lat="48.43328" lon="2.07538">
        <ele>83</ele>
        <time>2011-04-30T09:52:48Z</time>
      </trkpt>
      <trkpt lat="48.43327" lon="2.07539">
        <ele>83</ele>
        <time>2011-04-30T09:52:49Z</time>
      </trkpt>
      <trkpt lat="48.43326" lon="2.0754">
        <ele>83</ele>
        <time>2011-04-30T09:52:50Z</time>
      </trkpt>
      <trkpt lat="48.43325" lon="2.07541">
        <ele>83</ele>
        <time>2011-04-30T09:52:51Z</time>
      </trkpt>
      <trkpt lat="48.43324" lon="2.07542">
        <ele>83</ele>
        <time>2011-04-30T09:52:52Z</time>
      </trkpt>
      <trkpt lat="48.43323" lon="2.07543">
        <ele>83</ele>
        <time>2011-04-30T09:52:53Z</time>
      </trkpt>
      <trkpt lat="48.43322" lon="2.07545">
        <ele>83</ele>
        <time>2011-04-30T09:52:54Z</time>
      </trkpt>
      <trkpt lat="48.43321" lon="2.07546">
        <ele>83</ele>
        <time>2011-04-30T09:52:55Z</time>
      </trkpt>
      <trkpt lat="48.43321" lon="2.07547">
        <ele>83</ele>
        <time>2011-04-30T09:52:56Z</time>
      </trkpt>
      <trkpt lat="48.4332" lon="2.07548">
        <ele>83</ele>
        <time>2011-04-30T09:52:57Z</time>
      </trkpt>
      <trkpt lat="48.43319" lon="2.07549">
        <ele>83</ele>
        <time>2011-04-30T09:52:58Z</time>
      </trkpt>
      <trkpt lat="48.43319" lon="2.07551">
        <ele>83</ele>
        <time>2011-04-30T09:52:59Z</time>
      </trkpt>
      <trkpt lat="48.43318" lon="2.07552">
        <ele>83</ele>
        <time>2011-04-30T09:53:00Z</time>
      </trkpt>
      <trkpt lat="48.43317" lon="2.07553">
        <ele>83</ele>
        <time>2011-04-30T09:53:01Z</time>
      </trkpt>
      <trkpt lat="48.43317" lon="2.07554">
        <ele>83</ele>
        <time>2011-04-30T09:53:02Z</time>
      </trkpt>
      <trkpt lat="48.43316" lon="2.07555">
        <ele>83</ele>
        <time>2011-04-30T09:53:03Z</time>
      </trkpt>
      <trkpt lat="48.43315" lon="2.07556">
        <ele>83</ele>
        <time>2011-04-30T09:53:04Z</time>
      </trkpt>
      <trkpt lat="48.43315" lon="2.07557">
        <ele>83</ele>
        <time>2011-04-30T09:53:05Z</time>
      </trkpt>
      <trkpt lat="48.43314" lon="2.07558">
        <ele>83</ele>
        <time>2011-04-30T09:53:06Z</time>
      </trkpt>
      <trkpt lat="48.43313" lon="2.07559">
        <ele>83</ele>
        <time>2011-04-30T09:53:07Z</time>
      </trkpt>
      <trkpt lat="48.43313" lon="2.07559">
        <ele>83</ele>
        <time>2011-04-30T09:53:08Z</time>
      </trkpt>
      <trkpt lat="48.43313" lon="2.07559">
        <ele>83</ele>
        <time>2011-04-30T09:53:09Z</time>
      </trkpt>
      <trkpt lat="48.43313" lon="2.0756">
        <ele>83</ele>
        <time>2011-04-30T09:53:10Z</time>
      </trkpt>
      <trkpt lat="48.43312" lon="2.07561">
        <ele>83</ele>
        <time>2011-04-30T09:53:11Z</time>
      </trkpt>
      <trkpt lat="48.43312" lon="2.07562">
        <ele>83</ele>
        <time>2011-04-30T09:53:12Z</time>
      </trkpt>
      <trkpt lat="48.43312" lon="2.07563">
        <ele>83</ele>
        <time>2011-04-30T09:53:13Z</time>
      </trkpt>
      <trkpt lat="48.43311" lon="2.07564">
        <ele>83</ele>
        <time>2011-04-30T09:53:14Z</time>
      </trkpt>
      <trkpt lat="48.43311" lon="2.07565">
        <ele>83</ele>
        <time>2011-04-30T09:53:15Z</time>
      </trkpt>
      <trkpt lat="48.43311" lon="2.07566">
        <ele>83</ele>
        <time>2011-04-30T09:53:16Z</time>
      </trkpt>
      <trkpt lat="48.4331" lon="2.07567">
        <ele>83</ele>
        <time>2011-04-30T09:53:17Z</time>
      </trkpt>
      <trkpt lat="48.43309" lon="2.07568">
        <ele>83</ele>
        <time>2011-04-30T09:53:18Z</time>
      </trkpt>
      <trkpt lat="48.43308" lon="2.07569">
        <ele>83</ele>
        <time>2011-04-30T09:53:19Z</time>
      </trkpt>
      <trkpt lat="48.43307" lon="2.07571">
        <ele>83</ele>
        <time>2011-04-30T09:53:20Z</time>
      </trkpt>
      <trkpt lat="48.43306" lon="2.07572">
        <ele>83</ele>
        <time>2011-04-30T09:53:21Z</time>
      </trkpt>
      <trkpt lat="48.43305" lon="2.07573">
        <ele>83</ele>
        <time>2011-04-30T09:53:22Z</time>
      </trkpt>
      <trkpt lat="48.43305" lon="2.07573">
        <ele>83</ele>
        <time>2011-04-30T09:53:23Z</time>
      </trkpt>
      <trkpt lat="48.43304" lon="2.07574">
        <ele>83</ele>
        <time>2011-04-30T09:53:24Z</time>
      </trkpt>
      <trkpt lat="48.43303" lon="2.07575">
        <ele>83</ele>
        <time>2011-04-30T09:53:25Z</time>
      </trkpt>
      <trkpt lat="48.43303" lon="2.07577">
        <ele>83</ele>
        <time>2011-04-30T09:53:26Z</time>
      </trkpt>
      <trkpt lat="48.43302" lon="2.07578">
        <ele>83</ele>
        <time>2011-04-30T09:53:27Z</time>
      </trkpt>
      <trkpt lat="48.43301" lon="2.07579">
        <ele>83</ele>
        <time>2011-04-30T09:53:28Z</time>
      </trkpt>
      <trkpt lat="48.433" lon="2.0758">
        <ele>83</ele>
        <time>2011-04-30T09:53:29Z</time>
      </trkpt>
      <trkpt lat="48.433" lon="2.07582">
        <ele>83</ele>
        <time>2011-04-30T09:53:30Z</time>
      </trkpt>
      <trkpt lat="48.43299" lon="2.07583">
        <ele>83</ele>
        <time>2011-04-30T09:53:31Z</time>
      </trkpt>
      <trkpt lat="48.43298" lon="2.07585">
        <ele>83</ele>
        <time>2011-04-30T09:53:32Z</time>
      </trkpt>
      <trkpt lat="48.43297" lon="2.07586">
        <ele>83</ele>
        <time>2011-04-30T09:53:33Z</time>
      </trkpt>
      <trkpt lat="48.43297" lon="2.07587">
        <ele>83</ele>
        <time>2011-04-30T09:53:34Z</time>
      </trkpt>
      <trkpt lat="48.43296" lon="2.07589">
        <ele>83</ele>
        <time>2011-04-30T09:53:35Z</time>
      </trkpt>
      <trkpt lat="48.43295" lon="2.07591">
        <ele>83</ele>
        <time>2011-04-30T09:53:36Z</time>
      </trkpt>
      <trkpt lat="48.43294" lon="2.07594">
        <ele>83</ele>
        <time>2011-04-30T09:53:37Z</time>
      </trkpt>
      <trkpt lat="48.43292" lon="2.07596">
        <ele>83</ele>
        <time>2011-04-30T09:53:38Z</time>
      </trkpt>
      <trkpt lat="48.43291" lon="2.07599">
        <ele>83</ele>
        <time>2011-04-30T09:53:39Z</time>
      </trkpt>
      <trkpt lat="48.4329" lon="2.07602">
        <ele>83</ele>
        <time>2011-04-30T09:53:40Z</time>
      </trkpt>
      <trkpt lat="48.43289" lon="2.07604">
        <ele>83</ele>
        <time>2011-04-30T09:53:41Z</time>
      </trkpt>
      <trkpt lat="48.43287" lon="2.07607">
        <ele>83</ele>
        <time>2011-04-30T09:53:42Z</time>
      </trkpt>
      <trkpt lat="48.43286" lon="2.07609">
        <ele>83</ele>
        <time>2011-04-30T09:53:43Z</time>
      </trkpt>
      <trkpt lat="48.43285" lon="2.07612">
        <ele>83</ele>
        <time>2011-04-30T09:53:44Z</time>
      </trkpt>
      <trkpt lat="48.43283" lon="2.07614">
        <ele>83</ele>
        <time>2011-04-30T09:53:45Z</time>
      </trkpt>
      <trkpt lat="48.43282" lon="2.07616">
        <ele>83</ele>
        <time>2011-04-30T09:53:46Z</time>
      </trkpt>
      <trkpt lat="48.43281" lon="2.07619">
        <ele>83</ele>
        <time>2011-04-30T09:53:47Z</time>
      </trkpt>
      <trkpt lat="48.43279" lon="2.07621">
        <ele>83</ele>
        <time>2011-04-30T09:53:48Z</time>
      </trkpt>
      <trkpt lat="48.43278" lon="2.07623">
        <ele>83</ele>
        <time>2011-04-30T09:53:49Z</time>
      </trkpt>
      <trkpt lat="48.43277" lon="2.07626">
        <ele>83</ele>
        <time>2011-04-30T09:53:50Z</time>
      </trkpt>
      <trkpt lat="48.43276" lon="2.07628">
        <ele>83</ele>
        <time>2011-04-30T09:53:51Z</time>
      </trkpt>
      <trkpt lat="48.43274" lon="2.07631">
        <ele>83</ele>
        <time>2011-04-30T09:53:52Z</time>
      </trkpt>
      <trkpt lat="48.43273" lon="2.07633">
        <ele>83</ele>
        <time>2011-04-30T09:53:53Z</time>
      </trkpt>
      <trkpt lat="48.43272" lon="2.07636">
        <ele>83</ele>
        <time>2011-04-30T09:53:54Z</time>
      </trkpt>
      <trkpt lat="48.4327" lon="2.07638">
        <ele>83</ele>
        <time>2011-04-30T09:53:55Z</time>
      </trkpt>
      <trkpt lat="48.43269" lon="2.0764">
        <ele>83</ele>
        <time>2011-04-30T09:53:56Z</time>
      </trkpt>
      <trkpt lat="48.43267" lon="2.07643">
        <ele>83</ele>
        <time>2011-04-30T09:53:57Z</time>
      </trkpt>
      <trkpt lat="48.43266" lon="2.07645">
        <ele>83</ele>
        <time>2011-04-30T09:53:58Z</time>
      </trkpt>
      <trkpt lat="48.43264" lon="2.07647">
        <ele>83</ele>
        <time>2011-04-30T09:53:59Z</time>
      </trkpt>
      <trkpt lat="48.43262" lon="2.0765">
        <ele>83</ele>
        <time>2011-04-30T09:54:00Z</time>
      </trkpt>
      <trkpt lat="48.4326" lon="2.07652">
        <ele>83</ele>
        <time>2011-04-30T09:54:01Z</time>
      </trkpt>
      <trkpt lat="48.43258" lon="2.07654">
        <ele>83</ele>
        <time>2011-04-30T09:54:02Z</time>
      </trkpt>
      <trkpt lat="48.43257" lon="2.07657">
        <ele>83</ele>
        <time>2011-04-30T09:54:03Z</time>
      </trkpt>
      <trkpt lat="48.43255" lon="2.07659">
        <ele>83</ele>
        <time>2011-04-30T09:54:04Z</time>
      </trkpt>
      <trkpt lat="48.43253" lon="2.07662">
        <ele>83</ele>
        <time>2011-04-30T09:54:05Z</time>
      </trkpt>
      <trkpt lat="48.43252" lon="2.07664">
        <ele>83</ele>
        <time>2011-04-30T09:54:06Z</time>
      </trkpt>
      <trkpt lat="48.4325" lon="2.07667">
        <ele>83</ele>
        <time>2011-04-30T09:54:07Z</time>
      </trkpt>
      <trkpt lat="48.43249" lon="2.0767">
        <ele>83</ele>
        <time>2011-04-30T09:54:08Z</time>
      </trkpt>
      <trkpt lat="48.43247" lon="2.07673">
        <ele>83</ele>
        <time>2011-04-30T09:54:09Z</time>
      </trkpt>
      <trkpt lat="48.43246" lon="2.07675">
        <ele>83</ele>
        <time>2011-04-30T09:54:10Z</time>
      </trkpt>
      <trkpt lat="48.43244" lon="2.07678">
        <ele>83</ele>
        <time>2011-04-30T09:54:11Z</time>
      </trkpt>
      <trkpt lat="48.43243" lon="2.07681">
        <ele>84</ele>
        <time>2011-04-30T09:54:12Z</time>
      </trkpt>
      <trkpt lat="48.43242" lon="2.07684">
        <ele>84</ele>
        <time>2011-04-30T09:54:13Z</time>
      </trkpt>
      <trkpt lat="48.4324" lon="2.07687">
        <ele>84</ele>
        <time>2011-04-30T09:54:14Z</time>
      </trkpt>
      <trkpt lat="48.43239" lon="2.07689">
        <ele>84</ele>
        <time>2011-04-30T09:54:15Z</time>
      </trkpt>
      <trkpt lat="48.43237" lon="2.07692">
        <ele>84</ele>
        <time>2011-04-30T09:54:16Z</time>
      </trkpt>
      <trkpt lat="48.43236" lon="2.07695">
        <ele>84</ele>
        <time>2011-04-30T09:54:17Z</time>
      </trkpt>
      <trkpt lat="48.43235" lon="2.07698">
        <ele>84</ele>
        <time>2011-04-30T09:54:18Z</time>
      </trkpt>
      <trkpt lat="48.43234" lon="2.07701">
        <ele>84</ele>
        <time>2011-04-30T09:54:19Z</time>
      </trkpt>
      <trkpt lat="48.43233" lon="2.07703">
        <ele>84</ele>
        <time>2011-04-30T09:54:20Z</time>
      </trkpt>
      <trkpt lat="48.43233" lon="2.07706">
        <ele>84</ele>
        <time>2011-04-30T09:54:21Z</time>
      </trkpt>
      <trkpt lat="48.43232" lon="2.07709">
        <ele>84</ele>
        <time>2011-04-30T09:54:22Z</time>
      </trkpt>
      <trkpt lat="48.4323" lon="2.07711">
        <ele>84</ele>
        <time>2011-04-30T09:54:23Z</time>
      </trkpt>
      <trkpt lat="48.43229" lon="2.07714">
        <ele>84</ele>
        <time>2011-04-30T09:54:24Z</time>
      </trkpt>
      <trkpt lat="48.43228" lon="2.07717">
        <ele>84</ele>
        <time>2011-04-30T09:54:25Z</time>
      </trkpt>
      <trkpt lat="48.43226" lon="2.07719">
        <ele>84</ele>
        <time>2011-04-30T09:54:26Z</time>
      </trkpt>
      <trkpt lat="48.43225" lon="2.07722">
        <ele>84</ele>
        <time>2011-04-30T09:54:27Z</time>
      </trkpt>
      <trkpt lat="48.43224" lon="2.07724">
        <ele>84</ele>
        <time>2011-04-30T09:54:28Z</time>
      </trkpt>
      <trkpt lat="48.43222" lon="2.07726">
        <ele>84</ele>
        <time>2011-04-30T09:54:29Z</time>
      </trkpt>
      <trkpt lat="48.43221" lon="2.07728">
        <ele>84</ele>
        <time>2011-04-30T09:54:30Z</time>
      </trkpt>
      <trkpt lat="48.43219" lon="2.0773">
        <ele>84</ele>
        <time>2011-04-30T09:54:31Z</time>
      </trkpt>
      <trkpt lat="48.43218" lon="2.07732">
        <ele>84</ele>
        <time>2011-04-30T09:54:32Z</time>
      </trkpt>
      <trkpt lat="48.43216" lon="2.07735">
        <ele>84</ele>
        <time>2011-04-30T09:54:33Z</time>
      </trkpt>
      <trkpt lat="48.43215" lon="2.07737">
        <ele>84</ele>
        <time>2011-04-30T09:54:34Z</time>
      </trkpt>
      <trkpt lat="48.43214" lon="2.0774">
        <ele>84</ele>
        <time>2011-04-30T09:54:35Z</time>
      </trkpt>
      <trkpt lat="48.43212" lon="2.07742">
        <ele>84</ele>
        <time>2011-04-30T09:54:36Z</time>
      </trkpt>
      <trkpt lat="48.43211" lon="2.07745">
        <ele>84</ele>
        <time>2011-04-30T09:54:37Z</time>
      </trkpt>
      <trkpt lat="48.4321" lon="2.07747">
        <ele>84</ele>
        <time>2011-04-30T09:54:38Z</time>
      </trkpt>
      <trkpt lat="48.43209" lon="2.0775">
        <ele>84</ele>
        <time>2011-04-30T09:54:39Z</time>
      </trkpt>
      <trkpt lat="48.43208" lon="2.07752">
        <ele>86</ele>
        <time>2011-04-30T09:54:40Z</time>
      </trkpt>
      <trkpt lat="48.43207" lon="2.07755">
        <ele>86</ele>
        <time>2011-04-30T09:54:41Z</time>
      </trkpt>
      <trkpt lat="48.43206" lon="2.07757">
        <ele>86</ele>
        <time>2011-04-30T09:54:42Z</time>
      </trkpt>
      <trkpt lat="48.43204" lon="2.07759">
        <ele>86</ele>
        <time>2011-04-30T09:54:43Z</time>
      </trkpt>
      <trkpt lat="48.43203" lon="2.07761">
        <ele>86</ele>
        <time>2011-04-30T09:54:44Z</time>
      </trkpt>
      <trkpt lat="48.43201" lon="2.07764">
        <ele>86</ele>
        <time>2011-04-30T09:54:45Z</time>
      </trkpt>
      <trkpt lat="48.43199" lon="2.07766">
        <ele>86</ele>
        <time>2011-04-30T09:54:46Z</time>
      </trkpt>
      <trkpt lat="48.43198" lon="2.07769">
        <ele>86</ele>
        <time>2011-04-30T09:54:47Z</time>
      </trkpt>
      <trkpt lat="48.43196" lon="2.07771">
        <ele>86</ele>
        <time>2011-04-30T09:54:48Z</time>
      </trkpt>
      <trkpt lat="48.43195" lon="2.07774">
        <ele>86</ele>
        <time>2011-04-30T09:54:49Z</time>
      </trkpt>
      <trkpt lat="48.43193" lon="2.07777">
        <ele>86</ele>
        <time>2011-04-30T09:54:50Z</time>
      </trkpt>
      <trkpt lat="48.43192" lon="2.07779">
        <ele>86</ele>
        <time>2011-04-30T09:54:51Z</time>
      </trkpt>
      <trkpt lat="48.4319" lon="2.07782">
        <ele>86</ele>
        <time>2011-04-30T09:54:52Z</time>
      </trkpt>
      <trkpt lat="48.43188" lon="2.07785">
        <ele>86</ele>
        <time>2011-04-30T09:54:53Z</time>
      </trkpt>
      <trkpt lat="48.43186" lon="2.07787">
        <ele>86</ele>
        <time>2011-04-30T09:54:54Z</time>
      </trkpt>
      <trkpt lat="48.43184" lon="2.0779">
        <ele>86</ele>
        <time>2011-04-30T09:54:55Z</time>
      </trkpt>
      <trkpt lat="48.43182" lon="2.07792">
        <ele>86</ele>
        <time>2011-04-30T09:54:56Z</time>
      </trkpt>
      <trkpt lat="48.4318" lon="2.07795">
        <ele>86</ele>
        <time>2011-04-30T09:54:57Z</time>
      </trkpt>
      <trkpt lat="48.43178" lon="2.07797">
        <ele>86</ele>
        <time>2011-04-30T09:54:58Z</time>
      </trkpt>
      <trkpt lat="48.43176" lon="2.078">
        <ele>86</ele>
        <time>2011-04-30T09:54:59Z</time>
      </trkpt>
      <trkpt lat="48.43174" lon="2.07803">
        <ele>86</ele>
        <time>2011-04-30T09:55:00Z</time>
      </trkpt>
      <trkpt lat="48.43172" lon="2.07805">
        <ele>86</ele>
        <time>2011-04-30T09:55:01Z</time>
      </trkpt>
      <trkpt lat="48.4317" lon="2.07808">
        <ele>85</ele>
        <time>2011-04-30T09:55:02Z</time>
      </trkpt>
      <trkpt lat="48.43168" lon="2.07811">
        <ele>85</ele>
        <time>2011-04-30T09:55:03Z</time>
      </trkpt>
      <trkpt lat="48.43166" lon="2.07814">
        <ele>85</ele>
        <time>2011-04-30T09:55:04Z</time>
      </trkpt>
      <trkpt lat="48.43164" lon="2.07816">
        <ele>85</ele>
        <time>2011-04-30T09:55:05Z</time>
      </trkpt>
      <trkpt lat="48.43162" lon="2.07819">
        <ele>84</ele>
        <time>2011-04-30T09:55:06Z</time>
      </trkpt>
      <trkpt lat="48.4316" lon="2.07822">
        <ele>84</ele>
        <time>2011-04-30T09:55:07Z</time>
      </trkpt>
      <trkpt lat="48.43158" lon="2.07825">
        <ele>84</ele>
        <time>2011-04-30T09:55:08Z</time>
      </trkpt>
      <trkpt lat="48.43156" lon="2.07828">
        <ele>84</ele>
        <time>2011-04-30T09:55:09Z</time>
      </trkpt>
      <trkpt lat="48.43154" lon="2.07831">
        <ele>84</ele>
        <time>2011-04-30T09:55:10Z</time>
      </trkpt>
      <trkpt lat="48.43152" lon="2.07833">
        <ele>85</ele>
        <time>2011-04-30T09:55:11Z</time>
      </trkpt>
      <trkpt lat="48.4315" lon="2.07836">
        <ele>85</ele>
        <time>2011-04-30T09:55:12Z</time>
      </trkpt>
      <trkpt lat="48.43148" lon="2.07839">
        <ele>85</ele>
        <time>2011-04-30T09:55:13Z</time>
      </trkpt>
      <trkpt lat="48.43147" lon="2.07842">
        <ele>85</ele>
        <time>2011-04-30T09:55:14Z</time>
      </trkpt>
      <trkpt lat="48.43145" lon="2.07844">
        <ele>85</ele>
        <time>2011-04-30T09:55:15Z</time>
      </trkpt>
      <trkpt lat="48.43143" lon="2.07847">
        <ele>85</ele>
        <time>2011-04-30T09:55:16Z</time>
      </trkpt>
      <trkpt lat="48.43141" lon="2.07849">
        <ele>85</ele>
        <time>2011-04-30T09:55:17Z</time>
      </trkpt>
      <trkpt lat="48.43139" lon="2.07852">
        <ele>85</ele>
        <time>2011-04-30T09:55:18Z</time>
      </trkpt>
      <trkpt lat="48.43138" lon="2.07855">
        <ele>85</ele>
        <time>2011-04-30T09:55:19Z</time>
      </trkpt>
      <trkpt lat="48.43136" lon="2.07857">
        <ele>85</ele>
        <time>2011-04-30T09:55:20Z</time>
      </trkpt>
      <trkpt lat="48.43135" lon="2.0786">
        <ele>85</ele>
        <time>2011-04-30T09:55:21Z</time>
      </trkpt>
      <trkpt lat="48.43133" lon="2.07863">
        <ele>85</ele>
        <time>2011-04-30T09:55:22Z</time>
      </trkpt>
      <trkpt lat="48.43132" lon="2.07865">
        <ele>85</ele>
        <time>2011-04-30T09:55:23Z</time>
      </trkpt>
      <trkpt lat="48.4313" lon="2.07867">
        <ele>85</ele>
        <time>2011-04-30T09:55:24Z</time>
      </trkpt>
      <trkpt lat="48.43129" lon="2.0787">
        <ele>85</ele>
        <time>2011-04-30T09:55:25Z</time>
      </trkpt>
      <trkpt lat="48.43128" lon="2.07872">
        <ele>85</ele>
        <time>2011-04-30T09:55:26Z</time>
      </trkpt>
      <trkpt lat="48.43126" lon="2.07874">
        <ele>85</ele>
        <time>2011-04-30T09:55:27Z</time>
      </trkpt>
      <trkpt lat="48.43125" lon="2.07877">
        <ele>85</ele>
        <time>2011-04-30T09:55:28Z</time>
      </trkpt>
      <trkpt lat="48.43124" lon="2.0788">
        <ele>85</ele>
        <time>2011-04-30T09:55:29Z</time>
      </trkpt>
      <trkpt lat="48.43123" lon="2.07882">
        <ele>85</ele>
        <time>2011-04-30T09:55:30Z</time>
      </trkpt>
      <trkpt lat="48.43122" lon="2.07885">
        <ele>85</ele>
        <time>2011-04-30T09:55:31Z</time>
      </trkpt>
      <trkpt lat="48.43121" lon="2.07888">
        <ele>85</ele>
        <time>2011-04-30T09:55:32Z</time>
      </trkpt>
      <trkpt lat="48.43119" lon="2.07891">
        <ele>85</ele>
        <time>2011-04-30T09:55:33Z</time>
      </trkpt>
      <trkpt lat="48.43118" lon="2.07894">
        <ele>85</ele>
        <time>2011-04-30T09:55:34Z</time>
      </trkpt>
      <trkpt lat="48.43117" lon="2.07897">
        <ele>85</ele>
        <time>2011-04-30T09:55:35Z</time>
      </trkpt>
      <trkpt lat="48.43116" lon="2.07899">
        <ele>85</ele>
        <time>2011-04-30T09:55:36Z</time>
      </trkpt>
      <trkpt lat="48.43115" lon="2.07902">
        <ele>85</ele>
        <time>2011-04-30T09:55:37Z</time>
      </trkpt>
      <trkpt lat="48.43114" lon="2.07906">
        <ele>85</ele>
        <time>2011-04-30T09:55:38Z</time>
      </trkpt>
      <trkpt lat="48.43113" lon="2.07909">
        <ele>85</ele>
        <time>2011-04-30T09:55:39Z</time>
      </trkpt>
      <trkpt lat="48.43113" lon="2.07912">
        <ele>85</ele>
        <time>2011-04-30T09:55:40Z</time>
      </trkpt>
      <trkpt lat="48.43112" lon="2.07916">
        <ele>85</ele>
        <time>2011-04-30T09:55:41Z</time>
      </trkpt>
      <trkpt lat="48.43112" lon="2.0792">
        <ele>87</ele>
        <time>2011-04-30T09:55:42Z</time>
      </trkpt>
      <trkpt lat="48.43111" lon="2.07923">
        <ele>87</ele>
        <time>2011-04-30T09:55:43Z</time>
      </trkpt>
      <trkpt lat="48.43111" lon="2.07927">
        <ele>87</ele>
        <time>2011-04-30T09:55:44Z</time>
      </trkpt>
      <trkpt lat="48.4311" lon="2.07931">
        <ele>87</ele>
        <time>2011-04-30T09:55:45Z</time>
      </trkpt>
      <trkpt lat="48.4311" lon="2.07934">
        <ele>87</ele>
        <time>2011-04-30T09:55:46Z</time>
      </trkpt>
      <trkpt lat="48.43109" lon="2.07938">
        <ele>87</ele>
        <time>2011-04-30T09:55:47Z</time>
      </trkpt>
      <trkpt lat="48.43108" lon="2.07942">
        <ele>87</ele>
        <time>2011-04-30T09:55:48Z</time>
      </trkpt>
      <trkpt lat="48.43108" lon="2.07945">
        <ele>88</ele>
        <time>2011-04-30T09:55:49Z</time>
      </trkpt>
      <trkpt lat="48.43107" lon="2.07949">
        <ele>88</ele>
        <time>2011-04-30T09:55:50Z</time>
      </trkpt>
      <trkpt lat="48.43106" lon="2.07952">
        <ele>88</ele>
        <time>2011-04-30T09:55:51Z</time>
      </trkpt>
      <trkpt lat="48.43105" lon="2.07955">
        <ele>88</ele>
        <time>2011-04-30T09:55:52Z</time>
      </trkpt>
      <trkpt lat="48.43105" lon="2.07958">
        <ele>88</ele>
        <time>2011-04-30T09:55:53Z</time>
      </trkpt>
      <trkpt lat="48.43104" lon="2.07962">
        <ele>88</ele>
        <time>2011-04-30T09:55:54Z</time>
      </trkpt>
      <trkpt lat="48.43103" lon="2.07965">
        <ele>88</ele>
        <time>2011-04-30T09:55:55Z</time>
      </trkpt>
      <trkpt lat="48.43102" lon="2.07968">
        <ele>88</ele>
        <time>2011-04-30T09:55:56Z</time>
      </trkpt>
      <trkpt lat="48.43101" lon="2.07972">
        <ele>88</ele>
        <time>2011-04-30T09:55:57Z</time>
      </trkpt>
      <trkpt lat="48.43101" lon="2.07975">
        <ele>88</ele>
        <time>2011-04-30T09:55:58Z</time>
      </trkpt>
      <trkpt lat="48.431" lon="2.07979">
        <ele>88</ele>
        <time>2011-04-30T09:55:59Z</time>
      </trkpt>
      <trkpt lat="48.43099" lon="2.07982">
        <ele>88</ele>
        <time>2011-04-30T09:56:00Z</time>
      </trkpt>
      <trkpt lat="48.43099" lon="2.07986">
        <ele>88</ele>
        <time>2011-04-30T09:56:01Z</time>
      </trkpt>
      <trkpt lat="48.43098" lon="2.07989">
        <ele>88</ele>
        <time>2011-04-30T09:56:02Z</time>
      </trkpt>
      <trkpt lat="48.43097" lon="2.07992">
        <ele>88</ele>
        <time>2011-04-30T09:56:03Z</time>
      </trkpt>
      <trkpt lat="48.43096" lon="2.07996">
        <ele>88</ele>
        <time>2011-04-30T09:56:04Z</time>
      </trkpt>
      <trkpt lat="48.43096" lon="2.07999">
        <ele>88</ele>
        <time>2011-04-30T09:56:05Z</time>
      </trkpt>
      <trkpt lat="48.43095" lon="2.08003">
        <ele>90</ele>
        <time>2011-04-30T09:56:06Z</time>
      </trkpt>
      <trkpt lat="48.43095" lon="2.08006">
        <ele>90</ele>
        <time>2011-04-30T09:56:07Z</time>
      </trkpt>
      <trkpt lat="48.43094" lon="2.08009">
        <ele>90</ele>
        <time>2011-04-30T09:56:08Z</time>
      </trkpt>
      <trkpt lat="48.43094" lon="2.08013">
        <ele>91</ele>
        <time>2011-04-30T09:56:09Z</time>
      </trkpt>
      <trkpt lat="48.43093" lon="2.08016">
        <ele>91</ele>
        <time>2011-04-30T09:56:10Z</time>
      </trkpt>
      <trkpt lat="48.43093" lon="2.0802">
        <ele>91</ele>
        <time>2011-04-30T09:56:11Z</time>
      </trkpt>
      <trkpt lat="48.43092" lon="2.08023">
        <ele>92</ele>
        <time>2011-04-30T09:56:12Z</time>
      </trkpt>
      <trkpt lat="48.43092" lon="2.08027">
        <ele>92</ele>
        <time>2011-04-30T09:56:13Z</time>
      </trkpt>
      <trkpt lat="48.43091" lon="2.0803">
        <ele>92</ele>
        <time>2011-04-30T09:56:14Z</time>
      </trkpt>
      <trkpt lat="48.43091" lon="2.08033">
        <ele>92</ele>
        <time>2011-04-30T09:56:15Z</time>
      </trkpt>
      <trkpt lat="48.4309" lon="2.08037">
        <ele>92</ele>
        <time>2011-04-30T09:56:16Z</time>
      </trkpt>
      <trkpt lat="48.4309" lon="2.0804">
        <ele>93</ele>
        <time>2011-04-30T09:56:17Z</time>
      </trkpt>
      <trkpt lat="48.4309" lon="2.08043">
        <ele>93</ele>
        <time>2011-04-30T09:56:18Z</time>
      </trkpt>
      <trkpt lat="48.43089" lon="2.08047">
        <ele>93</ele>
        <time>2011-04-30T09:56:19Z</time>
      </trkpt>
      <trkpt lat="48.43089" lon="2.0805">
        <ele>93</ele>
        <time>2011-04-30T09:56:20Z</time>
      </trkpt>
      <trkpt lat="48.43088" lon="2.08053">
        <ele>93</ele>
        <time>2011-04-30T09:56:21Z</time>
      </trkpt>
      <trkpt lat="48.43088" lon="2.08056">
        <ele>93</ele>
        <time>2011-04-30T09:56:22Z</time>
      </trkpt>
      <trkpt lat="48.43087" lon="2.0806">
        <ele>93</ele>
        <time>2011-04-30T09:56:23Z</time>
      </trkpt>
      <trkpt lat="48.43086" lon="2.08063">
        <ele>92</ele>
        <time>2011-04-30T09:56:24Z</time>
      </trkpt>
      <trkpt lat="48.43085" lon="2.08065">
        <ele>92</ele>
        <time>2011-04-30T09:56:25Z</time>
      </trkpt>
      <trkpt lat="48.43085" lon="2.08068">
        <ele>92</ele>
        <time>2011-04-30T09:56:26Z</time>
      </trkpt>
      <trkpt lat="48.43084" lon="2.08071">
        <ele>92</ele>
        <time>2011-04-30T09:56:27Z</time>
      </trkpt>
      <trkpt lat="48.43083" lon="2.08075">
        <ele>89</ele>
        <time>2011-04-30T09:56:28Z</time>
      </trkpt>
      <trkpt lat="48.43082" lon="2.08078">
        <ele>89</ele>
        <time>2011-04-30T09:56:29Z</time>
      </trkpt>
      <trkpt lat="48.43082" lon="2.08081">
        <ele>90</ele>
        <time>2011-04-30T09:56:30Z</time>
      </trkpt>
      <trkpt lat="48.43081" lon="2.08084">
        <ele>90</ele>
        <time>2011-04-30T09:56:31Z</time>
      </trkpt>
      <trkpt lat="48.43081" lon="2.08088">
        <ele>90</ele>
        <time>2011-04-30T09:56:32Z</time>
      </trkpt>
      <trkpt lat="48.4308" lon="2.08092">
        <ele>89</ele>
        <time>2011-04-30T09:56:33Z</time>
      </trkpt>
      <trkpt lat="48.4308" lon="2.08095">
        <ele>89</ele>
        <time>2011-04-30T09:56:34Z</time>
      </trkpt>
      <trkpt lat="48.4308" lon="2.08099">
        <ele>89</ele>
        <time>2011-04-30T09:56:35Z</time>
      </trkpt>
      <trkpt lat="48.43079" lon="2.08103">
        <ele>89</ele>
        <time>2011-04-30T09:56:36Z</time>
      </trkpt>
      <trkpt lat="48.43079" lon="2.08107">
        <ele>89</ele>
        <time>2011-04-30T09:56:37Z</time>
      </trkpt>
      <trkpt lat="48.43079" lon="2.0811">
        <ele>89</ele>
        <time>2011-04-30T09:56:38Z</time>
      </trkpt>
      <trkpt lat="48.43078" lon="2.08114">
        <ele>89</ele>
        <time>2011-04-30T09:56:39Z</time>
      </trkpt>
      <trkpt lat="48.43078" lon="2.08117">
        <ele>89</ele>
        <time>2011-04-30T09:56:40Z</time>
      </trkpt>
      <trkpt lat="48.43077" lon="2.08121">
        <ele>89</ele>
        <time>2011-04-30T09:56:41Z</time>
      </trkpt>
      <trkpt lat="48.43076" lon="2.08124">
        <ele>89</ele>
        <time>2011-04-30T09:56:42Z</time>
      </trkpt>
      <trkpt lat="48.43075" lon="2.08128">
        <ele>89</ele>
        <time>2011-04-30T09:56:43Z</time>
      </trkpt>
      <trkpt lat="48.43073" lon="2.08131">
        <ele>89</ele>
        <time>2011-04-30T09:56:44Z</time>
      </trkpt>
      <trkpt lat="48.43072" lon="2.08135">
        <ele>89</ele>
        <time>2011-04-30T09:56:45Z</time>
      </trkpt>
      <trkpt lat="48.43071" lon="2.08138">
        <ele>89</ele>
        <time>2011-04-30T09:56:46Z</time>
      </trkpt>
      <trkpt lat="48.4307" lon="2.08141">
        <ele>89</ele>
        <time>2011-04-30T09:56:47Z</time>
      </trkpt>
      <trkpt lat="48.43069" lon="2.08143">
        <ele>89</ele>
        <time>2011-04-30T09:56:48Z</time>
      </trkpt>
      <trkpt lat="48.43068" lon="2.08145">
        <ele>89</ele>
        <time>2011-04-30T09:56:49Z</time>
      </trkpt>
      <trkpt lat="48.43068" lon="2.08147">
        <ele>89</ele>
        <time>2011-04-30T09:56:50Z</time>
      </trkpt>
      <trkpt lat="48.43067" lon="2.0815">
        <ele>89</ele>
        <time>2011-04-30T09:56:51Z</time>
      </trkpt>
      <trkpt lat="48.43066" lon="2.08153">
        <ele>89</ele>
        <time>2011-04-30T09:56:52Z</time>
      </trkpt>
      <trkpt lat="48.43066" lon="2.08157">
        <ele>89</ele>
        <time>2011-04-30T09:56:53Z</time>
      </trkpt>
      <trkpt lat="48.43065" lon="2.0816">
        <ele>89</ele>
        <time>2011-04-30T09:56:54Z</time>
      </trkpt>
      <trkpt lat="48.43065" lon="2.08163">
        <ele>89</ele>
        <time>2011-04-30T09:56:55Z</time>
      </trkpt>
      <trkpt lat="48.43065" lon="2.08166">
        <ele>89</ele>
        <time>2011-04-30T09:56:56Z</time>
      </trkpt>
      <trkpt lat="48.43064" lon="2.08169">
        <ele>90</ele>
        <time>2011-04-30T09:56:57Z</time>
      </trkpt>
      <trkpt lat="48.43064" lon="2.08171">
        <ele>90</ele>
        <time>2011-04-30T09:56:58Z</time>
      </trkpt>
      <trkpt lat="48.43064" lon="2.08173">
        <ele>90</ele>
        <time>2011-04-30T09:56:59Z</time>
      </trkpt>
      <trkpt lat="48.43064" lon="2.08175">
        <ele>90</ele>
        <time>2011-04-30T09:57:00Z</time>
      </trkpt>
      <trkpt lat="48.43063" lon="2.08176">
        <ele>90</ele>
        <time>2011-04-30T09:57:01Z</time>
      </trkpt>
      <trkpt lat="48.43063" lon="2.08178">
        <ele>90</ele>
        <time>2011-04-30T09:57:02Z</time>
      </trkpt>
      <trkpt lat="48.43061" lon="2.08178">
        <ele>90</ele>
        <time>2011-04-30T09:57:03Z</time>
      </trkpt>
      <trkpt lat="48.4306" lon="2.08177">
        <ele>90</ele>
        <time>2011-04-30T09:57:04Z</time>
      </trkpt>
      <trkpt lat="48.4306" lon="2.08175">
        <ele>90</ele>
        <time>2011-04-30T09:57:05Z</time>
      </trkpt>
      <trkpt lat="48.43059" lon="2.08172">
        <ele>90</ele>
        <time>2011-04-30T09:57:06Z</time>
      </trkpt>
      <trkpt lat="48.4306" lon="2.08169">
        <ele>90</ele>
        <time>2011-04-30T09:57:07Z</time>
      </trkpt>
      <trkpt lat="48.43061" lon="2.08166">
        <ele>89</ele>
        <time>2011-04-30T09:57:08Z</time>
      </trkpt>
      <trkpt lat="48.43062" lon="2.08163">
        <ele>89</ele>
        <time>2011-04-30T09:57:09Z</time>
      </trkpt>
      <trkpt lat="48.43064" lon="2.08161">
        <ele>89</ele>
        <time>2011-04-30T09:57:10Z</time>
      </trkpt>
      <trkpt lat="48.43067" lon="2.08159">
        <ele>89</ele>
        <time>2011-04-30T09:57:11Z</time>
      </trkpt>
      <trkpt lat="48.43069" lon="2.08158">
        <ele>90</ele>
        <time>2011-04-30T09:57:12Z</time>
      </trkpt>
      <trkpt lat="48.43071" lon="2.08158">
        <ele>90</ele>
        <time>2011-04-30T09:57:13Z</time>
      </trkpt>
      <trkpt lat="48.43073" lon="2.08158">
        <ele>90</ele>
        <time>2011-04-30T09:57:14Z</time>
      </trkpt>
      <trkpt lat="48.43075" lon="2.08158">
        <ele>90</ele>
        <time>2011-04-30T09:57:15Z</time>
      </trkpt>
      <trkpt lat="48.43077" lon="2.08158">
        <ele>90</ele>
        <time>2011-04-30T09:57:16Z</time>
      </trkpt>
      <trkpt lat="48.43078" lon="2.08158">
        <ele>90</ele>
        <time>2011-04-30T09:57:17Z</time>
      </trkpt>
      <trkpt lat="48.4308" lon="2.08159">
        <ele>90</ele>
        <time>2011-04-30T09:57:18Z</time>
      </trkpt>
      <trkpt lat="48.43081" lon="2.08159">
        <ele>90</ele>
        <time>2011-04-30T09:57:19Z</time>
      </trkpt>
      <trkpt lat="48.43082" lon="2.0816">
        <ele>90</ele>
        <time>2011-04-30T09:57:20Z</time>
      </trkpt>
      <trkpt lat="48.43083" lon="2.0816">
        <ele>90</ele>
        <time>2011-04-30T09:57:21Z</time>
      </trkpt>
      <trkpt lat="48.43084" lon="2.08161">
        <ele>93</ele>
        <time>2011-04-30T09:57:22Z</time>
      </trkpt>
      <trkpt lat="48.43085" lon="2.08162">
        <ele>93</ele>
        <time>2011-04-30T09:57:23Z</time>
      </trkpt>
      <trkpt lat="48.43086" lon="2.08163">
        <ele>92</ele>
        <time>2011-04-30T09:57:24Z</time>
      </trkpt>
      <trkpt lat="48.43086" lon="2.08164">
        <ele>92</ele>
        <time>2011-04-30T09:57:25Z</time>
      </trkpt>
      <trkpt lat="48.43086" lon="2.08165">
        <ele>92</ele>
        <time>2011-04-30T09:57:26Z</time>
      </trkpt>
      <trkpt lat="48.43087" lon="2.08167">
        <ele>92</ele>
        <time>2011-04-30T09:57:27Z</time>
      </trkpt>
      <trkpt lat="48.43087" lon="2.08168">
        <ele>93</ele>
        <time>2011-04-30T09:57:28Z</time>
      </trkpt>
      <trkpt lat="48.43087" lon="2.08169">
        <ele>93</ele>
        <time>2011-04-30T09:57:29Z</time>
      </trkpt>
      <trkpt lat="48.43087" lon="2.0817">
        <ele>93</ele>
        <time>2011-04-30T09:57:30Z</time>
      </trkpt>
      <trkpt lat="48.43087" lon="2.08171">
        <ele>94</ele>
        <time>2011-04-30T09:57:31Z</time>
      </trkpt>
      <trkpt lat="48.43087" lon="2.08171">
        <ele>94</ele>
        <time>2011-04-30T09:57:32Z</time>
      </trkpt>
      <trkpt lat="48.43087" lon="2.08172">
        <ele>94</ele>
        <time>2011-04-30T09:57:33Z</time>
      </trkpt>
      <trkpt lat="48.43088" lon="2.08173">
        <ele>95</ele>
        <time>2011-04-30T09:57:34Z</time>
      </trkpt>
      <trkpt lat="48.43089" lon="2.08174">
        <ele>95</ele>
        <time>2011-04-30T09:57:35Z</time>
      </trkpt>
      <trkpt lat="48.4309" lon="2.08175">
        <ele>95</ele>
        <time>2011-04-30T09:57:36Z</time>
      </trkpt>
      <trkpt lat="48.4309" lon="2.08175">
        <ele>96</ele>
        <time>2011-04-30T09:57:37Z</time>
      </trkpt>
      <trkpt lat="48.4309" lon="2.08175">
        <ele>96</ele>
        <time>2011-04-30T09:57:38Z</time>
      </trkpt>
      <trkpt lat="48.4309" lon="2.08176">
        <ele>96</ele>
        <time>2011-04-30T09:57:39Z</time>
      </trkpt>
      <trkpt lat="48.43091" lon="2.08176">
        <ele>96</ele>
        <time>2011-04-30T09:57:40Z</time>
      </trkpt>
      <trkpt lat="48.43091" lon="2.08177">
        <ele>96</ele>
        <time>2011-04-30T09:57:41Z</time>
      </trkpt>
      <trkpt lat="48.43092" lon="2.08178">
        <ele>97</ele>
        <time>2011-04-30T09:57:42Z</time>
      </trkpt>
      <trkpt lat="48.43093" lon="2.08181">
        <ele>97</ele>
        <time>2011-04-30T09:57:43Z</time>
      </trkpt>
      <trkpt lat="48.43093" lon="2.08184">
        <ele>98</ele>
        <time>2011-04-30T09:57:44Z</time>
      </trkpt>
      <trkpt lat="48.43093" lon="2.08187">
        <ele>98</ele>
        <time>2011-04-30T09:57:45Z</time>
      </trkpt>
      <trkpt lat="48.43092" lon="2.0819">
        <ele>99</ele>
        <time>2011-04-30T09:57:46Z</time>
      </trkpt>
      <trkpt lat="48.43092" lon="2.08193">
        <ele>99</ele>
        <time>2011-04-30T09:57:47Z</time>
      </trkpt>
      <trkpt lat="48.43091" lon="2.08196">
        <ele>99</ele>
        <time>2011-04-30T09:57:48Z</time>
      </trkpt>
      <trkpt lat="48.4309" lon="2.08198">
        <ele>100</ele>
        <time>2011-04-30T09:57:49Z</time>
      </trkpt>
      <trkpt lat="48.4309" lon="2.08201">
        <ele>100</ele>
        <time>2011-04-30T09:57:50Z</time>
      </trkpt>
      <trkpt lat="48.4309" lon="2.08204">
        <ele>100</ele>
        <time>2011-04-30T09:57:51Z</time>
      </trkpt>
      <trkpt lat="48.4309" lon="2.08206">
        <ele>100</ele>
        <time>2011-04-30T09:57:52Z</time>
      </trkpt>
      <trkpt lat="48.43089" lon="2.08209">
        <ele>100</ele>
        <time>2011-04-30T09:57:53Z</time>
      </trkpt>
      <trkpt lat="48.43089" lon="2.08211">
        <ele>100</ele>
        <time>2011-04-30T09:57:54Z</time>
      </trkpt>
      <trkpt lat="48.43089" lon="2.08214">
        <ele>100</ele>
        <time>2011-04-30T09:57:55Z</time>
      </trkpt>
      <trkpt lat="48.43089" lon="2.08216">
        <ele>100</ele>
        <time>2011-04-30T09:57:56Z</time>
      </trkpt>
      <trkpt lat="48.43089" lon="2.08219">
        <ele>100</ele>
        <time>2011-04-30T09:57:57Z</time>
      </trkpt>
      <trkpt lat="48.43089" lon="2.08222">
        <ele>100</ele>
        <time>2011-04-30T09:57:58Z</time>
      </trkpt>
      <trkpt lat="48.43089" lon="2.08226">
        <ele>99</ele>
        <time>2011-04-30T09:57:59Z</time>
      </trkpt>
      <trkpt lat="48.43089" lon="2.08229">
        <ele>99</ele>
        <time>2011-04-30T09:58:00Z</time>
      </trkpt>
      <trkpt lat="48.43089" lon="2.08232">
        <ele>99</ele>
        <time>2011-04-30T09:58:01Z</time>
      </trkpt>
      <trkpt lat="48.43088" lon="2.08236">
        <ele>98</ele>
        <time>2011-04-30T09:58:02Z</time>
      </trkpt>
      <trkpt lat="48.43088" lon="2.08239">
        <ele>97</ele>
        <time>2011-04-30T09:58:03Z</time>
      </trkpt>
      <trkpt lat="48.43088" lon="2.08242">
        <ele>96</ele>
        <time>2011-04-30T09:58:04Z</time>
      </trkpt>
      <trkpt lat="48.43088" lon="2.08246">
        <ele>96</ele>
        <time>2011-04-30T09:58:05Z</time>
      </trkpt>
      <trkpt lat="48.43088" lon="2.08249">
        <ele>95</ele>
        <time>2011-04-30T09:58:06Z</time>
      </trkpt>
      <trkpt lat="48.43087" lon="2.08253">
        <ele>95</ele>
        <time>2011-04-30T09:58:07Z</time>
      </trkpt>
      <trkpt lat="48.43087" lon="2.08257">
        <ele>96</ele>
        <time>2011-04-30T09:58:08Z</time>
      </trkpt>
      <trkpt lat="48.43088" lon="2.08261">
        <ele>97</ele>
        <time>2011-04-30T09:58:09Z</time>
      </trkpt>
      <trkpt lat="48.43088" lon="2.08265">
        <ele>98</ele>
        <time>2011-04-30T09:58:10Z</time>
      </trkpt>
      <trkpt lat="48.43088" lon="2.08269">
        <ele>99</ele>
        <time>2011-04-30T09:58:11Z</time>
      </trkpt>
      <trkpt lat="48.43088" lon="2.08272">
        <ele>99</ele>
        <time>2011-04-30T09:58:12Z</time>
      </trkpt>
      <trkpt lat="48.43088" lon="2.08276">
        <ele>100</ele>
        <time>2011-04-30T09:58:13Z</time>
      </trkpt>
      <trkpt lat="48.43088" lon="2.0828">
        <ele>100</ele>
        <time>2011-04-30T09:58:14Z</time>
      </trkpt>
      <trkpt lat="48.43088" lon="2.08284">
        <ele>100</ele>
        <time>2011-04-30T09:58:15Z</time>
      </trkpt>
      <trkpt lat="48.43088" lon="2.08287">
        <ele>100</ele>
        <time>2011-04-30T09:58:16Z</time>
      </trkpt>
      <trkpt lat="48.43088" lon="2.0829">
        <ele>100</ele>
        <time>2011-04-30T09:58:17Z</time>
      </trkpt>
      <trkpt lat="48.43088" lon="2.08293">
        <ele>100</ele>
        <time>2011-04-30T09:58:18Z</time>
      </trkpt>
      <trkpt lat="48.43088" lon="2.08296">
        <ele>100</ele>
        <time>2011-04-30T09:58:19Z</time>
      </trkpt>
      <trkpt lat="48.43088" lon="2.083">
        <ele>100</ele>
        <time>2011-04-30T09:58:20Z</time>
      </trkpt>
      <trkpt lat="48.43088" lon="2.08303">
        <ele>100</ele>
        <time>2011-04-30T09:58:21Z</time>
      </trkpt>
      <trkpt lat="48.43089" lon="2.08307">
        <ele>99</ele>
        <time>2011-04-30T09:58:22Z</time>
      </trkpt>
      <trkpt lat="48.43089" lon="2.08311">
        <ele>99</ele>
        <time>2011-04-30T09:58:23Z</time>
      </trkpt>
      <trkpt lat="48.43089" lon="2.08314">
        <ele>98</ele>
        <time>2011-04-30T09:58:24Z</time>
      </trkpt>
      <trkpt lat="48.43089" lon="2.08318">
        <ele>97</ele>
        <time>2011-04-30T09:58:25Z</time>
      </trkpt>
      <trkpt lat="48.4309" lon="2.08321">
        <ele>97</ele>
        <time>2011-04-30T09:58:26Z</time>
      </trkpt>
      <trkpt lat="48.4309" lon="2.08324">
        <ele>96</ele>
        <time>2011-04-30T09:58:27Z</time>
      </trkpt>
      <trkpt lat="48.4309" lon="2.08328">
        <ele>95</ele>
        <time>2011-04-30T09:58:28Z</time>
      </trkpt>
      <trkpt lat="48.4309" lon="2.08331">
        <ele>95</ele>
        <time>2011-04-30T09:58:29Z</time>
      </trkpt>
      <trkpt lat="48.43091" lon="2.08335">
        <ele>94</ele>
        <time>2011-04-30T09:58:30Z</time>
      </trkpt>
      <trkpt lat="48.43091" lon="2.08338">
        <ele>94</ele>
        <time>2011-04-30T09:58:31Z</time>
      </trkpt>
      <trkpt lat="48.43091" lon="2.0834">
        <ele>95</ele>
        <time>2011-04-30T09:58:32Z</time>
      </trkpt>
      <trkpt lat="48.43091" lon="2.08341">
        <ele>95</ele>
        <time>2011-04-30T09:58:33Z</time>
      </trkpt>
      <trkpt lat="48.43091" lon="2.08343">
        <ele>95</ele>
        <time>2011-04-30T09:58:34Z</time>
      </trkpt>
      <trkpt lat="48.43092" lon="2.08346">
        <ele>96</ele>
        <time>2011-04-30T09:58:35Z</time>
      </trkpt>
      <trkpt lat="48.43093" lon="2.08349">
        <ele>96</ele>
        <time>2011-04-30T09:58:36Z</time>
      </trkpt>
      <trkpt lat="48.43094" lon="2.08351">
        <ele>97</ele>
        <time>2011-04-30T09:58:37Z</time>
      </trkpt>
      <trkpt lat="48.43095" lon="2.08355">
        <ele>97</ele>
        <time>2011-04-30T09:58:38Z</time>
      </trkpt>
      <trkpt lat="48.43097" lon="2.08359">
        <ele>98</ele>
        <time>2011-04-30T09:58:39Z</time>
      </trkpt>
      <trkpt lat="48.43098" lon="2.08363">
        <ele>98</ele>
        <time>2011-04-30T09:58:40Z</time>
      </trkpt>
      <trkpt lat="48.43099" lon="2.08366">
        <ele>98</ele>
        <time>2011-04-30T09:58:41Z</time>
      </trkpt>
      <trkpt lat="48.43101" lon="2.0837">
        <ele>98</ele>
        <time>2011-04-30T09:58:42Z</time>
      </trkpt>
      <trkpt lat="48.43102" lon="2.08374">
        <ele>98</ele>
        <time>2011-04-30T09:58:43Z</time>
      </trkpt>
      <trkpt lat="48.43104" lon="2.08378">
        <ele>99</ele>
        <time>2011-04-30T09:58:44Z</time>
      </trkpt>
      <trkpt lat="48.43105" lon="2.08382">
        <ele>99</ele>
        <time>2011-04-30T09:58:45Z</time>
      </trkpt>
      <trkpt lat="48.43106" lon="2.08385">
        <ele>99</ele>
        <time>2011-04-30T09:58:46Z</time>
      </trkpt>
      <trkpt lat="48.43108" lon="2.08389">
        <ele>99</ele>
        <time>2011-04-30T09:58:47Z</time>
      </trkpt>
      <trkpt lat="48.43109" lon="2.08392">
        <ele>99</ele>
        <time>2011-04-30T09:58:48Z</time>
      </trkpt>
      <trkpt lat="48.43111" lon="2.08396">
        <ele>99</ele>
        <time>2011-04-30T09:58:49Z</time>
      </trkpt>
      <trkpt lat="48.43112" lon="2.08399">
        <ele>99</ele>
        <time>2011-04-30T09:58:50Z</time>
      </trkpt>
      <trkpt lat="48.43113" lon="2.08402">
        <ele>99</ele>
        <time>2011-04-30T09:58:51Z</time>
      </trkpt>
      <trkpt lat="48.43115" lon="2.08406">
        <ele>99</ele>
        <time>2011-04-30T09:58:52Z</time>
      </trkpt>
      <trkpt lat="48.43116" lon="2.08409">
        <ele>99</ele>
        <time>2011-04-30T09:58:53Z</time>
      </trkpt>
      <trkpt lat="48.43118" lon="2.08413">
        <ele>99</ele>
        <time>2011-04-30T09:58:54Z</time>
      </trkpt>
      <trkpt lat="48.43119" lon="2.08416">
        <ele>100</ele>
        <time>2011-04-30T09:58:55Z</time>
      </trkpt>
      <trkpt lat="48.43121" lon="2.0842">
        <ele>97</ele>
        <time>2011-04-30T09:58:56Z</time>
      </trkpt>
      <trkpt lat="48.43123" lon="2.08424">
        <ele>97</ele>
        <time>2011-04-30T09:58:57Z</time>
      </trkpt>
      <trkpt lat="48.43124" lon="2.08427">
        <ele>97</ele>
        <time>2011-04-30T09:58:58Z</time>
      </trkpt>
      <trkpt lat="48.43126" lon="2.08431">
        <ele>98</ele>
        <time>2011-04-30T09:58:59Z</time>
      </trkpt>
      <trkpt lat="48.43127" lon="2.08435">
        <ele>98</ele>
        <time>2011-04-30T09:59:00Z</time>
      </trkpt>
      <trkpt lat="48.43128" lon="2.08439">
        <ele>98</ele>
        <time>2011-04-30T09:59:01Z</time>
      </trkpt>
      <trkpt lat="48.43129" lon="2.08442">
        <ele>98</ele>
        <time>2011-04-30T09:59:02Z</time>
      </trkpt>
      <trkpt lat="48.43131" lon="2.08446">
        <ele>98</ele>
        <time>2011-04-30T09:59:03Z</time>
      </trkpt>
      <trkpt lat="48.43132" lon="2.08449">
        <ele>98</ele>
        <time>2011-04-30T09:59:04Z</time>
      </trkpt>
      <trkpt lat="48.43133" lon="2.08453">
        <ele>98</ele>
        <time>2011-04-30T09:59:05Z</time>
      </trkpt>
      <trkpt lat="48.43133" lon="2.08456">
        <ele>98</ele>
        <time>2011-04-30T09:59:06Z</time>
      </trkpt>
      <trkpt lat="48.43134" lon="2.0846">
        <ele>98</ele>
        <time>2011-04-30T09:59:07Z</time>
      </trkpt>
      <trkpt lat="48.43135" lon="2.08464">
        <ele>98</ele>
        <time>2011-04-30T09:59:08Z</time>
      </trkpt>
      <trkpt lat="48.43136" lon="2.08467">
        <ele>98</ele>
        <time>2011-04-30T09:59:09Z</time>
      </trkpt>
      <trkpt lat="48.43136" lon="2.08471">
        <ele>98</ele>
        <time>2011-04-30T09:59:10Z</time>
      </trkpt>
      <trkpt lat="48.43137" lon="2.08475">
        <ele>98</ele>
        <time>2011-04-30T09:59:11Z</time>
      </trkpt>
      <trkpt lat="48.43138" lon="2.08478">
        <ele>98</ele>
        <time>2011-04-30T09:59:12Z</time>
      </trkpt>
      <trkpt lat="48.43138" lon="2.08482">
        <ele>98</ele>
        <time>2011-04-30T09:59:13Z</time>
      </trkpt>
      <trkpt lat="48.43139" lon="2.08486">
        <ele>98</ele>
        <time>2011-04-30T09:59:14Z</time>
      </trkpt>
      <trkpt lat="48.43139" lon="2.0849">
        <ele>98</ele>
        <time>2011-04-30T09:59:15Z</time>
      </trkpt>
      <trkpt lat="48.4314" lon="2.08494">
        <ele>98</ele>
        <time>2011-04-30T09:59:16Z</time>
      </trkpt>
      <trkpt lat="48.4314" lon="2.08498">
        <ele>98</ele>
        <time>2011-04-30T09:59:17Z</time>
      </trkpt>
      <trkpt lat="48.43141" lon="2.08502">
        <ele>96</ele>
        <time>2011-04-30T09:59:18Z</time>
      </trkpt>
      <trkpt lat="48.43141" lon="2.08506">
        <ele>96</ele>
        <time>2011-04-30T09:59:19Z</time>
      </trkpt>
      <trkpt lat="48.43142" lon="2.08511">
        <ele>96</ele>
        <time>2011-04-30T09:59:20Z</time>
      </trkpt>
      <trkpt lat="48.43143" lon="2.08516">
        <ele>95</ele>
        <time>2011-04-30T09:59:21Z</time>
      </trkpt>
      <trkpt lat="48.43144" lon="2.08521">
        <ele>95</ele>
        <time>2011-04-30T09:59:22Z</time>
      </trkpt>
      <trkpt lat="48.43145" lon="2.08526">
        <ele>95</ele>
        <time>2011-04-30T09:59:23Z</time>
      </trkpt>
      <trkpt lat="48.43146" lon="2.08532">
        <ele>94</ele>
        <time>2011-04-30T09:59:24Z</time>
      </trkpt>
      <trkpt lat="48.43147" lon="2.08538">
        <ele>94</ele>
        <time>2011-04-30T09:59:25Z</time>
      </trkpt>
      <trkpt lat="48.43148" lon="2.08544">
        <ele>94</ele>
        <time>2011-04-30T09:59:26Z</time>
      </trkpt>
      <trkpt lat="48.43148" lon="2.08549">
        <ele>94</ele>
        <time>2011-04-30T09:59:27Z</time>
      </trkpt>
      <trkpt lat="48.43148" lon="2.08554">
        <ele>94</ele>
        <time>2011-04-30T09:59:28Z</time>
      </trkpt>
      <trkpt lat="48.43149" lon="2.08559">
        <ele>94</ele>
        <time>2011-04-30T09:59:29Z</time>
      </trkpt>
      <trkpt lat="48.43148" lon="2.08565">
        <ele>94</ele>
        <time>2011-04-30T09:59:30Z</time>
      </trkpt>
      <trkpt lat="48.43148" lon="2.08569">
        <ele>94</ele>
        <time>2011-04-30T09:59:31Z</time>
      </trkpt>
      <trkpt lat="48.43148" lon="2.08574">
        <ele>94</ele>
        <time>2011-04-30T09:59:32Z</time>
      </trkpt>
      <trkpt lat="48.43148" lon="2.08579">
        <ele>94</ele>
        <time>2011-04-30T09:59:33Z</time>
      </trkpt>
      <trkpt lat="48.43147" lon="2.08583">
        <ele>94</ele>
        <time>2011-04-30T09:59:34Z</time>
      </trkpt>
      <trkpt lat="48.43147" lon="2.08588">
        <ele>93</ele>
        <time>2011-04-30T09:59:35Z</time>
      </trkpt>
      <trkpt lat="48.43146" lon="2.08592">
        <ele>92</ele>
        <time>2011-04-30T09:59:36Z</time>
      </trkpt>
      <trkpt lat="48.43145" lon="2.08596">
        <ele>92</ele>
        <time>2011-04-30T09:59:37Z</time>
      </trkpt>
      <trkpt lat="48.43145" lon="2.086">
        <ele>92</ele>
        <time>2011-04-30T09:59:38Z</time>
      </trkpt>
      <trkpt lat="48.43145" lon="2.08605">
        <ele>92</ele>
        <time>2011-04-30T09:59:39Z</time>
      </trkpt>
      <trkpt lat="48.43144" lon="2.08609">
        <ele>91</ele>
        <time>2011-04-30T09:59:40Z</time>
      </trkpt>
      <trkpt lat="48.43144" lon="2.08614">
        <ele>91</ele>
        <time>2011-04-30T09:59:41Z</time>
      </trkpt>
      <trkpt lat="48.43143" lon="2.08618">
        <ele>91</ele>
        <time>2011-04-30T09:59:42Z</time>
      </trkpt>
      <trkpt lat="48.43143" lon="2.08623">
        <ele>91</ele>
        <time>2011-04-30T09:59:43Z</time>
      </trkpt>
      <trkpt lat="48.43142" lon="2.08627">
        <ele>91</ele>
        <time>2011-04-30T09:59:44Z</time>
      </trkpt>
      <trkpt lat="48.43142" lon="2.08632">
        <ele>91</ele>
        <time>2011-04-30T09:59:45Z</time>
      </trkpt>
      <trkpt lat="48.43141" lon="2.08636">
        <ele>91</ele>
        <time>2011-04-30T09:59:46Z</time>
      </trkpt>
      <trkpt lat="48.43141" lon="2.08641">
        <ele>91</ele>
        <time>2011-04-30T09:59:47Z</time>
      </trkpt>
      <trkpt lat="48.43141" lon="2.08646">
        <ele>91</ele>
        <time>2011-04-30T09:59:48Z</time>
      </trkpt>
      <trkpt lat="48.4314" lon="2.0865">
        <ele>91</ele>
        <time>2011-04-30T09:59:49Z</time>
      </trkpt>
      <trkpt lat="48.4314" lon="2.08655">
        <ele>91</ele>
        <time>2011-04-30T09:59:50Z</time>
      </trkpt>
      <trkpt lat="48.43139" lon="2.08659">
        <ele>91</ele>
        <time>2011-04-30T09:59:51Z</time>
      </trkpt>
      <trkpt lat="48.43139" lon="2.08664">
        <ele>91</ele>
        <time>2011-04-30T09:59:52Z</time>
      </trkpt>
      <trkpt lat="48.43139" lon="2.08668">
        <ele>92</ele>
        <time>2011-04-30T09:59:53Z</time>
      </trkpt>
      <trkpt lat="48.43138" lon="2.08673">
        <ele>92</ele>
        <time>2011-04-30T09:59:54Z</time>
      </trkpt>
      <trkpt lat="48.43138" lon="2.08677">
        <ele>92</ele>
        <time>2011-04-30T09:59:55Z</time>
      </trkpt>
      <trkpt lat="48.43138" lon="2.08682">
        <ele>91</ele>
        <time>2011-04-30T09:59:56Z</time>
      </trkpt>
      <trkpt lat="48.43138" lon="2.08686">
        <ele>91</ele>
        <time>2011-04-30T09:59:57Z</time>
      </trkpt>
      <trkpt lat="48.43137" lon="2.0869">
        <ele>91</ele>
        <time>2011-04-30T09:59:58Z</time>
      </trkpt>
      <trkpt lat="48.43136" lon="2.08693">
        <ele>91</ele>
        <time>2011-04-30T09:59:59Z</time>
      </trkpt>
      <trkpt lat="48.43135" lon="2.08697">
        <ele>91</ele>
        <time>2011-04-30T10:00:00Z</time>
      </trkpt>
      <trkpt lat="48.43133" lon="2.087">
        <ele>91</ele>
        <time>2011-04-30T10:00:01Z</time>
      </trkpt>
      <trkpt lat="48.43132" lon="2.08703">
        <ele>91</ele>
        <time>2011-04-30T10:00:02Z</time>
      </trkpt>
      <trkpt lat="48.43131" lon="2.08706">
        <ele>91</ele>
        <time>2011-04-30T10:00:03Z</time>
      </trkpt>
      <trkpt lat="48.4313" lon="2.08709">
        <ele>90</ele>
        <time>2011-04-30T10:00:04Z</time>
      </trkpt>
      <trkpt lat="48.43128" lon="2.08711">
        <ele>90</ele>
        <time>2011-04-30T10:00:05Z</time>
      </trkpt>
      <trkpt lat="48.43127" lon="2.08714">
        <ele>90</ele>
        <time>2011-04-30T10:00:06Z</time>
      </trkpt>
      <trkpt lat="48.43125" lon="2.08715">
        <ele>90</ele>
        <time>2011-04-30T10:00:07Z</time>
      </trkpt>
      <trkpt lat="48.43123" lon="2.08717">
        <ele>90</ele>
        <time>2011-04-30T10:00:08Z</time>
      </trkpt>
      <trkpt lat="48.43122" lon="2.08717">
        <ele>90</ele>
        <time>2011-04-30T10:00:09Z</time>
      </trkpt>
      <trkpt lat="48.4312" lon="2.08718">
        <ele>90</ele>
        <time>2011-04-30T10:00:10Z</time>
      </trkpt>
      <trkpt lat="48.43118" lon="2.08718">
        <ele>89</ele>
        <time>2011-04-30T10:00:11Z</time>
      </trkpt>
      <trkpt lat="48.43117" lon="2.08718">
        <ele>89</ele>
        <time>2011-04-30T10:00:12Z</time>
      </trkpt>
      <trkpt lat="48.43115" lon="2.08718">
        <ele>89</ele>
        <time>2011-04-30T10:00:13Z</time>
      </trkpt>
      <trkpt lat="48.43113" lon="2.08718">
        <ele>89</ele>
        <time>2011-04-30T10:00:14Z</time>
      </trkpt>
      <trkpt lat="48.43111" lon="2.08718">
        <ele>89</ele>
        <time>2011-04-30T10:00:15Z</time>
      </trkpt>
      <trkpt lat="48.4311" lon="2.08718">
        <ele>89</ele>
        <time>2011-04-30T10:00:16Z</time>
      </trkpt>
      <trkpt lat="48.43108" lon="2.08719">
        <ele>88</ele>
        <time>2011-04-30T10:00:17Z</time>
      </trkpt>
      <trkpt lat="48.43106" lon="2.0872">
        <ele>88</ele>
        <time>2011-04-30T10:00:18Z</time>
      </trkpt>
      <trkpt lat="48.43103" lon="2.08722">
        <ele>88</ele>
        <time>2011-04-30T10:00:19Z</time>
      </trkpt>
      <trkpt lat="48.43101" lon="2.08725">
        <ele>87</ele>
        <time>2011-04-30T10:00:20Z</time>
      </trkpt>
      <trkpt lat="48.43098" lon="2.08729">
        <ele>87</ele>
        <time>2011-04-30T10:00:21Z</time>
      </trkpt>
      <trkpt lat="48.43096" lon="2.08733">
        <ele>87</ele>
        <time>2011-04-30T10:00:22Z</time>
      </trkpt>
      <trkpt lat="48.43095" lon="2.08738">
        <ele>86</ele>
        <time>2011-04-30T10:00:23Z</time>
      </trkpt>
      <trkpt lat="48.43093" lon="2.08742">
        <ele>85</ele>
        <time>2011-04-30T10:00:24Z</time>
      </trkpt>
      <trkpt lat="48.43092" lon="2.08747">
        <ele>85</ele>
        <time>2011-04-30T10:00:25Z</time>
      </trkpt>
      <trkpt lat="48.43091" lon="2.08751">
        <ele>84</ele>
        <time>2011-04-30T10:00:26Z</time>
      </trkpt>
      <trkpt lat="48.4309" lon="2.08755">
        <ele>85</ele>
        <time>2011-04-30T10:00:27Z</time>
      </trkpt>
      <trkpt lat="48.43089" lon="2.0876">
        <ele>85</ele>
        <time>2011-04-30T10:00:28Z</time>
      </trkpt>
      <trkpt lat="48.43088" lon="2.08764">
        <ele>86</ele>
        <time>2011-04-30T10:00:29Z</time>
      </trkpt>
      <trkpt lat="48.43086" lon="2.08767">
        <ele>86</ele>
        <time>2011-04-30T10:00:30Z</time>
      </trkpt>
      <trkpt lat="48.43085" lon="2.08771">
        <ele>87</ele>
        <time>2011-04-30T10:00:31Z</time>
      </trkpt>
      <trkpt lat="48.43083" lon="2.08775">
        <ele>87</ele>
        <time>2011-04-30T10:00:32Z</time>
      </trkpt>
      <trkpt lat="48.43082" lon="2.08779">
        <ele>82</ele>
        <time>2011-04-30T10:00:33Z</time>
      </trkpt>
      <trkpt lat="48.43081" lon="2.08782">
        <ele>82</ele>
        <time>2011-04-30T10:00:34Z</time>
      </trkpt>
      <trkpt lat="48.4308" lon="2.08786">
        <ele>82</ele>
        <time>2011-04-30T10:00:35Z</time>
      </trkpt>
      <trkpt lat="48.43079" lon="2.0879">
        <ele>82</ele>
        <time>2011-04-30T10:00:36Z</time>
      </trkpt>
      <trkpt lat="48.43078" lon="2.08794">
        <ele>82</ele>
        <time>2011-04-30T10:00:37Z</time>
      </trkpt>
      <trkpt lat="48.43077" lon="2.08798">
        <ele>82</ele>
        <time>2011-04-30T10:00:38Z</time>
      </trkpt>
      <trkpt lat="48.43076" lon="2.08802">
        <ele>82</ele>
        <time>2011-04-30T10:00:39Z</time>
      </trkpt>
      <trkpt lat="48.43075" lon="2.08806">
        <ele>82</ele>
        <time>2011-04-30T10:00:40Z</time>
      </trkpt>
      <trkpt lat="48.43074" lon="2.0881">
        <ele>82</ele>
        <time>2011-04-30T10:00:41Z</time>
      </trkpt>
      <trkpt lat="48.43073" lon="2.08814">
        <ele>82</ele>
        <time>2011-04-30T10:00:42Z</time>
      </trkpt>
      <trkpt lat="48.43072" lon="2.08818">
        <ele>82</ele>
        <time>2011-04-30T10:00:43Z</time>
      </trkpt>
      <trkpt lat="48.43071" lon="2.08822">
        <ele>82</ele>
        <time>2011-04-30T10:00:44Z</time>
      </trkpt>
      <trkpt lat="48.4307" lon="2.08826">
        <ele>82</ele>
        <time>2011-04-30T10:00:45Z</time>
      </trkpt>
      <trkpt lat="48.43069" lon="2.0883">
        <ele>82</ele>
        <time>2011-04-30T10:00:46Z</time>
      </trkpt>
      <trkpt lat="48.43068" lon="2.08834">
        <ele>83</ele>
        <time>2011-04-30T10:00:47Z</time>
      </trkpt>
      <trkpt lat="48.43067" lon="2.08838">
        <ele>83</ele>
        <time>2011-04-30T10:00:48Z</time>
      </trkpt>
      <trkpt lat="48.43066" lon="2.08842">
        <ele>83</ele>
        <time>2011-04-30T10:00:49Z</time>
      </trkpt>
      <trkpt lat="48.43065" lon="2.08846">
        <ele>84</ele>
        <time>2011-04-30T10:00:50Z</time>
      </trkpt>
      <trkpt lat="48.43065" lon="2.08851">
        <ele>84</ele>
        <time>2011-04-30T10:00:51Z</time>
      </trkpt>
      <trkpt lat="48.43064" lon="2.08855">
        <ele>84</ele>
        <time>2011-04-30T10:00:52Z</time>
      </trkpt>
      <trkpt lat="48.43063" lon="2.08859">
        <ele>84</ele>
        <time>2011-04-30T10:00:53Z</time>
      </trkpt>
      <trkpt lat="48.43062" lon="2.08864">
        <ele>84</ele>
        <time>2011-04-30T10:00:54Z</time>
      </trkpt>
      <trkpt lat="48.43061" lon="2.08868">
        <ele>84</ele>
        <time>2011-04-30T10:00:55Z</time>
      </trkpt>
      <trkpt lat="48.4306" lon="2.08873">
        <ele>84</ele>
        <time>2011-04-30T10:00:56Z</time>
      </trkpt>
      <trkpt lat="48.43059" lon="2.08877">
        <ele>84</ele>
        <time>2011-04-30T10:00:57Z</time>
      </trkpt>
      <trkpt lat="48.43058" lon="2.08882">
        <ele>85</ele>
        <time>2011-04-30T10:00:58Z</time>
      </trkpt>
      <trkpt lat="48.43056" lon="2.08886">
        <ele>85</ele>
        <time>2011-04-30T10:00:59Z</time>
      </trkpt>
      <trkpt lat="48.43055" lon="2.0889">
        <ele>85</ele>
        <time>2011-04-30T10:01:00Z</time>
      </trkpt>
      <trkpt lat="48.43054" lon="2.08895">
        <ele>85</ele>
        <time>2011-04-30T10:01:01Z</time>
      </trkpt>
      <trkpt lat="48.43053" lon="2.08899">
        <ele>85</ele>
        <time>2011-04-30T10:01:02Z</time>
      </trkpt>
      <trkpt lat="48.43052" lon="2.08903">
        <ele>85</ele>
        <time>2011-04-30T10:01:03Z</time>
      </trkpt>
      <trkpt lat="48.43051" lon="2.08907">
        <ele>85</ele>
        <time>2011-04-30T10:01:04Z</time>
      </trkpt>
      <trkpt lat="48.43049" lon="2.08911">
        <ele>85</ele>
        <time>2011-04-30T10:01:05Z</time>
      </trkpt>
      <trkpt lat="48.43048" lon="2.08915">
        <ele>85</ele>
        <time>2011-04-30T10:01:06Z</time>
      </trkpt>
      <trkpt lat="48.43047" lon="2.08918">
        <ele>88</ele>
        <time>2011-04-30T10:01:07Z</time>
      </trkpt>
      <trkpt lat="48.43046" lon="2.08922">
        <ele>88</ele>
        <time>2011-04-30T10:01:08Z</time>
      </trkpt>
      <trkpt lat="48.43045" lon="2.08926">
        <ele>88</ele>
        <time>2011-04-30T10:01:09Z</time>
      </trkpt>
      <trkpt lat="48.43044" lon="2.0893">
        <ele>88</ele>
        <time>2011-04-30T10:01:10Z</time>
      </trkpt>
      <trkpt lat="48.43043" lon="2.08934">
        <ele>88</ele>
        <time>2011-04-30T10:01:11Z</time>
      </trkpt>
      <trkpt lat="48.43042" lon="2.08938">
        <ele>88</ele>
        <time>2011-04-30T10:01:12Z</time>
      </trkpt>
      <trkpt lat="48.43041" lon="2.08942">
        <ele>88</ele>
        <time>2011-04-30T10:01:13Z</time>
      </trkpt>
      <trkpt lat="48.4304" lon="2.08946">
        <ele>88</ele>
        <time>2011-04-30T10:01:14Z</time>
      </trkpt>
      <trkpt lat="48.43039" lon="2.0895">
        <ele>88</ele>
        <time>2011-04-30T10:01:15Z</time>
      </trkpt>
      <trkpt lat="48.43037" lon="2.08953">
        <ele>88</ele>
        <time>2011-04-30T10:01:16Z</time>
      </trkpt>
      <trkpt lat="48.43036" lon="2.08957">
        <ele>88</ele>
        <time>2011-04-30T10:01:17Z</time>
      </trkpt>
      <trkpt lat="48.43035" lon="2.08961">
        <ele>88</ele>
        <time>2011-04-30T10:01:18Z</time>
      </trkpt>
      <trkpt lat="48.43035" lon="2.08965">
        <ele>88</ele>
        <time>2011-04-30T10:01:19Z</time>
      </trkpt>
      <trkpt lat="48.43033" lon="2.08968">
        <ele>88</ele>
        <time>2011-04-30T10:01:20Z</time>
      </trkpt>
      <trkpt lat="48.43033" lon="2.08972">
        <ele>88</ele>
        <time>2011-04-30T10:01:21Z</time>
      </trkpt>
      <trkpt lat="48.43032" lon="2.08976">
        <ele>88</ele>
        <time>2011-04-30T10:01:22Z</time>
      </trkpt>
      <trkpt lat="48.43031" lon="2.08981">
        <ele>88</ele>
        <time>2011-04-30T10:01:23Z</time>
      </trkpt>
      <trkpt lat="48.43031" lon="2.08985">
        <ele>88</ele>
        <time>2011-04-30T10:01:24Z</time>
      </trkpt>
      <trkpt lat="48.4303" lon="2.08989">
        <ele>88</ele>
        <time>2011-04-30T10:01:25Z</time>
      </trkpt>
      <trkpt lat="48.4303" lon="2.08993">
        <ele>88</ele>
        <time>2011-04-30T10:01:26Z</time>
      </trkpt>
      <trkpt lat="48.43029" lon="2.08997">
        <ele>88</ele>
        <time>2011-04-30T10:01:27Z</time>
      </trkpt>
      <trkpt lat="48.43028" lon="2.09001">
        <ele>89</ele>
        <time>2011-04-30T10:01:28Z</time>
      </trkpt>
      <trkpt lat="48.43027" lon="2.09005">
        <ele>89</ele>
        <time>2011-04-30T10:01:29Z</time>
      </trkpt>
      <trkpt lat="48.43027" lon="2.09009">
        <ele>89</ele>
        <time>2011-04-30T10:01:30Z</time>
      </trkpt>
      <trkpt lat="48.43026" lon="2.09013">
        <ele>89</ele>
        <time>2011-04-30T10:01:31Z</time>
      </trkpt>
      <trkpt lat="48.43025" lon="2.09017">
        <ele>89</ele>
        <time>2011-04-30T10:01:32Z</time>
      </trkpt>
      <trkpt lat="48.43024" lon="2.09021">
        <ele>90</ele>
        <time>2011-04-30T10:01:33Z</time>
      </trkpt>
      <trkpt lat="48.43024" lon="2.09025">
        <ele>90</ele>
        <time>2011-04-30T10:01:34Z</time>
      </trkpt>
      <trkpt lat="48.43023" lon="2.09029">
        <ele>90</ele>
        <time>2011-04-30T10:01:35Z</time>
      </trkpt>
      <trkpt lat="48.43022" lon="2.09033">
        <ele>90</ele>
        <time>2011-04-30T10:01:36Z</time>
      </trkpt>
      <trkpt lat="48.43021" lon="2.09036">
        <ele>90</ele>
        <time>2011-04-30T10:01:37Z</time>
      </trkpt>
      <trkpt lat="48.4302" lon="2.0904">
        <ele>89</ele>
        <time>2011-04-30T10:01:38Z</time>
      </trkpt>
      <trkpt lat="48.43019" lon="2.09044">
        <ele>89</ele>
        <time>2011-04-30T10:01:39Z</time>
      </trkpt>
      <trkpt lat="48.43017" lon="2.09048">
        <ele>89</ele>
        <time>2011-04-30T10:01:40Z</time>
      </trkpt>
      <trkpt lat="48.43016" lon="2.09052">
        <ele>89</ele>
        <time>2011-04-30T10:01:41Z</time>
      </trkpt>
      <trkpt lat="48.43015" lon="2.09056">
        <ele>89</ele>
        <time>2011-04-30T10:01:42Z</time>
      </trkpt>
      <trkpt lat="48.43014" lon="2.09059">
        <ele>89</ele>
        <time>2011-04-30T10:01:43Z</time>
      </trkpt>
      <trkpt lat="48.43013" lon="2.09063">
        <ele>89</ele>
        <time>2011-04-30T10:01:44Z</time>
      </trkpt>
      <trkpt lat="48.43011" lon="2.09067">
        <ele>88</ele>
        <time>2011-04-30T10:01:45Z</time>
      </trkpt>
      <trkpt lat="48.4301" lon="2.09071">
        <ele>88</ele>
        <time>2011-04-30T10:01:46Z</time>
      </trkpt>
      <trkpt lat="48.43008" lon="2.09074">
        <ele>88</ele>
        <time>2011-04-30T10:01:47Z</time>
      </trkpt>
      <trkpt lat="48.43007" lon="2.09078">
        <ele>87</ele>
        <time>2011-04-30T10:01:48Z</time>
      </trkpt>
      <trkpt lat="48.43006" lon="2.09081">
        <ele>87</ele>
        <time>2011-04-30T10:01:49Z</time>
      </trkpt>
      <trkpt lat="48.43005" lon="2.09085">
        <ele>87</ele>
        <time>2011-04-30T10:01:50Z</time>
      </trkpt>
      <trkpt lat="48.43004" lon="2.09088">
        <ele>87</ele>
        <time>2011-04-30T10:01:51Z</time>
      </trkpt>
      <trkpt lat="48.43003" lon="2.09092">
        <ele>88</ele>
        <time>2011-04-30T10:01:52Z</time>
      </trkpt>
      <trkpt lat="48.43002" lon="2.09096">
        <ele>88</ele>
        <time>2011-04-30T10:01:53Z</time>
      </trkpt>
      <trkpt lat="48.43001" lon="2.091">
        <ele>89</ele>
        <time>2011-04-30T10:01:54Z</time>
      </trkpt>
      <trkpt lat="48.42999" lon="2.09105">
        <ele>87</ele>
        <time>2011-04-30T10:01:55Z</time>
      </trkpt>
      <trkpt lat="48.42998" lon="2.09109">
        <ele>87</ele>
        <time>2011-04-30T10:01:56Z</time>
      </trkpt>
      <trkpt lat="48.42996" lon="2.09114">
        <ele>87</ele>
        <time>2011-04-30T10:01:57Z</time>
      </trkpt>
      <trkpt lat="48.42994" lon="2.09118">
        <ele>87</ele>
        <time>2011-04-30T10:01:58Z</time>
      </trkpt>
      <trkpt lat="48.42993" lon="2.09122">
        <ele>87</ele>
        <time>2011-04-30T10:01:59Z</time>
      </trkpt>
      <trkpt lat="48.42991" lon="2.09127">
        <ele>87</ele>
        <time>2011-04-30T10:02:00Z</time>
      </trkpt>
      <trkpt lat="48.4299" lon="2.09132">
        <ele>87</ele>
        <time>2011-04-30T10:02:01Z</time>
      </trkpt>
      <trkpt lat="48.42989" lon="2.09136">
        <ele>87</ele>
        <time>2011-04-30T10:02:02Z</time>
      </trkpt>
      <trkpt lat="48.42988" lon="2.0914">
        <ele>87</ele>
        <time>2011-04-30T10:02:03Z</time>
      </trkpt>
      <trkpt lat="48.42987" lon="2.09145">
        <ele>87</ele>
        <time>2011-04-30T10:02:04Z</time>
      </trkpt>
      <trkpt lat="48.42986" lon="2.09149">
        <ele>87</ele>
        <time>2011-04-30T10:02:05Z</time>
      </trkpt>
      <trkpt lat="48.42985" lon="2.09153">
        <ele>87</ele>
        <time>2011-04-30T10:02:06Z</time>
      </trkpt>
      <trkpt lat="48.42984" lon="2.09157">
        <ele>87</ele>
        <time>2011-04-30T10:02:07Z</time>
      </trkpt>
      <trkpt lat="48.42983" lon="2.09161">
        <ele>87</ele>
        <time>2011-04-30T10:02:08Z</time>
      </trkpt>
      <trkpt lat="48.42982" lon="2.09165">
        <ele>87</ele>
        <time>2011-04-30T10:02:09Z</time>
      </trkpt>
      <trkpt lat="48.42981" lon="2.09169">
        <ele>87</ele>
        <time>2011-04-30T10:02:10Z</time>
      </trkpt>
      <trkpt lat="48.4298" lon="2.09173">
        <ele>87</ele>
        <time>2011-04-30T10:02:11Z</time>
      </trkpt>
      <trkpt lat="48.42979" lon="2.09177">
        <ele>87</ele>
        <time>2011-04-30T10:02:12Z</time>
      </trkpt>
      <trkpt lat="48.42979" lon="2.09181">
        <ele>87</ele>
        <time>2011-04-30T10:02:13Z</time>
      </trkpt>
      <trkpt lat="48.42978" lon="2.09185">
        <ele>87</ele>
        <time>2011-04-30T10:02:14Z</time>
      </trkpt>
      <trkpt lat="48.42977" lon="2.09189">
        <ele>87</ele>
        <time>2011-04-30T10:02:15Z</time>
      </trkpt>
      <trkpt lat="48.42976" lon="2.09192">
        <ele>87</ele>
        <time>2011-04-30T10:02:16Z</time>
      </trkpt>
      <trkpt lat="48.42975" lon="2.09196">
        <ele>88</ele>
        <time>2011-04-30T10:02:17Z</time>
      </trkpt>
      <trkpt lat="48.42975" lon="2.092">
        <ele>88</ele>
        <time>2011-04-30T10:02:18Z</time>
      </trkpt>
      <trkpt lat="48.42973" lon="2.09203">
        <ele>88</ele>
        <time>2011-04-30T10:02:19Z</time>
      </trkpt>
      <trkpt lat="48.42972" lon="2.09207">
        <ele>88</ele>
        <time>2011-04-30T10:02:20Z</time>
      </trkpt>
      <trkpt lat="48.42971" lon="2.09211">
        <ele>88</ele>
        <time>2011-04-30T10:02:21Z</time>
      </trkpt>
      <trkpt lat="48.42969" lon="2.09214">
        <ele>88</ele>
        <time>2011-04-30T10:02:22Z</time>
      </trkpt>
      <trkpt lat="48.42967" lon="2.09218">
        <ele>88</ele>
        <time>2011-04-30T10:02:23Z</time>
      </trkpt>
      <trkpt lat="48.42966" lon="2.09222">
        <ele>88</ele>
        <time>2011-04-30T10:02:24Z</time>
      </trkpt>
      <trkpt lat="48.42964" lon="2.09225">
        <ele>88</ele>
        <time>2011-04-30T10:02:25Z</time>
      </trkpt>
      <trkpt lat="48.42962" lon="2.09229">
        <ele>88</ele>
        <time>2011-04-30T10:02:26Z</time>
      </trkpt>
      <trkpt lat="48.42961" lon="2.09233">
        <ele>88</ele>
        <time>2011-04-30T10:02:27Z</time>
      </trkpt>
      <trkpt lat="48.4296" lon="2.09236">
        <ele>88</ele>
        <time>2011-04-30T10:02:28Z</time>
      </trkpt>
      <trkpt lat="48.42958" lon="2.0924">
        <ele>88</ele>
        <time>2011-04-30T10:02:29Z</time>
      </trkpt>
      <trkpt lat="48.42957" lon="2.09244">
        <ele>88</ele>
        <time>2011-04-30T10:02:30Z</time>
      </trkpt>
      <trkpt lat="48.42955" lon="2.09247">
        <ele>88</ele>
        <time>2011-04-30T10:02:31Z</time>
      </trkpt>
      <trkpt lat="48.42955" lon="2.0925">
        <ele>89</ele>
        <time>2011-04-30T10:02:32Z</time>
      </trkpt>
      <trkpt lat="48.42954" lon="2.09254">
        <ele>89</ele>
        <time>2011-04-30T10:02:33Z</time>
      </trkpt>
      <trkpt lat="48.42954" lon="2.09256">
        <ele>89</ele>
        <time>2011-04-30T10:02:34Z</time>
      </trkpt>
      <trkpt lat="48.42954" lon="2.09258">
        <ele>89</ele>
        <time>2011-04-30T10:02:35Z</time>
      </trkpt>
      <trkpt lat="48.42954" lon="2.0926">
        <ele>89</ele>
        <time>2011-04-30T10:02:36Z</time>
      </trkpt>
      <trkpt lat="48.42954" lon="2.09263">
        <ele>89</ele>
        <time>2011-04-30T10:02:37Z</time>
      </trkpt>
      <trkpt lat="48.42953" lon="2.09266">
        <ele>89</ele>
        <time>2011-04-30T10:02:38Z</time>
      </trkpt>
      <trkpt lat="48.42953" lon="2.09269">
        <ele>89</ele>
        <time>2011-04-30T10:02:39Z</time>
      </trkpt>
      <trkpt lat="48.42952" lon="2.09271">
        <ele>89</ele>
        <time>2011-04-30T10:02:40Z</time>
      </trkpt>
      <trkpt lat="48.42951" lon="2.09273">
        <ele>89</ele>
        <time>2011-04-30T10:02:41Z</time>
      </trkpt>
      <trkpt lat="48.4295" lon="2.09275">
        <ele>89</ele>
        <time>2011-04-30T10:02:42Z</time>
      </trkpt>
      <trkpt lat="48.4295" lon="2.09277">
        <ele>89</ele>
        <time>2011-04-30T10:02:43Z</time>
      </trkpt>
      <trkpt lat="48.42949" lon="2.0928">
        <ele>89</ele>
        <time>2011-04-30T10:02:44Z</time>
      </trkpt>
      <trkpt lat="48.42949" lon="2.09282">
        <ele>89</ele>
        <time>2011-04-30T10:02:45Z</time>
      </trkpt>
      <trkpt lat="48.42949" lon="2.09284">
        <ele>89</ele>
        <time>2011-04-30T10:02:46Z</time>
      </trkpt>
      <trkpt lat="48.42948" lon="2.09287">
        <ele>89</ele>
        <time>2011-04-30T10:02:47Z</time>
      </trkpt>
      <trkpt lat="48.42948" lon="2.09289">
        <ele>89</ele>
        <time>2011-04-30T10:02:48Z</time>
      </trkpt>
      <trkpt lat="48.42947" lon="2.09291">
        <ele>89</ele>
        <time>2011-04-30T10:02:49Z</time>
      </trkpt>
      <trkpt lat="48.42947" lon="2.09293">
        <ele>89</ele>
        <time>2011-04-30T10:02:50Z</time>
      </trkpt>
      <trkpt lat="48.42947" lon="2.09296">
        <ele>88</ele>
        <time>2011-04-30T10:02:51Z</time>
      </trkpt>
      <trkpt lat="48.42946" lon="2.09298">
        <ele>88</ele>
        <time>2011-04-30T10:02:52Z</time>
      </trkpt>
      <trkpt lat="48.42946" lon="2.093">
        <ele>88</ele>
        <time>2011-04-30T10:02:53Z</time>
      </trkpt>
      <trkpt lat="48.42945" lon="2.09302">
        <ele>88</ele>
        <time>2011-04-30T10:02:54Z</time>
      </trkpt>
      <trkpt lat="48.42945" lon="2.09304">
        <ele>88</ele>
        <time>2011-04-30T10:02:55Z</time>
      </trkpt>
      <trkpt lat="48.42944" lon="2.09307">
        <ele>88</ele>
        <time>2011-04-30T10:02:56Z</time>
      </trkpt>
      <trkpt lat="48.42943" lon="2.0931">
        <ele>88</ele>
        <time>2011-04-30T10:02:57Z</time>
      </trkpt>
      <trkpt lat="48.42943" lon="2.09313">
        <ele>88</ele>
        <time>2011-04-30T10:02:58Z</time>
      </trkpt>
      <trkpt lat="48.42942" lon="2.09316">
        <ele>88</ele>
        <time>2011-04-30T10:02:59Z</time>
      </trkpt>
      <trkpt lat="48.42941" lon="2.09319">
        <ele>88</ele>
        <time>2011-04-30T10:03:00Z</time>
      </trkpt>
      <trkpt lat="48.4294" lon="2.09322">
        <ele>88</ele>
        <time>2011-04-30T10:03:01Z</time>
      </trkpt>
      <trkpt lat="48.42939" lon="2.09326">
        <ele>88</ele>
        <time>2011-04-30T10:03:02Z</time>
      </trkpt>
      <trkpt lat="48.42938" lon="2.09329">
        <ele>88</ele>
        <time>2011-04-30T10:03:03Z</time>
      </trkpt>
      <trkpt lat="48.42937" lon="2.09332">
        <ele>88</ele>
        <time>2011-04-30T10:03:04Z</time>
      </trkpt>
      <trkpt lat="48.42936" lon="2.09335">
        <ele>88</ele>
        <time>2011-04-30T10:03:05Z</time>
      </trkpt>
      <trkpt lat="48.42935" lon="2.09338">
        <ele>88</ele>
        <time>2011-04-30T10:03:06Z</time>
      </trkpt>
      <trkpt lat="48.42934" lon="2.09341">
        <ele>88</ele>
        <time>2011-04-30T10:03:07Z</time>
      </trkpt>
      <trkpt lat="48.42933" lon="2.09344">
        <ele>88</ele>
        <time>2011-04-30T10:03:08Z</time>
      </trkpt>
      <trkpt lat="48.42932" lon="2.09347">
        <ele>88</ele>
        <time>2011-04-30T10:03:09Z</time>
      </trkpt>
      <trkpt lat="48.42931" lon="2.0935">
        <ele>88</ele>
        <time>2011-04-30T10:03:10Z</time>
      </trkpt>
      <trkpt lat="48.42931" lon="2.09353">
        <ele>88</ele>
        <time>2011-04-30T10:03:11Z</time>
      </trkpt>
      <trkpt lat="48.4293" lon="2.09356">
        <ele>89</ele>
        <time>2011-04-30T10:03:12Z</time>
      </trkpt>
      <trkpt lat="48.42929" lon="2.09359">
        <ele>89</ele>
        <time>2011-04-30T10:03:13Z</time>
      </trkpt>
      <trkpt lat="48.42928" lon="2.09362">
        <ele>89</ele>
        <time>2011-04-30T10:03:14Z</time>
      </trkpt>
      <trkpt lat="48.42928" lon="2.09366">
        <ele>89</ele>
        <time>2011-04-30T10:03:15Z</time>
      </trkpt>
      <trkpt lat="48.42927" lon="2.09369">
        <ele>89</ele>
        <time>2011-04-30T10:03:16Z</time>
      </trkpt>
      <trkpt lat="48.42926" lon="2.09372">
        <ele>89</ele>
        <time>2011-04-30T10:03:17Z</time>
      </trkpt>
      <trkpt lat="48.42926" lon="2.09375">
        <ele>89</ele>
        <time>2011-04-30T10:03:18Z</time>
      </trkpt>
      <trkpt lat="48.42925" lon="2.09379">
        <ele>89</ele>
        <time>2011-04-30T10:03:19Z</time>
      </trkpt>
      <trkpt lat="48.42925" lon="2.09382">
        <ele>89</ele>
        <time>2011-04-30T10:03:20Z</time>
      </trkpt>
      <trkpt lat="48.42924" lon="2.09385">
        <ele>89</ele>
        <time>2011-04-30T10:03:21Z</time>
      </trkpt>
      <trkpt lat="48.42923" lon="2.09388">
        <ele>89</ele>
        <time>2011-04-30T10:03:22Z</time>
      </trkpt>
      <trkpt lat="48.42923" lon="2.09392">
        <ele>89</ele>
        <time>2011-04-30T10:03:23Z</time>
      </trkpt>
      <trkpt lat="48.42922" lon="2.09395">
        <ele>89</ele>
        <time>2011-04-30T10:03:24Z</time>
      </trkpt>
      <trkpt lat="48.42921" lon="2.09398">
        <ele>89</ele>
        <time>2011-04-30T10:03:25Z</time>
      </trkpt>
      <trkpt lat="48.4292" lon="2.09401">
        <ele>88</ele>
        <time>2011-04-30T10:03:26Z</time>
      </trkpt>
      <trkpt lat="48.4292" lon="2.09404">
        <ele>88</ele>
        <time>2011-04-30T10:03:27Z</time>
      </trkpt>
      <trkpt lat="48.42919" lon="2.09407">
        <ele>88</ele>
        <time>2011-04-30T10:03:28Z</time>
      </trkpt>
      <trkpt lat="48.42919" lon="2.0941">
        <ele>88</ele>
        <time>2011-04-30T10:03:29Z</time>
      </trkpt>
      <trkpt lat="48.42918" lon="2.09413">
        <ele>87</ele>
        <time>2011-04-30T10:03:30Z</time>
      </trkpt>
      <trkpt lat="48.42917" lon="2.09416">
        <ele>87</ele>
        <time>2011-04-30T10:03:31Z</time>
      </trkpt>
      <trkpt lat="48.42917" lon="2.0942">
        <ele>87</ele>
        <time>2011-04-30T10:03:32Z</time>
      </trkpt>
      <trkpt lat="48.42916" lon="2.09423">
        <ele>87</ele>
        <time>2011-04-30T10:03:33Z</time>
      </trkpt>
      <trkpt lat="48.42915" lon="2.09426">
        <ele>87</ele>
        <time>2011-04-30T10:03:34Z</time>
      </trkpt>
      <trkpt lat="48.42915" lon="2.0943">
        <ele>87</ele>
        <time>2011-04-30T10:03:35Z</time>
      </trkpt>
      <trkpt lat="48.42914" lon="2.09433">
        <ele>88</ele>
        <time>2011-04-30T10:03:36Z</time>
      </trkpt>
      <trkpt lat="48.42913" lon="2.09436">
        <ele>88</ele>
        <time>2011-04-30T10:03:37Z</time>
      </trkpt>
      <trkpt lat="48.42912" lon="2.09439">
        <ele>88</ele>
        <time>2011-04-30T10:03:38Z</time>
      </trkpt>
      <trkpt lat="48.42911" lon="2.09442">
        <ele>88</ele>
        <time>2011-04-30T10:03:39Z</time>
      </trkpt>
      <trkpt lat="48.4291" lon="2.09445">
        <ele>88</ele>
        <time>2011-04-30T10:03:40Z</time>
      </trkpt>
      <trkpt lat="48.42909" lon="2.09449">
        <ele>88</ele>
        <time>2011-04-30T10:03:41Z</time>
      </trkpt>
      <trkpt lat="48.42908" lon="2.09452">
        <ele>88</ele>
        <time>2011-04-30T10:03:42Z</time>
      </trkpt>
      <trkpt lat="48.42908" lon="2.09455">
        <ele>88</ele>
        <time>2011-04-30T10:03:43Z</time>
      </trkpt>
      <trkpt lat="48.42907" lon="2.09458">
        <ele>88</ele>
        <time>2011-04-30T10:03:44Z</time>
      </trkpt>
      <trkpt lat="48.42907" lon="2.09461">
        <ele>88</ele>
        <time>2011-04-30T10:03:45Z</time>
      </trkpt>
      <trkpt lat="48.42906" lon="2.09464">
        <ele>88</ele>
        <time>2011-04-30T10:03:46Z</time>
      </trkpt>
      <trkpt lat="48.42905" lon="2.09467">
        <ele>88</ele>
        <time>2011-04-30T10:03:47Z</time>
      </trkpt>
      <trkpt lat="48.42905" lon="2.09471">
        <ele>88</ele>
        <time>2011-04-30T10:03:48Z</time>
      </trkpt>
      <trkpt lat="48.42904" lon="2.09474">
        <ele>88</ele>
        <time>2011-04-30T10:03:49Z</time>
      </trkpt>
      <trkpt lat="48.42904" lon="2.09477">
        <ele>88</ele>
        <time>2011-04-30T10:03:50Z</time>
      </trkpt>
      <trkpt lat="48.42904" lon="2.09481">
        <ele>88</ele>
        <time>2011-04-30T10:03:51Z</time>
      </trkpt>
      <trkpt lat="48.42903" lon="2.09484">
        <ele>88</ele>
        <time>2011-04-30T10:03:52Z</time>
      </trkpt>
      <trkpt lat="48.42903" lon="2.09487">
        <ele>88</ele>
        <time>2011-04-30T10:03:53Z</time>
      </trkpt>
      <trkpt lat="48.42902" lon="2.0949">
        <ele>88</ele>
        <time>2011-04-30T10:03:54Z</time>
      </trkpt>
      <trkpt lat="48.42902" lon="2.09493">
        <ele>88</ele>
        <time>2011-04-30T10:03:55Z</time>
      </trkpt>
      <trkpt lat="48.42901" lon="2.09496">
        <ele>88</ele>
        <time>2011-04-30T10:03:56Z</time>
      </trkpt>
      <trkpt lat="48.42901" lon="2.09499">
        <ele>88</ele>
        <time>2011-04-30T10:03:57Z</time>
      </trkpt>
      <trkpt lat="48.429" lon="2.09502">
        <ele>88</ele>
        <time>2011-04-30T10:03:58Z</time>
      </trkpt>
      <trkpt lat="48.42899" lon="2.09505">
        <ele>89</ele>
        <time>2011-04-30T10:03:59Z</time>
      </trkpt>
      <trkpt lat="48.42899" lon="2.09509">
        <ele>89</ele>
        <time>2011-04-30T10:04:00Z</time>
      </trkpt>
      <trkpt lat="48.42898" lon="2.09512">
        <ele>89</ele>
        <time>2011-04-30T10:04:01Z</time>
      </trkpt>
      <trkpt lat="48.42897" lon="2.09515">
        <ele>89</ele>
        <time>2011-04-30T10:04:02Z</time>
      </trkpt>
      <trkpt lat="48.42897" lon="2.09519">
        <ele>89</ele>
        <time>2011-04-30T10:04:03Z</time>
      </trkpt>
      <trkpt lat="48.42896" lon="2.09522">
        <ele>89</ele>
        <time>2011-04-30T10:04:04Z</time>
      </trkpt>
      <trkpt lat="48.42896" lon="2.09526">
        <ele>89</ele>
        <time>2011-04-30T10:04:05Z</time>
      </trkpt>
      <trkpt lat="48.42895" lon="2.09529">
        <ele>89</ele>
        <time>2011-04-30T10:04:06Z</time>
      </trkpt>
      <trkpt lat="48.42895" lon="2.09533">
        <ele>90</ele>
        <time>2011-04-30T10:04:07Z</time>
      </trkpt>
      <trkpt lat="48.42895" lon="2.09536">
        <ele>90</ele>
        <time>2011-04-30T10:04:08Z</time>
      </trkpt>
      <trkpt lat="48.42894" lon="2.09539">
        <ele>90</ele>
        <time>2011-04-30T10:04:09Z</time>
      </trkpt>
      <trkpt lat="48.42893" lon="2.09542">
        <ele>90</ele>
        <time>2011-04-30T10:04:10Z</time>
      </trkpt>
      <trkpt lat="48.42893" lon="2.09544">
        <ele>90</ele>
        <time>2011-04-30T10:04:11Z</time>
      </trkpt>
      <trkpt lat="48.42892" lon="2.09547">
        <ele>90</ele>
        <time>2011-04-30T10:04:12Z</time>
      </trkpt>
      <trkpt lat="48.42891" lon="2.0955">
        <ele>90</ele>
        <time>2011-04-30T10:04:13Z</time>
      </trkpt>
      <trkpt lat="48.42891" lon="2.09553">
        <ele>90</ele>
        <time>2011-04-30T10:04:14Z</time>
      </trkpt>
      <trkpt lat="48.4289" lon="2.09556">
        <ele>90</ele>
        <time>2011-04-30T10:04:15Z</time>
      </trkpt>
      <trkpt lat="48.42889" lon="2.09559">
        <ele>90</ele>
        <time>2011-04-30T10:04:16Z</time>
      </trkpt>
      <trkpt lat="48.42888" lon="2.09563">
        <ele>90</ele>
        <time>2011-04-30T10:04:17Z</time>
      </trkpt>
      <trkpt lat="48.42888" lon="2.09566">
        <ele>90</ele>
        <time>2011-04-30T10:04:18Z</time>
      </trkpt>
      <trkpt lat="48.42887" lon="2.09569">
        <ele>90</ele>
        <time>2011-04-30T10:04:19Z</time>
      </trkpt>
      <trkpt lat="48.42886" lon="2.09573">
        <ele>90</ele>
        <time>2011-04-30T10:04:20Z</time>
      </trkpt>
      <trkpt lat="48.42885" lon="2.09576">
        <ele>90</ele>
        <time>2011-04-30T10:04:21Z</time>
      </trkpt>
      <trkpt lat="48.42884" lon="2.09579">
        <ele>90</ele>
        <time>2011-04-30T10:04:22Z</time>
      </trkpt>
      <trkpt lat="48.42884" lon="2.09582">
        <ele>91</ele>
        <time>2011-04-30T10:04:23Z</time>
      </trkpt>
      <trkpt lat="48.42883" lon="2.09585">
        <ele>92</ele>
        <time>2011-04-30T10:04:24Z</time>
      </trkpt>
      <trkpt lat="48.42882" lon="2.09588">
        <ele>92</ele>
        <time>2011-04-30T10:04:25Z</time>
      </trkpt>
      <trkpt lat="48.42881" lon="2.09591">
        <ele>92</ele>
        <time>2011-04-30T10:04:26Z</time>
      </trkpt>
      <trkpt lat="48.42881" lon="2.09594">
        <ele>92</ele>
        <time>2011-04-30T10:04:27Z</time>
      </trkpt>
      <trkpt lat="48.4288" lon="2.09597">
        <ele>92</ele>
        <time>2011-04-30T10:04:28Z</time>
      </trkpt>
      <trkpt lat="48.42879" lon="2.096">
        <ele>92</ele>
        <time>2011-04-30T10:04:29Z</time>
      </trkpt>
      <trkpt lat="48.42879" lon="2.09603">
        <ele>92</ele>
        <time>2011-04-30T10:04:30Z</time>
      </trkpt>
      <trkpt lat="48.42879" lon="2.09606">
        <ele>92</ele>
        <time>2011-04-30T10:04:31Z</time>
      </trkpt>
      <trkpt lat="48.42878" lon="2.0961">
        <ele>92</ele>
        <time>2011-04-30T10:04:32Z</time>
      </trkpt>
      <trkpt lat="48.42878" lon="2.09613">
        <ele>92</ele>
        <time>2011-04-30T10:04:33Z</time>
      </trkpt>
      <trkpt lat="48.42877" lon="2.09616">
        <ele>92</ele>
        <time>2011-04-30T10:04:34Z</time>
      </trkpt>
      <trkpt lat="48.42877" lon="2.09619">
        <ele>92</ele>
        <time>2011-04-30T10:04:35Z</time>
      </trkpt>
      <trkpt lat="48.42876" lon="2.09623">
        <ele>92</ele>
        <time>2011-04-30T10:04:36Z</time>
      </trkpt>
      <trkpt lat="48.42876" lon="2.09626">
        <ele>92</ele>
        <time>2011-04-30T10:04:37Z</time>
      </trkpt>
      <trkpt lat="48.42876" lon="2.09629">
        <ele>92</ele>
        <time>2011-04-30T10:04:38Z</time>
      </trkpt>
      <trkpt lat="48.42875" lon="2.09632">
        <ele>92</ele>
        <time>2011-04-30T10:04:39Z</time>
      </trkpt>
      <trkpt lat="48.42875" lon="2.09635">
        <ele>92</ele>
        <time>2011-04-30T10:04:40Z</time>
      </trkpt>
      <trkpt lat="48.42874" lon="2.09638">
        <ele>92</ele>
        <time>2011-04-30T10:04:41Z</time>
      </trkpt>
      <trkpt lat="48.42873" lon="2.09641">
        <ele>92</ele>
        <time>2011-04-30T10:04:42Z</time>
      </trkpt>
      <trkpt lat="48.42873" lon="2.09644">
        <ele>92</ele>
        <time>2011-04-30T10:04:43Z</time>
      </trkpt>
      <trkpt lat="48.42872" lon="2.09647">
        <ele>92</ele>
        <time>2011-04-30T10:04:44Z</time>
      </trkpt>
      <trkpt lat="48.42871" lon="2.09649">
        <ele>92</ele>
        <time>2011-04-30T10:04:45Z</time>
      </trkpt>
      <trkpt lat="48.4287" lon="2.09652">
        <ele>92</ele>
        <time>2011-04-30T10:04:46Z</time>
      </trkpt>
      <trkpt lat="48.42869" lon="2.09655">
        <ele>92</ele>
        <time>2011-04-30T10:04:47Z</time>
      </trkpt>
      <trkpt lat="48.42868" lon="2.09658">
        <ele>92</ele>
        <time>2011-04-30T10:04:48Z</time>
      </trkpt>
      <trkpt lat="48.42867" lon="2.09661">
        <ele>92</ele>
        <time>2011-04-30T10:04:49Z</time>
      </trkpt>
      <trkpt lat="48.42866" lon="2.09665">
        <ele>92</ele>
        <time>2011-04-30T10:04:50Z</time>
      </trkpt>
      <trkpt lat="48.42865" lon="2.09669">
        <ele>93</ele>
        <time>2011-04-30T10:04:51Z</time>
      </trkpt>
      <trkpt lat="48.42865" lon="2.09672">
        <ele>93</ele>
        <time>2011-04-30T10:04:52Z</time>
      </trkpt>
      <trkpt lat="48.42865" lon="2.09677">
        <ele>93</ele>
        <time>2011-04-30T10:04:53Z</time>
      </trkpt>
      <trkpt lat="48.42864" lon="2.09681">
        <ele>93</ele>
        <time>2011-04-30T10:04:54Z</time>
      </trkpt>
      <trkpt lat="48.42864" lon="2.09685">
        <ele>93</ele>
        <time>2011-04-30T10:04:55Z</time>
      </trkpt>
      <trkpt lat="48.42863" lon="2.09689">
        <ele>93</ele>
        <time>2011-04-30T10:04:56Z</time>
      </trkpt>
      <trkpt lat="48.42862" lon="2.09693">
        <ele>93</ele>
        <time>2011-04-30T10:04:57Z</time>
      </trkpt>
      <trkpt lat="48.42861" lon="2.09697">
        <ele>93</ele>
        <time>2011-04-30T10:04:58Z</time>
      </trkpt>
      <trkpt lat="48.4286" lon="2.09701">
        <ele>93</ele>
        <time>2011-04-30T10:04:59Z</time>
      </trkpt>
      <trkpt lat="48.42859" lon="2.09705">
        <ele>93</ele>
        <time>2011-04-30T10:05:00Z</time>
      </trkpt>
      <trkpt lat="48.42858" lon="2.09708">
        <ele>93</ele>
        <time>2011-04-30T10:05:01Z</time>
      </trkpt>
      <trkpt lat="48.42857" lon="2.09711">
        <ele>93</ele>
        <time>2011-04-30T10:05:02Z</time>
      </trkpt>
      <trkpt lat="48.42856" lon="2.09714">
        <ele>93</ele>
        <time>2011-04-30T10:05:03Z</time>
      </trkpt>
      <trkpt lat="48.42856" lon="2.09717">
        <ele>93</ele>
        <time>2011-04-30T10:05:04Z</time>
      </trkpt>
      <trkpt lat="48.42855" lon="2.09719">
        <ele>93</ele>
        <time>2011-04-30T10:05:05Z</time>
      </trkpt>
      <trkpt lat="48.42855" lon="2.09722">
        <ele>93</ele>
        <time>2011-04-30T10:05:06Z</time>
      </trkpt>
      <trkpt lat="48.42854" lon="2.09726">
        <ele>93</ele>
        <time>2011-04-30T10:05:07Z</time>
      </trkpt>
      <trkpt lat="48.42854" lon="2.09729">
        <ele>93</ele>
        <time>2011-04-30T10:05:08Z</time>
      </trkpt>
      <trkpt lat="48.42855" lon="2.09733">
        <ele>92</ele>
        <time>2011-04-30T10:05:09Z</time>
      </trkpt>
      <trkpt lat="48.42854" lon="2.09736">
        <ele>92</ele>
        <time>2011-04-30T10:05:10Z</time>
      </trkpt>
      <trkpt lat="48.42854" lon="2.0974">
        <ele>92</ele>
        <time>2011-04-30T10:05:11Z</time>
      </trkpt>
      <trkpt lat="48.42854" lon="2.09743">
        <ele>92</ele>
        <time>2011-04-30T10:05:12Z</time>
      </trkpt>
      <trkpt lat="48.42854" lon="2.09747">
        <ele>92</ele>
        <time>2011-04-30T10:05:13Z</time>
      </trkpt>
      <trkpt lat="48.42854" lon="2.0975">
        <ele>93</ele>
        <time>2011-04-30T10:05:14Z</time>
      </trkpt>
      <trkpt lat="48.42853" lon="2.09754">
        <ele>93</ele>
        <time>2011-04-30T10:05:15Z</time>
      </trkpt>
      <trkpt lat="48.42853" lon="2.09757">
        <ele>93</ele>
        <time>2011-04-30T10:05:16Z</time>
      </trkpt>
      <trkpt lat="48.42852" lon="2.09761">
        <ele>93</ele>
        <time>2011-04-30T10:05:17Z</time>
      </trkpt>
      <trkpt lat="48.42852" lon="2.09765">
        <ele>93</ele>
        <time>2011-04-30T10:05:18Z</time>
      </trkpt>
      <trkpt lat="48.42851" lon="2.09769">
        <ele>93</ele>
        <time>2011-04-30T10:05:19Z</time>
      </trkpt>
      <trkpt lat="48.42851" lon="2.09772">
        <ele>93</ele>
        <time>2011-04-30T10:05:20Z</time>
      </trkpt>
      <trkpt lat="48.42851" lon="2.09776">
        <ele>93</ele>
        <time>2011-04-30T10:05:21Z</time>
      </trkpt>
      <trkpt lat="48.4285" lon="2.0978">
        <ele>93</ele>
        <time>2011-04-30T10:05:22Z</time>
      </trkpt>
      <trkpt lat="48.42849" lon="2.09784">
        <ele>93</ele>
        <time>2011-04-30T10:05:23Z</time>
      </trkpt>
      <trkpt lat="48.42848" lon="2.09788">
        <ele>93</ele>
        <time>2011-04-30T10:05:24Z</time>
      </trkpt>
      <trkpt lat="48.42847" lon="2.09792">
        <ele>93</ele>
        <time>2011-04-30T10:05:25Z</time>
      </trkpt>
      <trkpt lat="48.42847" lon="2.09795">
        <ele>93</ele>
        <time>2011-04-30T10:05:26Z</time>
      </trkpt>
      <trkpt lat="48.42846" lon="2.09799">
        <ele>93</ele>
        <time>2011-04-30T10:05:27Z</time>
      </trkpt>
      <trkpt lat="48.42846" lon="2.09802">
        <ele>93</ele>
        <time>2011-04-30T10:05:28Z</time>
      </trkpt>
      <trkpt lat="48.42845" lon="2.09805">
        <ele>93</ele>
        <time>2011-04-30T10:05:29Z</time>
      </trkpt>
      <trkpt lat="48.42845" lon="2.09809">
        <ele>93</ele>
        <time>2011-04-30T10:05:30Z</time>
      </trkpt>
      <trkpt lat="48.42845" lon="2.09812">
        <ele>93</ele>
        <time>2011-04-30T10:05:31Z</time>
      </trkpt>
      <trkpt lat="48.42844" lon="2.09816">
        <ele>92</ele>
        <time>2011-04-30T10:05:32Z</time>
      </trkpt>
      <trkpt lat="48.42844" lon="2.09819">
        <ele>92</ele>
        <time>2011-04-30T10:05:33Z</time>
      </trkpt>
      <trkpt lat="48.42844" lon="2.09824">
        <ele>92</ele>
        <time>2011-04-30T10:05:34Z</time>
      </trkpt>
      <trkpt lat="48.42843" lon="2.09828">
        <ele>92</ele>
        <time>2011-04-30T10:05:35Z</time>
      </trkpt>
      <trkpt lat="48.42843" lon="2.09832">
        <ele>92</ele>
        <time>2011-04-30T10:05:36Z</time>
      </trkpt>
      <trkpt lat="48.42843" lon="2.09836">
        <ele>91</ele>
        <time>2011-04-30T10:05:37Z</time>
      </trkpt>
      <trkpt lat="48.42842" lon="2.0984">
        <ele>91</ele>
        <time>2011-04-30T10:05:38Z</time>
      </trkpt>
      <trkpt lat="48.42842" lon="2.09844">
        <ele>92</ele>
        <time>2011-04-30T10:05:39Z</time>
      </trkpt>
      <trkpt lat="48.42842" lon="2.09848">
        <ele>92</ele>
        <time>2011-04-30T10:05:40Z</time>
      </trkpt>
      <trkpt lat="48.42842" lon="2.09852">
        <ele>92</ele>
        <time>2011-04-30T10:05:41Z</time>
      </trkpt>
      <trkpt lat="48.42841" lon="2.09855">
        <ele>92</ele>
        <time>2011-04-30T10:05:42Z</time>
      </trkpt>
      <trkpt lat="48.42841" lon="2.09859">
        <ele>92</ele>
        <time>2011-04-30T10:05:43Z</time>
      </trkpt>
      <trkpt lat="48.4284" lon="2.09864">
        <ele>92</ele>
        <time>2011-04-30T10:05:44Z</time>
      </trkpt>
      <trkpt lat="48.42838" lon="2.09868">
        <ele>92</ele>
        <time>2011-04-30T10:05:45Z</time>
      </trkpt>
      <trkpt lat="48.42837" lon="2.09873">
        <ele>92</ele>
        <time>2011-04-30T10:05:46Z</time>
      </trkpt>
      <trkpt lat="48.42836" lon="2.09878">
        <ele>92</ele>
        <time>2011-04-30T10:05:47Z</time>
      </trkpt>
      <trkpt lat="48.42835" lon="2.09883">
        <ele>91</ele>
        <time>2011-04-30T10:05:48Z</time>
      </trkpt>
      <trkpt lat="48.42834" lon="2.09888">
        <ele>91</ele>
        <time>2011-04-30T10:05:49Z</time>
      </trkpt>
      <trkpt lat="48.42834" lon="2.09893">
        <ele>91</ele>
        <time>2011-04-30T10:05:50Z</time>
      </trkpt>
      <trkpt lat="48.42833" lon="2.09898">
        <ele>90</ele>
        <time>2011-04-30T10:05:51Z</time>
      </trkpt>
      <trkpt lat="48.42834" lon="2.09903">
        <ele>90</ele>
        <time>2011-04-30T10:05:52Z</time>
      </trkpt>
      <trkpt lat="48.42834" lon="2.09908">
        <ele>89</ele>
        <time>2011-04-30T10:05:53Z</time>
      </trkpt>
      <trkpt lat="48.42834" lon="2.09914">
        <ele>88</ele>
        <time>2011-04-30T10:05:54Z</time>
      </trkpt>
      <trkpt lat="48.42835" lon="2.0992">
        <ele>88</ele>
        <time>2011-04-30T10:05:55Z</time>
      </trkpt>
      <trkpt lat="48.42835" lon="2.09925">
        <ele>88</ele>
        <time>2011-04-30T10:05:56Z</time>
      </trkpt>
      <trkpt lat="48.42835" lon="2.09931">
        <ele>89</ele>
        <time>2011-04-30T10:05:57Z</time>
      </trkpt>
      <trkpt lat="48.42835" lon="2.09936">
        <ele>89</ele>
        <time>2011-04-30T10:05:58Z</time>
      </trkpt>
      <trkpt lat="48.42835" lon="2.09941">
        <ele>89</ele>
        <time>2011-04-30T10:05:59Z</time>
      </trkpt>
      <trkpt lat="48.42836" lon="2.09945">
        <ele>90</ele>
        <time>2011-04-30T10:06:00Z</time>
      </trkpt>
      <trkpt lat="48.42836" lon="2.0995">
        <ele>90</ele>
        <time>2011-04-30T10:06:01Z</time>
      </trkpt>
      <trkpt lat="48.42836" lon="2.09953">
        <ele>90</ele>
        <time>2011-04-30T10:06:02Z</time>
      </trkpt>
      <trkpt lat="48.42835" lon="2.09957">
        <ele>90</ele>
        <time>2011-04-30T10:06:03Z</time>
      </trkpt>
      <trkpt lat="48.42835" lon="2.09961">
        <ele>90</ele>
        <time>2011-04-30T10:06:04Z</time>
      </trkpt>
      <trkpt lat="48.42835" lon="2.09965">
        <ele>89</ele>
        <time>2011-04-30T10:06:05Z</time>
      </trkpt>
      <trkpt lat="48.42834" lon="2.09969">
        <ele>89</ele>
        <time>2011-04-30T10:06:06Z</time>
      </trkpt>
      <trkpt lat="48.42834" lon="2.09973">
        <ele>89</ele>
        <time>2011-04-30T10:06:07Z</time>
      </trkpt>
      <trkpt lat="48.42834" lon="2.09976">
        <ele>89</ele>
        <time>2011-04-30T10:06:08Z</time>
      </trkpt>
      <trkpt lat="48.42834" lon="2.0998">
        <ele>89</ele>
        <time>2011-04-30T10:06:09Z</time>
      </trkpt>
      <trkpt lat="48.42835" lon="2.09984">
        <ele>88</ele>
        <time>2011-04-30T10:06:10Z</time>
      </trkpt>
      <trkpt lat="48.42835" lon="2.09988">
        <ele>88</ele>
        <time>2011-04-30T10:06:11Z</time>
      </trkpt>
      <trkpt lat="48.42835" lon="2.09992">
        <ele>87</ele>
        <time>2011-04-30T10:06:12Z</time>
      </trkpt>
      <trkpt lat="48.42835" lon="2.09996">
        <ele>87</ele>
        <time>2011-04-30T10:06:13Z</time>
      </trkpt>
      <trkpt lat="48.42835" lon="2.1">
        <ele>86</ele>
        <time>2011-04-30T10:06:14Z</time>
      </trkpt>
      <trkpt lat="48.42835" lon="2.10004">
        <ele>87</ele>
        <time>2011-04-30T10:06:15Z</time>
      </trkpt>
      <trkpt lat="48.42835" lon="2.10008">
        <ele>87</ele>
        <time>2011-04-30T10:06:16Z</time>
      </trkpt>
      <trkpt lat="48.42835" lon="2.10011">
        <ele>87</ele>
        <time>2011-04-30T10:06:17Z</time>
      </trkpt>
      <trkpt lat="48.42835" lon="2.10015">
        <ele>88</ele>
        <time>2011-04-30T10:06:18Z</time>
      </trkpt>
      <trkpt lat="48.42835" lon="2.10018">
        <ele>88</ele>
        <time>2011-04-30T10:06:19Z</time>
      </trkpt>
      <trkpt lat="48.42835" lon="2.10022">
        <ele>88</ele>
        <time>2011-04-30T10:06:20Z</time>
      </trkpt>
      <trkpt lat="48.42835" lon="2.10025">
        <ele>88</ele>
        <time>2011-04-30T10:06:21Z</time>
      </trkpt>
      <trkpt lat="48.42835" lon="2.10028">
        <ele>88</ele>
        <time>2011-04-30T10:06:22Z</time>
      </trkpt>
      <trkpt lat="48.42835" lon="2.10031">
        <ele>88</ele>
        <time>2011-04-30T10:06:23Z</time>
      </trkpt>
      <trkpt lat="48.42835" lon="2.10034">
        <ele>88</ele>
        <time>2011-04-30T10:06:24Z</time>
      </trkpt>
      <trkpt lat="48.42835" lon="2.10036">
        <ele>88</ele>
        <time>2011-04-30T10:06:25Z</time>
      </trkpt>
      <trkpt lat="48.42835" lon="2.10039">
        <ele>88</ele>
        <time>2011-04-30T10:06:26Z</time>
      </trkpt>
      <trkpt lat="48.42835" lon="2.10041">
        <ele>88</ele>
        <time>2011-04-30T10:06:27Z</time>
      </trkpt>
      <trkpt lat="48.42835" lon="2.10044">
        <ele>88</ele>
        <time>2011-04-30T10:06:28Z</time>
      </trkpt>
      <trkpt lat="48.42835" lon="2.10047">
        <ele>88</ele>
        <time>2011-04-30T10:06:29Z</time>
      </trkpt>
      <trkpt lat="48.42836" lon="2.1005">
        <ele>88</ele>
        <time>2011-04-30T10:06:30Z</time>
      </trkpt>
      <trkpt lat="48.42836" lon="2.10053">
        <ele>88</ele>
        <time>2011-04-30T10:06:31Z</time>
      </trkpt>
      <trkpt lat="48.42836" lon="2.10056">
        <ele>88</ele>
        <time>2011-04-30T10:06:32Z</time>
      </trkpt>
      <trkpt lat="48.42836" lon="2.10059">
        <ele>88</ele>
        <time>2011-04-30T10:06:33Z</time>
      </trkpt>
      <trkpt lat="48.42836" lon="2.10063">
        <ele>87</ele>
        <time>2011-04-30T10:06:34Z</time>
      </trkpt>
      <trkpt lat="48.42836" lon="2.10066">
        <ele>87</ele>
        <time>2011-04-30T10:06:35Z</time>
      </trkpt>
      <trkpt lat="48.42836" lon="2.10069">
        <ele>87</ele>
        <time>2011-04-30T10:06:36Z</time>
      </trkpt>
      <trkpt lat="48.42836" lon="2.10073">
        <ele>87</ele>
        <time>2011-04-30T10:06:37Z</time>
      </trkpt>
      <trkpt lat="48.42836" lon="2.10076">
        <ele>86</ele>
        <time>2011-04-30T10:06:38Z</time>
      </trkpt>
      <trkpt lat="48.42836" lon="2.10079">
        <ele>86</ele>
        <time>2011-04-30T10:06:39Z</time>
      </trkpt>
      <trkpt lat="48.42836" lon="2.10083">
        <ele>85</ele>
        <time>2011-04-30T10:06:40Z</time>
      </trkpt>
      <trkpt lat="48.42836" lon="2.10087">
        <ele>86</ele>
        <time>2011-04-30T10:06:41Z</time>
      </trkpt>
      <trkpt lat="48.42836" lon="2.10091">
        <ele>86</ele>
        <time>2011-04-30T10:06:42Z</time>
      </trkpt>
      <trkpt lat="48.42836" lon="2.10096">
        <ele>87</ele>
        <time>2011-04-30T10:06:43Z</time>
      </trkpt>
      <trkpt lat="48.42836" lon="2.101">
        <ele>87</ele>
        <time>2011-04-30T10:06:44Z</time>
      </trkpt>
      <trkpt lat="48.42837" lon="2.10104">
        <ele>88</ele>
        <time>2011-04-30T10:06:45Z</time>
      </trkpt>
      <trkpt lat="48.42837" lon="2.10108">
        <ele>88</ele>
        <time>2011-04-30T10:06:46Z</time>
      </trkpt>
      <trkpt lat="48.42838" lon="2.10112">
        <ele>88</ele>
        <time>2011-04-30T10:06:47Z</time>
      </trkpt>
      <trkpt lat="48.42838" lon="2.10116">
        <ele>88</ele>
        <time>2011-04-30T10:06:48Z</time>
      </trkpt>
      <trkpt lat="48.42839" lon="2.10119">
        <ele>89</ele>
        <time>2011-04-30T10:06:49Z</time>
      </trkpt>
      <trkpt lat="48.42839" lon="2.10122">
        <ele>89</ele>
        <time>2011-04-30T10:06:50Z</time>
      </trkpt>
      <trkpt lat="48.42839" lon="2.10125">
        <ele>89</ele>
        <time>2011-04-30T10:06:51Z</time>
      </trkpt>
      <trkpt lat="48.42839" lon="2.10128">
        <ele>89</ele>
        <time>2011-04-30T10:06:52Z</time>
      </trkpt>
      <trkpt lat="48.42839" lon="2.10132">
        <ele>89</ele>
        <time>2011-04-30T10:06:53Z</time>
      </trkpt>
      <trkpt lat="48.42839" lon="2.10135">
        <ele>89</ele>
        <time>2011-04-30T10:06:54Z</time>
      </trkpt>
      <trkpt lat="48.42839" lon="2.10139">
        <ele>89</ele>
        <time>2011-04-30T10:06:55Z</time>
      </trkpt>
      <trkpt lat="48.42839" lon="2.10142">
        <ele>89</ele>
        <time>2011-04-30T10:06:56Z</time>
      </trkpt>
      <trkpt lat="48.4284" lon="2.10145">
        <ele>89</ele>
        <time>2011-04-30T10:06:57Z</time>
      </trkpt>
      <trkpt lat="48.4284" lon="2.10149">
        <ele>89</ele>
        <time>2011-04-30T10:06:58Z</time>
      </trkpt>
      <trkpt lat="48.4284" lon="2.10154">
        <ele>89</ele>
        <time>2011-04-30T10:06:59Z</time>
      </trkpt>
      <trkpt lat="48.42841" lon="2.10158">
        <ele>89</ele>
        <time>2011-04-30T10:07:00Z</time>
      </trkpt>
      <trkpt lat="48.42841" lon="2.10162">
        <ele>89</ele>
        <time>2011-04-30T10:07:01Z</time>
      </trkpt>
      <trkpt lat="48.42842" lon="2.10167">
        <ele>89</ele>
        <time>2011-04-30T10:07:02Z</time>
      </trkpt>
      <trkpt lat="48.42842" lon="2.10171">
        <ele>89</ele>
        <time>2011-04-30T10:07:03Z</time>
      </trkpt>
      <trkpt lat="48.42843" lon="2.10175">
        <ele>89</ele>
        <time>2011-04-30T10:07:04Z</time>
      </trkpt>
      <trkpt lat="48.42843" lon="2.1018">
        <ele>89</ele>
        <time>2011-04-30T10:07:05Z</time>
      </trkpt>
      <trkpt lat="48.42843" lon="2.10184">
        <ele>89</ele>
        <time>2011-04-30T10:07:06Z</time>
      </trkpt>
      <trkpt lat="48.42843" lon="2.10189">
        <ele>90</ele>
        <time>2011-04-30T10:07:07Z</time>
      </trkpt>
      <trkpt lat="48.42843" lon="2.10193">
        <ele>90</ele>
        <time>2011-04-30T10:07:08Z</time>
      </trkpt>
      <trkpt lat="48.42844" lon="2.10198">
        <ele>90</ele>
        <time>2011-04-30T10:07:09Z</time>
      </trkpt>
      <trkpt lat="48.42844" lon="2.10202">
        <ele>90</ele>
        <time>2011-04-30T10:07:10Z</time>
      </trkpt>
      <trkpt lat="48.42844" lon="2.10206">
        <ele>90</ele>
        <time>2011-04-30T10:07:11Z</time>
      </trkpt>
      <trkpt lat="48.42844" lon="2.1021">
        <ele>90</ele>
        <time>2011-04-30T10:07:12Z</time>
      </trkpt>
      <trkpt lat="48.42844" lon="2.10215">
        <ele>90</ele>
        <time>2011-04-30T10:07:13Z</time>
      </trkpt>
      <trkpt lat="48.42845" lon="2.10219">
        <ele>90</ele>
        <time>2011-04-30T10:07:14Z</time>
      </trkpt>
      <trkpt lat="48.42845" lon="2.10223">
        <ele>90</ele>
        <time>2011-04-30T10:07:15Z</time>
      </trkpt>
      <trkpt lat="48.42845" lon="2.10227">
        <ele>90</ele>
        <time>2011-04-30T10:07:16Z</time>
      </trkpt>
      <trkpt lat="48.42846" lon="2.10231">
        <ele>90</ele>
        <time>2011-04-30T10:07:17Z</time>
      </trkpt>
      <trkpt lat="48.42846" lon="2.10235">
        <ele>90</ele>
        <time>2011-04-30T10:07:18Z</time>
      </trkpt>
      <trkpt lat="48.42846" lon="2.10238">
        <ele>90</ele>
        <time>2011-04-30T10:07:19Z</time>
      </trkpt>
      <trkpt lat="48.42846" lon="2.10242">
        <ele>90</ele>
        <time>2011-04-30T10:07:20Z</time>
      </trkpt>
      <trkpt lat="48.42847" lon="2.10246">
        <ele>90</ele>
        <time>2011-04-30T10:07:21Z</time>
      </trkpt>
      <trkpt lat="48.42847" lon="2.1025">
        <ele>90</ele>
        <time>2011-04-30T10:07:22Z</time>
      </trkpt>
      <trkpt lat="48.42847" lon="2.10254">
        <ele>89</ele>
        <time>2011-04-30T10:07:23Z</time>
      </trkpt>
      <trkpt lat="48.42847" lon="2.10258">
        <ele>89</ele>
        <time>2011-04-30T10:07:24Z</time>
      </trkpt>
      <trkpt lat="48.42847" lon="2.10262">
        <ele>89</ele>
        <time>2011-04-30T10:07:25Z</time>
      </trkpt>
      <trkpt lat="48.42847" lon="2.10266">
        <ele>89</ele>
        <time>2011-04-30T10:07:26Z</time>
      </trkpt>
      <trkpt lat="48.42847" lon="2.1027">
        <ele>89</ele>
        <time>2011-04-30T10:07:27Z</time>
      </trkpt>
      <trkpt lat="48.42848" lon="2.10274">
        <ele>89</ele>
        <time>2011-04-30T10:07:28Z</time>
      </trkpt>
      <trkpt lat="48.42848" lon="2.10278">
        <ele>89</ele>
        <time>2011-04-30T10:07:29Z</time>
      </trkpt>
      <trkpt lat="48.42848" lon="2.10282">
        <ele>89</ele>
        <time>2011-04-30T10:07:30Z</time>
      </trkpt>
      <trkpt lat="48.42848" lon="2.10286">
        <ele>89</ele>
        <time>2011-04-30T10:07:31Z</time>
      </trkpt>
      <trkpt lat="48.42848" lon="2.1029">
        <ele>89</ele>
        <time>2011-04-30T10:07:32Z</time>
      </trkpt>
      <trkpt lat="48.42849" lon="2.10294">
        <ele>89</ele>
        <time>2011-04-30T10:07:33Z</time>
      </trkpt>
      <trkpt lat="48.42849" lon="2.10298">
        <ele>89</ele>
        <time>2011-04-30T10:07:34Z</time>
      </trkpt>
      <trkpt lat="48.42849" lon="2.10302">
        <ele>89</ele>
        <time>2011-04-30T10:07:35Z</time>
      </trkpt>
      <trkpt lat="48.42849" lon="2.10305">
        <ele>89</ele>
        <time>2011-04-30T10:07:36Z</time>
      </trkpt>
      <trkpt lat="48.42849" lon="2.10309">
        <ele>89</ele>
        <time>2011-04-30T10:07:37Z</time>
      </trkpt>
      <trkpt lat="48.42849" lon="2.10313">
        <ele>89</ele>
        <time>2011-04-30T10:07:38Z</time>
      </trkpt>
      <trkpt lat="48.42849" lon="2.10316">
        <ele>89</ele>
        <time>2011-04-30T10:07:39Z</time>
      </trkpt>
      <trkpt lat="48.42849" lon="2.1032">
        <ele>89</ele>
        <time>2011-04-30T10:07:40Z</time>
      </trkpt>
      <trkpt lat="48.42849" lon="2.10323">
        <ele>88</ele>
        <time>2011-04-30T10:07:41Z</time>
      </trkpt>
      <trkpt lat="48.42849" lon="2.10327">
        <ele>88</ele>
        <time>2011-04-30T10:07:42Z</time>
      </trkpt>
      <trkpt lat="48.42849" lon="2.10331">
        <ele>88</ele>
        <time>2011-04-30T10:07:43Z</time>
      </trkpt>
      <trkpt lat="48.42849" lon="2.10334">
        <ele>88</ele>
        <time>2011-04-30T10:07:44Z</time>
      </trkpt>
      <trkpt lat="48.42849" lon="2.10338">
        <ele>88</ele>
        <time>2011-04-30T10:07:45Z</time>
      </trkpt>
      <trkpt lat="48.42849" lon="2.10342">
        <ele>88</ele>
        <time>2011-04-30T10:07:46Z</time>
      </trkpt>
      <trkpt lat="48.42849" lon="2.10345">
        <ele>88</ele>
        <time>2011-04-30T10:07:47Z</time>
      </trkpt>
      <trkpt lat="48.42849" lon="2.10349">
        <ele>88</ele>
        <time>2011-04-30T10:07:48Z</time>
      </trkpt>
      <trkpt lat="48.4285" lon="2.10352">
        <ele>88</ele>
        <time>2011-04-30T10:07:49Z</time>
      </trkpt>
      <trkpt lat="48.4285" lon="2.10356">
        <ele>88</ele>
        <time>2011-04-30T10:07:50Z</time>
      </trkpt>
      <trkpt lat="48.4285" lon="2.10359">
        <ele>88</ele>
        <time>2011-04-30T10:07:51Z</time>
      </trkpt>
      <trkpt lat="48.42851" lon="2.10362">
        <ele>88</ele>
        <time>2011-04-30T10:07:52Z</time>
      </trkpt>
      <trkpt lat="48.42851" lon="2.10366">
        <ele>88</ele>
        <time>2011-04-30T10:07:53Z</time>
      </trkpt>
      <trkpt lat="48.42851" lon="2.1037">
        <ele>88</ele>
        <time>2011-04-30T10:07:54Z</time>
      </trkpt>
      <trkpt lat="48.42851" lon="2.10374">
        <ele>88</ele>
        <time>2011-04-30T10:07:55Z</time>
      </trkpt>
      <trkpt lat="48.42852" lon="2.10378">
        <ele>88</ele>
        <time>2011-04-30T10:07:56Z</time>
      </trkpt>
      <trkpt lat="48.42852" lon="2.10382">
        <ele>89</ele>
        <time>2011-04-30T10:07:57Z</time>
      </trkpt>
      <trkpt lat="48.42852" lon="2.10386">
        <ele>89</ele>
        <time>2011-04-30T10:07:58Z</time>
      </trkpt>
      <trkpt lat="48.42853" lon="2.1039">
        <ele>89</ele>
        <time>2011-04-30T10:07:59Z</time>
      </trkpt>
      <trkpt lat="48.42853" lon="2.10394">
        <ele>89</ele>
        <time>2011-04-30T10:08:00Z</time>
      </trkpt>
      <trkpt lat="48.42853" lon="2.10398">
        <ele>89</ele>
        <time>2011-04-30T10:08:01Z</time>
      </trkpt>
      <trkpt lat="48.42854" lon="2.10402">
        <ele>89</ele>
        <time>2011-04-30T10:08:02Z</time>
      </trkpt>
      <trkpt lat="48.42854" lon="2.10407">
        <ele>89</ele>
        <time>2011-04-30T10:08:03Z</time>
      </trkpt>
      <trkpt lat="48.42854" lon="2.10411">
        <ele>89</ele>
        <time>2011-04-30T10:08:04Z</time>
      </trkpt>
      <trkpt lat="48.42855" lon="2.10415">
        <ele>89</ele>
        <time>2011-04-30T10:08:05Z</time>
      </trkpt>
      <trkpt lat="48.42855" lon="2.10419">
        <ele>89</ele>
        <time>2011-04-30T10:08:06Z</time>
      </trkpt>
      <trkpt lat="48.42855" lon="2.10422">
        <ele>89</ele>
        <time>2011-04-30T10:08:07Z</time>
      </trkpt>
      <trkpt lat="48.42855" lon="2.10426">
        <ele>89</ele>
        <time>2011-04-30T10:08:08Z</time>
      </trkpt>
      <trkpt lat="48.42855" lon="2.10429">
        <ele>89</ele>
        <time>2011-04-30T10:08:09Z</time>
      </trkpt>
      <trkpt lat="48.42856" lon="2.10433">
        <ele>89</ele>
        <time>2011-04-30T10:08:10Z</time>
      </trkpt>
      <trkpt lat="48.42856" lon="2.10436">
        <ele>89</ele>
        <time>2011-04-30T10:08:11Z</time>
      </trkpt>
      <trkpt lat="48.42856" lon="2.1044">
        <ele>89</ele>
        <time>2011-04-30T10:08:12Z</time>
      </trkpt>
      <trkpt lat="48.42856" lon="2.10443">
        <ele>88</ele>
        <time>2011-04-30T10:08:13Z</time>
      </trkpt>
      <trkpt lat="48.42856" lon="2.10446">
        <ele>88</ele>
        <time>2011-04-30T10:08:14Z</time>
      </trkpt>
      <trkpt lat="48.42856" lon="2.10449">
        <ele>88</ele>
        <time>2011-04-30T10:08:15Z</time>
      </trkpt>
      <trkpt lat="48.42856" lon="2.10452">
        <ele>88</ele>
        <time>2011-04-30T10:08:16Z</time>
      </trkpt>
      <trkpt lat="48.42856" lon="2.10455">
        <ele>88</ele>
        <time>2011-04-30T10:08:17Z</time>
      </trkpt>
      <trkpt lat="48.42856" lon="2.10458">
        <ele>88</ele>
        <time>2011-04-30T10:08:18Z</time>
      </trkpt>
      <trkpt lat="48.42856" lon="2.10462">
        <ele>88</ele>
        <time>2011-04-30T10:08:19Z</time>
      </trkpt>
      <trkpt lat="48.42856" lon="2.10465">
        <ele>88</ele>
        <time>2011-04-30T10:08:20Z</time>
      </trkpt>
      <trkpt lat="48.42857" lon="2.10468">
        <ele>88</ele>
        <time>2011-04-30T10:08:21Z</time>
      </trkpt>
      <trkpt lat="48.42857" lon="2.10472">
        <ele>88</ele>
        <time>2011-04-30T10:08:22Z</time>
      </trkpt>
      <trkpt lat="48.42857" lon="2.10475">
        <ele>88</ele>
        <time>2011-04-30T10:08:23Z</time>
      </trkpt>
      <trkpt lat="48.42857" lon="2.10479">
        <ele>88</ele>
        <time>2011-04-30T10:08:24Z</time>
      </trkpt>
      <trkpt lat="48.42857" lon="2.10482">
        <ele>88</ele>
        <time>2011-04-30T10:08:25Z</time>
      </trkpt>
      <trkpt lat="48.42857" lon="2.10485">
        <ele>88</ele>
        <time>2011-04-30T10:08:26Z</time>
      </trkpt>
      <trkpt lat="48.42857" lon="2.10488">
        <ele>88</ele>
        <time>2011-04-30T10:08:27Z</time>
      </trkpt>
      <trkpt lat="48.42857" lon="2.10491">
        <ele>88</ele>
        <time>2011-04-30T10:08:28Z</time>
      </trkpt>
      <trkpt lat="48.42857" lon="2.10494">
        <ele>88</ele>
        <time>2011-04-30T10:08:29Z</time>
      </trkpt>
      <trkpt lat="48.42857" lon="2.10498">
        <ele>88</ele>
        <time>2011-04-30T10:08:30Z</time>
      </trkpt>
      <trkpt lat="48.42857" lon="2.10502">
        <ele>88</ele>
        <time>2011-04-30T10:08:31Z</time>
      </trkpt>
      <trkpt lat="48.42857" lon="2.10506">
        <ele>88</ele>
        <time>2011-04-30T10:08:32Z</time>
      </trkpt>
      <trkpt lat="48.42857" lon="2.1051">
        <ele>88</ele>
        <time>2011-04-30T10:08:33Z</time>
      </trkpt>
      <trkpt lat="48.42857" lon="2.10515">
        <ele>88</ele>
        <time>2011-04-30T10:08:34Z</time>
      </trkpt>
      <trkpt lat="48.42858" lon="2.10519">
        <ele>88</ele>
        <time>2011-04-30T10:08:35Z</time>
      </trkpt>
      <trkpt lat="48.42858" lon="2.10523">
        <ele>88</ele>
        <time>2011-04-30T10:08:36Z</time>
      </trkpt>
      <trkpt lat="48.42858" lon="2.10527">
        <ele>88</ele>
        <time>2011-04-30T10:08:37Z</time>
      </trkpt>
      <trkpt lat="48.42859" lon="2.10531">
        <ele>88</ele>
        <time>2011-04-30T10:08:38Z</time>
      </trkpt>
      <trkpt lat="48.42859" lon="2.10535">
        <ele>88</ele>
        <time>2011-04-30T10:08:39Z</time>
      </trkpt>
      <trkpt lat="48.4286" lon="2.1054">
        <ele>88</ele>
        <time>2011-04-30T10:08:40Z</time>
      </trkpt>
      <trkpt lat="48.4286" lon="2.10545">
        <ele>88</ele>
        <time>2011-04-30T10:08:41Z</time>
      </trkpt>
      <trkpt lat="48.42861" lon="2.1055">
        <ele>88</ele>
        <time>2011-04-30T10:08:42Z</time>
      </trkpt>
      <trkpt lat="48.42862" lon="2.10554">
        <ele>88</ele>
        <time>2011-04-30T10:08:43Z</time>
      </trkpt>
      <trkpt lat="48.42862" lon="2.10558">
        <ele>88</ele>
        <time>2011-04-30T10:08:44Z</time>
      </trkpt>
      <trkpt lat="48.42863" lon="2.10562">
        <ele>88</ele>
        <time>2011-04-30T10:08:45Z</time>
      </trkpt>
      <trkpt lat="48.42863" lon="2.10566">
        <ele>88</ele>
        <time>2011-04-30T10:08:46Z</time>
      </trkpt>
      <trkpt lat="48.42863" lon="2.1057">
        <ele>88</ele>
        <time>2011-04-30T10:08:47Z</time>
      </trkpt>
      <trkpt lat="48.42864" lon="2.10573">
        <ele>88</ele>
        <time>2011-04-30T10:08:48Z</time>
      </trkpt>
      <trkpt lat="48.42864" lon="2.10577">
        <ele>88</ele>
        <time>2011-04-30T10:08:49Z</time>
      </trkpt>
      <trkpt lat="48.42864" lon="2.10581">
        <ele>88</ele>
        <time>2011-04-30T10:08:50Z</time>
      </trkpt>
      <trkpt lat="48.42864" lon="2.10585">
        <ele>89</ele>
        <time>2011-04-30T10:08:51Z</time>
      </trkpt>
      <trkpt lat="48.42864" lon="2.10588">
        <ele>89</ele>
        <time>2011-04-30T10:08:52Z</time>
      </trkpt>
      <trkpt lat="48.42864" lon="2.10592">
        <ele>89</ele>
        <time>2011-04-30T10:08:53Z</time>
      </trkpt>
      <trkpt lat="48.42864" lon="2.10596">
        <ele>89</ele>
        <time>2011-04-30T10:08:54Z</time>
      </trkpt>
      <trkpt lat="48.42864" lon="2.10599">
        <ele>89</ele>
        <time>2011-04-30T10:08:55Z</time>
      </trkpt>
      <trkpt lat="48.42864" lon="2.10602">
        <ele>89</ele>
        <time>2011-04-30T10:08:56Z</time>
      </trkpt>
      <trkpt lat="48.42864" lon="2.10606">
        <ele>89</ele>
        <time>2011-04-30T10:08:57Z</time>
      </trkpt>
      <trkpt lat="48.42865" lon="2.10609">
        <ele>89</ele>
        <time>2011-04-30T10:08:58Z</time>
      </trkpt>
      <trkpt lat="48.42865" lon="2.10612">
        <ele>89</ele>
        <time>2011-04-30T10:08:59Z</time>
      </trkpt>
      <trkpt lat="48.42865" lon="2.10615">
        <ele>89</ele>
        <time>2011-04-30T10:09:00Z</time>
      </trkpt>
      <trkpt lat="48.42865" lon="2.10618">
        <ele>89</ele>
        <time>2011-04-30T10:09:01Z</time>
      </trkpt>
      <trkpt lat="48.42865" lon="2.10622">
        <ele>89</ele>
        <time>2011-04-30T10:09:02Z</time>
      </trkpt>
      <trkpt lat="48.42865" lon="2.10625">
        <ele>89</ele>
        <time>2011-04-30T10:09:03Z</time>
      </trkpt>
      <trkpt lat="48.42865" lon="2.10628">
        <ele>89</ele>
        <time>2011-04-30T10:09:04Z</time>
      </trkpt>
      <trkpt lat="48.42865" lon="2.10632">
        <ele>89</ele>
        <time>2011-04-30T10:09:05Z</time>
      </trkpt>
      <trkpt lat="48.42864" lon="2.10636">
        <ele>89</ele>
        <time>2011-04-30T10:09:06Z</time>
      </trkpt>
      <trkpt lat="48.42864" lon="2.10639">
        <ele>89</ele>
        <time>2011-04-30T10:09:07Z</time>
      </trkpt>
      <trkpt lat="48.42864" lon="2.10643">
        <ele>89</ele>
        <time>2011-04-30T10:09:08Z</time>
      </trkpt>
      <trkpt lat="48.42864" lon="2.10647">
        <ele>89</ele>
        <time>2011-04-30T10:09:09Z</time>
      </trkpt>
      <trkpt lat="48.42864" lon="2.10651">
        <ele>89</ele>
        <time>2011-04-30T10:09:10Z</time>
      </trkpt>
      <trkpt lat="48.42864" lon="2.10654">
        <ele>89</ele>
        <time>2011-04-30T10:09:11Z</time>
      </trkpt>
      <trkpt lat="48.42864" lon="2.10658">
        <ele>89</ele>
        <time>2011-04-30T10:09:12Z</time>
      </trkpt>
      <trkpt lat="48.42864" lon="2.10662">
        <ele>89</ele>
        <time>2011-04-30T10:09:13Z</time>
      </trkpt>
      <trkpt lat="48.42864" lon="2.10666">
        <ele>89</ele>
        <time>2011-04-30T10:09:14Z</time>
      </trkpt>
      <trkpt lat="48.42865" lon="2.1067">
        <ele>90</ele>
        <time>2011-04-30T10:09:15Z</time>
      </trkpt>
      <trkpt lat="48.42865" lon="2.10674">
        <ele>90</ele>
        <time>2011-04-30T10:09:16Z</time>
      </trkpt>
      <trkpt lat="48.42865" lon="2.10678">
        <ele>90</ele>
        <time>2011-04-30T10:09:17Z</time>
      </trkpt>
      <trkpt lat="48.42865" lon="2.10682">
        <ele>90</ele>
        <time>2011-04-30T10:09:18Z</time>
      </trkpt>
      <trkpt lat="48.42865" lon="2.10687">
        <ele>90</ele>
        <time>2011-04-30T10:09:19Z</time>
      </trkpt>
      <trkpt lat="48.42864" lon="2.10691">
        <ele>90</ele>
        <time>2011-04-30T10:09:20Z</time>
      </trkpt>
      <trkpt lat="48.42864" lon="2.10695">
        <ele>91</ele>
        <time>2011-04-30T10:09:21Z</time>
      </trkpt>
      <trkpt lat="48.42864" lon="2.107">
        <ele>91</ele>
        <time>2011-04-30T10:09:22Z</time>
      </trkpt>
      <trkpt lat="48.42864" lon="2.10705">
        <ele>91</ele>
        <time>2011-04-30T10:09:23Z</time>
      </trkpt>
      <trkpt lat="48.42864" lon="2.10709">
        <ele>91</ele>
        <time>2011-04-30T10:09:24Z</time>
      </trkpt>
      <trkpt lat="48.42865" lon="2.10713">
        <ele>91</ele>
        <time>2011-04-30T10:09:25Z</time>
      </trkpt>
      <trkpt lat="48.42865" lon="2.10717">
        <ele>91</ele>
        <time>2011-04-30T10:09:26Z</time>
      </trkpt>
      <trkpt lat="48.42865" lon="2.10721">
        <ele>91</ele>
        <time>2011-04-30T10:09:27Z</time>
      </trkpt>
      <trkpt lat="48.42866" lon="2.10724">
        <ele>91</ele>
        <time>2011-04-30T10:09:28Z</time>
      </trkpt>
      <trkpt lat="48.42866" lon="2.10728">
        <ele>91</ele>
        <time>2011-04-30T10:09:29Z</time>
      </trkpt>
      <trkpt lat="48.42866" lon="2.10731">
        <ele>91</ele>
        <time>2011-04-30T10:09:30Z</time>
      </trkpt>
      <trkpt lat="48.42867" lon="2.10734">
        <ele>91</ele>
        <time>2011-04-30T10:09:31Z</time>
      </trkpt>
      <trkpt lat="48.42867" lon="2.10738">
        <ele>91</ele>
        <time>2011-04-30T10:09:32Z</time>
      </trkpt>
      <trkpt lat="48.42867" lon="2.10741">
        <ele>91</ele>
        <time>2011-04-30T10:09:33Z</time>
      </trkpt>
      <trkpt lat="48.42867" lon="2.10744">
        <ele>91</ele>
        <time>2011-04-30T10:09:34Z</time>
      </trkpt>
      <trkpt lat="48.42867" lon="2.10746">
        <ele>91</ele>
        <time>2011-04-30T10:09:35Z</time>
      </trkpt>
      <trkpt lat="48.42867" lon="2.1075">
        <ele>91</ele>
        <time>2011-04-30T10:09:36Z</time>
      </trkpt>
      <trkpt lat="48.42867" lon="2.10753">
        <ele>91</ele>
        <time>2011-04-30T10:09:37Z</time>
      </trkpt>
      <trkpt lat="48.42867" lon="2.10756">
        <ele>91</ele>
        <time>2011-04-30T10:09:38Z</time>
      </trkpt>
      <trkpt lat="48.42868" lon="2.10759">
        <ele>91</ele>
        <time>2011-04-30T10:09:39Z</time>
      </trkpt>
      <trkpt lat="48.42868" lon="2.10763">
        <ele>91</ele>
        <time>2011-04-30T10:09:40Z</time>
      </trkpt>
      <trkpt lat="48.42868" lon="2.10767">
        <ele>91</ele>
        <time>2011-04-30T10:09:41Z</time>
      </trkpt>
      <trkpt lat="48.42868" lon="2.10771">
        <ele>91</ele>
        <time>2011-04-30T10:09:42Z</time>
      </trkpt>
      <trkpt lat="48.42868" lon="2.10775">
        <ele>91</ele>
        <time>2011-04-30T10:09:43Z</time>
      </trkpt>
      <trkpt lat="48.42868" lon="2.10779">
        <ele>91</ele>
        <time>2011-04-30T10:09:44Z</time>
      </trkpt>
      <trkpt lat="48.42869" lon="2.10783">
        <ele>91</ele>
        <time>2011-04-30T10:09:45Z</time>
      </trkpt>
      <trkpt lat="48.42869" lon="2.10787">
        <ele>91</ele>
        <time>2011-04-30T10:09:46Z</time>
      </trkpt>
      <trkpt lat="48.42869" lon="2.10791">
        <ele>91</ele>
        <time>2011-04-30T10:09:47Z</time>
      </trkpt>
      <trkpt lat="48.4287" lon="2.10795">
        <ele>91</ele>
        <time>2011-04-30T10:09:48Z</time>
      </trkpt>
      <trkpt lat="48.4287" lon="2.10799">
        <ele>91</ele>
        <time>2011-04-30T10:09:49Z</time>
      </trkpt>
      <trkpt lat="48.4287" lon="2.10802">
        <ele>91</ele>
        <time>2011-04-30T10:09:50Z</time>
      </trkpt>
      <trkpt lat="48.42871" lon="2.10806">
        <ele>91</ele>
        <time>2011-04-30T10:09:51Z</time>
      </trkpt>
      <trkpt lat="48.4287" lon="2.1081">
        <ele>91</ele>
        <time>2011-04-30T10:09:52Z</time>
      </trkpt>
      <trkpt lat="48.4287" lon="2.10814">
        <ele>91</ele>
        <time>2011-04-30T10:09:53Z</time>
      </trkpt>
      <trkpt lat="48.4287" lon="2.10818">
        <ele>91</ele>
        <time>2011-04-30T10:09:54Z</time>
      </trkpt>
      <trkpt lat="48.4287" lon="2.10822">
        <ele>91</ele>
        <time>2011-04-30T10:09:55Z</time>
      </trkpt>
      <trkpt lat="48.4287" lon="2.10826">
        <ele>91</ele>
        <time>2011-04-30T10:09:56Z</time>
      </trkpt>
      <trkpt lat="48.4287" lon="2.1083">
        <ele>90</ele>
        <time>2011-04-30T10:09:57Z</time>
      </trkpt>
      <trkpt lat="48.4287" lon="2.10834">
        <ele>91</ele>
        <time>2011-04-30T10:09:58Z</time>
      </trkpt>
      <trkpt lat="48.4287" lon="2.10838">
        <ele>91</ele>
        <time>2011-04-30T10:09:59Z</time>
      </trkpt>
      <trkpt lat="48.4287" lon="2.10842">
        <ele>91</ele>
        <time>2011-04-30T10:10:00Z</time>
      </trkpt>
      <trkpt lat="48.4287" lon="2.10846">
        <ele>91</ele>
        <time>2011-04-30T10:10:01Z</time>
      </trkpt>
      <trkpt lat="48.4287" lon="2.10849">
        <ele>91</ele>
        <time>2011-04-30T10:10:02Z</time>
      </trkpt>
      <trkpt lat="48.4287" lon="2.10853">
        <ele>91</ele>
        <time>2011-04-30T10:10:03Z</time>
      </trkpt>
      <trkpt lat="48.4287" lon="2.10857">
        <ele>91</ele>
        <time>2011-04-30T10:10:04Z</time>
      </trkpt>
      <trkpt lat="48.4287" lon="2.1086">
        <ele>91</ele>
        <time>2011-04-30T10:10:05Z</time>
      </trkpt>
      <trkpt lat="48.4287" lon="2.10863">
        <ele>91</ele>
        <time>2011-04-30T10:10:06Z</time>
      </trkpt>
      <trkpt lat="48.4287" lon="2.10867">
        <ele>91</ele>
        <time>2011-04-30T10:10:07Z</time>
      </trkpt>
      <trkpt lat="48.4287" lon="2.1087">
        <ele>91</ele>
        <time>2011-04-30T10:10:08Z</time>
      </trkpt>
      <trkpt lat="48.4287" lon="2.10873">
        <ele>91</ele>
        <time>2011-04-30T10:10:09Z</time>
      </trkpt>
      <trkpt lat="48.42869" lon="2.10876">
        <ele>91</ele>
        <time>2011-04-30T10:10:10Z</time>
      </trkpt>
      <trkpt lat="48.42869" lon="2.10879">
        <ele>91</ele>
        <time>2011-04-30T10:10:11Z</time>
      </trkpt>
      <trkpt lat="48.42869" lon="2.10882">
        <ele>91</ele>
        <time>2011-04-30T10:10:12Z</time>
      </trkpt>
      <trkpt lat="48.42868" lon="2.10885">
        <ele>91</ele>
        <time>2011-04-30T10:10:13Z</time>
      </trkpt>
      <trkpt lat="48.42868" lon="2.10888">
        <ele>91</ele>
        <time>2011-04-30T10:10:14Z</time>
      </trkpt>
      <trkpt lat="48.42868" lon="2.10891">
        <ele>91</ele>
        <time>2011-04-30T10:10:15Z</time>
      </trkpt>
      <trkpt lat="48.42867" lon="2.10894">
        <ele>91</ele>
        <time>2011-04-30T10:10:16Z</time>
      </trkpt>
      <trkpt lat="48.42867" lon="2.10897">
        <ele>91</ele>
        <time>2011-04-30T10:10:17Z</time>
      </trkpt>
      <trkpt lat="48.42867" lon="2.10899">
        <ele>91</ele>
        <time>2011-04-30T10:10:18Z</time>
      </trkpt>
      <trkpt lat="48.42866" lon="2.10902">
        <ele>91</ele>
        <time>2011-04-30T10:10:19Z</time>
      </trkpt>
      <trkpt lat="48.42865" lon="2.10905">
        <ele>91</ele>
        <time>2011-04-30T10:10:20Z</time>
      </trkpt>
      <trkpt lat="48.42865" lon="2.10908">
        <ele>91</ele>
        <time>2011-04-30T10:10:21Z</time>
      </trkpt>
      <trkpt lat="48.42865" lon="2.10911">
        <ele>91</ele>
        <time>2011-04-30T10:10:22Z</time>
      </trkpt>
      <trkpt lat="48.42865" lon="2.10915">
        <ele>91</ele>
        <time>2011-04-30T10:10:23Z</time>
      </trkpt>
      <trkpt lat="48.42864" lon="2.10919">
        <ele>91</ele>
        <time>2011-04-30T10:10:24Z</time>
      </trkpt>
      <trkpt lat="48.42864" lon="2.10923">
        <ele>91</ele>
        <time>2011-04-30T10:10:25Z</time>
      </trkpt>
      <trkpt lat="48.42864" lon="2.10927">
        <ele>91</ele>
        <time>2011-04-30T10:10:26Z</time>
      </trkpt>
      <trkpt lat="48.42864" lon="2.10931">
        <ele>91</ele>
        <time>2011-04-30T10:10:27Z</time>
      </trkpt>
      <trkpt lat="48.42864" lon="2.10936">
        <ele>91</ele>
        <time>2011-04-30T10:10:28Z</time>
      </trkpt>
      <trkpt lat="48.42864" lon="2.1094">
        <ele>91</ele>
        <time>2011-04-30T10:10:29Z</time>
      </trkpt>
      <trkpt lat="48.42864" lon="2.10944">
        <ele>91</ele>
        <time>2011-04-30T10:10:30Z</time>
      </trkpt>
      <trkpt lat="48.42864" lon="2.10948">
        <ele>91</ele>
        <time>2011-04-30T10:10:31Z</time>
      </trkpt>
      <trkpt lat="48.42864" lon="2.10953">
        <ele>91</ele>
        <time>2011-04-30T10:10:32Z</time>
      </trkpt>
      <trkpt lat="48.42864" lon="2.10957">
        <ele>91</ele>
        <time>2011-04-30T10:10:33Z</time>
      </trkpt>
      <trkpt lat="48.42864" lon="2.10961">
        <ele>91</ele>
        <time>2011-04-30T10:10:34Z</time>
      </trkpt>
      <trkpt lat="48.42864" lon="2.10964">
        <ele>91</ele>
        <time>2011-04-30T10:10:35Z</time>
      </trkpt>
      <trkpt lat="48.42863" lon="2.10968">
        <ele>91</ele>
        <time>2011-04-30T10:10:36Z</time>
      </trkpt>
      <trkpt lat="48.42863" lon="2.10972">
        <ele>91</ele>
        <time>2011-04-30T10:10:37Z</time>
      </trkpt>
      <trkpt lat="48.42863" lon="2.10975">
        <ele>91</ele>
        <time>2011-04-30T10:10:38Z</time>
      </trkpt>
      <trkpt lat="48.42864" lon="2.10979">
        <ele>91</ele>
        <time>2011-04-30T10:10:39Z</time>
      </trkpt>
      <trkpt lat="48.42864" lon="2.10983">
        <ele>90</ele>
        <time>2011-04-30T10:10:40Z</time>
      </trkpt>
      <trkpt lat="48.42864" lon="2.10987">
        <ele>90</ele>
        <time>2011-04-30T10:10:41Z</time>
      </trkpt>
      <trkpt lat="48.42864" lon="2.1099">
        <ele>90</ele>
        <time>2011-04-30T10:10:42Z</time>
      </trkpt>
      <trkpt lat="48.42864" lon="2.10993">
        <ele>90</ele>
        <time>2011-04-30T10:10:43Z</time>
      </trkpt>
      <trkpt lat="48.42865" lon="2.10996">
        <ele>90</ele>
        <time>2011-04-30T10:10:44Z</time>
      </trkpt>
      <trkpt lat="48.42865" lon="2.10999">
        <ele>90</ele>
        <time>2011-04-30T10:10:45Z</time>
      </trkpt>
      <trkpt lat="48.42865" lon="2.11003">
        <ele>90</ele>
        <time>2011-04-30T10:10:46Z</time>
      </trkpt>
      <trkpt lat="48.42866" lon="2.11006">
        <ele>90</ele>
        <time>2011-04-30T10:10:47Z</time>
      </trkpt>
      <trkpt lat="48.42867" lon="2.1101">
        <ele>90</ele>
        <time>2011-04-30T10:10:48Z</time>
      </trkpt>
      <trkpt lat="48.42867" lon="2.11013">
        <ele>90</ele>
        <time>2011-04-30T10:10:49Z</time>
      </trkpt>
      <trkpt lat="48.42868" lon="2.11017">
        <ele>91</ele>
        <time>2011-04-30T10:10:50Z</time>
      </trkpt>
      <trkpt lat="48.42868" lon="2.1102">
        <ele>91</ele>
        <time>2011-04-30T10:10:51Z</time>
      </trkpt>
      <trkpt lat="48.42869" lon="2.11024">
        <ele>91</ele>
        <time>2011-04-30T10:10:52Z</time>
      </trkpt>
      <trkpt lat="48.4287" lon="2.11029">
        <ele>91</ele>
        <time>2011-04-30T10:10:53Z</time>
      </trkpt>
      <trkpt lat="48.4287" lon="2.11032">
        <ele>91</ele>
        <time>2011-04-30T10:10:54Z</time>
      </trkpt>
      <trkpt lat="48.4287" lon="2.11036">
        <ele>91</ele>
        <time>2011-04-30T10:10:55Z</time>
      </trkpt>
      <trkpt lat="48.4287" lon="2.1104">
        <ele>91</ele>
        <time>2011-04-30T10:10:56Z</time>
      </trkpt>
      <trkpt lat="48.4287" lon="2.11043">
        <ele>91</ele>
        <time>2011-04-30T10:10:57Z</time>
      </trkpt>
      <trkpt lat="48.4287" lon="2.11047">
        <ele>91</ele>
        <time>2011-04-30T10:10:58Z</time>
      </trkpt>
      <trkpt lat="48.4287" lon="2.11051">
        <ele>91</ele>
        <time>2011-04-30T10:10:59Z</time>
      </trkpt>
      <trkpt lat="48.4287" lon="2.11056">
        <ele>91</ele>
        <time>2011-04-30T10:11:00Z</time>
      </trkpt>
      <trkpt lat="48.42871" lon="2.1106">
        <ele>91</ele>
        <time>2011-04-30T10:11:01Z</time>
      </trkpt>
      <trkpt lat="48.42871" lon="2.11063">
        <ele>91</ele>
        <time>2011-04-30T10:11:02Z</time>
      </trkpt>
      <trkpt lat="48.42872" lon="2.11068">
        <ele>91</ele>
        <time>2011-04-30T10:11:03Z</time>
      </trkpt>
      <trkpt lat="48.42872" lon="2.11072">
        <ele>91</ele>
        <time>2011-04-30T10:11:04Z</time>
      </trkpt>
      <trkpt lat="48.42872" lon="2.11075">
        <ele>91</ele>
        <time>2011-04-30T10:11:05Z</time>
      </trkpt>
      <trkpt lat="48.42872" lon="2.11079">
        <ele>91</ele>
        <time>2011-04-30T10:11:06Z</time>
      </trkpt>
      <trkpt lat="48.42872" lon="2.11083">
        <ele>91</ele>
        <time>2011-04-30T10:11:07Z</time>
      </trkpt>
      <trkpt lat="48.42872" lon="2.11086">
        <ele>92</ele>
        <time>2011-04-30T10:11:08Z</time>
      </trkpt>
      <trkpt lat="48.42872" lon="2.1109">
        <ele>92</ele>
        <time>2011-04-30T10:11:09Z</time>
      </trkpt>
      <trkpt lat="48.42872" lon="2.11093">
        <ele>92</ele>
        <time>2011-04-30T10:11:10Z</time>
      </trkpt>
      <trkpt lat="48.42872" lon="2.11097">
        <ele>92</ele>
        <time>2011-04-30T10:11:11Z</time>
      </trkpt>
      <trkpt lat="48.42872" lon="2.11101">
        <ele>92</ele>
        <time>2011-04-30T10:11:12Z</time>
      </trkpt>
      <trkpt lat="48.42872" lon="2.11105">
        <ele>92</ele>
        <time>2011-04-30T10:11:13Z</time>
      </trkpt>
      <trkpt lat="48.42871" lon="2.11109">
        <ele>92</ele>
        <time>2011-04-30T10:11:14Z</time>
      </trkpt>
      <trkpt lat="48.42871" lon="2.11113">
        <ele>92</ele>
        <time>2011-04-30T10:11:15Z</time>
      </trkpt>
      <trkpt lat="48.4287" lon="2.11116">
        <ele>92</ele>
        <time>2011-04-30T10:11:16Z</time>
      </trkpt>
      <trkpt lat="48.4287" lon="2.11119">
        <ele>92</ele>
        <time>2011-04-30T10:11:17Z</time>
      </trkpt>
      <trkpt lat="48.42869" lon="2.11123">
        <ele>92</ele>
        <time>2011-04-30T10:11:18Z</time>
      </trkpt>
      <trkpt lat="48.42869" lon="2.11127">
        <ele>92</ele>
        <time>2011-04-30T10:11:19Z</time>
      </trkpt>
      <trkpt lat="48.42868" lon="2.1113">
        <ele>92</ele>
        <time>2011-04-30T10:11:20Z</time>
      </trkpt>
      <trkpt lat="48.42868" lon="2.11134">
        <ele>92</ele>
        <time>2011-04-30T10:11:21Z</time>
      </trkpt>
      <trkpt lat="48.42867" lon="2.11137">
        <ele>92</ele>
        <time>2011-04-30T10:11:22Z</time>
      </trkpt>
      <trkpt lat="48.42867" lon="2.11141">
        <ele>92</ele>
        <time>2011-04-30T10:11:23Z</time>
      </trkpt>
      <trkpt lat="48.42867" lon="2.11144">
        <ele>92</ele>
        <time>2011-04-30T10:11:24Z</time>
      </trkpt>
      <trkpt lat="48.42867" lon="2.11148">
        <ele>92</ele>
        <time>2011-04-30T10:11:25Z</time>
      </trkpt>
      <trkpt lat="48.42822" lon="2.11743">
        <ele>85</ele>
        <time>2011-04-30T10:15:00Z</time>
      </trkpt>
      <trkpt lat="48.42822" lon="2.11743">
        <ele>85</ele>
        <time>2011-04-30T10:15:01Z</time>
      </trkpt>
      <trkpt lat="48.42822" lon="2.11743">
        <ele>85</ele>
        <time>2011-04-30T10:15:02Z</time>
      </trkpt>
      <trkpt lat="48.42823" lon="2.11743">
        <ele>85</ele>
        <time>2011-04-30T10:15:03Z</time>
      </trkpt>
      <trkpt lat="48.42823" lon="2.11743">
        <ele>85</ele>
        <time>2011-04-30T10:15:04Z</time>
      </trkpt>
      <trkpt lat="48.42823" lon="2.11743">
        <ele>85</ele>
        <time>2011-04-30T10:15:05Z</time>
      </trkpt>
      <trkpt lat="48.42823" lon="2.11743">
        <ele>85</ele>
        <time>2011-04-30T10:15:06Z</time>
      </trkpt>
      <trkpt lat="48.42823" lon="2.11743">
        <ele>85</ele>
        <time>2011-04-30T10:15:07Z</time>
      </trkpt>
      <trkpt lat="48.42822" lon="2.11743">
        <ele>85</ele>
        <time>2011-04-30T10:15:08Z</time>
      </trkpt>
      <trkpt lat="48.42822" lon="2.11743">
        <ele>85</ele>
        <time>2011-04-30T10:15:09Z</time>
      </trkpt>
      <trkpt lat="48.42822" lon="2.11743">
        <ele>85</ele>
        <time>2011-04-30T10:15:10Z</time>
      </trkpt>
      <trkpt lat="48.42821" lon="2.11743">
        <ele>85</ele>
        <time>2011-04-30T10:15:11Z</time>
      </trkpt>
      <trkpt lat="48.42821" lon="2.11743">
        <ele>85</ele>
        <time>2011-04-30T10:15:12Z</time>
      </trkpt>
      <trkpt lat="48.42821" lon="2.11743">
        <ele>85</ele>
        <time>2011-04-30T10:15:13Z</time>
      </trkpt>
      <trkpt lat="48.4282" lon="2.11743">
        <ele>85</ele>
        <time>2011-04-30T10:15:14Z</time>
      </trkpt>
      <trkpt lat="48.4282" lon="2.11743">
        <ele>85</ele>
        <time>2011-04-30T10:15:15Z</time>
      </trkpt>
      <trkpt lat="48.4282" lon="2.11743">
        <ele>85</ele>
        <time>2011-04-30T10:15:16Z</time>
      </trkpt>
      <trkpt lat="48.4282" lon="2.11743">
        <ele>85</ele>
        <time>2011-04-30T10:15:17Z</time>
      </trkpt>
      <trkpt lat="48.4282" lon="2.11743">
        <ele>85</ele>
        <time>2011-04-30T10:15:18Z</time>
      </trkpt>
      <trkpt lat="48.4282" lon="2.11742">
        <ele>85</ele>
        <time>2011-04-30T10:15:19Z</time>
      </trkpt>
      <trkpt lat="48.4282" lon="2.11742">
        <ele>85</ele>
        <time>2011-04-30T10:15:20Z</time>
      </trkpt>
      <trkpt lat="48.4282" lon="2.11742">
        <ele>85</ele>
        <time>2011-04-30T10:15:21Z</time>
      </trkpt>
      <trkpt lat="48.4282" lon="2.11741">
        <ele>85</ele>
        <time>2011-04-30T10:15:22Z</time>
      </trkpt>
      <trkpt lat="48.4282" lon="2.11741">
        <ele>85</ele>
        <time>2011-04-30T10:15:23Z</time>
      </trkpt>
      <trkpt lat="48.4282" lon="2.1174">
        <ele>85</ele>
        <time>2011-04-30T10:15:24Z</time>
      </trkpt>
      <trkpt lat="48.42819" lon="2.1174">
        <ele>85</ele>
        <time>2011-04-30T10:15:25Z</time>
      </trkpt>
      <trkpt lat="48.42819" lon="2.1174">
        <ele>85</ele>
        <time>2011-04-30T10:15:26Z</time>
      </trkpt>
      <trkpt lat="48.42819" lon="2.1174">
        <ele>85</ele>
        <time>2011-04-30T10:15:27Z</time>
      </trkpt>
      <trkpt lat="48.42819" lon="2.11739">
        <ele>85</ele>
        <time>2011-04-30T10:15:28Z</time>
      </trkpt>
      <trkpt lat="48.42818" lon="2.11739">
        <ele>85</ele>
        <time>2011-04-30T10:15:29Z</time>
      </trkpt>
      <trkpt lat="48.42818" lon="2.1174">
        <ele>85</ele>
        <time>2011-04-30T10:15:30Z</time>
      </trkpt>
      <trkpt lat="48.42818" lon="2.1174">
        <ele>85</ele>
        <time>2011-04-30T10:15:31Z</time>
      </trkpt>
      <trkpt lat="48.42818" lon="2.11739">
        <ele>85</ele>
        <time>2011-04-30T10:15:32Z</time>
      </trkpt>
      <trkpt lat="48.42818" lon="2.11738">
        <ele>85</ele>
        <time>2011-04-30T10:15:33Z</time>
      </trkpt>
      <trkpt lat="48.42817" lon="2.11737">
        <ele>85</ele>
        <time>2011-04-30T10:15:34Z</time>
      </trkpt>
      <trkpt lat="48.42817" lon="2.11736">
        <ele>85</ele>
        <time>2011-04-30T10:15:35Z</time>
      </trkpt>
      <trkpt lat="48.42817" lon="2.11736">
        <ele>85</ele>
        <time>2011-04-30T10:15:36Z</time>
      </trkpt>
      <trkpt lat="48.42818" lon="2.11736">
        <ele>85</ele>
        <time>2011-04-30T10:15:37Z</time>
      </trkpt>
      <trkpt lat="48.42818" lon="2.11736">
        <ele>85</ele>
        <time>2011-04-30T10:15:38Z</time>
      </trkpt>
      <trkpt lat="48.42818" lon="2.11736">
        <ele>85</ele>
        <time>2011-04-30T10:15:39Z</time>
      </trkpt>
      <trkpt lat="48.42818" lon="2.11737">
        <ele>85</ele>
        <time>2011-04-30T10:15:40Z</time>
      </trkpt>
      <trkpt lat="48.42818" lon="2.11737">
        <ele>85</ele>
        <time>2011-04-30T10:15:41Z</time>
      </trkpt>
      <trkpt lat="48.42817" lon="2.11737">
        <ele>85</ele>
        <time>2011-04-30T10:15:42Z</time>
      </trkpt>
      <trkpt lat="48.42817" lon="2.11738">
        <ele>85</ele>
        <time>2011-04-30T10:15:43Z</time>
      </trkpt>
      <trkpt lat="48.42818" lon="2.11739">
        <ele>85</ele>
        <time>2011-04-30T10:15:44Z</time>
      </trkpt>
      <trkpt lat="48.42818" lon="2.11739">
        <ele>85</ele>
        <time>2011-04-30T10:15:45Z</time>
      </trkpt>
      <trkpt lat="48.42819" lon="2.1174">
        <ele>85</ele>
        <time>2011-04-30T10:15:46Z</time>
      </trkpt>
      <trkpt lat="48.42819" lon="2.1174">
        <ele>85</ele>
        <time>2011-04-30T10:15:47Z</time>
      </trkpt>
      <trkpt lat="48.4282" lon="2.1174">
        <ele>85</ele>
        <time>2011-04-30T10:15:48Z</time>
      </trkpt>
      <trkpt lat="48.4282" lon="2.11741">
        <ele>85</ele>
        <time>2011-04-30T10:15:49Z</time>
      </trkpt>
      <trkpt lat="48.4282" lon="2.11741">
        <ele>85</ele>
        <time>2011-04-30T10:15:50Z</time>
      </trkpt>
      <trkpt lat="48.42821" lon="2.11741">
        <ele>85</ele>
        <time>2011-04-30T10:15:51Z</time>
      </trkpt>
      <trkpt lat="48.42821" lon="2.11741">
        <ele>85</ele>
        <time>2011-04-30T10:15:52Z</time>
      </trkpt>
      <trkpt lat="48.42821" lon="2.11741">
        <ele>85</ele>
        <time>2011-04-30T10:15:53Z</time>
      </trkpt>
      <trkpt lat="48.42822" lon="2.11742">
        <ele>85</ele>
        <time>2011-04-30T10:15:54Z</time>
      </trkpt>
      <trkpt lat="48.42822" lon="2.11742">
        <ele>85</ele>
        <time>2011-04-30T10:15:55Z</time>
      </trkpt>
      <trkpt lat="48.42822" lon="2.11742">
        <ele>85</ele>
        <time>2011-04-30T10:15:56Z</time>
      </trkpt>
      <trkpt lat="48.42823" lon="2.11742">
        <ele>85</ele>
        <time>2011-04-30T10:15:57Z</time>
      </trkpt>
      <trkpt lat="48.42825" lon="2.11742">
        <ele>86</ele>
        <time>2011-04-30T10:15:58Z</time>
      </trkpt>
      <trkpt lat="48.42826" lon="2.11742">
        <ele>86</ele>
        <time>2011-04-30T10:15:59Z</time>
      </trkpt>
      <trkpt lat="48.42827" lon="2.11742">
        <ele>86</ele>
        <time>2011-04-30T10:16:00Z</time>
      </trkpt>
      <trkpt lat="48.42828" lon="2.11742">
        <ele>86</ele>
        <time>2011-04-30T10:16:01Z</time>
      </trkpt>
      <trkpt lat="48.42828" lon="2.11742">
        <ele>86</ele>
        <time>2011-04-30T10:16:02Z</time>
      </trkpt>
      <trkpt lat="48.42829" lon="2.11742">
        <ele>86</ele>
        <time>2011-04-30T10:16:03Z</time>
      </trkpt>
      <trkpt lat="48.42829" lon="2.11742">
        <ele>86</ele>
        <time>2011-04-30T10:16:04Z</time>
      </trkpt>
      <trkpt lat="48.42829" lon="2.11742">
        <ele>86</ele>
        <time>2011-04-30T10:16:05Z</time>
      </trkpt>
      <trkpt lat="48.42829" lon="2.11742">
        <ele>86</ele>
        <time>2011-04-30T10:16:06Z</time>
      </trkpt>
      <trkpt lat="48.4283" lon="2.11742">
        <ele>86</ele>
        <time>2011-04-30T10:16:07Z</time>
      </trkpt>
      <trkpt lat="48.4283" lon="2.11742">
        <ele>86</ele>
        <time>2011-04-30T10:16:08Z</time>
      </trkpt>
      <trkpt lat="48.42829" lon="2.11742">
        <ele>86</ele>
        <time>2011-04-30T10:16:09Z</time>
      </trkpt>
      <trkpt lat="48.42829" lon="2.11742">
        <ele>86</ele>
        <time>2011-04-30T10:16:10Z</time>
      </trkpt>
      <trkpt lat="48.42829" lon="2.11742">
        <ele>86</ele>
        <time>2011-04-30T10:16:11Z</time>
      </trkpt>
      <trkpt lat="48.42829" lon="2.11741">
        <ele>86</ele>
        <time>2011-04-30T10:16:12Z</time>
      </trkpt>
      <trkpt lat="48.42829" lon="2.11741">
        <ele>86</ele>
        <time>2011-04-30T10:16:13Z</time>
      </trkpt>
      <trkpt lat="48.42828" lon="2.11741">
        <ele>86</ele>
        <time>2011-04-30T10:16:14Z</time>
      </trkpt>
      <trkpt lat="48.42828" lon="2.11741">
        <ele>86</ele>
        <time>2011-04-30T10:16:15Z</time>
      </trkpt>
      <trkpt lat="48.42828" lon="2.11741">
        <ele>86</ele>
        <time>2011-04-30T10:16:16Z</time>
      </trkpt>
      <trkpt lat="48.42827" lon="2.11741">
        <ele>86</ele>
        <time>2011-04-30T10:16:17Z</time>
      </trkpt>
      <trkpt lat="48.42827" lon="2.11741">
        <ele>86</ele>
        <time>2011-04-30T10:16:18Z</time>
      </trkpt>
      <trkpt lat="48.42827" lon="2.11741">
        <ele>86</ele>
        <time>2011-04-30T10:16:19Z</time>
      </trkpt>
      <trkpt lat="48.42827" lon="2.11741">
        <ele>86</ele>
        <time>2011-04-30T10:16:20Z</time>
      </trkpt>
      <trkpt lat="48.42827" lon="2.11741">
        <ele>86</ele>
        <time>2011-04-30T10:16:21Z</time>
      </trkpt>
      <trkpt lat="48.42827" lon="2.11741">
        <ele>86</ele>
        <time>2011-04-30T10:16:22Z</time>
      </trkpt>
      <trkpt lat="48.42827" lon="2.11741">
        <ele>86</ele>
        <time>2011-04-30T10:16:23Z</time>
      </trkpt>
      <trkpt lat="48.42826" lon="2.11741">
        <ele>86</ele>
        <time>2011-04-30T10:16:24Z</time>
      </trkpt>
      <trkpt lat="48.42826" lon="2.11741">
        <ele>86</ele>
        <time>2011-04-30T10:16:25Z</time>
      </trkpt>
      <trkpt lat="48.42825" lon="2.11741">
        <ele>85</ele>
        <time>2011-04-30T10:16:26Z</time>
      </trkpt>
      <trkpt lat="48.42825" lon="2.11741">
        <ele>85</ele>
        <time>2011-04-30T10:16:27Z</time>
      </trkpt>
      <trkpt lat="48.42824" lon="2.11741">
        <ele>85</ele>
        <time>2011-04-30T10:16:28Z</time>
      </trkpt>
      <trkpt lat="48.42823" lon="2.11741">
        <ele>85</ele>
        <time>2011-04-30T10:16:29Z</time>
      </trkpt>
      <trkpt lat="48.42823" lon="2.11741">
        <ele>85</ele>
        <time>2011-04-30T10:16:30Z</time>
      </trkpt>
      <trkpt lat="48.42823" lon="2.11741">
        <ele>85</ele>
        <time>2011-04-30T10:16:31Z</time>
      </trkpt>
      <trkpt lat="48.42822" lon="2.11741">
        <ele>85</ele>
        <time>2011-04-30T10:16:32Z</time>
      </trkpt>
      <trkpt lat="48.42821" lon="2.11741">
        <ele>85</ele>
        <time>2011-04-30T10:16:33Z</time>
      </trkpt>
      <trkpt lat="48.42821" lon="2.11741">
        <ele>85</ele>
        <time>2011-04-30T10:16:34Z</time>
      </trkpt>
      <trkpt lat="48.4282" lon="2.11742">
        <ele>85</ele>
        <time>2011-04-30T10:16:35Z</time>
      </trkpt>
      <trkpt lat="48.4282" lon="2.11742">
        <ele>85</ele>
        <time>2011-04-30T10:16:36Z</time>
      </trkpt>
      <trkpt lat="48.4282" lon="2.11742">
        <ele>85</ele>
        <time>2011-04-30T10:16:37Z</time>
      </trkpt>
      <trkpt lat="48.42819" lon="2.11742">
        <ele>85</ele>
        <time>2011-04-30T10:16:38Z</time>
      </trkpt>
      <trkpt lat="48.42819" lon="2.11742">
        <ele>85</ele>
        <time>2011-04-30T10:16:39Z</time>
      </trkpt>
      <trkpt lat="48.42819" lon="2.11742">
        <ele>85</ele>
        <time>2011-04-30T10:16:40Z</time>
      </trkpt>
      <trkpt lat="48.42818" lon="2.11743">
        <ele>85</ele>
        <time>2011-04-30T10:16:41Z</time>
      </trkpt>
      <trkpt lat="48.42818" lon="2.11743">
        <ele>85</ele>
        <time>2011-04-30T10:16:42Z</time>
      </trkpt>
      <trkpt lat="48.42818" lon="2.11743">
        <ele>85</ele>
        <time>2011-04-30T10:16:43Z</time>
      </trkpt>
      <trkpt lat="48.42818" lon="2.11743">
        <ele>85</ele>
        <time>2011-04-30T10:16:44Z</time>
      </trkpt>
      <trkpt lat="48.42817" lon="2.11743">
        <ele>85</ele>
        <time>2011-04-30T10:16:45Z</time>
      </trkpt>
      <trkpt lat="48.42817" lon="2.11743">
        <ele>85</ele>
        <time>2011-04-30T10:16:46Z</time>
      </trkpt>
      <trkpt lat="48.42817" lon="2.11743">
        <ele>85</ele>
        <time>2011-04-30T10:16:47Z</time>
      </trkpt>
      <trkpt lat="48.42817" lon="2.11744">
        <ele>85</ele>
        <time>2011-04-30T10:16:48Z</time>
      </trkpt>
      <trkpt lat="48.42817" lon="2.11744">
        <ele>85</ele>
        <time>2011-04-30T10:16:49Z</time>
      </trkpt>
      <trkpt lat="48.42817" lon="2.11744">
        <ele>85</ele>
        <time>2011-04-30T10:16:50Z</time>
      </trkpt>
      <trkpt lat="48.42817" lon="2.11744">
        <ele>85</ele>
        <time>2011-04-30T10:16:51Z</time>
      </trkpt>
      <trkpt lat="48.42816" lon="2.11744">
        <ele>85</ele>
        <time>2011-04-30T10:16:52Z</time>
      </trkpt>
      <trkpt lat="48.42816" lon="2.11745">
        <ele>85</ele>
        <time>2011-04-30T10:16:53Z</time>
      </trkpt>
      <trkpt lat="48.42816" lon="2.11745">
        <ele>85</ele>
        <time>2011-04-30T10:16:54Z</time>
      </trkpt>
      <trkpt lat="48.42815" lon="2.11745">
        <ele>85</ele>
        <time>2011-04-30T10:16:55Z</time>
      </trkpt>
      <trkpt lat="48.42815" lon="2.11745">
        <ele>85</ele>
        <time>2011-04-30T10:16:56Z</time>
      </trkpt>
      <trkpt lat="48.42815" lon="2.11745">
        <ele>85</ele>
        <time>2011-04-30T10:16:57Z</time>
      </trkpt>
      <trkpt lat="48.42815" lon="2.11745">
        <ele>85</ele>
        <time>2011-04-30T10:16:58Z</time>
      </trkpt>
      <trkpt lat="48.42815" lon="2.11745">
        <ele>85</ele>
        <time>2011-04-30T10:16:59Z</time>
      </trkpt>
      <trkpt lat="48.42815" lon="2.11745">
        <ele>85</ele>
        <time>2011-04-30T10:17:00Z</time>
      </trkpt>
      <trkpt lat="48.42815" lon="2.11745">
        <ele>85</ele>
        <time>2011-04-30T10:17:01Z</time>
      </trkpt>
      <trkpt lat="48.42815" lon="2.11745">
        <ele>85</ele>
        <time>2011-04-30T10:17:02Z</time>
      </trkpt>
      <trkpt lat="48.42815" lon="2.11744">
        <ele>85</ele>
        <time>2011-04-30T10:17:03Z</time>
      </trkpt>
      <trkpt lat="48.42816" lon="2.11744">
        <ele>85</ele>
        <time>2011-04-30T10:17:04Z</time>
      </trkpt>
      <trkpt lat="48.42816" lon="2.11745">
        <ele>85</ele>
        <time>2011-04-30T10:17:05Z</time>
      </trkpt>
      <trkpt lat="48.42816" lon="2.11745">
        <ele>85</ele>
        <time>2011-04-30T10:17:06Z</time>
      </trkpt>
      <trkpt lat="48.42817" lon="2.11745">
        <ele>85</ele>
        <time>2011-04-30T10:17:07Z</time>
      </trkpt>
      <trkpt lat="48.42817" lon="2.11745">
        <ele>85</ele>
        <time>2011-04-30T10:17:08Z</time>
      </trkpt>
      <trkpt lat="48.42817" lon="2.11745">
        <ele>85</ele>
        <time>2011-04-30T10:17:09Z</time>
      </trkpt>
      <trkpt lat="48.42817" lon="2.11745">
        <ele>85</ele>
        <time>2011-04-30T10:17:10Z</time>
      </trkpt>
      <trkpt lat="48.42818" lon="2.11744">
        <ele>85</ele>
        <time>2011-04-30T10:17:11Z</time>
      </trkpt>
      <trkpt lat="48.42818" lon="2.11744">
        <ele>85</ele>
        <time>2011-04-30T10:17:12Z</time>
      </trkpt>
      <trkpt lat="48.42818" lon="2.11744">
        <ele>85</ele>
        <time>2011-04-30T10:17:13Z</time>
      </trkpt>
      <trkpt lat="48.42818" lon="2.11744">
        <ele>85</ele>
        <time>2011-04-30T10:17:14Z</time>
      </trkpt>
      <trkpt lat="48.42818" lon="2.11744">
        <ele>85</ele>
        <time>2011-04-30T10:17:15Z</time>
      </trkpt>
      <trkpt lat="48.42818" lon="2.11744">
        <ele>85</ele>
        <time>2011-04-30T10:17:16Z</time>
      </trkpt>
      <trkpt lat="48.42818" lon="2.11744">
        <ele>85</ele>
        <time>2011-04-30T10:17:17Z</time>
      </trkpt>
      <trkpt lat="48.42818" lon="2.11744">
        <ele>85</ele>
        <time>2011-04-30T10:17:18Z</time>
      </trkpt>
      <trkpt lat="48.42817" lon="2.11744">
        <ele>85</ele>
        <time>2011-04-30T10:17:19Z</time>
      </trkpt>
      <trkpt lat="48.42817" lon="2.11744">
        <ele>85</ele>
        <time>2011-04-30T10:17:20Z</time>
      </trkpt>
      <trkpt lat="48.42816" lon="2.11744">
        <ele>85</ele>
        <time>2011-04-30T10:17:21Z</time>
      </trkpt>
      <trkpt lat="48.42816" lon="2.11744">
        <ele>85</ele>
        <time>2011-04-30T10:17:22Z</time>
      </trkpt>
      <trkpt lat="48.42816" lon="2.11744">
        <ele>85</ele>
        <time>2011-04-30T10:17:23Z</time>
      </trkpt>
      <trkpt lat="48.42816" lon="2.11744">
        <ele>85</ele>
        <time>2011-04-30T10:17:24Z</time>
      </trkpt>
      <trkpt lat="48.42815" lon="2.11744">
        <ele>85</ele>
        <time>2011-04-30T10:17:25Z</time>
      </trkpt>
      <trkpt lat="48.42815" lon="2.11744">
        <ele>85</ele>
        <time>2011-04-30T10:17:26Z</time>
      </trkpt>
      <trkpt lat="48.42815" lon="2.11744">
        <ele>85</ele>
        <time>2011-04-30T10:17:27Z</time>
      </trkpt>
      <trkpt lat="48.42815" lon="2.11744">
        <ele>85</ele>
        <time>2011-04-30T10:17:28Z</time>
      </trkpt>
      <trkpt lat="48.42815" lon="2.11744">
        <ele>85</ele>
        <time>2011-04-30T10:17:29Z</time>
      </trkpt>
      <trkpt lat="48.42815" lon="2.11744">
        <ele>85</ele>
        <time>2011-04-30T10:17:30Z</time>
      </trkpt>
      <trkpt lat="48.42815" lon="2.11744">
        <ele>85</ele>
        <time>2011-04-30T10:17:31Z</time>
      </trkpt>
      <trkpt lat="48.42815" lon="2.11744">
        <ele>85</ele>
        <time>2011-04-30T10:17:32Z</time>
      </trkpt>
      <trkpt lat="48.42815" lon="2.11744">
        <ele>85</ele>
        <time>2011-04-30T10:17:33Z</time>
      </trkpt>
      <trkpt lat="48.42815" lon="2.11744">
        <ele>85</ele>
        <time>2011-04-30T10:17:34Z</time>
      </trkpt>
      <trkpt lat="48.42815" lon="2.11744">
        <ele>85</ele>
        <time>2011-04-30T10:17:35Z</time>
      </trkpt>
      <trkpt lat="48.42815" lon="2.11743">
        <ele>85</ele>
        <time>2011-04-30T10:17:36Z</time>
      </trkpt>
      <trkpt lat="48.42815" lon="2.11743">
        <ele>85</ele>
        <time>2011-04-30T10:17:37Z</time>
      </trkpt>
      <trkpt lat="48.42814" lon="2.11743">
        <ele>85</ele>
        <time>2011-04-30T10:17:38Z</time>
      </trkpt>
      <trkpt lat="48.42814" lon="2.11743">
        <ele>85</ele>
        <time>2011-04-30T10:17:39Z</time>
      </trkpt>
      <trkpt lat="48.42814" lon="2.11743">
        <ele>85</ele>
        <time>2011-04-30T10:17:40Z</time>
      </trkpt>
      <trkpt lat="48.42814" lon="2.11743">
        <ele>85</ele>
        <time>2011-04-30T10:17:41Z</time>
      </trkpt>
      <trkpt lat="48.42814" lon="2.11743">
        <ele>85</ele>
        <time>2011-04-30T10:17:42Z</time>
      </trkpt>
      <trkpt lat="48.42814" lon="2.11743">
        <ele>85</ele>
        <time>2011-04-30T10:17:43Z</time>
      </trkpt>
      <trkpt lat="48.42814" lon="2.11743">
        <ele>85</ele>
        <time>2011-04-30T10:17:44Z</time>
      </trkpt>
      <trkpt lat="48.42814" lon="2.11744">
        <ele>85</ele>
        <time>2011-04-30T10:17:45Z</time>
      </trkpt>
      <trkpt lat="48.42815" lon="2.11745">
        <ele>85</ele>
        <time>2011-04-30T10:17:46Z</time>
      </trkpt>
      <trkpt lat="48.42815" lon="2.11746">
        <ele>85</ele>
        <time>2011-04-30T10:17:47Z</time>
      </trkpt>
      <trkpt lat="48.42815" lon="2.11747">
        <ele>85</ele>
        <time>2011-04-30T10:17:48Z</time>
      </trkpt>
      <trkpt lat="48.42815" lon="2.11747">
        <ele>85</ele>
        <time>2011-04-30T10:17:49Z</time>
      </trkpt>
      <trkpt lat="48.42816" lon="2.11748">
        <ele>85</ele>
        <time>2011-04-30T10:17:50Z</time>
      </trkpt>
      <trkpt lat="48.42816" lon="2.11748">
        <ele>85</ele>
        <time>2011-04-30T10:17:51Z</time>
      </trkpt>
      <trkpt lat="48.42816" lon="2.11748">
        <ele>85</ele>
        <time>2011-04-30T10:17:52Z</time>
      </trkpt>
      <trkpt lat="48.42816" lon="2.11748">
        <ele>85</ele>
        <time>2011-04-30T10:17:53Z</time>
      </trkpt>
      <trkpt lat="48.42816" lon="2.11748">
        <ele>85</ele>
        <time>2011-04-30T10:17:54Z</time>
      </trkpt>
      <trkpt lat="48.42816" lon="2.11749">
        <ele>85</ele>
        <time>2011-04-30T10:17:55Z</time>
      </trkpt>
      <trkpt lat="48.42816" lon="2.11748">
        <ele>85</ele>
        <time>2011-04-30T10:17:56Z</time>
      </trkpt>
      <trkpt lat="48.42816" lon="2.11748">
        <ele>85</ele>
        <time>2011-04-30T10:17:57Z</time>
      </trkpt>
      <trkpt lat="48.42816" lon="2.11747">
        <ele>85</ele>
        <time>2011-04-30T10:17:58Z</time>
      </trkpt>
      <trkpt lat="48.42816" lon="2.11746">
        <ele>85</ele>
        <time>2011-04-30T10:17:59Z</time>
      </trkpt>
      <trkpt lat="48.42817" lon="2.11746">
        <ele>85</ele>
        <time>2011-04-30T10:18:00Z</time>
      </trkpt>
      <trkpt lat="48.42817" lon="2.11745">
        <ele>85</ele>
        <time>2011-04-30T10:18:01Z</time>
      </trkpt>
      <trkpt lat="48.42817" lon="2.11745">
        <ele>85</ele>
        <time>2011-04-30T10:18:02Z</time>
      </trkpt>
      <trkpt lat="48.42817" lon="2.11744">
        <ele>85</ele>
        <time>2011-04-30T10:18:03Z</time>
      </trkpt>
      <trkpt lat="48.42817" lon="2.11743">
        <ele>85</ele>
        <time>2011-04-30T10:18:04Z</time>
      </trkpt>
      <trkpt lat="48.42818" lon="2.11743">
        <ele>85</ele>
        <time>2011-04-30T10:18:05Z</time>
      </trkpt>
      <trkpt lat="48.42818" lon="2.11742">
        <ele>85</ele>
        <time>2011-04-30T10:18:06Z</time>
      </trkpt>
      <trkpt lat="48.42818" lon="2.11742">
        <ele>85</ele>
        <time>2011-04-30T10:18:07Z</time>
      </trkpt>
      <trkpt lat="48.42818" lon="2.11741">
        <ele>85</ele>
        <time>2011-04-30T10:18:08Z</time>
      </trkpt>
      <trkpt lat="48.42819" lon="2.1174">
        <ele>85</ele>
        <time>2011-04-30T10:18:09Z</time>
      </trkpt>
      <trkpt lat="48.42819" lon="2.1174">
        <ele>85</ele>
        <time>2011-04-30T10:18:10Z</time>
      </trkpt>
      <trkpt lat="48.4282" lon="2.11739">
        <ele>85</ele>
        <time>2011-04-30T10:18:11Z</time>
      </trkpt>
      <trkpt lat="48.4282" lon="2.11739">
        <ele>85</ele>
        <time>2011-04-30T10:18:12Z</time>
      </trkpt>
      <trkpt lat="48.4282" lon="2.11738">
        <ele>85</ele>
        <time>2011-04-30T10:18:13Z</time>
      </trkpt>
      <trkpt lat="48.42821" lon="2.11738">
        <ele>85</ele>
        <time>2011-04-30T10:18:14Z</time>
      </trkpt>
      <trkpt lat="48.42821" lon="2.11737">
        <ele>85</ele>
        <time>2011-04-30T10:18:15Z</time>
      </trkpt>
      <trkpt lat="48.42821" lon="2.11737">
        <ele>85</ele>
        <time>2011-04-30T10:18:16Z</time>
      </trkpt>
      <trkpt lat="48.42821" lon="2.11737">
        <ele>85</ele>
        <time>2011-04-30T10:18:17Z</time>
      </trkpt>
      <trkpt lat="48.42822" lon="2.11737">
        <ele>85</ele>
        <time>2011-04-30T10:18:18Z</time>
      </trkpt>
      <trkpt lat="48.42822" lon="2.11737">
        <ele>85</ele>
        <time>2011-04-30T10:18:19Z</time>
      </trkpt>
      <trkpt lat="48.42822" lon="2.11737">
        <ele>85</ele>
        <time>2011-04-30T10:18:20Z</time>
      </trkpt>
      <trkpt lat="48.42822" lon="2.11737">
        <ele>85</ele>
        <time>2011-04-30T10:18:21Z</time>
      </trkpt>
      <trkpt lat="48.42822" lon="2.11737">
        <ele>85</ele>
        <time>2011-04-30T10:18:22Z</time>
      </trkpt>
      <trkpt lat="48.42822" lon="2.11737">
        <ele>85</ele>
        <time>2011-04-30T10:18:23Z</time>
      </trkpt>
      <trkpt lat="48.42822" lon="2.11737">
        <ele>85</ele>
        <time>2011-04-30T10:18:24Z</time>
      </trkpt>
      <trkpt lat="48.42822" lon="2.11737">
        <ele>85</ele>
        <time>2011-04-30T10:18:25Z</time>
      </trkpt>
      <trkpt lat="48.42822" lon="2.11737">
        <ele>85</ele>
        <time>2011-04-30T10:18:26Z</time>
      </trkpt>
      <trkpt lat="48.42821" lon="2.11738">
        <ele>85</ele>
        <time>2011-04-30T10:18:27Z</time>
      </trkpt>
      <trkpt lat="48.42821" lon="2.11738">
        <ele>85</ele>
        <time>2011-04-30T10:18:28Z</time>
      </trkpt>
      <trkpt lat="48.42821" lon="2.11738">
        <ele>85</ele>
        <time>2011-04-30T10:18:29Z</time>
      </trkpt>
      <trkpt lat="48.4282" lon="2.11738">
        <ele>85</ele>
        <time>2011-04-30T10:18:30Z</time>
      </trkpt>
      <trkpt lat="48.4282" lon="2.11739">
        <ele>85</ele>
        <time>2011-04-30T10:18:31Z</time>
      </trkpt>
      <trkpt lat="48.42819" lon="2.11739">
        <ele>85</ele>
        <time>2011-04-30T10:18:32Z</time>
      </trkpt>
      <trkpt lat="48.42819" lon="2.1174">
        <ele>85</ele>
        <time>2011-04-30T10:18:33Z</time>
      </trkpt>
      <trkpt lat="48.42819" lon="2.1174">
        <ele>85</ele>
        <time>2011-04-30T10:18:34Z</time>
      </trkpt>
      <trkpt lat="48.42819" lon="2.1174">
        <ele>85</ele>
        <time>2011-04-30T10:18:35Z</time>
      </trkpt>
      <trkpt lat="48.42818" lon="2.11741">
        <ele>85</ele>
        <time>2011-04-30T10:18:36Z</time>
      </trkpt>
      <trkpt lat="48.42818" lon="2.11741">
        <ele>85</ele>
        <time>2011-04-30T10:18:37Z</time>
      </trkpt>
      <trkpt lat="48.42818" lon="2.11741">
        <ele>85</ele>
        <time>2011-04-30T10:18:38Z</time>
      </trkpt>
      <trkpt lat="48.42818" lon="2.11741">
        <ele>85</ele>
        <time>2011-04-30T10:18:39Z</time>
      </trkpt>
      <trkpt lat="48.42818" lon="2.11741">
        <ele>85</ele>
        <time>2011-04-30T10:18:40Z</time>
      </trkpt>
      <trkpt lat="48.42818" lon="2.11742">
        <ele>85</ele>
        <time>2011-04-30T10:18:41Z</time>
      </trkpt>
      <trkpt lat="48.42818" lon="2.11742">
        <ele>85</ele>
        <time>2011-04-30T10:18:42Z</time>
      </trkpt>
      <trkpt lat="48.42817" lon="2.11742">
        <ele>85</ele>
        <time>2011-04-30T10:18:43Z</time>
      </trkpt>
      <trkpt lat="48.42817" lon="2.11742">
        <ele>85</ele>
        <time>2011-04-30T10:18:44Z</time>
      </trkpt>
      <trkpt lat="48.42817" lon="2.11742">
        <ele>85</ele>
        <time>2011-04-30T10:18:45Z</time>
      </trkpt>
      <trkpt lat="48.42817" lon="2.11742">
        <ele>85</ele>
        <time>2011-04-30T10:18:46Z</time>
      </trkpt>
      <trkpt lat="48.42817" lon="2.11742">
        <ele>85</ele>
        <time>2011-04-30T10:18:47Z</time>
      </trkpt>
      <trkpt lat="48.42817" lon="2.11742">
        <ele>85</ele>
        <time>2011-04-30T10:18:48Z</time>
      </trkpt>
      <trkpt lat="48.42817" lon="2.11742">
        <ele>85</ele>
        <time>2011-04-30T10:18:49Z</time>
      </trkpt>
      <trkpt lat="48.42816" lon="2.11742">
        <ele>85</ele>
        <time>2011-04-30T10:18:50Z</time>
      </trkpt>
      <trkpt lat="48.42816" lon="2.11742">
        <ele>85</ele>
        <time>2011-04-30T10:18:51Z</time>
      </trkpt>
      <trkpt lat="48.42816" lon="2.11742">
        <ele>85</ele>
        <time>2011-04-30T10:18:52Z</time>
      </trkpt>
      <trkpt lat="48.42817" lon="2.11741">
        <ele>85</ele>
        <time>2011-04-30T10:18:53Z</time>
      </trkpt>
      <trkpt lat="48.42817" lon="2.11741">
        <ele>85</ele>
        <time>2011-04-30T10:18:54Z</time>
      </trkpt>
      <trkpt lat="48.42817" lon="2.11741">
        <ele>85</ele>
        <time>2011-04-30T10:18:55Z</time>
      </trkpt>
      <trkpt lat="48.42818" lon="2.11741">
        <ele>85</ele>
        <time>2011-04-30T10:18:56Z</time>
      </trkpt>
      <trkpt lat="48.42818" lon="2.1174">
        <ele>85</ele>
        <time>2011-04-30T10:18:57Z</time>
      </trkpt>
      <trkpt lat="48.42818" lon="2.1174">
        <ele>85</ele>
        <time>2011-04-30T10:18:58Z</time>
      </trkpt>
      <trkpt lat="48.42819" lon="2.1174">
        <ele>85</ele>
        <time>2011-04-30T10:18:59Z</time>
      </trkpt>
      <trkpt lat="48.42819" lon="2.1174">
        <ele>85</ele>
        <time>2011-04-30T10:19:00Z</time>
      </trkpt>
      <trkpt lat="48.42819" lon="2.1174">
        <ele>85</ele>
        <time>2011-04-30T10:19:01Z</time>
      </trkpt>
      <trkpt lat="48.42817" lon="2.11741">
        <ele>85</ele>
        <time>2011-04-30T10:19:45Z</time>
      </trkpt>
      <trkpt lat="48.42817" lon="2.1174">
        <ele>85</ele>
        <time>2011-04-30T10:19:46Z</time>
      </trkpt>
      <trkpt lat="48.42817" lon="2.1174">
        <ele>85</ele>
        <time>2011-04-30T10:19:47Z</time>
      </trkpt>
      <trkpt lat="48.42817" lon="2.11739">
        <ele>85</ele>
        <time>2011-04-30T10:19:48Z</time>
      </trkpt>
      <trkpt lat="48.42817" lon="2.11738">
        <ele>85</ele>
        <time>2011-04-30T10:19:49Z</time>
      </trkpt>
      <trkpt lat="48.42817" lon="2.11737">
        <ele>85</ele>
        <time>2011-04-30T10:19:50Z</time>
      </trkpt>
      <trkpt lat="48.42817" lon="2.11736">
        <ele>85</ele>
        <time>2011-04-30T10:19:51Z</time>
      </trkpt>
      <trkpt lat="48.42817" lon="2.11736">
        <ele>85</ele>
        <time>2011-04-30T10:19:52Z</time>
      </trkpt>
      <trkpt lat="48.42817" lon="2.11735">
        <ele>85</ele>
        <time>2011-04-30T10:19:53Z</time>
      </trkpt>
      <trkpt lat="48.42817" lon="2.11735">
        <ele>85</ele>
        <time>2011-04-30T10:19:54Z</time>
      </trkpt>
      <trkpt lat="48.42817" lon="2.11735">
        <ele>85</ele>
        <time>2011-04-30T10:19:55Z</time>
      </trkpt>
      <trkpt lat="48.42817" lon="2.11735">
        <ele>85</ele>
        <time>2011-04-30T10:19:56Z</time>
      </trkpt>
      <trkpt lat="48.42817" lon="2.11735">
        <ele>85</ele>
        <time>2011-04-30T10:19:57Z</time>
      </trkpt>
      <trkpt lat="48.42817" lon="2.11735">
        <ele>85</ele>
        <time>2011-04-30T10:19:58Z</time>
      </trkpt>
      <trkpt lat="48.42818" lon="2.11735">
        <ele>85</ele>
        <time>2011-04-30T10:19:59Z</time>
      </trkpt>
      <trkpt lat="48.42818" lon="2.11735">
        <ele>85</ele>
        <time>2011-04-30T10:20:00Z</time>
      </trkpt>
      <trkpt lat="48.42818" lon="2.11735">
        <ele>85</ele>
        <time>2011-04-30T10:20:01Z</time>
      </trkpt>
      <trkpt lat="48.42818" lon="2.11735">
        <ele>85</ele>
        <time>2011-04-30T10:20:02Z</time>
      </trkpt>
      <trkpt lat="48.42818" lon="2.11735">
        <ele>85</ele>
        <time>2011-04-30T10:20:03Z</time>
      </trkpt>
      <trkpt lat="48.42818" lon="2.11735">
        <ele>85</ele>
        <time>2011-04-30T10:20:04Z</time>
      </trkpt>
      <trkpt lat="48.42818" lon="2.11736">
        <ele>85</ele>
        <time>2011-04-30T10:20:05Z</time>
      </trkpt>
      <trkpt lat="48.42817" lon="2.11736">
        <ele>85</ele>
        <time>2011-04-30T10:20:06Z</time>
      </trkpt>
      <trkpt lat="48.42817" lon="2.11736">
        <ele>85</ele>
        <time>2011-04-30T10:20:07Z</time>
      </trkpt>
      <trkpt lat="48.42817" lon="2.11736">
        <ele>85</ele>
        <time>2011-04-30T10:20:08Z</time>
      </trkpt>
      <trkpt lat="48.42817" lon="2.11736">
        <ele>85</ele>
        <time>2011-04-30T10:20:09Z</time>
      </trkpt>
      <trkpt lat="48.42816" lon="2.11736">
        <ele>85</ele>
        <time>2011-04-30T10:20:10Z</time>
      </trkpt>
      <trkpt lat="48.42816" lon="2.11736">
        <ele>85</ele>
        <time>2011-04-30T10:20:11Z</time>
      </trkpt>
      <trkpt lat="48.42816" lon="2.11736">
        <ele>85</ele>
        <time>2011-04-30T10:20:12Z</time>
      </trkpt>
      <trkpt lat="48.42816" lon="2.11736">
        <ele>85</ele>
        <time>2011-04-30T10:20:13Z</time>
      </trkpt>
      <trkpt lat="48.42816" lon="2.11736">
        <ele>85</ele>
        <time>2011-04-30T10:20:14Z</time>
      </trkpt>
      <trkpt lat="48.42816" lon="2.11736">
        <ele>85</ele>
        <time>2011-04-30T10:20:15Z</time>
      </trkpt>
      <trkpt lat="48.42816" lon="2.11736">
        <ele>85</ele>
        <time>2011-04-30T10:20:16Z</time>
      </trkpt>
      <trkpt lat="48.42816" lon="2.11736">
        <ele>85</ele>
        <time>2011-04-30T10:20:17Z</time>
      </trkpt>
      <trkpt lat="48.42817" lon="2.11736">
        <ele>85</ele>
        <time>2011-04-30T10:20:18Z</time>
      </trkpt>
      <trkpt lat="48.42817" lon="2.11736">
        <ele>85</ele>
        <time>2011-04-30T10:20:19Z</time>
      </trkpt>
      <trkpt lat="48.42817" lon="2.11736">
        <ele>85</ele>
        <time>2011-04-30T10:20:20Z</time>
      </trkpt>
      <trkpt lat="48.42817" lon="2.11737">
        <ele>85</ele>
        <time>2011-04-30T10:20:21Z</time>
      </trkpt>
      <trkpt lat="48.42817" lon="2.11737">
        <ele>85</ele>
        <time>2011-04-30T10:20:22Z</time>
      </trkpt>
      <trkpt lat="48.42817" lon="2.11737">
        <ele>85</ele>
        <time>2011-04-30T10:20:23Z</time>
      </trkpt>
      <trkpt lat="48.42817" lon="2.11737">
        <ele>85</ele>
        <time>2011-04-30T10:20:24Z</time>
      </trkpt>
      <trkpt lat="48.42817" lon="2.11738">
        <ele>85</ele>
        <time>2011-04-30T10:20:25Z</time>
      </trkpt>
      <trkpt lat="48.42817" lon="2.11738">
        <ele>85</ele>
        <time>2011-04-30T10:20:26Z</time>
      </trkpt>
      <trkpt lat="48.42817" lon="2.11738">
        <ele>85</ele>
        <time>2011-04-30T10:20:27Z</time>
      </trkpt>
      <trkpt lat="48.42817" lon="2.11739">
        <ele>85</ele>
        <time>2011-04-30T10:20:28Z</time>
      </trkpt>
      <trkpt lat="48.42817" lon="2.11739">
        <ele>85</ele>
        <time>2011-04-30T10:20:29Z</time>
      </trkpt>
      <trkpt lat="48.42817" lon="2.1174">
        <ele>85</ele>
        <time>2011-04-30T10:20:30Z</time>
      </trkpt>
      <trkpt lat="48.42816" lon="2.1174">
        <ele>85</ele>
        <time>2011-04-30T10:20:31Z</time>
      </trkpt>
      <trkpt lat="48.42816" lon="2.11741">
        <ele>85</ele>
        <time>2011-04-30T10:20:32Z</time>
      </trkpt>
      <trkpt lat="48.42815" lon="2.11741">
        <ele>85</ele>
        <time>2011-04-30T10:20:33Z</time>
      </trkpt>
      <trkpt lat="48.42815" lon="2.11741">
        <ele>85</ele>
        <time>2011-04-30T10:20:34Z</time>
      </trkpt>
      <trkpt lat="48.42814" lon="2.11742">
        <ele>85</ele>
        <time>2011-04-30T10:20:35Z</time>
      </trkpt>
      <trkpt lat="48.42813" lon="2.11742">
        <ele>85</ele>
        <time>2011-04-30T10:20:36Z</time>
      </trkpt>
      <trkpt lat="48.42813" lon="2.11742">
        <ele>85</ele>
        <time>2011-04-30T10:20:37Z</time>
      </trkpt>
      <trkpt lat="48.42813" lon="2.11743">
        <ele>85</ele>
        <time>2011-04-30T10:20:38Z</time>
      </trkpt>
      <trkpt lat="48.42812" lon="2.11743">
        <ele>85</ele>
        <time>2011-04-30T10:20:39Z</time>
      </trkpt>
      <trkpt lat="48.42812" lon="2.11743">
        <ele>85</ele>
        <time>2011-04-30T10:20:40Z</time>
      </trkpt>
      <trkpt lat="48.42812" lon="2.11744">
        <ele>85</ele>
        <time>2011-04-30T10:20:41Z</time>
      </trkpt>
      <trkpt lat="48.42812" lon="2.11744">
        <ele>85</ele>
        <time>2011-04-30T10:20:42Z</time>
      </trkpt>
      <trkpt lat="48.42812" lon="2.11744">
        <ele>85</ele>
        <time>2011-04-30T10:20:43Z</time>
      </trkpt>
      <trkpt lat="48.42812" lon="2.11744">
        <ele>85</ele>
        <time>2011-04-30T10:20:44Z</time>
      </trkpt>
      <trkpt lat="48.42812" lon="2.11744">
        <ele>85</ele>
        <time>2011-04-30T10:20:45Z</time>
      </trkpt>
      <trkpt lat="48.42812" lon="2.11745">
        <ele>85</ele>
        <time>2011-04-30T10:20:46Z</time>
      </trkpt>
      <trkpt lat="48.42812" lon="2.11745">
        <ele>85</ele>
        <time>2011-04-30T10:20:47Z</time>
      </trkpt>
      <trkpt lat="48.42812" lon="2.11745">
        <ele>85</ele>
        <time>2011-04-30T10:20:48Z</time>
      </trkpt>
      <trkpt lat="48.42812" lon="2.11745">
        <ele>85</ele>
        <time>2011-04-30T10:20:49Z</time>
      </trkpt>
      <trkpt lat="48.42812" lon="2.11745">
        <ele>85</ele>
        <time>2011-04-30T10:20:50Z</time>
      </trkpt>
      <trkpt lat="48.42812" lon="2.11745">
        <ele>85</ele>
        <time>2011-04-30T10:20:51Z</time>
      </trkpt>
      <trkpt lat="48.42812" lon="2.11744">
        <ele>85</ele>
        <time>2011-04-30T10:20:52Z</time>
      </trkpt>
      <trkpt lat="48.42812" lon="2.11744">
        <ele>85</ele>
        <time>2011-04-30T10:20:53Z</time>
      </trkpt>
      <trkpt lat="48.42812" lon="2.11744">
        <ele>85</ele>
        <time>2011-04-30T10:20:54Z</time>
      </trkpt>
      <trkpt lat="48.42812" lon="2.11743">
        <ele>85</ele>
        <time>2011-04-30T10:20:55Z</time>
      </trkpt>
      <trkpt lat="48.42812" lon="2.11743">
        <ele>85</ele>
        <time>2011-04-30T10:20:56Z</time>
      </trkpt>
      <trkpt lat="48.42812" lon="2.11743">
        <ele>85</ele>
        <time>2011-04-30T10:20:57Z</time>
      </trkpt>
      <trkpt lat="48.42812" lon="2.11744">
        <ele>85</ele>
        <time>2011-04-30T10:20:58Z</time>
      </trkpt>
      <trkpt lat="48.42811" lon="2.11745">
        <ele>85</ele>
        <time>2011-04-30T10:20:59Z</time>
      </trkpt>
      <trkpt lat="48.42811" lon="2.11746">
        <ele>85</ele>
        <time>2011-04-30T10:21:00Z</time>
      </trkpt>
      <trkpt lat="48.42811" lon="2.11748">
        <ele>85</ele>
        <time>2011-04-30T10:21:01Z</time>
      </trkpt>
      <trkpt lat="48.42812" lon="2.1175">
        <ele>85</ele>
        <time>2011-04-30T10:21:02Z</time>
      </trkpt>
      <trkpt lat="48.42812" lon="2.11752">
        <ele>86</ele>
        <time>2011-04-30T10:21:03Z</time>
      </trkpt>
      <trkpt lat="48.42813" lon="2.11753">
        <ele>86</ele>
        <time>2011-04-30T10:21:04Z</time>
      </trkpt>
      <trkpt lat="48.42813" lon="2.11754">
        <ele>86</ele>
        <time>2011-04-30T10:21:05Z</time>
      </trkpt>
      <trkpt lat="48.42814" lon="2.11755">
        <ele>86</ele>
        <time>2011-04-30T10:21:06Z</time>
      </trkpt>
      <trkpt lat="48.42815" lon="2.11756">
        <ele>86</ele>
        <time>2011-04-30T10:21:07Z</time>
      </trkpt>
      <trkpt lat="48.42816" lon="2.11756">
        <ele>86</ele>
        <time>2011-04-30T10:21:08Z</time>
      </trkpt>
      <trkpt lat="48.42816" lon="2.11755">
        <ele>86</ele>
        <time>2011-04-30T10:21:09Z</time>
      </trkpt>
      <trkpt lat="48.42817" lon="2.11754">
        <ele>86</ele>
        <time>2011-04-30T10:21:10Z</time>
      </trkpt>
      <trkpt lat="48.42817" lon="2.11754">
        <ele>86</ele>
        <time>2011-04-30T10:21:11Z</time>
      </trkpt>
      <trkpt lat="48.42817" lon="2.11754">
        <ele>86</ele>
        <time>2011-04-30T10:21:12Z</time>
      </trkpt>
      <trkpt lat="48.42818" lon="2.11753">
        <ele>86</ele>
        <time>2011-04-30T10:21:13Z</time>
      </trkpt>
      <trkpt lat="48.42818" lon="2.11753">
        <ele>86</ele>
        <time>2011-04-30T10:21:14Z</time>
      </trkpt>
      <trkpt lat="48.42818" lon="2.11753">
        <ele>86</ele>
        <time>2011-04-30T10:21:15Z</time>
      </trkpt>
      <trkpt lat="48.42818" lon="2.11753">
        <ele>86</ele>
        <time>2011-04-30T10:21:16Z</time>
      </trkpt>
      <trkpt lat="48.42818" lon="2.11753">
        <ele>86</ele>
        <time>2011-04-30T10:21:17Z</time>
      </trkpt>
      <trkpt lat="48.42818" lon="2.11752">
        <ele>86</ele>
        <time>2011-04-30T10:21:18Z</time>
      </trkpt>
      <trkpt lat="48.42818" lon="2.11752">
        <ele>86</ele>
        <time>2011-04-30T10:21:19Z</time>
      </trkpt>
      <trkpt lat="48.42818" lon="2.11752">
        <ele>86</ele>
        <time>2011-04-30T10:21:20Z</time>
      </trkpt>
      <trkpt lat="48.42818" lon="2.11752">
        <ele>86</ele>
        <time>2011-04-30T10:21:21Z</time>
      </trkpt>
      <trkpt lat="48.42819" lon="2.11751">
        <ele>86</ele>
        <time>2011-04-30T10:21:22Z</time>
      </trkpt>
      <trkpt lat="48.42819" lon="2.11751">
        <ele>86</ele>
        <time>2011-04-30T10:21:23Z</time>
      </trkpt>
      <trkpt lat="48.42819" lon="2.11751">
        <ele>86</ele>
        <time>2011-04-30T10:21:24Z</time>
      </trkpt>
      <trkpt lat="48.42819" lon="2.11751">
        <ele>86</ele>
        <time>2011-04-30T10:21:25Z</time>
      </trkpt>
      <trkpt lat="48.42819" lon="2.11751">
        <ele>86</ele>
        <time>2011-04-30T10:21:26Z</time>
      </trkpt>
      <trkpt lat="48.42819" lon="2.11751">
        <ele>86</ele>
        <time>2011-04-30T10:21:27Z</time>
      </trkpt>
      <trkpt lat="48.42819" lon="2.11751">
        <ele>86</ele>
        <time>2011-04-30T10:21:28Z</time>
      </trkpt>
      <trkpt lat="48.42819" lon="2.11752">
        <ele>86</ele>
        <time>2011-04-30T10:21:29Z</time>
      </trkpt>
      <trkpt lat="48.42819" lon="2.11752">
        <ele>86</ele>
        <time>2011-04-30T10:21:30Z</time>
      </trkpt>
      <trkpt lat="48.42819" lon="2.11752">
        <ele>86</ele>
        <time>2011-04-30T10:21:31Z</time>
      </trkpt>
      <trkpt lat="48.4282" lon="2.11753">
        <ele>86</ele>
        <time>2011-04-30T10:21:32Z</time>
      </trkpt>
      <trkpt lat="48.4282" lon="2.11754">
        <ele>87</ele>
        <time>2011-04-30T10:21:33Z</time>
      </trkpt>
      <trkpt lat="48.42821" lon="2.11755">
        <ele>87</ele>
        <time>2011-04-30T10:21:34Z</time>
      </trkpt>
      <trkpt lat="48.42821" lon="2.11756">
        <ele>87</ele>
        <time>2011-04-30T10:21:35Z</time>
      </trkpt>
      <trkpt lat="48.42821" lon="2.11757">
        <ele>87</ele>
        <time>2011-04-30T10:21:36Z</time>
      </trkpt>
      <trkpt lat="48.42822" lon="2.11758">
        <ele>87</ele>
        <time>2011-04-30T10:21:37Z</time>
      </trkpt>
      <trkpt lat="48.42822" lon="2.11759">
        <ele>87</ele>
        <time>2011-04-30T10:21:38Z</time>
      </trkpt>
      <trkpt lat="48.42823" lon="2.1176">
        <ele>87</ele>
        <time>2011-04-30T10:21:39Z</time>
      </trkpt>
      <trkpt lat="48.42823" lon="2.1176">
        <ele>87</ele>
        <time>2011-04-30T10:21:40Z</time>
      </trkpt>
      <trkpt lat="48.42823" lon="2.1176">
        <ele>87</ele>
        <time>2011-04-30T10:21:41Z</time>
      </trkpt>
      <trkpt lat="48.42823" lon="2.11759">
        <ele>87</ele>
        <time>2011-04-30T10:21:42Z</time>
      </trkpt>
      <trkpt lat="48.42823" lon="2.11759">
        <ele>87</ele>
        <time>2011-04-30T10:21:43Z</time>
      </trkpt>
      <trkpt lat="48.42822" lon="2.11759">
        <ele>87</ele>
        <time>2011-04-30T10:21:44Z</time>
      </trkpt>
      <trkpt lat="48.42822" lon="2.1176">
        <ele>87</ele>
        <time>2011-04-30T10:21:45Z</time>
      </trkpt>
      <trkpt lat="48.42822" lon="2.1176">
        <ele>87</ele>
        <time>2011-04-30T10:21:46Z</time>
      </trkpt>
      <trkpt lat="48.42821" lon="2.1176">
        <ele>87</ele>
        <time>2011-04-30T10:21:47Z</time>
      </trkpt>
      <trkpt lat="48.42821" lon="2.1176">
        <ele>87</ele>
        <time>2011-04-30T10:21:48Z</time>
      </trkpt>
      <trkpt lat="48.42821" lon="2.11761">
        <ele>87</ele>
        <time>2011-04-30T10:21:49Z</time>
      </trkpt>
      <trkpt lat="48.42821" lon="2.11761">
        <ele>87</ele>
        <time>2011-04-30T10:21:50Z</time>
      </trkpt>
      <trkpt lat="48.42821" lon="2.11761">
        <ele>87</ele>
        <time>2011-04-30T10:21:51Z</time>
      </trkpt>
      <trkpt lat="48.42822" lon="2.1176">
        <ele>87</ele>
        <time>2011-04-30T10:21:52Z</time>
      </trkpt>
      <trkpt lat="48.42822" lon="2.11759">
        <ele>87</ele>
        <time>2011-04-30T10:21:53Z</time>
      </trkpt>
      <trkpt lat="48.42823" lon="2.11759">
        <ele>87</ele>
        <time>2011-04-30T10:21:54Z</time>
      </trkpt>
      <trkpt lat="48.42823" lon="2.11758">
        <ele>87</ele>
        <time>2011-04-30T10:21:55Z</time>
      </trkpt>
      <trkpt lat="48.42823" lon="2.11758">
        <ele>87</ele>
        <time>2011-04-30T10:21:56Z</time>
      </trkpt>
      <trkpt lat="48.42823" lon="2.11757">
        <ele>87</ele>
        <time>2011-04-30T10:21:57Z</time>
      </trkpt>
      <trkpt lat="48.42823" lon="2.11757">
        <ele>87</ele>
        <time>2011-04-30T10:21:58Z</time>
      </trkpt>
      <trkpt lat="48.42823" lon="2.11757">
        <ele>87</ele>
        <time>2011-04-30T10:21:59Z</time>
      </trkpt>
      <trkpt lat="48.42823" lon="2.11756">
        <ele>87</ele>
        <time>2011-04-30T10:22:00Z</time>
      </trkpt>
      <trkpt lat="48.42823" lon="2.11756">
        <ele>87</ele>
        <time>2011-04-30T10:22:01Z</time>
      </trkpt>
      <trkpt lat="48.42823" lon="2.11756">
        <ele>87</ele>
        <time>2011-04-30T10:22:02Z</time>
      </trkpt>
      <trkpt lat="48.42822" lon="2.11755">
        <ele>87</ele>
        <time>2011-04-30T10:22:03Z</time>
      </trkpt>
      <trkpt lat="48.42822" lon="2.11755">
        <ele>87</ele>
        <time>2011-04-30T10:22:04Z</time>
      </trkpt>
      <trkpt lat="48.42822" lon="2.11755">
        <ele>87</ele>
        <time>2011-04-30T10:22:05Z</time>
      </trkpt>
      <trkpt lat="48.42822" lon="2.11754">
        <ele>87</ele>
        <time>2011-04-30T10:22:06Z</time>
      </trkpt>
      <trkpt lat="48.42821" lon="2.11754">
        <ele>87</ele>
        <time>2011-04-30T10:22:07Z</time>
      </trkpt>
      <trkpt lat="48.42821" lon="2.11754">
        <ele>87</ele>
        <time>2011-04-30T10:22:08Z</time>
      </trkpt>
      <trkpt lat="48.42821" lon="2.11754">
        <ele>87</ele>
        <time>2011-04-30T10:22:09Z</time>
      </trkpt>
      <trkpt lat="48.42821" lon="2.11754">
        <ele>87</ele>
        <time>2011-04-30T10:22:10Z</time>
      </trkpt>
      <trkpt lat="48.42821" lon="2.11754">
        <ele>87</ele>
        <time>2011-04-30T10:22:11Z</time>
      </trkpt>
      <trkpt lat="48.42821" lon="2.11754">
        <ele>87</ele>
        <time>2011-04-30T10:22:12Z</time>
      </trkpt>
      <trkpt lat="48.42821" lon="2.11754">
        <ele>87</ele>
        <time>2011-04-30T10:22:13Z</time>
      </trkpt>
      <trkpt lat="48.4282" lon="2.11753">
        <ele>87</ele>
        <time>2011-04-30T10:22:14Z</time>
      </trkpt>
      <trkpt lat="48.4282" lon="2.11753">
        <ele>87</ele>
        <time>2011-04-30T10:22:15Z</time>
      </trkpt>
      <trkpt lat="48.4282" lon="2.11752">
        <ele>86</ele>
        <time>2011-04-30T10:22:16Z</time>
      </trkpt>
      <trkpt lat="48.42819" lon="2.11752">
        <ele>86</ele>
        <time>2011-04-30T10:22:17Z</time>
      </trkpt>
      <trkpt lat="48.42819" lon="2.11751">
        <ele>86</ele>
        <time>2011-04-30T10:22:18Z</time>
      </trkpt>
      <trkpt lat="48.42819" lon="2.11751">
        <ele>86</ele>
        <time>2011-04-30T10:22:19Z</time>
      </trkpt>
      <trkpt lat="48.42819" lon="2.1175">
        <ele>86</ele>
        <time>2011-04-30T10:22:20Z</time>
      </trkpt>
      <trkpt lat="48.42818" lon="2.1175">
        <ele>85</ele>
        <time>2011-04-30T10:22:21Z</time>
      </trkpt>
      <trkpt lat="48.42818" lon="2.1175">
        <ele>85</ele>
        <time>2011-04-30T10:22:22Z</time>
      </trkpt>
      <trkpt lat="48.42818" lon="2.1175">
        <ele>85</ele>
        <time>2011-04-30T10:22:23Z</time>
      </trkpt>
      <trkpt lat="48.42818" lon="2.11749">
        <ele>85</ele>
        <time>2011-04-30T10:22:24Z</time>
      </trkpt>
      <trkpt lat="48.42818" lon="2.11749">
        <ele>85</ele>
        <time>2011-04-30T10:22:25Z</time>
      </trkpt>
      <trkpt lat="48.42818" lon="2.11749">
        <ele>85</ele>
        <time>2011-04-30T10:22:26Z</time>
      </trkpt>
      <trkpt lat="48.42819" lon="2.11749">
        <ele>85</ele>
        <time>2011-04-30T10:22:27Z</time>
      </trkpt>
      <trkpt lat="48.42819" lon="2.11749">
        <ele>85</ele>
        <time>2011-04-30T10:22:28Z</time>
      </trkpt>
      <trkpt lat="48.42819" lon="2.11749">
        <ele>85</ele>
        <time>2011-04-30T10:22:29Z</time>
      </trkpt>
      <trkpt lat="48.42819" lon="2.11749">
        <ele>85</ele>
        <time>2011-04-30T10:22:30Z</time>
      </trkpt>
      <trkpt lat="48.42819" lon="2.11749">
        <ele>85</ele>
        <time>2011-04-30T10:22:31Z</time>
      </trkpt>
      <trkpt lat="48.42819" lon="2.11749">
        <ele>85</ele>
        <time>2011-04-30T10:22:32Z</time>
      </trkpt>
      <trkpt lat="48.42819" lon="2.11749">
        <ele>85</ele>
        <time>2011-04-30T10:22:33Z</time>
      </trkpt>
      <trkpt lat="48.42819" lon="2.11749">
        <ele>85</ele>
        <time>2011-04-30T10:22:34Z</time>
      </trkpt>
      <trkpt lat="48.42819" lon="2.11749">
        <ele>85</ele>
        <time>2011-04-30T10:22:35Z</time>
      </trkpt>
      <trkpt lat="48.42819" lon="2.11749">
        <ele>85</ele>
        <time>2011-04-30T10:22:36Z</time>
      </trkpt>
      <trkpt lat="48.42819" lon="2.11749">
        <ele>85</ele>
        <time>2011-04-30T10:22:37Z</time>
      </trkpt>
      <trkpt lat="48.42819" lon="2.11749">
        <ele>85</ele>
        <time>2011-04-30T10:22:38Z</time>
      </trkpt>
      <trkpt lat="48.42818" lon="2.11749">
        <ele>85</ele>
        <time>2011-04-30T10:22:39Z</time>
      </trkpt>
      <trkpt lat="48.42818" lon="2.11749">
        <ele>85</ele>
        <time>2011-04-30T10:22:40Z</time>
      </trkpt>
      <trkpt lat="48.42818" lon="2.11749">
        <ele>85</ele>
        <time>2011-04-30T10:22:41Z</time>
      </trkpt>
      <trkpt lat="48.42818" lon="2.11749">
        <ele>85</ele>
        <time>2011-04-30T10:22:42Z</time>
      </trkpt>
      <trkpt lat="48.42817" lon="2.11749">
        <ele>85</ele>
        <time>2011-04-30T10:22:43Z</time>
      </trkpt>
      <trkpt lat="48.42817" lon="2.11749">
        <ele>85</ele>
        <time>2011-04-30T10:22:44Z</time>
      </trkpt>
      <trkpt lat="48.42817" lon="2.11749">
        <ele>85</ele>
        <time>2011-04-30T10:22:45Z</time>
      </trkpt>
      <trkpt lat="48.42817" lon="2.11749">
        <ele>85</ele>
        <time>2011-04-30T10:22:46Z</time>
      </trkpt>
      <trkpt lat="48.42817" lon="2.11749">
        <ele>85</ele>
        <time>2011-04-30T10:22:47Z</time>
      </trkpt>
      <trkpt lat="48.42817" lon="2.11749">
        <ele>85</ele>
        <time>2011-04-30T10:22:48Z</time>
      </trkpt>
      <trkpt lat="48.42817" lon="2.11749">
        <ele>85</ele>
        <time>2011-04-30T10:22:49Z</time>
      </trkpt>
      <trkpt lat="48.42817" lon="2.11749">
        <ele>85</ele>
        <time>2011-04-30T10:22:50Z</time>
      </trkpt>
      <trkpt lat="48.42817" lon="2.11749">
        <ele>85</ele>
        <time>2011-04-30T10:22:51Z</time>
      </trkpt>
      <trkpt lat="48.42817" lon="2.11749">
        <ele>85</ele>
        <time>2011-04-30T10:22:52Z</time>
      </trkpt>
      <trkpt lat="48.42817" lon="2.11749">
        <ele>85</ele>
        <time>2011-04-30T10:22:53Z</time>
      </trkpt>
      <trkpt lat="48.42817" lon="2.11749">
        <ele>85</ele>
        <time>2011-04-30T10:22:54Z</time>
      </trkpt>
      <trkpt lat="48.42817" lon="2.11749">
        <ele>85</ele>
        <time>2011-04-30T10:22:55Z</time>
      </trkpt>
      <trkpt lat="48.42817" lon="2.11749">
        <ele>85</ele>
        <time>2011-04-30T10:22:56Z</time>
      </trkpt>
      <trkpt lat="48.42817" lon="2.11749">
        <ele>85</ele>
        <time>2011-04-30T10:22:57Z</time>
      </trkpt>
      <trkpt lat="48.42817" lon="2.11749">
        <ele>85</ele>
        <time>2011-04-30T10:22:58Z</time>
      </trkpt>
      <trkpt lat="48.42817" lon="2.11749">
        <ele>85</ele>
        <time>2011-04-30T10:22:59Z</time>
      </trkpt>
      <trkpt lat="48.42817" lon="2.11749">
        <ele>85</ele>
        <time>2011-04-30T10:23:00Z</time>
      </trkpt>
      <trkpt lat="48.42817" lon="2.11749">
        <ele>85</ele>
        <time>2011-04-30T10:23:01Z</time>
      </trkpt>
      <trkpt lat="48.42818" lon="2.11749">
        <ele>85</ele>
        <time>2011-04-30T10:23:02Z</time>
      </trkpt>
      <trkpt lat="48.42818" lon="2.11748">
        <ele>85</ele>
        <time>2011-04-30T10:23:03Z</time>
      </trkpt>
      <trkpt lat="48.42818" lon="2.11748">
        <ele>85</ele>
        <time>2011-04-30T10:23:04Z</time>
      </trkpt>
      <trkpt lat="48.42818" lon="2.11748">
        <ele>85</ele>
        <time>2011-04-30T10:23:05Z</time>
      </trkpt>
      <trkpt lat="48.42818" lon="2.11748">
        <ele>85</ele>
        <time>2011-04-30T10:23:06Z</time>
      </trkpt>
      <trkpt lat="48.42818" lon="2.11748">
        <ele>85</ele>
        <time>2011-04-30T10:23:07Z</time>
      </trkpt>
      <trkpt lat="48.42818" lon="2.11748">
        <ele>85</ele>
        <time>2011-04-30T10:23:08Z</time>
      </trkpt>
      <trkpt lat="48.42818" lon="2.11748">
        <ele>85</ele>
        <time>2011-04-30T10:23:09Z</time>
      </trkpt>
      <trkpt lat="48.42818" lon="2.11748">
        <ele>85</ele>
        <time>2011-04-30T10:23:10Z</time>
      </trkpt>
      <trkpt lat="48.42818" lon="2.11748">
        <ele>85</ele>
        <time>2011-04-30T10:23:11Z</time>
      </trkpt>
      <trkpt lat="48.42818" lon="2.11748">
        <ele>85</ele>
        <time>2011-04-30T10:23:12Z</time>
      </trkpt>
      <trkpt lat="48.42818" lon="2.11748">
        <ele>85</ele>
        <time>2011-04-30T10:23:13Z</time>
      </trkpt>
      <trkpt lat="48.42818" lon="2.11748">
        <ele>85</ele>
        <time>2011-04-30T10:23:14Z</time>
      </trkpt>
      <trkpt lat="48.42818" lon="2.11748">
        <ele>85</ele>
        <time>2011-04-30T10:23:15Z</time>
      </trkpt>
      <trkpt lat="48.42818" lon="2.11748">
        <ele>85</ele>
        <time>2011-04-30T10:23:16Z</time>
      </trkpt>
      <trkpt lat="48.42818" lon="2.11748">
        <ele>85</ele>
        <time>2011-04-30T10:23:17Z</time>
      </trkpt>
      <trkpt lat="48.42818" lon="2.11748">
        <ele>85</ele>
        <time>2011-04-30T10:23:18Z</time>
      </trkpt>
      <trkpt lat="48.42818" lon="2.11748">
        <ele>85</ele>
        <time>2011-04-30T10:23:19Z</time>
      </trkpt>
      <trkpt lat="48.42818" lon="2.11748">
        <ele>85</ele>
        <time>2011-04-30T10:23:20Z</time>
      </trkpt>
      <trkpt lat="48.42818" lon="2.11747">
        <ele>85</ele>
        <time>2011-04-30T10:23:21Z</time>
      </trkpt>
      <trkpt lat="48.42818" lon="2.11747">
        <ele>85</ele>
        <time>2011-04-30T10:23:22Z</time>
      </trkpt>
      <trkpt lat="48.42818" lon="2.11747">
        <ele>85</ele>
        <time>2011-04-30T10:23:23Z</time>
      </trkpt>
      <trkpt lat="48.42818" lon="2.11747">
        <ele>85</ele>
        <time>2011-04-30T10:23:24Z</time>
      </trkpt>
      <trkpt lat="48.42818" lon="2.11747">
        <ele>85</ele>
        <time>2011-04-30T10:23:25Z</time>
      </trkpt>
      <trkpt lat="48.42818" lon="2.11746">
        <ele>85</ele>
        <time>2011-04-30T10:23:26Z</time>
      </trkpt>
      <trkpt lat="48.42817" lon="2.11746">
        <ele>85</ele>
        <time>2011-04-30T10:23:27Z</time>
      </trkpt>
      <trkpt lat="48.42817" lon="2.11746">
        <ele>85</ele>
        <time>2011-04-30T10:23:28Z</time>
      </trkpt>
      <trkpt lat="48.42817" lon="2.11746">
        <ele>85</ele>
        <time>2011-04-30T10:23:29Z</time>
      </trkpt>
      <trkpt lat="48.42817" lon="2.11746">
        <ele>85</ele>
        <time>2011-04-30T10:23:30Z</time>
      </trkpt>
      <trkpt lat="48.42817" lon="2.11745">
        <ele>85</ele>
        <time>2011-04-30T10:23:31Z</time>
      </trkpt>
      <trkpt lat="48.42817" lon="2.11745">
        <ele>85</ele>
        <time>2011-04-30T10:23:32Z</time>
      </trkpt>
      <trkpt lat="48.42817" lon="2.11745">
        <ele>85</ele>
        <time>2011-04-30T10:23:33Z</time>
      </trkpt>
      <trkpt lat="48.42817" lon="2.11745">
        <ele>85</ele>
        <time>2011-04-30T10:23:34Z</time>
      </trkpt>
      <trkpt lat="48.42817" lon="2.11745">
        <ele>85</ele>
        <time>2011-04-30T10:23:35Z</time>
      </trkpt>
      <trkpt lat="48.42816" lon="2.11744">
        <ele>85</ele>
        <time>2011-04-30T10:23:36Z</time>
      </trkpt>
      <trkpt lat="48.42816" lon="2.11744">
        <ele>85</ele>
        <time>2011-04-30T10:23:37Z</time>
      </trkpt>
      <trkpt lat="48.42816" lon="2.11744">
        <ele>85</ele>
        <time>2011-04-30T10:23:38Z</time>
      </trkpt>
      <trkpt lat="48.42816" lon="2.11744">
        <ele>85</ele>
        <time>2011-04-30T10:23:39Z</time>
      </trkpt>
      <trkpt lat="48.42816" lon="2.11743">
        <ele>85</ele>
        <time>2011-04-30T10:23:40Z</time>
      </trkpt>
      <trkpt lat="48.42815" lon="2.11743">
        <ele>85</ele>
        <time>2011-04-30T10:23:41Z</time>
      </trkpt>
      <trkpt lat="48.42815" lon="2.11743">
        <ele>85</ele>
        <time>2011-04-30T10:23:42Z</time>
      </trkpt>
      <trkpt lat="48.42815" lon="2.11743">
        <ele>85</ele>
        <time>2011-04-30T10:23:43Z</time>
      </trkpt>
      <trkpt lat="48.42815" lon="2.11743">
        <ele>85</ele>
        <time>2011-04-30T10:23:44Z</time>
      </trkpt>
      <trkpt lat="48.42815" lon="2.11742">
        <ele>85</ele>
        <time>2011-04-30T10:23:45Z</time>
      </trkpt>
      <trkpt lat="48.42814" lon="2.11742">
        <ele>85</ele>
        <time>2011-04-30T10:23:46Z</time>
      </trkpt>
      <trkpt lat="48.42814" lon="2.11742">
        <ele>85</ele>
        <time>2011-04-30T10:23:47Z</time>
      </trkpt>
      <trkpt lat="48.42814" lon="2.11742">
        <ele>85</ele>
        <time>2011-04-30T10:23:48Z</time>
      </trkpt>
      <trkpt lat="48.42813" lon="2.11742">
        <ele>85</ele>
        <time>2011-04-30T10:23:49Z</time>
      </trkpt>
      <trkpt lat="48.42813" lon="2.11741">
        <ele>85</ele>
        <time>2011-04-30T10:23:50Z</time>
      </trkpt>
      <trkpt lat="48.42813" lon="2.11741">
        <ele>85</ele>
        <time>2011-04-30T10:23:51Z</time>
      </trkpt>
      <trkpt lat="48.42812" lon="2.11741">
        <ele>85</ele>
        <time>2011-04-30T10:23:52Z</time>
      </trkpt>
      <trkpt lat="48.42812" lon="2.11741">
        <ele>84</ele>
        <time>2011-04-30T10:23:53Z</time>
      </trkpt>
      <trkpt lat="48.42811" lon="2.1174">
        <ele>84</ele>
        <time>2011-04-30T10:23:54Z</time>
      </trkpt>
      <trkpt lat="48.42811" lon="2.1174">
        <ele>84</ele>
        <time>2011-04-30T10:23:55Z</time>
      </trkpt>
      <trkpt lat="48.42811" lon="2.11739">
        <ele>84</ele>
        <time>2011-04-30T10:23:56Z</time>
      </trkpt>
      <trkpt lat="48.4281" lon="2.11739">
        <ele>84</ele>
        <time>2011-04-30T10:23:57Z</time>
      </trkpt>
      <trkpt lat="48.4281" lon="2.11739">
        <ele>84</ele>
        <time>2011-04-30T10:23:58Z</time>
      </trkpt>
      <trkpt lat="48.42809" lon="2.11738">
        <ele>84</ele>
        <time>2011-04-30T10:23:59Z</time>
      </trkpt>
      <trkpt lat="48.42809" lon="2.11738">
        <ele>84</ele>
        <time>2011-04-30T10:24:00Z</time>
      </trkpt>
      <trkpt lat="48.42808" lon="2.11738">
        <ele>84</ele>
        <time>2011-04-30T10:24:01Z</time>
      </trkpt>
      <trkpt lat="48.42808" lon="2.11737">
        <ele>84</ele>
        <time>2011-04-30T10:24:02Z</time>
      </trkpt>
      <trkpt lat="48.42808" lon="2.11737">
        <ele>84</ele>
        <time>2011-04-30T10:24:03Z</time>
      </trkpt>
      <trkpt lat="48.42808" lon="2.11737">
        <ele>84</ele>
        <time>2011-04-30T10:24:04Z</time>
      </trkpt>
      <trkpt lat="48.42807" lon="2.11737">
        <ele>84</ele>
        <time>2011-04-30T10:24:05Z</time>
      </trkpt>
      <trkpt lat="48.42807" lon="2.11736">
        <ele>84</ele>
        <time>2011-04-30T10:24:06Z</time>
      </trkpt>
      <trkpt lat="48.42807" lon="2.11736">
        <ele>84</ele>
        <time>2011-04-30T10:24:07Z</time>
      </trkpt>
      <trkpt lat="48.42807" lon="2.11736">
        <ele>84</ele>
        <time>2011-04-30T10:24:08Z</time>
      </trkpt>
      <trkpt lat="48.42806" lon="2.11735">
        <ele>84</ele>
        <time>2011-04-30T10:24:09Z</time>
      </trkpt>
      <trkpt lat="48.42806" lon="2.11735">
        <ele>84</ele>
        <time>2011-04-30T10:24:10Z</time>
      </trkpt>
      <trkpt lat="48.42806" lon="2.11735">
        <ele>84</ele>
        <time>2011-04-30T10:24:11Z</time>
      </trkpt>
      <trkpt lat="48.42806" lon="2.11734">
        <ele>84</ele>
        <time>2011-04-30T10:24:12Z</time>
      </trkpt>
      <trkpt lat="48.42806" lon="2.11734">
        <ele>84</ele>
        <time>2011-04-30T10:24:13Z</time>
      </trkpt>
      <trkpt lat="48.42805" lon="2.11734">
        <ele>84</ele>
        <time>2011-04-30T10:24:14Z</time>
      </trkpt>
      <trkpt lat="48.42805" lon="2.11734">
        <ele>84</ele>
        <time>2011-04-30T10:24:15Z</time>
      </trkpt>
      <trkpt lat="48.42805" lon="2.11733">
        <ele>84</ele>
        <time>2011-04-30T10:24:16Z</time>
      </trkpt>
      <trkpt lat="48.42805" lon="2.11733">
        <ele>84</ele>
        <time>2011-04-30T10:24:17Z</time>
      </trkpt>
      <trkpt lat="48.42805" lon="2.11733">
        <ele>84</ele>
        <time>2011-04-30T10:24:18Z</time>
      </trkpt>
      <trkpt lat="48.42805" lon="2.11733">
        <ele>84</ele>
        <time>2011-04-30T10:24:19Z</time>
      </trkpt>
      <trkpt lat="48.42805" lon="2.1174">
        <ele>84</ele>
        <time>2011-04-30T10:24:50Z</time>
      </trkpt>
      <trkpt lat="48.42806" lon="2.11741">
        <ele>84</ele>
        <time>2011-04-30T10:24:51Z</time>
      </trkpt>
      <trkpt lat="48.42806" lon="2.11742">
        <ele>84</ele>
        <time>2011-04-30T10:24:52Z</time>
      </trkpt>
      <trkpt lat="48.42806" lon="2.11742">
        <ele>84</ele>
        <time>2011-04-30T10:24:53Z</time>
      </trkpt>
      <trkpt lat="48.42807" lon="2.11743">
        <ele>84</ele>
        <time>2011-04-30T10:24:54Z</time>
      </trkpt>
    </trkseg>
  </trk>
</gpx>